<?xml version='1.0' encoding='UTF-8'?><gpx version="1.1" creator="JPX - https://github.com/jenetics/jpx" xmlns="http://www.topografix.com/GPX/1/1"><trk><trkseg><trkpt lat="50.17279354269207" lon="16.353233129640667"><ele>402.0</ele><time>2026-05-02T08:32:50.995Z</time></trkpt><trkpt lat="50.172787106484776" lon="16.35308647758633"><ele>402.0</ele><time>2026-05-02T08:32:53.995Z</time></trkpt><trkpt lat="50.17277801319539" lon="16.352969369614193"><ele>402.0</ele><time>2026-05-02T08:32:55.995Z</time></trkpt><trkpt lat="50.172774832080954" lon="16.352823324808043"><ele>402.0</ele><time>2026-05-02T08:32:57.995Z</time></trkpt><trkpt lat="50.17275463255505" lon="16.352680925837774"><ele>402.0</ele><time>2026-05-02T08:32:59.995Z</time></trkpt><trkpt lat="50.17273009380313" lon="16.352499899351734"><ele>402.0</ele><time>2026-05-02T08:33:01.995Z</time></trkpt><trkpt lat="50.17268860502131" lon="16.35230240699016"><ele>402.0</ele><time>2026-05-02T08:33:03.995Z</time></trkpt><trkpt lat="50.17267449302043" lon="16.35219932767337"><ele>402.0</ele><time>2026-05-02T08:33:04.995Z</time></trkpt><trkpt lat="50.172661614901564" lon="16.352077740101098"><ele>402.0</ele><time>2026-05-02T08:33:05.995Z</time></trkpt><trkpt lat="50.17267565770806" lon="16.351936068418222"><ele>402.0</ele><time>2026-05-02T08:33:06.995Z</time></trkpt><trkpt lat="50.17265987503668" lon="16.351810482747037"><ele>401.75</ele><time>2026-05-02T08:33:07.995Z</time></trkpt><trkpt lat="50.172638892233195" lon="16.351641834745706"><ele>401.5</ele><time>2026-05-02T08:33:08.995Z</time></trkpt><trkpt lat="50.17261173421094" lon="16.351436796594477"><ele>401.25</ele><time>2026-05-02T08:33:09.995Z</time></trkpt><trkpt lat="50.172566565916306" lon="16.351259966531813"><ele>401.0</ele><time>2026-05-02T08:33:10.994Z</time></trkpt><trkpt lat="50.172543985776336" lon="16.351127195729127"><ele>400.99999999999994</ele><time>2026-05-02T08:33:11.994Z</time></trkpt><trkpt lat="50.17251095194399" lon="16.35101711853027"><ele>401.0</ele><time>2026-05-02T08:33:12.994Z</time></trkpt><trkpt lat="50.17246968107525" lon="16.350926408679328"><ele>401.0</ele><time>2026-05-02T08:33:13.994Z</time></trkpt><trkpt lat="50.17241790372399" lon="16.350802909455336"><ele>401.0</ele><time>2026-05-02T08:33:14.994Z</time></trkpt><trkpt lat="50.172371302091264" lon="16.350673656780106"><ele>400.99999999999994</ele><time>2026-05-02T08:33:15.995Z</time></trkpt><trkpt lat="50.17232489035388" lon="16.35058466683488"><ele>401.0</ele><time>2026-05-02T08:33:16.995Z</time></trkpt><trkpt lat="50.172297396298745" lon="16.350482206544147"><ele>400.20000000000005</ele><time>2026-05-02T08:33:17.995Z</time></trkpt><trkpt lat="50.172252988787655" lon="16.350411943613683"><ele>399.40000000000003</ele><time>2026-05-02T08:33:18.995Z</time></trkpt><trkpt lat="50.17218373151174" lon="16.350268004572953"><ele>398.6</ele><time>2026-05-02T08:33:20.996Z</time></trkpt><trkpt lat="50.172141429864425" lon="16.35015742375083"><ele>397.8</ele><time>2026-05-02T08:33:21.996Z</time></trkpt><trkpt lat="50.172089229126875" lon="16.350035903231507"><ele>397.0</ele><time>2026-05-02T08:33:22.996Z</time></trkpt><trkpt lat="50.17203326138709" lon="16.349912958969547"><ele>397.00000000000006</ele><time>2026-05-02T08:33:23.996Z</time></trkpt><trkpt lat="50.171987762285056" lon="16.349805468278905"><ele>397.0</ele><time>2026-05-02T08:33:24.997Z</time></trkpt><trkpt lat="50.1719642710316" lon="16.34968625123666"><ele>397.0</ele><time>2026-05-02T08:33:25.997Z</time></trkpt><trkpt lat="50.17196950860012" lon="16.349552769872016"><ele>397.0</ele><time>2026-05-02T08:33:26.997Z</time></trkpt><trkpt lat="50.17195439395036" lon="16.349416932895394"><ele>397.00000000000006</ele><time>2026-05-02T08:33:27.997Z</time></trkpt><trkpt lat="50.17195541702053" lon="16.34928645687814"><ele>397.0</ele><time>2026-05-02T08:33:28.997Z</time></trkpt><trkpt lat="50.171971400595126" lon="16.349163005657392"><ele>396.33333333333337</ele><time>2026-05-02T08:33:29.997Z</time></trkpt><trkpt lat="50.17200435270006" lon="16.34904889695408"><ele>395.6666666666667</ele><time>2026-05-02T08:33:30.998Z</time></trkpt><trkpt lat="50.17203207581493" lon="16.348924040852047"><ele>395.0</ele><time>2026-05-02T08:33:31.998Z</time></trkpt><trkpt lat="50.17202724642043" lon="16.348805070835557"><ele>394.33333333333337</ele><time>2026-05-02T08:33:32.998Z</time></trkpt><trkpt lat="50.17196372260826" lon="16.34869561237581"><ele>393.6666666666667</ele><time>2026-05-02T08:33:33.998Z</time></trkpt><trkpt lat="50.17190609869393" lon="16.34860462880482"><ele>393.0</ele><time>2026-05-02T08:33:34.998Z</time></trkpt><trkpt lat="50.171836237557194" lon="16.348529530097718"><ele>393.0</ele><time>2026-05-02T08:33:35.998Z</time></trkpt><trkpt lat="50.171778660331746" lon="16.348470078173236"><ele>393.0</ele><time>2026-05-02T08:33:36.998Z</time></trkpt><trkpt lat="50.17171993328634" lon="16.34839691844534"><ele>393.0</ele><time>2026-05-02T08:33:38.998Z</time></trkpt><trkpt lat="50.17156745753382" lon="16.348596217335118"><ele>393.0</ele><time>2026-05-02T08:33:40.999Z</time></trkpt><trkpt lat="50.17149998864906" lon="16.34871684745609"><ele>393.0</ele><time>2026-05-02T08:33:41.999Z</time></trkpt><trkpt lat="50.17142947369136" lon="16.348842923750233"><ele>393.25</ele><time>2026-05-02T08:33:42.999Z</time></trkpt><trkpt lat="50.17135452172396" lon="16.34897308210902"><ele>393.5</ele><time>2026-05-02T08:33:43.999Z</time></trkpt><trkpt lat="50.17127450076966" lon="16.349112477421777"><ele>393.75</ele><time>2026-05-02T08:33:44.999Z</time></trkpt><trkpt lat="50.171210525424996" lon="16.349280945481944"><ele>394.0</ele><time>2026-05-02T08:33:45.999Z</time></trkpt><trkpt lat="50.171131138415305" lon="16.349437960030325"><ele>394.0</ele><time>2026-05-02T08:33:46.999Z</time></trkpt><trkpt lat="50.17105485357769" lon="16.349604087296274"><ele>394.0</ele><time>2026-05-02T08:33:47.999Z</time></trkpt><trkpt lat="50.17096345233257" lon="16.349752062791435"><ele>394.0</ele><time>2026-05-02T08:33:48.999Z</time></trkpt><trkpt lat="50.17086617781747" lon="16.349889715609745"><ele>394.0</ele><time>2026-05-02T08:33:49.999Z</time></trkpt><trkpt lat="50.17076362757913" lon="16.350017311047335"><ele>395.0</ele><time>2026-05-02T08:33:50.999Z</time></trkpt><trkpt lat="50.170682747703964" lon="16.3501266041676"><ele>396.0</ele><time>2026-05-02T08:33:51.999Z</time></trkpt><trkpt lat="50.17060011862849" lon="16.350240112900696"><ele>397.0</ele><time>2026-05-02T08:33:52.999Z</time></trkpt><trkpt lat="50.170524302223406" lon="16.350365777586923"><ele>398.0</ele><time>2026-05-02T08:33:53.999Z</time></trkpt><trkpt lat="50.17044396750626" lon="16.350498719113435"><ele>399.0</ele><time>2026-05-02T08:33:54.999Z</time></trkpt><trkpt lat="50.17036242891074" lon="16.350633652868133"><ele>399.5</ele><time>2026-05-02T08:33:55.999Z</time></trkpt><trkpt lat="50.17028772063983" lon="16.350782003317374"><ele>400.0</ele><time>2026-05-02T08:33:56.999Z</time></trkpt><trkpt lat="50.170220882867966" lon="16.35091486120027"><ele>400.5</ele><time>2026-05-02T08:33:57.999Z</time></trkpt><trkpt lat="50.17014766738206" lon="16.351060396486776"><ele>401.0</ele><time>2026-05-02T08:33:58.999Z</time></trkpt><trkpt lat="50.170070446842644" lon="16.351213447583856"><ele>401.0</ele><time>2026-05-02T08:33:59.999Z</time></trkpt><trkpt lat="50.16998179902499" lon="16.351364223781168"><ele>401.0</ele><time>2026-05-02T08:34:00.999Z</time></trkpt><trkpt lat="50.169878711468485" lon="16.35152167807445"><ele>401.0</ele><time>2026-05-02T08:34:01.999Z</time></trkpt><trkpt lat="50.1697763597817" lon="16.351665901722036"><ele>401.0</ele><time>2026-05-02T08:34:02.999Z</time></trkpt><trkpt lat="50.169672516822764" lon="16.351796289153338"><ele>400.5</ele><time>2026-05-02T08:34:03.999Z</time></trkpt><trkpt lat="50.16957778710406" lon="16.351884943379197"><ele>400.0</ele><time>2026-05-02T08:34:04.999Z</time></trkpt><trkpt lat="50.16947535334294" lon="16.35197589104796"><ele>399.5</ele><time>2026-05-02T08:34:05.999Z</time></trkpt><trkpt lat="50.169367918904705" lon="16.352074194335486"><ele>399.0</ele><time>2026-05-02T08:34:06.999Z</time></trkpt><trkpt lat="50.16925074406361" lon="16.352160431246265"><ele>399.0</ele><time>2026-05-02T08:34:07.999Z</time></trkpt><trkpt lat="50.16912545730853" lon="16.35224686315548"><ele>399.0</ele><time>2026-05-02T08:34:09Z</time></trkpt><trkpt lat="50.16898090738672" lon="16.35234726548987"><ele>399.0</ele><time>2026-05-02T08:34:10Z</time></trkpt><trkpt lat="50.16884496669722" lon="16.35251516054753"><ele>399.0</ele><time>2026-05-02T08:34:11Z</time></trkpt><trkpt lat="50.16870523349024" lon="16.352637554895978"><ele>399.0</ele><time>2026-05-02T08:34:12Z</time></trkpt><trkpt lat="50.16859165407411" lon="16.352777352693224"><ele>399.0</ele><time>2026-05-02T08:34:13Z</time></trkpt><trkpt lat="50.168478582796915" lon="16.352962806641976"><ele>399.66666666666663</ele><time>2026-05-02T08:34:14Z</time></trkpt><trkpt lat="50.16836396899509" lon="16.35314537253622"><ele>400.3333333333333</ele><time>2026-05-02T08:34:15Z</time></trkpt><trkpt lat="50.168273790340656" lon="16.353326724665365"><ele>401.0</ele><time>2026-05-02T08:34:16Z</time></trkpt><trkpt lat="50.16819433230162" lon="16.353518125229186"><ele>400.66666666666663</ele><time>2026-05-02T08:34:17Z</time></trkpt><trkpt lat="50.16812316907833" lon="16.353737628870203"><ele>400.33333333333337</ele><time>2026-05-02T08:34:18Z</time></trkpt><trkpt lat="50.16804953499088" lon="16.353951749120764"><ele>400.0</ele><time>2026-05-02T08:34:19Z</time></trkpt><trkpt lat="50.16798835142901" lon="16.35414457369882"><ele>400.0</ele><time>2026-05-02T08:34:20Z</time></trkpt><trkpt lat="50.16794042006384" lon="16.354333419712223"><ele>400.0</ele><time>2026-05-02T08:34:21Z</time></trkpt><trkpt lat="50.16790145230343" lon="16.35452110155064"><ele>400.0</ele><time>2026-05-02T08:34:22Z</time></trkpt><trkpt lat="50.167862482682764" lon="16.354705370991134"><ele>400.0</ele><time>2026-05-02T08:34:23Z</time></trkpt><trkpt lat="50.167797859387825" lon="16.35489903339227"><ele>400.0</ele><time>2026-05-02T08:34:24Z</time></trkpt><trkpt lat="50.1677014650747" lon="16.355091537275978"><ele>400.0</ele><time>2026-05-02T08:34:25Z</time></trkpt><trkpt lat="50.16759718924522" lon="16.35527327731846"><ele>400.0</ele><time>2026-05-02T08:34:26Z</time></trkpt><trkpt lat="50.1674746992532" lon="16.355421915473983"><ele>400.5</ele><time>2026-05-02T08:34:27Z</time></trkpt><trkpt lat="50.167366150806565" lon="16.355585131526738"><ele>401.0</ele><time>2026-05-02T08:34:28Z</time></trkpt><trkpt lat="50.16727940925506" lon="16.355754630210864"><ele>401.5</ele><time>2026-05-02T08:34:29Z</time></trkpt><trkpt lat="50.16721115898811" lon="16.355907785921616"><ele>402.0</ele><time>2026-05-02T08:34:30Z</time></trkpt><trkpt lat="50.1671563911332" lon="16.356117773994644"><ele>402.0</ele><time>2026-05-02T08:34:31Z</time></trkpt><trkpt lat="50.167078028401086" lon="16.356314162362832"><ele>402.0</ele><time>2026-05-02T08:34:32Z</time></trkpt><trkpt lat="50.16697783862821" lon="16.356462336584872"><ele>402.0</ele><time>2026-05-02T08:34:33Z</time></trkpt><trkpt lat="50.1668686697164" lon="16.356613975341734"><ele>402.0</ele><time>2026-05-02T08:34:33.999Z</time></trkpt><trkpt lat="50.16675854431069" lon="16.356783948053828"><ele>402.0</ele><time>2026-05-02T08:34:34.999Z</time></trkpt><trkpt lat="50.16662674741664" lon="16.35694989111537"><ele>402.0</ele><time>2026-05-02T08:34:35.999Z</time></trkpt><trkpt lat="50.166489410681365" lon="16.357108980057397"><ele>402.0</ele><time>2026-05-02T08:34:36.999Z</time></trkpt><trkpt lat="50.166358916353715" lon="16.357281299600775"><ele>402.0</ele><time>2026-05-02T08:34:37.999Z</time></trkpt><trkpt lat="50.16621907295464" lon="16.357456706151993"><ele>402.0</ele><time>2026-05-02T08:34:38.999Z</time></trkpt><trkpt lat="50.166095543905094" lon="16.357614113153584"><ele>402.0</ele><time>2026-05-02T08:34:39.999Z</time></trkpt><trkpt lat="50.165984697650664" lon="16.357757942377887"><ele>402.0</ele><time>2026-05-02T08:34:40.999Z</time></trkpt><trkpt lat="50.16587211278296" lon="16.357904802084956"><ele>402.0</ele><time>2026-05-02T08:34:41.999Z</time></trkpt><trkpt lat="50.16577141292157" lon="16.35806458527055"><ele>402.0</ele><time>2026-05-02T08:34:42.999Z</time></trkpt><trkpt lat="50.165640460863585" lon="16.358158004354877"><ele>402.0</ele><time>2026-05-02T08:34:43.999Z</time></trkpt><trkpt lat="50.16549160278812" lon="16.358245362849736"><ele>402.33333333333337</ele><time>2026-05-02T08:34:44.999Z</time></trkpt><trkpt lat="50.16533693917355" lon="16.358340935890563"><ele>402.6666666666667</ele><time>2026-05-02T08:34:45.999Z</time></trkpt><trkpt lat="50.165199967660136" lon="16.358479912890253"><ele>403.0</ele><time>2026-05-02T08:34:46.999Z</time></trkpt><trkpt lat="50.1650603233423" lon="16.35861414515348"><ele>403.0</ele><time>2026-05-02T08:34:47.999Z</time></trkpt><trkpt lat="50.16491785763022" lon="16.35871434167889"><ele>403.0</ele><time>2026-05-02T08:34:48.999Z</time></trkpt><trkpt lat="50.16479678651009" lon="16.358807372668334"><ele>403.0</ele><time>2026-05-02T08:34:49.999Z</time></trkpt><trkpt lat="50.16465355849665" lon="16.358885804302787"><ele>403.0</ele><time>2026-05-02T08:34:50.999Z</time></trkpt><trkpt lat="50.164517564084214" lon="16.358941330816847"><ele>403.0</ele><time>2026-05-02T08:34:51.999Z</time></trkpt><trkpt lat="50.164383817911904" lon="16.358988440558257"><ele>403.0</ele><time>2026-05-02T08:34:52.999Z</time></trkpt><trkpt lat="50.164243469877874" lon="16.35903174532436"><ele>403.0</ele><time>2026-05-02T08:34:53.999Z</time></trkpt><trkpt lat="50.16410232797169" lon="16.359072995827795"><ele>403.0</ele><time>2026-05-02T08:34:54.999Z</time></trkpt><trkpt lat="50.16397081206793" lon="16.359109497760894"><ele>403.0</ele><time>2026-05-02T08:34:55.999Z</time></trkpt><trkpt lat="50.16384302819123" lon="16.359142718577427"><ele>403.0</ele><time>2026-05-02T08:34:56.999Z</time></trkpt><trkpt lat="50.16371553373409" lon="16.359197974860574"><ele>403.0</ele><time>2026-05-02T08:34:57.999Z</time></trkpt><trkpt lat="50.16360275849639" lon="16.359264732897483"><ele>403.0</ele><time>2026-05-02T08:34:58.999Z</time></trkpt><trkpt lat="50.16349840398937" lon="16.35935324886204"><ele>403.0</ele><time>2026-05-02T08:34:59.999Z</time></trkpt><trkpt lat="50.16339671565065" lon="16.359438686442683"><ele>403.0</ele><time>2026-05-02T08:35:00.999Z</time></trkpt><trkpt lat="50.163304061796566" lon="16.359517806833853"><ele>403.0</ele><time>2026-05-02T08:35:01.999Z</time></trkpt><trkpt lat="50.16322168691346" lon="16.35959032252062"><ele>403.0</ele><time>2026-05-02T08:35:02.999Z</time></trkpt><trkpt lat="50.16314152778037" lon="16.359661304330693"><ele>403.0</ele><time>2026-05-02T08:35:03.999Z</time></trkpt><trkpt lat="50.163060792027295" lon="16.359734711811804"><ele>403.33333333333337</ele><time>2026-05-02T08:35:04.999Z</time></trkpt><trkpt lat="50.16299461015996" lon="16.359803427699873"><ele>403.6666666666667</ele><time>2026-05-02T08:35:05.999Z</time></trkpt><trkpt lat="50.162925912269955" lon="16.359851276609046"><ele>404.0</ele><time>2026-05-02T08:35:06.999Z</time></trkpt><trkpt lat="50.16285839148386" lon="16.359876571520342"><ele>404.33333333333337</ele><time>2026-05-02T08:35:07.999Z</time></trkpt><trkpt lat="50.16278839826427" lon="16.359859070637363"><ele>404.6666666666667</ele><time>2026-05-02T08:35:08.999Z</time></trkpt><trkpt lat="50.16273032804412" lon="16.35981982574187"><ele>405.0</ele><time>2026-05-02T08:35:09.999Z</time></trkpt><trkpt lat="50.16263997725563" lon="16.359755660837276"><ele>405.2</ele><time>2026-05-02T08:35:11.999Z</time></trkpt><trkpt lat="50.162657592948" lon="16.359600102729935"><ele>405.4</ele><time>2026-05-02T08:35:13.999Z</time></trkpt><trkpt lat="50.162705854163065" lon="16.359477449420442"><ele>405.6</ele><time>2026-05-02T08:35:14.999Z</time></trkpt><trkpt lat="50.16276747760024" lon="16.35933125913149"><ele>405.8</ele><time>2026-05-02T08:35:15.999Z</time></trkpt><trkpt lat="50.162834471564594" lon="16.35915578922193"><ele>406.0</ele><time>2026-05-02T08:35:16.999Z</time></trkpt><trkpt lat="50.16290174133736" lon="16.358953802599274"><ele>407.33333333333337</ele><time>2026-05-02T08:35:17.999Z</time></trkpt><trkpt lat="50.162970306416234" lon="16.358744564514875"><ele>408.66666666666663</ele><time>2026-05-02T08:35:18.999Z</time></trkpt><trkpt lat="50.16306621237928" lon="16.358514740544454"><ele>410.0</ele><time>2026-05-02T08:35:19.999Z</time></trkpt><trkpt lat="50.16319726543229" lon="16.358279701947517"><ele>411.0</ele><time>2026-05-02T08:35:20.999Z</time></trkpt><trkpt lat="50.163357932353904" lon="16.358029286986437"><ele>412.0</ele><time>2026-05-02T08:35:21.999Z</time></trkpt><trkpt lat="50.16352902885288" lon="16.35778415597446"><ele>412.0</ele><time>2026-05-02T08:35:22.999Z</time></trkpt><trkpt lat="50.16367515998877" lon="16.357566084135076"><ele>412.0</ele><time>2026-05-02T08:35:23.999Z</time></trkpt><trkpt lat="50.163794247394065" lon="16.357383457551215"><ele>412.0</ele><time>2026-05-02T08:35:24.999Z</time></trkpt><trkpt lat="50.16387949749946" lon="16.357261722486594"><ele>412.75</ele><time>2026-05-02T08:35:25.999Z</time></trkpt><trkpt lat="50.16392592641725" lon="16.357118833467055"><ele>413.5</ele><time>2026-05-02T08:35:26.999Z</time></trkpt><trkpt lat="50.163942705463" lon="16.356920036563675"><ele>414.25</ele><time>2026-05-02T08:35:27.999Z</time></trkpt><trkpt lat="50.16389343318591" lon="16.356710259290846"><ele>415.0</ele><time>2026-05-02T08:35:29Z</time></trkpt><trkpt lat="50.16378403388996" lon="16.356514043777615"><ele>415.0</ele><time>2026-05-02T08:35:30Z</time></trkpt><trkpt lat="50.16364440312166" lon="16.356370665506326"><ele>415.0</ele><time>2026-05-02T08:35:31Z</time></trkpt><trkpt lat="50.163467774241695" lon="16.356298725446482"><ele>415.0</ele><time>2026-05-02T08:35:32Z</time></trkpt><trkpt lat="50.16326402530924" lon="16.35628550398642"><ele>419.0</ele><time>2026-05-02T08:35:33Z</time></trkpt><trkpt lat="50.163058067514626" lon="16.356241069812196"><ele>423.0</ele><time>2026-05-02T08:35:34Z</time></trkpt><trkpt lat="50.162882597373354" lon="16.35627186163612"><ele>427.0</ele><time>2026-05-02T08:35:35Z</time></trkpt><trkpt lat="50.16272560452698" lon="16.35633006625629"><ele>426.33333333333337</ele><time>2026-05-02T08:35:36Z</time></trkpt><trkpt lat="50.16256812439662" lon="16.35646034769594"><ele>425.66666666666663</ele><time>2026-05-02T08:35:37Z</time></trkpt><trkpt lat="50.162421226218704" lon="16.356520730611138"><ele>425.0</ele><time>2026-05-02T08:35:38Z</time></trkpt><trkpt lat="50.162280717105" lon="16.35650288296463"><ele>425.0</ele><time>2026-05-02T08:35:39Z</time></trkpt><trkpt lat="50.16212275947218" lon="16.35640527262551"><ele>425.0</ele><time>2026-05-02T08:35:40Z</time></trkpt><trkpt lat="50.16192585897399" lon="16.356286063164973"><ele>425.0</ele><time>2026-05-02T08:35:41Z</time></trkpt><trkpt lat="50.16171450060187" lon="16.356175317993117"><ele>426.2</ele><time>2026-05-02T08:35:42Z</time></trkpt><trkpt lat="50.16158791790981" lon="16.356067755274726"><ele>427.4</ele><time>2026-05-02T08:35:43Z</time></trkpt><trkpt lat="50.16148596709882" lon="16.356001043148503"><ele>428.6</ele><time>2026-05-02T08:35:44Z</time></trkpt><trkpt lat="50.16141313110138" lon="16.355897696800014"><ele>429.8</ele><time>2026-05-02T08:35:45Z</time></trkpt><trkpt lat="50.161373011720556" lon="16.35576369926012"><ele>431.0</ele><time>2026-05-02T08:35:46Z</time></trkpt><trkpt lat="50.161422593567934" lon="16.35558407471244"><ele>432.3333333333333</ele><time>2026-05-02T08:35:47Z</time></trkpt><trkpt lat="50.16151777537494" lon="16.355386164074233"><ele>433.66666666666663</ele><time>2026-05-02T08:35:48Z</time></trkpt><trkpt lat="50.161637552374756" lon="16.355165645990176"><ele>435.0</ele><time>2026-05-02T08:35:49Z</time></trkpt><trkpt lat="50.16177221248501" lon="16.35493243766117"><ele>435.0</ele><time>2026-05-02T08:35:50Z</time></trkpt><trkpt lat="50.16190164670388" lon="16.354712954231537"><ele>435.0</ele><time>2026-05-02T08:35:51Z</time></trkpt><trkpt lat="50.16198049428784" lon="16.35451978498647"><ele>435.0</ele><time>2026-05-02T08:35:52Z</time></trkpt><trkpt lat="50.16200889613329" lon="16.354318909338275"><ele>436.25</ele><time>2026-05-02T08:35:53Z</time></trkpt><trkpt lat="50.16198139881476" lon="16.354100527546525"><ele>437.5</ele><time>2026-05-02T08:35:54Z</time></trkpt><trkpt lat="50.161908312639724" lon="16.35390259768411"><ele>438.75</ele><time>2026-05-02T08:35:55Z</time></trkpt><trkpt lat="50.16179797665065" lon="16.353765793128172"><ele>440.0</ele><time>2026-05-02T08:35:56Z</time></trkpt><trkpt lat="50.161650962448" lon="16.353728994170314"><ele>444.0</ele><time>2026-05-02T08:35:57Z</time></trkpt><trkpt lat="50.16147001466684" lon="16.353730926960502"><ele>448.0</ele><time>2026-05-02T08:35:58Z</time></trkpt><trkpt lat="50.161308136570916" lon="16.35366516384641"><ele>452.0</ele><time>2026-05-02T08:35:59Z</time></trkpt><trkpt lat="50.1611914990634" lon="16.35357551075048"><ele>452.0</ele><time>2026-05-02T08:36:00Z</time></trkpt><trkpt lat="50.16112281835844" lon="16.35339374730695"><ele>452.0</ele><time>2026-05-02T08:36:01Z</time></trkpt><trkpt lat="50.16106030079795" lon="16.353142924695874"><ele>452.0</ele><time>2026-05-02T08:36:02Z</time></trkpt><trkpt lat="50.160987256376295" lon="16.35282006757092"><ele>453.5</ele><time>2026-05-02T08:36:03Z</time></trkpt><trkpt lat="50.16095109643221" lon="16.352447313652434"><ele>455.0</ele><time>2026-05-02T08:36:04Z</time></trkpt><trkpt lat="50.16092507695625" lon="16.35201461629222"><ele>458.0</ele><time>2026-05-02T08:36:05Z</time></trkpt><trkpt lat="50.16089656001773" lon="16.351626508001733"><ele>461.0</ele><time>2026-05-02T08:36:06Z</time></trkpt><trkpt lat="50.16087178207008" lon="16.35127828670016"><ele>463.66666666666663</ele><time>2026-05-02T08:36:07Z</time></trkpt><trkpt lat="50.160858427270114" lon="16.350939092518267"><ele>466.33333333333337</ele><time>2026-05-02T08:36:08Z</time></trkpt><trkpt lat="50.16088070452679" lon="16.35061475046966"><ele>469.0</ele><time>2026-05-02T08:36:09Z</time></trkpt><trkpt lat="50.160883842247856" lon="16.350340411405462"><ele>471.33333333333337</ele><time>2026-05-02T08:36:10Z</time></trkpt><trkpt lat="50.16093332427261" lon="16.35010086785782"><ele>473.66666666666663</ele><time>2026-05-02T08:36:11Z</time></trkpt><trkpt lat="50.16103640207885" lon="16.349820055330564"><ele>476.0</ele><time>2026-05-02T08:36:12Z</time></trkpt><trkpt lat="50.16114477205544" lon="16.349483863563012"><ele>479.0</ele><time>2026-05-02T08:36:13Z</time></trkpt><trkpt lat="50.1612331491901" lon="16.34912308878423"><ele>482.0</ele><time>2026-05-02T08:36:14Z</time></trkpt><trkpt lat="50.16130248198001" lon="16.348723624048613"><ele>482.0</ele><time>2026-05-02T08:36:15Z</time></trkpt><trkpt lat="50.16135280108065" lon="16.348352412524143"><ele>482.0</ele><time>2026-05-02T08:36:16Z</time></trkpt><trkpt lat="50.1613942830629" lon="16.3480114581242"><ele>482.0</ele><time>2026-05-02T08:36:17Z</time></trkpt><trkpt lat="50.161411579274734" lon="16.347653173719454"><ele>482.0</ele><time>2026-05-02T08:36:18Z</time></trkpt><trkpt lat="50.16140588364386" lon="16.347272218580922"><ele>481.0</ele><time>2026-05-02T08:36:19Z</time></trkpt><trkpt lat="50.1613855630901" lon="16.346843747072082"><ele>480.0</ele><time>2026-05-02T08:36:20Z</time></trkpt><trkpt lat="50.16134935089404" lon="16.3463590314543"><ele>478.5</ele><time>2026-05-02T08:36:21Z</time></trkpt><trkpt lat="50.16130544418415" lon="16.345843979681906"><ele>477.0</ele><time>2026-05-02T08:36:22Z</time></trkpt><trkpt lat="50.16127248537899" lon="16.3453420789839"><ele>477.0</ele><time>2026-05-02T08:36:23Z</time></trkpt><trkpt lat="50.16126139164053" lon="16.34483672722155"><ele>477.0</ele><time>2026-05-02T08:36:24Z</time></trkpt><trkpt lat="50.16128806776976" lon="16.344285878373512"><ele>482.0</ele><time>2026-05-02T08:36:25Z</time></trkpt><trkpt lat="50.161298810099495" lon="16.343696413721535"><ele>487.0</ele><time>2026-05-02T08:36:26Z</time></trkpt><trkpt lat="50.161296860605376" lon="16.3430823162997"><ele>486.0</ele><time>2026-05-02T08:36:27Z</time></trkpt><trkpt lat="50.161305631462334" lon="16.342503182982597"><ele>485.0</ele><time>2026-05-02T08:36:28Z</time></trkpt><trkpt lat="50.16132836108963" lon="16.341999573957704"><ele>483.5</ele><time>2026-05-02T08:36:29Z</time></trkpt><trkpt lat="50.161338156969826" lon="16.341484936383175"><ele>482.0</ele><time>2026-05-02T08:36:30Z</time></trkpt><trkpt lat="50.16133245022526" lon="16.340936801688052"><ele>478.5</ele><time>2026-05-02T08:36:31Z</time></trkpt><trkpt lat="50.161347158771555" lon="16.34037732188107"><ele>475.0</ele><time>2026-05-02T08:36:32Z</time></trkpt><trkpt lat="50.16136719456224" lon="16.339825780443768"><ele>471.5</ele><time>2026-05-02T08:36:33Z</time></trkpt><trkpt lat="50.16140411725475" lon="16.339289033022688"><ele>468.0</ele><time>2026-05-02T08:36:34Z</time></trkpt><trkpt lat="50.16149310677182" lon="16.33874152940431"><ele>464.5</ele><time>2026-05-02T08:36:35Z</time></trkpt><trkpt lat="50.16158117430366" lon="16.338177036141964"><ele>461.0</ele><time>2026-05-02T08:36:36Z</time></trkpt><trkpt lat="50.1616576167151" lon="16.337620759408995"><ele>461.0</ele><time>2026-05-02T08:36:37Z</time></trkpt><trkpt lat="50.16169500440776" lon="16.337061101284334"><ele>461.0</ele><time>2026-05-02T08:36:38Z</time></trkpt><trkpt lat="50.16172635076479" lon="16.336482648873858"><ele>461.5</ele><time>2026-05-02T08:36:39Z</time></trkpt><trkpt lat="50.16175806989472" lon="16.335879077970432"><ele>462.0</ele><time>2026-05-02T08:36:40Z</time></trkpt><trkpt lat="50.16179489144003" lon="16.335291378901587"><ele>462.5</ele><time>2026-05-02T08:36:41Z</time></trkpt><trkpt lat="50.16182649026027" lon="16.334780772967203"><ele>463.0</ele><time>2026-05-02T08:36:42Z</time></trkpt><trkpt lat="50.161855815049776" lon="16.334312960206255"><ele>465.0</ele><time>2026-05-02T08:36:43Z</time></trkpt><trkpt lat="50.16189716245743" lon="16.333781737031135"><ele>467.0</ele><time>2026-05-02T08:36:44Z</time></trkpt><trkpt lat="50.161956487944245" lon="16.333202313987226"><ele>466.0</ele><time>2026-05-02T08:36:45Z</time></trkpt><trkpt lat="50.16203301107763" lon="16.33259433539432"><ele>465.0</ele><time>2026-05-02T08:36:46Z</time></trkpt><trkpt lat="50.1621108196931" lon="16.331973127278026"><ele>462.5</ele><time>2026-05-02T08:36:47Z</time></trkpt><trkpt lat="50.16219437126559" lon="16.33133040127665"><ele>460.0</ele><time>2026-05-02T08:36:48Z</time></trkpt><trkpt lat="50.16227349685787" lon="16.330720003628397"><ele>459.0</ele><time>2026-05-02T08:36:49Z</time></trkpt><trkpt lat="50.16234685281828" lon="16.33011700660454"><ele>458.0</ele><time>2026-05-02T08:36:50Z</time></trkpt><trkpt lat="50.16241655975999" lon="16.329536298180816"><ele>457.5</ele><time>2026-05-02T08:36:51Z</time></trkpt><trkpt lat="50.162476109563286" lon="16.329025951683306"><ele>457.0</ele><time>2026-05-02T08:36:52Z</time></trkpt><trkpt lat="50.16253387338603" lon="16.328533865428923"><ele>457.0</ele><time>2026-05-02T08:36:53Z</time></trkpt><trkpt lat="50.162602257442565" lon="16.328011209394365"><ele>457.0</ele><time>2026-05-02T08:36:54Z</time></trkpt><trkpt lat="50.16266949228102" lon="16.327472926393593"><ele>457.5</ele><time>2026-05-02T08:36:55Z</time></trkpt><trkpt lat="50.1627231487732" lon="16.326913343528815"><ele>458.0</ele><time>2026-05-02T08:36:56Z</time></trkpt><trkpt lat="50.16276238677143" lon="16.326379518609556"><ele>456.5</ele><time>2026-05-02T08:36:57Z</time></trkpt><trkpt lat="50.1627941957473" lon="16.325904027979483"><ele>455.0</ele><time>2026-05-02T08:36:58Z</time></trkpt><trkpt lat="50.1628317295216" lon="16.32545004439951"><ele>453.5</ele><time>2026-05-02T08:36:59Z</time></trkpt><trkpt lat="50.16288077724059" lon="16.324978245276874"><ele>452.0</ele><time>2026-05-02T08:37:00Z</time></trkpt><trkpt lat="50.16291992737353" lon="16.324501933538322"><ele>451.0</ele><time>2026-05-02T08:37:01Z</time></trkpt><trkpt lat="50.16296603998299" lon="16.324023832329893"><ele>450.0</ele><time>2026-05-02T08:37:02Z</time></trkpt><trkpt lat="50.163029571845726" lon="16.32353773021599"><ele>450.0</ele><time>2026-05-02T08:37:03Z</time></trkpt><trkpt lat="50.16311432920823" lon="16.323022773369324"><ele>450.0</ele><time>2026-05-02T08:37:04Z</time></trkpt><trkpt lat="50.16319916540822" lon="16.32252468867077"><ele>446.5</ele><time>2026-05-02T08:37:05Z</time></trkpt><trkpt lat="50.16328123071928" lon="16.32210054716822"><ele>443.0</ele><time>2026-05-02T08:37:06Z</time></trkpt><trkpt lat="50.16335386453861" lon="16.321690850068563"><ele>440.0</ele><time>2026-05-02T08:37:07Z</time></trkpt><trkpt lat="50.16341806413562" lon="16.32130296372493"><ele>437.0</ele><time>2026-05-02T08:37:08Z</time></trkpt><trkpt lat="50.16348092743772" lon="16.32093462122572"><ele>437.0</ele><time>2026-05-02T08:37:09Z</time></trkpt><trkpt lat="50.163538466672605" lon="16.32058168650372"><ele>437.0</ele><time>2026-05-02T08:37:10Z</time></trkpt><trkpt lat="50.1635971968193" lon="16.320237189254158"><ele>434.5</ele><time>2026-05-02T08:37:11Z</time></trkpt><trkpt lat="50.16366369081376" lon="16.319877392793178"><ele>432.0</ele><time>2026-05-02T08:37:12Z</time></trkpt><trkpt lat="50.163730949698724" lon="16.319506128520125"><ele>430.5</ele><time>2026-05-02T08:37:13Z</time></trkpt><trkpt lat="50.16379569898552" lon="16.31912670143236"><ele>429.0</ele><time>2026-05-02T08:37:14Z</time></trkpt><trkpt lat="50.16386085536433" lon="16.318741580935505"><ele>427.5</ele><time>2026-05-02T08:37:15Z</time></trkpt><trkpt lat="50.16392693281087" lon="16.31835850859015"><ele>426.0</ele><time>2026-05-02T08:37:16Z</time></trkpt><trkpt lat="50.16399643683995" lon="16.31797606139786"><ele>424.5</ele><time>2026-05-02T08:37:17Z</time></trkpt><trkpt lat="50.16406631912997" lon="16.31758666226763"><ele>423.0</ele><time>2026-05-02T08:37:18Z</time></trkpt><trkpt lat="50.16413703887317" lon="16.3171958997598"><ele>422.0</ele><time>2026-05-02T08:37:19Z</time></trkpt><trkpt lat="50.16421387991495" lon="16.31677397165365"><ele>421.0</ele><time>2026-05-02T08:37:20Z</time></trkpt><trkpt lat="50.16429851851088" lon="16.316309728193733"><ele>420.0</ele><time>2026-05-02T08:37:21Z</time></trkpt><trkpt lat="50.16438745844845" lon="16.315798503728267"><ele>419.0</ele><time>2026-05-02T08:37:22Z</time></trkpt><trkpt lat="50.164468553232666" lon="16.315317468177426"><ele>417.5</ele><time>2026-05-02T08:37:23Z</time></trkpt><trkpt lat="50.16453667388459" lon="16.314894762083036"><ele>416.0</ele><time>2026-05-02T08:37:24Z</time></trkpt><trkpt lat="50.16460525739765" lon="16.314467939448214"><ele>415.5</ele><time>2026-05-02T08:37:25Z</time></trkpt><trkpt lat="50.16466636197796" lon="16.31403073162899"><ele>415.0</ele><time>2026-05-02T08:37:26Z</time></trkpt><trkpt lat="50.16471607955998" lon="16.313592226830725"><ele>415.0</ele><time>2026-05-02T08:37:27Z</time></trkpt><trkpt lat="50.16474754519278" lon="16.313146679308563"><ele>415.0</ele><time>2026-05-02T08:37:28Z</time></trkpt><trkpt lat="50.16476303653129" lon="16.312675085176448"><ele>416.5</ele><time>2026-05-02T08:37:29Z</time></trkpt><trkpt lat="50.164770609640215" lon="16.31217657482775"><ele>418.0</ele><time>2026-05-02T08:37:30Z</time></trkpt><trkpt lat="50.164773588084394" lon="16.31172634348797"><ele>414.0</ele><time>2026-05-02T08:37:31Z</time></trkpt><trkpt lat="50.16478311211855" lon="16.311300907652363"><ele>410.0</ele><time>2026-05-02T08:37:32Z</time></trkpt><trkpt lat="50.16479319317657" lon="16.31087651084994"><ele>406.5</ele><time>2026-05-02T08:37:33Z</time></trkpt><trkpt lat="50.16480217824617" lon="16.310455264981602"><ele>403.0</ele><time>2026-05-02T08:37:34Z</time></trkpt><trkpt lat="50.16481022822348" lon="16.31003048523009"><ele>401.5</ele><time>2026-05-02T08:37:35Z</time></trkpt><trkpt lat="50.164819534625025" lon="16.309613390821347"><ele>400.0</ele><time>2026-05-02T08:37:36Z</time></trkpt><trkpt lat="50.16482887201288" lon="16.309191959671562"><ele>399.5</ele><time>2026-05-02T08:37:37Z</time></trkpt><trkpt lat="50.164836556660646" lon="16.308768382229413"><ele>399.0</ele><time>2026-05-02T08:37:38Z</time></trkpt><trkpt lat="50.16484565826852" lon="16.308319930271796"><ele>398.5</ele><time>2026-05-02T08:37:39Z</time></trkpt><trkpt lat="50.16485678648258" lon="16.30786731992672"><ele>398.0</ele><time>2026-05-02T08:37:40Z</time></trkpt><trkpt lat="50.16486850007785" lon="16.307428071024596"><ele>397.0</ele><time>2026-05-02T08:37:41Z</time></trkpt><trkpt lat="50.164881896901505" lon="16.30701235069453"><ele>396.0</ele><time>2026-05-02T08:37:42Z</time></trkpt><trkpt lat="50.16489520154322" lon="16.3066178334054"><ele>394.0</ele><time>2026-05-02T08:37:43Z</time></trkpt><trkpt lat="50.16490933673644" lon="16.30620749249833"><ele>392.0</ele><time>2026-05-02T08:37:44Z</time></trkpt><trkpt lat="50.164921551212714" lon="16.30578271697398"><ele>390.5</ele><time>2026-05-02T08:37:45Z</time></trkpt><trkpt lat="50.164934771839526" lon="16.305333387747662"><ele>389.0</ele><time>2026-05-02T08:37:46Z</time></trkpt><trkpt lat="50.16495160362921" lon="16.304871055379703"><ele>387.5</ele><time>2026-05-02T08:37:47Z</time></trkpt><trkpt lat="50.164969145056375" lon="16.3044231403354"><ele>386.0</ele><time>2026-05-02T08:37:48Z</time></trkpt><trkpt lat="50.16498213286678" lon="16.303982750489816"><ele>385.0</ele><time>2026-05-02T08:37:49Z</time></trkpt><trkpt lat="50.16499464997857" lon="16.303568952304264"><ele>384.0</ele><time>2026-05-02T08:37:50Z</time></trkpt><trkpt lat="50.165007630593905" lon="16.30314245054756"><ele>383.5</ele><time>2026-05-02T08:37:51Z</time></trkpt><trkpt lat="50.16502008822905" lon="16.302710646312935"><ele>383.0</ele><time>2026-05-02T08:37:52Z</time></trkpt><trkpt lat="50.16503236907249" lon="16.302276726868776"><ele>382.5</ele><time>2026-05-02T08:37:53Z</time></trkpt><trkpt lat="50.16504495784917" lon="16.30185235342756"><ele>382.0</ele><time>2026-05-02T08:37:54Z</time></trkpt><trkpt lat="50.16505614356446" lon="16.301434606500916"><ele>381.0</ele><time>2026-05-02T08:37:55Z</time></trkpt><trkpt lat="50.16506831503139" lon="16.301010225318265"><ele>380.0</ele><time>2026-05-02T08:37:56Z</time></trkpt><trkpt lat="50.165079025843426" lon="16.30058276023454"><ele>379.0</ele><time>2026-05-02T08:37:57Z</time></trkpt><trkpt lat="50.16508948792789" lon="16.30013842167242"><ele>378.0</ele><time>2026-05-02T08:37:58Z</time></trkpt><trkpt lat="50.16509244874395" lon="16.299673830492868"><ele>376.5</ele><time>2026-05-02T08:37:59Z</time></trkpt><trkpt lat="50.16508716539146" lon="16.299203412511233"><ele>375.0</ele><time>2026-05-02T08:38:00Z</time></trkpt><trkpt lat="50.16507126250527" lon="16.298714535162567"><ele>373.5</ele><time>2026-05-02T08:38:01Z</time></trkpt><trkpt lat="50.165041561325594" lon="16.298203096622878"><ele>372.0</ele><time>2026-05-02T08:38:02Z</time></trkpt><trkpt lat="50.165001546783586" lon="16.297700049028776"><ele>369.5</ele><time>2026-05-02T08:38:03Z</time></trkpt><trkpt lat="50.16495263528608" lon="16.29724041848676"><ele>367.0</ele><time>2026-05-02T08:38:04Z</time></trkpt><trkpt lat="50.164892088637835" lon="16.296794578358984"><ele>364.5</ele><time>2026-05-02T08:38:05Z</time></trkpt><trkpt lat="50.164826841757595" lon="16.296379876689063"><ele>362.0</ele><time>2026-05-02T08:38:06Z</time></trkpt><trkpt lat="50.16476017944129" lon="16.29597962442441"><ele>362.0</ele><time>2026-05-02T08:38:07Z</time></trkpt><trkpt lat="50.164683347746504" lon="16.29558983207449"><ele>362.0</ele><time>2026-05-02T08:38:08Z</time></trkpt><trkpt lat="50.1645989274117" lon="16.29521448398366"><ele>361.5</ele><time>2026-05-02T08:38:09Z</time></trkpt><trkpt lat="50.16450008040081" lon="16.294842415118204"><ele>361.0</ele><time>2026-05-02T08:38:10Z</time></trkpt><trkpt lat="50.164391347123775" lon="16.294465222492615"><ele>360.0</ele><time>2026-05-02T08:38:11Z</time></trkpt><trkpt lat="50.16426912899343" lon="16.29407811800286"><ele>359.0</ele><time>2026-05-02T08:38:12Z</time></trkpt><trkpt lat="50.164133932483566" lon="16.29368507725765"><ele>357.0</ele><time>2026-05-02T08:38:13Z</time></trkpt><trkpt lat="50.16398450521847" lon="16.293300480779163"><ele>355.0</ele><time>2026-05-02T08:38:14Z</time></trkpt><trkpt lat="50.16383613583652" lon="16.292940051802045"><ele>355.0</ele><time>2026-05-02T08:38:15Z</time></trkpt><trkpt lat="50.163694472271004" lon="16.292616444008598"><ele>355.0</ele><time>2026-05-02T08:38:16Z</time></trkpt><trkpt lat="50.16354995092835" lon="16.292309468543767"><ele>355.0</ele><time>2026-05-02T08:38:17Z</time></trkpt><trkpt lat="50.16339313508624" lon="16.292007610334515"><ele>355.0</ele><time>2026-05-02T08:38:18Z</time></trkpt><trkpt lat="50.16322795531514" lon="16.291711229960665"><ele>353.0</ele><time>2026-05-02T08:38:19Z</time></trkpt><trkpt lat="50.16305504325191" lon="16.291421036963584"><ele>351.0</ele><time>2026-05-02T08:38:20Z</time></trkpt><trkpt lat="50.162874695389775" lon="16.29113816199413"><ele>351.0</ele><time>2026-05-02T08:38:21Z</time></trkpt><trkpt lat="50.16268923994296" lon="16.290861060620273"><ele>351.0</ele><time>2026-05-02T08:38:22Z</time></trkpt><trkpt lat="50.162496159773035" lon="16.29059495646429"><ele>350.5</ele><time>2026-05-02T08:38:23Z</time></trkpt><trkpt lat="50.16229726784122" lon="16.290336902725855"><ele>350.0</ele><time>2026-05-02T08:38:24Z</time></trkpt><trkpt lat="50.16209176345915" lon="16.290061167293356"><ele>350.0</ele><time>2026-05-02T08:38:25Z</time></trkpt><trkpt lat="50.16188195282836" lon="16.289776772952898"><ele>350.0</ele><time>2026-05-02T08:38:26Z</time></trkpt><trkpt lat="50.1616671996863" lon="16.28948639539718"><ele>350.0</ele><time>2026-05-02T08:38:27Z</time></trkpt><trkpt lat="50.161444610020055" lon="16.289194346260242"><ele>350.0</ele><time>2026-05-02T08:38:28Z</time></trkpt><trkpt lat="50.161219399840434" lon="16.288893751047567"><ele>350.0</ele><time>2026-05-02T08:38:29Z</time></trkpt><trkpt lat="50.16099476348773" lon="16.28858138185886"><ele>350.0</ele><time>2026-05-02T08:38:30Z</time></trkpt><trkpt lat="50.16077626964029" lon="16.288297438306376"><ele>347.0</ele><time>2026-05-02T08:38:31Z</time></trkpt><trkpt lat="50.160572779708616" lon="16.28802463367202"><ele>344.0</ele><time>2026-05-02T08:38:32Z</time></trkpt><trkpt lat="50.160373647676685" lon="16.287760202045096"><ele>344.0</ele><time>2026-05-02T08:38:33Z</time></trkpt><trkpt lat="50.160172346373706" lon="16.287491315085898"><ele>344.0</ele><time>2026-05-02T08:38:34Z</time></trkpt><trkpt lat="50.15996895374973" lon="16.287224290979964"><ele>340.0</ele><time>2026-05-02T08:38:35Z</time></trkpt><trkpt lat="50.159764514845484" lon="16.286955986461592"><ele>336.0</ele><time>2026-05-02T08:38:36Z</time></trkpt><trkpt lat="50.15956339131584" lon="16.286690873172084"><ele>335.5</ele><time>2026-05-02T08:38:37Z</time></trkpt><trkpt lat="50.15938511275509" lon="16.28642265673495"><ele>335.0</ele><time>2026-05-02T08:38:38Z</time></trkpt><trkpt lat="50.159195791960464" lon="16.286205991974995"><ele>333.6666666666667</ele><time>2026-05-02T08:38:39Z</time></trkpt><trkpt lat="50.15902274584955" lon="16.285978150800506"><ele>332.3333333333333</ele><time>2026-05-02T08:38:40Z</time></trkpt><trkpt lat="50.15886721912443" lon="16.285738324237226"><ele>331.0</ele><time>2026-05-02T08:38:41Z</time></trkpt><trkpt lat="50.15869738427323" lon="16.285546742208926"><ele>330.3333333333333</ele><time>2026-05-02T08:38:42Z</time></trkpt><trkpt lat="50.15854586254503" lon="16.285344558605146"><ele>329.6666666666667</ele><time>2026-05-02T08:38:43Z</time></trkpt><trkpt lat="50.15840366141505" lon="16.285146533087804"><ele>329.0</ele><time>2026-05-02T08:38:44Z</time></trkpt><trkpt lat="50.15825934643386" lon="16.284940751911243"><ele>327.0</ele><time>2026-05-02T08:38:45Z</time></trkpt><trkpt lat="50.158112491586955" lon="16.28474209067746"><ele>325.0</ele><time>2026-05-02T08:38:46Z</time></trkpt><trkpt lat="50.15796144939597" lon="16.28455292159886"><ele>323.0</ele><time>2026-05-02T08:38:47Z</time></trkpt><trkpt lat="50.15781275452347" lon="16.284353056944607"><ele>323.0</ele><time>2026-05-02T08:38:48Z</time></trkpt><trkpt lat="50.157656872091685" lon="16.284139058577527"><ele>323.0</ele><time>2026-05-02T08:38:49Z</time></trkpt><trkpt lat="50.157487531240555" lon="16.283906627499046"><ele>323.0</ele><time>2026-05-02T08:38:50Z</time></trkpt><trkpt lat="50.15732647124558" lon="16.28369386225792"><ele>321.0</ele><time>2026-05-02T08:38:51Z</time></trkpt><trkpt lat="50.15717296581594" lon="16.28349318384338"><ele>319.0</ele><time>2026-05-02T08:38:52Z</time></trkpt><trkpt lat="50.1570285557296" lon="16.283300286111217"><ele>317.0</ele><time>2026-05-02T08:38:53Z</time></trkpt><trkpt lat="50.156885433956624" lon="16.283113176283635"><ele>316.33333333333337</ele><time>2026-05-02T08:38:54Z</time></trkpt><trkpt lat="50.15674233822748" lon="16.282928039158513"><ele>315.6666666666667</ele><time>2026-05-02T08:38:55Z</time></trkpt><trkpt lat="50.156598760123806" lon="16.282742358237847"><ele>315.0</ele><time>2026-05-02T08:38:56Z</time></trkpt><trkpt lat="50.15645636978549" lon="16.28255388255893"><ele>314.3333333333333</ele><time>2026-05-02T08:38:57Z</time></trkpt><trkpt lat="50.15631561736124" lon="16.28236427235631"><ele>313.66666666666663</ele><time>2026-05-02T08:38:58Z</time></trkpt><trkpt lat="50.156173752450414" lon="16.282173993438462"><ele>313.0</ele><time>2026-05-02T08:38:59Z</time></trkpt><trkpt lat="50.156031602554044" lon="16.281986774645972"><ele>312.66666666666663</ele><time>2026-05-02T08:39:00Z</time></trkpt><trkpt lat="50.15589790414254" lon="16.28181354374032"><ele>312.3333333333333</ele><time>2026-05-02T08:39:01Z</time></trkpt><trkpt lat="50.15576854887073" lon="16.281641193859624"><ele>312.0</ele><time>2026-05-02T08:39:02Z</time></trkpt><trkpt lat="50.155648435698794" lon="16.281477640066218"><ele>311.0</ele><time>2026-05-02T08:39:03Z</time></trkpt><trkpt lat="50.155533930234064" lon="16.2813209003467"><ele>310.0</ele><time>2026-05-02T08:39:04Z</time></trkpt><trkpt lat="50.1554235019171" lon="16.281177833328083"><ele>309.0</ele><time>2026-05-02T08:39:05Z</time></trkpt><trkpt lat="50.15531664265716" lon="16.28104211746167"><ele>308.0</ele><time>2026-05-02T08:39:06Z</time></trkpt><trkpt lat="50.15521677336541" lon="16.280910111635258"><ele>308.0</ele><time>2026-05-02T08:39:07Z</time></trkpt><trkpt lat="50.15512166130748" lon="16.28077979464864"><ele>308.0</ele><time>2026-05-02T08:39:08Z</time></trkpt><trkpt lat="50.1550361377539" lon="16.28065926633458"><ele>308.0</ele><time>2026-05-02T08:39:09Z</time></trkpt><trkpt lat="50.1549507846884" lon="16.28053990230148"><ele>308.0</ele><time>2026-05-02T08:39:10Z</time></trkpt><trkpt lat="50.15485595154182" lon="16.28040408581456"><ele>307.8</ele><time>2026-05-02T08:39:11Z</time></trkpt><trkpt lat="50.15475758128683" lon="16.2802616054041"><ele>307.6</ele><time>2026-05-02T08:39:12Z</time></trkpt><trkpt lat="50.15467047778841" lon="16.280132116716146"><ele>307.4</ele><time>2026-05-02T08:39:13Z</time></trkpt><trkpt lat="50.15460087866722" lon="16.28001637083054"><ele>307.2</ele><time>2026-05-02T08:39:14Z</time></trkpt><trkpt lat="50.15455244493848" lon="16.2799177694071"><ele>307.0</ele><time>2026-05-02T08:39:15Z</time></trkpt><trkpt lat="50.15450946610384" lon="16.279814938660238"><ele>306.8333333333333</ele><time>2026-05-02T08:39:17Z</time></trkpt><trkpt lat="50.1544898405286" lon="16.27967125498328"><ele>306.66666666666663</ele><time>2026-05-02T08:39:20Z</time></trkpt><trkpt lat="50.15452749564627" lon="16.279544814894166"><ele>306.5</ele><time>2026-05-02T08:39:22Z</time></trkpt><trkpt lat="50.15462875608477" lon="16.27944503882682"><ele>306.3333333333333</ele><time>2026-05-02T08:39:24Z</time></trkpt><trkpt lat="50.154685045397656" lon="16.279389275077964"><ele>306.1666666666667</ele><time>2026-05-02T08:39:25Z</time></trkpt><trkpt lat="50.1547404562699" lon="16.279323979783317"><ele>306.0</ele><time>2026-05-02T08:39:26Z</time></trkpt><trkpt lat="50.15479943932672" lon="16.279258064412495"><ele>306.0</ele><time>2026-05-02T08:39:27Z</time></trkpt><trkpt lat="50.154864656263214" lon="16.27918992836658"><ele>306.0</ele><time>2026-05-02T08:39:28Z</time></trkpt><trkpt lat="50.15493374936305" lon="16.279121667884276"><ele>306.0</ele><time>2026-05-02T08:39:29Z</time></trkpt><trkpt lat="50.155004986143545" lon="16.27905106932894"><ele>306.0</ele><time>2026-05-02T08:39:30Z</time></trkpt><trkpt lat="50.15507344853541" lon="16.27897577272637"><ele>306.0</ele><time>2026-05-02T08:39:31Z</time></trkpt><trkpt lat="50.15513851000596" lon="16.27889762021208"><ele>306.0</ele><time>2026-05-02T08:39:32Z</time></trkpt><trkpt lat="50.15520778537283" lon="16.278828291091315"><ele>306.0</ele><time>2026-05-02T08:39:33Z</time></trkpt><trkpt lat="50.15527972675841" lon="16.278753800039784"><ele>306.0</ele><time>2026-05-02T08:39:34Z</time></trkpt><trkpt lat="50.15535576629223" lon="16.27866779308413"><ele>306.0</ele><time>2026-05-02T08:39:35Z</time></trkpt><trkpt lat="50.15544283905188" lon="16.2785812883627"><ele>306.0</ele><time>2026-05-02T08:39:36Z</time></trkpt><trkpt lat="50.15552891275837" lon="16.27846999667135"><ele>306.0</ele><time>2026-05-02T08:39:37Z</time></trkpt><trkpt lat="50.155620704093266" lon="16.27835281065794"><ele>306.0</ele><time>2026-05-02T08:39:38Z</time></trkpt><trkpt lat="50.15568648226176" lon="16.278307413234632"><ele>306.0</ele><time>2026-05-02T08:39:39Z</time></trkpt><trkpt lat="50.15576411937331" lon="16.278206068992503"><ele>306.0</ele><time>2026-05-02T08:39:40Z</time></trkpt><trkpt lat="50.155845634022235" lon="16.278099452145195"><ele>306.0</ele><time>2026-05-02T08:39:41Z</time></trkpt><trkpt lat="50.15594178884827" lon="16.278008982834397"><ele>306.0</ele><time>2026-05-02T08:39:42Z</time></trkpt><trkpt lat="50.156033513118345" lon="16.27789410320363"><ele>306.40000000000003</ele><time>2026-05-02T08:39:43Z</time></trkpt><trkpt lat="50.15612860743746" lon="16.277763809229697"><ele>306.8</ele><time>2026-05-02T08:39:44Z</time></trkpt><trkpt lat="50.15623193477694" lon="16.27766562343798"><ele>307.20000000000005</ele><time>2026-05-02T08:39:45Z</time></trkpt><trkpt lat="50.15631150852567" lon="16.277572626217083"><ele>307.6</ele><time>2026-05-02T08:39:46Z</time></trkpt><trkpt lat="50.156379181675995" lon="16.277487002513237"><ele>308.0</ele><time>2026-05-02T08:39:47Z</time></trkpt><trkpt lat="50.15644137381298" lon="16.277411138374383"><ele>308.0</ele><time>2026-05-02T08:39:48Z</time></trkpt><trkpt lat="50.15649875615443" lon="16.27734679150967"><ele>308.0</ele><time>2026-05-02T08:39:49Z</time></trkpt><trkpt lat="50.15659330896077" lon="16.277244503870033"><ele>308.0</ele><time>2026-05-02T08:39:51Z</time></trkpt><trkpt lat="50.15667345034195" lon="16.277131598020222"><ele>308.0</ele><time>2026-05-02T08:39:53Z</time></trkpt><trkpt lat="50.15675272110726" lon="16.27700167218731"><ele>308.0</ele><time>2026-05-02T08:39:55Z</time></trkpt><trkpt lat="50.156828291592944" lon="16.276930200858743"><ele>308.2</ele><time>2026-05-02T08:39:56Z</time></trkpt><trkpt lat="50.15693178852843" lon="16.2768448213409"><ele>308.4</ele><time>2026-05-02T08:39:57Z</time></trkpt><trkpt lat="50.15702011497827" lon="16.27674947757459"><ele>308.59999999999997</ele><time>2026-05-02T08:39:58Z</time></trkpt><trkpt lat="50.15709130682527" lon="16.276677625985116"><ele>308.8</ele><time>2026-05-02T08:39:59Z</time></trkpt><trkpt lat="50.157166920974284" lon="16.27663596120814"><ele>309.0</ele><time>2026-05-02T08:40:00Z</time></trkpt><trkpt lat="50.157228427827995" lon="16.276567474610832"><ele>309.0</ele><time>2026-05-02T08:40:01Z</time></trkpt><trkpt lat="50.15729142305745" lon="16.276488016485967"><ele>309.0</ele><time>2026-05-02T08:40:02Z</time></trkpt><trkpt lat="50.157361385842734" lon="16.276416556267833"><ele>309.0</ele><time>2026-05-02T08:40:03Z</time></trkpt><trkpt lat="50.15743069730249" lon="16.27634569782545"><ele>309.0</ele><time>2026-05-02T08:40:04Z</time></trkpt><trkpt lat="50.1574985637342" lon="16.276273010015792"><ele>309.0</ele><time>2026-05-02T08:40:05Z</time></trkpt><trkpt lat="50.157568342017434" lon="16.27620288951751"><ele>309.0</ele><time>2026-05-02T08:40:06Z</time></trkpt><trkpt lat="50.15764069992341" lon="16.276130554447917"><ele>308.8333333333333</ele><time>2026-05-02T08:40:07Z</time></trkpt><trkpt lat="50.15771147272774" lon="16.27606067225869"><ele>308.6666666666667</ele><time>2026-05-02T08:40:08Z</time></trkpt><trkpt lat="50.15777309513876" lon="16.27599885560651"><ele>308.5</ele><time>2026-05-02T08:40:09Z</time></trkpt><trkpt lat="50.157831249334635" lon="16.275951941442525"><ele>308.33333333333337</ele><time>2026-05-02T08:40:10Z</time></trkpt><trkpt lat="50.15788627703427" lon="16.275901669143288"><ele>308.1666666666667</ele><time>2026-05-02T08:40:12Z</time></trkpt><trkpt lat="50.1579376309328" lon="16.275832447565815"><ele>308.0</ele><time>2026-05-02T08:40:20Z</time></trkpt><trkpt lat="50.15802270992566" lon="16.275745783916555"><ele>308.0</ele><time>2026-05-02T08:40:22Z</time></trkpt><trkpt lat="50.15809269206818" lon="16.275693777460937"><ele>308.0</ele><time>2026-05-02T08:40:23Z</time></trkpt><trkpt lat="50.15819526532235" lon="16.27559080633758"><ele>308.0</ele><time>2026-05-02T08:40:25Z</time></trkpt><trkpt lat="50.15824749630765" lon="16.27552586305809"><ele>308.0</ele><time>2026-05-02T08:40:26Z</time></trkpt><trkpt lat="50.15831328778351" lon="16.27547314596932"><ele>308.0</ele><time>2026-05-02T08:40:27Z</time></trkpt><trkpt lat="50.15838129401588" lon="16.275417856752455"><ele>308.0</ele><time>2026-05-02T08:40:28Z</time></trkpt><trkpt lat="50.15844967792526" lon="16.275347613393492"><ele>308.33333333333337</ele><time>2026-05-02T08:40:29Z</time></trkpt><trkpt lat="50.15851456704858" lon="16.275273021177085"><ele>308.6666666666667</ele><time>2026-05-02T08:40:30Z</time></trkpt><trkpt lat="50.1585818390764" lon="16.275193276519264"><ele>309.0</ele><time>2026-05-02T08:40:31Z</time></trkpt><trkpt lat="50.15864920815402" lon="16.275110377156057"><ele>309.3333333333333</ele><time>2026-05-02T08:40:32Z</time></trkpt><trkpt lat="50.15871544732617" lon="16.275023604211817"><ele>309.66666666666663</ele><time>2026-05-02T08:40:33Z</time></trkpt><trkpt lat="50.15878357408295" lon="16.27492884199285"><ele>310.0</ele><time>2026-05-02T08:40:34Z</time></trkpt><trkpt lat="50.15885868769514" lon="16.27481082187419"><ele>310.0</ele><time>2026-05-02T08:40:35Z</time></trkpt><trkpt lat="50.15892806195758" lon="16.274684981920686"><ele>310.0</ele><time>2026-05-02T08:40:36Z</time></trkpt><trkpt lat="50.15899968747721" lon="16.274535214206413"><ele>310.0</ele><time>2026-05-02T08:40:37Z</time></trkpt><trkpt lat="50.159071226358265" lon="16.27437462858584"><ele>310.0</ele><time>2026-05-02T08:40:38Z</time></trkpt><trkpt lat="50.15913776895549" lon="16.274220349579778"><ele>310.25</ele><time>2026-05-02T08:40:39Z</time></trkpt><trkpt lat="50.159202005498045" lon="16.274062973102875"><ele>310.5</ele><time>2026-05-02T08:40:40Z</time></trkpt><trkpt lat="50.15927236890523" lon="16.273902255838475"><ele>310.75</ele><time>2026-05-02T08:40:41Z</time></trkpt><trkpt lat="50.15933857192957" lon="16.27373973094868"><ele>311.0</ele><time>2026-05-02T08:40:42Z</time></trkpt><trkpt lat="50.1594043940419" lon="16.273582846460005"><ele>310.5</ele><time>2026-05-02T08:40:43Z</time></trkpt><trkpt lat="50.159470152637596" lon="16.27342595260571"><ele>310.0</ele><time>2026-05-02T08:40:44Z</time></trkpt><trkpt lat="50.15954247673541" lon="16.273275055225056"><ele>309.5</ele><time>2026-05-02T08:40:45Z</time></trkpt><trkpt lat="50.15961927251186" lon="16.27312755385381"><ele>309.0</ele><time>2026-05-02T08:40:46Z</time></trkpt><trkpt lat="50.15969801625637" lon="16.272980541992833"><ele>309.0</ele><time>2026-05-02T08:40:47Z</time></trkpt><trkpt lat="50.1597708259954" lon="16.272846241287557"><ele>309.0</ele><time>2026-05-02T08:40:48Z</time></trkpt><trkpt lat="50.159847610883844" lon="16.272742262690596"><ele>309.0</ele><time>2026-05-02T08:40:49Z</time></trkpt><trkpt lat="50.159931002961535" lon="16.272637825368353"><ele>309.0</ele><time>2026-05-02T08:40:50Z</time></trkpt><trkpt lat="50.16001827188868" lon="16.27253746167248"><ele>309.0</ele><time>2026-05-02T08:40:51Z</time></trkpt><trkpt lat="50.160110269264074" lon="16.272439892886563"><ele>309.0</ele><time>2026-05-02T08:40:52Z</time></trkpt><trkpt lat="50.160213028820856" lon="16.2723407629765"><ele>309.0</ele><time>2026-05-02T08:40:53Z</time></trkpt><trkpt lat="50.16032313481484" lon="16.272243056964964"><ele>309.0</ele><time>2026-05-02T08:40:54Z</time></trkpt><trkpt lat="50.160436440297104" lon="16.27215457571427"><ele>309.0</ele><time>2026-05-02T08:40:55Z</time></trkpt><trkpt lat="50.16055832438161" lon="16.272071581305983"><ele>309.0</ele><time>2026-05-02T08:40:56Z</time></trkpt><trkpt lat="50.16068171894228" lon="16.27199126384045"><ele>309.0</ele><time>2026-05-02T08:40:57Z</time></trkpt><trkpt lat="50.16080794968787" lon="16.27191946976529"><ele>309.0</ele><time>2026-05-02T08:40:58Z</time></trkpt><trkpt lat="50.160935847437166" lon="16.271848567412306"><ele>309.0</ele><time>2026-05-02T08:40:59Z</time></trkpt><trkpt lat="50.16106558575806" lon="16.27178583676954"><ele>309.5</ele><time>2026-05-02T08:41:00Z</time></trkpt><trkpt lat="50.16119845022701" lon="16.27172644345845"><ele>310.0</ele><time>2026-05-02T08:41:01Z</time></trkpt><trkpt lat="50.161328755143124" lon="16.27166798664042"><ele>310.5</ele><time>2026-05-02T08:41:02Z</time></trkpt><trkpt lat="50.16144740060088" lon="16.27161964360493"><ele>311.0</ele><time>2026-05-02T08:41:03Z</time></trkpt><trkpt lat="50.161559358164794" lon="16.271579187175135"><ele>311.2</ele><time>2026-05-02T08:41:04Z</time></trkpt><trkpt lat="50.1616651298307" lon="16.271544154620113"><ele>311.40000000000003</ele><time>2026-05-02T08:41:05Z</time></trkpt><trkpt lat="50.1617766079657" lon="16.271502808317702"><ele>311.6</ele><time>2026-05-02T08:41:06Z</time></trkpt><trkpt lat="50.16188508094191" lon="16.271469093736393"><ele>311.8</ele><time>2026-05-02T08:41:07Z</time></trkpt><trkpt lat="50.161993398491205" lon="16.271437478412267"><ele>312.0</ele><time>2026-05-02T08:41:08Z</time></trkpt><trkpt lat="50.16209760712326" lon="16.271405744816395"><ele>312.0</ele><time>2026-05-02T08:41:09Z</time></trkpt><trkpt lat="50.16220232683178" lon="16.27137602684387"><ele>312.0</ele><time>2026-05-02T08:41:10Z</time></trkpt><trkpt lat="50.162309215233954" lon="16.271353384755024"><ele>312.0</ele><time>2026-05-02T08:41:11Z</time></trkpt><trkpt lat="50.1624010751629" lon="16.27133295596374"><ele>312.0</ele><time>2026-05-02T08:41:12Z</time></trkpt><trkpt lat="50.16248011587009" lon="16.271309490346702"><ele>312.0</ele><time>2026-05-02T08:41:13Z</time></trkpt><trkpt lat="50.16255520145221" lon="16.271293680942975"><ele>311.8</ele><time>2026-05-02T08:41:14Z</time></trkpt><trkpt lat="50.16263975365576" lon="16.271274121457502"><ele>311.6</ele><time>2026-05-02T08:41:15Z</time></trkpt><trkpt lat="50.16273313713802" lon="16.271252820087366"><ele>311.40000000000003</ele><time>2026-05-02T08:41:16Z</time></trkpt><trkpt lat="50.16283327849236" lon="16.271231629678166"><ele>311.2</ele><time>2026-05-02T08:41:17Z</time></trkpt><trkpt lat="50.16293588879294" lon="16.271210110235582"><ele>311.0</ele><time>2026-05-02T08:41:18Z</time></trkpt><trkpt lat="50.16303884795914" lon="16.271189824457153"><ele>311.0</ele><time>2026-05-02T08:41:19Z</time></trkpt><trkpt lat="50.163145646793595" lon="16.27117744745649"><ele>311.0</ele><time>2026-05-02T08:41:20Z</time></trkpt><trkpt lat="50.16325629204459" lon="16.27116337298586"><ele>311.0</ele><time>2026-05-02T08:41:21Z</time></trkpt><trkpt lat="50.163364800420325" lon="16.271129803877827"><ele>311.0</ele><time>2026-05-02T08:41:22Z</time></trkpt><trkpt lat="50.16347368131682" lon="16.271087932113073"><ele>311.0</ele><time>2026-05-02T08:41:23Z</time></trkpt><trkpt lat="50.16358551363609" lon="16.271056608172152"><ele>311.5</ele><time>2026-05-02T08:41:24Z</time></trkpt><trkpt lat="50.16370239560777" lon="16.2710491275777"><ele>312.0</ele><time>2026-05-02T08:41:25Z</time></trkpt><trkpt lat="50.16382226538794" lon="16.271048387158984"><ele>312.5</ele><time>2026-05-02T08:41:26Z</time></trkpt><trkpt lat="50.163946849166074" lon="16.27106813929983"><ele>313.0</ele><time>2026-05-02T08:41:27Z</time></trkpt><trkpt lat="50.16405871550275" lon="16.27110725057197"><ele>313.8</ele><time>2026-05-02T08:41:28Z</time></trkpt><trkpt lat="50.16415940615382" lon="16.271133849027"><ele>314.6</ele><time>2026-05-02T08:41:29Z</time></trkpt><trkpt lat="50.16424684840253" lon="16.271162198458228"><ele>315.4</ele><time>2026-05-02T08:41:30Z</time></trkpt><trkpt lat="50.16434190496952" lon="16.271202277421654"><ele>316.2</ele><time>2026-05-02T08:41:31Z</time></trkpt><trkpt lat="50.164442892308195" lon="16.271264685823514"><ele>317.0</ele><time>2026-05-02T08:41:32Z</time></trkpt><trkpt lat="50.16453225327544" lon="16.27132767820072"><ele>317.0</ele><time>2026-05-02T08:41:33Z</time></trkpt><trkpt lat="50.16460588249475" lon="16.271378465835003"><ele>317.0</ele><time>2026-05-02T08:41:34Z</time></trkpt><trkpt lat="50.16469281314296" lon="16.271468231680295"><ele>317.0</ele><time>2026-05-02T08:41:36Z</time></trkpt><trkpt lat="50.1647545541324" lon="16.27158089874476"><ele>317.0</ele><time>2026-05-02T08:41:38Z</time></trkpt><trkpt lat="50.16482379323499" lon="16.271595638999628"><ele>317.0</ele><time>2026-05-02T08:41:40Z</time></trkpt><trkpt lat="50.16489658009308" lon="16.271708035428084"><ele>316.33333333333337</ele><time>2026-05-02T08:43:52Z</time></trkpt><trkpt lat="50.16496707804675" lon="16.271721066665343"><ele>315.6666666666667</ele><time>2026-05-02T08:49:29.999Z</time></trkpt><trkpt lat="50.16504956360618" lon="16.27174230405671"><ele>315.0</ele><time>2026-05-02T08:49:34.999Z</time></trkpt><trkpt lat="50.16510739793959" lon="16.271831940941222"><ele>314.3333333333333</ele><time>2026-05-02T08:49:36.999Z</time></trkpt><trkpt lat="50.16515075232899" lon="16.271912070700687"><ele>313.66666666666663</ele><time>2026-05-02T08:49:38.999Z</time></trkpt><trkpt lat="50.16522035067105" lon="16.27192150365801"><ele>313.0</ele><time>2026-05-02T08:49:46.999Z</time></trkpt><trkpt lat="50.165371035551225" lon="16.27175062965485"><ele>313.0</ele><time>2026-05-02T08:49:50.999Z</time></trkpt><trkpt lat="50.16541085671218" lon="16.271668623320682"><ele>313.0</ele><time>2026-05-02T08:49:51.999Z</time></trkpt><trkpt lat="50.16546174398998" lon="16.271584386737715"><ele>313.0</ele><time>2026-05-02T08:49:52.999Z</time></trkpt><trkpt lat="50.16552060335598" lon="16.27150854640257"><ele>313.0</ele><time>2026-05-02T08:49:53.999Z</time></trkpt><trkpt lat="50.165609220202924" lon="16.27145706962101"><ele>313.0</ele><time>2026-05-02T08:49:54.999Z</time></trkpt><trkpt lat="50.16573354207865" lon="16.271398450067366"><ele>313.0</ele><time>2026-05-02T08:49:55.999Z</time></trkpt><trkpt lat="50.1658759135673" lon="16.271345133764758"><ele>315.0</ele><time>2026-05-02T08:49:56.999Z</time></trkpt><trkpt lat="50.16601306766642" lon="16.271284761301928"><ele>317.0</ele><time>2026-05-02T08:49:57.999Z</time></trkpt><trkpt lat="50.16614015157936" lon="16.271214789221094"><ele>319.0</ele><time>2026-05-02T08:49:58.999Z</time></trkpt><trkpt lat="50.16624917931212" lon="16.271159970568462"><ele>321.0</ele><time>2026-05-02T08:49:59.999Z</time></trkpt><trkpt lat="50.16635802836359" lon="16.27110230817205"><ele>321.0</ele><time>2026-05-02T08:50:00.999Z</time></trkpt><trkpt lat="50.16648338769063" lon="16.271023341184407"><ele>321.0</ele><time>2026-05-02T08:50:01.999Z</time></trkpt><trkpt lat="50.1666261074575" lon="16.27093349884734"><ele>321.0</ele><time>2026-05-02T08:50:02.999Z</time></trkpt><trkpt lat="50.16675921492013" lon="16.270874075859243"><ele>321.0</ele><time>2026-05-02T08:50:04Z</time></trkpt><trkpt lat="50.16687803563098" lon="16.27082624266286"><ele>321.8</ele><time>2026-05-02T08:50:05Z</time></trkpt><trkpt lat="50.166978771245994" lon="16.270776003584427"><ele>322.6</ele><time>2026-05-02T08:50:06Z</time></trkpt><trkpt lat="50.16707203128424" lon="16.270731068968967"><ele>323.4</ele><time>2026-05-02T08:50:07Z</time></trkpt><trkpt lat="50.16717637514238" lon="16.27064909276522"><ele>324.2</ele><time>2026-05-02T08:50:08Z</time></trkpt><trkpt lat="50.167273218121146" lon="16.270579887896925"><ele>325.0</ele><time>2026-05-02T08:50:09Z</time></trkpt><trkpt lat="50.16737908446214" lon="16.270504916039997"><ele>325.5</ele><time>2026-05-02T08:50:10Z</time></trkpt><trkpt lat="50.16749388333578" lon="16.270423806141096"><ele>326.0</ele><time>2026-05-02T08:50:11Z</time></trkpt><trkpt lat="50.167615056849705" lon="16.270366422745624"><ele>326.5</ele><time>2026-05-02T08:50:12Z</time></trkpt><trkpt lat="50.16772546670026" lon="16.270296025130854"><ele>327.0</ele><time>2026-05-02T08:50:13Z</time></trkpt><trkpt lat="50.167842704969196" lon="16.270221846941595"><ele>327.0</ele><time>2026-05-02T08:50:14Z</time></trkpt><trkpt lat="50.167964660573745" lon="16.270144484900758"><ele>327.0</ele><time>2026-05-02T08:50:15Z</time></trkpt><trkpt lat="50.168085153117744" lon="16.27006806092356"><ele>327.0</ele><time>2026-05-02T08:50:16Z</time></trkpt><trkpt lat="50.16819402715733" lon="16.26997614137464"><ele>327.0</ele><time>2026-05-02T08:50:17Z</time></trkpt><trkpt lat="50.16829631965998" lon="16.269921732841357"><ele>327.5</ele><time>2026-05-02T08:50:18Z</time></trkpt><trkpt lat="50.1683909213153" lon="16.26986288055116"><ele>328.0</ele><time>2026-05-02T08:50:19Z</time></trkpt><trkpt lat="50.16849519291638" lon="16.269801787048586"><ele>328.5</ele><time>2026-05-02T08:50:20Z</time></trkpt><trkpt lat="50.16860739906835" lon="16.269730008362743"><ele>329.0</ele><time>2026-05-02T08:50:21Z</time></trkpt><trkpt lat="50.16872628123891" lon="16.269649400297123"><ele>329.0</ele><time>2026-05-02T08:50:22Z</time></trkpt><trkpt lat="50.168848996187606" lon="16.2695719612344"><ele>329.0</ele><time>2026-05-02T08:50:23Z</time></trkpt><trkpt lat="50.16897476822521" lon="16.269494193820613"><ele>329.0</ele><time>2026-05-02T08:50:24Z</time></trkpt><trkpt lat="50.16909203274707" lon="16.269433204517078"><ele>329.0</ele><time>2026-05-02T08:50:25Z</time></trkpt><trkpt lat="50.169202247417545" lon="16.269364146125678"><ele>329.25</ele><time>2026-05-02T08:50:26Z</time></trkpt><trkpt lat="50.16931253250315" lon="16.26929545285328"><ele>329.5</ele><time>2026-05-02T08:50:27Z</time></trkpt><trkpt lat="50.169426451392596" lon="16.26922455879594"><ele>329.75</ele><time>2026-05-02T08:50:28Z</time></trkpt><trkpt lat="50.169542328431255" lon="16.269159184745185"><ele>330.0</ele><time>2026-05-02T08:50:29Z</time></trkpt><trkpt lat="50.169654266494746" lon="16.269099687703616"><ele>330.0</ele><time>2026-05-02T08:50:30Z</time></trkpt><trkpt lat="50.16976531024545" lon="16.269035652710674"><ele>330.0</ele><time>2026-05-02T08:50:31Z</time></trkpt><trkpt lat="50.16988410981044" lon="16.268952362943153"><ele>330.0</ele><time>2026-05-02T08:50:32Z</time></trkpt><trkpt lat="50.17003427365153" lon="16.26884332535275"><ele>330.0</ele><time>2026-05-02T08:50:33Z</time></trkpt><trkpt lat="50.170223965132486" lon="16.26873772065506"><ele>330.3333333333333</ele><time>2026-05-02T08:50:34Z</time></trkpt><trkpt lat="50.17042755388223" lon="16.268609512936894"><ele>330.66666666666663</ele><time>2026-05-02T08:50:35Z</time></trkpt><trkpt lat="50.170596475169255" lon="16.268472699905026"><ele>331.0</ele><time>2026-05-02T08:50:36Z</time></trkpt><trkpt lat="50.170748116933815" lon="16.268387154760337"><ele>331.0</ele><time>2026-05-02T08:50:37Z</time></trkpt><trkpt lat="50.17088900970289" lon="16.268298429369747"><ele>331.0</ele><time>2026-05-02T08:50:38Z</time></trkpt><trkpt lat="50.171026366394926" lon="16.268207644578144"><ele>331.0</ele><time>2026-05-02T08:50:39Z</time></trkpt><trkpt lat="50.17115128034628" lon="16.268130399403965"><ele>331.0</ele><time>2026-05-02T08:50:40Z</time></trkpt><trkpt lat="50.171265328383285" lon="16.26806237745639"><ele>331.0</ele><time>2026-05-02T08:50:41Z</time></trkpt><trkpt lat="50.17138982761275" lon="16.267988647633015"><ele>331.0</ele><time>2026-05-02T08:50:42Z</time></trkpt><trkpt lat="50.17152514936524" lon="16.267908790981082"><ele>331.0</ele><time>2026-05-02T08:50:43Z</time></trkpt><trkpt lat="50.17166674920705" lon="16.26782020701248"><ele>331.0</ele><time>2026-05-02T08:50:44Z</time></trkpt><trkpt lat="50.171809581520606" lon="16.267730749598595"><ele>331.3333333333333</ele><time>2026-05-02T08:50:45Z</time></trkpt><trkpt lat="50.171956395269916" lon="16.267631695358983"><ele>331.6666666666667</ele><time>2026-05-02T08:50:46Z</time></trkpt><trkpt lat="50.17210262283706" lon="16.267535169365743"><ele>332.0</ele><time>2026-05-02T08:50:47Z</time></trkpt><trkpt lat="50.17225538400661" lon="16.26743562866128"><ele>332.6666666666667</ele><time>2026-05-02T08:50:48Z</time></trkpt><trkpt lat="50.172401317724116" lon="16.267344931987676"><ele>333.3333333333333</ele><time>2026-05-02T08:50:49Z</time></trkpt><trkpt lat="50.17254966891427" lon="16.26725703896058"><ele>334.0</ele><time>2026-05-02T08:50:50Z</time></trkpt><trkpt lat="50.17268536912273" lon="16.267170676699518"><ele>334.75</ele><time>2026-05-02T08:50:51Z</time></trkpt><trkpt lat="50.172819244316955" lon="16.267085883473516"><ele>335.5</ele><time>2026-05-02T08:50:52Z</time></trkpt><trkpt lat="50.172950443965306" lon="16.267002076254805"><ele>336.25</ele><time>2026-05-02T08:50:53Z</time></trkpt><trkpt lat="50.17308055925374" lon="16.266915908187517"><ele>337.0</ele><time>2026-05-02T08:50:54Z</time></trkpt><trkpt lat="50.17320981243333" lon="16.26682913593576"><ele>337.75</ele><time>2026-05-02T08:50:55Z</time></trkpt><trkpt lat="50.173334571060714" lon="16.266750223923317"><ele>338.5</ele><time>2026-05-02T08:50:56Z</time></trkpt><trkpt lat="50.173463348898636" lon="16.26666660492597"><ele>339.25</ele><time>2026-05-02T08:50:57Z</time></trkpt><trkpt lat="50.17359524673271" lon="16.26658097906821"><ele>340.0</ele><time>2026-05-02T08:50:58Z</time></trkpt><trkpt lat="50.17373046330765" lon="16.266492122750176"><ele>342.0</ele><time>2026-05-02T08:50:59Z</time></trkpt><trkpt lat="50.17386506252571" lon="16.2663941401382"><ele>344.0</ele><time>2026-05-02T08:51:00Z</time></trkpt><trkpt lat="50.174001635672326" lon="16.266272831800794"><ele>346.0</ele><time>2026-05-02T08:51:01Z</time></trkpt><trkpt lat="50.174141975829436" lon="16.266136080946907"><ele>346.0</ele><time>2026-05-02T08:51:02Z</time></trkpt><trkpt lat="50.1742863099017" lon="16.265989193259976"><ele>346.0</ele><time>2026-05-02T08:51:03Z</time></trkpt><trkpt lat="50.17443560809091" lon="16.265837359007616"><ele>346.0</ele><time>2026-05-02T08:51:04Z</time></trkpt><trkpt lat="50.174589618256654" lon="16.265682113887134"><ele>345.66666666666663</ele><time>2026-05-02T08:51:05Z</time></trkpt><trkpt lat="50.17475852682505" lon="16.26551681331716"><ele>345.3333333333333</ele><time>2026-05-02T08:51:06Z</time></trkpt><trkpt lat="50.17493323837746" lon="16.265346585240493"><ele>345.0</ele><time>2026-05-02T08:51:07Z</time></trkpt><trkpt lat="50.17510722619902" lon="16.26516983909544"><ele>343.6666666666667</ele><time>2026-05-02T08:51:08Z</time></trkpt><trkpt lat="50.17526786652217" lon="16.26501099866371"><ele>342.33333333333337</ele><time>2026-05-02T08:51:09Z</time></trkpt><trkpt lat="50.17542314002775" lon="16.264851244291453"><ele>341.0</ele><time>2026-05-02T08:51:10Z</time></trkpt><trkpt lat="50.175579008910255" lon="16.264691155967537"><ele>338.33333333333337</ele><time>2026-05-02T08:51:11Z</time></trkpt><trkpt lat="50.17573290345565" lon="16.264535904112773"><ele>335.6666666666667</ele><time>2026-05-02T08:51:12Z</time></trkpt><trkpt lat="50.17588918306524" lon="16.26437675756771"><ele>333.0</ele><time>2026-05-02T08:51:13Z</time></trkpt><trkpt lat="50.176045129377556" lon="16.264216288297817"><ele>333.0</ele><time>2026-05-02T08:51:14Z</time></trkpt><trkpt lat="50.17620425521898" lon="16.26406123019883"><ele>333.0</ele><time>2026-05-02T08:51:15Z</time></trkpt><trkpt lat="50.17636182004793" lon="16.263903985243253"><ele>333.0</ele><time>2026-05-02T08:51:16Z</time></trkpt><trkpt lat="50.176519559783884" lon="16.26374585825363"><ele>332.3333333333333</ele><time>2026-05-02T08:51:17Z</time></trkpt><trkpt lat="50.1766773905038" lon="16.26358793701005"><ele>331.66666666666663</ele><time>2026-05-02T08:51:18Z</time></trkpt><trkpt lat="50.176835353605824" lon="16.263431427520374"><ele>331.0</ele><time>2026-05-02T08:51:19Z</time></trkpt><trkpt lat="50.17699237863062" lon="16.263275235493126"><ele>331.0</ele><time>2026-05-02T08:51:20Z</time></trkpt><trkpt lat="50.17714475979821" lon="16.263120988776283"><ele>331.0</ele><time>2026-05-02T08:51:21Z</time></trkpt><trkpt lat="50.17729978442303" lon="16.262968961007623"><ele>331.0</ele><time>2026-05-02T08:51:22Z</time></trkpt><trkpt lat="50.17745206977793" lon="16.262815022494514"><ele>331.0</ele><time>2026-05-02T08:51:23Z</time></trkpt><trkpt lat="50.17759837411468" lon="16.262670153589696"><ele>331.0</ele><time>2026-05-02T08:51:24Z</time></trkpt><trkpt lat="50.17773466909273" lon="16.26253369637648"><ele>331.0</ele><time>2026-05-02T08:51:25Z</time></trkpt><trkpt lat="50.17786264196426" lon="16.26241091011599"><ele>331.0</ele><time>2026-05-02T08:51:26Z</time></trkpt><trkpt lat="50.1779856397272" lon="16.262284588481126"><ele>331.0</ele><time>2026-05-02T08:51:27Z</time></trkpt><trkpt lat="50.17811527416927" lon="16.2621588117759"><ele>331.0</ele><time>2026-05-02T08:51:28Z</time></trkpt><trkpt lat="50.178240971366264" lon="16.262036869417436"><ele>331.0</ele><time>2026-05-02T08:51:29Z</time></trkpt><trkpt lat="50.17837048744793" lon="16.261912530989036"><ele>331.3333333333333</ele><time>2026-05-02T08:51:30Z</time></trkpt><trkpt lat="50.17850327512887" lon="16.26179140129672"><ele>331.6666666666667</ele><time>2026-05-02T08:51:31Z</time></trkpt><trkpt lat="50.1786308202985" lon="16.2616689234835"><ele>332.0</ele><time>2026-05-02T08:51:32Z</time></trkpt><trkpt lat="50.178762571979135" lon="16.26155593177135"><ele>332.0</ele><time>2026-05-02T08:51:33Z</time></trkpt><trkpt lat="50.17888987279202" lon="16.261451353920236"><ele>332.0</ele><time>2026-05-02T08:51:34Z</time></trkpt><trkpt lat="50.17900593258229" lon="16.26130947489615"><ele>332.0</ele><time>2026-05-02T08:51:35Z</time></trkpt><trkpt lat="50.17913183856041" lon="16.261170322959124"><ele>332.0</ele><time>2026-05-02T08:51:36Z</time></trkpt><trkpt lat="50.17927359415393" lon="16.261034434589224"><ele>334.0</ele><time>2026-05-02T08:51:37Z</time></trkpt><trkpt lat="50.17940429239758" lon="16.260899096867966"><ele>336.0</ele><time>2026-05-02T08:51:38Z</time></trkpt><trkpt lat="50.17953942830516" lon="16.260759762929258"><ele>338.0</ele><time>2026-05-02T08:51:39Z</time></trkpt><trkpt lat="50.17967765392503" lon="16.260621122959186"><ele>338.0</ele><time>2026-05-02T08:51:40Z</time></trkpt><trkpt lat="50.17981730480218" lon="16.260480429866885"><ele>338.0</ele><time>2026-05-02T08:51:41Z</time></trkpt><trkpt lat="50.179957102556735" lon="16.260338139663972"><ele>338.0</ele><time>2026-05-02T08:51:42Z</time></trkpt><trkpt lat="50.180105582566185" lon="16.26019491781738"><ele>338.0</ele><time>2026-05-02T08:51:43Z</time></trkpt><trkpt lat="50.18024989921932" lon="16.260061203567993"><ele>338.0</ele><time>2026-05-02T08:51:44Z</time></trkpt><trkpt lat="50.18039152374897" lon="16.259941644492198"><ele>338.0</ele><time>2026-05-02T08:51:45Z</time></trkpt><trkpt lat="50.18052218406095" lon="16.259839634576174"><ele>337.75</ele><time>2026-05-02T08:51:46Z</time></trkpt><trkpt lat="50.18062702695884" lon="16.25976198913854"><ele>337.5</ele><time>2026-05-02T08:51:47Z</time></trkpt><trkpt lat="50.18073087063972" lon="16.25967425473882"><ele>337.25</ele><time>2026-05-02T08:51:48Z</time></trkpt><trkpt lat="50.18082762150076" lon="16.25959312797543"><ele>337.0</ele><time>2026-05-02T08:51:49Z</time></trkpt><trkpt lat="50.180925712806754" lon="16.259508627828136"><ele>337.0</ele><time>2026-05-02T08:51:50Z</time></trkpt><trkpt lat="50.181018076224085" lon="16.259430061112848"><ele>337.0</ele><time>2026-05-02T08:51:51Z</time></trkpt><trkpt lat="50.18111410804663" lon="16.2593448229982"><ele>337.0</ele><time>2026-05-02T08:51:52Z</time></trkpt><trkpt lat="50.18121354268663" lon="16.259264293809704"><ele>337.0</ele><time>2026-05-02T08:51:53Z</time></trkpt><trkpt lat="50.18131690232168" lon="16.259177401955398"><ele>337.0</ele><time>2026-05-02T08:51:54Z</time></trkpt><trkpt lat="50.18142157936152" lon="16.259085726498743"><ele>337.0</ele><time>2026-05-02T08:51:55Z</time></trkpt><trkpt lat="50.18152487891961" lon="16.258997897041482"><ele>337.0</ele><time>2026-05-02T08:51:56Z</time></trkpt><trkpt lat="50.18162366362313" lon="16.25891930307967"><ele>337.0</ele><time>2026-05-02T08:51:57Z</time></trkpt><trkpt lat="50.18172203712477" lon="16.258839877217152"><ele>337.0</ele><time>2026-05-02T08:51:58Z</time></trkpt><trkpt lat="50.1818267609443" lon="16.25875769137761"><ele>337.0</ele><time>2026-05-02T08:51:59Z</time></trkpt><trkpt lat="50.18192759879851" lon="16.258672431001546"><ele>337.0</ele><time>2026-05-02T08:52:00Z</time></trkpt><trkpt lat="50.182032263534595" lon="16.25859031058679"><ele>337.0</ele><time>2026-05-02T08:52:01Z</time></trkpt><trkpt lat="50.18213432234011" lon="16.258511383275263"><ele>337.0</ele><time>2026-05-02T08:52:02Z</time></trkpt><trkpt lat="50.18223605514516" lon="16.258427120644193"><ele>337.0</ele><time>2026-05-02T08:52:02.999Z</time></trkpt><trkpt lat="50.18233882198601" lon="16.258344583227277"><ele>337.0</ele><time>2026-05-02T08:52:03.999Z</time></trkpt><trkpt lat="50.18244354767013" lon="16.25826823309374"><ele>337.0</ele><time>2026-05-02T08:52:04.999Z</time></trkpt><trkpt lat="50.18254652480375" lon="16.25818063312154"><ele>337.0</ele><time>2026-05-02T08:52:05.999Z</time></trkpt><trkpt lat="50.1826446242409" lon="16.258080714385333"><ele>335.75</ele><time>2026-05-02T08:52:06.999Z</time></trkpt><trkpt lat="50.18274915598207" lon="16.25798983959507"><ele>334.5</ele><time>2026-05-02T08:52:07.999Z</time></trkpt><trkpt lat="50.18286313011965" lon="16.257905548273683"><ele>333.25</ele><time>2026-05-02T08:52:08.999Z</time></trkpt><trkpt lat="50.182977495209414" lon="16.257812583688526"><ele>332.0</ele><time>2026-05-02T08:52:10Z</time></trkpt><trkpt lat="50.18309654735025" lon="16.25771623598247"><ele>332.75</ele><time>2026-05-02T08:52:11Z</time></trkpt><trkpt lat="50.18322010884519" lon="16.257624983417646"><ele>333.5</ele><time>2026-05-02T08:52:12Z</time></trkpt><trkpt lat="50.18334177579266" lon="16.257522569855055"><ele>334.25</ele><time>2026-05-02T08:52:13Z</time></trkpt><trkpt lat="50.183455414411256" lon="16.25742363922111"><ele>335.0</ele><time>2026-05-02T08:52:14Z</time></trkpt><trkpt lat="50.18355394043268" lon="16.25733486908527"><ele>334.6</ele><time>2026-05-02T08:52:15Z</time></trkpt><trkpt lat="50.183646265717435" lon="16.25724789612531"><ele>334.2</ele><time>2026-05-02T08:52:16Z</time></trkpt><trkpt lat="50.183731759899906" lon="16.25716842020866"><ele>333.79999999999995</ele><time>2026-05-02T08:52:17Z</time></trkpt><trkpt lat="50.183813797877875" lon="16.25709923016633"><ele>333.4</ele><time>2026-05-02T08:52:18Z</time></trkpt><trkpt lat="50.18389077552672" lon="16.257040249050135"><ele>333.0</ele><time>2026-05-02T08:52:19Z</time></trkpt><trkpt lat="50.18397598013695" lon="16.25696818657749"><ele>333.5</ele><time>2026-05-02T08:52:20Z</time></trkpt><trkpt lat="50.18407347984898" lon="16.2568854525038"><ele>334.0</ele><time>2026-05-02T08:52:21Z</time></trkpt><trkpt lat="50.18418674654181" lon="16.256788505741127"><ele>334.5</ele><time>2026-05-02T08:52:22Z</time></trkpt><trkpt lat="50.18431178646194" lon="16.256669192984265"><ele>335.0</ele><time>2026-05-02T08:52:23Z</time></trkpt><trkpt lat="50.18444780208786" lon="16.25653786355274"><ele>335.6666666666667</ele><time>2026-05-02T08:52:24Z</time></trkpt><trkpt lat="50.18458576449664" lon="16.256416106844856"><ele>336.3333333333333</ele><time>2026-05-02T08:52:25Z</time></trkpt><trkpt lat="50.184727287401714" lon="16.256294205848114"><ele>337.0</ele><time>2026-05-02T08:52:26Z</time></trkpt><trkpt lat="50.18486945734165" lon="16.256176211092647"><ele>337.0</ele><time>2026-05-02T08:52:27Z</time></trkpt><trkpt lat="50.18501497177667" lon="16.256053403827995"><ele>337.0</ele><time>2026-05-02T08:52:28Z</time></trkpt><trkpt lat="50.18515832227826" lon="16.255930938909845"><ele>337.0</ele><time>2026-05-02T08:52:29Z</time></trkpt><trkpt lat="50.18530171652059" lon="16.25580911741129"><ele>337.0</ele><time>2026-05-02T08:52:30Z</time></trkpt><trkpt lat="50.185444157633626" lon="16.255687853929544"><ele>337.0</ele><time>2026-05-02T08:52:31Z</time></trkpt><trkpt lat="50.185589948056666" lon="16.255568277842073"><ele>337.0</ele><time>2026-05-02T08:52:32Z</time></trkpt><trkpt lat="50.18573700264714" lon="16.255446517309498"><ele>337.0</ele><time>2026-05-02T08:52:33Z</time></trkpt><trkpt lat="50.18590084314129" lon="16.255306923457137"><ele>337.0</ele><time>2026-05-02T08:52:34Z</time></trkpt><trkpt lat="50.18607934765322" lon="16.255153486384156"><ele>337.0</ele><time>2026-05-02T08:52:35Z</time></trkpt><trkpt lat="50.18628165266494" lon="16.25498125755301"><ele>337.0</ele><time>2026-05-02T08:52:36Z</time></trkpt><trkpt lat="50.18646400154821" lon="16.25482767579352"><ele>337.0</ele><time>2026-05-02T08:52:37Z</time></trkpt><trkpt lat="50.186622848176775" lon="16.254692394291123"><ele>337.0</ele><time>2026-05-02T08:52:38Z</time></trkpt><trkpt lat="50.186770333634385" lon="16.254568833767415"><ele>336.3333333333333</ele><time>2026-05-02T08:52:39Z</time></trkpt><trkpt lat="50.18690640261495" lon="16.254455565243806"><ele>335.6666666666667</ele><time>2026-05-02T08:52:40Z</time></trkpt><trkpt lat="50.18704416087123" lon="16.25433475164541"><ele>335.0</ele><time>2026-05-02T08:52:41Z</time></trkpt><trkpt lat="50.1871907113271" lon="16.254212507059115"><ele>335.0</ele><time>2026-05-02T08:52:42Z</time></trkpt><trkpt lat="50.1873369965016" lon="16.254089214952597"><ele>335.0</ele><time>2026-05-02T08:52:43Z</time></trkpt><trkpt lat="50.187482077024534" lon="16.253965360255748"><ele>335.0</ele><time>2026-05-02T08:52:44Z</time></trkpt><trkpt lat="50.18763187543691" lon="16.25384121573504"><ele>335.6666666666667</ele><time>2026-05-02T08:52:45Z</time></trkpt><trkpt lat="50.18778040632551" lon="16.253717042128947"><ele>336.3333333333333</ele><time>2026-05-02T08:52:46Z</time></trkpt><trkpt lat="50.18792675043238" lon="16.2535919582144"><ele>337.0</ele><time>2026-05-02T08:52:47Z</time></trkpt><trkpt lat="50.188073899371" lon="16.25347196699441"><ele>337.0</ele><time>2026-05-02T08:52:48Z</time></trkpt><trkpt lat="50.18821101595871" lon="16.253359551328924"><ele>337.0</ele><time>2026-05-02T08:52:49Z</time></trkpt><trkpt lat="50.188345778033174" lon="16.253246008587727"><ele>337.0</ele><time>2026-05-02T08:52:50Z</time></trkpt><trkpt lat="50.188472629540236" lon="16.253139327101817"><ele>336.75</ele><time>2026-05-02T08:52:51Z</time></trkpt><trkpt lat="50.18858911531044" lon="16.25304151435894"><ele>336.5</ele><time>2026-05-02T08:52:52Z</time></trkpt><trkpt lat="50.18869402585038" lon="16.252947644282514"><ele>336.25</ele><time>2026-05-02T08:52:53Z</time></trkpt><trkpt lat="50.18879685497137" lon="16.252865759337986"><ele>336.0</ele><time>2026-05-02T08:52:54Z</time></trkpt><trkpt lat="50.188888985331715" lon="16.252787542371387"><ele>336.0</ele><time>2026-05-02T08:52:55Z</time></trkpt><trkpt lat="50.188968740978616" lon="16.252715123835777"><ele>336.0</ele><time>2026-05-02T08:52:56Z</time></trkpt><trkpt lat="50.18904616925156" lon="16.252648236198866"><ele>336.0</ele><time>2026-05-02T08:52:57Z</time></trkpt><trkpt lat="50.18912196009668" lon="16.252587968902372"><ele>336.0</ele><time>2026-05-02T08:52:58Z</time></trkpt><trkpt lat="50.18919532107519" lon="16.252534242794635"><ele>336.0</ele><time>2026-05-02T08:52:59Z</time></trkpt><trkpt lat="50.189268410506735" lon="16.252486185317945"><ele>336.0</ele><time>2026-05-02T08:53:00Z</time></trkpt><trkpt lat="50.189341491174886" lon="16.25246221064485"><ele>336.1666666666667</ele><time>2026-05-02T08:53:01Z</time></trkpt><trkpt lat="50.18941291770245" lon="16.252455671142815"><ele>336.3333333333333</ele><time>2026-05-02T08:53:02Z</time></trkpt><trkpt lat="50.18949137703422" lon="16.252446175722707"><ele>336.5</ele><time>2026-05-02T08:53:03Z</time></trkpt><trkpt lat="50.18957411788196" lon="16.25247686412312"><ele>336.66666666666663</ele><time>2026-05-02T08:53:04Z</time></trkpt><trkpt lat="50.18964134375314" lon="16.252430195087154"><ele>336.8333333333333</ele><time>2026-05-02T08:53:05Z</time></trkpt><trkpt lat="50.18969663665294" lon="16.252343954194476"><ele>337.0</ele><time>2026-05-02T08:53:06Z</time></trkpt><trkpt lat="50.189737791527136" lon="16.252224624675318"><ele>336.6</ele><time>2026-05-02T08:53:07Z</time></trkpt><trkpt lat="50.189789992986626" lon="16.25210347195719"><ele>336.20000000000005</ele><time>2026-05-02T08:53:08Z</time></trkpt><trkpt lat="50.18986682806963" lon="16.25199256060638"><ele>335.8</ele><time>2026-05-02T08:53:09Z</time></trkpt><trkpt lat="50.18996346355343" lon="16.251888302581353"><ele>335.4</ele><time>2026-05-02T08:53:10Z</time></trkpt><trkpt lat="50.190074903241396" lon="16.251784449603672"><ele>335.0</ele><time>2026-05-02T08:53:11Z</time></trkpt><trkpt lat="50.19018004474074" lon="16.251692302071994"><ele>335.0</ele><time>2026-05-02T08:53:12Z</time></trkpt><trkpt lat="50.19028582323615" lon="16.251601197014953"><ele>335.0</ele><time>2026-05-02T08:53:13Z</time></trkpt><trkpt lat="50.19039908346871" lon="16.251503531961056"><ele>335.0</ele><time>2026-05-02T08:53:14Z</time></trkpt><trkpt lat="50.19052737593263" lon="16.251392608926313"><ele>335.0</ele><time>2026-05-02T08:53:15Z</time></trkpt><trkpt lat="50.19066760658454" lon="16.251272685134698"><ele>335.0</ele><time>2026-05-02T08:53:16Z</time></trkpt><trkpt lat="50.19081687196786" lon="16.25114830714426"><ele>335.0</ele><time>2026-05-02T08:53:17Z</time></trkpt><trkpt lat="50.19097326553403" lon="16.251017279764415"><ele>335.0</ele><time>2026-05-02T08:53:18Z</time></trkpt><trkpt lat="50.19112023051028" lon="16.250891028230463"><ele>335.0</ele><time>2026-05-02T08:53:19Z</time></trkpt><trkpt lat="50.19125785689147" lon="16.250775031053948"><ele>335.0</ele><time>2026-05-02T08:53:20Z</time></trkpt><trkpt lat="50.19139656555342" lon="16.250659205903773"><ele>335.0</ele><time>2026-05-02T08:53:21Z</time></trkpt><trkpt lat="50.19153613237645" lon="16.250542623385087"><ele>334.6666666666667</ele><time>2026-05-02T08:53:22Z</time></trkpt><trkpt lat="50.19167763679269" lon="16.250425187798147"><ele>334.3333333333333</ele><time>2026-05-02T08:53:23Z</time></trkpt><trkpt lat="50.19182033343049" lon="16.250306007709902"><ele>334.0</ele><time>2026-05-02T08:53:24Z</time></trkpt><trkpt lat="50.19196450922863" lon="16.250183727363748"><ele>334.0</ele><time>2026-05-02T08:53:25Z</time></trkpt><trkpt lat="50.19211108557396" lon="16.250060727348917"><ele>334.0</ele><time>2026-05-02T08:53:26Z</time></trkpt><trkpt lat="50.19225693346835" lon="16.24993710409584"><ele>334.0</ele><time>2026-05-02T08:53:27Z</time></trkpt><trkpt lat="50.192403993695216" lon="16.24981419569996"><ele>334.0</ele><time>2026-05-02T08:53:28Z</time></trkpt><trkpt lat="50.19255001197982" lon="16.249691672378656"><ele>334.0</ele><time>2026-05-02T08:53:29Z</time></trkpt><trkpt lat="50.19269392645206" lon="16.24957010457476"><ele>334.0</ele><time>2026-05-02T08:53:30Z</time></trkpt><trkpt lat="50.19283704015982" lon="16.249450550174583"><ele>334.0</ele><time>2026-05-02T08:53:31Z</time></trkpt><trkpt lat="50.192973627750675" lon="16.24933740608873"><ele>334.0</ele><time>2026-05-02T08:53:32Z</time></trkpt><trkpt lat="50.19309855740995" lon="16.249232823574168"><ele>334.0</ele><time>2026-05-02T08:53:33Z</time></trkpt><trkpt lat="50.193219284238296" lon="16.24912641714073"><ele>334.0</ele><time>2026-05-02T08:53:34Z</time></trkpt><trkpt lat="50.19334174289563" lon="16.249019134445614"><ele>333.75</ele><time>2026-05-02T08:53:35Z</time></trkpt><trkpt lat="50.193474192888104" lon="16.248907220617436"><ele>333.5</ele><time>2026-05-02T08:53:36Z</time></trkpt><trkpt lat="50.193569372250614" lon="16.24882549640287"><ele>333.25</ele><time>2026-05-02T08:53:37Z</time></trkpt><trkpt lat="50.19369198873968" lon="16.24872721100505"><ele>333.0</ele><time>2026-05-02T08:53:38Z</time></trkpt><trkpt lat="50.19380697227325" lon="16.248627014173106"><ele>333.0</ele><time>2026-05-02T08:53:39Z</time></trkpt><trkpt lat="50.193912739897264" lon="16.24853274796909"><ele>333.0</ele><time>2026-05-02T08:53:40Z</time></trkpt><trkpt lat="50.194024314016005" lon="16.248440954221483"><ele>333.0</ele><time>2026-05-02T08:53:41Z</time></trkpt><trkpt lat="50.19413590791995" lon="16.248348430805184"><ele>333.0</ele><time>2026-05-02T08:53:42Z</time></trkpt><trkpt lat="50.19423729140809" lon="16.248263814757614"><ele>333.0</ele><time>2026-05-02T08:53:43Z</time></trkpt><trkpt lat="50.19433081479464" lon="16.24818288263467"><ele>333.0</ele><time>2026-05-02T08:53:43.999Z</time></trkpt><trkpt lat="50.19442443294278" lon="16.248106225971334"><ele>333.0</ele><time>2026-05-02T08:53:44.999Z</time></trkpt><trkpt lat="50.19451980986762" lon="16.24802775112248"><ele>333.0</ele><time>2026-05-02T08:53:45.999Z</time></trkpt><trkpt lat="50.1946159440264" lon="16.247949286148035"><ele>333.0</ele><time>2026-05-02T08:53:46.999Z</time></trkpt><trkpt lat="50.19470831152236" lon="16.24787031808071"><ele>332.6666666666667</ele><time>2026-05-02T08:53:47.999Z</time></trkpt><trkpt lat="50.194794241951755" lon="16.247799237888806"><ele>332.3333333333333</ele><time>2026-05-02T08:53:48.999Z</time></trkpt><trkpt lat="50.19487277039103" lon="16.247731844216034"><ele>332.0</ele><time>2026-05-02T08:53:49.999Z</time></trkpt><trkpt lat="50.19494771416256" lon="16.247666813107365"><ele>331.66666666666663</ele><time>2026-05-02T08:53:50.999Z</time></trkpt><trkpt lat="50.19502262100809" lon="16.24760074565326"><ele>331.3333333333333</ele><time>2026-05-02T08:53:51.999Z</time></trkpt><trkpt lat="50.195087230165626" lon="16.2475430667964"><ele>331.0</ele><time>2026-05-02T08:53:52.999Z</time></trkpt><trkpt lat="50.195146819506526" lon="16.247492410656797"><ele>330.8333333333333</ele><time>2026-05-02T08:53:53.999Z</time></trkpt><trkpt lat="50.19520337610442" lon="16.24744780778831"><ele>330.66666666666663</ele><time>2026-05-02T08:53:54.999Z</time></trkpt><trkpt lat="50.19526587266194" lon="16.247415676550695"><ele>330.5</ele><time>2026-05-02T08:53:55.999Z</time></trkpt><trkpt lat="50.195343519979815" lon="16.247418528385367"><ele>330.3333333333333</ele><time>2026-05-02T08:53:56.999Z</time></trkpt><trkpt lat="50.195415043665136" lon="16.247456428964245"><ele>330.1666666666667</ele><time>2026-05-02T08:53:57.999Z</time></trkpt><trkpt lat="50.195514999463484" lon="16.247480491947282"><ele>330.0</ele><time>2026-05-02T08:53:58.999Z</time></trkpt><trkpt lat="50.195630403649055" lon="16.24742936220374"><ele>330.0</ele><time>2026-05-02T08:53:59.999Z</time></trkpt><trkpt lat="50.19555106520526" lon="16.247398457248302"><ele>330.0</ele><time>2026-05-02T08:54:00.999Z</time></trkpt><trkpt lat="50.19560925066374" lon="16.247216105276447"><ele>330.0</ele><time>2026-05-02T08:54:02.999Z</time></trkpt><trkpt lat="50.19563037970811" lon="16.247120610774523"><ele>330.0</ele><time>2026-05-02T08:54:03.999Z</time></trkpt><trkpt lat="50.19567535921779" lon="16.24703902666375"><ele>330.0</ele><time>2026-05-02T08:54:04.999Z</time></trkpt><trkpt lat="50.19574326453153" lon="16.246955940807606"><ele>330.0</ele><time>2026-05-02T08:54:05.999Z</time></trkpt><trkpt lat="50.195824844104195" lon="16.246877716794714"><ele>330.25</ele><time>2026-05-02T08:54:06.999Z</time></trkpt><trkpt lat="50.195923062747156" lon="16.246810707985095"><ele>330.5</ele><time>2026-05-02T08:54:07.999Z</time></trkpt><trkpt lat="50.19603810158486" lon="16.246726084205896"><ele>330.75</ele><time>2026-05-02T08:54:08.999Z</time></trkpt><trkpt lat="50.196157448698656" lon="16.246630215289578"><ele>331.0</ele><time>2026-05-02T08:54:09.999Z</time></trkpt><trkpt lat="50.19628030677346" lon="16.246528888828525"><ele>331.0</ele><time>2026-05-02T08:54:10.999Z</time></trkpt><trkpt lat="50.19639519422899" lon="16.246437973604973"><ele>331.0</ele><time>2026-05-02T08:54:11.999Z</time></trkpt><trkpt lat="50.196501852206325" lon="16.24634975371004"><ele>331.0</ele><time>2026-05-02T08:54:12.999Z</time></trkpt><trkpt lat="50.19661121520144" lon="16.24626165122093"><ele>331.0</ele><time>2026-05-02T08:54:13.999Z</time></trkpt><trkpt lat="50.196731243743734" lon="16.246167867651366"><ele>332.25</ele><time>2026-05-02T08:54:14.999Z</time></trkpt><trkpt lat="50.19684988366507" lon="16.246074954603028"><ele>333.5</ele><time>2026-05-02T08:54:16Z</time></trkpt><trkpt lat="50.19696758971601" lon="16.245969059800995"><ele>334.75</ele><time>2026-05-02T08:54:17Z</time></trkpt><trkpt lat="50.197079444669235" lon="16.245844188298868"><ele>336.0</ele><time>2026-05-02T08:54:18Z</time></trkpt><trkpt lat="50.197186670323745" lon="16.245711357891963"><ele>337.25</ele><time>2026-05-02T08:54:19Z</time></trkpt><trkpt lat="50.19729174762748" lon="16.245573419500236"><ele>338.5</ele><time>2026-05-02T08:54:20Z</time></trkpt><trkpt lat="50.19738482669675" lon="16.245443807147854"><ele>339.75</ele><time>2026-05-02T08:54:21Z</time></trkpt><trkpt lat="50.19746686655009" lon="16.24530562635194"><ele>341.0</ele><time>2026-05-02T08:54:22Z</time></trkpt><trkpt lat="50.19754023273052" lon="16.245159958359867"><ele>341.25</ele><time>2026-05-02T08:54:23Z</time></trkpt><trkpt lat="50.19762386030143" lon="16.245022899754314"><ele>341.5</ele><time>2026-05-02T08:54:24Z</time></trkpt><trkpt lat="50.197707153794774" lon="16.24489739456946"><ele>341.75</ele><time>2026-05-02T08:54:25Z</time></trkpt><trkpt lat="50.19778497622288" lon="16.2447793705224"><ele>342.0</ele><time>2026-05-02T08:54:26Z</time></trkpt><trkpt lat="50.197859300882335" lon="16.24466190643341"><ele>342.6</ele><time>2026-05-02T08:54:27Z</time></trkpt><trkpt lat="50.19792274175917" lon="16.244557859215547"><ele>343.20000000000005</ele><time>2026-05-02T08:54:28Z</time></trkpt><trkpt lat="50.197985941033394" lon="16.24445273673706"><ele>343.8</ele><time>2026-05-02T08:54:29Z</time></trkpt><trkpt lat="50.1980495165439" lon="16.24434824702653"><ele>344.4</ele><time>2026-05-02T08:54:30Z</time></trkpt><trkpt lat="50.198113059643475" lon="16.244247134189035"><ele>345.0</ele><time>2026-05-02T08:54:31Z</time></trkpt><trkpt lat="50.1981750913006" lon="16.244133264970852"><ele>345.0</ele><time>2026-05-02T08:54:32Z</time></trkpt><trkpt lat="50.19824720488934" lon="16.24401836109253"><ele>345.0</ele><time>2026-05-02T08:54:33Z</time></trkpt><trkpt lat="50.19831575772767" lon="16.243903562887617"><ele>345.0</ele><time>2026-05-02T08:54:34Z</time></trkpt><trkpt lat="50.19838484948207" lon="16.24379454376819"><ele>345.0</ele><time>2026-05-02T08:54:35Z</time></trkpt><trkpt lat="50.19845600276261" lon="16.243686961770393"><ele>345.0</ele><time>2026-05-02T08:54:36Z</time></trkpt><trkpt lat="50.19852451818587" lon="16.243579298272895"><ele>345.4</ele><time>2026-05-02T08:54:37Z</time></trkpt><trkpt lat="50.198591809929624" lon="16.243464790914246"><ele>345.8</ele><time>2026-05-02T08:54:38Z</time></trkpt><trkpt lat="50.19866018142649" lon="16.243352116297196"><ele>346.20000000000005</ele><time>2026-05-02T08:54:39Z</time></trkpt><trkpt lat="50.19873278554473" lon="16.243238961401683"><ele>346.6</ele><time>2026-05-02T08:54:40Z</time></trkpt><trkpt lat="50.19880672838803" lon="16.243126912228938"><ele>347.0</ele><time>2026-05-02T08:54:41Z</time></trkpt><trkpt lat="50.19888663964863" lon="16.24302285301839"><ele>347.0</ele><time>2026-05-02T08:54:42Z</time></trkpt><trkpt lat="50.19896856561471" lon="16.242916553474366"><ele>347.0</ele><time>2026-05-02T08:54:43Z</time></trkpt><trkpt lat="50.199055730244275" lon="16.242815210857827"><ele>347.0</ele><time>2026-05-02T08:54:44Z</time></trkpt><trkpt lat="50.19914486256553" lon="16.24271295829788"><ele>347.0</ele><time>2026-05-02T08:54:45Z</time></trkpt><trkpt lat="50.19923432493766" lon="16.24260289693522"><ele>347.0</ele><time>2026-05-02T08:54:46Z</time></trkpt><trkpt lat="50.199328193207705" lon="16.2424936261248"><ele>346.5</ele><time>2026-05-02T08:54:47Z</time></trkpt><trkpt lat="50.19942212962541" lon="16.242381140449172"><ele>346.0</ele><time>2026-05-02T08:54:48Z</time></trkpt><trkpt lat="50.19951539733985" lon="16.242271679920872"><ele>345.5</ele><time>2026-05-02T08:54:49Z</time></trkpt><trkpt lat="50.199607621922716" lon="16.242168817110993"><ele>345.0</ele><time>2026-05-02T08:54:50Z</time></trkpt><trkpt lat="50.19969234707839" lon="16.242060230373312"><ele>344.8</ele><time>2026-05-02T08:54:51Z</time></trkpt><trkpt lat="50.19977202526015" lon="16.24195866959702"><ele>344.6</ele><time>2026-05-02T08:54:52Z</time></trkpt><trkpt lat="50.19985054692343" lon="16.241865589998635"><ele>344.4</ele><time>2026-05-02T08:54:53Z</time></trkpt><trkpt lat="50.199924767327175" lon="16.241777155025705"><ele>344.2</ele><time>2026-05-02T08:54:54Z</time></trkpt><trkpt lat="50.199993091135816" lon="16.24169692803796"><ele>344.0</ele><time>2026-05-02T08:54:55Z</time></trkpt><trkpt lat="50.20006178561427" lon="16.241612394984177"><ele>343.6</ele><time>2026-05-02T08:54:56Z</time></trkpt><trkpt lat="50.20012943810019" lon="16.24152375389919"><ele>343.2</ele><time>2026-05-02T08:54:57Z</time></trkpt><trkpt lat="50.2002016535005" lon="16.241436327487094"><ele>342.8</ele><time>2026-05-02T08:54:58Z</time></trkpt><trkpt lat="50.200276486621654" lon="16.241348647591124"><ele>342.40000000000003</ele><time>2026-05-02T08:54:59Z</time></trkpt><trkpt lat="50.200351158235385" lon="16.24125599722828"><ele>342.0</ele><time>2026-05-02T08:55:00Z</time></trkpt><trkpt lat="50.20042357968124" lon="16.241155376767086"><ele>341.8</ele><time>2026-05-02T08:55:01Z</time></trkpt><trkpt lat="50.20049722187183" lon="16.24105484157962"><ele>341.6</ele><time>2026-05-02T08:55:02Z</time></trkpt><trkpt lat="50.200567845617755" lon="16.24094770170888"><ele>341.40000000000003</ele><time>2026-05-02T08:55:03Z</time></trkpt><trkpt lat="50.20063382385675" lon="16.240830046425526"><ele>341.20000000000005</ele><time>2026-05-02T08:55:04Z</time></trkpt><trkpt lat="50.20070240334535" lon="16.240712627971053"><ele>341.0</ele><time>2026-05-02T08:55:05Z</time></trkpt><trkpt lat="50.20076870992657" lon="16.240591447784745"><ele>340.20000000000005</ele><time>2026-05-02T08:55:06Z</time></trkpt><trkpt lat="50.20082938240076" lon="16.240460370227456"><ele>339.40000000000003</ele><time>2026-05-02T08:55:07Z</time></trkpt><trkpt lat="50.200881789797755" lon="16.240319456793777"><ele>338.6</ele><time>2026-05-02T08:55:08Z</time></trkpt><trkpt lat="50.20093248613039" lon="16.240176606637345"><ele>337.8</ele><time>2026-05-02T08:55:09Z</time></trkpt><trkpt lat="50.20099307535408" lon="16.240035211613595"><ele>337.0</ele><time>2026-05-02T08:55:10Z</time></trkpt><trkpt lat="50.20107069821506" lon="16.239896837047244"><ele>336.0</ele><time>2026-05-02T08:55:11Z</time></trkpt><trkpt lat="50.20117292078838" lon="16.239762543104312"><ele>335.0</ele><time>2026-05-02T08:55:12Z</time></trkpt><trkpt lat="50.20129464843885" lon="16.239641420869596"><ele>334.0</ele><time>2026-05-02T08:55:13Z</time></trkpt><trkpt lat="50.201415130608424" lon="16.239545942147227"><ele>333.0</ele><time>2026-05-02T08:55:14Z</time></trkpt><trkpt lat="50.201541247900444" lon="16.239482758064756"><ele>332.25</ele><time>2026-05-02T08:55:15Z</time></trkpt><trkpt lat="50.20166554302632" lon="16.239417188956473"><ele>331.5</ele><time>2026-05-02T08:55:16Z</time></trkpt><trkpt lat="50.20178633518817" lon="16.23934659189133"><ele>330.75</ele><time>2026-05-02T08:55:17Z</time></trkpt><trkpt lat="50.201904279379846" lon="16.239270820258778"><ele>330.0</ele><time>2026-05-02T08:55:18Z</time></trkpt><trkpt lat="50.202013322681445" lon="16.239191878027466"><ele>330.0</ele><time>2026-05-02T08:55:19Z</time></trkpt><trkpt lat="50.20211179919472" lon="16.239098456757855"><ele>330.0</ele><time>2026-05-02T08:55:20Z</time></trkpt><trkpt lat="50.20221598884537" lon="16.238997922798458"><ele>330.0</ele><time>2026-05-02T08:55:21Z</time></trkpt><trkpt lat="50.20231397397149" lon="16.2389055037013"><ele>330.0</ele><time>2026-05-02T08:55:22Z</time></trkpt><trkpt lat="50.20241717776973" lon="16.23881500705622"><ele>329.8</ele><time>2026-05-02T08:55:23Z</time></trkpt><trkpt lat="50.20251731516291" lon="16.2387218029678"><ele>329.6</ele><time>2026-05-02T08:55:24Z</time></trkpt><trkpt lat="50.20261167536672" lon="16.238633117070087"><ele>329.4</ele><time>2026-05-02T08:55:25Z</time></trkpt><trkpt lat="50.20269912082497" lon="16.238544158483467"><ele>329.2</ele><time>2026-05-02T08:55:26Z</time></trkpt><trkpt lat="50.2027933179301" lon="16.238455859894177"><ele>329.0</ele><time>2026-05-02T08:55:27Z</time></trkpt><trkpt lat="50.202887804924224" lon="16.238370513405084"><ele>329.0</ele><time>2026-05-02T08:55:28Z</time></trkpt><trkpt lat="50.20298503306543" lon="16.23827381238621"><ele>329.0</ele><time>2026-05-02T08:55:29Z</time></trkpt><trkpt lat="50.20308624818084" lon="16.238175550198804"><ele>329.0</ele><time>2026-05-02T08:55:30Z</time></trkpt><trkpt lat="50.20318902051365" lon="16.238070606067517"><ele>329.0</ele><time>2026-05-02T08:55:31Z</time></trkpt><trkpt lat="50.20328587830977" lon="16.237974233148293"><ele>329.79999999999995</ele><time>2026-05-02T08:55:32Z</time></trkpt><trkpt lat="50.20337882080427" lon="16.237882564279374"><ele>330.59999999999997</ele><time>2026-05-02T08:55:33Z</time></trkpt><trkpt lat="50.20346863706297" lon="16.237792755532443"><ele>331.4</ele><time>2026-05-02T08:55:34Z</time></trkpt><trkpt lat="50.20355165585576" lon="16.23770202883719"><ele>332.2</ele><time>2026-05-02T08:55:35Z</time></trkpt><trkpt lat="50.203639054744734" lon="16.237614744472488"><ele>333.0</ele><time>2026-05-02T08:55:36Z</time></trkpt><trkpt lat="50.20372782613456" lon="16.23752546342085"><ele>333.0</ele><time>2026-05-02T08:55:37Z</time></trkpt><trkpt lat="50.203813843799374" lon="16.23742440686351"><ele>333.0</ele><time>2026-05-02T08:55:38Z</time></trkpt><trkpt lat="50.20390135897861" lon="16.237321316279555"><ele>333.0</ele><time>2026-05-02T08:55:39Z</time></trkpt><trkpt lat="50.20399080863932" lon="16.23721399537496"><ele>333.0</ele><time>2026-05-02T08:55:40Z</time></trkpt><trkpt lat="50.20407945064385" lon="16.237107624087525"><ele>333.0</ele><time>2026-05-02T08:55:41Z</time></trkpt><trkpt lat="50.20416499578359" lon="16.237001306036106"><ele>333.5</ele><time>2026-05-02T08:55:42Z</time></trkpt><trkpt lat="50.204263143632716" lon="16.236923289415603"><ele>334.0</ele><time>2026-05-02T08:55:43Z</time></trkpt><trkpt lat="50.20435287650145" lon="16.236816719570182"><ele>334.5</ele><time>2026-05-02T08:55:44Z</time></trkpt><trkpt lat="50.204457610932316" lon="16.236738692047503"><ele>335.0</ele><time>2026-05-02T08:55:45Z</time></trkpt><trkpt lat="50.20456215089467" lon="16.236657465378176"><ele>335.0</ele><time>2026-05-02T08:55:46Z</time></trkpt><trkpt lat="50.20466250517934" lon="16.236567650313102"><ele>335.0</ele><time>2026-05-02T08:55:47Z</time></trkpt><trkpt lat="50.20477296068499" lon="16.236474818032796"><ele>335.0</ele><time>2026-05-02T08:55:48Z</time></trkpt><trkpt lat="50.20488083808065" lon="16.23640201486176"><ele>335.0</ele><time>2026-05-02T08:55:49Z</time></trkpt><trkpt lat="50.20499286460853" lon="16.236331385327304"><ele>335.75</ele><time>2026-05-02T08:55:50Z</time></trkpt><trkpt lat="50.20510970705173" lon="16.23626480628025"><ele>336.5</ele><time>2026-05-02T08:55:51Z</time></trkpt><trkpt lat="50.20522963156568" lon="16.236199077656167"><ele>337.25</ele><time>2026-05-02T08:55:52Z</time></trkpt><trkpt lat="50.20534626781254" lon="16.236139739689406"><ele>338.0</ele><time>2026-05-02T08:55:53Z</time></trkpt><trkpt lat="50.20544951259148" lon="16.23608648102774"><ele>338.0</ele><time>2026-05-02T08:55:54Z</time></trkpt><trkpt lat="50.20554706883959" lon="16.23603757407542"><ele>338.0</ele><time>2026-05-02T08:55:55Z</time></trkpt><trkpt lat="50.20565539676348" lon="16.235985206492686"><ele>338.0</ele><time>2026-05-02T08:55:56Z</time></trkpt><trkpt lat="50.20577389760603" lon="16.235924418225427"><ele>338.0</ele><time>2026-05-02T08:55:57Z</time></trkpt><trkpt lat="50.20589407692051" lon="16.235864188451608"><ele>338.0</ele><time>2026-05-02T08:55:58Z</time></trkpt><trkpt lat="50.20601540308237" lon="16.23580048490991"><ele>338.0</ele><time>2026-05-02T08:55:59Z</time></trkpt><trkpt lat="50.206143569702604" lon="16.2357363503489"><ele>338.0</ele><time>2026-05-02T08:56:00Z</time></trkpt><trkpt lat="50.20627330916035" lon="16.235677130950485"><ele>338.0</ele><time>2026-05-02T08:56:01Z</time></trkpt><trkpt lat="50.20640224437193" lon="16.23561400551779"><ele>337.25</ele><time>2026-05-02T08:56:02Z</time></trkpt><trkpt lat="50.20652696630481" lon="16.235549840118107"><ele>336.5</ele><time>2026-05-02T08:56:03Z</time></trkpt><trkpt lat="50.206649948637754" lon="16.235494668868945"><ele>335.75</ele><time>2026-05-02T08:56:04Z</time></trkpt><trkpt lat="50.206766856385975" lon="16.23545302261053"><ele>335.0</ele><time>2026-05-02T08:56:05Z</time></trkpt><trkpt lat="50.2068746332184" lon="16.23542071697359"><ele>335.0</ele><time>2026-05-02T08:56:06Z</time></trkpt><trkpt lat="50.206978058521365" lon="16.235387723442905"><ele>335.0</ele><time>2026-05-02T08:56:07Z</time></trkpt><trkpt lat="50.20708207923426" lon="16.23535997023185"><ele>335.0</ele><time>2026-05-02T08:56:08Z</time></trkpt><trkpt lat="50.20718657724044" lon="16.235332109308406"><ele>335.0</ele><time>2026-05-02T08:56:09Z</time></trkpt><trkpt lat="50.20728993889098" lon="16.23530299016968"><ele>335.0</ele><time>2026-05-02T08:56:10Z</time></trkpt><trkpt lat="50.20739481980559" lon="16.235277048082793"><ele>334.4</ele><time>2026-05-02T08:56:11Z</time></trkpt><trkpt lat="50.20749746645053" lon="16.235248702168985"><ele>333.8</ele><time>2026-05-02T08:56:12Z</time></trkpt><trkpt lat="50.207598970906474" lon="16.235214342135965"><ele>333.20000000000005</ele><time>2026-05-02T08:56:13Z</time></trkpt><trkpt lat="50.207699007591074" lon="16.23518367577989"><ele>332.6</ele><time>2026-05-02T08:56:14Z</time></trkpt><trkpt lat="50.20779220961831" lon="16.23515927399273"><ele>332.0</ele><time>2026-05-02T08:56:15Z</time></trkpt><trkpt lat="50.20787496097006" lon="16.235141952009254"><ele>332.0</ele><time>2026-05-02T08:56:16Z</time></trkpt><trkpt lat="50.20795037174819" lon="16.235121471127542"><ele>332.0</ele><time>2026-05-02T08:56:17Z</time></trkpt><trkpt lat="50.20801903665945" lon="16.23510581182043"><ele>332.0</ele><time>2026-05-02T08:56:18Z</time></trkpt><trkpt lat="50.20808788115196" lon="16.235098569369477"><ele>332.0</ele><time>2026-05-02T08:56:19Z</time></trkpt><trkpt lat="50.20815874127388" lon="16.235084914019097"><ele>332.0</ele><time>2026-05-02T08:56:20Z</time></trkpt><trkpt lat="50.20827101914452" lon="16.235047019722124"><ele>332.0</ele><time>2026-05-02T08:56:22Z</time></trkpt><trkpt lat="50.20837008646837" lon="16.2350270095674"><ele>331.6</ele><time>2026-05-02T08:56:24Z</time></trkpt><trkpt lat="50.20843290198724" lon="16.235005304389666"><ele>331.20000000000005</ele><time>2026-05-02T08:56:28Z</time></trkpt><trkpt lat="50.20852358279025" lon="16.234967260431958"><ele>330.8</ele><time>2026-05-02T08:56:31Z</time></trkpt><trkpt lat="50.20864190486882" lon="16.234940827154624"><ele>330.4</ele><time>2026-05-02T08:56:33Z</time></trkpt><trkpt lat="50.2087474041896" lon="16.23489116599079"><ele>330.0</ele><time>2026-05-02T08:56:35Z</time></trkpt><trkpt lat="50.20884009414027" lon="16.23486403830362"><ele>330.0</ele><time>2026-05-02T08:56:37Z</time></trkpt><trkpt lat="50.208914491946054" lon="16.234846700348314"><ele>330.0</ele><time>2026-05-02T08:56:39Z</time></trkpt><trkpt lat="50.208989461103116" lon="16.23483137572505"><ele>330.0</ele><time>2026-05-02T08:57:44Z</time></trkpt><trkpt lat="50.209124341520145" lon="16.234776246386016"><ele>330.0</ele><time>2026-05-02T08:57:46Z</time></trkpt><trkpt lat="50.209191893102826" lon="16.234752395025904"><ele>330.0</ele><time>2026-05-02T08:57:47Z</time></trkpt><trkpt lat="50.2093110572721" lon="16.234714821741687"><ele>329.2</ele><time>2026-05-02T08:57:49Z</time></trkpt><trkpt lat="50.209439850913014" lon="16.234673886555548"><ele>328.4</ele><time>2026-05-02T08:57:51Z</time></trkpt><trkpt lat="50.20951009364256" lon="16.23465529881783"><ele>327.6</ele><time>2026-05-02T08:57:52Z</time></trkpt><trkpt lat="50.20958748323261" lon="16.234634716721516"><ele>326.8</ele><time>2026-05-02T08:57:53Z</time></trkpt><trkpt lat="50.209673243220216" lon="16.234619046309923"><ele>326.0</ele><time>2026-05-02T08:57:54Z</time></trkpt><trkpt lat="50.209764350223026" lon="16.234604985683056"><ele>325.8</ele><time>2026-05-02T08:57:55Z</time></trkpt><trkpt lat="50.20986443984707" lon="16.2345769792184"><ele>325.6</ele><time>2026-05-02T08:57:56Z</time></trkpt><trkpt lat="50.20996981003365" lon="16.234540902564756"><ele>325.4</ele><time>2026-05-02T08:57:57Z</time></trkpt><trkpt lat="50.21008428861049" lon="16.234502824935813"><ele>325.2</ele><time>2026-05-02T08:57:58Z</time></trkpt><trkpt lat="50.2101955449019" lon="16.234459913734856"><ele>325.0</ele><time>2026-05-02T08:57:59Z</time></trkpt><trkpt lat="50.210258583412546" lon="16.234465475190415"><ele>325.0</ele><time>2026-05-02T08:58:00Z</time></trkpt><trkpt lat="50.21035554147392" lon="16.23443080533195"><ele>325.0</ele><time>2026-05-02T08:58:01Z</time></trkpt><trkpt lat="50.210454638840574" lon="16.23439748649266"><ele>325.0</ele><time>2026-05-02T08:58:02Z</time></trkpt><trkpt lat="50.210571108688725" lon="16.234360585307638"><ele>325.0</ele><time>2026-05-02T08:58:03Z</time></trkpt><trkpt lat="50.21069337520769" lon="16.234324241052985"><ele>325.0</ele><time>2026-05-02T08:58:04Z</time></trkpt><trkpt lat="50.21081568015427" lon="16.23428665060383"><ele>325.0</ele><time>2026-05-02T08:58:05Z</time></trkpt><trkpt lat="50.210945813658526" lon="16.23424712010902"><ele>325.0</ele><time>2026-05-02T08:58:06Z</time></trkpt><trkpt lat="50.21107883477645" lon="16.234202432467463"><ele>325.0</ele><time>2026-05-02T08:58:07Z</time></trkpt><trkpt lat="50.21120998077305" lon="16.234156636499787"><ele>325.0</ele><time>2026-05-02T08:58:08Z</time></trkpt><trkpt lat="50.21133642611108" lon="16.234117241073534"><ele>325.0</ele><time>2026-05-02T08:58:09Z</time></trkpt><trkpt lat="50.21145266392271" lon="16.23408288883422"><ele>325.0</ele><time>2026-05-02T08:58:10Z</time></trkpt><trkpt lat="50.211569163957705" lon="16.23404584735606"><ele>325.0</ele><time>2026-05-02T08:58:11Z</time></trkpt><trkpt lat="50.211698411754746" lon="16.2340060035184"><ele>325.0</ele><time>2026-05-02T08:58:12Z</time></trkpt><trkpt lat="50.21183057957754" lon="16.233968502369258"><ele>323.66666666666663</ele><time>2026-05-02T08:58:13Z</time></trkpt><trkpt lat="50.21196300795841" lon="16.23392510870188"><ele>322.3333333333333</ele><time>2026-05-02T08:58:14Z</time></trkpt><trkpt lat="50.21211436214338" lon="16.233877636396304"><ele>321.0</ele><time>2026-05-02T08:58:15Z</time></trkpt><trkpt lat="50.21227187001447" lon="16.233831945897496"><ele>321.0</ele><time>2026-05-02T08:58:16Z</time></trkpt><trkpt lat="50.212420790519424" lon="16.233789910399594"><ele>321.0</ele><time>2026-05-02T08:58:17Z</time></trkpt><trkpt lat="50.21256844559597" lon="16.233743132878978"><ele>321.0</ele><time>2026-05-02T08:58:18Z</time></trkpt><trkpt lat="50.21271607579616" lon="16.23372219199395"><ele>321.0</ele><time>2026-05-02T08:58:19Z</time></trkpt><trkpt lat="50.212867006483236" lon="16.233678754201097"><ele>321.0</ele><time>2026-05-02T08:58:20Z</time></trkpt><trkpt lat="50.21302645541416" lon="16.233632674625778"><ele>321.0</ele><time>2026-05-02T08:58:21Z</time></trkpt><trkpt lat="50.21320610790788" lon="16.233556831991063"><ele>321.0</ele><time>2026-05-02T08:58:22Z</time></trkpt><trkpt lat="50.21337038850077" lon="16.233532698449647"><ele>321.0</ele><time>2026-05-02T08:58:23Z</time></trkpt><trkpt lat="50.213544431651655" lon="16.233482089185355"><ele>321.0</ele><time>2026-05-02T08:58:24Z</time></trkpt><trkpt lat="50.21372418189107" lon="16.2334072927061"><ele>321.0</ele><time>2026-05-02T08:58:25Z</time></trkpt><trkpt lat="50.21391288300853" lon="16.2333524277448"><ele>321.0</ele><time>2026-05-02T08:58:26Z</time></trkpt><trkpt lat="50.21411126779457" lon="16.233317594152528"><ele>321.0</ele><time>2026-05-02T08:58:27Z</time></trkpt><trkpt lat="50.21431893045271" lon="16.233257225103845"><ele>321.5</ele><time>2026-05-02T08:58:28Z</time></trkpt><trkpt lat="50.2145408633603" lon="16.23319288008658"><ele>322.0</ele><time>2026-05-02T08:58:29Z</time></trkpt><trkpt lat="50.21477369796785" lon="16.233124933950208"><ele>321.5</ele><time>2026-05-02T08:58:30Z</time></trkpt><trkpt lat="50.215015773389275" lon="16.233054411126368"><ele>321.0</ele><time>2026-05-02T08:58:31Z</time></trkpt><trkpt lat="50.2152669671013" lon="16.232981231873033"><ele>321.0</ele><time>2026-05-02T08:58:32Z</time></trkpt><trkpt lat="50.215507371674974" lon="16.23291131342471"><ele>321.0</ele><time>2026-05-02T08:58:33Z</time></trkpt><trkpt lat="50.21572443905845" lon="16.2328482273407"><ele>321.0</ele><time>2026-05-02T08:58:34Z</time></trkpt><trkpt lat="50.21593689775753" lon="16.23278663640431"><ele>321.0</ele><time>2026-05-02T08:58:35Z</time></trkpt><trkpt lat="50.216152418961244" lon="16.23272446422287"><ele>321.0</ele><time>2026-05-02T08:58:36Z</time></trkpt><trkpt lat="50.21635410171953" lon="16.232665357881768"><ele>321.6666666666667</ele><time>2026-05-02T08:58:37Z</time></trkpt><trkpt lat="50.216543402174544" lon="16.232610458978794"><ele>322.33333333333337</ele><time>2026-05-02T08:58:38Z</time></trkpt><trkpt lat="50.21672855403626" lon="16.23255687645019"><ele>323.0</ele><time>2026-05-02T08:58:39Z</time></trkpt><trkpt lat="50.216913598983695" lon="16.232503562635515"><ele>323.0</ele><time>2026-05-02T08:58:40Z</time></trkpt><trkpt lat="50.217092743252024" lon="16.23245156243467"><ele>323.0</ele><time>2026-05-02T08:58:41Z</time></trkpt><trkpt lat="50.21726056956866" lon="16.232402695332155"><ele>323.0</ele><time>2026-05-02T08:58:42Z</time></trkpt><trkpt lat="50.21742361609638" lon="16.23235521986342"><ele>323.0</ele><time>2026-05-02T08:58:43Z</time></trkpt><trkpt lat="50.21758296041942" lon="16.232309149084944"><ele>323.0</ele><time>2026-05-02T08:58:44Z</time></trkpt><trkpt lat="50.21774100694727" lon="16.23226358149096"><ele>323.0</ele><time>2026-05-02T08:58:45Z</time></trkpt><trkpt lat="50.21789165270363" lon="16.23221977131617"><ele>323.0</ele><time>2026-05-02T08:58:46Z</time></trkpt><trkpt lat="50.21803896232484" lon="16.23217681978107"><ele>323.0</ele><time>2026-05-02T08:58:47Z</time></trkpt><trkpt lat="50.218182458152455" lon="16.232134980180135"><ele>323.0</ele><time>2026-05-02T08:58:48Z</time></trkpt><trkpt lat="50.21832791553039" lon="16.232092676502226"><ele>323.0</ele><time>2026-05-02T08:58:49Z</time></trkpt><trkpt lat="50.21846320685476" lon="16.2320533673472"><ele>323.25</ele><time>2026-05-02T08:58:50Z</time></trkpt><trkpt lat="50.218591121478454" lon="16.232016088694948"><ele>323.5</ele><time>2026-05-02T08:58:51Z</time></trkpt><trkpt lat="50.2187087930909" lon="16.231981714394465"><ele>323.75</ele><time>2026-05-02T08:58:52Z</time></trkpt><trkpt lat="50.218818592886706" lon="16.23194963961083"><ele>324.0</ele><time>2026-05-02T08:58:53Z</time></trkpt><trkpt lat="50.21891890850939" lon="16.23189912650563"><ele>324.2</ele><time>2026-05-02T08:58:54Z</time></trkpt><trkpt lat="50.21902972294433" lon="16.231890161107145"><ele>324.4</ele><time>2026-05-02T08:58:55Z</time></trkpt><trkpt lat="50.21914366074671" lon="16.23186347290137"><ele>324.6</ele><time>2026-05-02T08:58:56Z</time></trkpt><trkpt lat="50.219252203616755" lon="16.23181097982346"><ele>324.8</ele><time>2026-05-02T08:58:57Z</time></trkpt><trkpt lat="50.219357588016884" lon="16.231792341132678"><ele>325.0</ele><time>2026-05-02T08:58:58Z</time></trkpt><trkpt lat="50.219466851137696" lon="16.231760294463847"><ele>325.0</ele><time>2026-05-02T08:58:59Z</time></trkpt><trkpt lat="50.21958246112214" lon="16.23172652283066"><ele>325.0</ele><time>2026-05-02T08:59:00Z</time></trkpt><trkpt lat="50.21970847622115" lon="16.231689813989856"><ele>325.0</ele><time>2026-05-02T08:59:01Z</time></trkpt><trkpt lat="50.21982996364343" lon="16.231655557956774"><ele>325.0</ele><time>2026-05-02T08:59:02Z</time></trkpt><trkpt lat="50.219948605892554" lon="16.231621689421075"><ele>325.0</ele><time>2026-05-02T08:59:03Z</time></trkpt><trkpt lat="50.22006581964579" lon="16.23158830081702"><ele>325.0</ele><time>2026-05-02T08:59:04Z</time></trkpt><trkpt lat="50.220173856048696" lon="16.23155752640189"><ele>325.0</ele><time>2026-05-02T08:59:05Z</time></trkpt><trkpt lat="50.22028098473929" lon="16.2315270105526"><ele>325.0</ele><time>2026-05-02T08:59:06Z</time></trkpt><trkpt lat="50.22039001385981" lon="16.23149595335809"><ele>325.0</ele><time>2026-05-02T08:59:07Z</time></trkpt><trkpt lat="50.22050528043726" lon="16.231462800205883"><ele>325.25</ele><time>2026-05-02T08:59:08Z</time></trkpt><trkpt lat="50.22061751313195" lon="16.23143030366523"><ele>325.5</ele><time>2026-05-02T08:59:09Z</time></trkpt><trkpt lat="50.22073070520648" lon="16.231397195526892"><ele>325.75</ele><time>2026-05-02T08:59:10Z</time></trkpt><trkpt lat="50.220845988128495" lon="16.231363475825628"><ele>326.0</ele><time>2026-05-02T08:59:11Z</time></trkpt><trkpt lat="50.22096160959824" lon="16.231329657101064"><ele>326.5</ele><time>2026-05-02T08:59:12Z</time></trkpt><trkpt lat="50.22107719137538" lon="16.231295822574502"><ele>327.0</ele><time>2026-05-02T08:59:13Z</time></trkpt><trkpt lat="50.2211920512825" lon="16.231262128879116"><ele>327.5</ele><time>2026-05-02T08:59:14Z</time></trkpt><trkpt lat="50.22129618961721" lon="16.231231580311174"><ele>328.0</ele><time>2026-05-02T08:59:15Z</time></trkpt><trkpt lat="50.22140736968434" lon="16.231198966084303"><ele>328.25</ele><time>2026-05-02T08:59:16Z</time></trkpt><trkpt lat="50.22151506865769" lon="16.23112039205348"><ele>328.5</ele><time>2026-05-02T08:59:17Z</time></trkpt><trkpt lat="50.221634385786224" lon="16.23108993895521"><ele>328.75</ele><time>2026-05-02T08:59:18Z</time></trkpt><trkpt lat="50.22175101720695" lon="16.231057461808938"><ele>329.0</ele><time>2026-05-02T08:59:19Z</time></trkpt><trkpt lat="50.221869311286135" lon="16.231019900548084"><ele>329.0</ele><time>2026-05-02T08:59:20Z</time></trkpt><trkpt lat="50.221986156409876" lon="16.230984756061492"><ele>329.0</ele><time>2026-05-02T08:59:21Z</time></trkpt><trkpt lat="50.22210173880869" lon="16.230997457603028"><ele>329.0</ele><time>2026-05-02T08:59:22Z</time></trkpt><trkpt lat="50.222212739863124" lon="16.230965132056554"><ele>329.0</ele><time>2026-05-02T08:59:23Z</time></trkpt><trkpt lat="50.222321822726485" lon="16.23093331462311"><ele>329.4</ele><time>2026-05-02T08:59:24Z</time></trkpt><trkpt lat="50.222426670734535" lon="16.230902732390366"><ele>329.79999999999995</ele><time>2026-05-02T08:59:25Z</time></trkpt><trkpt lat="50.222528906862706" lon="16.23087249718685"><ele>330.20000000000005</ele><time>2026-05-02T08:59:26Z</time></trkpt><trkpt lat="50.22263102586648" lon="16.2308423615189"><ele>330.6</ele><time>2026-05-02T08:59:27Z</time></trkpt><trkpt lat="50.22273121124062" lon="16.230812796472893"><ele>331.0</ele><time>2026-05-02T08:59:28Z</time></trkpt><trkpt lat="50.22282571563858" lon="16.2307848758305"><ele>331.0</ele><time>2026-05-02T08:59:29Z</time></trkpt><trkpt lat="50.2229322588517" lon="16.230753339966217"><ele>331.0</ele><time>2026-05-02T08:59:30Z</time></trkpt><trkpt lat="50.22304079871791" lon="16.230721213110947"><ele>331.0</ele><time>2026-05-02T08:59:31Z</time></trkpt><trkpt lat="50.22314296186698" lon="16.23069097364755"><ele>331.0</ele><time>2026-05-02T08:59:32Z</time></trkpt><trkpt lat="50.22324566849512" lon="16.2306605734256"><ele>331.0</ele><time>2026-05-02T08:59:33Z</time></trkpt><trkpt lat="50.22334801791448" lon="16.230630278888853"><ele>330.8</ele><time>2026-05-02T08:59:34Z</time></trkpt><trkpt lat="50.22345253289403" lon="16.230599308864498"><ele>330.6</ele><time>2026-05-02T08:59:35Z</time></trkpt><trkpt lat="50.223558961476556" lon="16.230567616795604"><ele>330.4</ele><time>2026-05-02T08:59:36Z</time></trkpt><trkpt lat="50.22366949415773" lon="16.23053470524686"><ele>330.2</ele><time>2026-05-02T08:59:37Z</time></trkpt><trkpt lat="50.223784990506694" lon="16.230497756120425"><ele>330.0</ele><time>2026-05-02T08:59:38Z</time></trkpt><trkpt lat="50.22390066070687" lon="16.230461417357084"><ele>329.75</ele><time>2026-05-02T08:59:39Z</time></trkpt><trkpt lat="50.22401777294671" lon="16.230424210715324"><ele>329.5</ele><time>2026-05-02T08:59:40Z</time></trkpt><trkpt lat="50.224136693103446" lon="16.23038605749391"><ele>329.25</ele><time>2026-05-02T08:59:41Z</time></trkpt><trkpt lat="50.22425375448876" lon="16.230348588542068"><ele>329.0</ele><time>2026-05-02T08:59:42Z</time></trkpt><trkpt lat="50.22436640096025" lon="16.230312532711718"><ele>329.0</ele><time>2026-05-02T08:59:43Z</time></trkpt><trkpt lat="50.22447777147129" lon="16.23027626791937"><ele>329.0</ele><time>2026-05-02T08:59:44Z</time></trkpt><trkpt lat="50.22459124355325" lon="16.23023815603451"><ele>329.0</ele><time>2026-05-02T08:59:45Z</time></trkpt><trkpt lat="50.224699886757826" lon="16.230201498670993"><ele>329.0</ele><time>2026-05-02T08:59:46Z</time></trkpt><trkpt lat="50.224805585090415" lon="16.230165834934308"><ele>329.0</ele><time>2026-05-02T08:59:47Z</time></trkpt><trkpt lat="50.22490952450001" lon="16.230130764681316"><ele>329.0</ele><time>2026-05-02T08:59:48Z</time></trkpt><trkpt lat="50.22501175182946" lon="16.230096360004072"><ele>329.0</ele><time>2026-05-02T08:59:49Z</time></trkpt><trkpt lat="50.22512070443032" lon="16.23006033683751"><ele>329.0</ele><time>2026-05-02T08:59:50Z</time></trkpt><trkpt lat="50.225229703531944" lon="16.23002429829793"><ele>329.0</ele><time>2026-05-02T08:59:51Z</time></trkpt><trkpt lat="50.22532840073516" lon="16.22999172620092"><ele>329.0</ele><time>2026-05-02T08:59:52Z</time></trkpt><trkpt lat="50.22542533946176" lon="16.229959849387583"><ele>329.0</ele><time>2026-05-02T08:59:53Z</time></trkpt><trkpt lat="50.22551337750736" lon="16.229886289801424"><ele>329.0</ele><time>2026-05-02T08:59:54Z</time></trkpt><trkpt lat="50.22560099694527" lon="16.229857715723927"><ele>329.0</ele><time>2026-05-02T08:59:55Z</time></trkpt><trkpt lat="50.22569112074925" lon="16.229825968252314"><ele>329.0</ele><time>2026-05-02T08:59:56Z</time></trkpt><trkpt lat="50.225785952672005" lon="16.22979101196498"><ele>329.0</ele><time>2026-05-02T08:59:57Z</time></trkpt><trkpt lat="50.22589023425552" lon="16.22979843152419"><ele>329.4</ele><time>2026-05-02T08:59:58Z</time></trkpt><trkpt lat="50.225995248283674" lon="16.229763176692646"><ele>329.79999999999995</ele><time>2026-05-02T08:59:59Z</time></trkpt><trkpt lat="50.22610123401505" lon="16.229731290828724"><ele>330.20000000000005</ele><time>2026-05-02T09:00:00Z</time></trkpt><trkpt lat="50.22620910705739" lon="16.229706483733995"><ele>330.6</ele><time>2026-05-02T09:00:01Z</time></trkpt><trkpt lat="50.22631352409217" lon="16.229695535766247"><ele>331.0</ele><time>2026-05-02T09:00:02Z</time></trkpt><trkpt lat="50.22642394497057" lon="16.229693370788926"><ele>329.25</ele><time>2026-05-02T09:00:03Z</time></trkpt><trkpt lat="50.22654433903265" lon="16.229682624071458"><ele>327.5</ele><time>2026-05-02T09:00:04Z</time></trkpt><trkpt lat="50.226661314012276" lon="16.229730660501517"><ele>325.75</ele><time>2026-05-02T09:00:05Z</time></trkpt><trkpt lat="50.2267824154221" lon="16.229735147815408"><ele>324.0</ele><time>2026-05-02T09:00:06Z</time></trkpt><trkpt lat="50.22689347175534" lon="16.229783213991524"><ele>323.5</ele><time>2026-05-02T09:00:07Z</time></trkpt><trkpt lat="50.22700677082767" lon="16.229833132487226"><ele>323.0</ele><time>2026-05-02T09:00:08Z</time></trkpt><trkpt lat="50.227118430413924" lon="16.229881101564988"><ele>322.5</ele><time>2026-05-02T09:00:09Z</time></trkpt><trkpt lat="50.227228494205555" lon="16.229926323635446"><ele>322.0</ele><time>2026-05-02T09:00:10Z</time></trkpt><trkpt lat="50.227333913618054" lon="16.229999289245956"><ele>321.75</ele><time>2026-05-02T09:00:11Z</time></trkpt><trkpt lat="50.22744645201668" lon="16.23004213092565"><ele>321.5</ele><time>2026-05-02T09:00:12Z</time></trkpt><trkpt lat="50.227564253667964" lon="16.230059466048914"><ele>321.25</ele><time>2026-05-02T09:00:13Z</time></trkpt><trkpt lat="50.22767911447732" lon="16.230109702704258"><ele>321.0</ele><time>2026-05-02T09:00:14Z</time></trkpt><trkpt lat="50.227797658662176" lon="16.230129871907092"><ele>321.0</ele><time>2026-05-02T09:00:15Z</time></trkpt><trkpt lat="50.22791799670174" lon="16.23014528723687"><ele>321.0</ele><time>2026-05-02T09:00:16Z</time></trkpt><trkpt lat="50.22803849451284" lon="16.230156300154096"><ele>321.0</ele><time>2026-05-02T09:00:17Z</time></trkpt><trkpt lat="50.228160052948695" lon="16.230169600750035"><ele>321.0</ele><time>2026-05-02T09:00:18Z</time></trkpt><trkpt lat="50.22828240352311" lon="16.23018159590466"><ele>320.5</ele><time>2026-05-02T09:00:19Z</time></trkpt><trkpt lat="50.22840617416743" lon="16.230194112316607"><ele>320.0</ele><time>2026-05-02T09:00:20Z</time></trkpt><trkpt lat="50.22853136654696" lon="16.230207092647102"><ele>319.5</ele><time>2026-05-02T09:00:21Z</time></trkpt><trkpt lat="50.228659017018344" lon="16.230220325117234"><ele>319.0</ele><time>2026-05-02T09:00:22Z</time></trkpt><trkpt lat="50.22878960558541" lon="16.230233219982086"><ele>319.0</ele><time>2026-05-02T09:00:23Z</time></trkpt><trkpt lat="50.22891681658906" lon="16.230245121543277"><ele>319.0</ele><time>2026-05-02T09:00:24Z</time></trkpt><trkpt lat="50.22905487643256" lon="16.230258321704955"><ele>319.0</ele><time>2026-05-02T09:00:25Z</time></trkpt><trkpt lat="50.22920997380041" lon="16.230273349192547"><ele>319.0</ele><time>2026-05-02T09:00:26Z</time></trkpt><trkpt lat="50.229355651267646" lon="16.230287463980588"><ele>319.0</ele><time>2026-05-02T09:00:27Z</time></trkpt><trkpt lat="50.22950309697786" lon="16.23030115179229"><ele>319.0</ele><time>2026-05-02T09:00:28Z</time></trkpt><trkpt lat="50.229651444090834" lon="16.230314993021047"><ele>319.0</ele><time>2026-05-02T09:00:29Z</time></trkpt><trkpt lat="50.22979849000666" lon="16.23032882457041"><ele>319.0</ele><time>2026-05-02T09:00:30Z</time></trkpt><trkpt lat="50.22994749778426" lon="16.23034270318666"><ele>319.0</ele><time>2026-05-02T09:00:31Z</time></trkpt><trkpt lat="50.230097582222605" lon="16.230355430502307"><ele>319.0</ele><time>2026-05-02T09:00:32Z</time></trkpt><trkpt lat="50.230248556276855" lon="16.230367884890022"><ele>319.0</ele><time>2026-05-02T09:00:33Z</time></trkpt><trkpt lat="50.23040055089821" lon="16.23038256239602"><ele>319.0</ele><time>2026-05-02T09:00:34Z</time></trkpt><trkpt lat="50.23055647964194" lon="16.23039761874571"><ele>319.0</ele><time>2026-05-02T09:00:35Z</time></trkpt><trkpt lat="50.23071110927057" lon="16.23041254965542"><ele>319.0</ele><time>2026-05-02T09:00:36Z</time></trkpt><trkpt lat="50.23086380787438" lon="16.230427294106562"><ele>319.0</ele><time>2026-05-02T09:00:37Z</time></trkpt><trkpt lat="50.23101407328995" lon="16.230440892023406"><ele>319.0</ele><time>2026-05-02T09:00:38Z</time></trkpt><trkpt lat="50.23116548703961" lon="16.23045408284024"><ele>319.0</ele><time>2026-05-02T09:00:39Z</time></trkpt><trkpt lat="50.23131115462388" lon="16.23046677306547"><ele>319.0</ele><time>2026-05-02T09:00:40Z</time></trkpt><trkpt lat="50.23145744929651" lon="16.23048159306782"><ele>319.75</ele><time>2026-05-02T09:00:41Z</time></trkpt><trkpt lat="50.23160280053242" lon="16.230494352717237"><ele>320.5</ele><time>2026-05-02T09:00:42Z</time></trkpt><trkpt lat="50.231747153424756" lon="16.23050606532046"><ele>321.25</ele><time>2026-05-02T09:00:43Z</time></trkpt><trkpt lat="50.231889848131004" lon="16.230519303206748"><ele>322.0</ele><time>2026-05-02T09:00:44Z</time></trkpt><trkpt lat="50.23203305661265" lon="16.23053373315861"><ele>322.0</ele><time>2026-05-02T09:00:45Z</time></trkpt><trkpt lat="50.23216725620727" lon="16.23054330075738"><ele>322.0</ele><time>2026-05-02T09:00:46Z</time></trkpt><trkpt lat="50.23229028911635" lon="16.230531427125275"><ele>322.0</ele><time>2026-05-02T09:00:47Z</time></trkpt><trkpt lat="50.232421958951974" lon="16.230527592551304"><ele>322.0</ele><time>2026-05-02T09:00:48Z</time></trkpt><trkpt lat="50.23253867858991" lon="16.230483076540626"><ele>322.5</ele><time>2026-05-02T09:00:49Z</time></trkpt><trkpt lat="50.232671119446685" lon="16.230463712437217"><ele>323.0</ele><time>2026-05-02T09:00:50Z</time></trkpt><trkpt lat="50.232808740243364" lon="16.23039657136965"><ele>323.5</ele><time>2026-05-02T09:00:51Z</time></trkpt><trkpt lat="50.23295218678704" lon="16.23031806676798"><ele>324.0</ele><time>2026-05-02T09:00:52Z</time></trkpt><trkpt lat="50.23308672363546" lon="16.23021826652424"><ele>325.0</ele><time>2026-05-02T09:00:53Z</time></trkpt><trkpt lat="50.23322601725632" lon="16.230135159308528"><ele>326.0</ele><time>2026-05-02T09:00:54Z</time></trkpt><trkpt lat="50.233369154773996" lon="16.23007702441058"><ele>327.0</ele><time>2026-05-02T09:00:55Z</time></trkpt><trkpt lat="50.23350733038961" lon="16.22999647024638"><ele>328.0</ele><time>2026-05-02T09:00:56Z</time></trkpt><trkpt lat="50.23364645893342" lon="16.229915143961275"><ele>328.0</ele><time>2026-05-02T09:00:57Z</time></trkpt><trkpt lat="50.23378138879481" lon="16.229810871494884"><ele>328.0</ele><time>2026-05-02T09:00:58Z</time></trkpt><trkpt lat="50.233923831972724" lon="16.229731021000944"><ele>328.0</ele><time>2026-05-02T09:00:59Z</time></trkpt><trkpt lat="50.23407108455228" lon="16.229664894286017"><ele>329.3333333333333</ele><time>2026-05-02T09:01:00Z</time></trkpt><trkpt lat="50.23420972146468" lon="16.22955640397636"><ele>330.6666666666667</ele><time>2026-05-02T09:01:01Z</time></trkpt><trkpt lat="50.23435930015865" lon="16.229495198221926"><ele>332.0</ele><time>2026-05-02T09:01:02Z</time></trkpt><trkpt lat="50.234504267336796" lon="16.229386424710498"><ele>332.0</ele><time>2026-05-02T09:01:03Z</time></trkpt><trkpt lat="50.23465331976351" lon="16.2293041124703"><ele>332.0</ele><time>2026-05-02T09:01:04Z</time></trkpt><trkpt lat="50.23481056300949" lon="16.229218093630983"><ele>332.0</ele><time>2026-05-02T09:01:05Z</time></trkpt><trkpt lat="50.23498073010625" lon="16.229119869378575"><ele>332.6666666666667</ele><time>2026-05-02T09:01:06Z</time></trkpt><trkpt lat="50.23512643740167" lon="16.229030813338966"><ele>333.3333333333333</ele><time>2026-05-02T09:01:07Z</time></trkpt><trkpt lat="50.23526577994741" lon="16.228943740283242"><ele>334.0</ele><time>2026-05-02T09:01:08Z</time></trkpt><trkpt lat="50.23541522526564" lon="16.228879930142984"><ele>334.0</ele><time>2026-05-02T09:01:09Z</time></trkpt><trkpt lat="50.23556006455603" lon="16.228795075006524"><ele>334.0</ele><time>2026-05-02T09:01:10Z</time></trkpt><trkpt lat="50.23568530127218" lon="16.228698930992884"><ele>334.0</ele><time>2026-05-02T09:01:11Z</time></trkpt><trkpt lat="50.235802485066145" lon="16.228632283792912"><ele>334.0</ele><time>2026-05-02T09:01:12Z</time></trkpt><trkpt lat="50.2359102882672" lon="16.22856822137753"><ele>334.79999999999995</ele><time>2026-05-02T09:01:13Z</time></trkpt><trkpt lat="50.23601204144555" lon="16.228516787599197"><ele>335.59999999999997</ele><time>2026-05-02T09:01:14Z</time></trkpt><trkpt lat="50.23610687781818" lon="16.22846194357173"><ele>336.4</ele><time>2026-05-02T09:01:15Z</time></trkpt><trkpt lat="50.23619552376812" lon="16.228410514808267"><ele>337.2</ele><time>2026-05-02T09:01:16Z</time></trkpt><trkpt lat="50.23627281343175" lon="16.228359970397605"><ele>338.0</ele><time>2026-05-02T09:01:17Z</time></trkpt><trkpt lat="50.23633924560046" lon="16.228320701165075"><ele>338.0</ele><time>2026-05-02T09:01:18Z</time></trkpt><trkpt lat="50.23639869275077" lon="16.22828716946893"><ele>338.0</ele><time>2026-05-02T09:01:19Z</time></trkpt><trkpt lat="50.23650899375428" lon="16.22823695037778"><ele>338.0</ele><time>2026-05-02T09:01:21Z</time></trkpt><trkpt lat="50.23658639499704" lon="16.228188500992072"><ele>338.0</ele><time>2026-05-02T09:01:22Z</time></trkpt><trkpt lat="50.236693206573534" lon="16.228137979361843"><ele>338.0</ele><time>2026-05-02T09:01:23Z</time></trkpt><trkpt lat="50.23679991059138" lon="16.228074704613665"><ele>338.25</ele><time>2026-05-02T09:01:24Z</time></trkpt><trkpt lat="50.23690819773964" lon="16.228009647222887"><ele>338.5</ele><time>2026-05-02T09:01:25Z</time></trkpt><trkpt lat="50.23703628712336" lon="16.227928044542892"><ele>338.75</ele><time>2026-05-02T09:01:26Z</time></trkpt><trkpt lat="50.23720785476379" lon="16.227808165108232"><ele>339.0</ele><time>2026-05-02T09:01:27Z</time></trkpt><trkpt lat="50.237384200406304" lon="16.227634354644188"><ele>339.3333333333333</ele><time>2026-05-02T09:01:28Z</time></trkpt><trkpt lat="50.2375414179818" lon="16.227485192459675"><ele>339.66666666666663</ele><time>2026-05-02T09:01:29Z</time></trkpt><trkpt lat="50.237682440234174" lon="16.227284529363146"><ele>340.0</ele><time>2026-05-02T09:01:30Z</time></trkpt><trkpt lat="50.23780297775684" lon="16.227061095655586"><ele>340.0</ele><time>2026-05-02T09:01:31Z</time></trkpt><trkpt lat="50.23791306358936" lon="16.22682377038639"><ele>340.0</ele><time>2026-05-02T09:01:32Z</time></trkpt><trkpt lat="50.23801391834344" lon="16.226609569566243"><ele>340.0</ele><time>2026-05-02T09:01:33Z</time></trkpt><trkpt lat="50.238127759254795" lon="16.226431634174055"><ele>340.25</ele><time>2026-05-02T09:01:34Z</time></trkpt><trkpt lat="50.23822963578206" lon="16.226238817873483"><ele>340.5</ele><time>2026-05-02T09:01:35Z</time></trkpt><trkpt lat="50.238326953451555" lon="16.226072443654434"><ele>340.75</ele><time>2026-05-02T09:01:36Z</time></trkpt><trkpt lat="50.23841488876905" lon="16.22590923786332"><ele>341.0</ele><time>2026-05-02T09:01:37Z</time></trkpt><trkpt lat="50.23853863996682" lon="16.225805122173693"><ele>341.0</ele><time>2026-05-02T09:01:38Z</time></trkpt><trkpt lat="50.23867891279572" lon="16.22573084509204"><ele>341.0</ele><time>2026-05-02T09:01:39Z</time></trkpt><trkpt lat="50.23884219639816" lon="16.225651749855725"><ele>341.0</ele><time>2026-05-02T09:01:40Z</time></trkpt><trkpt lat="50.2390527848063" lon="16.225618245242"><ele>340.0</ele><time>2026-05-02T09:01:41Z</time></trkpt><trkpt lat="50.23925194368195" lon="16.225517080406295"><ele>339.0</ele><time>2026-05-02T09:01:42Z</time></trkpt><trkpt lat="50.239450632323525" lon="16.22541621388072"><ele>338.0</ele><time>2026-05-02T09:01:43Z</time></trkpt><trkpt lat="50.23963588202461" lon="16.225315374004694"><ele>339.33333333333337</ele><time>2026-05-02T09:01:44Z</time></trkpt><trkpt lat="50.23980331867831" lon="16.225229147399602"><ele>340.6666666666667</ele><time>2026-05-02T09:01:45Z</time></trkpt><trkpt lat="50.239972822915576" lon="16.225139492825612"><ele>342.0</ele><time>2026-05-02T09:01:46Z</time></trkpt><trkpt lat="50.24015479528682" lon="16.225023320312708"><ele>342.0</ele><time>2026-05-02T09:01:47Z</time></trkpt><trkpt lat="50.24037393462248" lon="16.224918244291544"><ele>342.0</ele><time>2026-05-02T09:01:48Z</time></trkpt><trkpt lat="50.240605606778274" lon="16.224777613581256"><ele>339.5</ele><time>2026-05-02T09:01:49Z</time></trkpt><trkpt lat="50.2408816070458" lon="16.224597772434496"><ele>337.0</ele><time>2026-05-02T09:01:50Z</time></trkpt><trkpt lat="50.24117128683293" lon="16.224362276475162"><ele>337.0</ele><time>2026-05-02T09:01:51Z</time></trkpt><trkpt lat="50.24146374986525" lon="16.224142638253124"><ele>337.0</ele><time>2026-05-02T09:01:52Z</time></trkpt><trkpt lat="50.241710102736064" lon="16.22396599393944"><ele>333.5</ele><time>2026-05-02T09:01:53Z</time></trkpt><trkpt lat="50.24193802252235" lon="16.223792414578874"><ele>330.0</ele><time>2026-05-02T09:01:54Z</time></trkpt><trkpt lat="50.24215249463631" lon="16.223633311353353"><ele>332.0</ele><time>2026-05-02T09:01:55Z</time></trkpt><trkpt lat="50.24235168389151" lon="16.223494629988963"><ele>334.0</ele><time>2026-05-02T09:01:56Z</time></trkpt><trkpt lat="50.24254093017165" lon="16.223373023912792"><ele>336.0</ele><time>2026-05-02T09:01:57Z</time></trkpt><trkpt lat="50.24274546940293" lon="16.223221832826937"><ele>335.5</ele><time>2026-05-02T09:01:58Z</time></trkpt><trkpt lat="50.242964746745685" lon="16.223058628921358"><ele>335.0</ele><time>2026-05-02T09:01:59Z</time></trkpt><trkpt lat="50.24319264715322" lon="16.222863545454096"><ele>335.0</ele><time>2026-05-02T09:02:00Z</time></trkpt><trkpt lat="50.243439843629496" lon="16.222680016951415"><ele>335.0</ele><time>2026-05-02T09:02:01Z</time></trkpt><trkpt lat="50.243695195288296" lon="16.22249167617748"><ele>333.0</ele><time>2026-05-02T09:02:02Z</time></trkpt><trkpt lat="50.243966612789535" lon="16.222291656131116"><ele>331.0</ele><time>2026-05-02T09:02:03Z</time></trkpt><trkpt lat="50.244224861382165" lon="16.2221013674969"><ele>331.0</ele><time>2026-05-02T09:02:04Z</time></trkpt><trkpt lat="50.24447757117677" lon="16.221941291846203"><ele>331.0</ele><time>2026-05-02T09:02:05Z</time></trkpt><trkpt lat="50.24472989137682" lon="16.221758198371763"><ele>332.5</ele><time>2026-05-02T09:02:06Z</time></trkpt><trkpt lat="50.244989326863994" lon="16.221577072259347"><ele>334.0</ele><time>2026-05-02T09:02:07Z</time></trkpt><trkpt lat="50.245260827828375" lon="16.22140779321564"><ele>332.0</ele><time>2026-05-02T09:02:08Z</time></trkpt><trkpt lat="50.2455433266863" lon="16.221237405024073"><ele>330.0</ele><time>2026-05-02T09:02:09Z</time></trkpt><trkpt lat="50.245837665373394" lon="16.22106066125879"><ele>330.0</ele><time>2026-05-02T09:02:10Z</time></trkpt><trkpt lat="50.246135715002055" lon="16.220880733825805"><ele>330.0</ele><time>2026-05-02T09:02:11Z</time></trkpt><trkpt lat="50.24644157188463" lon="16.22069624833389"><ele>327.0</ele><time>2026-05-02T09:02:12Z</time></trkpt><trkpt lat="50.246765088765514" lon="16.22050170569616"><ele>324.0</ele><time>2026-05-02T09:02:13Z</time></trkpt><trkpt lat="50.247098782874275" lon="16.220277076819535"><ele>324.5</ele><time>2026-05-02T09:02:14Z</time></trkpt><trkpt lat="50.24745298313255" lon="16.22006314942051"><ele>325.0</ele><time>2026-05-02T09:02:15Z</time></trkpt><trkpt lat="50.24781885710247" lon="16.21984099536484"><ele>324.5</ele><time>2026-05-02T09:02:16Z</time></trkpt><trkpt lat="50.24818853034945" lon="16.219616399200557"><ele>324.0</ele><time>2026-05-02T09:02:17Z</time></trkpt><trkpt lat="50.24852627503842" lon="16.219412499440523"><ele>324.0</ele><time>2026-05-02T09:02:18Z</time></trkpt><trkpt lat="50.24883332959376" lon="16.219224169162217"><ele>324.0</ele><time>2026-05-02T09:02:19Z</time></trkpt><trkpt lat="50.249131297863585" lon="16.219041252191438"><ele>322.5</ele><time>2026-05-02T09:02:20Z</time></trkpt><trkpt lat="50.24942077124198" lon="16.218866035885146"><ele>321.0</ele><time>2026-05-02T09:02:21Z</time></trkpt><trkpt lat="50.24970522424908" lon="16.218695142307016"><ele>323.0</ele><time>2026-05-02T09:02:22Z</time></trkpt><trkpt lat="50.24999222534969" lon="16.21851988759296"><ele>325.0</ele><time>2026-05-02T09:02:23Z</time></trkpt><trkpt lat="50.25028090668225" lon="16.218347337496958"><ele>325.0</ele><time>2026-05-02T09:02:24Z</time></trkpt><trkpt lat="50.250573236235326" lon="16.218170285928036"><ele>325.0</ele><time>2026-05-02T09:02:25Z</time></trkpt><trkpt lat="50.250869624229125" lon="16.217994434229283"><ele>325.5</ele><time>2026-05-02T09:02:26Z</time></trkpt><trkpt lat="50.25116800884797" lon="16.217813918015924"><ele>326.0</ele><time>2026-05-02T09:02:27Z</time></trkpt><trkpt lat="50.25146831696007" lon="16.21763335864867"><ele>326.5</ele><time>2026-05-02T09:02:28Z</time></trkpt><trkpt lat="50.251773839371836" lon="16.21744603269456"><ele>327.0</ele><time>2026-05-02T09:02:29Z</time></trkpt><trkpt lat="50.252079603879906" lon="16.217257828964083"><ele>328.5</ele><time>2026-05-02T09:02:30Z</time></trkpt><trkpt lat="50.2523856538064" lon="16.217067887333357"><ele>330.0</ele><time>2026-05-02T09:02:31Z</time></trkpt><trkpt lat="50.25268562918039" lon="16.216886606527314"><ele>330.0</ele><time>2026-05-02T09:02:32Z</time></trkpt><trkpt lat="50.252974847009455" lon="16.216709826554712"><ele>330.0</ele><time>2026-05-02T09:02:33Z</time></trkpt><trkpt lat="50.253261264960116" lon="16.216533288583303"><ele>329.5</ele><time>2026-05-02T09:02:34Z</time></trkpt><trkpt lat="50.2535398973899" lon="16.216362140186614"><ele>329.0</ele><time>2026-05-02T09:02:35Z</time></trkpt><trkpt lat="50.25380951619491" lon="16.216197193313334"><ele>329.5</ele><time>2026-05-02T09:02:36Z</time></trkpt><trkpt lat="50.254080423034374" lon="16.21603394020933"><ele>330.0</ele><time>2026-05-02T09:02:37Z</time></trkpt><trkpt lat="50.254349564870985" lon="16.215870090544794"><ele>330.0</ele><time>2026-05-02T09:02:38Z</time></trkpt><trkpt lat="50.25461889149767" lon="16.21570271774661"><ele>330.0</ele><time>2026-05-02T09:02:39Z</time></trkpt><trkpt lat="50.254879580405174" lon="16.215538548318456"><ele>329.5</ele><time>2026-05-02T09:02:40Z</time></trkpt><trkpt lat="50.25512279095052" lon="16.215386807698057"><ele>329.0</ele><time>2026-05-02T09:02:41Z</time></trkpt><trkpt lat="50.255345690819865" lon="16.21524945260773"><ele>329.0</ele><time>2026-05-02T09:02:42Z</time></trkpt><trkpt lat="50.25556076260526" lon="16.215121376744037"><ele>329.0</ele><time>2026-05-02T09:02:43Z</time></trkpt><trkpt lat="50.25576776912052" lon="16.214994946971448"><ele>329.0</ele><time>2026-05-02T09:02:44Z</time></trkpt><trkpt lat="50.25597295926957" lon="16.21487086616949"><ele>329.0</ele><time>2026-05-02T09:02:45Z</time></trkpt><trkpt lat="50.25617566841876" lon="16.214743507597614"><ele>329.0</ele><time>2026-05-02T09:02:46Z</time></trkpt><trkpt lat="50.256366963752136" lon="16.214621095046326"><ele>328.6666666666667</ele><time>2026-05-02T09:02:47Z</time></trkpt><trkpt lat="50.25655195399692" lon="16.214501861104655"><ele>328.3333333333333</ele><time>2026-05-02T09:02:48Z</time></trkpt><trkpt lat="50.25672598703709" lon="16.21438485693041"><ele>328.0</ele><time>2026-05-02T09:02:49Z</time></trkpt><trkpt lat="50.25689382309861" lon="16.214262151744734"><ele>328.0</ele><time>2026-05-02T09:02:50Z</time></trkpt><trkpt lat="50.25704932002569" lon="16.2141152192883"><ele>328.0</ele><time>2026-05-02T09:02:51Z</time></trkpt><trkpt lat="50.25719847051689" lon="16.213949787140734"><ele>328.0</ele><time>2026-05-02T09:02:52Z</time></trkpt><trkpt lat="50.25733653764519" lon="16.213761989214216"><ele>326.66666666666663</ele><time>2026-05-02T09:02:53Z</time></trkpt><trkpt lat="50.25747919998176" lon="16.213562451091533"><ele>325.3333333333333</ele><time>2026-05-02T09:02:54Z</time></trkpt><trkpt lat="50.25761774060956" lon="16.21336542626773"><ele>324.0</ele><time>2026-05-02T09:02:55Z</time></trkpt><trkpt lat="50.257756311905226" lon="16.213161654294645"><ele>323.6666666666667</ele><time>2026-05-02T09:02:56Z</time></trkpt><trkpt lat="50.257894821257295" lon="16.212957419253996"><ele>323.33333333333337</ele><time>2026-05-02T09:02:57Z</time></trkpt><trkpt lat="50.25803151620449" lon="16.212758329192855"><ele>323.0</ele><time>2026-05-02T09:02:58Z</time></trkpt><trkpt lat="50.258162538121724" lon="16.212572123268238"><ele>322.6666666666667</ele><time>2026-05-02T09:02:59Z</time></trkpt><trkpt lat="50.2582844469962" lon="16.212391542331204"><ele>322.3333333333333</ele><time>2026-05-02T09:03:00Z</time></trkpt><trkpt lat="50.25840485228062" lon="16.212207333503343"><ele>322.0</ele><time>2026-05-02T09:03:01Z</time></trkpt><trkpt lat="50.25852199218544" lon="16.2120150720963"><ele>321.3333333333333</ele><time>2026-05-02T09:03:02Z</time></trkpt><trkpt lat="50.25863610122645" lon="16.21180579030984"><ele>320.6666666666667</ele><time>2026-05-02T09:03:03Z</time></trkpt><trkpt lat="50.25873545462246" lon="16.21156675759252"><ele>320.0</ele><time>2026-05-02T09:03:04Z</time></trkpt><trkpt lat="50.25882387123652" lon="16.211313849612228"><ele>320.0</ele><time>2026-05-02T09:03:05Z</time></trkpt><trkpt lat="50.258913741283195" lon="16.21105331110347"><ele>320.0</ele><time>2026-05-02T09:03:06Z</time></trkpt><trkpt lat="50.2590077282553" lon="16.21077928746179"><ele>320.0</ele><time>2026-05-02T09:03:07Z</time></trkpt><trkpt lat="50.2591088003624" lon="16.21048878819201"><ele>320.0</ele><time>2026-05-02T09:03:08Z</time></trkpt><trkpt lat="50.25920414008991" lon="16.210207742227713"><ele>320.0</ele><time>2026-05-02T09:03:09Z</time></trkpt><trkpt lat="50.259291722646836" lon="16.20993435654261"><ele>320.0</ele><time>2026-05-02T09:03:10Z</time></trkpt><trkpt lat="50.259382357311985" lon="16.209657316530333"><ele>319.0</ele><time>2026-05-02T09:03:11Z</time></trkpt><trkpt lat="50.259476977515675" lon="16.209380221681403"><ele>318.0</ele><time>2026-05-02T09:03:12Z</time></trkpt><trkpt lat="50.25957569432947" lon="16.209085215790683"><ele>317.0</ele><time>2026-05-02T09:03:13Z</time></trkpt><trkpt lat="50.259681045781086" lon="16.208764368882505"><ele>319.0</ele><time>2026-05-02T09:03:14Z</time></trkpt><trkpt lat="50.2597969064868" lon="16.208422152648996"><ele>321.0</ele><time>2026-05-02T09:03:15Z</time></trkpt><trkpt lat="50.25992012216697" lon="16.208056300716738"><ele>321.0</ele><time>2026-05-02T09:03:16Z</time></trkpt><trkpt lat="50.260055901157095" lon="16.207650916458082"><ele>321.0</ele><time>2026-05-02T09:03:17Z</time></trkpt><trkpt lat="50.26020300131139" lon="16.207205525963108"><ele>321.0</ele><time>2026-05-02T09:03:18Z</time></trkpt><trkpt lat="50.26035501167036" lon="16.20674516437722"><ele>321.0</ele><time>2026-05-02T09:03:19Z</time></trkpt><trkpt lat="50.26049839367099" lon="16.206314775394983"><ele>323.5</ele><time>2026-05-02T09:03:20Z</time></trkpt><trkpt lat="50.2606370701904" lon="16.20591441291164"><ele>326.0</ele><time>2026-05-02T09:03:21Z</time></trkpt><trkpt lat="50.26079482432515" lon="16.20552090824509"><ele>326.0</ele><time>2026-05-02T09:03:22Z</time></trkpt><trkpt lat="50.2609339297235" lon="16.20510387171623"><ele>326.0</ele><time>2026-05-02T09:03:23Z</time></trkpt><trkpt lat="50.261074005044975" lon="16.20468499301966"><ele>326.0</ele><time>2026-05-02T09:03:24Z</time></trkpt><trkpt lat="50.261212416036" lon="16.204272766593558"><ele>326.0</ele><time>2026-05-02T09:03:25Z</time></trkpt><trkpt lat="50.26135142536919" lon="16.203859583284842"><ele>327.5</ele><time>2026-05-02T09:03:26Z</time></trkpt><trkpt lat="50.261497959706276" lon="16.203424621950635"><ele>329.0</ele><time>2026-05-02T09:03:27Z</time></trkpt><trkpt lat="50.26165437977568" lon="16.20295402769171"><ele>329.0</ele><time>2026-05-02T09:03:28Z</time></trkpt><trkpt lat="50.261811488985614" lon="16.20247657228364"><ele>329.0</ele><time>2026-05-02T09:03:29Z</time></trkpt><trkpt lat="50.261953949522166" lon="16.202043454889502"><ele>328.0</ele><time>2026-05-02T09:03:30Z</time></trkpt><trkpt lat="50.262086044197304" lon="16.20164596844019"><ele>327.0</ele><time>2026-05-02T09:03:31Z</time></trkpt><trkpt lat="50.26222037078513" lon="16.20124176590212"><ele>327.0</ele><time>2026-05-02T09:03:32Z</time></trkpt><trkpt lat="50.26235263016833" lon="16.20084378381355"><ele>327.0</ele><time>2026-05-02T09:03:33Z</time></trkpt><trkpt lat="50.26247633423322" lon="16.200470568835474"><ele>327.5</ele><time>2026-05-02T09:03:34Z</time></trkpt><trkpt lat="50.26259858872324" lon="16.200107585362037"><ele>328.0</ele><time>2026-05-02T09:03:35Z</time></trkpt><trkpt lat="50.26272243602527" lon="16.19974169792846"><ele>328.5</ele><time>2026-05-02T09:03:36Z</time></trkpt><trkpt lat="50.26285887193342" lon="16.19938522846465"><ele>329.0</ele><time>2026-05-02T09:03:37Z</time></trkpt><trkpt lat="50.263009923490976" lon="16.199042560403324"><ele>330.0</ele><time>2026-05-02T09:03:38Z</time></trkpt><trkpt lat="50.26318012648716" lon="16.198725887374664"><ele>331.0</ele><time>2026-05-02T09:03:39Z</time></trkpt><trkpt lat="50.26336430811712" lon="16.19844906703033"><ele>331.0</ele><time>2026-05-02T09:03:40Z</time></trkpt><trkpt lat="50.26355689002065" lon="16.19821415122316"><ele>331.0</ele><time>2026-05-02T09:03:41Z</time></trkpt><trkpt lat="50.26376528690413" lon="16.198005097994418"><ele>329.5</ele><time>2026-05-02T09:03:42Z</time></trkpt><trkpt lat="50.26399059888862" lon="16.197820444128258"><ele>328.0</ele><time>2026-05-02T09:03:43Z</time></trkpt><trkpt lat="50.26424153159181" lon="16.19765812538187"><ele>328.0</ele><time>2026-05-02T09:03:44Z</time></trkpt><trkpt lat="50.26450819603814" lon="16.197518268939884"><ele>328.0</ele><time>2026-05-02T09:03:45Z</time></trkpt><trkpt lat="50.264756236206644" lon="16.197393098335233"><ele>328.0</ele><time>2026-05-02T09:03:46Z</time></trkpt><trkpt lat="50.26498327213463" lon="16.197280723150293"><ele>328.0</ele><time>2026-05-02T09:03:47Z</time></trkpt><trkpt lat="50.26519338438187" lon="16.197181149287594"><ele>328.0</ele><time>2026-05-02T09:03:48Z</time></trkpt><trkpt lat="50.26540562780919" lon="16.19707922184059"><ele>328.0</ele><time>2026-05-02T09:03:49Z</time></trkpt><trkpt lat="50.265619856286115" lon="16.196976047147302"><ele>328.0</ele><time>2026-05-02T09:03:50Z</time></trkpt><trkpt lat="50.265833288387405" lon="16.19687325626742"><ele>328.0</ele><time>2026-05-02T09:03:51Z</time></trkpt><trkpt lat="50.26604661504389" lon="16.19677137426553"><ele>328.0</ele><time>2026-05-02T09:03:52Z</time></trkpt><trkpt lat="50.2662574040382" lon="16.19666875880566"><ele>328.0</ele><time>2026-05-02T09:03:53Z</time></trkpt><trkpt lat="50.26646565245281" lon="16.196566072952336"><ele>328.3333333333333</ele><time>2026-05-02T09:03:54Z</time></trkpt><trkpt lat="50.26666991191582" lon="16.19646452743628"><ele>328.6666666666667</ele><time>2026-05-02T09:03:55Z</time></trkpt><trkpt lat="50.2668585315341" lon="16.196372282236347"><ele>329.0</ele><time>2026-05-02T09:03:56Z</time></trkpt><trkpt lat="50.267041397386286" lon="16.196282625934494"><ele>329.0</ele><time>2026-05-02T09:03:57Z</time></trkpt><trkpt lat="50.26721416898297" lon="16.196198449296375"><ele>329.0</ele><time>2026-05-02T09:03:58Z</time></trkpt><trkpt lat="50.26738150348569" lon="16.196116556447667"><ele>329.0</ele><time>2026-05-02T09:03:59Z</time></trkpt><trkpt lat="50.26754307789273" lon="16.196037756652302"><ele>327.25</ele><time>2026-05-02T09:04:00Z</time></trkpt><trkpt lat="50.26769102409369" lon="16.195965492661188"><ele>325.5</ele><time>2026-05-02T09:04:01Z</time></trkpt><trkpt lat="50.26782496605671" lon="16.19590058426115"><ele>323.75</ele><time>2026-05-02T09:04:02Z</time></trkpt><trkpt lat="50.26795008031036" lon="16.195839467001008"><ele>322.0</ele><time>2026-05-02T09:04:03Z</time></trkpt><trkpt lat="50.26806277779321" lon="16.195784415237437"><ele>320.6</ele><time>2026-05-02T09:04:04Z</time></trkpt><trkpt lat="50.268169066977656" lon="16.195732493852837"><ele>319.20000000000005</ele><time>2026-05-02T09:04:05Z</time></trkpt><trkpt lat="50.2682780064633" lon="16.19567953548434"><ele>317.8</ele><time>2026-05-02T09:04:06Z</time></trkpt><trkpt lat="50.268384077050115" lon="16.19562718477304"><ele>316.4</ele><time>2026-05-02T09:04:07Z</time></trkpt><trkpt lat="50.26849150027161" lon="16.19557464608352"><ele>315.0</ele><time>2026-05-02T09:04:08Z</time></trkpt><trkpt lat="50.268599268887236" lon="16.195522298372044"><ele>315.0</ele><time>2026-05-02T09:04:09Z</time></trkpt><trkpt lat="50.268712763984105" lon="16.19546716907621"><ele>315.0</ele><time>2026-05-02T09:04:10Z</time></trkpt><trkpt lat="50.268833462226" lon="16.195379115569583"><ele>315.0</ele><time>2026-05-02T09:04:11Z</time></trkpt><trkpt lat="50.268956587420604" lon="16.195342829008784"><ele>315.0</ele><time>2026-05-02T09:04:12Z</time></trkpt><trkpt lat="50.26906554384565" lon="16.195261199200157"><ele>313.75</ele><time>2026-05-02T09:04:13Z</time></trkpt><trkpt lat="50.269185826696976" lon="16.195225492806482"><ele>312.5</ele><time>2026-05-02T09:04:14Z</time></trkpt><trkpt lat="50.26929982055576" lon="16.19514675847504"><ele>311.25</ele><time>2026-05-02T09:04:15Z</time></trkpt><trkpt lat="50.26941519551426" lon="16.19508233819498"><ele>310.0</ele><time>2026-05-02T09:04:16Z</time></trkpt><trkpt lat="50.26953121690787" lon="16.19503462058557"><ele>310.0</ele><time>2026-05-02T09:04:17Z</time></trkpt><trkpt lat="50.2696482944745" lon="16.19498393336396"><ele>310.0</ele><time>2026-05-02T09:04:18Z</time></trkpt><trkpt lat="50.26976568415589" lon="16.194935325609993"><ele>310.0</ele><time>2026-05-02T09:04:19Z</time></trkpt><trkpt lat="50.26987666121179" lon="16.194854620524175"><ele>310.0</ele><time>2026-05-02T09:04:20Z</time></trkpt><trkpt lat="50.269999156690666" lon="16.19479457613402"><ele>309.0</ele><time>2026-05-02T09:04:21Z</time></trkpt><trkpt lat="50.270130145156415" lon="16.194760853761892"><ele>308.0</ele><time>2026-05-02T09:04:22Z</time></trkpt><trkpt lat="50.270259473947235" lon="16.19470599137996"><ele>307.0</ele><time>2026-05-02T09:04:23Z</time></trkpt><trkpt lat="50.2703892600298" lon="16.194654020152168"><ele>306.0</ele><time>2026-05-02T09:04:24Z</time></trkpt><trkpt lat="50.27052201211566" lon="16.194603156233093"><ele>308.5</ele><time>2026-05-02T09:04:25Z</time></trkpt><trkpt lat="50.27065065115628" lon="16.194558846912315"><ele>311.0</ele><time>2026-05-02T09:04:26Z</time></trkpt><trkpt lat="50.27077647303277" lon="16.19452578792985"><ele>313.5</ele><time>2026-05-02T09:04:27Z</time></trkpt><trkpt lat="50.27089821241025" lon="16.194502924497293"><ele>316.0</ele><time>2026-05-02T09:04:28Z</time></trkpt><trkpt lat="50.27101249612736" lon="16.194479450848455"><ele>316.0</ele><time>2026-05-02T09:04:29Z</time></trkpt><trkpt lat="50.27112381416768" lon="16.194456486917698"><ele>316.0</ele><time>2026-05-02T09:04:30Z</time></trkpt><trkpt lat="50.27123425225748" lon="16.19443370451493"><ele>316.0</ele><time>2026-05-02T09:04:31Z</time></trkpt><trkpt lat="50.271341175904574" lon="16.194414099440465"><ele>316.0</ele><time>2026-05-02T09:04:32Z</time></trkpt><trkpt lat="50.27145111186778" lon="16.19439479721266"><ele>316.0</ele><time>2026-05-02T09:04:33Z</time></trkpt><trkpt lat="50.27156184659929" lon="16.194375537256853"><ele>318.75</ele><time>2026-05-02T09:04:34Z</time></trkpt><trkpt lat="50.27167081296312" lon="16.194356584874658"><ele>321.5</ele><time>2026-05-02T09:04:35Z</time></trkpt><trkpt lat="50.271779466511376" lon="16.194334312319732"><ele>324.25</ele><time>2026-05-02T09:04:36Z</time></trkpt><trkpt lat="50.27189580509218" lon="16.194305958262216"><ele>327.0</ele><time>2026-05-02T09:04:37Z</time></trkpt><trkpt lat="50.27201573294278" lon="16.194275356981347"><ele>327.0</ele><time>2026-05-02T09:04:38Z</time></trkpt><trkpt lat="50.27213938469755" lon="16.19424281098552"><ele>327.0</ele><time>2026-05-02T09:04:39Z</time></trkpt><trkpt lat="50.27226878549975" lon="16.194202820152764"><ele>327.0</ele><time>2026-05-02T09:04:40Z</time></trkpt><trkpt lat="50.27240769660022" lon="16.194148713907374"><ele>327.0</ele><time>2026-05-02T09:04:41Z</time></trkpt><trkpt lat="50.27254391222978" lon="16.194073936911973"><ele>329.0</ele><time>2026-05-02T09:04:42Z</time></trkpt><trkpt lat="50.27266978593875" lon="16.19396683353676"><ele>331.0</ele><time>2026-05-02T09:04:43Z</time></trkpt><trkpt lat="50.27285859670778" lon="16.193893680316634"><ele>333.0</ele><time>2026-05-02T09:04:44Z</time></trkpt><trkpt lat="50.27305014779881" lon="16.193746295508475"><ele>334.0</ele><time>2026-05-02T09:04:45Z</time></trkpt><trkpt lat="50.273282402620914" lon="16.193558503486997"><ele>335.0</ele><time>2026-05-02T09:04:46Z</time></trkpt><trkpt lat="50.273538947400155" lon="16.193337515271967"><ele>333.5</ele><time>2026-05-02T09:04:47Z</time></trkpt><trkpt lat="50.27382571599477" lon="16.19310543325896"><ele>332.0</ele><time>2026-05-02T09:04:48Z</time></trkpt><trkpt lat="50.27412567885429" lon="16.19285019900459"><ele>332.0</ele><time>2026-05-02T09:04:49Z</time></trkpt><trkpt lat="50.274416292076246" lon="16.192605695313073"><ele>332.0</ele><time>2026-05-02T09:04:50Z</time></trkpt><trkpt lat="50.274677377569766" lon="16.192404179006754"><ele>330.5</ele><time>2026-05-02T09:04:51Z</time></trkpt><trkpt lat="50.27491899919873" lon="16.19220650215805"><ele>329.0</ele><time>2026-05-02T09:04:52Z</time></trkpt><trkpt lat="50.27513889197477" lon="16.192036853299516"><ele>329.0</ele><time>2026-05-02T09:04:53Z</time></trkpt><trkpt lat="50.275332663803724" lon="16.191874248845068"><ele>329.0</ele><time>2026-05-02T09:04:54Z</time></trkpt><trkpt lat="50.27551924104164" lon="16.191688834374794"><ele>329.0</ele><time>2026-05-02T09:04:55Z</time></trkpt><trkpt lat="50.275690143846475" lon="16.19147791142477"><ele>327.5</ele><time>2026-05-02T09:04:56Z</time></trkpt><trkpt lat="50.275854216471565" lon="16.1912373770341"><ele>326.0</ele><time>2026-05-02T09:04:57Z</time></trkpt><trkpt lat="50.276003525311694" lon="16.19097302020427"><ele>326.0</ele><time>2026-05-02T09:04:58Z</time></trkpt><trkpt lat="50.27615437375096" lon="16.19069190933558"><ele>326.0</ele><time>2026-05-02T09:04:59Z</time></trkpt><trkpt lat="50.27631767014127" lon="16.190362042267765"><ele>326.0</ele><time>2026-05-02T09:05:00Z</time></trkpt><trkpt lat="50.27649309718548" lon="16.189981481502066"><ele>326.0</ele><time>2026-05-02T09:05:01Z</time></trkpt><trkpt lat="50.27669464122712" lon="16.189581489677643"><ele>325.5</ele><time>2026-05-02T09:05:02Z</time></trkpt><trkpt lat="50.2769177839607" lon="16.189163397785574"><ele>325.0</ele><time>2026-05-02T09:05:03Z</time></trkpt><trkpt lat="50.2771594670807" lon="16.188719484995847"><ele>322.0</ele><time>2026-05-02T09:05:04Z</time></trkpt><trkpt lat="50.27740765951735" lon="16.18824671680555"><ele>319.0</ele><time>2026-05-02T09:05:05Z</time></trkpt><trkpt lat="50.27767550910431" lon="16.187726496169248"><ele>318.5</ele><time>2026-05-02T09:05:06Z</time></trkpt><trkpt lat="50.27792849093856" lon="16.187227801119448"><ele>318.0</ele><time>2026-05-02T09:05:07Z</time></trkpt><trkpt lat="50.27818197112803" lon="16.186726717190716"><ele>315.5</ele><time>2026-05-02T09:05:08Z</time></trkpt><trkpt lat="50.278417602130574" lon="16.186260920228516"><ele>313.0</ele><time>2026-05-02T09:05:09Z</time></trkpt><trkpt lat="50.27863347446832" lon="16.185841213206544"><ele>312.0</ele><time>2026-05-02T09:05:10Z</time></trkpt><trkpt lat="50.27884823219541" lon="16.185429337678116"><ele>311.0</ele><time>2026-05-02T09:05:11Z</time></trkpt><trkpt lat="50.27906159230323" lon="16.18501667836436"><ele>309.0</ele><time>2026-05-02T09:05:12Z</time></trkpt><trkpt lat="50.27927845529377" lon="16.184601678653475"><ele>307.0</ele><time>2026-05-02T09:05:13Z</time></trkpt><trkpt lat="50.27949373480572" lon="16.184189505705238"><ele>307.0</ele><time>2026-05-02T09:05:14Z</time></trkpt><trkpt lat="50.27971654819731" lon="16.183755391193067"><ele>307.0</ele><time>2026-05-02T09:05:15Z</time></trkpt><trkpt lat="50.27994478094693" lon="16.183311570037556"><ele>306.5</ele><time>2026-05-02T09:05:16Z</time></trkpt><trkpt lat="50.280154075433806" lon="16.182903662628398"><ele>306.0</ele><time>2026-05-02T09:05:17Z</time></trkpt><trkpt lat="50.280353698962465" lon="16.182510899009518"><ele>305.5</ele><time>2026-05-02T09:05:18Z</time></trkpt><trkpt lat="50.28055825518476" lon="16.182121134719807"><ele>305.0</ele><time>2026-05-02T09:05:19Z</time></trkpt><trkpt lat="50.28076424377595" lon="16.18172296681056"><ele>305.5</ele><time>2026-05-02T09:05:20Z</time></trkpt><trkpt lat="50.28096756262783" lon="16.18132478991028"><ele>306.0</ele><time>2026-05-02T09:05:21Z</time></trkpt><trkpt lat="50.28117121235579" lon="16.180932678813896"><ele>306.0</ele><time>2026-05-02T09:05:22Z</time></trkpt><trkpt lat="50.28137409365009" lon="16.18054254941443"><ele>306.0</ele><time>2026-05-02T09:05:23Z</time></trkpt><trkpt lat="50.28157438085136" lon="16.180153070936417"><ele>306.0</ele><time>2026-05-02T09:05:24Z</time></trkpt><trkpt lat="50.281773869583596" lon="16.179761743513275"><ele>306.0</ele><time>2026-05-02T09:05:25Z</time></trkpt><trkpt lat="50.28196883741687" lon="16.17938273073861"><ele>306.0</ele><time>2026-05-02T09:05:26Z</time></trkpt><trkpt lat="50.28215388555293" lon="16.179021925153418"><ele>306.0</ele><time>2026-05-02T09:05:27Z</time></trkpt><trkpt lat="50.28235165728431" lon="16.178630734158396"><ele>304.5</ele><time>2026-05-02T09:05:28Z</time></trkpt><trkpt lat="50.28256945483339" lon="16.17819874546854"><ele>303.0</ele><time>2026-05-02T09:05:29Z</time></trkpt><trkpt lat="50.28280317336739" lon="16.1777406892203"><ele>301.5</ele><time>2026-05-02T09:05:30Z</time></trkpt><trkpt lat="50.28305138819657" lon="16.177264917042137"><ele>300.0</ele><time>2026-05-02T09:05:31Z</time></trkpt><trkpt lat="50.28330395083013" lon="16.176786090297472"><ele>299.5</ele><time>2026-05-02T09:05:32Z</time></trkpt><trkpt lat="50.28352902059322" lon="16.176357255981863"><ele>299.0</ele><time>2026-05-02T09:05:33Z</time></trkpt><trkpt lat="50.28373433924702" lon="16.175960105938398"><ele>298.0</ele><time>2026-05-02T09:05:34Z</time></trkpt><trkpt lat="50.283937654851634" lon="16.175564835170015"><ele>297.0</ele><time>2026-05-02T09:05:35Z</time></trkpt><trkpt lat="50.28414017161855" lon="16.17516982939462"><ele>297.0</ele><time>2026-05-02T09:05:36Z</time></trkpt><trkpt lat="50.28433835017412" lon="16.17477943533609"><ele>297.0</ele><time>2026-05-02T09:05:37Z</time></trkpt><trkpt lat="50.284531048690994" lon="16.174406828972824"><ele>297.0</ele><time>2026-05-02T09:05:38Z</time></trkpt><trkpt lat="50.284728845794056" lon="16.174027794264696"><ele>297.0</ele><time>2026-05-02T09:05:39Z</time></trkpt><trkpt lat="50.28490854669309" lon="16.17368112362209"><ele>297.0</ele><time>2026-05-02T09:05:40Z</time></trkpt><trkpt lat="50.28509113387586" lon="16.17333551755792"><ele>297.0</ele><time>2026-05-02T09:05:41Z</time></trkpt><trkpt lat="50.28528156079173" lon="16.172998859355104"><ele>297.0</ele><time>2026-05-02T09:05:42Z</time></trkpt><trkpt lat="50.28548801758926" lon="16.172671720719247"><ele>297.0</ele><time>2026-05-02T09:05:43Z</time></trkpt><trkpt lat="50.285730630891905" lon="16.172355097292968"><ele>296.0</ele><time>2026-05-02T09:05:44Z</time></trkpt><trkpt lat="50.285990551074754" lon="16.172041840667383"><ele>295.0</ele><time>2026-05-02T09:05:45Z</time></trkpt><trkpt lat="50.28622837641768" lon="16.171772371734555"><ele>295.5</ele><time>2026-05-02T09:05:46Z</time></trkpt><trkpt lat="50.28644975140815" lon="16.17153316841668"><ele>296.0</ele><time>2026-05-02T09:05:47Z</time></trkpt><trkpt lat="50.2866742730322" lon="16.171305523674572"><ele>296.0</ele><time>2026-05-02T09:05:48Z</time></trkpt><trkpt lat="50.286915865398036" lon="16.171088049051942"><ele>296.0</ele><time>2026-05-02T09:05:49Z</time></trkpt><trkpt lat="50.287167292434184" lon="16.17088181064555"><ele>296.0</ele><time>2026-05-02T09:05:50Z</time></trkpt><trkpt lat="50.28741967124073" lon="16.170694359972437"><ele>296.0</ele><time>2026-05-02T09:05:51Z</time></trkpt><trkpt lat="50.28765448454788" lon="16.170531080110052"><ele>296.0</ele><time>2026-05-02T09:05:52Z</time></trkpt><trkpt lat="50.28786223802405" lon="16.17039527998558"><ele>296.0</ele><time>2026-05-02T09:05:53Z</time></trkpt><trkpt lat="50.28805897722912" lon="16.17027551822719"><ele>296.0</ele><time>2026-05-02T09:05:54Z</time></trkpt><trkpt lat="50.288243468630874" lon="16.170171091895405"><ele>296.0</ele><time>2026-05-02T09:05:55Z</time></trkpt><trkpt lat="50.28842090630156" lon="16.17008288284913"><ele>296.0</ele><time>2026-05-02T09:05:56Z</time></trkpt><trkpt lat="50.28858848079717" lon="16.170011894341265"><ele>296.0</ele><time>2026-05-02T09:05:57Z</time></trkpt><trkpt lat="50.28875830130009" lon="16.16993914151639"><ele>296.0</ele><time>2026-05-02T09:05:58Z</time></trkpt><trkpt lat="50.28893352494529" lon="16.16985822047513"><ele>296.0</ele><time>2026-05-02T09:05:59Z</time></trkpt><trkpt lat="50.28912358622629" lon="16.169783769606152"><ele>296.0</ele><time>2026-05-02T09:06:00Z</time></trkpt><trkpt lat="50.28935357853934" lon="16.16971273931668"><ele>296.0</ele><time>2026-05-02T09:06:01Z</time></trkpt><trkpt lat="50.28960970355238" lon="16.169638228646047"><ele>296.0</ele><time>2026-05-02T09:06:02Z</time></trkpt><trkpt lat="50.28989040015632" lon="16.16958038126737"><ele>297.5</ele><time>2026-05-02T09:06:03Z</time></trkpt><trkpt lat="50.29018254595435" lon="16.169547216228914"><ele>299.0</ele><time>2026-05-02T09:06:04Z</time></trkpt><trkpt lat="50.290469586688936" lon="16.16953586377084"><ele>301.0</ele><time>2026-05-02T09:06:05Z</time></trkpt><trkpt lat="50.290726567560085" lon="16.169526765137274"><ele>303.0</ele><time>2026-05-02T09:06:06Z</time></trkpt><trkpt lat="50.290963699951455" lon="16.16950539658557"><ele>303.0</ele><time>2026-05-02T09:06:07Z</time></trkpt><trkpt lat="50.29119576168473" lon="16.169483837157774"><ele>303.0</ele><time>2026-05-02T09:06:08Z</time></trkpt><trkpt lat="50.291422685215046" lon="16.169470941819373"><ele>303.0</ele><time>2026-05-02T09:06:09Z</time></trkpt><trkpt lat="50.291647276895446" lon="16.169453787937744"><ele>303.0</ele><time>2026-05-02T09:06:10Z</time></trkpt><trkpt lat="50.291872160009376" lon="16.16942872637596"><ele>303.0</ele><time>2026-05-02T09:06:11Z</time></trkpt><trkpt lat="50.29209351405647" lon="16.16939828077167"><ele>303.0</ele><time>2026-05-02T09:06:12Z</time></trkpt><trkpt lat="50.29231968036212" lon="16.169356398991805"><ele>304.0</ele><time>2026-05-02T09:06:13Z</time></trkpt><trkpt lat="50.29254335664183" lon="16.169301307838317"><ele>305.0</ele><time>2026-05-02T09:06:14Z</time></trkpt><trkpt lat="50.29277035793416" lon="16.169229025299995"><ele>305.0</ele><time>2026-05-02T09:06:15Z</time></trkpt><trkpt lat="50.29299876616902" lon="16.16915582496503"><ele>305.0</ele><time>2026-05-02T09:06:16Z</time></trkpt><trkpt lat="50.293232418140235" lon="16.169066350483476"><ele>305.5</ele><time>2026-05-02T09:06:17Z</time></trkpt><trkpt lat="50.29346903810962" lon="16.168966670283204"><ele>306.0</ele><time>2026-05-02T09:06:18Z</time></trkpt><trkpt lat="50.29369588321435" lon="16.16887125104669"><ele>306.0</ele><time>2026-05-02T09:06:19Z</time></trkpt><trkpt lat="50.29389887630829" lon="16.168781775900804"><ele>306.0</ele><time>2026-05-02T09:06:20Z</time></trkpt><trkpt lat="50.29408485408678" lon="16.16869130577631"><ele>306.0</ele><time>2026-05-02T09:06:21Z</time></trkpt><trkpt lat="50.29425349226285" lon="16.16860113856703"><ele>306.6666666666667</ele><time>2026-05-02T09:06:22Z</time></trkpt><trkpt lat="50.29440725973551" lon="16.168514489156724"><ele>307.33333333333337</ele><time>2026-05-02T09:06:23Z</time></trkpt><trkpt lat="50.29455753948118" lon="16.16842377958724"><ele>308.0</ele><time>2026-05-02T09:06:24Z</time></trkpt><trkpt lat="50.294706116174204" lon="16.16832950227213"><ele>308.0</ele><time>2026-05-02T09:06:25Z</time></trkpt><trkpt lat="50.29484266497164" lon="16.168235739798426"><ele>308.0</ele><time>2026-05-02T09:06:26Z</time></trkpt><trkpt lat="50.29495294035031" lon="16.16817120687378"><ele>308.0</ele><time>2026-05-02T09:06:27Z</time></trkpt><trkpt lat="50.29504315696299" lon="16.16812072502608"><ele>308.0</ele><time>2026-05-02T09:06:28Z</time></trkpt><trkpt lat="50.29512062914807" lon="16.168084838941454"><ele>308.0</ele><time>2026-05-02T09:06:29Z</time></trkpt><trkpt lat="50.29520298189769" lon="16.16807174163007"><ele>308.0</ele><time>2026-05-02T09:06:30Z</time></trkpt><trkpt lat="50.29528039713848" lon="16.168100160792914"><ele>308.0</ele><time>2026-05-02T09:06:31Z</time></trkpt><trkpt lat="50.295358350833204" lon="16.168080756466868"><ele>308.0</ele><time>2026-05-02T09:06:32Z</time></trkpt><trkpt lat="50.295430856041776" lon="16.167977556382592"><ele>308.0</ele><time>2026-05-02T09:06:33Z</time></trkpt><trkpt lat="50.29550748593277" lon="16.16783360481121"><ele>308.0</ele><time>2026-05-02T09:06:34Z</time></trkpt><trkpt lat="50.29563467451077" lon="16.16773314025673"><ele>307.6666666666667</ele><time>2026-05-02T09:06:35Z</time></trkpt><trkpt lat="50.295762395571955" lon="16.1675957213515"><ele>307.3333333333333</ele><time>2026-05-02T09:06:36Z</time></trkpt><trkpt lat="50.295909570752016" lon="16.16745797485031"><ele>307.0</ele><time>2026-05-02T09:06:37Z</time></trkpt><trkpt lat="50.296076189476665" lon="16.167275450414127"><ele>307.0</ele><time>2026-05-02T09:06:38Z</time></trkpt><trkpt lat="50.29626200593846" lon="16.16708083637064"><ele>307.0</ele><time>2026-05-02T09:06:39Z</time></trkpt><trkpt lat="50.29646163516741" lon="16.16686957236152"><ele>307.0</ele><time>2026-05-02T09:06:40Z</time></trkpt><trkpt lat="50.29666430295066" lon="16.166643396898547"><ele>307.0</ele><time>2026-05-02T09:06:41Z</time></trkpt><trkpt lat="50.29688553010735" lon="16.16642195242721"><ele>306.0</ele><time>2026-05-02T09:06:42Z</time></trkpt><trkpt lat="50.29708415424626" lon="16.16618371794549"><ele>305.0</ele><time>2026-05-02T09:06:43Z</time></trkpt><trkpt lat="50.297269540375204" lon="16.165920682742712"><ele>304.5</ele><time>2026-05-02T09:06:44Z</time></trkpt><trkpt lat="50.29746381121865" lon="16.16566912013507"><ele>304.0</ele><time>2026-05-02T09:06:45Z</time></trkpt><trkpt lat="50.29765197303728" lon="16.16541707348477"><ele>304.0</ele><time>2026-05-02T09:06:46Z</time></trkpt><trkpt lat="50.29783564636985" lon="16.165169184195268"><ele>304.0</ele><time>2026-05-02T09:06:47Z</time></trkpt><trkpt lat="50.29801949792058" lon="16.164927821191196"><ele>305.0</ele><time>2026-05-02T09:06:48Z</time></trkpt><trkpt lat="50.29819101409241" lon="16.164700339728604"><ele>306.0</ele><time>2026-05-02T09:06:49Z</time></trkpt><trkpt lat="50.298350101501406" lon="16.16449223720935"><ele>307.0</ele><time>2026-05-02T09:06:50Z</time></trkpt><trkpt lat="50.29850808301449" lon="16.164288873845987"><ele>307.0</ele><time>2026-05-02T09:06:51Z</time></trkpt><trkpt lat="50.29865627521838" lon="16.164107597570005"><ele>307.0</ele><time>2026-05-02T09:06:52Z</time></trkpt><trkpt lat="50.298800264470906" lon="16.16393984079993"><ele>307.0</ele><time>2026-05-02T09:06:53Z</time></trkpt><trkpt lat="50.29893401419601" lon="16.163788052192526"><ele>307.3333333333333</ele><time>2026-05-02T09:06:54Z</time></trkpt><trkpt lat="50.299077139757664" lon="16.163633014386654"><ele>307.6666666666667</ele><time>2026-05-02T09:06:55Z</time></trkpt><trkpt lat="50.299228885652624" lon="16.163484145160478"><ele>308.0</ele><time>2026-05-02T09:06:56Z</time></trkpt><trkpt lat="50.29938118791279" lon="16.163332095481927"><ele>307.6666666666667</ele><time>2026-05-02T09:06:57Z</time></trkpt><trkpt lat="50.29952334023277" lon="16.163193057032874"><ele>307.3333333333333</ele><time>2026-05-02T09:06:58Z</time></trkpt><trkpt lat="50.29967150081944" lon="16.163061430732593"><ele>307.0</ele><time>2026-05-02T09:06:59Z</time></trkpt><trkpt lat="50.299831111405254" lon="16.162934073094668"><ele>306.3333333333333</ele><time>2026-05-02T09:07:00Z</time></trkpt><trkpt lat="50.30000121473789" lon="16.162801942116925"><ele>305.6666666666667</ele><time>2026-05-02T09:07:01Z</time></trkpt><trkpt lat="50.30018103875673" lon="16.162677471336746"><ele>305.0</ele><time>2026-05-02T09:07:02Z</time></trkpt><trkpt lat="50.30036718683259" lon="16.16255168487277"><ele>305.0</ele><time>2026-05-02T09:07:03Z</time></trkpt><trkpt lat="50.300565023927966" lon="16.162429136458005"><ele>305.0</ele><time>2026-05-02T09:07:04Z</time></trkpt><trkpt lat="50.300771826382864" lon="16.162305185359536"><ele>305.0</ele><time>2026-05-02T09:07:05Z</time></trkpt><trkpt lat="50.30098272212115" lon="16.1621895257686"><ele>310.5</ele><time>2026-05-02T09:07:06Z</time></trkpt><trkpt lat="50.30120480218518" lon="16.162078455613337"><ele>316.0</ele><time>2026-05-02T09:07:07Z</time></trkpt><trkpt lat="50.301429754635265" lon="16.16197746183831"><ele>316.5</ele><time>2026-05-02T09:07:08Z</time></trkpt><trkpt lat="50.30167848122359" lon="16.161887622992566"><ele>317.0</ele><time>2026-05-02T09:07:09Z</time></trkpt><trkpt lat="50.301946728259495" lon="16.161805587759204"><ele>317.0</ele><time>2026-05-02T09:07:10Z</time></trkpt><trkpt lat="50.30223382352192" lon="16.161740018736825"><ele>317.0</ele><time>2026-05-02T09:07:11Z</time></trkpt><trkpt lat="50.30253106595003" lon="16.161681293592686"><ele>317.5</ele><time>2026-05-02T09:07:12Z</time></trkpt><trkpt lat="50.302838972206025" lon="16.161655342058346"><ele>318.0</ele><time>2026-05-02T09:07:13Z</time></trkpt><trkpt lat="50.303122957747064" lon="16.161614962769125"><ele>318.0</ele><time>2026-05-02T09:07:14Z</time></trkpt><trkpt lat="50.30340829425081" lon="16.16156573263837"><ele>318.0</ele><time>2026-05-02T09:07:15Z</time></trkpt><trkpt lat="50.30369926999575" lon="16.161504157887563"><ele>317.5</ele><time>2026-05-02T09:07:16Z</time></trkpt><trkpt lat="50.303981395792476" lon="16.161398289996267"><ele>317.0</ele><time>2026-05-02T09:07:17Z</time></trkpt><trkpt lat="50.30424850614805" lon="16.16131363663855"><ele>317.0</ele><time>2026-05-02T09:07:18Z</time></trkpt><trkpt lat="50.30449570196899" lon="16.161223375636837"><ele>317.0</ele><time>2026-05-02T09:07:19Z</time></trkpt><trkpt lat="50.30474631498357" lon="16.161158929568074"><ele>318.0</ele><time>2026-05-02T09:07:20Z</time></trkpt><trkpt lat="50.304997087655366" lon="16.161071745682282"><ele>319.0</ele><time>2026-05-02T09:07:21Z</time></trkpt><trkpt lat="50.30525877427974" lon="16.16098085422069"><ele>319.0</ele><time>2026-05-02T09:07:22Z</time></trkpt><trkpt lat="50.30552376122844" lon="16.160888420843662"><ele>319.0</ele><time>2026-05-02T09:07:23Z</time></trkpt><trkpt lat="50.305790556154875" lon="16.160794870068838"><ele>319.0</ele><time>2026-05-02T09:07:24Z</time></trkpt><trkpt lat="50.30606722152249" lon="16.16067478725675"><ele>319.0</ele><time>2026-05-02T09:07:25Z</time></trkpt><trkpt lat="50.30636073003925" lon="16.160547418214872"><ele>320.5</ele><time>2026-05-02T09:07:26Z</time></trkpt><trkpt lat="50.306663323278876" lon="16.16039607348255"><ele>322.0</ele><time>2026-05-02T09:07:27Z</time></trkpt><trkpt lat="50.30697578660251" lon="16.16022668521762"><ele>321.5</ele><time>2026-05-02T09:07:28Z</time></trkpt><trkpt lat="50.30728547288906" lon="16.16003110273781"><ele>321.0</ele><time>2026-05-02T09:07:29Z</time></trkpt><trkpt lat="50.30759837848262" lon="16.159810097749844"><ele>321.0</ele><time>2026-05-02T09:07:30Z</time></trkpt><trkpt lat="50.307908836468485" lon="16.159571374659226"><ele>321.0</ele><time>2026-05-02T09:07:31Z</time></trkpt><trkpt lat="50.308212755248775" lon="16.159329237931562"><ele>321.0</ele><time>2026-05-02T09:07:32Z</time></trkpt><trkpt lat="50.308510935847885" lon="16.159077129587025"><ele>321.0</ele><time>2026-05-02T09:07:33Z</time></trkpt><trkpt lat="50.30880257498048" lon="16.158801806076934"><ele>320.0</ele><time>2026-05-02T09:07:34Z</time></trkpt><trkpt lat="50.30908516884118" lon="16.158535341317325"><ele>319.0</ele><time>2026-05-02T09:07:35Z</time></trkpt><trkpt lat="50.30937083783479" lon="16.158298962085613"><ele>319.0</ele><time>2026-05-02T09:07:36Z</time></trkpt><trkpt lat="50.30963975149371" lon="16.15805082098002"><ele>319.0</ele><time>2026-05-02T09:07:37Z</time></trkpt><trkpt lat="50.309881951680104" lon="16.15782930897557"><ele>320.0</ele><time>2026-05-02T09:07:38Z</time></trkpt><trkpt lat="50.310112615690834" lon="16.157619059065343"><ele>321.0</ele><time>2026-05-02T09:07:39Z</time></trkpt><trkpt lat="50.31035256329765" lon="16.15740067258299"><ele>321.5</ele><time>2026-05-02T09:07:40Z</time></trkpt><trkpt lat="50.31060287741522" lon="16.157173030124575"><ele>322.0</ele><time>2026-05-02T09:07:41Z</time></trkpt><trkpt lat="50.310862654003" lon="16.15693678317336"><ele>322.0</ele><time>2026-05-02T09:07:42Z</time></trkpt><trkpt lat="50.31112839248426" lon="16.156685018980454"><ele>322.0</ele><time>2026-05-02T09:07:43Z</time></trkpt><trkpt lat="50.31141437164569" lon="16.15648274170995"><ele>321.5</ele><time>2026-05-02T09:07:44Z</time></trkpt><trkpt lat="50.31170675625115" lon="16.156301487020404"><ele>321.0</ele><time>2026-05-02T09:07:45Z</time></trkpt><trkpt lat="50.31200126507787" lon="16.15615039711078"><ele>321.0</ele><time>2026-05-02T09:07:46Z</time></trkpt><trkpt lat="50.31227859123147" lon="16.155969543894834"><ele>321.0</ele><time>2026-05-02T09:07:47Z</time></trkpt><trkpt lat="50.31255213105908" lon="16.155801949758317"><ele>320.5</ele><time>2026-05-02T09:07:48Z</time></trkpt><trkpt lat="50.31280743338041" lon="16.15565305404478"><ele>320.0</ele><time>2026-05-02T09:07:49Z</time></trkpt><trkpt lat="50.313043134407515" lon="16.155500301523606"><ele>320.5</ele><time>2026-05-02T09:07:50Z</time></trkpt><trkpt lat="50.31326267588167" lon="16.15533021218438"><ele>321.0</ele><time>2026-05-02T09:07:51Z</time></trkpt><trkpt lat="50.31346012482413" lon="16.155141851050203"><ele>321.0</ele><time>2026-05-02T09:07:52Z</time></trkpt><trkpt lat="50.31364324116629" lon="16.154919015335462"><ele>321.0</ele><time>2026-05-02T09:07:53Z</time></trkpt><trkpt lat="50.3138179257523" lon="16.15465892953787"><ele>319.5</ele><time>2026-05-02T09:07:54Z</time></trkpt><trkpt lat="50.31398093789025" lon="16.15435152284036"><ele>318.0</ele><time>2026-05-02T09:07:55Z</time></trkpt><trkpt lat="50.314145702070775" lon="16.15402681618969"><ele>318.0</ele><time>2026-05-02T09:07:56Z</time></trkpt><trkpt lat="50.314317840095725" lon="16.153686339399655"><ele>318.0</ele><time>2026-05-02T09:07:57Z</time></trkpt><trkpt lat="50.31449402255475" lon="16.15334595939479"><ele>318.0</ele><time>2026-05-02T09:07:58Z</time></trkpt><trkpt lat="50.31466929928456" lon="16.15300031553015"><ele>318.0</ele><time>2026-05-02T09:07:59Z</time></trkpt><trkpt lat="50.314838063491855" lon="16.15264183314929"><ele>316.5</ele><time>2026-05-02T09:08:00Z</time></trkpt><trkpt lat="50.315004662193886" lon="16.152280181748356"><ele>315.0</ele><time>2026-05-02T09:08:01Z</time></trkpt><trkpt lat="50.3151655307755" lon="16.151923395120257"><ele>315.0</ele><time>2026-05-02T09:08:02Z</time></trkpt><trkpt lat="50.315311486489925" lon="16.151586170570464"><ele>315.0</ele><time>2026-05-02T09:08:03Z</time></trkpt><trkpt lat="50.31544172800063" lon="16.151271717921155"><ele>315.0</ele><time>2026-05-02T09:08:04Z</time></trkpt><trkpt lat="50.31556797825883" lon="16.15095625118281"><ele>315.0</ele><time>2026-05-02T09:08:05Z</time></trkpt><trkpt lat="50.31570715622785" lon="16.150648769361247"><ele>315.0</ele><time>2026-05-02T09:08:06Z</time></trkpt><trkpt lat="50.31587466101227" lon="16.150353712882"><ele>315.0</ele><time>2026-05-02T09:08:07Z</time></trkpt><trkpt lat="50.316073145242264" lon="16.150094740701686"><ele>314.0</ele><time>2026-05-02T09:08:08Z</time></trkpt><trkpt lat="50.316297496041685" lon="16.149868949329687"><ele>313.0</ele><time>2026-05-02T09:08:09Z</time></trkpt><trkpt lat="50.31653480218483" lon="16.149659105854237"><ele>310.0</ele><time>2026-05-02T09:08:10Z</time></trkpt><trkpt lat="50.316751676138814" lon="16.149481519099734"><ele>307.0</ele><time>2026-05-02T09:08:11Z</time></trkpt><trkpt lat="50.31693217681859" lon="16.149321678713267"><ele>307.0</ele><time>2026-05-02T09:08:12Z</time></trkpt><trkpt lat="50.31708552753178" lon="16.149182455740394"><ele>307.0</ele><time>2026-05-02T09:08:13Z</time></trkpt><trkpt lat="50.31724461196709" lon="16.14904662066982"><ele>307.0</ele><time>2026-05-02T09:08:14Z</time></trkpt><trkpt lat="50.317404860079165" lon="16.148923448548803"><ele>307.0</ele><time>2026-05-02T09:08:15Z</time></trkpt><trkpt lat="50.31755740715851" lon="16.14880443412707"><ele>307.0</ele><time>2026-05-02T09:08:16Z</time></trkpt><trkpt lat="50.31770119283548" lon="16.14868897859937"><ele>307.0</ele><time>2026-05-02T09:08:17Z</time></trkpt><trkpt lat="50.31783734094285" lon="16.14857811656578"><ele>307.0</ele><time>2026-05-02T09:08:18Z</time></trkpt><trkpt lat="50.317964203970824" lon="16.148477194012347"><ele>307.0</ele><time>2026-05-02T09:08:19Z</time></trkpt><trkpt lat="50.31808604725941" lon="16.14837736745061"><ele>307.0</ele><time>2026-05-02T09:08:20Z</time></trkpt><trkpt lat="50.318211621858474" lon="16.148278821143233"><ele>307.0</ele><time>2026-05-02T09:08:21Z</time></trkpt><trkpt lat="50.318351662934234" lon="16.148180612868305"><ele>306.0</ele><time>2026-05-02T09:08:22Z</time></trkpt><trkpt lat="50.318504130578695" lon="16.148080206669615"><ele>305.0</ele><time>2026-05-02T09:08:23Z</time></trkpt><trkpt lat="50.31865442649456" lon="16.147978289300855"><ele>304.0</ele><time>2026-05-02T09:08:24Z</time></trkpt><trkpt lat="50.318802748642725" lon="16.147871962018847"><ele>304.3333333333333</ele><time>2026-05-02T09:08:25Z</time></trkpt><trkpt lat="50.31894838853502" lon="16.14777466446425"><ele>304.6666666666667</ele><time>2026-05-02T09:08:26Z</time></trkpt><trkpt lat="50.31910351836182" lon="16.147665564028816"><ele>305.0</ele><time>2026-05-02T09:08:27Z</time></trkpt><trkpt lat="50.319250393014485" lon="16.147570734476755"><ele>305.0</ele><time>2026-05-02T09:08:28Z</time></trkpt><trkpt lat="50.31939232951497" lon="16.147478013435148"><ele>305.0</ele><time>2026-05-02T09:08:29Z</time></trkpt><trkpt lat="50.31953032869679" lon="16.147384659963553"><ele>305.0</ele><time>2026-05-02T09:08:30Z</time></trkpt><trkpt lat="50.31966456670776" lon="16.147288646308425"><ele>304.33333333333337</ele><time>2026-05-02T09:08:31Z</time></trkpt><trkpt lat="50.31980724931325" lon="16.147213709688067"><ele>303.6666666666667</ele><time>2026-05-02T09:08:32Z</time></trkpt><trkpt lat="50.31996292627476" lon="16.147175548083034"><ele>303.0</ele><time>2026-05-02T09:08:33Z</time></trkpt><trkpt lat="50.32012324795379" lon="16.14717674021283"><ele>303.0</ele><time>2026-05-02T09:08:34Z</time></trkpt><trkpt lat="50.320282735420946" lon="16.147222827753037"><ele>303.0</ele><time>2026-05-02T09:08:35Z</time></trkpt><trkpt lat="50.320433739364816" lon="16.14731231441367"><ele>303.0</ele><time>2026-05-02T09:08:36Z</time></trkpt><trkpt lat="50.32058595249476" lon="16.147452332136545"><ele>302.0</ele><time>2026-05-02T09:08:37Z</time></trkpt><trkpt lat="50.32073617232022" lon="16.14764601997859"><ele>301.0</ele><time>2026-05-02T09:08:38Z</time></trkpt><trkpt lat="50.32087548147512" lon="16.147895267559527"><ele>300.0</ele><time>2026-05-02T09:08:39Z</time></trkpt><trkpt lat="50.321001854550026" lon="16.148189540971106"><ele>301.0</ele><time>2026-05-02T09:08:40Z</time></trkpt><trkpt lat="50.32112405115962" lon="16.14852269285918"><ele>302.0</ele><time>2026-05-02T09:08:41Z</time></trkpt><trkpt lat="50.32124879104545" lon="16.148859219080524"><ele>303.0</ele><time>2026-05-02T09:08:42Z</time></trkpt><trkpt lat="50.321381942037924" lon="16.149197156266293"><ele>304.0</ele><time>2026-05-02T09:08:43Z</time></trkpt><trkpt lat="50.32152327756567" lon="16.149540322817398"><ele>304.5</ele><time>2026-05-02T09:08:44Z</time></trkpt><trkpt lat="50.32168138002211" lon="16.149893926107442"><ele>305.0</ele><time>2026-05-02T09:08:45Z</time></trkpt><trkpt lat="50.32185739533725" lon="16.150254620430886"><ele>305.0</ele><time>2026-05-02T09:08:46Z</time></trkpt><trkpt lat="50.32206185313684" lon="16.150620911009778"><ele>305.0</ele><time>2026-05-02T09:08:47Z</time></trkpt><trkpt lat="50.3222852125177" lon="16.15098469934625"><ele>306.0</ele><time>2026-05-02T09:08:48Z</time></trkpt><trkpt lat="50.32251678533913" lon="16.151338950413393"><ele>307.0</ele><time>2026-05-02T09:08:49Z</time></trkpt><trkpt lat="50.322742466416464" lon="16.151646448576727"><ele>307.0</ele><time>2026-05-02T09:08:50Z</time></trkpt><trkpt lat="50.32296607059384" lon="16.15189884426234"><ele>307.0</ele><time>2026-05-02T09:08:51Z</time></trkpt><trkpt lat="50.32320938440848" lon="16.15211383264261"><ele>309.0</ele><time>2026-05-02T09:08:52Z</time></trkpt><trkpt lat="50.32347209120101" lon="16.152298269102296"><ele>311.0</ele><time>2026-05-02T09:08:53Z</time></trkpt><trkpt lat="50.32373694402976" lon="16.152451725552172"><ele>313.0</ele><time>2026-05-02T09:08:54Z</time></trkpt><trkpt lat="50.32399227384982" lon="16.152567516522083"><ele>315.0</ele><time>2026-05-02T09:08:55Z</time></trkpt><trkpt lat="50.32425349091073" lon="16.152649749583343"><ele>315.0</ele><time>2026-05-02T09:08:56Z</time></trkpt><trkpt lat="50.32452346074993" lon="16.152697793462156"><ele>315.0</ele><time>2026-05-02T09:08:57Z</time></trkpt><trkpt lat="50.32480108997401" lon="16.15271927470559"><ele>314.0</ele><time>2026-05-02T09:08:58.001Z</time></trkpt><trkpt lat="50.325072894431294" lon="16.15269721169582"><ele>313.0</ele><time>2026-05-02T09:08:59.001Z</time></trkpt><trkpt lat="50.32534704957936" lon="16.152645598155797"><ele>313.0</ele><time>2026-05-02T09:09:00.001Z</time></trkpt><trkpt lat="50.32562046917421" lon="16.152573315340437"><ele>313.0</ele><time>2026-05-02T09:09:01.001Z</time></trkpt><trkpt lat="50.32587001378489" lon="16.15246512102814"><ele>314.5</ele><time>2026-05-02T09:09:02.001Z</time></trkpt><trkpt lat="50.32609082716289" lon="16.15233224203698"><ele>316.0</ele><time>2026-05-02T09:09:03.001Z</time></trkpt><trkpt lat="50.326291280663845" lon="16.152190282553963"><ele>317.3333333333333</ele><time>2026-05-02T09:09:04.001Z</time></trkpt><trkpt lat="50.32646695432806" lon="16.152037900725126"><ele>318.6666666666667</ele><time>2026-05-02T09:09:05.001Z</time></trkpt><trkpt lat="50.32662927057836" lon="16.15190420081545"><ele>320.0</ele><time>2026-05-02T09:09:06.001Z</time></trkpt><trkpt lat="50.32677250415736" lon="16.151761211333593"><ele>320.0</ele><time>2026-05-02T09:09:07.001Z</time></trkpt><trkpt lat="50.326897097290356" lon="16.151631251464163"><ele>320.0</ele><time>2026-05-02T09:09:08.001Z</time></trkpt><trkpt lat="50.32700277897766" lon="16.151514026258813"><ele>320.0</ele><time>2026-05-02T09:09:09.001Z</time></trkpt><trkpt lat="50.327100569402994" lon="16.151401610687078"><ele>320.0</ele><time>2026-05-02T09:09:10.001Z</time></trkpt><trkpt lat="50.327189732851814" lon="16.15129417398523"><ele>322.25</ele><time>2026-05-02T09:09:11.001Z</time></trkpt><trkpt lat="50.327271571424234" lon="16.151194398895417"><ele>324.5</ele><time>2026-05-02T09:09:12.001Z</time></trkpt><trkpt lat="50.32736012855146" lon="16.151079178131983"><ele>326.75</ele><time>2026-05-02T09:09:13.001Z</time></trkpt><trkpt lat="50.32744903610384" lon="16.150956813938702"><ele>329.0</ele><time>2026-05-02T09:09:14.001Z</time></trkpt><trkpt lat="50.32753954703558" lon="16.150826053196255"><ele>331.5</ele><time>2026-05-02T09:09:15.001Z</time></trkpt><trkpt lat="50.32763010782855" lon="16.150686616949777"><ele>334.0</ele><time>2026-05-02T09:09:16.001Z</time></trkpt><trkpt lat="50.32771771946956" lon="16.15054917795868"><ele>336.5</ele><time>2026-05-02T09:09:17.001Z</time></trkpt><trkpt lat="50.32780646491808" lon="16.15040746160586"><ele>339.0</ele><time>2026-05-02T09:09:18Z</time></trkpt><trkpt lat="50.32789397912712" lon="16.1502608654072"><ele>339.0</ele><time>2026-05-02T09:09:19Z</time></trkpt><trkpt lat="50.32797245506757" lon="16.150121074373974"><ele>339.0</ele><time>2026-05-02T09:09:20Z</time></trkpt><trkpt lat="50.32803655089831" lon="16.149995678122075"><ele>339.0</ele><time>2026-05-02T09:09:21Z</time></trkpt><trkpt lat="50.328097938927286" lon="16.149875076664063"><ele>339.0</ele><time>2026-05-02T09:09:22Z</time></trkpt><trkpt lat="50.328161106617245" lon="16.149751176317874"><ele>339.0</ele><time>2026-05-02T09:09:23Z</time></trkpt><trkpt lat="50.328222916255356" lon="16.149621069519956"><ele>338.79999999999995</ele><time>2026-05-02T09:09:24Z</time></trkpt><trkpt lat="50.328284968760606" lon="16.149489625431862"><ele>338.59999999999997</ele><time>2026-05-02T09:09:25Z</time></trkpt><trkpt lat="50.328348744526046" lon="16.149352780613953"><ele>338.4</ele><time>2026-05-02T09:09:26Z</time></trkpt><trkpt lat="50.32841343736361" lon="16.14921094289299"><ele>338.2</ele><time>2026-05-02T09:09:27Z</time></trkpt><trkpt lat="50.32846353901459" lon="16.14906293386973"><ele>338.0</ele><time>2026-05-02T09:09:28Z</time></trkpt><trkpt lat="50.328519865947186" lon="16.148938465292343"><ele>339.4</ele><time>2026-05-02T09:09:29Z</time></trkpt><trkpt lat="50.32857523821024" lon="16.148802697338894"><ele>340.79999999999995</ele><time>2026-05-02T09:09:30Z</time></trkpt><trkpt lat="50.328635516521345" lon="16.148675033980716"><ele>342.2</ele><time>2026-05-02T09:09:31Z</time></trkpt><trkpt lat="50.32869231664715" lon="16.148546431530274"><ele>343.6</ele><time>2026-05-02T09:09:32Z</time></trkpt><trkpt lat="50.32875539123266" lon="16.148413238732548"><ele>345.0</ele><time>2026-05-02T09:09:33Z</time></trkpt><trkpt lat="50.328824305240126" lon="16.148278009472556"><ele>345.0</ele><time>2026-05-02T09:09:34Z</time></trkpt><trkpt lat="50.328891351922" lon="16.148133454349477"><ele>345.0</ele><time>2026-05-02T09:09:35Z</time></trkpt><trkpt lat="50.328961419601654" lon="16.14798943808728"><ele>345.0</ele><time>2026-05-02T09:09:36Z</time></trkpt><trkpt lat="50.3290163959413" lon="16.147845536294827"><ele>345.0</ele><time>2026-05-02T09:09:37Z</time></trkpt><trkpt lat="50.329086908571675" lon="16.147733552810095"><ele>345.0</ele><time>2026-05-02T09:09:38Z</time></trkpt><trkpt lat="50.32917591741624" lon="16.147645058602098"><ele>345.0</ele><time>2026-05-02T09:09:39Z</time></trkpt><trkpt lat="50.32926953132113" lon="16.147530550586755"><ele>345.0</ele><time>2026-05-02T09:09:40Z</time></trkpt><trkpt lat="50.329370385910316" lon="16.147410144273167"><ele>345.0</ele><time>2026-05-02T09:09:41Z</time></trkpt><trkpt lat="50.32947156911943" lon="16.147278901284576"><ele>345.0</ele><time>2026-05-02T09:09:42Z</time></trkpt><trkpt lat="50.32957590717782" lon="16.14716001454546"><ele>345.0</ele><time>2026-05-02T09:09:43Z</time></trkpt><trkpt lat="50.329673314301324" lon="16.147033551413884"><ele>345.0</ele><time>2026-05-02T09:09:44Z</time></trkpt><trkpt lat="50.32978975525975" lon="16.146931450322636"><ele>345.0</ele><time>2026-05-02T09:09:45Z</time></trkpt><trkpt lat="50.3298846580822" lon="16.14679099892273"><ele>345.0</ele><time>2026-05-02T09:09:46Z</time></trkpt><trkpt lat="50.33001101479815" lon="16.14670319783116"><ele>345.0</ele><time>2026-05-02T09:09:47Z</time></trkpt><trkpt lat="50.33013782290757" lon="16.146601945917332"><ele>345.0</ele><time>2026-05-02T09:09:48Z</time></trkpt><trkpt lat="50.33028174300235" lon="16.146501402719338"><ele>345.0</ele><time>2026-05-02T09:09:49Z</time></trkpt><trkpt lat="50.33044226072807" lon="16.14640245229494"><ele>345.3333333333333</ele><time>2026-05-02T09:09:50Z</time></trkpt><trkpt lat="50.33059344473345" lon="16.14632994296017"><ele>345.66666666666663</ele><time>2026-05-02T09:09:51Z</time></trkpt><trkpt lat="50.33073811366763" lon="16.1462344854215"><ele>346.0</ele><time>2026-05-02T09:09:52Z</time></trkpt><trkpt lat="50.33088010463857" lon="16.146124824079596"><ele>346.0</ele><time>2026-05-02T09:09:53Z</time></trkpt><trkpt lat="50.33102253963677" lon="16.14600755833403"><ele>346.0</ele><time>2026-05-02T09:09:54Z</time></trkpt><trkpt lat="50.3311739223298" lon="16.145904424682108"><ele>346.0</ele><time>2026-05-02T09:09:55Z</time></trkpt><trkpt lat="50.33131226307283" lon="16.145751870916047"><ele>345.75</ele><time>2026-05-02T09:09:56Z</time></trkpt><trkpt lat="50.33144170340068" lon="16.145590377180856"><ele>345.5</ele><time>2026-05-02T09:09:57Z</time></trkpt><trkpt lat="50.331550671026974" lon="16.145437503673403"><ele>345.25</ele><time>2026-05-02T09:09:58Z</time></trkpt><trkpt lat="50.33165120154529" lon="16.145291240609563"><ele>345.0</ele><time>2026-05-02T09:09:59Z</time></trkpt><trkpt lat="50.33176114679643" lon="16.145129464553083"><ele>345.0</ele><time>2026-05-02T09:10:00Z</time></trkpt><trkpt lat="50.33189147900101" lon="16.144937690708318"><ele>345.0</ele><time>2026-05-02T09:10:01Z</time></trkpt><trkpt lat="50.3320457989775" lon="16.144707973895148"><ele>345.0</ele><time>2026-05-02T09:10:02Z</time></trkpt><trkpt lat="50.332212949822804" lon="16.144452749323207"><ele>345.0</ele><time>2026-05-02T09:10:03Z</time></trkpt><trkpt lat="50.332396773493016" lon="16.14416775063909"><ele>345.0</ele><time>2026-05-02T09:10:04Z</time></trkpt><trkpt lat="50.33259936683174" lon="16.143849589048894"><ele>344.5</ele><time>2026-05-02T09:10:05Z</time></trkpt><trkpt lat="50.332808610628256" lon="16.143527238775967"><ele>344.0</ele><time>2026-05-02T09:10:06Z</time></trkpt><trkpt lat="50.33299661260191" lon="16.1432405200324"><ele>344.0</ele><time>2026-05-02T09:10:07Z</time></trkpt><trkpt lat="50.33317554706008" lon="16.142944304344354"><ele>344.0</ele><time>2026-05-02T09:10:08Z</time></trkpt><trkpt lat="50.33337677623415" lon="16.142690110970747"><ele>344.0</ele><time>2026-05-02T09:10:09Z</time></trkpt><trkpt lat="50.33360451069217" lon="16.142502584347202"><ele>344.0</ele><time>2026-05-02T09:10:10Z</time></trkpt><trkpt lat="50.33383752151919" lon="16.14230617530682"><ele>344.5</ele><time>2026-05-02T09:10:11Z</time></trkpt><trkpt lat="50.334051675369906" lon="16.142094886399832"><ele>345.0</ele><time>2026-05-02T09:10:12Z</time></trkpt><trkpt lat="50.33427619883029" lon="16.141877145864232"><ele>345.0</ele><time>2026-05-02T09:10:13Z</time></trkpt><trkpt lat="50.3344921860508" lon="16.14164543083071"><ele>345.0</ele><time>2026-05-02T09:10:14Z</time></trkpt><trkpt lat="50.334698176210054" lon="16.141454197297953"><ele>345.0</ele><time>2026-05-02T09:10:15Z</time></trkpt><trkpt lat="50.33487289404786" lon="16.141238834641783"><ele>345.0</ele><time>2026-05-02T09:10:16Z</time></trkpt><trkpt lat="50.33503976796743" lon="16.141067205013698"><ele>345.0</ele><time>2026-05-02T09:10:17Z</time></trkpt><trkpt lat="50.3351938121999" lon="16.140910293368925"><ele>345.0</ele><time>2026-05-02T09:10:18Z</time></trkpt><trkpt lat="50.33534398720462" lon="16.14076174510285"><ele>345.0</ele><time>2026-05-02T09:10:19Z</time></trkpt><trkpt lat="50.33550436777764" lon="16.14064485911233"><ele>345.0</ele><time>2026-05-02T09:10:20Z</time></trkpt><trkpt lat="50.33566812347691" lon="16.140509343714978"><ele>344.6666666666667</ele><time>2026-05-02T09:10:21Z</time></trkpt><trkpt lat="50.33581160302471" lon="16.140396533585626"><ele>344.33333333333337</ele><time>2026-05-02T09:10:22Z</time></trkpt><trkpt lat="50.335967617325146" lon="16.1402833472612"><ele>344.0</ele><time>2026-05-02T09:10:23Z</time></trkpt><trkpt lat="50.33612024291625" lon="16.140175578636274"><ele>344.0</ele><time>2026-05-02T09:10:24Z</time></trkpt><trkpt lat="50.33627516074553" lon="16.140072057704653"><ele>344.0</ele><time>2026-05-02T09:10:25Z</time></trkpt><trkpt lat="50.336438676071445" lon="16.13996252503448"><ele>344.0</ele><time>2026-05-02T09:10:26Z</time></trkpt><trkpt lat="50.3366047837758" lon="16.13984797638727"><ele>343.33333333333337</ele><time>2026-05-02T09:10:27Z</time></trkpt><trkpt lat="50.33676441681601" lon="16.139722988794578"><ele>342.6666666666667</ele><time>2026-05-02T09:10:28Z</time></trkpt><trkpt lat="50.33689807032225" lon="16.13957098914495"><ele>342.0</ele><time>2026-05-02T09:10:29Z</time></trkpt><trkpt lat="50.33703016897805" lon="16.139435634621456"><ele>342.0</ele><time>2026-05-02T09:10:30Z</time></trkpt><trkpt lat="50.33716801017321" lon="16.13927309144561"><ele>342.0</ele><time>2026-05-02T09:10:31Z</time></trkpt><trkpt lat="50.337313508297775" lon="16.139136349144195"><ele>342.0</ele><time>2026-05-02T09:10:32Z</time></trkpt><trkpt lat="50.3374564090236" lon="16.138978115596515"><ele>341.6666666666667</ele><time>2026-05-02T09:10:33Z</time></trkpt><trkpt lat="50.33760900879139" lon="16.13882964610174"><ele>341.33333333333337</ele><time>2026-05-02T09:10:34Z</time></trkpt><trkpt lat="50.33776242125265" lon="16.138683081631854"><ele>341.0</ele><time>2026-05-02T09:10:35Z</time></trkpt><trkpt lat="50.337914087886695" lon="16.138545187697105"><ele>340.6666666666667</ele><time>2026-05-02T09:10:36Z</time></trkpt><trkpt lat="50.338059260946544" lon="16.138415025979494"><ele>340.3333333333333</ele><time>2026-05-02T09:10:37Z</time></trkpt><trkpt lat="50.338203404689175" lon="16.13829400780707"><ele>340.0</ele><time>2026-05-02T09:10:38Z</time></trkpt><trkpt lat="50.338351581926865" lon="16.13817270411977"><ele>340.0</ele><time>2026-05-02T09:10:39Z</time></trkpt><trkpt lat="50.33851143266503" lon="16.138083999065216"><ele>340.0</ele><time>2026-05-02T09:10:40Z</time></trkpt><trkpt lat="50.33866848501775" lon="16.137986334854688"><ele>340.0</ele><time>2026-05-02T09:10:41Z</time></trkpt><trkpt lat="50.33882301680734" lon="16.13788325274098"><ele>339.66666666666663</ele><time>2026-05-02T09:10:42Z</time></trkpt><trkpt lat="50.338970511911064" lon="16.137773748046488"><ele>339.3333333333333</ele><time>2026-05-02T09:10:43Z</time></trkpt><trkpt lat="50.33910453991706" lon="16.137666703047454"><ele>339.0</ele><time>2026-05-02T09:10:44Z</time></trkpt><trkpt lat="50.33923659900554" lon="16.137558597711863"><ele>339.0</ele><time>2026-05-02T09:10:45Z</time></trkpt><trkpt lat="50.33937737061342" lon="16.13744663890508"><ele>339.0</ele><time>2026-05-02T09:10:46Z</time></trkpt><trkpt lat="50.339522884662394" lon="16.13733811063192"><ele>339.0</ele><time>2026-05-02T09:10:47Z</time></trkpt><trkpt lat="50.339681499829275" lon="16.137219414615053"><ele>338.3333333333333</ele><time>2026-05-02T09:10:48Z</time></trkpt><trkpt lat="50.339849585247585" lon="16.13709935468263"><ele>337.66666666666663</ele><time>2026-05-02T09:10:49Z</time></trkpt><trkpt lat="50.3400460554719" lon="16.136963599774077"><ele>337.0</ele><time>2026-05-02T09:10:50Z</time></trkpt><trkpt lat="50.34025180546833" lon="16.136820354003685"><ele>337.0</ele><time>2026-05-02T09:10:51Z</time></trkpt><trkpt lat="50.34045897510931" lon="16.136691068682477"><ele>337.0</ele><time>2026-05-02T09:10:52Z</time></trkpt><trkpt lat="50.340662516913596" lon="16.13656713974859"><ele>337.0</ele><time>2026-05-02T09:10:53Z</time></trkpt><trkpt lat="50.340868145634985" lon="16.136461004084364"><ele>336.0</ele><time>2026-05-02T09:10:54Z</time></trkpt><trkpt lat="50.34107449072226" lon="16.13636984421473"><ele>335.0</ele><time>2026-05-02T09:10:55Z</time></trkpt><trkpt lat="50.34126827170174" lon="16.13628860652141"><ele>334.0</ele><time>2026-05-02T09:10:56Z</time></trkpt><trkpt lat="50.34145111848416" lon="16.13621216704275"><ele>332.66666666666663</ele><time>2026-05-02T09:10:57Z</time></trkpt><trkpt lat="50.34162883772463" lon="16.136139305893984"><ele>331.3333333333333</ele><time>2026-05-02T09:10:58Z</time></trkpt><trkpt lat="50.34181242809284" lon="16.136080687002867"><ele>330.0</ele><time>2026-05-02T09:10:59Z</time></trkpt><trkpt lat="50.34200157534452" lon="16.1360295455666"><ele>330.0</ele><time>2026-05-02T09:11:00Z</time></trkpt><trkpt lat="50.342194716049754" lon="16.135968014853397"><ele>330.0</ele><time>2026-05-02T09:11:01Z</time></trkpt><trkpt lat="50.34238589009196" lon="16.135903260590908"><ele>330.0</ele><time>2026-05-02T09:11:02Z</time></trkpt><trkpt lat="50.342562556078846" lon="16.135833284457934"><ele>329.6666666666667</ele><time>2026-05-02T09:11:03Z</time></trkpt><trkpt lat="50.34273151484621" lon="16.13576140636914"><ele>329.33333333333337</ele><time>2026-05-02T09:11:04.001Z</time></trkpt><trkpt lat="50.342901190447606" lon="16.135690314409597"><ele>329.0</ele><time>2026-05-02T09:11:05.001Z</time></trkpt><trkpt lat="50.34307014836052" lon="16.13561973438204"><ele>326.6666666666667</ele><time>2026-05-02T09:11:06.001Z</time></trkpt><trkpt lat="50.343233748965" lon="16.13555332488661"><ele>324.3333333333333</ele><time>2026-05-02T09:11:07.001Z</time></trkpt><trkpt lat="50.34338860123812" lon="16.13548717145887"><ele>322.0</ele><time>2026-05-02T09:11:08.001Z</time></trkpt><trkpt lat="50.34353917353834" lon="16.135430219273754"><ele>322.0</ele><time>2026-05-02T09:11:09.001Z</time></trkpt><trkpt lat="50.343680829333515" lon="16.13538749647017"><ele>322.0</ele><time>2026-05-02T09:11:10.001Z</time></trkpt><trkpt lat="50.34381140985286" lon="16.13534666131794"><ele>322.0</ele><time>2026-05-02T09:11:11.001Z</time></trkpt><trkpt lat="50.343934490608476" lon="16.135311355453787"><ele>322.0</ele><time>2026-05-02T09:11:12.001Z</time></trkpt><trkpt lat="50.34405141876879" lon="16.135274406475688"><ele>321.0</ele><time>2026-05-02T09:11:13.001Z</time></trkpt><trkpt lat="50.34416377993306" lon="16.13524557266967"><ele>320.0</ele><time>2026-05-02T09:11:14.001Z</time></trkpt><trkpt lat="50.34427561095753" lon="16.13522005874031"><ele>319.0</ele><time>2026-05-02T09:11:15.001Z</time></trkpt><trkpt lat="50.344386802984694" lon="16.135196644561525"><ele>318.0</ele><time>2026-05-02T09:11:16.001Z</time></trkpt><trkpt lat="50.34450096059078" lon="16.13517698875829"><ele>318.0</ele><time>2026-05-02T09:11:17.001Z</time></trkpt><trkpt lat="50.34460752488655" lon="16.135161965725487"><ele>318.0</ele><time>2026-05-02T09:11:18.001Z</time></trkpt><trkpt lat="50.34470882126364" lon="16.13514534496563"><ele>318.0</ele><time>2026-05-02T09:11:19.001Z</time></trkpt><trkpt lat="50.34480895027898" lon="16.13512618886203"><ele>318.0</ele><time>2026-05-02T09:11:20.001Z</time></trkpt><trkpt lat="50.34490759253123" lon="16.135111430284674"><ele>318.0</ele><time>2026-05-02T09:11:21.001Z</time></trkpt><trkpt lat="50.34500612421141" lon="16.135103118653348"><ele>317.4</ele><time>2026-05-02T09:11:22.001Z</time></trkpt><trkpt lat="50.34510653579692" lon="16.135095862984116"><ele>316.8</ele><time>2026-05-02T09:11:23.001Z</time></trkpt><trkpt lat="50.34521292680013" lon="16.13507325846163"><ele>316.2</ele><time>2026-05-02T09:11:24.001Z</time></trkpt><trkpt lat="50.34532243032937" lon="16.135066063490854"><ele>315.6</ele><time>2026-05-02T09:11:25.001Z</time></trkpt><trkpt lat="50.34543284595762" lon="16.13504750456014"><ele>315.0</ele><time>2026-05-02T09:11:26.001Z</time></trkpt><trkpt lat="50.34554402238194" lon="16.135038955095197"><ele>312.75</ele><time>2026-05-02T09:11:27.001Z</time></trkpt><trkpt lat="50.34565315052899" lon="16.13501533980575"><ele>310.5</ele><time>2026-05-02T09:11:28.001Z</time></trkpt><trkpt lat="50.3457633593303" lon="16.13500532477877"><ele>308.25</ele><time>2026-05-02T09:11:29.001Z</time></trkpt><trkpt lat="50.34588453107153" lon="16.134994568545903"><ele>306.0</ele><time>2026-05-02T09:11:30.001Z</time></trkpt><trkpt lat="50.34600984383423" lon="16.134974373161764"><ele>306.0</ele><time>2026-05-02T09:11:31.001Z</time></trkpt><trkpt lat="50.346127859212274" lon="16.134966633146377"><ele>306.0</ele><time>2026-05-02T09:11:32.001Z</time></trkpt><trkpt lat="50.34624223178735" lon="16.134956947783294"><ele>306.0</ele><time>2026-05-02T09:11:33.001Z</time></trkpt><trkpt lat="50.34635857803355" lon="16.134940969610675"><ele>306.0</ele><time>2026-05-02T09:11:34.001Z</time></trkpt><trkpt lat="50.34646965767966" lon="16.134926938478745"><ele>305.6</ele><time>2026-05-02T09:11:35.001Z</time></trkpt><trkpt lat="50.34656869527361" lon="16.134917538197715"><ele>305.20000000000005</ele><time>2026-05-02T09:11:36.001Z</time></trkpt><trkpt lat="50.34666372245457" lon="16.13490536047046"><ele>304.79999999999995</ele><time>2026-05-02T09:11:37.001Z</time></trkpt><trkpt lat="50.34676124635867" lon="16.134887376796794"><ele>304.4</ele><time>2026-05-02T09:11:38.001Z</time></trkpt><trkpt lat="50.34686109608297" lon="16.13487325370635"><ele>304.0</ele><time>2026-05-02T09:11:39.001Z</time></trkpt><trkpt lat="50.3469647229546" lon="16.134865191117395"><ele>304.0</ele><time>2026-05-02T09:11:40.001Z</time></trkpt><trkpt lat="50.34707470311462" lon="16.13485527591031"><ele>304.0</ele><time>2026-05-02T09:11:41.001Z</time></trkpt><trkpt lat="50.34718993628723" lon="16.13484425289916"><ele>304.0</ele><time>2026-05-02T09:11:42.001Z</time></trkpt><trkpt lat="50.34731114139947" lon="16.134838660813802"><ele>304.0</ele><time>2026-05-02T09:11:43.001Z</time></trkpt><trkpt lat="50.347433335590786" lon="16.134868087709496"><ele>303.0</ele><time>2026-05-02T09:11:44.001Z</time></trkpt><trkpt lat="50.3475466925259" lon="16.134885818287543"><ele>302.0</ele><time>2026-05-02T09:11:45.001Z</time></trkpt><trkpt lat="50.34766334587774" lon="16.134911735812576"><ele>301.0</ele><time>2026-05-02T09:11:46.001Z</time></trkpt><trkpt lat="50.34778894457745" lon="16.134924410002547"><ele>300.0</ele><time>2026-05-02T09:11:47.001Z</time></trkpt><trkpt lat="50.34791617152848" lon="16.13496913675876"><ele>299.5</ele><time>2026-05-02T09:11:48Z</time></trkpt><trkpt lat="50.34803805023749" lon="16.135017146672908"><ele>299.0</ele><time>2026-05-02T09:11:49Z</time></trkpt><trkpt lat="50.34814289186086" lon="16.13510301517498"><ele>298.5</ele><time>2026-05-02T09:11:50Z</time></trkpt><trkpt lat="50.34824645023824" lon="16.13517966703241"><ele>298.0</ele><time>2026-05-02T09:11:51Z</time></trkpt><trkpt lat="50.348350802084525" lon="16.13524924540394"><ele>297.8</ele><time>2026-05-02T09:11:52Z</time></trkpt><trkpt lat="50.34843761631391" lon="16.135348126124338"><ele>297.6</ele><time>2026-05-02T09:11:53Z</time></trkpt><trkpt lat="50.34849859396083" lon="16.135474487306517"><ele>297.4</ele><time>2026-05-02T09:11:54Z</time></trkpt><trkpt lat="50.34856402524157" lon="16.13558043167822"><ele>297.2</ele><time>2026-05-02T09:11:55Z</time></trkpt><trkpt lat="50.34860672131309" lon="16.1357122852625"><ele>297.0</ele><time>2026-05-02T09:11:56Z</time></trkpt><trkpt lat="50.348657289259" lon="16.13580988397962"><ele>296.2</ele><time>2026-05-02T09:11:57Z</time></trkpt><trkpt lat="50.348729181680824" lon="16.135859270993095"><ele>295.4</ele><time>2026-05-02T09:11:58Z</time></trkpt><trkpt lat="50.34880557822496" lon="16.135845287042326"><ele>294.6</ele><time>2026-05-02T09:11:59Z</time></trkpt><trkpt lat="50.34888514989519" lon="16.135799640879263"><ele>293.8</ele><time>2026-05-02T09:12:00Z</time></trkpt><trkpt lat="50.34894981277709" lon="16.13566451364336"><ele>293.0</ele><time>2026-05-02T09:12:01Z</time></trkpt><trkpt lat="50.349017188890194" lon="16.135526636841664"><ele>292.4</ele><time>2026-05-02T09:12:02Z</time></trkpt><trkpt lat="50.34909368789733" lon="16.135438994564915"><ele>291.8</ele><time>2026-05-02T09:12:03Z</time></trkpt><trkpt lat="50.34918120877923" lon="16.135298570865086"><ele>291.2</ele><time>2026-05-02T09:12:04Z</time></trkpt><trkpt lat="50.34924360651442" lon="16.135163812222338"><ele>290.6</ele><time>2026-05-02T09:12:05Z</time></trkpt><trkpt lat="50.349325300816815" lon="16.13506716438682"><ele>290.0</ele><time>2026-05-02T09:12:06Z</time></trkpt><trkpt lat="50.34935791459294" lon="16.13491333269805"><ele>289.6</ele><time>2026-05-02T09:12:07Z</time></trkpt><trkpt lat="50.34938189107013" lon="16.134764315333623"><ele>289.2</ele><time>2026-05-02T09:12:08Z</time></trkpt><trkpt lat="50.34941460963368" lon="16.13463480446753"><ele>288.8</ele><time>2026-05-02T09:12:09Z</time></trkpt><trkpt lat="50.34943226793623" lon="16.134507483162228"><ele>288.4</ele><time>2026-05-02T09:12:10Z</time></trkpt><trkpt lat="50.34944876666398" lon="16.13437094283677"><ele>288.0</ele><time>2026-05-02T09:12:11Z</time></trkpt><trkpt lat="50.349464985842786" lon="16.134217470294907"><ele>288.0</ele><time>2026-05-02T09:12:12Z</time></trkpt><trkpt lat="50.34947828382845" lon="16.134070206900976"><ele>288.0</ele><time>2026-05-02T09:12:13Z</time></trkpt><trkpt lat="50.349488680637364" lon="16.13393618391619"><ele>288.0</ele><time>2026-05-02T09:12:14Z</time></trkpt><trkpt lat="50.349494555065995" lon="16.13380103631727"><ele>288.0</ele><time>2026-05-02T09:12:15Z</time></trkpt><trkpt lat="50.34949743523944" lon="16.133674037798432"><ele>288.0</ele><time>2026-05-02T09:12:16Z</time></trkpt><trkpt lat="50.34949770670963" lon="16.133548297255285"><ele>288.0</ele><time>2026-05-02T09:12:17Z</time></trkpt><trkpt lat="50.3494963671222" lon="16.133421786658314"><ele>288.0</ele><time>2026-05-02T09:12:18Z</time></trkpt><trkpt lat="50.34948263424375" lon="16.133308347713054"><ele>288.0</ele><time>2026-05-02T09:12:19Z</time></trkpt><trkpt lat="50.349552731534686" lon="16.13315826351619"><ele>288.0</ele><time>2026-05-02T09:12:21Z</time></trkpt><trkpt lat="50.34962307287123" lon="16.133136035508073"><ele>288.0</ele><time>2026-05-02T09:12:22Z</time></trkpt><trkpt lat="50.349699606734674" lon="16.133152794622575"><ele>288.0</ele><time>2026-05-02T09:12:23Z</time></trkpt><trkpt lat="50.349780489915254" lon="16.133185287271527"><ele>288.0</ele><time>2026-05-02T09:12:24Z</time></trkpt><trkpt lat="50.34987414015768" lon="16.133224681690056"><ele>287.6</ele><time>2026-05-02T09:12:25Z</time></trkpt><trkpt lat="50.349961115114816" lon="16.133265167829432"><ele>287.20000000000005</ele><time>2026-05-02T09:12:26Z</time></trkpt><trkpt lat="50.35005613396892" lon="16.133312813020904"><ele>286.8</ele><time>2026-05-02T09:12:27Z</time></trkpt><trkpt lat="50.35016449655753" lon="16.133364204743987"><ele>286.40000000000003</ele><time>2026-05-02T09:12:28Z</time></trkpt><trkpt lat="50.3502801758755" lon="16.13341109967384"><ele>286.0</ele><time>2026-05-02T09:12:29Z</time></trkpt><trkpt lat="50.35038985244162" lon="16.13348344731068"><ele>286.0</ele><time>2026-05-02T09:12:30Z</time></trkpt><trkpt lat="50.35048805914208" lon="16.133563374868093"><ele>286.0</ele><time>2026-05-02T09:12:31Z</time></trkpt><trkpt lat="50.35056782807921" lon="16.13364226601569"><ele>286.0</ele><time>2026-05-02T09:12:32Z</time></trkpt><trkpt lat="50.35063914546162" lon="16.133708394087364"><ele>286.0</ele><time>2026-05-02T09:12:33Z</time></trkpt><trkpt lat="50.350712267224644" lon="16.133766995347756"><ele>286.0</ele><time>2026-05-02T09:12:34Z</time></trkpt><trkpt lat="50.35079470638745" lon="16.133840158548132"><ele>286.0</ele><time>2026-05-02T09:12:35Z</time></trkpt><trkpt lat="50.350878026100524" lon="16.133917918949802"><ele>286.0</ele><time>2026-05-02T09:12:36Z</time></trkpt><trkpt lat="50.3509492011228" lon="16.1340158343615"><ele>286.0</ele><time>2026-05-02T09:12:37Z</time></trkpt><trkpt lat="50.35100802956303" lon="16.134123445839794"><ele>286.0</ele><time>2026-05-02T09:12:38Z</time></trkpt><trkpt lat="50.35107248619597" lon="16.13423073525365"><ele>286.0</ele><time>2026-05-02T09:12:39Z</time></trkpt><trkpt lat="50.35113706557379" lon="16.13433752372759"><ele>286.16666666666663</ele><time>2026-05-02T09:12:40Z</time></trkpt><trkpt lat="50.3511956976623" lon="16.134434503930386"><ele>286.3333333333333</ele><time>2026-05-02T09:12:41Z</time></trkpt><trkpt lat="50.35124826438587" lon="16.134533783674247"><ele>286.5</ele><time>2026-05-02T09:12:42Z</time></trkpt><trkpt lat="50.35130552158279" lon="16.134632000395683"><ele>286.6666666666667</ele><time>2026-05-02T09:12:43Z</time></trkpt><trkpt lat="50.35136254554776" lon="16.134726097403142"><ele>286.83333333333337</ele><time>2026-05-02T09:12:43.999Z</time></trkpt><trkpt lat="50.351411815005875" lon="16.134792589477417"><ele>287.0</ele><time>2026-05-02T09:12:44.999Z</time></trkpt><trkpt lat="50.35146911749978" lon="16.134916303368335"><ele>288.2</ele><time>2026-05-02T09:12:46.999Z</time></trkpt><trkpt lat="50.351555418510394" lon="16.13504193716564"><ele>289.4</ele><time>2026-05-02T09:12:48.999Z</time></trkpt><trkpt lat="50.351610340634004" lon="16.135107645948015"><ele>290.6</ele><time>2026-05-02T09:12:50.999Z</time></trkpt><trkpt lat="50.35168805490641" lon="16.13516380399258"><ele>291.8</ele><time>2026-05-02T09:12:52.999Z</time></trkpt><trkpt lat="50.35176148613452" lon="16.135241820951588"><ele>293.0</ele><time>2026-05-02T09:12:54.999Z</time></trkpt><trkpt lat="50.351862577811474" lon="16.135302782957993"><ele>293.0</ele><time>2026-05-02T09:12:56.999Z</time></trkpt><trkpt lat="50.351931990146916" lon="16.135351835501694"><ele>293.0</ele><time>2026-05-02T09:12:57.999Z</time></trkpt><trkpt lat="50.352000348996945" lon="16.135393168983857"><ele>293.0</ele><time>2026-05-02T09:12:58.999Z</time></trkpt><trkpt lat="50.35206581845747" lon="16.13542119506067"><ele>293.0</ele><time>2026-05-02T09:12:59.999Z</time></trkpt><trkpt lat="50.352155936784065" lon="16.135495909598436"><ele>293.0</ele><time>2026-05-02T09:13:01.999Z</time></trkpt><trkpt lat="50.3522896618108" lon="16.135533012341792"><ele>294.0</ele><time>2026-05-02T09:13:03.999Z</time></trkpt><trkpt lat="50.352404651160946" lon="16.135525192391608"><ele>295.0</ele><time>2026-05-02T09:13:04.999Z</time></trkpt><trkpt lat="50.35254640174461" lon="16.13552082963861"><ele>296.0</ele><time>2026-05-02T09:13:05.999Z</time></trkpt><trkpt lat="50.35266910784631" lon="16.13553019023861"><ele>297.0</ele><time>2026-05-02T09:13:06.999Z</time></trkpt><trkpt lat="50.35277448979508" lon="16.13556316997646"><ele>297.0</ele><time>2026-05-02T09:13:07.999Z</time></trkpt><trkpt lat="50.35288596289264" lon="16.135579086007088"><ele>297.0</ele><time>2026-05-02T09:13:08.999Z</time></trkpt><trkpt lat="50.353000173786135" lon="16.13557440881357"><ele>297.0</ele><time>2026-05-02T09:13:10Z</time></trkpt><trkpt lat="50.35311264057025" lon="16.13559520698245"><ele>297.0</ele><time>2026-05-02T09:13:11Z</time></trkpt><trkpt lat="50.35322311835582" lon="16.13561323145023"><ele>297.5</ele><time>2026-05-02T09:13:12Z</time></trkpt><trkpt lat="50.353338566810365" lon="16.135634256560923"><ele>298.0</ele><time>2026-05-02T09:13:13Z</time></trkpt><trkpt lat="50.353455382961435" lon="16.135659074093866"><ele>298.5</ele><time>2026-05-02T09:13:14Z</time></trkpt><trkpt lat="50.35357127457466" lon="16.13568441775744"><ele>299.0</ele><time>2026-05-02T09:13:15Z</time></trkpt><trkpt lat="50.353680366874904" lon="16.135709159601877"><ele>299.0</ele><time>2026-05-02T09:13:16Z</time></trkpt><trkpt lat="50.35380345362331" lon="16.135720726300463"><ele>299.0</ele><time>2026-05-02T09:13:17Z</time></trkpt><trkpt lat="50.35394526568506" lon="16.135742809248153"><ele>299.0</ele><time>2026-05-02T09:13:18Z</time></trkpt><trkpt lat="50.35407875635008" lon="16.13576017812685"><ele>299.0</ele><time>2026-05-02T09:13:19Z</time></trkpt><trkpt lat="50.35420960155965" lon="16.135779869541352"><ele>300.0</ele><time>2026-05-02T09:13:20Z</time></trkpt><trkpt lat="50.354340424047706" lon="16.135803241009786"><ele>301.0</ele><time>2026-05-02T09:13:21Z</time></trkpt><trkpt lat="50.35447494587379" lon="16.13582088273844"><ele>302.0</ele><time>2026-05-02T09:13:22Z</time></trkpt><trkpt lat="50.35461204165731" lon="16.135841535237546"><ele>303.0</ele><time>2026-05-02T09:13:23Z</time></trkpt><trkpt lat="50.35475550845154" lon="16.135864225711423"><ele>303.5</ele><time>2026-05-02T09:13:24Z</time></trkpt><trkpt lat="50.3549033600943" lon="16.13588597430262"><ele>304.0</ele><time>2026-05-02T09:13:25Z</time></trkpt><trkpt lat="50.3550304267035" lon="16.135905434601753"><ele>304.5</ele><time>2026-05-02T09:13:26Z</time></trkpt><trkpt lat="50.35514881304338" lon="16.135915472708316"><ele>305.0</ele><time>2026-05-02T09:13:27Z</time></trkpt><trkpt lat="50.3552660767163" lon="16.13592763228941"><ele>305.0</ele><time>2026-05-02T09:13:28Z</time></trkpt><trkpt lat="50.35537425889476" lon="16.13593413300436"><ele>305.0</ele><time>2026-05-02T09:13:29Z</time></trkpt><trkpt lat="50.355462641494384" lon="16.135941303736224"><ele>305.0</ele><time>2026-05-02T09:13:30Z</time></trkpt><trkpt lat="50.35555616717858" lon="16.135945410703634"><ele>305.0</ele><time>2026-05-02T09:13:31Z</time></trkpt><trkpt lat="50.3556553405697" lon="16.135959849594045"><ele>305.0</ele><time>2026-05-02T09:13:32Z</time></trkpt><trkpt lat="50.355764596450264" lon="16.135966265971486"><ele>305.2</ele><time>2026-05-02T09:13:33Z</time></trkpt><trkpt lat="50.355876718513244" lon="16.135972086593085"><ele>305.4</ele><time>2026-05-02T09:13:34Z</time></trkpt><trkpt lat="50.355990647506594" lon="16.135987596578023"><ele>305.6</ele><time>2026-05-02T09:13:35Z</time></trkpt><trkpt lat="50.35609476685335" lon="16.13600331555548"><ele>305.8</ele><time>2026-05-02T09:13:36Z</time></trkpt><trkpt lat="50.35619125231073" lon="16.13600488922073"><ele>306.0</ele><time>2026-05-02T09:13:37Z</time></trkpt><trkpt lat="50.356300556331746" lon="16.13600600234037"><ele>306.6</ele><time>2026-05-02T09:13:38Z</time></trkpt><trkpt lat="50.356411220895865" lon="16.136009107409343"><ele>307.20000000000005</ele><time>2026-05-02T09:13:39Z</time></trkpt><trkpt lat="50.35652311568955" lon="16.136031460414564"><ele>307.79999999999995</ele><time>2026-05-02T09:13:40Z</time></trkpt><trkpt lat="50.35663175773281" lon="16.136044052066236"><ele>308.4</ele><time>2026-05-02T09:13:41Z</time></trkpt><trkpt lat="50.35674025225574" lon="16.136040311087854"><ele>309.0</ele><time>2026-05-02T09:13:42Z</time></trkpt><trkpt lat="50.35684455072175" lon="16.136011897745206"><ele>309.0</ele><time>2026-05-02T09:13:43Z</time></trkpt><trkpt lat="50.3569440160884" lon="16.135951100660883"><ele>309.0</ele><time>2026-05-02T09:13:44Z</time></trkpt><trkpt lat="50.35703478456482" lon="16.135858174024946"><ele>309.0</ele><time>2026-05-02T09:13:45Z</time></trkpt><trkpt lat="50.357130451042174" lon="16.135780747917497"><ele>309.0</ele><time>2026-05-02T09:13:46Z</time></trkpt><trkpt lat="50.35721891247577" lon="16.135694993059126"><ele>309.0</ele><time>2026-05-02T09:13:47Z</time></trkpt><trkpt lat="50.35730344160138" lon="16.13561580544561"><ele>309.0</ele><time>2026-05-02T09:13:48Z</time></trkpt><trkpt lat="50.35740080271184" lon="16.135618348785933"><ele>309.0</ele><time>2026-05-02T09:13:49Z</time></trkpt><trkpt lat="50.35749434693752" lon="16.13566911545025"><ele>309.0</ele><time>2026-05-02T09:13:50Z</time></trkpt><trkpt lat="50.357569367076024" lon="16.135751507284603"><ele>309.0</ele><time>2026-05-02T09:13:51Z</time></trkpt><trkpt lat="50.35762411992314" lon="16.135858999598085"><ele>309.0</ele><time>2026-05-02T09:13:52Z</time></trkpt><trkpt lat="50.35766854257871" lon="16.135989256310445"><ele>309.0</ele><time>2026-05-02T09:13:53Z</time></trkpt><trkpt lat="50.35769357129094" lon="16.136126977954866"><ele>309.0</ele><time>2026-05-02T09:13:54Z</time></trkpt><trkpt lat="50.3577034784241" lon="16.13625862708392"><ele>309.0</ele><time>2026-05-02T09:13:55Z</time></trkpt><trkpt lat="50.35770046599093" lon="16.13640249585141"><ele>309.0</ele><time>2026-05-02T09:13:56Z</time></trkpt><trkpt lat="50.35770271532149" lon="16.13652704544939"><ele>309.0</ele><time>2026-05-02T09:13:56.999Z</time></trkpt><trkpt lat="50.35771499365846" lon="16.13664794908371"><ele>309.0</ele><time>2026-05-02T09:13:57.999Z</time></trkpt><trkpt lat="50.35772857091569" lon="16.136783413009987"><ele>309.0</ele><time>2026-05-02T09:13:58.999Z</time></trkpt><trkpt lat="50.35776124548004" lon="16.13693073883096"><ele>309.0</ele><time>2026-05-02T09:13:59.999Z</time></trkpt><trkpt lat="50.35783236832076" lon="16.137065623727672"><ele>309.0</ele><time>2026-05-02T09:14:00.999Z</time></trkpt><trkpt lat="50.35793294672249" lon="16.13717405401416"><ele>309.0</ele><time>2026-05-02T09:14:01.999Z</time></trkpt><trkpt lat="50.35805475746068" lon="16.1372340215554"><ele>309.75</ele><time>2026-05-02T09:14:02.999Z</time></trkpt><trkpt lat="50.35817974664848" lon="16.137211887718724"><ele>310.5</ele><time>2026-05-02T09:14:03.999Z</time></trkpt><trkpt lat="50.35831563681805" lon="16.137127156288823"><ele>311.25</ele><time>2026-05-02T09:14:04.999Z</time></trkpt><trkpt lat="50.35845623811219" lon="16.137009089531986"><ele>312.0</ele><time>2026-05-02T09:14:05.999Z</time></trkpt><trkpt lat="50.3585867434024" lon="16.136964480561126"><ele>312.0</ele><time>2026-05-02T09:14:06.999Z</time></trkpt><trkpt lat="50.35872006704836" lon="16.13694903125003"><ele>312.0</ele><time>2026-05-02T09:14:07.999Z</time></trkpt><trkpt lat="50.3588634751962" lon="16.136998964530594"><ele>312.0</ele><time>2026-05-02T09:14:08.999Z</time></trkpt><trkpt lat="50.35902193638357" lon="16.137058355615366"><ele>312.0</ele><time>2026-05-02T09:14:09.999Z</time></trkpt><trkpt lat="50.359173532023895" lon="16.137162118868"><ele>312.0</ele><time>2026-05-02T09:14:10.999Z</time></trkpt><trkpt lat="50.359324676098026" lon="16.13725501250424"><ele>312.0</ele><time>2026-05-02T09:14:11.999Z</time></trkpt><trkpt lat="50.359476264415676" lon="16.137341101694656"><ele>312.0</ele><time>2026-05-02T09:14:12.999Z</time></trkpt><trkpt lat="50.359637836347105" lon="16.137427622393698"><ele>312.0</ele><time>2026-05-02T09:14:13.999Z</time></trkpt><trkpt lat="50.35981284437858" lon="16.137521082093905"><ele>312.0</ele><time>2026-05-02T09:14:14.999Z</time></trkpt><trkpt lat="50.35999600943915" lon="16.13762471966839"><ele>312.0</ele><time>2026-05-02T09:14:15.999Z</time></trkpt><trkpt lat="50.36017757257" lon="16.137727681038726"><ele>312.0</ele><time>2026-05-02T09:14:16.999Z</time></trkpt><trkpt lat="50.36035018781826" lon="16.13782755667369"><ele>312.0</ele><time>2026-05-02T09:14:17.999Z</time></trkpt><trkpt lat="50.36052205695045" lon="16.13792265251378"><ele>312.0</ele><time>2026-05-02T09:14:18.999Z</time></trkpt><trkpt lat="50.360690788884206" lon="16.138020986366318"><ele>312.0</ele><time>2026-05-02T09:14:19.999Z</time></trkpt><trkpt lat="50.36087451928864" lon="16.138124610912566"><ele>312.0</ele><time>2026-05-02T09:14:20.999Z</time></trkpt><trkpt lat="50.36109961462622" lon="16.13826787656214"><ele>312.0</ele><time>2026-05-02T09:14:21.999Z</time></trkpt><trkpt lat="50.36135374891111" lon="16.138412840453693"><ele>313.0</ele><time>2026-05-02T09:14:22.999Z</time></trkpt><trkpt lat="50.361609749573574" lon="16.138533903545294"><ele>314.0</ele><time>2026-05-02T09:14:23.999Z</time></trkpt><trkpt lat="50.36181680952533" lon="16.138671661058194"><ele>314.0</ele><time>2026-05-02T09:14:24.999Z</time></trkpt><trkpt lat="50.362006104321104" lon="16.138783228213764"><ele>314.0</ele><time>2026-05-02T09:14:25.999Z</time></trkpt><trkpt lat="50.362182180814784" lon="16.13888107707425"><ele>314.0</ele><time>2026-05-02T09:14:26.999Z</time></trkpt><trkpt lat="50.36234463800591" lon="16.138970742298564"><ele>315.33333333333337</ele><time>2026-05-02T09:14:27.999Z</time></trkpt><trkpt lat="50.362499342486444" lon="16.139058739808327"><ele>316.6666666666667</ele><time>2026-05-02T09:14:28.999Z</time></trkpt><trkpt lat="50.362656621498864" lon="16.139158305358354"><ele>318.0</ele><time>2026-05-02T09:14:29.999Z</time></trkpt><trkpt lat="50.362818434401" lon="16.139269018580332"><ele>318.0</ele><time>2026-05-02T09:14:30.999Z</time></trkpt><trkpt lat="50.36296760423529" lon="16.139363874839468"><ele>318.0</ele><time>2026-05-02T09:14:31.999Z</time></trkpt><trkpt lat="50.36310587531538" lon="16.139453607782492"><ele>318.0</ele><time>2026-05-02T09:14:32.999Z</time></trkpt><trkpt lat="50.363247097221624" lon="16.139546775235786"><ele>318.3333333333333</ele><time>2026-05-02T09:14:33.999Z</time></trkpt><trkpt lat="50.36338735736413" lon="16.13963637885944"><ele>318.66666666666663</ele><time>2026-05-02T09:14:34.999Z</time></trkpt><trkpt lat="50.36352528393473" lon="16.139722196019214"><ele>319.0</ele><time>2026-05-02T09:14:35.999Z</time></trkpt><trkpt lat="50.363665102519874" lon="16.1398087936805"><ele>319.66666666666663</ele><time>2026-05-02T09:14:36.999Z</time></trkpt><trkpt lat="50.36380374021047" lon="16.139900026833597"><ele>320.3333333333333</ele><time>2026-05-02T09:14:37.999Z</time></trkpt><trkpt lat="50.363943011853664" lon="16.139995704114785"><ele>321.0</ele><time>2026-05-02T09:14:38.999Z</time></trkpt><trkpt lat="50.364086317225386" lon="16.14009286610679"><ele>321.0</ele><time>2026-05-02T09:14:39.999Z</time></trkpt><trkpt lat="50.36422167778842" lon="16.140179380334654"><ele>321.0</ele><time>2026-05-02T09:14:40.999Z</time></trkpt><trkpt lat="50.36434794414156" lon="16.140242280677167"><ele>321.0</ele><time>2026-05-02T09:14:41.999Z</time></trkpt><trkpt lat="50.36446246301694" lon="16.140304117697873"><ele>321.0</ele><time>2026-05-02T09:14:42.999Z</time></trkpt><trkpt lat="50.36456693679259" lon="16.140375533966065"><ele>321.0</ele><time>2026-05-02T09:14:43.999Z</time></trkpt><trkpt lat="50.3646638121782" lon="16.140438386118383"><ele>321.0</ele><time>2026-05-02T09:14:44.999Z</time></trkpt><trkpt lat="50.36475561274557" lon="16.140493961215707"><ele>321.0</ele><time>2026-05-02T09:14:45.999Z</time></trkpt><trkpt lat="50.36483708657881" lon="16.140550380516483"><ele>321.0</ele><time>2026-05-02T09:14:46.999Z</time></trkpt><trkpt lat="50.364919445128116" lon="16.14060587514138"><ele>321.0</ele><time>2026-05-02T09:14:47.999Z</time></trkpt><trkpt lat="50.36501445482119" lon="16.140665561242663"><ele>321.25</ele><time>2026-05-02T09:14:48.999Z</time></trkpt><trkpt lat="50.36511835494142" lon="16.140735878835255"><ele>321.5</ele><time>2026-05-02T09:14:49.999Z</time></trkpt><trkpt lat="50.36522807093185" lon="16.140802834006724"><ele>321.75</ele><time>2026-05-02T09:14:50.999Z</time></trkpt><trkpt lat="50.365341447862555" lon="16.140863511354596"><ele>322.0</ele><time>2026-05-02T09:14:51.999Z</time></trkpt><trkpt lat="50.36545445715759" lon="16.14091322996912"><ele>322.25</ele><time>2026-05-02T09:14:52.999Z</time></trkpt><trkpt lat="50.36556763780691" lon="16.140961211666205"><ele>322.5</ele><time>2026-05-02T09:14:53.999Z</time></trkpt><trkpt lat="50.36567668279296" lon="16.141018359020716"><ele>322.75</ele><time>2026-05-02T09:14:54.999Z</time></trkpt><trkpt lat="50.365784175850735" lon="16.141074052927852"><ele>323.0</ele><time>2026-05-02T09:14:55.999Z</time></trkpt><trkpt lat="50.365892015061526" lon="16.14112710563083"><ele>323.0</ele><time>2026-05-02T09:14:56.999Z</time></trkpt><trkpt lat="50.36600185374857" lon="16.14117673381883"><ele>323.0</ele><time>2026-05-02T09:14:57.999Z</time></trkpt><trkpt lat="50.3660996016593" lon="16.141222626564662"><ele>323.0</ele><time>2026-05-02T09:14:58.999Z</time></trkpt><trkpt lat="50.36618959980624" lon="16.141262952605537"><ele>323.0</ele><time>2026-05-02T09:14:59.999Z</time></trkpt><trkpt lat="50.366275377015725" lon="16.14129441040816"><ele>323.0</ele><time>2026-05-02T09:15:00.999Z</time></trkpt><trkpt lat="50.366360731411845" lon="16.14131379003228"><ele>323.1666666666667</ele><time>2026-05-02T09:15:01.999Z</time></trkpt><trkpt lat="50.366442933691204" lon="16.14133703857953"><ele>323.33333333333337</ele><time>2026-05-02T09:15:02.999Z</time></trkpt><trkpt lat="50.36652427088221" lon="16.14134771221692"><ele>323.5</ele><time>2026-05-02T09:15:03.999Z</time></trkpt><trkpt lat="50.366600301632346" lon="16.14136700522178"><ele>323.6666666666667</ele><time>2026-05-02T09:15:04.999Z</time></trkpt><trkpt lat="50.3666767214494" lon="16.141421132818785"><ele>323.8333333333333</ele><time>2026-05-02T09:15:05.999Z</time></trkpt><trkpt lat="50.366745219461045" lon="16.141535450660452"><ele>324.0</ele><time>2026-05-02T09:15:06.999Z</time></trkpt><trkpt lat="50.36679327940914" lon="16.141694339913798"><ele>324.75</ele><time>2026-05-02T09:15:07.999Z</time></trkpt><trkpt lat="50.36680693196404" lon="16.141877953155362"><ele>325.5</ele><time>2026-05-02T09:15:08.999Z</time></trkpt><trkpt lat="50.366792214978474" lon="16.14207685466724"><ele>326.25</ele><time>2026-05-02T09:15:09.999Z</time></trkpt><trkpt lat="50.36676955038023" lon="16.14227133963963"><ele>327.0</ele><time>2026-05-02T09:15:10.999Z</time></trkpt><trkpt lat="50.366767646713114" lon="16.142439590720954"><ele>327.6</ele><time>2026-05-02T09:15:11.999Z</time></trkpt><trkpt lat="50.36677235926865" lon="16.142582031457074"><ele>328.20000000000005</ele><time>2026-05-02T09:15:12.999Z</time></trkpt><trkpt lat="50.366777341957125" lon="16.14272382609906"><ele>328.8</ele><time>2026-05-02T09:15:13.999Z</time></trkpt><trkpt lat="50.3667849285495" lon="16.142864671677117"><ele>329.4</ele><time>2026-05-02T09:15:14.999Z</time></trkpt><trkpt lat="50.36679861525748" lon="16.1430035389775"><ele>330.0</ele><time>2026-05-02T09:15:16Z</time></trkpt><trkpt lat="50.366816919365164" lon="16.143139981449128"><ele>330.6666666666667</ele><time>2026-05-02T09:15:17Z</time></trkpt><trkpt lat="50.366842895098216" lon="16.14326457441355"><ele>331.3333333333333</ele><time>2026-05-02T09:15:18Z</time></trkpt><trkpt lat="50.36687169175613" lon="16.14336235823893"><ele>332.0</ele><time>2026-05-02T09:15:19Z</time></trkpt><trkpt lat="50.3669055008209" lon="16.143492221382598"><ele>332.66666666666663</ele><time>2026-05-02T09:15:21Z</time></trkpt><trkpt lat="50.36692609039238" lon="16.14360124549265"><ele>333.3333333333333</ele><time>2026-05-02T09:15:24Z</time></trkpt><trkpt lat="50.36695025607332" lon="16.143711166075796"><ele>334.0</ele><time>2026-05-02T09:15:27Z</time></trkpt><trkpt lat="50.36696422297033" lon="16.143863967253132"><ele>334.0</ele><time>2026-05-02T09:15:29Z</time></trkpt><trkpt lat="50.36696578167412" lon="16.14397435089489"><ele>334.0</ele><time>2026-05-02T09:15:30Z</time></trkpt><trkpt lat="50.36705578707871" lon="16.144073729303454"><ele>334.0</ele><time>2026-05-02T09:15:32Z</time></trkpt><trkpt lat="50.36712886273267" lon="16.144055978436285"><ele>334.0</ele><time>2026-05-02T09:15:33Z</time></trkpt><trkpt lat="50.36721204719387" lon="16.144031950229344"><ele>334.0</ele><time>2026-05-02T09:15:34Z</time></trkpt><trkpt lat="50.36730707017814" lon="16.144086133940707"><ele>334.0</ele><time>2026-05-02T09:15:35Z</time></trkpt><trkpt lat="50.36742897133791" lon="16.14413966260908"><ele>336.0</ele><time>2026-05-02T09:15:36Z</time></trkpt><trkpt lat="50.367566112438766" lon="16.144210435847672"><ele>338.0</ele><time>2026-05-02T09:15:37Z</time></trkpt><trkpt lat="50.36770146033178" lon="16.144278034433"><ele>340.0</ele><time>2026-05-02T09:15:38Z</time></trkpt><trkpt lat="50.3678111946091" lon="16.14434971870788"><ele>342.0</ele><time>2026-05-02T09:15:39Z</time></trkpt><trkpt lat="50.367903049047776" lon="16.144429940389315"><ele>342.0</ele><time>2026-05-02T09:15:40Z</time></trkpt><trkpt lat="50.36799609528097" lon="16.144528446032023"><ele>342.0</ele><time>2026-05-02T09:15:41Z</time></trkpt><trkpt lat="50.368083489891575" lon="16.14464650672902"><ele>342.0</ele><time>2026-05-02T09:15:42Z</time></trkpt><trkpt lat="50.36814415688503" lon="16.144770021045584"><ele>342.0</ele><time>2026-05-02T09:15:43Z</time></trkpt><trkpt lat="50.368212752895765" lon="16.144895286083443"><ele>342.0</ele><time>2026-05-02T09:15:44Z</time></trkpt><trkpt lat="50.36827639542759" lon="16.14502388230411"><ele>345.25</ele><time>2026-05-02T09:15:45Z</time></trkpt><trkpt lat="50.36835027724171" lon="16.145148729259223"><ele>348.5</ele><time>2026-05-02T09:15:46Z</time></trkpt><trkpt lat="50.36843349793581" lon="16.145265871915317"><ele>351.75</ele><time>2026-05-02T09:15:47Z</time></trkpt><trkpt lat="50.36853361453199" lon="16.145352033133822"><ele>355.0</ele><time>2026-05-02T09:15:48Z</time></trkpt><trkpt lat="50.368655067198745" lon="16.14539693369785"><ele>355.0</ele><time>2026-05-02T09:15:49Z</time></trkpt><trkpt lat="50.368788714222234" lon="16.145394919530425"><ele>355.0</ele><time>2026-05-02T09:15:50Z</time></trkpt><trkpt lat="50.368922911100086" lon="16.145419104928877"><ele>355.0</ele><time>2026-05-02T09:15:51Z</time></trkpt><trkpt lat="50.369070339950625" lon="16.145454551869925"><ele>355.0</ele><time>2026-05-02T09:15:52Z</time></trkpt><trkpt lat="50.36922916915902" lon="16.145488316099332"><ele>355.75</ele><time>2026-05-02T09:15:53Z</time></trkpt><trkpt lat="50.369376727988545" lon="16.145516174690112"><ele>356.5</ele><time>2026-05-02T09:15:54Z</time></trkpt><trkpt lat="50.36950674739166" lon="16.14553029912157"><ele>357.25</ele><time>2026-05-02T09:15:55Z</time></trkpt><trkpt lat="50.36963985865425" lon="16.14555356734228"><ele>358.0</ele><time>2026-05-02T09:15:56Z</time></trkpt><trkpt lat="50.36976888694334" lon="16.14557932184023"><ele>358.25</ele><time>2026-05-02T09:15:57Z</time></trkpt><trkpt lat="50.369898569585345" lon="16.14559593497025"><ele>358.5</ele><time>2026-05-02T09:15:58Z</time></trkpt><trkpt lat="50.370026061888964" lon="16.145610082368936"><ele>358.75</ele><time>2026-05-02T09:15:59Z</time></trkpt><trkpt lat="50.37014229129292" lon="16.14562576058586"><ele>359.0</ele><time>2026-05-02T09:16:00Z</time></trkpt><trkpt lat="50.37024591256419" lon="16.145641830714904"><ele>359.0</ele><time>2026-05-02T09:16:01Z</time></trkpt><trkpt lat="50.37036911839394" lon="16.145676361499465"><ele>359.0</ele><time>2026-05-02T09:16:02Z</time></trkpt><trkpt lat="50.370486155026576" lon="16.145690526704907"><ele>359.0</ele><time>2026-05-02T09:16:03Z</time></trkpt><trkpt lat="50.370600430503416" lon="16.145704357782794"><ele>359.0</ele><time>2026-05-02T09:16:04Z</time></trkpt><trkpt lat="50.37072388492064" lon="16.145718178059557"><ele>360.5</ele><time>2026-05-02T09:16:05Z</time></trkpt><trkpt lat="50.37084678435197" lon="16.145732776409417"><ele>362.0</ele><time>2026-05-02T09:16:06Z</time></trkpt><trkpt lat="50.370982528421564" lon="16.14575022188198"><ele>363.5</ele><time>2026-05-02T09:16:07Z</time></trkpt><trkpt lat="50.37111587095046" lon="16.14576793952775"><ele>365.0</ele><time>2026-05-02T09:16:08Z</time></trkpt><trkpt lat="50.37123604079561" lon="16.145782917109223"><ele>366.0</ele><time>2026-05-02T09:16:09Z</time></trkpt><trkpt lat="50.371361218780386" lon="16.145789455819063"><ele>367.0</ele><time>2026-05-02T09:16:10Z</time></trkpt><trkpt lat="50.37150451343859" lon="16.145805628024352"><ele>368.0</ele><time>2026-05-02T09:16:11Z</time></trkpt><trkpt lat="50.37164330088384" lon="16.145818426543745"><ele>369.0</ele><time>2026-05-02T09:16:12Z</time></trkpt><trkpt lat="50.37182579170355" lon="16.145838623292235"><ele>369.0</ele><time>2026-05-02T09:16:12.999Z</time></trkpt><trkpt lat="50.372057539608605" lon="16.14588366897619"><ele>369.0</ele><time>2026-05-02T09:16:13.999Z</time></trkpt><trkpt lat="50.37231329067874" lon="16.145914135013115"><ele>370.0</ele><time>2026-05-02T09:16:14.999Z</time></trkpt><trkpt lat="50.37258280566422" lon="16.145947494811544"><ele>371.0</ele><time>2026-05-02T09:16:15.999Z</time></trkpt><trkpt lat="50.37282490986729" lon="16.145975997738756"><ele>372.5</ele><time>2026-05-02T09:16:16.999Z</time></trkpt><trkpt lat="50.37307788864384" lon="16.14600783745078"><ele>374.0</ele><time>2026-05-02T09:16:17.999Z</time></trkpt><trkpt lat="50.37334237155275" lon="16.146016251810426"><ele>374.0</ele><time>2026-05-02T09:16:18.999Z</time></trkpt><trkpt lat="50.37360334899324" lon="16.146068658105392"><ele>374.0</ele><time>2026-05-02T09:16:19.999Z</time></trkpt><trkpt lat="50.373867247514724" lon="16.146102814010778"><ele>375.5</ele><time>2026-05-02T09:16:20.999Z</time></trkpt><trkpt lat="50.37411883793603" lon="16.146131041309246"><ele>377.0</ele><time>2026-05-02T09:16:21.999Z</time></trkpt><trkpt lat="50.37436465631104" lon="16.14616330840693"><ele>377.0</ele><time>2026-05-02T09:16:22.999Z</time></trkpt><trkpt lat="50.37457361599901" lon="16.146189097167877"><ele>377.0</ele><time>2026-05-02T09:16:23.999Z</time></trkpt><trkpt lat="50.37476152595136" lon="16.146210887708786"><ele>377.0</ele><time>2026-05-02T09:16:24.999Z</time></trkpt><trkpt lat="50.37494764856322" lon="16.146230969300323"><ele>378.6666666666667</ele><time>2026-05-02T09:16:25.999Z</time></trkpt><trkpt lat="50.37513781691041" lon="16.146249246038032"><ele>380.3333333333333</ele><time>2026-05-02T09:16:26.999Z</time></trkpt><trkpt lat="50.375310568724494" lon="16.14625947784487"><ele>382.0</ele><time>2026-05-02T09:16:27.999Z</time></trkpt><trkpt lat="50.37546490689483" lon="16.146276159342264"><ele>383.25</ele><time>2026-05-02T09:16:28.999Z</time></trkpt><trkpt lat="50.37560555505524" lon="16.146289241076907"><ele>384.5</ele><time>2026-05-02T09:16:29.999Z</time></trkpt><trkpt lat="50.375743379709846" lon="16.146288632016738"><ele>385.75</ele><time>2026-05-02T09:16:30.999Z</time></trkpt><trkpt lat="50.375856915045674" lon="16.14628316614411"><ele>387.0</ele><time>2026-05-02T09:16:31.999Z</time></trkpt><trkpt lat="50.375965467060276" lon="16.146300840253183"><ele>387.0</ele><time>2026-05-02T09:16:32.999Z</time></trkpt><trkpt lat="50.37605251090491" lon="16.146307824813825"><ele>387.0</ele><time>2026-05-02T09:16:33.999Z</time></trkpt><trkpt lat="50.37613153656589" lon="16.14631266933197"><ele>387.0</ele><time>2026-05-02T09:16:34.999Z</time></trkpt><trkpt lat="50.376238830284514" lon="16.146308595449273"><ele>387.0</ele><time>2026-05-02T09:16:36.999Z</time></trkpt><trkpt lat="50.37637605711975" lon="16.146293388846434"><ele>387.0</ele><time>2026-05-02T09:16:38.999Z</time></trkpt><trkpt lat="50.37646119737562" lon="16.14627597739255"><ele>388.6</ele><time>2026-05-02T09:16:39.999Z</time></trkpt><trkpt lat="50.37653618353569" lon="16.14626254345153"><ele>390.20000000000005</ele><time>2026-05-02T09:16:40.999Z</time></trkpt><trkpt lat="50.37664951053535" lon="16.146226917008377"><ele>391.8</ele><time>2026-05-02T09:16:42.999Z</time></trkpt><trkpt lat="50.376729907935285" lon="16.14621393133133"><ele>393.4</ele><time>2026-05-02T09:16:43.999Z</time></trkpt><trkpt lat="50.376849597282636" lon="16.146174951433117"><ele>395.0</ele><time>2026-05-02T09:16:44.999Z</time></trkpt><trkpt lat="50.37699577728656" lon="16.146124963724944"><ele>395.0</ele><time>2026-05-02T09:16:45.999Z</time></trkpt><trkpt lat="50.37715994883491" lon="16.146063934922246"><ele>395.0</ele><time>2026-05-02T09:16:46.999Z</time></trkpt><trkpt lat="50.37735302176544" lon="16.14597812320561"><ele>395.0</ele><time>2026-05-02T09:16:47.999Z</time></trkpt><trkpt lat="50.377575428651525" lon="16.145902868959368"><ele>398.5</ele><time>2026-05-02T09:16:48.999Z</time></trkpt><trkpt lat="50.37782242168854" lon="16.145810948799117"><ele>402.0</ele><time>2026-05-02T09:16:49.999Z</time></trkpt><trkpt lat="50.378090519582955" lon="16.145706652733708"><ele>404.0</ele><time>2026-05-02T09:16:50.999Z</time></trkpt><trkpt lat="50.37834240112799" lon="16.145588836962542"><ele>406.0</ele><time>2026-05-02T09:16:51.999Z</time></trkpt><trkpt lat="50.37855990529089" lon="16.145455760163074"><ele>406.0</ele><time>2026-05-02T09:16:52.999Z</time></trkpt><trkpt lat="50.378781887291936" lon="16.145284445938373"><ele>406.0</ele><time>2026-05-02T09:16:53.999Z</time></trkpt><trkpt lat="50.37899702596128" lon="16.14508706846832"><ele>407.5</ele><time>2026-05-02T09:16:54.999Z</time></trkpt><trkpt lat="50.37921321995205" lon="16.14487647804468"><ele>409.0</ele><time>2026-05-02T09:16:55.999Z</time></trkpt><trkpt lat="50.37942461255008" lon="16.144688634888315"><ele>409.0</ele><time>2026-05-02T09:16:56.999Z</time></trkpt><trkpt lat="50.37961171046464" lon="16.144518809908618"><ele>409.0</ele><time>2026-05-02T09:16:57.999Z</time></trkpt><trkpt lat="50.3798178568142" lon="16.144370806024796"><ele>409.0</ele><time>2026-05-02T09:16:58.999Z</time></trkpt><trkpt lat="50.380034751159485" lon="16.144271336153846"><ele>415.0</ele><time>2026-05-02T09:16:59.999Z</time></trkpt><trkpt lat="50.38025948680821" lon="16.144177480548066"><ele>421.0</ele><time>2026-05-02T09:17:00.999Z</time></trkpt><trkpt lat="50.38049944709106" lon="16.14408054294744"><ele>417.0</ele><time>2026-05-02T09:17:01.999Z</time></trkpt><trkpt lat="50.38074852665278" lon="16.144010058380143"><ele>413.0</ele><time>2026-05-02T09:17:02.999Z</time></trkpt><trkpt lat="50.380999322214784" lon="16.14398979238008"><ele>413.0</ele><time>2026-05-02T09:17:03.999Z</time></trkpt><trkpt lat="50.38125102690164" lon="16.14395678546473"><ele>413.0</ele><time>2026-05-02T09:17:04.999Z</time></trkpt><trkpt lat="50.38150607980299" lon="16.14392768383496"><ele>413.5</ele><time>2026-05-02T09:17:05.999Z</time></trkpt><trkpt lat="50.381765837630105" lon="16.143890882849195"><ele>414.0</ele><time>2026-05-02T09:17:06.999Z</time></trkpt><trkpt lat="50.3820301680183" lon="16.143858046621062"><ele>416.5</ele><time>2026-05-02T09:17:07.999Z</time></trkpt><trkpt lat="50.38231410892046" lon="16.143826062115927"><ele>419.0</ele><time>2026-05-02T09:17:08.999Z</time></trkpt><trkpt lat="50.382609331734145" lon="16.143793903909156"><ele>419.0</ele><time>2026-05-02T09:17:09.999Z</time></trkpt><trkpt lat="50.38290411042423" lon="16.14374985105239"><ele>419.0</ele><time>2026-05-02T09:17:10.999Z</time></trkpt><trkpt lat="50.383174488862906" lon="16.143710787524462"><ele>421.5</ele><time>2026-05-02T09:17:11.999Z</time></trkpt><trkpt lat="50.383436562197616" lon="16.143652974475568"><ele>424.0</ele><time>2026-05-02T09:17:12.999Z</time></trkpt><trkpt lat="50.38369803953709" lon="16.143583458629806"><ele>424.5</ele><time>2026-05-02T09:17:13.999Z</time></trkpt><trkpt lat="50.38395987554643" lon="16.143503750471023"><ele>425.0</ele><time>2026-05-02T09:17:14.999Z</time></trkpt><trkpt lat="50.38421771733083" lon="16.143419025136875"><ele>425.0</ele><time>2026-05-02T09:17:15.999Z</time></trkpt><trkpt lat="50.38446668058856" lon="16.143342737994896"><ele>425.0</ele><time>2026-05-02T09:17:16.999Z</time></trkpt><trkpt lat="50.38471431700182" lon="16.143266523260422"><ele>423.5</ele><time>2026-05-02T09:17:17.999Z</time></trkpt><trkpt lat="50.384967586154325" lon="16.14318572865513"><ele>422.0</ele><time>2026-05-02T09:17:18.999Z</time></trkpt><trkpt lat="50.385224089431574" lon="16.143106079006923"><ele>422.0</ele><time>2026-05-02T09:17:19.999Z</time></trkpt><trkpt lat="50.3854629875171" lon="16.143034996618347"><ele>422.0</ele><time>2026-05-02T09:17:20.999Z</time></trkpt><trkpt lat="50.38567847480168" lon="16.142955894679236"><ele>424.5</ele><time>2026-05-02T09:17:22Z</time></trkpt><trkpt lat="50.385897651557194" lon="16.14288182139679"><ele>427.0</ele><time>2026-05-02T09:17:23Z</time></trkpt><trkpt lat="50.38612332426417" lon="16.142806862400434"><ele>429.0</ele><time>2026-05-02T09:17:24Z</time></trkpt><trkpt lat="50.38634858910106" lon="16.142712446908646"><ele>431.0</ele><time>2026-05-02T09:17:25Z</time></trkpt><trkpt lat="50.386572151791285" lon="16.142599553287305"><ele>431.0</ele><time>2026-05-02T09:17:26Z</time></trkpt><trkpt lat="50.386782693434625" lon="16.14248583577639"><ele>431.0</ele><time>2026-05-02T09:17:27Z</time></trkpt><trkpt lat="50.38697402944397" lon="16.14238045519189"><ele>431.0</ele><time>2026-05-02T09:17:28Z</time></trkpt><trkpt lat="50.387153244729035" lon="16.14227908425352"><ele>429.66666666666663</ele><time>2026-05-02T09:17:29Z</time></trkpt><trkpt lat="50.38732319867919" lon="16.1421910111605"><ele>428.33333333333337</ele><time>2026-05-02T09:17:30Z</time></trkpt><trkpt lat="50.387485425046194" lon="16.142108354720666"><ele>427.0</ele><time>2026-05-02T09:17:31Z</time></trkpt><trkpt lat="50.38765729109582" lon="16.14201987659925"><ele>427.0</ele><time>2026-05-02T09:17:32Z</time></trkpt><trkpt lat="50.38783580157192" lon="16.141927509819418"><ele>427.0</ele><time>2026-05-02T09:17:33Z</time></trkpt><trkpt lat="50.38802292727999" lon="16.141835564210176"><ele>427.0</ele><time>2026-05-02T09:17:34Z</time></trkpt><trkpt lat="50.388227721444316" lon="16.14172822137716"><ele>427.0</ele><time>2026-05-02T09:17:35Z</time></trkpt><trkpt lat="50.388447311887234" lon="16.141635013755792"><ele>427.0</ele><time>2026-05-02T09:17:36Z</time></trkpt><trkpt lat="50.38867560347369" lon="16.141553276277612"><ele>427.0</ele><time>2026-05-02T09:17:37Z</time></trkpt><trkpt lat="50.388903540592786" lon="16.141486346606516"><ele>427.0</ele><time>2026-05-02T09:17:38Z</time></trkpt><trkpt lat="50.389129744765654" lon="16.141420726980208"><ele>427.0</ele><time>2026-05-02T09:17:39Z</time></trkpt><trkpt lat="50.38935203404575" lon="16.14135413379778"><ele>427.0</ele><time>2026-05-02T09:17:40Z</time></trkpt><trkpt lat="50.3895786186146" lon="16.141284414005362"><ele>433.0</ele><time>2026-05-02T09:17:41Z</time></trkpt><trkpt lat="50.38980564297145" lon="16.141213587792343"><ele>439.0</ele><time>2026-05-02T09:17:42Z</time></trkpt><trkpt lat="50.39003627708362" lon="16.14114025718709"><ele>439.0</ele><time>2026-05-02T09:17:43Z</time></trkpt><trkpt lat="50.390266212080455" lon="16.1410723508159"><ele>439.0</ele><time>2026-05-02T09:17:44Z</time></trkpt><trkpt lat="50.390498364988964" lon="16.140999004076914"><ele>444.5</ele><time>2026-05-02T09:17:45Z</time></trkpt><trkpt lat="50.39073112504308" lon="16.14092494334946"><ele>450.0</ele><time>2026-05-02T09:17:46Z</time></trkpt><trkpt lat="50.39096517796357" lon="16.14085168063676"><ele>450.0</ele><time>2026-05-02T09:17:47Z</time></trkpt><trkpt lat="50.39120556702898" lon="16.14077655366883"><ele>450.0</ele><time>2026-05-02T09:17:48Z</time></trkpt><trkpt lat="50.39144943348986" lon="16.140699483137343"><ele>447.0</ele><time>2026-05-02T09:17:49Z</time></trkpt><trkpt lat="50.391682287003924" lon="16.14062479155341"><ele>444.0</ele><time>2026-05-02T09:17:50Z</time></trkpt><trkpt lat="50.391918085995506" lon="16.140550914694455"><ele>444.0</ele><time>2026-05-02T09:17:51Z</time></trkpt><trkpt lat="50.39215944644064" lon="16.140472490216652"><ele>444.0</ele><time>2026-05-02T09:17:52Z</time></trkpt><trkpt lat="50.39240298143534" lon="16.140392069840757"><ele>444.5</ele><time>2026-05-02T09:17:53Z</time></trkpt><trkpt lat="50.39264541970163" lon="16.14032103604289"><ele>445.0</ele><time>2026-05-02T09:17:54Z</time></trkpt><trkpt lat="50.39289037760682" lon="16.14024891594317"><ele>444.5</ele><time>2026-05-02T09:17:55Z</time></trkpt><trkpt lat="50.39311756380585" lon="16.14018520010184"><ele>444.0</ele><time>2026-05-02T09:17:56Z</time></trkpt><trkpt lat="50.39333290204463" lon="16.140117808508386"><ele>444.0</ele><time>2026-05-02T09:17:57Z</time></trkpt><trkpt lat="50.393553165714195" lon="16.14003451553169"><ele>444.0</ele><time>2026-05-02T09:17:58Z</time></trkpt><trkpt lat="50.39377888707725" lon="16.13995444362336"><ele>440.0</ele><time>2026-05-02T09:17:59Z</time></trkpt><trkpt lat="50.394002794106754" lon="16.13987830831884"><ele>436.0</ele><time>2026-05-02T09:18:00Z</time></trkpt><trkpt lat="50.39423945473602" lon="16.139787825587927"><ele>436.0</ele><time>2026-05-02T09:18:01Z</time></trkpt><trkpt lat="50.3944763815566" lon="16.139692396674484"><ele>436.0</ele><time>2026-05-02T09:18:02Z</time></trkpt><trkpt lat="50.39471730707437" lon="16.13960117812947"><ele>436.5</ele><time>2026-05-02T09:18:03Z</time></trkpt><trkpt lat="50.394969266020446" lon="16.139498067859478"><ele>437.0</ele><time>2026-05-02T09:18:04Z</time></trkpt><trkpt lat="50.395215107026594" lon="16.139385811787434"><ele>437.0</ele><time>2026-05-02T09:18:05Z</time></trkpt><trkpt lat="50.39547162782439" lon="16.13927993174607"><ele>437.0</ele><time>2026-05-02T09:18:06Z</time></trkpt><trkpt lat="50.395722510406316" lon="16.139184358096188"><ele>438.0</ele><time>2026-05-02T09:18:07Z</time></trkpt><trkpt lat="50.395966702181255" lon="16.139089071801767"><ele>439.0</ele><time>2026-05-02T09:18:08Z</time></trkpt><trkpt lat="50.39621260658878" lon="16.138990420647946"><ele>437.0</ele><time>2026-05-02T09:18:09Z</time></trkpt><trkpt lat="50.39646257658281" lon="16.138903187256417"><ele>435.0</ele><time>2026-05-02T09:18:10Z</time></trkpt><trkpt lat="50.39671605048173" lon="16.138828325384416"><ele>435.0</ele><time>2026-05-02T09:18:11Z</time></trkpt><trkpt lat="50.39696022081351" lon="16.138770289009265"><ele>435.0</ele><time>2026-05-02T09:18:12Z</time></trkpt><trkpt lat="50.39717705214834" lon="16.138716937656568"><ele>435.66666666666663</ele><time>2026-05-02T09:18:13Z</time></trkpt><trkpt lat="50.39739001165896" lon="16.138667729346725"><ele>436.3333333333333</ele><time>2026-05-02T09:18:14Z</time></trkpt><trkpt lat="50.3975874775956" lon="16.138616418504856"><ele>437.0</ele><time>2026-05-02T09:18:15Z</time></trkpt><trkpt lat="50.39778580288151" lon="16.138554738043833"><ele>437.0</ele><time>2026-05-02T09:18:16Z</time></trkpt><trkpt lat="50.39797516264069" lon="16.138471186567852"><ele>437.0</ele><time>2026-05-02T09:18:17Z</time></trkpt><trkpt lat="50.39814294286447" lon="16.138363293425467"><ele>437.0</ele><time>2026-05-02T09:18:18Z</time></trkpt><trkpt lat="50.398306852961575" lon="16.138224193771425"><ele>436.3333333333333</ele><time>2026-05-02T09:18:19Z</time></trkpt><trkpt lat="50.39846176912252" lon="16.13806690837631"><ele>435.66666666666663</ele><time>2026-05-02T09:18:20Z</time></trkpt><trkpt lat="50.39860429613407" lon="16.137926546263134"><ele>435.0</ele><time>2026-05-02T09:18:21Z</time></trkpt><trkpt lat="50.398741063188496" lon="16.137798294111942"><ele>437.0</ele><time>2026-05-02T09:18:22Z</time></trkpt><trkpt lat="50.39888095188325" lon="16.137662849141442"><ele>439.0</ele><time>2026-05-02T09:18:23Z</time></trkpt><trkpt lat="50.39904392344991" lon="16.137539572828445"><ele>441.0</ele><time>2026-05-02T09:18:23.999Z</time></trkpt><trkpt lat="50.39923033862359" lon="16.13744722879686"><ele>439.0</ele><time>2026-05-02T09:18:24.999Z</time></trkpt><trkpt lat="50.399410775473214" lon="16.137385322212786"><ele>437.0</ele><time>2026-05-02T09:18:25.999Z</time></trkpt><trkpt lat="50.39959114535938" lon="16.137354100118355"><ele>435.0</ele><time>2026-05-02T09:18:26.999Z</time></trkpt><trkpt lat="50.39977352492549" lon="16.137342859724143"><ele>435.0</ele><time>2026-05-02T09:18:27.999Z</time></trkpt><trkpt lat="50.399957219332634" lon="16.13736158122005"><ele>435.0</ele><time>2026-05-02T09:18:28.999Z</time></trkpt><trkpt lat="50.40015045368702" lon="16.137406404044857"><ele>435.0</ele><time>2026-05-02T09:18:29.999Z</time></trkpt><trkpt lat="50.40034412084215" lon="16.137478870760802"><ele>436.0</ele><time>2026-05-02T09:18:30.999Z</time></trkpt><trkpt lat="50.400521517497985" lon="16.1375707693638"><ele>437.0</ele><time>2026-05-02T09:18:31.999Z</time></trkpt><trkpt lat="50.40068411428517" lon="16.1376744021788"><ele>438.0</ele><time>2026-05-02T09:18:32.999Z</time></trkpt><trkpt lat="50.40084918545572" lon="16.137774771901526"><ele>438.0</ele><time>2026-05-02T09:18:33.999Z</time></trkpt><trkpt lat="50.401023076109865" lon="16.13787306259351"><ele>438.0</ele><time>2026-05-02T09:18:34.999Z</time></trkpt><trkpt lat="50.40119621035163" lon="16.137970408341538"><ele>438.0</ele><time>2026-05-02T09:18:35.999Z</time></trkpt><trkpt lat="50.40136002587163" lon="16.138059132419116"><ele>436.66666666666663</ele><time>2026-05-02T09:18:36.999Z</time></trkpt><trkpt lat="50.4015149381654" lon="16.138145426248908"><ele>435.3333333333333</ele><time>2026-05-02T09:18:37.999Z</time></trkpt><trkpt lat="50.40166748283682" lon="16.13823472006423"><ele>434.0</ele><time>2026-05-02T09:18:38.999Z</time></trkpt><trkpt lat="50.40182358727316" lon="16.1383254403531"><ele>433.0</ele><time>2026-05-02T09:18:39.999Z</time></trkpt><trkpt lat="50.40197232431252" lon="16.138405867033097"><ele>432.0</ele><time>2026-05-02T09:18:40.999Z</time></trkpt><trkpt lat="50.40211688030333" lon="16.138485472468822"><ele>431.0</ele><time>2026-05-02T09:18:41.999Z</time></trkpt><trkpt lat="50.402268970412756" lon="16.138564747183803"><ele>431.0</ele><time>2026-05-02T09:18:42.999Z</time></trkpt><trkpt lat="50.402428631424385" lon="16.13864911437867"><ele>431.0</ele><time>2026-05-02T09:18:43.999Z</time></trkpt><trkpt lat="50.40260408400253" lon="16.138727142681024"><ele>431.0</ele><time>2026-05-02T09:18:44.999Z</time></trkpt><trkpt lat="50.402784865841035" lon="16.138797286578807"><ele>431.0</ele><time>2026-05-02T09:18:45.999Z</time></trkpt><trkpt lat="50.40297375446915" lon="16.13883942452895"><ele>431.0</ele><time>2026-05-02T09:18:46.999Z</time></trkpt><trkpt lat="50.40314779551356" lon="16.138862512890746"><ele>431.0</ele><time>2026-05-02T09:18:47.999Z</time></trkpt><trkpt lat="50.403310117272405" lon="16.13888241079212"><ele>428.3333333333333</ele><time>2026-05-02T09:18:48.999Z</time></trkpt><trkpt lat="50.40346319698181" lon="16.13890582387916"><ele>425.66666666666663</ele><time>2026-05-02T09:18:49.999Z</time></trkpt><trkpt lat="50.40361837462112" lon="16.138929996285324"><ele>423.0</ele><time>2026-05-02T09:18:50.999Z</time></trkpt><trkpt lat="50.40377549181717" lon="16.13895695091857"><ele>419.66666666666663</ele><time>2026-05-02T09:18:51.999Z</time></trkpt><trkpt lat="50.40393601910674" lon="16.138978932928794"><ele>416.3333333333333</ele><time>2026-05-02T09:18:52.999Z</time></trkpt><trkpt lat="50.40409783963216" lon="16.13900298002065"><ele>413.0</ele><time>2026-05-02T09:18:53.999Z</time></trkpt><trkpt lat="50.40426125649162" lon="16.139022546257323"><ele>413.0</ele><time>2026-05-02T09:18:54.999Z</time></trkpt><trkpt lat="50.40442394314749" lon="16.13903120628388"><ele>413.0</ele><time>2026-05-02T09:18:55.999Z</time></trkpt><trkpt lat="50.404581413247584" lon="16.139033595381377"><ele>413.0</ele><time>2026-05-02T09:18:56.999Z</time></trkpt><trkpt lat="50.40472924273379" lon="16.139020572358703"><ele>410.3333333333333</ele><time>2026-05-02T09:18:57.999Z</time></trkpt><trkpt lat="50.40488275783127" lon="16.138981773811572"><ele>407.66666666666663</ele><time>2026-05-02T09:18:58.999Z</time></trkpt><trkpt lat="50.40504215114988" lon="16.138932918119732"><ele>405.0</ele><time>2026-05-02T09:18:59.999Z</time></trkpt><trkpt lat="50.405202663677905" lon="16.138876140860976"><ele>405.0</ele><time>2026-05-02T09:19:00.999Z</time></trkpt><trkpt lat="50.405355349419935" lon="16.138813122405995"><ele>405.0</ele><time>2026-05-02T09:19:01.999Z</time></trkpt><trkpt lat="50.40549485675257" lon="16.138735652103914"><ele>405.0</ele><time>2026-05-02T09:19:02.999Z</time></trkpt><trkpt lat="50.40563413458454" lon="16.13867964102383"><ele>403.75</ele><time>2026-05-02T09:19:03.999Z</time></trkpt><trkpt lat="50.40575875685499" lon="16.138598051385195"><ele>402.5</ele><time>2026-05-02T09:19:04.999Z</time></trkpt><trkpt lat="50.4058972870025" lon="16.13858037367544"><ele>401.25</ele><time>2026-05-02T09:19:05.999Z</time></trkpt><trkpt lat="50.40602275065949" lon="16.138577239363975"><ele>400.0</ele><time>2026-05-02T09:19:06.999Z</time></trkpt><trkpt lat="50.40614004812093" lon="16.13863092532091"><ele>400.0</ele><time>2026-05-02T09:19:07.999Z</time></trkpt><trkpt lat="50.40626595950473" lon="16.138718726944585"><ele>400.0</ele><time>2026-05-02T09:19:08.999Z</time></trkpt><trkpt lat="50.40638617321405" lon="16.138897347240736"><ele>400.0</ele><time>2026-05-02T09:19:09.999Z</time></trkpt><trkpt lat="50.406498223183846" lon="16.13909918060842"><ele>399.25</ele><time>2026-05-02T09:19:10.999Z</time></trkpt><trkpt lat="50.40658434344277" lon="16.139258168675205"><ele>398.5</ele><time>2026-05-02T09:19:11.999Z</time></trkpt><trkpt lat="50.406680719043365" lon="16.1394025198178"><ele>397.75</ele><time>2026-05-02T09:19:12.999Z</time></trkpt><trkpt lat="50.40678878032487" lon="16.139561708344647"><ele>397.0</ele><time>2026-05-02T09:19:13.999Z</time></trkpt><trkpt lat="50.40688426148638" lon="16.139711195970275"><ele>397.0</ele><time>2026-05-02T09:19:14.999Z</time></trkpt><trkpt lat="50.406957892298735" lon="16.139874658800107"><ele>397.0</ele><time>2026-05-02T09:19:15.999Z</time></trkpt><trkpt lat="50.40701491271085" lon="16.140075945981543"><ele>397.0</ele><time>2026-05-02T09:19:16.999Z</time></trkpt><trkpt lat="50.40703058412093" lon="16.140287193168746"><ele>397.0</ele><time>2026-05-02T09:19:17.999Z</time></trkpt><trkpt lat="50.407019627245184" lon="16.140550639140283"><ele>394.0</ele><time>2026-05-02T09:19:18.999Z</time></trkpt><trkpt lat="50.407001401648046" lon="16.14091159924274"><ele>391.0</ele><time>2026-05-02T09:19:19.999Z</time></trkpt><trkpt lat="50.407007071503514" lon="16.141183613231195"><ele>388.0</ele><time>2026-05-02T09:19:20.999Z</time></trkpt><trkpt lat="50.40702250768625" lon="16.141380428888912"><ele>387.0</ele><time>2026-05-02T09:19:21.999Z</time></trkpt><trkpt lat="50.40703668852967" lon="16.141578432942847"><ele>386.0</ele><time>2026-05-02T09:19:22.999Z</time></trkpt><trkpt lat="50.407049758957974" lon="16.141766947622532"><ele>385.0</ele><time>2026-05-02T09:19:23.999Z</time></trkpt><trkpt lat="50.40705802606164" lon="16.141941892145386"><ele>384.0</ele><time>2026-05-02T09:19:24.999Z</time></trkpt><trkpt lat="50.407069612872625" lon="16.14212937076254"><ele>384.0</ele><time>2026-05-02T09:19:25.999Z</time></trkpt><trkpt lat="50.40708074787204" lon="16.142283711473237"><ele>384.0</ele><time>2026-05-02T09:19:26.999Z</time></trkpt><trkpt lat="50.407088952232904" lon="16.14241544122988"><ele>384.0</ele><time>2026-05-02T09:19:28Z</time></trkpt><trkpt lat="50.40710632572053" lon="16.14254734904527"><ele>384.0</ele><time>2026-05-02T09:19:29Z</time></trkpt><trkpt lat="50.407118400554225" lon="16.142681014509655"><ele>384.0</ele><time>2026-05-02T09:19:30Z</time></trkpt><trkpt lat="50.40722402174718" lon="16.142742564619365"><ele>382.4</ele><time>2026-05-02T09:19:31Z</time></trkpt><trkpt lat="50.40730476805773" lon="16.142765938865825"><ele>380.79999999999995</ele><time>2026-05-02T09:19:32Z</time></trkpt><trkpt lat="50.407396341164976" lon="16.14277753213367"><ele>379.20000000000005</ele><time>2026-05-02T09:19:33Z</time></trkpt><trkpt lat="50.40749799248583" lon="16.14279145258423"><ele>377.6</ele><time>2026-05-02T09:19:34Z</time></trkpt><trkpt lat="50.40759120921067" lon="16.142809967641362"><ele>376.0</ele><time>2026-05-02T09:19:35Z</time></trkpt><trkpt lat="50.40767283907283" lon="16.14288165044943"><ele>376.0</ele><time>2026-05-02T09:19:36Z</time></trkpt><trkpt lat="50.40770650821607" lon="16.142990462647596"><ele>376.0</ele><time>2026-05-02T09:19:37Z</time></trkpt><trkpt lat="50.40772614422269" lon="16.143103610033897"><ele>376.0</ele><time>2026-05-02T09:19:38Z</time></trkpt><trkpt lat="50.40778607539691" lon="16.14325775058163"><ele>376.0</ele><time>2026-05-02T09:19:40Z</time></trkpt><trkpt lat="50.407817975955766" lon="16.14335298604382"><ele>376.0</ele><time>2026-05-02T09:19:41Z</time></trkpt><trkpt lat="50.40776040752127" lon="16.14357624614861"><ele>375.25</ele><time>2026-05-02T09:19:42Z</time></trkpt><trkpt lat="50.40774922608789" lon="16.143792943485934"><ele>374.5</ele><time>2026-05-02T09:19:43Z</time></trkpt><trkpt lat="50.40773105714666" lon="16.144004400722245"><ele>373.75</ele><time>2026-05-02T09:19:44Z</time></trkpt><trkpt lat="50.40771533804371" lon="16.144208412159777"><ele>373.0</ele><time>2026-05-02T09:19:45Z</time></trkpt><trkpt lat="50.4076944661699" lon="16.144401247046886"><ele>372.25</ele><time>2026-05-02T09:19:46Z</time></trkpt><trkpt lat="50.40767053165054" lon="16.144604252493483"><ele>371.5</ele><time>2026-05-02T09:19:47Z</time></trkpt><trkpt lat="50.407637480310896" lon="16.144811014991983"><ele>370.75</ele><time>2026-05-02T09:19:48Z</time></trkpt><trkpt lat="50.40760897918878" lon="16.145017266642178"><ele>370.0</ele><time>2026-05-02T09:19:49Z</time></trkpt><trkpt lat="50.407571122546564" lon="16.14521606565343"><ele>369.0</ele><time>2026-05-02T09:19:50Z</time></trkpt><trkpt lat="50.40753096214705" lon="16.14541218479942"><ele>368.0</ele><time>2026-05-02T09:19:51Z</time></trkpt><trkpt lat="50.40748969555231" lon="16.145609011451562"><ele>367.0</ele><time>2026-05-02T09:19:52Z</time></trkpt><trkpt lat="50.407430489705106" lon="16.145825563767126"><ele>366.0</ele><time>2026-05-02T09:19:53Z</time></trkpt><trkpt lat="50.40737309067003" lon="16.14603803748378"><ele>365.5</ele><time>2026-05-02T09:19:54Z</time></trkpt><trkpt lat="50.407308859138574" lon="16.146247671130844"><ele>365.0</ele><time>2026-05-02T09:19:55Z</time></trkpt><trkpt lat="50.4072445158458" lon="16.146448592119565"><ele>364.5</ele><time>2026-05-02T09:19:56Z</time></trkpt><trkpt lat="50.407188241183945" lon="16.146634647569265"><ele>364.0</ele><time>2026-05-02T09:19:57Z</time></trkpt><trkpt lat="50.40712713115704" lon="16.146805156871032"><ele>363.4</ele><time>2026-05-02T09:19:58Z</time></trkpt><trkpt lat="50.40706290697064" lon="16.1469645535663"><ele>362.79999999999995</ele><time>2026-05-02T09:19:59Z</time></trkpt><trkpt lat="50.407004486723515" lon="16.147106753110297"><ele>362.20000000000005</ele><time>2026-05-02T09:20:00Z</time></trkpt><trkpt lat="50.4069456309467" lon="16.147249514617393"><ele>361.6</ele><time>2026-05-02T09:20:01Z</time></trkpt><trkpt lat="50.40688952145579" lon="16.147385643968576"><ele>361.0</ele><time>2026-05-02T09:20:02Z</time></trkpt><trkpt lat="50.40682863651313" lon="16.147535290949925"><ele>360.25</ele><time>2026-05-02T09:20:03Z</time></trkpt><trkpt lat="50.40676340282761" lon="16.147706647943814"><ele>359.5</ele><time>2026-05-02T09:20:04Z</time></trkpt><trkpt lat="50.40669513951933" lon="16.147880503746283"><ele>358.75</ele><time>2026-05-02T09:20:05Z</time></trkpt><trkpt lat="50.40662197481797" lon="16.148059648405773"><ele>358.0</ele><time>2026-05-02T09:20:06Z</time></trkpt><trkpt lat="50.406550655574435" lon="16.148238397390276"><ele>358.0</ele><time>2026-05-02T09:20:07Z</time></trkpt><trkpt lat="50.40649314479741" lon="16.148388602658112"><ele>358.0</ele><time>2026-05-02T09:20:08Z</time></trkpt><trkpt lat="50.40644188319252" lon="16.148531468246535"><ele>358.0</ele><time>2026-05-02T09:20:09Z</time></trkpt><trkpt lat="50.40639545600718" lon="16.14866474433734"><ele>358.0</ele><time>2026-05-02T09:20:10Z</time></trkpt><trkpt lat="50.40634796641846" lon="16.148825047863543"><ele>358.0</ele><time>2026-05-02T09:20:11Z</time></trkpt><trkpt lat="50.406301995861554" lon="16.149025646383624"><ele>358.0</ele><time>2026-05-02T09:20:12Z</time></trkpt><trkpt lat="50.406263139985704" lon="16.149241784028046"><ele>358.0</ele><time>2026-05-02T09:20:13Z</time></trkpt><trkpt lat="50.40623375393073" lon="16.149482326946398"><ele>358.0</ele><time>2026-05-02T09:20:14Z</time></trkpt><trkpt lat="50.40621895770543" lon="16.149700876657008"><ele>358.0</ele><time>2026-05-02T09:20:15Z</time></trkpt><trkpt lat="50.40621835153445" lon="16.149890144881404"><ele>358.0</ele><time>2026-05-02T09:20:16Z</time></trkpt><trkpt lat="50.4062176364959" lon="16.150052563390968"><ele>358.0</ele><time>2026-05-02T09:20:17Z</time></trkpt><trkpt lat="50.40621831603361" lon="16.15022531265578"><ele>358.0</ele><time>2026-05-02T09:20:18Z</time></trkpt><trkpt lat="50.40622932058706" lon="16.150418763075947"><ele>358.0</ele><time>2026-05-02T09:20:19Z</time></trkpt><trkpt lat="50.40625033889501" lon="16.150635098056323"><ele>357.0</ele><time>2026-05-02T09:20:20Z</time></trkpt><trkpt lat="50.40627421640414" lon="16.150842531385283"><ele>356.0</ele><time>2026-05-02T09:20:21Z</time></trkpt><trkpt lat="50.40629881693127" lon="16.151027097224688"><ele>355.0</ele><time>2026-05-02T09:20:22Z</time></trkpt><trkpt lat="50.40632562490528" lon="16.15121156926128"><ele>354.0</ele><time>2026-05-02T09:20:23Z</time></trkpt><trkpt lat="50.40635914044749" lon="16.151410046264704"><ele>354.5</ele><time>2026-05-02T09:20:24Z</time></trkpt><trkpt lat="50.406395546374235" lon="16.151619368579976"><ele>355.0</ele><time>2026-05-02T09:20:25Z</time></trkpt><trkpt lat="50.40642731560509" lon="16.151831431066373"><ele>355.5</ele><time>2026-05-02T09:20:26Z</time></trkpt><trkpt lat="50.40646103753045" lon="16.152048023921264"><ele>356.0</ele><time>2026-05-02T09:20:27Z</time></trkpt><trkpt lat="50.40649832907993" lon="16.152267839573128"><ele>354.25</ele><time>2026-05-02T09:20:28Z</time></trkpt><trkpt lat="50.40653549672739" lon="16.15248811321465"><ele>352.5</ele><time>2026-05-02T09:20:29Z</time></trkpt><trkpt lat="50.40657500826887" lon="16.152681403659454"><ele>350.75</ele><time>2026-05-02T09:20:30Z</time></trkpt><trkpt lat="50.40662160592344" lon="16.15287346266011"><ele>349.0</ele><time>2026-05-02T09:20:31Z</time></trkpt><trkpt lat="50.40667124589824" lon="16.1530635855907"><ele>349.25</ele><time>2026-05-02T09:20:32Z</time></trkpt><trkpt lat="50.4067179131267" lon="16.153244353988995"><ele>349.5</ele><time>2026-05-02T09:20:33Z</time></trkpt><trkpt lat="50.40675977419814" lon="16.153424074686125"><ele>349.75</ele><time>2026-05-02T09:20:34Z</time></trkpt><trkpt lat="50.4068032267233" lon="16.15359921628833"><ele>350.0</ele><time>2026-05-02T09:20:35Z</time></trkpt><trkpt lat="50.40684704199318" lon="16.1537610239701"><ele>350.0</ele><time>2026-05-02T09:20:36Z</time></trkpt><trkpt lat="50.4068874356338" lon="16.153916791179267"><ele>350.0</ele><time>2026-05-02T09:20:37Z</time></trkpt><trkpt lat="50.406922661909604" lon="16.154060927121805"><ele>350.0</ele><time>2026-05-02T09:20:38Z</time></trkpt><trkpt lat="50.4069589813753" lon="16.154195994660405"><ele>350.0</ele><time>2026-05-02T09:20:39Z</time></trkpt><trkpt lat="50.40699574066582" lon="16.154326584308635"><ele>350.0</ele><time>2026-05-02T09:20:40Z</time></trkpt><trkpt lat="50.4070348035397" lon="16.154465463300856"><ele>349.5</ele><time>2026-05-02T09:20:41Z</time></trkpt><trkpt lat="50.40707684229998" lon="16.154616146017208"><ele>349.0</ele><time>2026-05-02T09:20:42Z</time></trkpt><trkpt lat="50.40712193603305" lon="16.154785456808437"><ele>348.5</ele><time>2026-05-02T09:20:43Z</time></trkpt><trkpt lat="50.40716987494825" lon="16.154965404666832"><ele>348.0</ele><time>2026-05-02T09:20:44Z</time></trkpt><trkpt lat="50.40722010453659" lon="16.155153979442215"><ele>348.0</ele><time>2026-05-02T09:20:45Z</time></trkpt><trkpt lat="50.40727256028239" lon="16.15535924764104"><ele>348.0</ele><time>2026-05-02T09:20:46Z</time></trkpt><trkpt lat="50.40732784081007" lon="16.15556349037728"><ele>348.0</ele><time>2026-05-02T09:20:47Z</time></trkpt><trkpt lat="50.407386197702216" lon="16.155780447496536"><ele>348.0</ele><time>2026-05-02T09:20:48Z</time></trkpt><trkpt lat="50.407446353135754" lon="16.15600374871145"><ele>348.0</ele><time>2026-05-02T09:20:49Z</time></trkpt><trkpt lat="50.40750710850315" lon="16.15622764471921"><ele>348.0</ele><time>2026-05-02T09:20:50Z</time></trkpt><trkpt lat="50.40756738822468" lon="16.156449650461674"><ele>348.0</ele><time>2026-05-02T09:20:51Z</time></trkpt><trkpt lat="50.40761905107287" lon="16.156655623680187"><ele>347.0</ele><time>2026-05-02T09:20:52Z</time></trkpt><trkpt lat="50.40766876521496" lon="16.15684713564706"><ele>346.0</ele><time>2026-05-02T09:20:52.999Z</time></trkpt><trkpt lat="50.407721530127404" lon="16.157019985516307"><ele>345.0</ele><time>2026-05-02T09:20:53.999Z</time></trkpt><trkpt lat="50.40777491874733" lon="16.157185646560716"><ele>344.0</ele><time>2026-05-02T09:20:54.999Z</time></trkpt><trkpt lat="50.407842277781626" lon="16.15735962825636"><ele>343.75</ele><time>2026-05-02T09:20:55.999Z</time></trkpt><trkpt lat="50.40791204633025" lon="16.15753954585633"><ele>343.5</ele><time>2026-05-02T09:20:56.999Z</time></trkpt><trkpt lat="50.40798191023497" lon="16.157700179014903"><ele>343.25</ele><time>2026-05-02T09:20:57.999Z</time></trkpt><trkpt lat="50.40805620268089" lon="16.157849146818272"><ele>343.0</ele><time>2026-05-02T09:20:58.999Z</time></trkpt><trkpt lat="50.40813289844067" lon="16.1579937912521"><ele>343.0</ele><time>2026-05-02T09:20:59.999Z</time></trkpt><trkpt lat="50.4082101215491" lon="16.158137596158213"><ele>343.0</ele><time>2026-05-02T09:21:00.999Z</time></trkpt><trkpt lat="50.40828472608689" lon="16.158279247418182"><ele>343.0</ele><time>2026-05-02T09:21:01.999Z</time></trkpt><trkpt lat="50.40835971397898" lon="16.158419581075716"><ele>343.0</ele><time>2026-05-02T09:21:02.999Z</time></trkpt><trkpt lat="50.408436649306005" lon="16.15855641552313"><ele>342.59999999999997</ele><time>2026-05-02T09:21:03.999Z</time></trkpt><trkpt lat="50.40851261515311" lon="16.15867407252916"><ele>342.2</ele><time>2026-05-02T09:21:04.999Z</time></trkpt><trkpt lat="50.40858352384426" lon="16.15877764616073"><ele>341.8</ele><time>2026-05-02T09:21:05.999Z</time></trkpt><trkpt lat="50.40865352005796" lon="16.158879485351804"><ele>341.4</ele><time>2026-05-02T09:21:06.999Z</time></trkpt><trkpt lat="50.4087281250285" lon="16.158990672320225"><ele>341.0</ele><time>2026-05-02T09:21:07.999Z</time></trkpt><trkpt lat="50.40880454957689" lon="16.159104829043045"><ele>341.0</ele><time>2026-05-02T09:21:08.999Z</time></trkpt><trkpt lat="50.40888566933319" lon="16.159215723121157"><ele>341.0</ele><time>2026-05-02T09:21:09.999Z</time></trkpt><trkpt lat="50.40896587721106" lon="16.159321863574206"><ele>341.0</ele><time>2026-05-02T09:21:10.999Z</time></trkpt><trkpt lat="50.409041331460244" lon="16.15943069243258"><ele>341.0</ele><time>2026-05-02T09:21:11.999Z</time></trkpt><trkpt lat="50.40912032646216" lon="16.1595400990097"><ele>341.0</ele><time>2026-05-02T09:21:12.999Z</time></trkpt><trkpt lat="50.40920143149382" lon="16.159651876617627"><ele>341.0</ele><time>2026-05-02T09:21:13.999Z</time></trkpt><trkpt lat="50.40928702463573" lon="16.159763892550806"><ele>341.0</ele><time>2026-05-02T09:21:14.999Z</time></trkpt><trkpt lat="50.40937155076053" lon="16.15987839296594"><ele>341.0</ele><time>2026-05-02T09:21:15.999Z</time></trkpt><trkpt lat="50.40944754512069" lon="16.159984101570775"><ele>341.0</ele><time>2026-05-02T09:21:16.999Z</time></trkpt><trkpt lat="50.409517445945575" lon="16.160081712566694"><ele>341.0</ele><time>2026-05-02T09:21:17.999Z</time></trkpt><trkpt lat="50.409584498263186" lon="16.160172475110436"><ele>341.0</ele><time>2026-05-02T09:21:18.999Z</time></trkpt><trkpt lat="50.40965246673552" lon="16.160262063830018"><ele>341.0</ele><time>2026-05-02T09:21:19.999Z</time></trkpt><trkpt lat="50.409718336744426" lon="16.16035631894188"><ele>341.0</ele><time>2026-05-02T09:21:20.999Z</time></trkpt><trkpt lat="50.40978283747974" lon="16.160446691142166"><ele>341.0</ele><time>2026-05-02T09:21:21.999Z</time></trkpt><trkpt lat="50.409852531532835" lon="16.160536818787627"><ele>341.0</ele><time>2026-05-02T09:21:22.999Z</time></trkpt><trkpt lat="50.40992395038631" lon="16.160623867303254"><ele>341.0</ele><time>2026-05-02T09:21:23.999Z</time></trkpt><trkpt lat="50.40999346492352" lon="16.160708382685424"><ele>341.0</ele><time>2026-05-02T09:21:24.999Z</time></trkpt><trkpt lat="50.41005327195922" lon="16.16078219027363"><ele>341.0</ele><time>2026-05-02T09:21:25.999Z</time></trkpt><trkpt lat="50.41011189039677" lon="16.16085142543692"><ele>341.0</ele><time>2026-05-02T09:21:26.999Z</time></trkpt><trkpt lat="50.41016257366735" lon="16.16092181865718"><ele>341.0</ele><time>2026-05-02T09:21:27.999Z</time></trkpt><trkpt lat="50.41021092345861" lon="16.16099166130347"><ele>341.0</ele><time>2026-05-02T09:21:28.999Z</time></trkpt><trkpt lat="50.41025759361409" lon="16.161058941645255"><ele>341.0</ele><time>2026-05-02T09:21:29.999Z</time></trkpt><trkpt lat="50.410350295437134" lon="16.161191548456305"><ele>341.0</ele><time>2026-05-02T09:21:31.999Z</time></trkpt><trkpt lat="50.41044242604294" lon="16.161304499484608"><ele>341.0</ele><time>2026-05-02T09:21:34Z</time></trkpt><trkpt lat="50.410490015263434" lon="16.161378804777183"><ele>341.0</ele><time>2026-05-02T09:21:37Z</time></trkpt><trkpt lat="50.410558393280695" lon="16.161504441182363"><ele>341.0</ele><time>2026-05-02T09:21:42Z</time></trkpt><trkpt lat="50.41061159028522" lon="16.161589872335018"><ele>341.0</ele><time>2026-05-02T09:21:43Z</time></trkpt><trkpt lat="50.410663719337485" lon="16.16166601431019"><ele>341.0</ele><time>2026-05-02T09:21:44Z</time></trkpt><trkpt lat="50.4107140142179" lon="16.1617273500178"><ele>341.33333333333337</ele><time>2026-05-02T09:21:45Z</time></trkpt><trkpt lat="50.41081103456424" lon="16.161846608426217"><ele>341.6666666666667</ele><time>2026-05-02T09:21:47Z</time></trkpt><trkpt lat="50.41086485062664" lon="16.161903954517587"><ele>342.0</ele><time>2026-05-02T09:21:48Z</time></trkpt><trkpt lat="50.41091137226872" lon="16.16197246974736"><ele>342.3333333333333</ele><time>2026-05-02T09:21:49Z</time></trkpt><trkpt lat="50.410957169148695" lon="16.162049074190065"><ele>342.66666666666663</ele><time>2026-05-02T09:21:50Z</time></trkpt><trkpt lat="50.4110079332452" lon="16.162112642196675"><ele>343.0</ele><time>2026-05-02T09:21:51Z</time></trkpt><trkpt lat="50.411062098475014" lon="16.162182208141015"><ele>343.0</ele><time>2026-05-02T09:21:52Z</time></trkpt><trkpt lat="50.411114678458894" lon="16.162257103720602"><ele>343.0</ele><time>2026-05-02T09:21:53Z</time></trkpt><trkpt lat="50.411167973392125" lon="16.16233295563526"><ele>343.0</ele><time>2026-05-02T09:21:54Z</time></trkpt><trkpt lat="50.41122452139669" lon="16.162405674096558"><ele>343.0</ele><time>2026-05-02T09:21:55Z</time></trkpt><trkpt lat="50.41128494316308" lon="16.162474157742473"><ele>343.0</ele><time>2026-05-02T09:21:56Z</time></trkpt><trkpt lat="50.4113445058494" lon="16.16254731517483"><ele>343.0</ele><time>2026-05-02T09:21:57Z</time></trkpt><trkpt lat="50.41140402143868" lon="16.162624239334818"><ele>343.0</ele><time>2026-05-02T09:21:58Z</time></trkpt><trkpt lat="50.411461622739225" lon="16.1627039918083"><ele>343.5</ele><time>2026-05-02T09:21:59Z</time></trkpt><trkpt lat="50.41152057625709" lon="16.162785782618396"><ele>344.0</ele><time>2026-05-02T09:22:00Z</time></trkpt><trkpt lat="50.411571044206056" lon="16.162866078286722"><ele>344.5</ele><time>2026-05-02T09:22:01Z</time></trkpt><trkpt lat="50.41162460812176" lon="16.162943632439926"><ele>345.0</ele><time>2026-05-02T09:22:02Z</time></trkpt><trkpt lat="50.411686926360076" lon="16.16302574811577"><ele>345.5</ele><time>2026-05-02T09:22:03Z</time></trkpt><trkpt lat="50.41174481044009" lon="16.16310806860521"><ele>346.0</ele><time>2026-05-02T09:22:04Z</time></trkpt><trkpt lat="50.411799609132586" lon="16.163187028319367"><ele>346.0</ele><time>2026-05-02T09:22:05Z</time></trkpt><trkpt lat="50.41189018729291" lon="16.16331174425544"><ele>346.0</ele><time>2026-05-02T09:22:07Z</time></trkpt><trkpt lat="50.41197685860325" lon="16.16342333207501"><ele>346.0</ele><time>2026-05-02T09:22:09Z</time></trkpt><trkpt lat="50.4120362562059" lon="16.163506740313213"><ele>346.0</ele><time>2026-05-02T09:22:11Z</time></trkpt><trkpt lat="50.412084588907206" lon="16.163598574701272"><ele>346.0</ele><time>2026-05-02T09:22:13Z</time></trkpt><trkpt lat="50.41211469212551" lon="16.163687483200203"><ele>346.0</ele><time>2026-05-02T09:22:14Z</time></trkpt><trkpt lat="50.41216935469487" lon="16.163839627243945"><ele>346.0</ele><time>2026-05-02T09:22:16Z</time></trkpt><trkpt lat="50.412270059126456" lon="16.163906119086086"><ele>346.0</ele><time>2026-05-02T09:22:18Z</time></trkpt><trkpt lat="50.4123317387956" lon="16.163939753566307"><ele>346.0</ele><time>2026-05-02T09:22:19Z</time></trkpt><trkpt lat="50.412395701102966" lon="16.164014747826094"><ele>346.0</ele><time>2026-05-02T09:22:20Z</time></trkpt><trkpt lat="50.41245881826845" lon="16.164104626540652"><ele>345.8333333333333</ele><time>2026-05-02T09:22:21Z</time></trkpt><trkpt lat="50.41252330219356" lon="16.164192815267562"><ele>345.66666666666663</ele><time>2026-05-02T09:22:22Z</time></trkpt><trkpt lat="50.41258350637242" lon="16.164270956736924"><ele>345.5</ele><time>2026-05-02T09:22:23Z</time></trkpt><trkpt lat="50.412642931072035" lon="16.164343450538883"><ele>345.3333333333333</ele><time>2026-05-02T09:22:24Z</time></trkpt><trkpt lat="50.412699173110454" lon="16.164420123139603"><ele>345.1666666666667</ele><time>2026-05-02T09:22:25Z</time></trkpt><trkpt lat="50.41275571788172" lon="16.164500295561385"><ele>345.0</ele><time>2026-05-02T09:22:26Z</time></trkpt><trkpt lat="50.4128106230863" lon="16.164579064031567"><ele>345.0</ele><time>2026-05-02T09:22:27Z</time></trkpt><trkpt lat="50.41286786169217" lon="16.164653548296315"><ele>345.0</ele><time>2026-05-02T09:22:28Z</time></trkpt><trkpt lat="50.41292611749341" lon="16.164732544611827"><ele>345.0</ele><time>2026-05-02T09:22:29Z</time></trkpt><trkpt lat="50.4129846714784" lon="16.164815045656937"><ele>345.0</ele><time>2026-05-02T09:22:30Z</time></trkpt><trkpt lat="50.41303642258839" lon="16.164889794573234"><ele>345.0</ele><time>2026-05-02T09:22:31Z</time></trkpt><trkpt lat="50.413119369862535" lon="16.16499896871223"><ele>345.0</ele><time>2026-05-02T09:22:33Z</time></trkpt><trkpt lat="50.41317929197621" lon="16.1650807343983"><ele>345.0</ele><time>2026-05-02T09:22:35Z</time></trkpt><trkpt lat="50.41322340874102" lon="16.16515262128219"><ele>345.0</ele><time>2026-05-02T09:22:37Z</time></trkpt><trkpt lat="50.413285453680686" lon="16.165233631657028"><ele>345.0</ele><time>2026-05-02T09:22:41Z</time></trkpt><trkpt lat="50.413334839513965" lon="16.165299377229623"><ele>345.0</ele><time>2026-05-02T09:22:43Z</time></trkpt><trkpt lat="50.413384304556374" lon="16.165386541039894"><ele>345.0</ele><time>2026-05-02T09:22:45Z</time></trkpt><trkpt lat="50.41343241360387" lon="16.16545334244997"><ele>345.0</ele><time>2026-05-02T09:22:47Z</time></trkpt><trkpt lat="50.41349522536395" lon="16.16554914476734"><ele>345.0</ele><time>2026-05-02T09:22:50Z</time></trkpt><trkpt lat="50.41355279711778" lon="16.165636868585928"><ele>345.0</ele><time>2026-05-02T09:22:54Z</time></trkpt><trkpt lat="50.41360321856275" lon="16.165706812917417"><ele>345.0</ele><time>2026-05-02T09:22:56Z</time></trkpt><trkpt lat="50.41368167530846" lon="16.16581596251022"><ele>345.0</ele><time>2026-05-02T09:22:58Z</time></trkpt><trkpt lat="50.41372837095671" lon="16.16588349635164"><ele>345.0</ele><time>2026-05-02T09:22:59Z</time></trkpt><trkpt lat="50.41378644801709" lon="16.165963731873052"><ele>345.0</ele><time>2026-05-02T09:23:00Z</time></trkpt><trkpt lat="50.413838154694595" lon="16.166040897249815"><ele>345.0</ele><time>2026-05-02T09:23:01Z</time></trkpt><trkpt lat="50.41389999989199" lon="16.166118467773153"><ele>345.0</ele><time>2026-05-02T09:23:02Z</time></trkpt><trkpt lat="50.413968650765824" lon="16.166214116161918"><ele>345.0</ele><time>2026-05-02T09:23:03Z</time></trkpt><trkpt lat="50.414035157429346" lon="16.16629168399334"><ele>345.0</ele><time>2026-05-02T09:23:04Z</time></trkpt><trkpt lat="50.41409047371543" lon="16.166367609689566"><ele>345.0</ele><time>2026-05-02T09:23:05Z</time></trkpt><trkpt lat="50.41414546918574" lon="16.166437616061206"><ele>345.0</ele><time>2026-05-02T09:23:06Z</time></trkpt><trkpt lat="50.414211442453556" lon="16.166495340997532"><ele>345.0</ele><time>2026-05-02T09:23:07Z</time></trkpt><trkpt lat="50.414261805458075" lon="16.16659817271261"><ele>345.0</ele><time>2026-05-02T09:23:08Z</time></trkpt><trkpt lat="50.41432676263616" lon="16.16667744942139"><ele>345.0</ele><time>2026-05-02T09:23:09Z</time></trkpt><trkpt lat="50.41439137432429" lon="16.16676283030093"><ele>345.0</ele><time>2026-05-02T09:23:10Z</time></trkpt><trkpt lat="50.41445769005402" lon="16.166887960873236"><ele>345.0</ele><time>2026-05-02T09:23:11Z</time></trkpt><trkpt lat="50.414540556901336" lon="16.16703336816427"><ele>345.0</ele><time>2026-05-02T09:23:12Z</time></trkpt><trkpt lat="50.414617191232786" lon="16.167126706106878"><ele>345.1666666666667</ele><time>2026-05-02T09:23:13Z</time></trkpt><trkpt lat="50.4146772563795" lon="16.167222801825616"><ele>345.3333333333333</ele><time>2026-05-02T09:23:14Z</time></trkpt><trkpt lat="50.41472430171817" lon="16.16734211400305"><ele>345.5</ele><time>2026-05-02T09:23:15Z</time></trkpt><trkpt lat="50.41475997461427" lon="16.167482138036195"><ele>345.66666666666663</ele><time>2026-05-02T09:23:16Z</time></trkpt><trkpt lat="50.414788584861334" lon="16.16760960845484"><ele>345.8333333333333</ele><time>2026-05-02T09:23:17Z</time></trkpt><trkpt lat="50.41481694239185" lon="16.16774035838117"><ele>346.0</ele><time>2026-05-02T09:23:18Z</time></trkpt><trkpt lat="50.41485275068052" lon="16.167868336498984"><ele>346.0</ele><time>2026-05-02T09:23:19Z</time></trkpt><trkpt lat="50.41487731645324" lon="16.167993324469908"><ele>346.0</ele><time>2026-05-02T09:23:20Z</time></trkpt><trkpt lat="50.41488624121939" lon="16.16812884751844"><ele>346.0</ele><time>2026-05-02T09:23:22Z</time></trkpt><trkpt lat="50.41491018640871" lon="16.168226690054844"><ele>346.0</ele><time>2026-05-02T09:23:27Z</time></trkpt><trkpt lat="50.41502107657048" lon="16.168215544616466"><ele>346.0</ele><time>2026-05-02T09:23:28.999Z</time></trkpt><trkpt lat="50.41507066993814" lon="16.16829120120302"><ele>346.0</ele><time>2026-05-02T09:23:33.999Z</time></trkpt><trkpt lat="50.415145889671514" lon="16.1682918881502"><ele>345.66666666666663</ele><time>2026-05-02T09:23:36.999Z</time></trkpt><trkpt lat="50.41521023880476" lon="16.16829996793616"><ele>345.3333333333333</ele><time>2026-05-02T09:23:38.999Z</time></trkpt><trkpt lat="50.415173940437" lon="16.168430131099797"><ele>345.0</ele><time>2026-05-02T09:23:41Z</time></trkpt><trkpt lat="50.415143027935265" lon="16.1685509567721"><ele>344.6666666666667</ele><time>2026-05-02T09:25:28Z</time></trkpt><trkpt lat="50.415153352552814" lon="16.16844765728903"><ele>344.33333333333337</ele><time>2026-05-02T09:25:40.999Z</time></trkpt><trkpt lat="50.41518335382841" lon="16.168535259984296"><ele>344.0</ele><time>2026-05-02T09:27:14Z</time></trkpt><trkpt lat="50.41515381373336" lon="16.16866369468467"><ele>344.0</ele><time>2026-05-02T09:36:36.999Z</time></trkpt><trkpt lat="50.41508618255716" lon="16.168714172633322"><ele>344.0</ele><time>2026-05-02T09:36:38.999Z</time></trkpt><trkpt lat="50.41503191589294" lon="16.168660878759702"><ele>344.0</ele><time>2026-05-02T09:36:43Z</time></trkpt><trkpt lat="50.41498838239601" lon="16.16852460871534"><ele>344.0</ele><time>2026-05-02T09:36:45Z</time></trkpt><trkpt lat="50.414955289259716" lon="16.16838170131424"><ele>344.0</ele><time>2026-05-02T09:36:47Z</time></trkpt><trkpt lat="50.414926588955" lon="16.168258105005222"><ele>344.0</ele><time>2026-05-02T09:36:49Z</time></trkpt><trkpt lat="50.41487772890162" lon="16.168018106045857"><ele>344.4</ele><time>2026-05-02T09:36:51Z</time></trkpt><trkpt lat="50.414855890931264" lon="16.167890062802954"><ele>344.79999999999995</ele><time>2026-05-02T09:36:52Z</time></trkpt><trkpt lat="50.41490712495153" lon="16.16775513514532"><ele>345.20000000000005</ele><time>2026-05-02T09:36:54Z</time></trkpt><trkpt lat="50.415002077317276" lon="16.167700372822246"><ele>345.6</ele><time>2026-05-02T09:36:56Z</time></trkpt><trkpt lat="50.415066417598155" lon="16.167709981741893"><ele>346.0</ele><time>2026-05-02T09:36:57Z</time></trkpt><trkpt lat="50.41513300385977" lon="16.167834959640928"><ele>346.0</ele><time>2026-05-02T09:36:58Z</time></trkpt><trkpt lat="50.415190648557505" lon="16.167940079695896"><ele>346.0</ele><time>2026-05-02T09:36:59Z</time></trkpt><trkpt lat="50.415254951823236" lon="16.168038644643826"><ele>346.0</ele><time>2026-05-02T09:37:00Z</time></trkpt><trkpt lat="50.41532244315576" lon="16.16812949106236"><ele>346.0</ele><time>2026-05-02T09:37:01Z</time></trkpt><trkpt lat="50.41539618926002" lon="16.16821845627388"><ele>346.0</ele><time>2026-05-02T09:37:02Z</time></trkpt><trkpt lat="50.415471784021555" lon="16.168311281749805"><ele>345.8</ele><time>2026-05-02T09:37:03Z</time></trkpt><trkpt lat="50.41554801073975" lon="16.168405407657563"><ele>345.6</ele><time>2026-05-02T09:37:04Z</time></trkpt><trkpt lat="50.4156204302847" lon="16.16848304406939"><ele>345.4</ele><time>2026-05-02T09:37:05Z</time></trkpt><trkpt lat="50.415678597898506" lon="16.16854542812242"><ele>345.2</ele><time>2026-05-02T09:37:06Z</time></trkpt><trkpt lat="50.41577486055974" lon="16.168649286403742"><ele>345.0</ele><time>2026-05-02T09:37:08Z</time></trkpt><trkpt lat="50.41587585532924" lon="16.168753179415713"><ele>345.0</ele><time>2026-05-02T09:37:10Z</time></trkpt><trkpt lat="50.41594056674427" lon="16.168827607608538"><ele>345.0</ele><time>2026-05-02T09:37:11Z</time></trkpt><trkpt lat="50.41601717883246" lon="16.1689008948236"><ele>345.0</ele><time>2026-05-02T09:37:12Z</time></trkpt><trkpt lat="50.41608143401673" lon="16.16897677090269"><ele>345.0</ele><time>2026-05-02T09:37:13Z</time></trkpt><trkpt lat="50.41612409266281" lon="16.16908002552841"><ele>345.0</ele><time>2026-05-02T09:37:14Z</time></trkpt><trkpt lat="50.416159462039346" lon="16.169194707866474"><ele>345.0</ele><time>2026-05-02T09:37:15Z</time></trkpt><trkpt lat="50.416270024289155" lon="16.169228218685035"><ele>345.14285714285717</ele><time>2026-05-02T09:37:17Z</time></trkpt><trkpt lat="50.41633396930742" lon="16.169178622483493"><ele>345.2857142857143</ele><time>2026-05-02T09:37:18Z</time></trkpt><trkpt lat="50.416396733410295" lon="16.169105016020318"><ele>345.42857142857144</ele><time>2026-05-02T09:37:19Z</time></trkpt><trkpt lat="50.41646250955667" lon="16.16907094043608"><ele>345.57142857142856</ele><time>2026-05-02T09:37:20Z</time></trkpt><trkpt lat="50.41653966224405" lon="16.169065587624285"><ele>345.7142857142857</ele><time>2026-05-02T09:37:21Z</time></trkpt><trkpt lat="50.41661643050892" lon="16.16905035127669"><ele>345.85714285714283</ele><time>2026-05-02T09:37:22Z</time></trkpt><trkpt lat="50.4166810178901" lon="16.169030424417674"><ele>346.0</ele><time>2026-05-02T09:37:23Z</time></trkpt><trkpt lat="50.416784465636525" lon="16.169003175568882"><ele>346.0</ele><time>2026-05-02T09:37:25Z</time></trkpt><trkpt lat="50.41687869025817" lon="16.16903116019081"><ele>346.0</ele><time>2026-05-02T09:37:27Z</time></trkpt><trkpt lat="50.41697320560986" lon="16.169025439232517"><ele>346.0</ele><time>2026-05-02T09:37:29Z</time></trkpt><trkpt lat="50.41705860986429" lon="16.16902496628845"><ele>346.0</ele><time>2026-05-02T09:37:31Z</time></trkpt><trkpt lat="50.41714228061315" lon="16.169082028198098"><ele>346.0</ele><time>2026-05-02T09:37:33Z</time></trkpt><trkpt lat="50.417202401318875" lon="16.16912074223347"><ele>346.0</ele><time>2026-05-02T09:37:34Z</time></trkpt><trkpt lat="50.417271804337254" lon="16.169156456220673"><ele>346.0</ele><time>2026-05-02T09:37:35Z</time></trkpt><trkpt lat="50.41733749415459" lon="16.169133572003783"><ele>346.0</ele><time>2026-05-02T09:37:36Z</time></trkpt><trkpt lat="50.41740070348302" lon="16.16905823905041"><ele>346.0</ele><time>2026-05-02T09:37:37Z</time></trkpt><trkpt lat="50.417474567304275" lon="16.168938636278586"><ele>346.0</ele><time>2026-05-02T09:37:38Z</time></trkpt><trkpt lat="50.417560964785615" lon="16.168824623946485"><ele>346.0</ele><time>2026-05-02T09:37:39Z</time></trkpt><trkpt lat="50.41767019427501" lon="16.168734701008642"><ele>345.75</ele><time>2026-05-02T09:37:40Z</time></trkpt><trkpt lat="50.41779042592669" lon="16.168669357503198"><ele>345.5</ele><time>2026-05-02T09:37:41Z</time></trkpt><trkpt lat="50.4179075328424" lon="16.16860639424943"><ele>345.25</ele><time>2026-05-02T09:37:42Z</time></trkpt><trkpt lat="50.41801027803486" lon="16.168552584424507"><ele>345.0</ele><time>2026-05-02T09:37:42.999Z</time></trkpt><trkpt lat="50.418104055203784" lon="16.168507675933014"><ele>345.0</ele><time>2026-05-02T09:37:43.999Z</time></trkpt><trkpt lat="50.41820145693242" lon="16.168462936691498"><ele>345.0</ele><time>2026-05-02T09:37:44.999Z</time></trkpt><trkpt lat="50.41830502991649" lon="16.168416497232442"><ele>345.0</ele><time>2026-05-02T09:37:45.999Z</time></trkpt><trkpt lat="50.4184075559044" lon="16.168375152813017"><ele>345.0</ele><time>2026-05-02T09:37:46.999Z</time></trkpt><trkpt lat="50.41849063372233" lon="16.168345302318357"><ele>345.0</ele><time>2026-05-02T09:37:47.999Z</time></trkpt><trkpt lat="50.41855307150602" lon="16.16833234385628"><ele>345.0</ele><time>2026-05-02T09:37:48.999Z</time></trkpt><trkpt lat="50.41867148579034" lon="16.168307301318265"><ele>345.0</ele><time>2026-05-02T09:37:50.999Z</time></trkpt><trkpt lat="50.418777895284244" lon="16.16827056583218"><ele>345.0</ele><time>2026-05-02T09:37:52.999Z</time></trkpt><trkpt lat="50.41891258341237" lon="16.168249175458094"><ele>345.0</ele><time>2026-05-02T09:37:54.999Z</time></trkpt><trkpt lat="50.41900553370279" lon="16.168237994256334"><ele>345.6</ele><time>2026-05-02T09:37:55.999Z</time></trkpt><trkpt lat="50.41910266607178" lon="16.168230654883804"><ele>346.2</ele><time>2026-05-02T09:37:56.999Z</time></trkpt><trkpt lat="50.41920157227551" lon="16.168225202008692"><ele>346.79999999999995</ele><time>2026-05-02T09:37:57.999Z</time></trkpt><trkpt lat="50.41930522557346" lon="16.168227161050645"><ele>347.4</ele><time>2026-05-02T09:37:58.999Z</time></trkpt><trkpt lat="50.41940875896028" lon="16.168231122447768"><ele>348.0</ele><time>2026-05-02T09:37:59.999Z</time></trkpt><trkpt lat="50.419511322368244" lon="16.16823275664539"><ele>348.0</ele><time>2026-05-02T09:38:00.999Z</time></trkpt><trkpt lat="50.41960163936528" lon="16.168246916736315"><ele>348.0</ele><time>2026-05-02T09:38:01.999Z</time></trkpt><trkpt lat="50.41969074255056" lon="16.168247346573757"><ele>348.0</ele><time>2026-05-02T09:38:02.999Z</time></trkpt><trkpt lat="50.41978453267784" lon="16.16824082246808"><ele>348.0</ele><time>2026-05-02T09:38:03.999Z</time></trkpt><trkpt lat="50.41987749862017" lon="16.168243258304145"><ele>348.0</ele><time>2026-05-02T09:38:04.999Z</time></trkpt><trkpt lat="50.41996571779397" lon="16.16824262482791"><ele>347.59999999999997</ele><time>2026-05-02T09:38:05.999Z</time></trkpt><trkpt lat="50.42006220336273" lon="16.168230408197683"><ele>347.2</ele><time>2026-05-02T09:38:06.999Z</time></trkpt><trkpt lat="50.420160038139684" lon="16.168212983976947"><ele>346.8</ele><time>2026-05-02T09:38:07.999Z</time></trkpt><trkpt lat="50.420260487484754" lon="16.16818943903489"><ele>346.4</ele><time>2026-05-02T09:38:08.999Z</time></trkpt><trkpt lat="50.42036066729605" lon="16.168160168211735"><ele>346.0</ele><time>2026-05-02T09:38:09.999Z</time></trkpt><trkpt lat="50.420464734222314" lon="16.168120742482675"><ele>346.0</ele><time>2026-05-02T09:38:10.999Z</time></trkpt><trkpt lat="50.42057754082329" lon="16.168094246089847"><ele>346.0</ele><time>2026-05-02T09:38:11.999Z</time></trkpt><trkpt lat="50.42070548470599" lon="16.168066925594342"><ele>346.0</ele><time>2026-05-02T09:38:12.999Z</time></trkpt><trkpt lat="50.42084347044693" lon="16.16803017989475"><ele>346.0</ele><time>2026-05-02T09:38:13.999Z</time></trkpt><trkpt lat="50.42097253979517" lon="16.167984270995454"><ele>346.0</ele><time>2026-05-02T09:38:14.999Z</time></trkpt><trkpt lat="50.421099504280136" lon="16.167941891999888"><ele>346.0</ele><time>2026-05-02T09:38:15.999Z</time></trkpt><trkpt lat="50.42122377279418" lon="16.167884409492594"><ele>346.0</ele><time>2026-05-02T09:38:16.999Z</time></trkpt><trkpt lat="50.42134445881154" lon="16.167816628812005"><ele>346.0</ele><time>2026-05-02T09:38:17.999Z</time></trkpt><trkpt lat="50.42146656685213" lon="16.167745894055887"><ele>346.0</ele><time>2026-05-02T09:38:18.999Z</time></trkpt><trkpt lat="50.42158493211546" lon="16.167669421676152"><ele>346.0</ele><time>2026-05-02T09:38:19.999Z</time></trkpt><trkpt lat="50.421700779812866" lon="16.16758001474237"><ele>346.0</ele><time>2026-05-02T09:38:20.998Z</time></trkpt><trkpt lat="50.42181702792481" lon="16.16748491819745"><ele>346.0</ele><time>2026-05-02T09:38:21.998Z</time></trkpt><trkpt lat="50.42192550711898" lon="16.167396611329046"><ele>346.0</ele><time>2026-05-02T09:38:22.998Z</time></trkpt><trkpt lat="50.42201972013895" lon="16.167329260543195"><ele>346.0</ele><time>2026-05-02T09:38:23.998Z</time></trkpt><trkpt lat="50.42210491498222" lon="16.167268370955792"><ele>346.0</ele><time>2026-05-02T09:38:24.998Z</time></trkpt><trkpt lat="50.42219155923914" lon="16.16720810040706"><ele>346.0</ele><time>2026-05-02T09:38:25.998Z</time></trkpt><trkpt lat="50.42228317362408" lon="16.167145142064705"><ele>346.0</ele><time>2026-05-02T09:38:26.998Z</time></trkpt><trkpt lat="50.422389189608694" lon="16.167077771990325"><ele>346.75</ele><time>2026-05-02T09:38:27.998Z</time></trkpt><trkpt lat="50.42251175171535" lon="16.16701155510947"><ele>347.5</ele><time>2026-05-02T09:38:28.998Z</time></trkpt><trkpt lat="50.42264154913607" lon="16.166951912249687"><ele>348.25</ele><time>2026-05-02T09:38:29.998Z</time></trkpt><trkpt lat="50.422767289941646" lon="16.166897315655504"><ele>349.0</ele><time>2026-05-02T09:38:30.998Z</time></trkpt><trkpt lat="50.422881093970794" lon="16.16685488129806"><ele>349.75</ele><time>2026-05-02T09:38:31.998Z</time></trkpt><trkpt lat="50.422995519987246" lon="16.16681626219055"><ele>350.5</ele><time>2026-05-02T09:38:32.998Z</time></trkpt><trkpt lat="50.423111182605794" lon="16.166770827844317"><ele>351.25</ele><time>2026-05-02T09:38:33.998Z</time></trkpt><trkpt lat="50.423218831856985" lon="16.16672390982711"><ele>352.0</ele><time>2026-05-02T09:38:34.998Z</time></trkpt><trkpt lat="50.42332932067029" lon="16.166670340663533"><ele>352.0</ele><time>2026-05-02T09:38:35.998Z</time></trkpt><trkpt lat="50.423441445339634" lon="16.166615600413422"><ele>352.0</ele><time>2026-05-02T09:38:36.998Z</time></trkpt><trkpt lat="50.423542077008" lon="16.166553252600057"><ele>352.0</ele><time>2026-05-02T09:38:37.999Z</time></trkpt><trkpt lat="50.423640451121095" lon="16.16647425640488"><ele>352.0</ele><time>2026-05-02T09:38:38.999Z</time></trkpt><trkpt lat="50.42374327194571" lon="16.166383375773066"><ele>352.75</ele><time>2026-05-02T09:38:39.999Z</time></trkpt><trkpt lat="50.42384475857685" lon="16.166279447826813"><ele>353.5</ele><time>2026-05-02T09:38:40.999Z</time></trkpt><trkpt lat="50.423940185318095" lon="16.166167434544693"><ele>354.25</ele><time>2026-05-02T09:38:41.999Z</time></trkpt><trkpt lat="50.42403595694395" lon="16.16603593059838"><ele>355.0</ele><time>2026-05-02T09:38:42.999Z</time></trkpt><trkpt lat="50.42412976979077" lon="16.165884030100745"><ele>355.0</ele><time>2026-05-02T09:38:43.999Z</time></trkpt><trkpt lat="50.42422793410354" lon="16.165729444919034"><ele>355.0</ele><time>2026-05-02T09:38:44.999Z</time></trkpt><trkpt lat="50.42432524384451" lon="16.16556959507145"><ele>355.0</ele><time>2026-05-02T09:38:45.999Z</time></trkpt><trkpt lat="50.42440938118357" lon="16.165402439190398"><ele>355.0</ele><time>2026-05-02T09:38:46.999Z</time></trkpt><trkpt lat="50.42447604062137" lon="16.165238997339795"><ele>355.0</ele><time>2026-05-02T09:38:47.999Z</time></trkpt><trkpt lat="50.42452761258088" lon="16.16508620037986"><ele>355.0</ele><time>2026-05-02T09:38:48.999Z</time></trkpt><trkpt lat="50.42457561895586" lon="16.164915942496393"><ele>355.0</ele><time>2026-05-02T09:38:49.999Z</time></trkpt><trkpt lat="50.42461955791844" lon="16.164741712916236"><ele>355.0</ele><time>2026-05-02T09:38:50.999Z</time></trkpt><trkpt lat="50.424661199419006" lon="16.164563831534664"><ele>356.75</ele><time>2026-05-02T09:38:51.999Z</time></trkpt><trkpt lat="50.42469737108189" lon="16.16437241945307"><ele>358.5</ele><time>2026-05-02T09:38:52.999Z</time></trkpt><trkpt lat="50.42472705402258" lon="16.164175376990087"><ele>360.25</ele><time>2026-05-02T09:38:53.999Z</time></trkpt><trkpt lat="50.424753618923425" lon="16.16397493561767"><ele>362.0</ele><time>2026-05-02T09:38:54.999Z</time></trkpt><trkpt lat="50.42477982489867" lon="16.16377948175025"><ele>362.0</ele><time>2026-05-02T09:38:55.999Z</time></trkpt><trkpt lat="50.4248007293515" lon="16.16360297488822"><ele>362.0</ele><time>2026-05-02T09:38:56.999Z</time></trkpt><trkpt lat="50.42482248914656" lon="16.16343043590572"><ele>362.0</ele><time>2026-05-02T09:38:57.999Z</time></trkpt><trkpt lat="50.424848111062666" lon="16.16325369675565"><ele>362.0</ele><time>2026-05-02T09:38:58.999Z</time></trkpt><trkpt lat="50.424871443891526" lon="16.163061041160024"><ele>360.5</ele><time>2026-05-02T09:38:59.999Z</time></trkpt><trkpt lat="50.42489391066784" lon="16.162871344984236"><ele>359.0</ele><time>2026-05-02T09:39:00.999Z</time></trkpt><trkpt lat="50.424917286699454" lon="16.162683050007246"><ele>357.5</ele><time>2026-05-02T09:39:01.999Z</time></trkpt><trkpt lat="50.4249420433981" lon="16.162496108343014"><ele>356.0</ele><time>2026-05-02T09:39:02.999Z</time></trkpt><trkpt lat="50.42496549225922" lon="16.162308347259863"><ele>356.0</ele><time>2026-05-02T09:39:03.999Z</time></trkpt><trkpt lat="50.42498971360927" lon="16.162118891996762"><ele>356.0</ele><time>2026-05-02T09:39:04.999Z</time></trkpt><trkpt lat="50.425010830445395" lon="16.161936504626915"><ele>356.0</ele><time>2026-05-02T09:39:05.999Z</time></trkpt><trkpt lat="50.42502891318018" lon="16.161754995694675"><ele>356.0</ele><time>2026-05-02T09:39:06.999Z</time></trkpt><trkpt lat="50.42504820461023" lon="16.161582294540622"><ele>356.20000000000005</ele><time>2026-05-02T09:39:07.999Z</time></trkpt><trkpt lat="50.425068802191355" lon="16.161400686706873"><ele>356.40000000000003</ele><time>2026-05-02T09:39:08.999Z</time></trkpt><trkpt lat="50.42508972041206" lon="16.161216235639387"><ele>356.6</ele><time>2026-05-02T09:39:09.999Z</time></trkpt><trkpt lat="50.425115185966995" lon="16.1610449976258"><ele>356.8</ele><time>2026-05-02T09:39:10.999Z</time></trkpt><trkpt lat="50.42514375694719" lon="16.160894017908653"><ele>357.0</ele><time>2026-05-02T09:39:11.999Z</time></trkpt><trkpt lat="50.4251711911129" lon="16.16076668246925"><ele>356.1666666666667</ele><time>2026-05-02T09:39:12.999Z</time></trkpt><trkpt lat="50.42519580648454" lon="16.16065230494026"><ele>355.3333333333333</ele><time>2026-05-02T09:39:13.999Z</time></trkpt><trkpt lat="50.425214518521145" lon="16.16055322108014"><ele>354.5</ele><time>2026-05-02T09:39:14.999Z</time></trkpt><trkpt lat="50.42523850877858" lon="16.16044495899052"><ele>353.66666666666663</ele><time>2026-05-02T09:39:15.999Z</time></trkpt><trkpt lat="50.42527797820914" lon="16.16031027291288"><ele>352.8333333333333</ele><time>2026-05-02T09:39:16.999Z</time></trkpt><trkpt lat="50.42534406411792" lon="16.160158954842238"><ele>352.0</ele><time>2026-05-02T09:39:17.999Z</time></trkpt><trkpt lat="50.42543685286357" lon="16.15999753256149"><ele>353.0</ele><time>2026-05-02T09:39:18.999Z</time></trkpt><trkpt lat="50.42553759960636" lon="16.159850641410713"><ele>354.0</ele><time>2026-05-02T09:39:19.999Z</time></trkpt><trkpt lat="50.425638788498986" lon="16.159713379054793"><ele>355.0</ele><time>2026-05-02T09:39:20.999Z</time></trkpt><trkpt lat="50.42574287935805" lon="16.15959111319785"><ele>356.0</ele><time>2026-05-02T09:39:21.999Z</time></trkpt><trkpt lat="50.42584518375244" lon="16.1595121974874"><ele>356.0</ele><time>2026-05-02T09:39:22.999Z</time></trkpt><trkpt lat="50.425970301620424" lon="16.159477937333815"><ele>356.0</ele><time>2026-05-02T09:39:23.999Z</time></trkpt><trkpt lat="50.42611763014956" lon="16.159466966631417"><ele>356.0</ele><time>2026-05-02T09:39:24.999Z</time></trkpt><trkpt lat="50.42627512877899" lon="16.15945334409129"><ele>356.0</ele><time>2026-05-02T09:39:25.999Z</time></trkpt><trkpt lat="50.426422907015834" lon="16.15943418656736"><ele>356.6</ele><time>2026-05-02T09:39:26.999Z</time></trkpt><trkpt lat="50.426532976070206" lon="16.159421229345224"><ele>357.20000000000005</ele><time>2026-05-02T09:39:27.999Z</time></trkpt><trkpt lat="50.42662948318853" lon="16.159423099230686"><ele>357.79999999999995</ele><time>2026-05-02T09:39:28.999Z</time></trkpt><trkpt lat="50.42671990592899" lon="16.159434841806164"><ele>358.4</ele><time>2026-05-02T09:39:29.999Z</time></trkpt><trkpt lat="50.426817812619326" lon="16.159482767627406"><ele>359.0</ele><time>2026-05-02T09:39:30.999Z</time></trkpt><trkpt lat="50.42694114744631" lon="16.15958516018624"><ele>359.0</ele><time>2026-05-02T09:39:31.999Z</time></trkpt><trkpt lat="50.42707562156182" lon="16.159687578900307"><ele>359.0</ele><time>2026-05-02T09:39:32.999Z</time></trkpt><trkpt lat="50.42723495045905" lon="16.159760543450567"><ele>359.0</ele><time>2026-05-02T09:39:33.999Z</time></trkpt><trkpt lat="50.42740764891228" lon="16.159819934329814"><ele>360.0</ele><time>2026-05-02T09:39:34.999Z</time></trkpt><trkpt lat="50.42757860765289" lon="16.15986842670954"><ele>361.0</ele><time>2026-05-02T09:39:35.999Z</time></trkpt><trkpt lat="50.42773146424055" lon="16.159900277338448"><ele>362.0</ele><time>2026-05-02T09:39:36.999Z</time></trkpt><trkpt lat="50.42787946576289" lon="16.159913138218105"><ele>364.0</ele><time>2026-05-02T09:39:37.999Z</time></trkpt><trkpt lat="50.42803406963066" lon="16.159944836181573"><ele>366.0</ele><time>2026-05-02T09:39:38.999Z</time></trkpt><trkpt lat="50.42818842771103" lon="16.15996219039055"><ele>368.0</ele><time>2026-05-02T09:39:39.999Z</time></trkpt><trkpt lat="50.428323550085466" lon="16.159970409956273"><ele>370.0</ele><time>2026-05-02T09:39:40.999Z</time></trkpt><trkpt lat="50.42845302161668" lon="16.15997917275261"><ele>370.0</ele><time>2026-05-02T09:39:41.999Z</time></trkpt><trkpt lat="50.428598929214736" lon="16.159976233541027"><ele>370.0</ele><time>2026-05-02T09:39:42.999Z</time></trkpt><trkpt lat="50.42874764262862" lon="16.159960440788588"><ele>370.0</ele><time>2026-05-02T09:39:43.999Z</time></trkpt><trkpt lat="50.428888808489916" lon="16.159929360521236"><ele>370.0</ele><time>2026-05-02T09:39:44.999Z</time></trkpt><trkpt lat="50.429028071901506" lon="16.15990083738328"><ele>367.0</ele><time>2026-05-02T09:39:45.999Z</time></trkpt><trkpt lat="50.42916322783841" lon="16.159865730587082"><ele>364.0</ele><time>2026-05-02T09:39:46.999Z</time></trkpt><trkpt lat="50.429298741151115" lon="16.159854439660165"><ele>361.0</ele><time>2026-05-02T09:39:47.999Z</time></trkpt><trkpt lat="50.42944715792284" lon="16.15983019930686"><ele>358.0</ele><time>2026-05-02T09:39:48.999Z</time></trkpt><trkpt lat="50.42959351482031" lon="16.159793686699935"><ele>358.25</ele><time>2026-05-02T09:39:49.999Z</time></trkpt><trkpt lat="50.429728010887175" lon="16.159793832748775"><ele>358.5</ele><time>2026-05-02T09:39:50.999Z</time></trkpt><trkpt lat="50.42985317734689" lon="16.159747490853633"><ele>358.75</ele><time>2026-05-02T09:39:51.999Z</time></trkpt><trkpt lat="50.42999390843323" lon="16.15970517904346"><ele>359.0</ele><time>2026-05-02T09:39:52.999Z</time></trkpt><trkpt lat="50.430137907860924" lon="16.15964181143632"><ele>359.0</ele><time>2026-05-02T09:39:53.999Z</time></trkpt><trkpt lat="50.43028458036522" lon="16.159564203938007"><ele>359.0</ele><time>2026-05-02T09:39:54.999Z</time></trkpt><trkpt lat="50.430425421874745" lon="16.159473590602786"><ele>359.0</ele><time>2026-05-02T09:39:55.999Z</time></trkpt><trkpt lat="50.430561575465255" lon="16.1593546983449"><ele>359.6666666666667</ele><time>2026-05-02T09:39:56.999Z</time></trkpt><trkpt lat="50.430694858234936" lon="16.159220781830914"><ele>360.3333333333333</ele><time>2026-05-02T09:39:57.999Z</time></trkpt><trkpt lat="50.4308303668635" lon="16.159095108392542"><ele>361.0</ele><time>2026-05-02T09:39:58.999Z</time></trkpt><trkpt lat="50.43096775230297" lon="16.158972436556656"><ele>360.25</ele><time>2026-05-02T09:39:59.999Z</time></trkpt><trkpt lat="50.43108886318346" lon="16.158865317929127"><ele>359.5</ele><time>2026-05-02T09:40:00.999Z</time></trkpt><trkpt lat="50.4312141882234" lon="16.15880830046078"><ele>358.75</ele><time>2026-05-02T09:40:01.999Z</time></trkpt><trkpt lat="50.43133942120838" lon="16.158754459753634"><ele>358.0</ele><time>2026-05-02T09:40:02.999Z</time></trkpt><trkpt lat="50.431487669579056" lon="16.158719638586255"><ele>358.0</ele><time>2026-05-02T09:40:03.999Z</time></trkpt><trkpt lat="50.43165183722965" lon="16.158695260618835"><ele>358.0</ele><time>2026-05-02T09:40:04.999Z</time></trkpt><trkpt lat="50.43182782492719" lon="16.15867042525375"><ele>358.0</ele><time>2026-05-02T09:40:05.999Z</time></trkpt><trkpt lat="50.43198468565754" lon="16.158648383334754"><ele>358.0</ele><time>2026-05-02T09:40:06.999Z</time></trkpt><trkpt lat="50.43212396762285" lon="16.158628537116126"><ele>358.0</ele><time>2026-05-02T09:40:07.999Z</time></trkpt><trkpt lat="50.4322532937991" lon="16.15858748461469"><ele>358.0</ele><time>2026-05-02T09:40:08.999Z</time></trkpt><trkpt lat="50.43239360001729" lon="16.15856777063409"><ele>358.0</ele><time>2026-05-02T09:40:09.999Z</time></trkpt><trkpt lat="50.432540957099285" lon="16.158549752668357"><ele>357.66666666666663</ele><time>2026-05-02T09:40:10.999Z</time></trkpt><trkpt lat="50.43269317862829" lon="16.158530412904707"><ele>357.3333333333333</ele><time>2026-05-02T09:40:11.999Z</time></trkpt><trkpt lat="50.43284387075524" lon="16.158514569563945"><ele>357.0</ele><time>2026-05-02T09:40:12.999Z</time></trkpt><trkpt lat="50.432992223762945" lon="16.158491023528654"><ele>357.0</ele><time>2026-05-02T09:40:13.999Z</time></trkpt><trkpt lat="50.43313446275333" lon="16.15846418142343"><ele>357.0</ele><time>2026-05-02T09:40:14.999Z</time></trkpt><trkpt lat="50.43328317429231" lon="16.158449157441364"><ele>357.0</ele><time>2026-05-02T09:40:15.999Z</time></trkpt><trkpt lat="50.433425305515044" lon="16.158432119000295"><ele>357.0</ele><time>2026-05-02T09:40:16.999Z</time></trkpt><trkpt lat="50.43356904565837" lon="16.158412613035903"><ele>357.0</ele><time>2026-05-02T09:40:17.999Z</time></trkpt><trkpt lat="50.4336960510147" lon="16.15839274873317"><ele>357.0</ele><time>2026-05-02T09:40:18.999Z</time></trkpt><trkpt lat="50.433819206222864" lon="16.1583257553335"><ele>357.0</ele><time>2026-05-02T09:40:19.999Z</time></trkpt><trkpt lat="50.43395448931784" lon="16.158196937677857"><ele>357.0</ele><time>2026-05-02T09:40:21Z</time></trkpt><trkpt lat="50.43408235178617" lon="16.158026865100485"><ele>357.3333333333333</ele><time>2026-05-02T09:40:22Z</time></trkpt><trkpt lat="50.4342119670404" lon="16.157881358132503"><ele>357.66666666666663</ele><time>2026-05-02T09:40:23Z</time></trkpt><trkpt lat="50.434344964030934" lon="16.15771275713329"><ele>358.0</ele><time>2026-05-02T09:40:24Z</time></trkpt><trkpt lat="50.434474430849384" lon="16.157583704213184"><ele>358.0</ele><time>2026-05-02T09:40:25Z</time></trkpt><trkpt lat="50.434574737482635" lon="16.157439425553285"><ele>358.0</ele><time>2026-05-02T09:40:26Z</time></trkpt><trkpt lat="50.43467380622408" lon="16.157320386850582"><ele>358.0</ele><time>2026-05-02T09:40:26.999Z</time></trkpt><trkpt lat="50.43477023987805" lon="16.157196554527747"><ele>358.0</ele><time>2026-05-02T09:40:27.999Z</time></trkpt><trkpt lat="50.43486942623146" lon="16.157062876016095"><ele>358.0</ele><time>2026-05-02T09:40:28.999Z</time></trkpt><trkpt lat="50.434971158739835" lon="16.156903469884657"><ele>358.0</ele><time>2026-05-02T09:40:29.999Z</time></trkpt><trkpt lat="50.43507757964733" lon="16.15675560994176"><ele>358.0</ele><time>2026-05-02T09:40:30.999Z</time></trkpt><trkpt lat="50.435202483293814" lon="16.156617149806056"><ele>358.0</ele><time>2026-05-02T09:40:31.999Z</time></trkpt><trkpt lat="50.435302653067666" lon="16.15644028485841"><ele>358.0</ele><time>2026-05-02T09:40:32.999Z</time></trkpt><trkpt lat="50.43541133426698" lon="16.15627593522062"><ele>358.0</ele><time>2026-05-02T09:40:33.999Z</time></trkpt><trkpt lat="50.43552206415969" lon="16.15612649000322"><ele>358.0</ele><time>2026-05-02T09:40:34.999Z</time></trkpt><trkpt lat="50.4356003972357" lon="16.155944031889746"><ele>358.0</ele><time>2026-05-02T09:40:35.999Z</time></trkpt><trkpt lat="50.435691332935235" lon="16.15578362317934"><ele>358.5</ele><time>2026-05-02T09:40:36.999Z</time></trkpt><trkpt lat="50.43577087467726" lon="16.155594685922246"><ele>359.0</ele><time>2026-05-02T09:40:37.999Z</time></trkpt><trkpt lat="50.435836224351235" lon="16.15540055348676"><ele>359.5</ele><time>2026-05-02T09:40:38.999Z</time></trkpt><trkpt lat="50.435896683299696" lon="16.155199692564384"><ele>360.0</ele><time>2026-05-02T09:40:39.999Z</time></trkpt><trkpt lat="50.43597381896766" lon="16.155015652489805"><ele>359.75</ele><time>2026-05-02T09:40:40.999Z</time></trkpt><trkpt lat="50.43603052413413" lon="16.154817716205628"><ele>359.5</ele><time>2026-05-02T09:40:41.999Z</time></trkpt><trkpt lat="50.43612898267401" lon="16.154655276348443"><ele>359.25</ele><time>2026-05-02T09:40:42.999Z</time></trkpt><trkpt lat="50.436227823268965" lon="16.15449737191906"><ele>359.0</ele><time>2026-05-02T09:40:43.999Z</time></trkpt><trkpt lat="50.4363115008734" lon="16.154342228378948"><ele>359.0</ele><time>2026-05-02T09:40:44.999Z</time></trkpt><trkpt lat="50.43640997150902" lon="16.15420882272611"><ele>359.0</ele><time>2026-05-02T09:40:45.999Z</time></trkpt><trkpt lat="50.43651518000372" lon="16.154098946763312"><ele>359.0</ele><time>2026-05-02T09:40:46.999Z</time></trkpt><trkpt lat="50.43661036616613" lon="16.15396698648408"><ele>359.0</ele><time>2026-05-02T09:40:47.999Z</time></trkpt><trkpt lat="50.43671080148079" lon="16.153829542046314"><ele>359.0</ele><time>2026-05-02T09:40:48.999Z</time></trkpt><trkpt lat="50.436807608876286" lon="16.15366582376317"><ele>359.0</ele><time>2026-05-02T09:40:49.999Z</time></trkpt><trkpt lat="50.43691650419755" lon="16.15352228604561"><ele>359.0</ele><time>2026-05-02T09:40:50.999Z</time></trkpt><trkpt lat="50.437002839688304" lon="16.153408430508218"><ele>359.0</ele><time>2026-05-02T09:40:51.999Z</time></trkpt><trkpt lat="50.43704986844087" lon="16.153334377402523"><ele>359.0</ele><time>2026-05-02T09:40:52.999Z</time></trkpt><trkpt lat="50.437116548586005" lon="16.153272909222384"><ele>359.0</ele><time>2026-05-02T09:40:57Z</time></trkpt><trkpt lat="50.43716541737634" lon="16.15317225427104"><ele>359.0</ele><time>2026-05-02T09:40:59Z</time></trkpt><trkpt lat="50.437232224564596" lon="16.153062542665424"><ele>359.0</ele><time>2026-05-02T09:41:01Z</time></trkpt><trkpt lat="50.43730508549622" lon="16.15298172757894"><ele>359.0</ele><time>2026-05-02T09:41:03Z</time></trkpt><trkpt lat="50.43737269102342" lon="16.15287549221656"><ele>359.0</ele><time>2026-05-02T09:41:05Z</time></trkpt><trkpt lat="50.43741833216237" lon="16.152801056134564"><ele>359.0</ele><time>2026-05-02T09:41:06Z</time></trkpt><trkpt lat="50.43747776866738" lon="16.152704837004645"><ele>359.0</ele><time>2026-05-02T09:41:07Z</time></trkpt><trkpt lat="50.43753086142564" lon="16.152616949168994"><ele>359.0</ele><time>2026-05-02T09:41:08Z</time></trkpt><trkpt lat="50.43758783116397" lon="16.152522518259428"><ele>359.0</ele><time>2026-05-02T09:41:10Z</time></trkpt><trkpt lat="50.437632094628064" lon="16.15244878876038"><ele>359.0</ele><time>2026-05-02T09:41:11Z</time></trkpt><trkpt lat="50.437698376785455" lon="16.152339864002922"><ele>359.0</ele><time>2026-05-02T09:41:12Z</time></trkpt><trkpt lat="50.43777929036168" lon="16.152207688857068"><ele>359.0</ele><time>2026-05-02T09:41:13Z</time></trkpt><trkpt lat="50.4378684815991" lon="16.152070286636352"><ele>359.0</ele><time>2026-05-02T09:41:14Z</time></trkpt><trkpt lat="50.437972384138625" lon="16.151928414714135"><ele>359.0</ele><time>2026-05-02T09:41:15Z</time></trkpt><trkpt lat="50.4380779475809" lon="16.151794666625015"><ele>359.0</ele><time>2026-05-02T09:41:16Z</time></trkpt><trkpt lat="50.438172474670516" lon="16.151681809469498"><ele>359.0</ele><time>2026-05-02T09:41:17Z</time></trkpt><trkpt lat="50.43826798315663" lon="16.151578026292"><ele>359.0</ele><time>2026-05-02T09:41:18Z</time></trkpt><trkpt lat="50.43836615337592" lon="16.151478365141593"><ele>359.0</ele><time>2026-05-02T09:41:19Z</time></trkpt><trkpt lat="50.43846177153725" lon="16.151363733918124"><ele>359.0</ele><time>2026-05-02T09:41:20Z</time></trkpt><trkpt lat="50.43855405985637" lon="16.1512813267126"><ele>359.0</ele><time>2026-05-02T09:41:21Z</time></trkpt><trkpt lat="50.43864114096196" lon="16.15120997949626"><ele>359.0</ele><time>2026-05-02T09:41:22Z</time></trkpt><trkpt lat="50.43873604661126" lon="16.151138341586503"><ele>359.0</ele><time>2026-05-02T09:41:23Z</time></trkpt><trkpt lat="50.43883754172005" lon="16.151063692854787"><ele>359.0</ele><time>2026-05-02T09:41:24Z</time></trkpt><trkpt lat="50.43894227196083" lon="16.15098899308192"><ele>359.0</ele><time>2026-05-02T09:41:25Z</time></trkpt><trkpt lat="50.439051932758936" lon="16.150917421584897"><ele>359.25</ele><time>2026-05-02T09:41:26Z</time></trkpt><trkpt lat="50.43917244572467" lon="16.15083654177101"><ele>359.5</ele><time>2026-05-02T09:41:27Z</time></trkpt><trkpt lat="50.439297410910164" lon="16.150756015049925"><ele>359.75</ele><time>2026-05-02T09:41:28Z</time></trkpt><trkpt lat="50.43942859210874" lon="16.150686443326098"><ele>360.0</ele><time>2026-05-02T09:41:29Z</time></trkpt><trkpt lat="50.43956383418185" lon="16.150637231342948"><ele>362.25</ele><time>2026-05-02T09:41:30Z</time></trkpt><trkpt lat="50.439700344968266" lon="16.15060454434161"><ele>364.5</ele><time>2026-05-02T09:41:31Z</time></trkpt><trkpt lat="50.439827425153226" lon="16.15058807223445"><ele>366.75</ele><time>2026-05-02T09:41:32Z</time></trkpt><trkpt lat="50.43995830497832" lon="16.150563476939553"><ele>369.0</ele><time>2026-05-02T09:41:33Z</time></trkpt><trkpt lat="50.44008058099759" lon="16.150533967979513"><ele>369.0</ele><time>2026-05-02T09:41:34Z</time></trkpt><trkpt lat="50.44018530417835" lon="16.150468885730895"><ele>369.0</ele><time>2026-05-02T09:41:35Z</time></trkpt><trkpt lat="50.440290492806575" lon="16.15037310428556"><ele>369.0</ele><time>2026-05-02T09:41:36Z</time></trkpt><trkpt lat="50.440384801688275" lon="16.1502457855862"><ele>369.0</ele><time>2026-05-02T09:41:37Z</time></trkpt><trkpt lat="50.44046728131822" lon="16.150087382996503"><ele>368.5</ele><time>2026-05-02T09:41:38Z</time></trkpt><trkpt lat="50.440556510309456" lon="16.14993840533323"><ele>368.0</ele><time>2026-05-02T09:41:39Z</time></trkpt><trkpt lat="50.44064461465301" lon="16.14978867448698"><ele>367.5</ele><time>2026-05-02T09:41:40Z</time></trkpt><trkpt lat="50.440717115084226" lon="16.149634436855965"><ele>367.0</ele><time>2026-05-02T09:41:41Z</time></trkpt><trkpt lat="50.44081645984035" lon="16.149528112589817"><ele>367.0</ele><time>2026-05-02T09:41:42Z</time></trkpt><trkpt lat="50.44090837763569" lon="16.14940844727822"><ele>367.0</ele><time>2026-05-02T09:41:43Z</time></trkpt><trkpt lat="50.44098268130103" lon="16.149286621393745"><ele>367.0</ele><time>2026-05-02T09:41:44Z</time></trkpt><trkpt lat="50.441058060335294" lon="16.14919687762112"><ele>367.0</ele><time>2026-05-02T09:41:45Z</time></trkpt><trkpt lat="50.44113289697188" lon="16.149140252687307"><ele>367.0</ele><time>2026-05-02T09:41:46Z</time></trkpt><trkpt lat="50.44118560061258" lon="16.14904920284992"><ele>367.0</ele><time>2026-05-02T09:41:47Z</time></trkpt><trkpt lat="50.44124371032189" lon="16.14898780405004"><ele>367.0</ele><time>2026-05-02T09:41:48Z</time></trkpt><trkpt lat="50.441334638271094" lon="16.148888510262886"><ele>367.0</ele><time>2026-05-02T09:41:50Z</time></trkpt><trkpt lat="50.44142539519293" lon="16.148793476171587"><ele>367.0</ele><time>2026-05-02T09:41:52Z</time></trkpt><trkpt lat="50.44150355774936" lon="16.148733907356586"><ele>367.0</ele><time>2026-05-02T09:41:53Z</time></trkpt><trkpt lat="50.44162057725373" lon="16.148706589336022"><ele>366.75</ele><time>2026-05-02T09:41:54Z</time></trkpt><trkpt lat="50.441750580058816" lon="16.148652516218494"><ele>366.5</ele><time>2026-05-02T09:41:55Z</time></trkpt><trkpt lat="50.441896836510615" lon="16.148634170107517"><ele>366.25</ele><time>2026-05-02T09:41:56Z</time></trkpt><trkpt lat="50.442038858182876" lon="16.14861292801041"><ele>366.0</ele><time>2026-05-02T09:41:57Z</time></trkpt><trkpt lat="50.44215685899366" lon="16.148570904843233"><ele>366.0</ele><time>2026-05-02T09:41:58Z</time></trkpt><trkpt lat="50.44226774022846" lon="16.148495898818148"><ele>366.0</ele><time>2026-05-02T09:41:59Z</time></trkpt><trkpt lat="50.44238764952226" lon="16.148372331144735"><ele>366.0</ele><time>2026-05-02T09:42:00Z</time></trkpt><trkpt lat="50.442519877665816" lon="16.148213350885428"><ele>366.0</ele><time>2026-05-02T09:42:01Z</time></trkpt><trkpt lat="50.44264553072264" lon="16.148067951963597"><ele>366.6666666666667</ele><time>2026-05-02T09:42:02Z</time></trkpt><trkpt lat="50.44278637493132" lon="16.14793435168971"><ele>367.33333333333337</ele><time>2026-05-02T09:42:03Z</time></trkpt><trkpt lat="50.44292267415367" lon="16.147829363468094"><ele>368.0</ele><time>2026-05-02T09:42:04Z</time></trkpt><trkpt lat="50.44305565631353" lon="16.14774032663225"><ele>368.75</ele><time>2026-05-02T09:42:05Z</time></trkpt><trkpt lat="50.443189165162714" lon="16.14766285172286"><ele>369.5</ele><time>2026-05-02T09:42:06Z</time></trkpt><trkpt lat="50.443330101611394" lon="16.147617964343297"><ele>370.25</ele><time>2026-05-02T09:42:07Z</time></trkpt><trkpt lat="50.443460161890954" lon="16.147544026249985"><ele>371.0</ele><time>2026-05-02T09:42:08Z</time></trkpt><trkpt lat="50.44357224568371" lon="16.14753539992445"><ele>371.0</ele><time>2026-05-02T09:42:09Z</time></trkpt><trkpt lat="50.44365426525823" lon="16.147525636435702"><ele>371.0</ele><time>2026-05-02T09:42:10Z</time></trkpt><trkpt lat="50.443778844566445" lon="16.147575070444535"><ele>371.0</ele><time>2026-05-02T09:42:11Z</time></trkpt><trkpt lat="50.443896800410236" lon="16.147687907901823"><ele>371.0</ele><time>2026-05-02T09:42:12Z</time></trkpt><trkpt lat="50.444006087903475" lon="16.14785562736492"><ele>371.6666666666667</ele><time>2026-05-02T09:42:13Z</time></trkpt><trkpt lat="50.444100125521416" lon="16.14805066441641"><ele>372.3333333333333</ele><time>2026-05-02T09:42:14Z</time></trkpt><trkpt lat="50.444194297108524" lon="16.148248980171484"><ele>373.0</ele><time>2026-05-02T09:42:15Z</time></trkpt><trkpt lat="50.44429150744071" lon="16.14840122055081"><ele>373.0</ele><time>2026-05-02T09:42:16Z</time></trkpt><trkpt lat="50.444398723279306" lon="16.14853561933522"><ele>373.0</ele><time>2026-05-02T09:42:17Z</time></trkpt><trkpt lat="50.4445144212361" lon="16.148665720007987"><ele>373.0</ele><time>2026-05-02T09:42:18Z</time></trkpt><trkpt lat="50.444627963124226" lon="16.14879128704856"><ele>373.0</ele><time>2026-05-02T09:42:19Z</time></trkpt><trkpt lat="50.444747463919754" lon="16.14892563563978"><ele>374.5</ele><time>2026-05-02T09:42:20Z</time></trkpt><trkpt lat="50.44487901119617" lon="16.149064307085677"><ele>376.0</ele><time>2026-05-02T09:42:21Z</time></trkpt><trkpt lat="50.445007322252856" lon="16.14918265714233"><ele>377.5</ele><time>2026-05-02T09:42:22Z</time></trkpt><trkpt lat="50.44512740229437" lon="16.149274007271142"><ele>379.0</ele><time>2026-05-02T09:42:23Z</time></trkpt><trkpt lat="50.445241226467274" lon="16.14937126924173"><ele>379.0</ele><time>2026-05-02T09:42:24Z</time></trkpt><trkpt lat="50.445373702656816" lon="16.149456479398545"><ele>379.0</ele><time>2026-05-02T09:42:25Z</time></trkpt><trkpt lat="50.44549403414044" lon="16.14954466378064"><ele>379.0</ele><time>2026-05-02T09:42:26Z</time></trkpt><trkpt lat="50.44559609661199" lon="16.149666736707893"><ele>379.0</ele><time>2026-05-02T09:42:27Z</time></trkpt><trkpt lat="50.44569161650275" lon="16.1498067881842"><ele>377.75</ele><time>2026-05-02T09:42:28Z</time></trkpt><trkpt lat="50.445770108757294" lon="16.149956923571903"><ele>376.5</ele><time>2026-05-02T09:42:29Z</time></trkpt><trkpt lat="50.44583545344327" lon="16.150111668248666"><ele>375.25</ele><time>2026-05-02T09:42:30Z</time></trkpt><trkpt lat="50.44590132303321" lon="16.150275894087283"><ele>374.0</ele><time>2026-05-02T09:42:31Z</time></trkpt><trkpt lat="50.44597637856696" lon="16.150446914459827"><ele>374.0</ele><time>2026-05-02T09:42:32Z</time></trkpt><trkpt lat="50.44607066792876" lon="16.150595692997836"><ele>374.0</ele><time>2026-05-02T09:42:33Z</time></trkpt><trkpt lat="50.446186403779855" lon="16.150694795896147"><ele>374.0</ele><time>2026-05-02T09:42:34Z</time></trkpt><trkpt lat="50.446324012200165" lon="16.15073808215379"><ele>374.0</ele><time>2026-05-02T09:42:35Z</time></trkpt><trkpt lat="50.4464861099918" lon="16.15073932678789"><ele>376.33333333333337</ele><time>2026-05-02T09:42:36Z</time></trkpt><trkpt lat="50.446664227139856" lon="16.15072731298778"><ele>378.6666666666667</ele><time>2026-05-02T09:42:37Z</time></trkpt><trkpt lat="50.44685152061139" lon="16.1507585044502"><ele>381.0</ele><time>2026-05-02T09:42:38Z</time></trkpt><trkpt lat="50.44705032030048" lon="16.1508387643737"><ele>385.0</ele><time>2026-05-02T09:42:39Z</time></trkpt><trkpt lat="50.44726901915105" lon="16.150942705509586"><ele>389.0</ele><time>2026-05-02T09:42:40Z</time></trkpt><trkpt lat="50.4474870773479" lon="16.15103388856216"><ele>389.0</ele><time>2026-05-02T09:42:41Z</time></trkpt><trkpt lat="50.44772195031788" lon="16.151131021257473"><ele>389.0</ele><time>2026-05-02T09:42:42Z</time></trkpt><trkpt lat="50.447933985121956" lon="16.151223754803443"><ele>396.3333333333333</ele><time>2026-05-02T09:42:43Z</time></trkpt><trkpt lat="50.4481396753556" lon="16.151310168655538"><ele>403.66666666666663</ele><time>2026-05-02T09:42:44Z</time></trkpt><trkpt lat="50.44834456871838" lon="16.151396814941204"><ele>411.0</ele><time>2026-05-02T09:42:45Z</time></trkpt><trkpt lat="50.44854255694464" lon="16.151486210402027"><ele>406.0</ele><time>2026-05-02T09:42:46Z</time></trkpt><trkpt lat="50.448730965517974" lon="16.151580938991824"><ele>401.0</ele><time>2026-05-02T09:42:47Z</time></trkpt><trkpt lat="50.44890825375844" lon="16.151690091164532"><ele>396.0</ele><time>2026-05-02T09:42:48Z</time></trkpt><trkpt lat="50.4490695917324" lon="16.151811695079015"><ele>396.0</ele><time>2026-05-02T09:42:49Z</time></trkpt><trkpt lat="50.44921266933958" lon="16.15192397891254"><ele>396.0</ele><time>2026-05-02T09:42:50Z</time></trkpt><trkpt lat="50.449353686293044" lon="16.152013573332983"><ele>396.0</ele><time>2026-05-02T09:42:51Z</time></trkpt><trkpt lat="50.44949175032992" lon="16.15206911300859"><ele>394.66666666666663</ele><time>2026-05-02T09:42:52Z</time></trkpt><trkpt lat="50.44963578371376" lon="16.15206809019099"><ele>393.3333333333333</ele><time>2026-05-02T09:42:53Z</time></trkpt><trkpt lat="50.44978086429631" lon="16.152002707318832"><ele>392.0</ele><time>2026-05-02T09:42:54Z</time></trkpt><trkpt lat="50.44992083834265" lon="16.151866421600054"><ele>392.0</ele><time>2026-05-02T09:42:55Z</time></trkpt><trkpt lat="50.45005113504568" lon="16.151683258649154"><ele>392.0</ele><time>2026-05-02T09:42:56Z</time></trkpt><trkpt lat="50.45018448882064" lon="16.151460628097283"><ele>392.0</ele><time>2026-05-02T09:42:57Z</time></trkpt><trkpt lat="50.450307736561015" lon="16.15122723154042"><ele>395.3333333333333</ele><time>2026-05-02T09:42:58Z</time></trkpt><trkpt lat="50.45043684401452" lon="16.15105291213517"><ele>398.66666666666663</ele><time>2026-05-02T09:42:59Z</time></trkpt><trkpt lat="50.45055209664089" lon="16.150865832044044"><ele>402.0</ele><time>2026-05-02T09:43:00Z</time></trkpt><trkpt lat="50.4507181016306" lon="16.150715419682857"><ele>400.0</ele><time>2026-05-02T09:43:01Z</time></trkpt><trkpt lat="50.450911532340726" lon="16.150592528423108"><ele>398.0</ele><time>2026-05-02T09:43:02Z</time></trkpt><trkpt lat="50.45111657980055" lon="16.15049239477919"><ele>396.0</ele><time>2026-05-02T09:43:03Z</time></trkpt><trkpt lat="50.4513256519163" lon="16.1503746997841"><ele>396.0</ele><time>2026-05-02T09:43:04Z</time></trkpt><trkpt lat="50.4515315845761" lon="16.150253117403015"><ele>396.0</ele><time>2026-05-02T09:43:05Z</time></trkpt><trkpt lat="50.45174354118572" lon="16.15013986914551"><ele>396.0</ele><time>2026-05-02T09:43:06Z</time></trkpt><trkpt lat="50.45193885148743" lon="16.1500340967066"><ele>396.0</ele><time>2026-05-02T09:43:07Z</time></trkpt><trkpt lat="50.45212100239268" lon="16.149933480316697"><ele>396.0</ele><time>2026-05-02T09:43:08Z</time></trkpt><trkpt lat="50.45228627807923" lon="16.149831280522193"><ele>396.0</ele><time>2026-05-02T09:43:09Z</time></trkpt><trkpt lat="50.452434064615964" lon="16.14972332104357"><ele>394.0</ele><time>2026-05-02T09:43:10Z</time></trkpt><trkpt lat="50.45256561290589" lon="16.14960756971711"><ele>392.0</ele><time>2026-05-02T09:43:11Z</time></trkpt><trkpt lat="50.45268654463287" lon="16.149481679378752"><ele>390.0</ele><time>2026-05-02T09:43:12Z</time></trkpt><trkpt lat="50.4528170436813" lon="16.14931306059516"><ele>390.0</ele><time>2026-05-02T09:43:13Z</time></trkpt><trkpt lat="50.45296254423669" lon="16.149147025580554"><ele>390.0</ele><time>2026-05-02T09:43:14Z</time></trkpt><trkpt lat="50.45312308665398" lon="16.14899968580157"><ele>390.0</ele><time>2026-05-02T09:43:15Z</time></trkpt><trkpt lat="50.4532861567412" lon="16.148844522934542"><ele>390.0</ele><time>2026-05-02T09:43:16Z</time></trkpt><trkpt lat="50.45341197569675" lon="16.148745810269318"><ele>390.0</ele><time>2026-05-02T09:43:17Z</time></trkpt><trkpt lat="50.45355015317961" lon="16.14864087987546"><ele>390.0</ele><time>2026-05-02T09:43:18Z</time></trkpt><trkpt lat="50.453700736646184" lon="16.1485524326971"><ele>391.66666666666663</ele><time>2026-05-02T09:43:19Z</time></trkpt><trkpt lat="50.45386794728028" lon="16.14846879840794"><ele>393.3333333333333</ele><time>2026-05-02T09:43:20Z</time></trkpt><trkpt lat="50.454037377505074" lon="16.14839151387944"><ele>395.0</ele><time>2026-05-02T09:43:21Z</time></trkpt><trkpt lat="50.45421602086604" lon="16.14829893102088"><ele>398.0</ele><time>2026-05-02T09:43:22Z</time></trkpt><trkpt lat="50.45438729837439" lon="16.148195572516723"><ele>401.0</ele><time>2026-05-02T09:43:23Z</time></trkpt><trkpt lat="50.45455876214647" lon="16.14809091139618"><ele>404.0</ele><time>2026-05-02T09:43:24Z</time></trkpt><trkpt lat="50.4547246249748" lon="16.14798858915949"><ele>405.3333333333333</ele><time>2026-05-02T09:43:25Z</time></trkpt><trkpt lat="50.454890195788444" lon="16.147889023978287"><ele>406.66666666666663</ele><time>2026-05-02T09:43:26Z</time></trkpt><trkpt lat="50.455053856695905" lon="16.14776977676335"><ele>408.0</ele><time>2026-05-02T09:43:27Z</time></trkpt><trkpt lat="50.45522725540162" lon="16.147715471035255"><ele>408.0</ele><time>2026-05-02T09:43:28Z</time></trkpt><trkpt lat="50.45540020577364" lon="16.147641466653468"><ele>408.0</ele><time>2026-05-02T09:43:29Z</time></trkpt><trkpt lat="50.455578709362214" lon="16.14758546882633"><ele>408.0</ele><time>2026-05-02T09:43:30Z</time></trkpt><trkpt lat="50.45577592905486" lon="16.14754331734151"><ele>408.0</ele><time>2026-05-02T09:43:31Z</time></trkpt><trkpt lat="50.45597392685511" lon="16.147527548361932"><ele>408.0</ele><time>2026-05-02T09:43:32Z</time></trkpt><trkpt lat="50.456173618160655" lon="16.147536240299637"><ele>408.0</ele><time>2026-05-02T09:43:33Z</time></trkpt><trkpt lat="50.456381446917476" lon="16.147566305251374"><ele>405.0</ele><time>2026-05-02T09:43:34Z</time></trkpt><trkpt lat="50.456588332603005" lon="16.147610771992397"><ele>402.0</ele><time>2026-05-02T09:43:35Z</time></trkpt><trkpt lat="50.45678442817375" lon="16.147653807682744"><ele>399.0</ele><time>2026-05-02T09:43:36Z</time></trkpt><trkpt lat="50.456979679460524" lon="16.147667191143654"><ele>400.0</ele><time>2026-05-02T09:43:37Z</time></trkpt><trkpt lat="50.45716787389518" lon="16.14769623715238"><ele>401.0</ele><time>2026-05-02T09:43:38Z</time></trkpt><trkpt lat="50.45735546850468" lon="16.147700273377144"><ele>402.0</ele><time>2026-05-02T09:43:39Z</time></trkpt><trkpt lat="50.45754766116641" lon="16.14766992389317"><ele>402.0</ele><time>2026-05-02T09:43:40Z</time></trkpt><trkpt lat="50.45773141709873" lon="16.147590943302475"><ele>402.0</ele><time>2026-05-02T09:43:41Z</time></trkpt><trkpt lat="50.45789944357099" lon="16.14749212823394"><ele>402.0</ele><time>2026-05-02T09:43:42Z</time></trkpt><trkpt lat="50.458045024423974" lon="16.14738717918957"><ele>405.5</ele><time>2026-05-02T09:43:43Z</time></trkpt><trkpt lat="50.45816946515592" lon="16.147277023810485"><ele>409.0</ele><time>2026-05-02T09:43:44Z</time></trkpt><trkpt lat="50.45830121336892" lon="16.147218623803536"><ele>412.5</ele><time>2026-05-02T09:43:45Z</time></trkpt><trkpt lat="50.458423844633444" lon="16.147196932287017"><ele>416.0</ele><time>2026-05-02T09:43:46Z</time></trkpt><trkpt lat="50.45853440886974" lon="16.147242098457433"><ele>413.3333333333333</ele><time>2026-05-02T09:43:47Z</time></trkpt><trkpt lat="50.45867035923885" lon="16.147380414785797"><ele>410.66666666666663</ele><time>2026-05-02T09:43:48Z</time></trkpt><trkpt lat="50.45881352295218" lon="16.147579264519194"><ele>408.0</ele><time>2026-05-02T09:43:49Z</time></trkpt><trkpt lat="50.45896797085155" lon="16.147823233092122"><ele>408.0</ele><time>2026-05-02T09:43:50Z</time></trkpt><trkpt lat="50.45914015541408" lon="16.148089443410097"><ele>408.0</ele><time>2026-05-02T09:43:51Z</time></trkpt><trkpt lat="50.459289975528264" lon="16.148357340293543"><ele>406.66666666666663</ele><time>2026-05-02T09:43:52Z</time></trkpt><trkpt lat="50.459415836722734" lon="16.148560698383317"><ele>405.3333333333333</ele><time>2026-05-02T09:43:53Z</time></trkpt><trkpt lat="50.45952272081658" lon="16.148713543782197"><ele>404.0</ele><time>2026-05-02T09:43:54Z</time></trkpt><trkpt lat="50.459660082736136" lon="16.14880864265292"><ele>404.0</ele><time>2026-05-02T09:43:55Z</time></trkpt><trkpt lat="50.45985977288226" lon="16.148866411615618"><ele>404.0</ele><time>2026-05-02T09:43:56Z</time></trkpt><trkpt lat="50.46006850579613" lon="16.148905994462517"><ele>404.0</ele><time>2026-05-02T09:43:57Z</time></trkpt><trkpt lat="50.46024192706306" lon="16.148992211738985"><ele>403.3333333333333</ele><time>2026-05-02T09:43:58Z</time></trkpt><trkpt lat="50.46042161916234" lon="16.149058153270687"><ele>402.66666666666663</ele><time>2026-05-02T09:43:59Z</time></trkpt><trkpt lat="50.4605834218289" lon="16.149116010339707"><ele>402.0</ele><time>2026-05-02T09:44:00Z</time></trkpt><trkpt lat="50.460745584896294" lon="16.149129382596286"><ele>401.33333333333337</ele><time>2026-05-02T09:44:01Z</time></trkpt><trkpt lat="50.46090245003466" lon="16.149152188607484"><ele>400.6666666666667</ele><time>2026-05-02T09:44:02Z</time></trkpt><trkpt lat="50.461058897719" lon="16.149131048235315"><ele>400.0</ele><time>2026-05-02T09:44:03Z</time></trkpt><trkpt lat="50.46120658435085" lon="16.149150323888836"><ele>399.75</ele><time>2026-05-02T09:44:04Z</time></trkpt><trkpt lat="50.46134492115275" lon="16.14914942553261"><ele>399.5</ele><time>2026-05-02T09:44:05Z</time></trkpt><trkpt lat="50.46147351475763" lon="16.149170131800993"><ele>399.25</ele><time>2026-05-02T09:44:06Z</time></trkpt><trkpt lat="50.461606585935755" lon="16.149221263187066"><ele>399.0</ele><time>2026-05-02T09:44:07Z</time></trkpt><trkpt lat="50.46174323704891" lon="16.149302136772246"><ele>399.0</ele><time>2026-05-02T09:44:08Z</time></trkpt><trkpt lat="50.46187275474578" lon="16.149367516969075"><ele>399.0</ele><time>2026-05-02T09:44:09Z</time></trkpt><trkpt lat="50.46199249455406" lon="16.14947778916604"><ele>399.0</ele><time>2026-05-02T09:44:10Z</time></trkpt><trkpt lat="50.46213678667855" lon="16.149619101646838"><ele>399.0</ele><time>2026-05-02T09:44:11Z</time></trkpt><trkpt lat="50.46227375501155" lon="16.149806682276164"><ele>399.33333333333337</ele><time>2026-05-02T09:44:12Z</time></trkpt><trkpt lat="50.46240691009512" lon="16.15000325858446"><ele>399.6666666666667</ele><time>2026-05-02T09:44:13Z</time></trkpt><trkpt lat="50.462534066939924" lon="16.15016521639806"><ele>400.0</ele><time>2026-05-02T09:44:14.001Z</time></trkpt><trkpt lat="50.46264994176515" lon="16.150288892625554"><ele>400.0</ele><time>2026-05-02T09:44:15.001Z</time></trkpt><trkpt lat="50.462767158407075" lon="16.15035194348803"><ele>400.0</ele><time>2026-05-02T09:44:16.001Z</time></trkpt><trkpt lat="50.46289579302864" lon="16.150376171283728"><ele>400.0</ele><time>2026-05-02T09:44:17.001Z</time></trkpt><trkpt lat="50.46304309960376" lon="16.15036668676821"><ele>400.0</ele><time>2026-05-02T09:44:18.001Z</time></trkpt><trkpt lat="50.46319729908346" lon="16.150325392252352"><ele>401.33333333333337</ele><time>2026-05-02T09:44:19.001Z</time></trkpt><trkpt lat="50.4633535647621" lon="16.15026614865052"><ele>402.66666666666663</ele><time>2026-05-02T09:44:20.001Z</time></trkpt><trkpt lat="50.463501905937214" lon="16.150209010907137"><ele>404.0</ele><time>2026-05-02T09:44:21.001Z</time></trkpt><trkpt lat="50.46364456408138" lon="16.150161282182516"><ele>404.0</ele><time>2026-05-02T09:44:22.001Z</time></trkpt><trkpt lat="50.46377880357668" lon="16.150119564979754"><ele>404.0</ele><time>2026-05-02T09:44:23.001Z</time></trkpt><trkpt lat="50.463905147056735" lon="16.150079454536026"><ele>404.0</ele><time>2026-05-02T09:44:24.001Z</time></trkpt><trkpt lat="50.46403714879684" lon="16.150035022353798"><ele>404.0</ele><time>2026-05-02T09:44:25.001Z</time></trkpt><trkpt lat="50.464168888579664" lon="16.149987044516074"><ele>404.0</ele><time>2026-05-02T09:44:26.001Z</time></trkpt><trkpt lat="50.464302483782404" lon="16.14991701654468"><ele>404.0</ele><time>2026-05-02T09:44:27.001Z</time></trkpt><trkpt lat="50.46443657034882" lon="16.149815846248107"><ele>404.0</ele><time>2026-05-02T09:44:28.001Z</time></trkpt><trkpt lat="50.46457445567077" lon="16.14966787595759"><ele>405.0</ele><time>2026-05-02T09:44:29.001Z</time></trkpt><trkpt lat="50.46473309642471" lon="16.149547076647757"><ele>406.0</ele><time>2026-05-02T09:44:30.001Z</time></trkpt><trkpt lat="50.464865885022036" lon="16.149443909334497"><ele>407.0</ele><time>2026-05-02T09:44:31.001Z</time></trkpt><trkpt lat="50.4649794345548" lon="16.14933667658925"><ele>407.0</ele><time>2026-05-02T09:44:32.001Z</time></trkpt><trkpt lat="50.46509684799388" lon="16.1492303347986"><ele>407.0</ele><time>2026-05-02T09:44:33.001Z</time></trkpt><trkpt lat="50.46521234435973" lon="16.149077532299607"><ele>407.0</ele><time>2026-05-02T09:44:34.001Z</time></trkpt><trkpt lat="50.46531942124081" lon="16.14890608230773"><ele>407.0</ele><time>2026-05-02T09:44:35.001Z</time></trkpt><trkpt lat="50.46542028417222" lon="16.148748529001665"><ele>407.25</ele><time>2026-05-02T09:44:36.001Z</time></trkpt><trkpt lat="50.46551415563891" lon="16.148600494389942"><ele>407.5</ele><time>2026-05-02T09:44:37.001Z</time></trkpt><trkpt lat="50.465598185101534" lon="16.148432818030344"><ele>407.75</ele><time>2026-05-02T09:44:38.001Z</time></trkpt><trkpt lat="50.4656824005732" lon="16.14823967760351"><ele>408.0</ele><time>2026-05-02T09:44:39.001Z</time></trkpt><trkpt lat="50.4657427900833" lon="16.148043304173395"><ele>408.5</ele><time>2026-05-02T09:44:40.001Z</time></trkpt><trkpt lat="50.46579203439665" lon="16.147827961507822"><ele>409.0</ele><time>2026-05-02T09:44:41.001Z</time></trkpt><trkpt lat="50.46582970103581" lon="16.147601742378555"><ele>409.5</ele><time>2026-05-02T09:44:42Z</time></trkpt><trkpt lat="50.465863077775296" lon="16.147369313727335"><ele>410.0</ele><time>2026-05-02T09:44:43Z</time></trkpt><trkpt lat="50.46589739348699" lon="16.147130703495936"><ele>410.25</ele><time>2026-05-02T09:44:44Z</time></trkpt><trkpt lat="50.46592810871739" lon="16.146917485598635"><ele>410.5</ele><time>2026-05-02T09:44:45Z</time></trkpt><trkpt lat="50.465956951994826" lon="16.146711224730144"><ele>410.75</ele><time>2026-05-02T09:44:46Z</time></trkpt><trkpt lat="50.465991543587876" lon="16.146505098304022"><ele>411.0</ele><time>2026-05-02T09:44:47Z</time></trkpt><trkpt lat="50.466032392441605" lon="16.146294055565246"><ele>411.0</ele><time>2026-05-02T09:44:48Z</time></trkpt><trkpt lat="50.46608025925502" lon="16.146081449175213"><ele>411.0</ele><time>2026-05-02T09:44:49Z</time></trkpt><trkpt lat="50.46613182549132" lon="16.145879116741586"><ele>411.0</ele><time>2026-05-02T09:44:50Z</time></trkpt><trkpt lat="50.46618535808986" lon="16.145671089675734"><ele>411.0</ele><time>2026-05-02T09:44:51Z</time></trkpt><trkpt lat="50.466245036836" lon="16.14545810112761"><ele>412.0</ele><time>2026-05-02T09:44:52Z</time></trkpt><trkpt lat="50.46632079911132" lon="16.145251590791307"><ele>413.0</ele><time>2026-05-02T09:44:53Z</time></trkpt><trkpt lat="50.46643176361416" lon="16.14511704036094"><ele>414.0</ele><time>2026-05-02T09:44:54Z</time></trkpt><trkpt lat="50.46654337160841" lon="16.144990076536242"><ele>415.0</ele><time>2026-05-02T09:44:55Z</time></trkpt><trkpt lat="50.466665609509135" lon="16.144880006022237"><ele>415.25</ele><time>2026-05-02T09:44:56Z</time></trkpt><trkpt lat="50.46679919155557" lon="16.14480255780175"><ele>415.5</ele><time>2026-05-02T09:44:57Z</time></trkpt><trkpt lat="50.46693707780163" lon="16.14477471289023"><ele>415.75</ele><time>2026-05-02T09:44:58Z</time></trkpt><trkpt lat="50.46708784743826" lon="16.14478523901405"><ele>416.0</ele><time>2026-05-02T09:44:59Z</time></trkpt><trkpt lat="50.46723024867827" lon="16.144796147113112"><ele>416.0</ele><time>2026-05-02T09:45:00Z</time></trkpt><trkpt lat="50.467352626713875" lon="16.144786966154893"><ele>416.0</ele><time>2026-05-02T09:45:01Z</time></trkpt><trkpt lat="50.46742857006239" lon="16.144771801238402"><ele>416.0</ele><time>2026-05-02T09:45:02Z</time></trkpt><trkpt lat="50.46747760763554" lon="16.144707601986244"><ele>416.0</ele><time>2026-05-02T09:45:03Z</time></trkpt><trkpt lat="50.46750703399257" lon="16.144583283753352"><ele>416.0</ele><time>2026-05-02T09:45:04Z</time></trkpt><trkpt lat="50.4675064143809" lon="16.14442108197711"><ele>416.0</ele><time>2026-05-02T09:45:05Z</time></trkpt><trkpt lat="50.467480679862085" lon="16.14421299550744"><ele>416.0</ele><time>2026-05-02T09:45:06Z</time></trkpt><trkpt lat="50.467470161351905" lon="16.143926001306735"><ele>416.0</ele><time>2026-05-02T09:45:07Z</time></trkpt><trkpt lat="50.46751622413624" lon="16.14369200386218"><ele>417.0</ele><time>2026-05-02T09:45:08Z</time></trkpt><trkpt lat="50.467533894957626" lon="16.143292659243716"><ele>418.0</ele><time>2026-05-02T09:45:09Z</time></trkpt><trkpt lat="50.467545430966744" lon="16.143026965558246"><ele>419.0</ele><time>2026-05-02T09:45:10Z</time></trkpt><trkpt lat="50.46757945728693" lon="16.142751864149016"><ele>419.66666666666663</ele><time>2026-05-02T09:45:11Z</time></trkpt><trkpt lat="50.467583452983106" lon="16.142413711705036"><ele>420.33333333333337</ele><time>2026-05-02T09:45:12Z</time></trkpt><trkpt lat="50.467604968887635" lon="16.142104240224317"><ele>421.0</ele><time>2026-05-02T09:45:13Z</time></trkpt><trkpt lat="50.46763797202782" lon="16.141783738440594"><ele>422.33333333333337</ele><time>2026-05-02T09:45:14Z</time></trkpt><trkpt lat="50.46769309161609" lon="16.141495584656518"><ele>423.66666666666663</ele><time>2026-05-02T09:45:15Z</time></trkpt><trkpt lat="50.46774028808047" lon="16.14125552343602"><ele>425.0</ele><time>2026-05-02T09:45:16Z</time></trkpt><trkpt lat="50.4678144205805" lon="16.14100436928179"><ele>425.0</ele><time>2026-05-02T09:45:17Z</time></trkpt><trkpt lat="50.46791250062037" lon="16.140744535683275"><ele>425.0</ele><time>2026-05-02T09:45:18Z</time></trkpt><trkpt lat="50.468013618212254" lon="16.140482178851293"><ele>425.0</ele><time>2026-05-02T09:45:19Z</time></trkpt><trkpt lat="50.46810485166061" lon="16.14016894920311"><ele>431.0</ele><time>2026-05-02T09:45:20Z</time></trkpt><trkpt lat="50.46821315647064" lon="16.139860113542515"><ele>437.0</ele><time>2026-05-02T09:45:21Z</time></trkpt><trkpt lat="50.468311407301044" lon="16.13954070976177"><ele>437.0</ele><time>2026-05-02T09:45:22Z</time></trkpt><trkpt lat="50.468403766455275" lon="16.1392196104985"><ele>437.0</ele><time>2026-05-02T09:45:23Z</time></trkpt><trkpt lat="50.46847818162791" lon="16.138882602609844"><ele>436.0</ele><time>2026-05-02T09:45:24Z</time></trkpt><trkpt lat="50.468548216685484" lon="16.13854195469704"><ele>435.0</ele><time>2026-05-02T09:45:25Z</time></trkpt><trkpt lat="50.468613635102976" lon="16.13818763555491"><ele>435.0</ele><time>2026-05-02T09:45:26Z</time></trkpt><trkpt lat="50.46866632015652" lon="16.13786977448416"><ele>435.0</ele><time>2026-05-02T09:45:27Z</time></trkpt><trkpt lat="50.468730706101454" lon="16.137570384260325"><ele>435.0</ele><time>2026-05-02T09:45:28Z</time></trkpt><trkpt lat="50.468840000610356" lon="16.13728069117632"><ele>443.0</ele><time>2026-05-02T09:45:29Z</time></trkpt><trkpt lat="50.46895982886003" lon="16.136960388118148"><ele>451.0</ele><time>2026-05-02T09:45:30Z</time></trkpt><trkpt lat="50.469068414091794" lon="16.1366007199931"><ele>449.5</ele><time>2026-05-02T09:45:31Z</time></trkpt><trkpt lat="50.46918158490332" lon="16.136207953424783"><ele>448.0</ele><time>2026-05-02T09:45:32Z</time></trkpt><trkpt lat="50.46928411272067" lon="16.13580017799854"><ele>448.5</ele><time>2026-05-02T09:45:33Z</time></trkpt><trkpt lat="50.46937298650555" lon="16.135409125676716"><ele>449.0</ele><time>2026-05-02T09:45:34Z</time></trkpt><trkpt lat="50.46944397205731" lon="16.13498821103377"><ele>449.5</ele><time>2026-05-02T09:45:35Z</time></trkpt><trkpt lat="50.46949903710467" lon="16.134536589009134"><ele>450.0</ele><time>2026-05-02T09:45:36Z</time></trkpt><trkpt lat="50.46955444190569" lon="16.134103838919632"><ele>453.0</ele><time>2026-05-02T09:45:37Z</time></trkpt><trkpt lat="50.46964965668064" lon="16.133687834975586"><ele>456.0</ele><time>2026-05-02T09:45:38Z</time></trkpt><trkpt lat="50.46972614364783" lon="16.1332719263693"><ele>456.5</ele><time>2026-05-02T09:45:39Z</time></trkpt><trkpt lat="50.46981471193826" lon="16.132880289659127"><ele>457.0</ele><time>2026-05-02T09:45:40.001Z</time></trkpt><trkpt lat="50.469901100037156" lon="16.13249378558272"><ele>456.5</ele><time>2026-05-02T09:45:41.001Z</time></trkpt><trkpt lat="50.469990025490596" lon="16.13212236809138"><ele>456.0</ele><time>2026-05-02T09:45:42.001Z</time></trkpt><trkpt lat="50.47007010444961" lon="16.131801726087513"><ele>455.66666666666663</ele><time>2026-05-02T09:45:43.001Z</time></trkpt><trkpt lat="50.47015762865" lon="16.1315102671525"><ele>455.3333333333333</ele><time>2026-05-02T09:45:44.001Z</time></trkpt><trkpt lat="50.470229611668856" lon="16.131212034674007"><ele>455.0</ele><time>2026-05-02T09:45:45.001Z</time></trkpt><trkpt lat="50.47030095168391" lon="16.130914600919088"><ele>455.3333333333333</ele><time>2026-05-02T09:45:46.001Z</time></trkpt><trkpt lat="50.47035584880442" lon="16.130608246366602"><ele>455.66666666666663</ele><time>2026-05-02T09:45:47.001Z</time></trkpt><trkpt lat="50.470416779060734" lon="16.130333299438536"><ele>456.0</ele><time>2026-05-02T09:45:48.001Z</time></trkpt><trkpt lat="50.47045768987238" lon="16.130067115035732"><ele>457.66666666666663</ele><time>2026-05-02T09:45:49.001Z</time></trkpt><trkpt lat="50.470475100272395" lon="16.129821641237267"><ele>459.3333333333333</ele><time>2026-05-02T09:45:50.001Z</time></trkpt><trkpt lat="50.47046597085829" lon="16.129582343502534"><ele>461.0</ele><time>2026-05-02T09:45:51.001Z</time></trkpt><trkpt lat="50.47046741647504" lon="16.129336557628445"><ele>461.0</ele><time>2026-05-02T09:45:52.001Z</time></trkpt><trkpt lat="50.47046399370221" lon="16.12911789638295"><ele>461.0</ele><time>2026-05-02T09:45:53.001Z</time></trkpt><trkpt lat="50.47046060774085" lon="16.128901586642066"><ele>461.0</ele><time>2026-05-02T09:45:54.001Z</time></trkpt><trkpt lat="50.47039224599926" lon="16.12865254564812"><ele>457.0</ele><time>2026-05-02T09:45:55.001Z</time></trkpt><trkpt lat="50.470371678985835" lon="16.128325257239602"><ele>453.0</ele><time>2026-05-02T09:45:56.001Z</time></trkpt><trkpt lat="50.470329201352" lon="16.12791552239731"><ele>452.0</ele><time>2026-05-02T09:45:57.001Z</time></trkpt><trkpt lat="50.47027606814525" lon="16.127431679369188"><ele>451.0</ele><time>2026-05-02T09:45:58.001Z</time></trkpt><trkpt lat="50.470215630976455" lon="16.12688511642503"><ele>450.5</ele><time>2026-05-02T09:45:59.001Z</time></trkpt><trkpt lat="50.470156192662934" lon="16.12630061732488"><ele>450.0</ele><time>2026-05-02T09:46:00.001Z</time></trkpt><trkpt lat="50.47011548258153" lon="16.125771214075126"><ele>449.0</ele><time>2026-05-02T09:46:01.001Z</time></trkpt><trkpt lat="50.47008334421969" lon="16.12528911138877"><ele>448.0</ele><time>2026-05-02T09:46:02.001Z</time></trkpt><trkpt lat="50.47004175095746" lon="16.124854886386697"><ele>446.5</ele><time>2026-05-02T09:46:03.001Z</time></trkpt><trkpt lat="50.46999671155424" lon="16.124446560353885"><ele>445.0</ele><time>2026-05-02T09:46:04.001Z</time></trkpt><trkpt lat="50.469951552740866" lon="16.124025203525022"><ele>443.5</ele><time>2026-05-02T09:46:05.001Z</time></trkpt><trkpt lat="50.46988554333274" lon="16.1235920087968"><ele>442.0</ele><time>2026-05-02T09:46:06.001Z</time></trkpt><trkpt lat="50.469794333804245" lon="16.123155536158617"><ele>441.5</ele><time>2026-05-02T09:46:07.001Z</time></trkpt><trkpt lat="50.4696861443016" lon="16.122723026241196"><ele>441.0</ele><time>2026-05-02T09:46:08.001Z</time></trkpt><trkpt lat="50.46956533731777" lon="16.12228668379541"><ele>440.5</ele><time>2026-05-02T09:46:09.001Z</time></trkpt><trkpt lat="50.46942808933666" lon="16.121853490387124"><ele>440.0</ele><time>2026-05-02T09:46:10.001Z</time></trkpt><trkpt lat="50.469301465203515" lon="16.121447734327564"><ele>443.0</ele><time>2026-05-02T09:46:11.001Z</time></trkpt><trkpt lat="50.46918809042309" lon="16.12107985262104"><ele>446.0</ele><time>2026-05-02T09:46:12.001Z</time></trkpt><trkpt lat="50.46908194309045" lon="16.120714635850035"><ele>446.0</ele><time>2026-05-02T09:46:13.001Z</time></trkpt><trkpt lat="50.46898917458825" lon="16.12032294292791"><ele>446.0</ele><time>2026-05-02T09:46:14.001Z</time></trkpt><trkpt lat="50.468915346162156" lon="16.119901602821958"><ele>444.5</ele><time>2026-05-02T09:46:15.001Z</time></trkpt><trkpt lat="50.4688718244937" lon="16.11947482798489"><ele>443.0</ele><time>2026-05-02T09:46:16.001Z</time></trkpt><trkpt lat="50.4688546537056" lon="16.119038178446125"><ele>442.0</ele><time>2026-05-02T09:46:17.001Z</time></trkpt><trkpt lat="50.468853152811796" lon="16.118582867384973"><ele>441.0</ele><time>2026-05-02T09:46:18.001Z</time></trkpt><trkpt lat="50.46886238167767" lon="16.11810451311669"><ele>438.0</ele><time>2026-05-02T09:46:19.001Z</time></trkpt><trkpt lat="50.46887372928721" lon="16.117599181179887"><ele>435.0</ele><time>2026-05-02T09:46:20.001Z</time></trkpt><trkpt lat="50.46888732078463" lon="16.117087708675886"><ele>434.0</ele><time>2026-05-02T09:46:21.001Z</time></trkpt><trkpt lat="50.46889312159185" lon="16.11659039180657"><ele>433.0</ele><time>2026-05-02T09:46:22.001Z</time></trkpt><trkpt lat="50.46890569439596" lon="16.116143824424988"><ele>432.0</ele><time>2026-05-02T09:46:23.001Z</time></trkpt><trkpt lat="50.468942218716016" lon="16.11570491663841"><ele>431.0</ele><time>2026-05-02T09:46:24.001Z</time></trkpt><trkpt lat="50.46901079246754" lon="16.115252289685152"><ele>430.5</ele><time>2026-05-02T09:46:25.001Z</time></trkpt><trkpt lat="50.46909998220582" lon="16.114812854354177"><ele>430.0</ele><time>2026-05-02T09:46:26.001Z</time></trkpt><trkpt lat="50.46919737769346" lon="16.114386378101226"><ele>429.0</ele><time>2026-05-02T09:46:27.001Z</time></trkpt><trkpt lat="50.4692952539274" lon="16.113962163192035"><ele>428.0</ele><time>2026-05-02T09:46:28.001Z</time></trkpt><trkpt lat="50.46939271278264" lon="16.113537009361426"><ele>427.5</ele><time>2026-05-02T09:46:29.001Z</time></trkpt><trkpt lat="50.46948772619131" lon="16.11311453845314"><ele>427.0</ele><time>2026-05-02T09:46:30.001Z</time></trkpt><trkpt lat="50.46958315976843" lon="16.112688299851502"><ele>427.0</ele><time>2026-05-02T09:46:31.001Z</time></trkpt><trkpt lat="50.469672859481776" lon="16.11227614459164"><ele>427.0</ele><time>2026-05-02T09:46:32.001Z</time></trkpt><trkpt lat="50.46975578506368" lon="16.111896412798597"><ele>427.5</ele><time>2026-05-02T09:46:33.001Z</time></trkpt><trkpt lat="50.469834918061444" lon="16.111545900441726"><ele>428.0</ele><time>2026-05-02T09:46:34.001Z</time></trkpt><trkpt lat="50.469928364966776" lon="16.111203636586183"><ele>428.0</ele><time>2026-05-02T09:46:35.001Z</time></trkpt><trkpt lat="50.47004206686392" lon="16.110857667344625"><ele>428.0</ele><time>2026-05-02T09:46:36.001Z</time></trkpt><trkpt lat="50.47018632765559" lon="16.110511265678245"><ele>428.5</ele><time>2026-05-02T09:46:37.001Z</time></trkpt><trkpt lat="50.470350890658246" lon="16.11016372000295"><ele>429.0</ele><time>2026-05-02T09:46:38.001Z</time></trkpt><trkpt lat="50.47051671950479" lon="16.10981863426919"><ele>431.0</ele><time>2026-05-02T09:46:39.001Z</time></trkpt><trkpt lat="50.47066595243929" lon="16.1095014791107"><ele>433.0</ele><time>2026-05-02T09:46:40.001Z</time></trkpt><trkpt lat="50.47080218475713" lon="16.109187558938526"><ele>432.5</ele><time>2026-05-02T09:46:41.001Z</time></trkpt><trkpt lat="50.47092530974878" lon="16.108871756765122"><ele>432.0</ele><time>2026-05-02T09:46:42.001Z</time></trkpt><trkpt lat="50.47103717838662" lon="16.108563432462002"><ele>432.0</ele><time>2026-05-02T09:46:43.001Z</time></trkpt><trkpt lat="50.4711456132155" lon="16.108259079408555"><ele>432.0</ele><time>2026-05-02T09:46:44.001Z</time></trkpt><trkpt lat="50.47124916040591" lon="16.10795269424315"><ele>432.0</ele><time>2026-05-02T09:46:45.001Z</time></trkpt><trkpt lat="50.47134578310454" lon="16.10766251950463"><ele>433.0</ele><time>2026-05-02T09:46:46.001Z</time></trkpt><trkpt lat="50.47142933534036" lon="16.107391605703466"><ele>434.0</ele><time>2026-05-02T09:46:47.001Z</time></trkpt><trkpt lat="50.47151121332022" lon="16.107129092206637"><ele>435.0</ele><time>2026-05-02T09:46:48.001Z</time></trkpt><trkpt lat="50.47159988895087" lon="16.106867569082247"><ele>435.0</ele><time>2026-05-02T09:46:49.001Z</time></trkpt><trkpt lat="50.47169360704289" lon="16.106609934353095"><ele>435.0</ele><time>2026-05-02T09:46:50.001Z</time></trkpt><trkpt lat="50.47178684843077" lon="16.1063507260941"><ele>435.0</ele><time>2026-05-02T09:46:51.001Z</time></trkpt><trkpt lat="50.47188239778722" lon="16.106092141720765"><ele>435.66666666666663</ele><time>2026-05-02T09:46:52.001Z</time></trkpt><trkpt lat="50.47197561701991" lon="16.10585075649985"><ele>436.3333333333333</ele><time>2026-05-02T09:46:53.001Z</time></trkpt><trkpt lat="50.472065953910146" lon="16.105637963159303"><ele>437.0</ele><time>2026-05-02T09:46:54.001Z</time></trkpt><trkpt lat="50.47215536211898" lon="16.10545117098232"><ele>438.0</ele><time>2026-05-02T09:46:55.001Z</time></trkpt><trkpt lat="50.47223670671632" lon="16.105282210869277"><ele>439.0</ele><time>2026-05-02T09:46:56.001Z</time></trkpt><trkpt lat="50.47231097052566" lon="16.10512133927013"><ele>440.0</ele><time>2026-05-02T09:46:57.001Z</time></trkpt><trkpt lat="50.47238391938581" lon="16.104964850310918"><ele>441.0</ele><time>2026-05-02T09:46:58.001Z</time></trkpt><trkpt lat="50.47245124648887" lon="16.104835876234443"><ele>441.25</ele><time>2026-05-02T09:46:59.001Z</time></trkpt><trkpt lat="50.47252276579564" lon="16.10470560768945"><ele>441.5</ele><time>2026-05-02T09:47:00.001Z</time></trkpt><trkpt lat="50.472595184686696" lon="16.104558006256138"><ele>441.75</ele><time>2026-05-02T09:47:01.001Z</time></trkpt><trkpt lat="50.47267069409338" lon="16.10438950943633"><ele>442.0</ele><time>2026-05-02T09:47:02.001Z</time></trkpt><trkpt lat="50.47275360575463" lon="16.104223366048487"><ele>442.0</ele><time>2026-05-02T09:47:03.001Z</time></trkpt><trkpt lat="50.472832023005154" lon="16.10406799134106"><ele>442.0</ele><time>2026-05-02T09:47:04.001Z</time></trkpt><trkpt lat="50.472911270474604" lon="16.103912837328473"><ele>442.0</ele><time>2026-05-02T09:47:05.001Z</time></trkpt><trkpt lat="50.47298774667854" lon="16.103747307830545"><ele>442.0</ele><time>2026-05-02T09:47:06.001Z</time></trkpt><trkpt lat="50.47306380208043" lon="16.103571035256227"><ele>442.0</ele><time>2026-05-02T09:47:07.001Z</time></trkpt><trkpt lat="50.47313379190566" lon="16.103387137019087"><ele>442.0</ele><time>2026-05-02T09:47:08.001Z</time></trkpt><trkpt lat="50.47318693382398" lon="16.103190891793695"><ele>442.0</ele><time>2026-05-02T09:47:09.001Z</time></trkpt><trkpt lat="50.47322414281719" lon="16.102982870066715"><ele>442.0</ele><time>2026-05-02T09:47:10.001Z</time></trkpt><trkpt lat="50.4732605657192" lon="16.10278145385709"><ele>442.0</ele><time>2026-05-02T09:47:11.001Z</time></trkpt><trkpt lat="50.473298783954434" lon="16.10259531620729"><ele>442.0</ele><time>2026-05-02T09:47:12.001Z</time></trkpt><trkpt lat="50.473334425584206" lon="16.102415886819607"><ele>442.0</ele><time>2026-05-02T09:47:13Z</time></trkpt><trkpt lat="50.47336869244875" lon="16.10222544426655"><ele>442.0</ele><time>2026-05-02T09:47:14Z</time></trkpt><trkpt lat="50.47341401268209" lon="16.102035851239076"><ele>441.25</ele><time>2026-05-02T09:47:15Z</time></trkpt><trkpt lat="50.47343793525276" lon="16.101829572675133"><ele>440.5</ele><time>2026-05-02T09:47:16Z</time></trkpt><trkpt lat="50.473435196688776" lon="16.101615665586625"><ele>439.75</ele><time>2026-05-02T09:47:17Z</time></trkpt><trkpt lat="50.47343139274344" lon="16.101383753846942"><ele>439.0</ele><time>2026-05-02T09:47:18Z</time></trkpt><trkpt lat="50.47341209792451" lon="16.10113547954404"><ele>438.6666666666667</ele><time>2026-05-02T09:47:19Z</time></trkpt><trkpt lat="50.47338418449351" lon="16.100876783010154"><ele>438.33333333333337</ele><time>2026-05-02T09:47:20Z</time></trkpt><trkpt lat="50.473358148019955" lon="16.100627945210746"><ele>438.0</ele><time>2026-05-02T09:47:21Z</time></trkpt><trkpt lat="50.47333670494237" lon="16.100398471138536"><ele>437.5</ele><time>2026-05-02T09:47:22Z</time></trkpt><trkpt lat="50.473317120894876" lon="16.100186916229404"><ele>437.0</ele><time>2026-05-02T09:47:23Z</time></trkpt><trkpt lat="50.47329848440134" lon="16.09998506981974"><ele>436.5</ele><time>2026-05-02T09:47:24Z</time></trkpt><trkpt lat="50.473279893962726" lon="16.099796232493656"><ele>436.0</ele><time>2026-05-02T09:47:25Z</time></trkpt><trkpt lat="50.47328545598737" lon="16.09960334742089"><ele>435.0</ele><time>2026-05-02T09:47:26Z</time></trkpt><trkpt lat="50.473272326603166" lon="16.099408064207942"><ele>434.0</ele><time>2026-05-02T09:47:27Z</time></trkpt><trkpt lat="50.47331647384856" lon="16.09922165605232"><ele>433.0</ele><time>2026-05-02T09:47:28Z</time></trkpt><trkpt lat="50.47337229322024" lon="16.099049558077297"><ele>432.0</ele><time>2026-05-02T09:47:29Z</time></trkpt><trkpt lat="50.47345107419103" lon="16.098901486295798"><ele>431.75</ele><time>2026-05-02T09:47:30Z</time></trkpt><trkpt lat="50.473551956046514" lon="16.098776372484046"><ele>431.5</ele><time>2026-05-02T09:47:31Z</time></trkpt><trkpt lat="50.47366259634447" lon="16.09862465026379"><ele>431.25</ele><time>2026-05-02T09:47:32Z</time></trkpt><trkpt lat="50.47379329903434" lon="16.098487294890823"><ele>431.0</ele><time>2026-05-02T09:47:33Z</time></trkpt><trkpt lat="50.47392865207601" lon="16.098349654721495"><ele>429.66666666666663</ele><time>2026-05-02T09:47:34Z</time></trkpt><trkpt lat="50.47407641672547" lon="16.0982292318369"><ele>428.33333333333337</ele><time>2026-05-02T09:47:35Z</time></trkpt><trkpt lat="50.47422456477213" lon="16.098125677012096"><ele>427.0</ele><time>2026-05-02T09:47:36Z</time></trkpt><trkpt lat="50.474350081076444" lon="16.098046530587215"><ele>427.0</ele><time>2026-05-02T09:47:37Z</time></trkpt><trkpt lat="50.47446374728587" lon="16.098002192862776"><ele>427.00000000000006</ele><time>2026-05-02T09:47:38Z</time></trkpt><trkpt lat="50.47456967365069" lon="16.097938051223185"><ele>427.00000000000006</ele><time>2026-05-02T09:47:39Z</time></trkpt><trkpt lat="50.474671981995726" lon="16.0978761003029"><ele>427.0</ele><time>2026-05-02T09:47:40Z</time></trkpt><trkpt lat="50.47476817928799" lon="16.097807995658076"><ele>427.0</ele><time>2026-05-02T09:47:41Z</time></trkpt><trkpt lat="50.47486848297827" lon="16.097743085981843"><ele>425.25</ele><time>2026-05-02T09:47:42Z</time></trkpt><trkpt lat="50.47497110747286" lon="16.097679518365922"><ele>423.5</ele><time>2026-05-02T09:47:43Z</time></trkpt><trkpt lat="50.47507185534932" lon="16.097610869443976"><ele>421.75</ele><time>2026-05-02T09:47:44Z</time></trkpt><trkpt lat="50.47517533650061" lon="16.097526508194097"><ele>420.0</ele><time>2026-05-02T09:47:45Z</time></trkpt><trkpt lat="50.4752877060401" lon="16.0974417882394"><ele>420.5</ele><time>2026-05-02T09:47:46Z</time></trkpt><trkpt lat="50.475358792436865" lon="16.097315211452997"><ele>421.0</ele><time>2026-05-02T09:47:47Z</time></trkpt><trkpt lat="50.47543399731994" lon="16.097215331112942"><ele>421.5</ele><time>2026-05-02T09:47:48Z</time></trkpt><trkpt lat="50.47553281898366" lon="16.097012127506787"><ele>422.0</ele><time>2026-05-02T09:47:49Z</time></trkpt><trkpt lat="50.475602197433965" lon="16.09682975414305"><ele>420.75</ele><time>2026-05-02T09:47:50Z</time></trkpt><trkpt lat="50.475663918696725" lon="16.096630087986227"><ele>419.5</ele><time>2026-05-02T09:47:51Z</time></trkpt><trkpt lat="50.47572104940947" lon="16.096420313733923"><ele>418.25</ele><time>2026-05-02T09:47:52Z</time></trkpt><trkpt lat="50.47578850180493" lon="16.09621515462725"><ele>417.0</ele><time>2026-05-02T09:47:53Z</time></trkpt><trkpt lat="50.4758504209372" lon="16.096034619880193"><ele>417.0</ele><time>2026-05-02T09:47:54Z</time></trkpt><trkpt lat="50.4759173226248" lon="16.095886794167047"><ele>417.0</ele><time>2026-05-02T09:47:55Z</time></trkpt><trkpt lat="50.47597976629907" lon="16.09573668277026"><ele>417.0</ele><time>2026-05-02T09:47:56Z</time></trkpt><trkpt lat="50.47607910658329" lon="16.095655367992553"><ele>417.0</ele><time>2026-05-02T09:47:57Z</time></trkpt><trkpt lat="50.47618773266717" lon="16.095562546372225"><ele>417.40000000000003</ele><time>2026-05-02T09:47:58Z</time></trkpt><trkpt lat="50.476288878643906" lon="16.095486178914392"><ele>417.8</ele><time>2026-05-02T09:47:59Z</time></trkpt><trkpt lat="50.47638494889291" lon="16.095460528867434"><ele>418.2</ele><time>2026-05-02T09:48:00Z</time></trkpt><trkpt lat="50.476480246569004" lon="16.0954213457463"><ele>418.6</ele><time>2026-05-02T09:48:01Z</time></trkpt><trkpt lat="50.476576135147205" lon="16.095381919507993"><ele>419.0</ele><time>2026-05-02T09:48:02Z</time></trkpt><trkpt lat="50.47665324553013" lon="16.095338256734706"><ele>419.0</ele><time>2026-05-02T09:48:03Z</time></trkpt><trkpt lat="50.476717811980336" lon="16.09531979120409"><ele>419.0</ele><time>2026-05-02T09:48:04Z</time></trkpt><trkpt lat="50.476783693896486" lon="16.095273664276444"><ele>419.0</ele><time>2026-05-02T09:48:06.001Z</time></trkpt><trkpt lat="50.47675011539663" lon="16.095019481319817"><ele>419.0</ele><time>2026-05-02T09:48:08.001Z</time></trkpt><trkpt lat="50.47671891465614" lon="16.094878587700045"><ele>419.0</ele><time>2026-05-02T09:48:09.001Z</time></trkpt><trkpt lat="50.47669906210115" lon="16.094704850986034"><ele>419.25</ele><time>2026-05-02T09:48:10.001Z</time></trkpt><trkpt lat="50.47668496368667" lon="16.094484686366002"><ele>419.5</ele><time>2026-05-02T09:48:11.001Z</time></trkpt><trkpt lat="50.47667167541298" lon="16.094291104192084"><ele>419.75</ele><time>2026-05-02T09:48:12.001Z</time></trkpt><trkpt lat="50.47665593932498" lon="16.094088381389096"><ele>420.0</ele><time>2026-05-02T09:48:13.001Z</time></trkpt><trkpt lat="50.47663884008437" lon="16.09388318080426"><ele>420.0</ele><time>2026-05-02T09:48:14.001Z</time></trkpt><trkpt lat="50.476628448019326" lon="16.093688542865216"><ele>420.0</ele><time>2026-05-02T09:48:15.001Z</time></trkpt><trkpt lat="50.4766197204037" lon="16.09350423744247"><ele>420.0</ele><time>2026-05-02T09:48:16.001Z</time></trkpt><trkpt lat="50.476612733328736" lon="16.093345470494096"><ele>420.0</ele><time>2026-05-02T09:48:17.001Z</time></trkpt><trkpt lat="50.47660633618026" lon="16.093195654434435"><ele>420.0</ele><time>2026-05-02T09:48:18.001Z</time></trkpt><trkpt lat="50.47663019027768" lon="16.093040272435086"><ele>420.0</ele><time>2026-05-02T09:48:19.001Z</time></trkpt><trkpt lat="50.47666095587795" lon="16.09286696042005"><ele>420.0</ele><time>2026-05-02T09:48:20.001Z</time></trkpt><trkpt lat="50.47669651482832" lon="16.092658662569697"><ele>420.0</ele><time>2026-05-02T09:48:21.001Z</time></trkpt><trkpt lat="50.476793166473236" lon="16.092458679715275"><ele>420.0</ele><time>2026-05-02T09:48:22.001Z</time></trkpt><trkpt lat="50.47688525774672" lon="16.092228908689105"><ele>420.0</ele><time>2026-05-02T09:48:23.001Z</time></trkpt><trkpt lat="50.47695841178058" lon="16.0920100544564"><ele>420.0</ele><time>2026-05-02T09:48:24.001Z</time></trkpt><trkpt lat="50.47704203039202" lon="16.09180421135931"><ele>420.0</ele><time>2026-05-02T09:48:25.001Z</time></trkpt><trkpt lat="50.477125955831795" lon="16.09165046106987"><ele>420.0</ele><time>2026-05-02T09:48:26.001Z</time></trkpt><trkpt lat="50.47718616654507" lon="16.091506102357485"><ele>420.0</ele><time>2026-05-02T09:48:27.001Z</time></trkpt><trkpt lat="50.477249158458726" lon="16.091357200513464"><ele>420.0</ele><time>2026-05-02T09:48:28.001Z</time></trkpt><trkpt lat="50.477320196591734" lon="16.091201227411737"><ele>420.0</ele><time>2026-05-02T09:48:29.001Z</time></trkpt><trkpt lat="50.477386680947255" lon="16.09102727784787"><ele>420.0</ele><time>2026-05-02T09:48:30.001Z</time></trkpt><trkpt lat="50.477470840900246" lon="16.090863144772047"><ele>420.25</ele><time>2026-05-02T09:48:31.001Z</time></trkpt><trkpt lat="50.477548327240804" lon="16.09071140835646"><ele>420.5</ele><time>2026-05-02T09:48:32.001Z</time></trkpt><trkpt lat="50.47762379097262" lon="16.090576094099113"><ele>420.75</ele><time>2026-05-02T09:48:33.001Z</time></trkpt><trkpt lat="50.477704545075284" lon="16.09043341821212"><ele>421.0</ele><time>2026-05-02T09:48:34.001Z</time></trkpt><trkpt lat="50.47779661451605" lon="16.090294708104604"><ele>421.0</ele><time>2026-05-02T09:48:35.001Z</time></trkpt><trkpt lat="50.47789719789234" lon="16.090148028482602"><ele>421.0</ele><time>2026-05-02T09:48:36.001Z</time></trkpt><trkpt lat="50.47800231947859" lon="16.089996947114678"><ele>421.0</ele><time>2026-05-02T09:48:37.001Z</time></trkpt><trkpt lat="50.47810868652742" lon="16.089845910091896"><ele>421.0</ele><time>2026-05-02T09:48:38.001Z</time></trkpt><trkpt lat="50.478218047365566" lon="16.089686850103714"><ele>422.5</ele><time>2026-05-02T09:48:39.001Z</time></trkpt><trkpt lat="50.478327412213815" lon="16.089522700901146"><ele>424.0</ele><time>2026-05-02T09:48:40.001Z</time></trkpt><trkpt lat="50.4784354681701" lon="16.089378759736142"><ele>425.5</ele><time>2026-05-02T09:48:41.001Z</time></trkpt><trkpt lat="50.47851444768401" lon="16.089184351790657"><ele>427.0</ele><time>2026-05-02T09:48:42.001Z</time></trkpt><trkpt lat="50.47860505940414" lon="16.089010057314123"><ele>428.0</ele><time>2026-05-02T09:48:43.001Z</time></trkpt><trkpt lat="50.478692451278235" lon="16.08883850878984"><ele>429.0</ele><time>2026-05-02T09:48:44.001Z</time></trkpt><trkpt lat="50.47877454011277" lon="16.088677481925615"><ele>430.0</ele><time>2026-05-02T09:48:45.001Z</time></trkpt><trkpt lat="50.47885248928633" lon="16.08852597817192"><ele>431.0</ele><time>2026-05-02T09:48:46.001Z</time></trkpt><trkpt lat="50.47893117840988" lon="16.088373172270703"><ele>432.25</ele><time>2026-05-02T09:48:47.001Z</time></trkpt><trkpt lat="50.47902332500558" lon="16.088240865977898"><ele>433.5</ele><time>2026-05-02T09:48:48.001Z</time></trkpt><trkpt lat="50.47909387134434" lon="16.088075673799125"><ele>434.75</ele><time>2026-05-02T09:48:49.001Z</time></trkpt><trkpt lat="50.47919399423143" lon="16.087946486818907"><ele>436.0</ele><time>2026-05-02T09:48:50.001Z</time></trkpt><trkpt lat="50.47927613162193" lon="16.087781487314434"><ele>436.0</ele><time>2026-05-02T09:48:51.001Z</time></trkpt><trkpt lat="50.47937645300971" lon="16.087635654224652"><ele>436.0</ele><time>2026-05-02T09:48:52.001Z</time></trkpt><trkpt lat="50.47946999426057" lon="16.0874782607579"><ele>436.0</ele><time>2026-05-02T09:48:53.001Z</time></trkpt><trkpt lat="50.479564086013646" lon="16.087331185920107"><ele>436.0</ele><time>2026-05-02T09:48:54.001Z</time></trkpt><trkpt lat="50.47964892270839" lon="16.087200880503644"><ele>435.0</ele><time>2026-05-02T09:48:55.001Z</time></trkpt><trkpt lat="50.47972791110969" lon="16.087068926136766"><ele>434.0</ele><time>2026-05-02T09:48:56.001Z</time></trkpt><trkpt lat="50.479810924687044" lon="16.086934667234672"><ele>433.0</ele><time>2026-05-02T09:48:57.001Z</time></trkpt><trkpt lat="50.479900775889746" lon="16.086806778930157"><ele>432.0</ele><time>2026-05-02T09:48:58.001Z</time></trkpt><trkpt lat="50.47999053686683" lon="16.086673562612894"><ele>431.25</ele><time>2026-05-02T09:48:59.001Z</time></trkpt><trkpt lat="50.48007055458522" lon="16.0865205783151"><ele>430.5</ele><time>2026-05-02T09:49:00.001Z</time></trkpt><trkpt lat="50.480173505518856" lon="16.08638561371378"><ele>429.75</ele><time>2026-05-02T09:49:01.001Z</time></trkpt><trkpt lat="50.48025844120524" lon="16.086214454184315"><ele>429.0</ele><time>2026-05-02T09:49:02.001Z</time></trkpt><trkpt lat="50.48035681065019" lon="16.08605895269299"><ele>428.5</ele><time>2026-05-02T09:49:03.001Z</time></trkpt><trkpt lat="50.48045025012056" lon="16.085894292346463"><ele>428.0</ele><time>2026-05-02T09:49:04.001Z</time></trkpt><trkpt lat="50.480539272132084" lon="16.085729417032358"><ele>427.5</ele><time>2026-05-02T09:49:05.001Z</time></trkpt><trkpt lat="50.4806187553146" lon="16.085564741348325"><ele>427.0</ele><time>2026-05-02T09:49:06.001Z</time></trkpt><trkpt lat="50.480692686348476" lon="16.08539912839093"><ele>426.5</ele><time>2026-05-02T09:49:07.001Z</time></trkpt><trkpt lat="50.480756636058246" lon="16.08523979038558"><ele>426.0</ele><time>2026-05-02T09:49:08.001Z</time></trkpt><trkpt lat="50.480806977335504" lon="16.085088720199565"><ele>425.5</ele><time>2026-05-02T09:49:09.001Z</time></trkpt><trkpt lat="50.4808499293814" lon="16.084919610879624"><ele>425.0</ele><time>2026-05-02T09:49:10.001Z</time></trkpt><trkpt lat="50.48087484277246" lon="16.08471955018654"><ele>424.75</ele><time>2026-05-02T09:49:11.001Z</time></trkpt><trkpt lat="50.48087456867585" lon="16.08452532210984"><ele>424.5</ele><time>2026-05-02T09:49:12.001Z</time></trkpt><trkpt lat="50.480848562787436" lon="16.084325441140756"><ele>424.25</ele><time>2026-05-02T09:49:13.001Z</time></trkpt><trkpt lat="50.48081837106373" lon="16.084122728538855"><ele>424.0</ele><time>2026-05-02T09:49:14.001Z</time></trkpt><trkpt lat="50.480790126274925" lon="16.08391447445075"><ele>423.75</ele><time>2026-05-02T09:49:15.001Z</time></trkpt><trkpt lat="50.48076807732982" lon="16.083720409569466"><ele>423.5</ele><time>2026-05-02T09:49:16.001Z</time></trkpt><trkpt lat="50.48074586746002" lon="16.083526884355074"><ele>423.25</ele><time>2026-05-02T09:49:17.001Z</time></trkpt><trkpt lat="50.48072275394254" lon="16.083334794649854"><ele>423.0</ele><time>2026-05-02T09:49:18.001Z</time></trkpt><trkpt lat="50.48070179886368" lon="16.08314653118174"><ele>422.5</ele><time>2026-05-02T09:49:19.001Z</time></trkpt><trkpt lat="50.48068936442453" lon="16.08296373159798"><ele>422.0</ele><time>2026-05-02T09:49:20.001Z</time></trkpt><trkpt lat="50.4806838532365" lon="16.08279217085885"><ele>421.5</ele><time>2026-05-02T09:49:21.001Z</time></trkpt><trkpt lat="50.48067930873678" lon="16.082610242341104"><ele>421.0</ele><time>2026-05-02T09:49:22.001Z</time></trkpt><trkpt lat="50.48068361929671" lon="16.08243509078859"><ele>420.0</ele><time>2026-05-02T09:49:23.001Z</time></trkpt><trkpt lat="50.48069762772082" lon="16.082253262656536"><ele>419.0</ele><time>2026-05-02T09:49:24.001Z</time></trkpt><trkpt lat="50.48074414604207" lon="16.082067275296478"><ele>418.0</ele><time>2026-05-02T09:49:25.001Z</time></trkpt><trkpt lat="50.48078296041738" lon="16.08186744390979"><ele>417.0</ele><time>2026-05-02T09:49:26.001Z</time></trkpt><trkpt lat="50.4808287240329" lon="16.081664697883443"><ele>416.25</ele><time>2026-05-02T09:49:27.001Z</time></trkpt><trkpt lat="50.480876150179654" lon="16.081456707248137"><ele>415.5</ele><time>2026-05-02T09:49:28.001Z</time></trkpt><trkpt lat="50.48091788478246" lon="16.081266627107663"><ele>414.75</ele><time>2026-05-02T09:49:29.001Z</time></trkpt><trkpt lat="50.48095547160634" lon="16.08107937914895"><ele>414.0</ele><time>2026-05-02T09:49:30Z</time></trkpt><trkpt lat="50.480971838256224" lon="16.08088734360014"><ele>413.75</ele><time>2026-05-02T09:49:31Z</time></trkpt><trkpt lat="50.48100398829073" lon="16.080705600728788"><ele>413.5</ele><time>2026-05-02T09:49:32Z</time></trkpt><trkpt lat="50.48103465668134" lon="16.080517024906168"><ele>413.25</ele><time>2026-05-02T09:49:33Z</time></trkpt><trkpt lat="50.48106936201001" lon="16.08033605449296"><ele>413.0</ele><time>2026-05-02T09:49:34Z</time></trkpt><trkpt lat="50.48112154600944" lon="16.08016184997072"><ele>413.0</ele><time>2026-05-02T09:49:35Z</time></trkpt><trkpt lat="50.48117991438967" lon="16.079978378951974"><ele>413.0</ele><time>2026-05-02T09:49:36Z</time></trkpt><trkpt lat="50.48123683772232" lon="16.07977711154966"><ele>413.0</ele><time>2026-05-02T09:49:37Z</time></trkpt><trkpt lat="50.48129470687419" lon="16.079572819142825"><ele>413.0</ele><time>2026-05-02T09:49:38Z</time></trkpt><trkpt lat="50.48135178257125" lon="16.079379508900992"><ele>414.5</ele><time>2026-05-02T09:49:39Z</time></trkpt><trkpt lat="50.481393769963084" lon="16.07919019323297"><ele>416.0</ele><time>2026-05-02T09:49:40Z</time></trkpt><trkpt lat="50.481433970317006" lon="16.07899263178723"><ele>417.5</ele><time>2026-05-02T09:49:41Z</time></trkpt><trkpt lat="50.481460854778284" lon="16.078793116042494"><ele>419.0</ele><time>2026-05-02T09:49:42Z</time></trkpt><trkpt lat="50.48147749090557" lon="16.07858570225492"><ele>419.5</ele><time>2026-05-02T09:49:43Z</time></trkpt><trkpt lat="50.48149556624893" lon="16.078387281691498"><ele>420.0</ele><time>2026-05-02T09:49:44Z</time></trkpt><trkpt lat="50.481511958360436" lon="16.078202559526858"><ele>420.5</ele><time>2026-05-02T09:49:45Z</time></trkpt><trkpt lat="50.481511363100736" lon="16.078013860764376"><ele>421.0</ele><time>2026-05-02T09:49:46Z</time></trkpt><trkpt lat="50.48151205269322" lon="16.07784042783315"><ele>421.0</ele><time>2026-05-02T09:49:47Z</time></trkpt><trkpt lat="50.481524847787924" lon="16.077678666804847"><ele>421.0</ele><time>2026-05-02T09:49:48Z</time></trkpt><trkpt lat="50.48152031242789" lon="16.077508174799334"><ele>421.0</ele><time>2026-05-02T09:49:49Z</time></trkpt><trkpt lat="50.48151564899571" lon="16.07731732765431"><ele>421.0</ele><time>2026-05-02T09:49:50Z</time></trkpt><trkpt lat="50.48151298610782" lon="16.077123797341564"><ele>421.6</ele><time>2026-05-02T09:49:51Z</time></trkpt><trkpt lat="50.481509415847626" lon="16.07693094452205"><ele>422.20000000000005</ele><time>2026-05-02T09:49:52Z</time></trkpt><trkpt lat="50.48150712761896" lon="16.076745883378432"><ele>422.79999999999995</ele><time>2026-05-02T09:49:53Z</time></trkpt><trkpt lat="50.48150707982805" lon="16.076591828915294"><ele>423.4</ele><time>2026-05-02T09:49:54Z</time></trkpt><trkpt lat="50.48150353856489" lon="16.07646256566919"><ele>424.0</ele><time>2026-05-02T09:49:55Z</time></trkpt><trkpt lat="50.48149969333487" lon="16.076339972113924"><ele>424.83333333333337</ele><time>2026-05-02T09:49:56.001Z</time></trkpt><trkpt lat="50.48149447720964" lon="16.07622506566066"><ele>425.6666666666667</ele><time>2026-05-02T09:49:57.001Z</time></trkpt><trkpt lat="50.48149219342022" lon="16.076102254604162"><ele>426.5</ele><time>2026-05-02T09:49:58.001Z</time></trkpt><trkpt lat="50.48149578460749" lon="16.075972075839722"><ele>427.33333333333337</ele><time>2026-05-02T09:49:59.001Z</time></trkpt><trkpt lat="50.4814984079449" lon="16.07583628455506"><ele>428.1666666666667</ele><time>2026-05-02T09:50:00.001Z</time></trkpt><trkpt lat="50.48150207137927" lon="16.075700718886466"><ele>429.0</ele><time>2026-05-02T09:50:01.001Z</time></trkpt><trkpt lat="50.48150307073073" lon="16.075565075467217"><ele>429.4</ele><time>2026-05-02T09:50:02.001Z</time></trkpt><trkpt lat="50.481494441425895" lon="16.075416396424067"><ele>429.79999999999995</ele><time>2026-05-02T09:50:03.001Z</time></trkpt><trkpt lat="50.48151051524631" lon="16.07525044320299"><ele>430.20000000000005</ele><time>2026-05-02T09:50:04.001Z</time></trkpt><trkpt lat="50.48149530020321" lon="16.075098370440877"><ele>430.6</ele><time>2026-05-02T09:50:05.001Z</time></trkpt><trkpt lat="50.481503474986006" lon="16.074926131676484"><ele>431.0</ele><time>2026-05-02T09:50:06.001Z</time></trkpt><trkpt lat="50.48150804318261" lon="16.074744157304465"><ele>431.75</ele><time>2026-05-02T09:50:07.001Z</time></trkpt><trkpt lat="50.48150936012692" lon="16.07454304905688"><ele>432.5</ele><time>2026-05-02T09:50:08.001Z</time></trkpt><trkpt lat="50.48151562759607" lon="16.07434650982061"><ele>433.25</ele><time>2026-05-02T09:50:09.001Z</time></trkpt><trkpt lat="50.48152653179828" lon="16.07414107803067"><ele>434.0</ele><time>2026-05-02T09:50:10.001Z</time></trkpt><trkpt lat="50.48153963951416" lon="16.0739506622935"><ele>435.0</ele><time>2026-05-02T09:50:11.001Z</time></trkpt><trkpt lat="50.48155374059075" lon="16.073805605402317"><ele>436.0</ele><time>2026-05-02T09:50:12.001Z</time></trkpt><trkpt lat="50.48156845058191" lon="16.07366592406015"><ele>437.0</ele><time>2026-05-02T09:50:13.001Z</time></trkpt><trkpt lat="50.48157684823979" lon="16.07349240928106"><ele>438.0</ele><time>2026-05-02T09:50:14.001Z</time></trkpt><trkpt lat="50.481590989224706" lon="16.073280927733876"><ele>439.0</ele><time>2026-05-02T09:50:15.001Z</time></trkpt><trkpt lat="50.481617476557105" lon="16.073038153172995"><ele>440.5</ele><time>2026-05-02T09:50:16.001Z</time></trkpt><trkpt lat="50.481641174529116" lon="16.072816746407895"><ele>442.0</ele><time>2026-05-02T09:50:17.001Z</time></trkpt><trkpt lat="50.48165624460002" lon="16.072605676807214"><ele>443.5</ele><time>2026-05-02T09:50:18.001Z</time></trkpt><trkpt lat="50.48166864698681" lon="16.072402384762448"><ele>445.0</ele><time>2026-05-02T09:50:19.001Z</time></trkpt><trkpt lat="50.481684948385244" lon="16.072204105104262"><ele>445.25</ele><time>2026-05-02T09:50:20.001Z</time></trkpt><trkpt lat="50.48170546642587" lon="16.072003594481366"><ele>445.5</ele><time>2026-05-02T09:50:21.001Z</time></trkpt><trkpt lat="50.481725013137705" lon="16.071803885070754"><ele>445.75</ele><time>2026-05-02T09:50:22.001Z</time></trkpt><trkpt lat="50.481744574411614" lon="16.071599853187976"><ele>446.0</ele><time>2026-05-02T09:50:23.001Z</time></trkpt><trkpt lat="50.4817656756697" lon="16.071405720178998"><ele>445.99999999999994</ele><time>2026-05-02T09:50:24.001Z</time></trkpt><trkpt lat="50.48177864507832" lon="16.07124620776557"><ele>446.0</ele><time>2026-05-02T09:50:25.001Z</time></trkpt><trkpt lat="50.48179461202898" lon="16.07109982061454"><ele>446.0</ele><time>2026-05-02T09:50:26.001Z</time></trkpt><trkpt lat="50.481808033483205" lon="16.070968586524685"><ele>446.0</ele><time>2026-05-02T09:50:27.001Z</time></trkpt><trkpt lat="50.481816419510075" lon="16.07084457120196"><ele>445.99999999999994</ele><time>2026-05-02T09:50:28.001Z</time></trkpt><trkpt lat="50.48182710995428" lon="16.07072657644946"><ele>446.0</ele><time>2026-05-02T09:50:29.001Z</time></trkpt><trkpt lat="50.48184700407728" lon="16.07059828298437"><ele>445.8</ele><time>2026-05-02T09:50:30.001Z</time></trkpt><trkpt lat="50.481888765773846" lon="16.070474611435657"><ele>445.6</ele><time>2026-05-02T09:50:31.001Z</time></trkpt><trkpt lat="50.48194673020726" lon="16.07036560491293"><ele>445.4</ele><time>2026-05-02T09:50:32.001Z</time></trkpt><trkpt lat="50.48203209697889" lon="16.07027943711442"><ele>445.2</ele><time>2026-05-02T09:50:33.001Z</time></trkpt><trkpt lat="50.482152986512915" lon="16.07023326861331"><ele>445.0</ele><time>2026-05-02T09:50:34.001Z</time></trkpt><trkpt lat="50.48228387302756" lon="16.07020804442915"><ele>446.0</ele><time>2026-05-02T09:50:35.001Z</time></trkpt><trkpt lat="50.482411389214555" lon="16.070173437539225"><ele>447.0</ele><time>2026-05-02T09:50:36.001Z</time></trkpt><trkpt lat="50.4825309237474" lon="16.070137158124925"><ele>448.0</ele><time>2026-05-02T09:50:37.001Z</time></trkpt><trkpt lat="50.48265299624373" lon="16.070094725678235"><ele>449.0</ele><time>2026-05-02T09:50:38.001Z</time></trkpt><trkpt lat="50.48277689916752" lon="16.07006167999008"><ele>449.0</ele><time>2026-05-02T09:50:39.001Z</time></trkpt><trkpt lat="50.4829092723488" lon="16.070029286754956"><ele>449.0</ele><time>2026-05-02T09:50:40.001Z</time></trkpt><trkpt lat="50.48304606279444" lon="16.06998986953325"><ele>449.0</ele><time>2026-05-02T09:50:41.001Z</time></trkpt><trkpt lat="50.4831860352635" lon="16.06994520647619"><ele>449.0</ele><time>2026-05-02T09:50:42.001Z</time></trkpt><trkpt lat="50.483330945531776" lon="16.06990366136476"><ele>450.0</ele><time>2026-05-02T09:50:43.001Z</time></trkpt><trkpt lat="50.48348249311268" lon="16.06986140450378"><ele>451.0</ele><time>2026-05-02T09:50:44.001Z</time></trkpt><trkpt lat="50.483632037341145" lon="16.06981728912072"><ele>452.0</ele><time>2026-05-02T09:50:45.001Z</time></trkpt><trkpt lat="50.48377519746904" lon="16.069775534806666"><ele>452.75</ele><time>2026-05-02T09:50:46.001Z</time></trkpt><trkpt lat="50.483918559088615" lon="16.06973518301798"><ele>453.5</ele><time>2026-05-02T09:50:47.001Z</time></trkpt><trkpt lat="50.48406491270076" lon="16.069693992896724"><ele>454.25</ele><time>2026-05-02T09:50:48.001Z</time></trkpt><trkpt lat="50.48421029947702" lon="16.069650120932994"><ele>455.0</ele><time>2026-05-02T09:50:49.001Z</time></trkpt><trkpt lat="50.484345575345266" lon="16.069602412520986"><ele>455.0</ele><time>2026-05-02T09:50:50.001Z</time></trkpt><trkpt lat="50.484482440438455" lon="16.06956777615397"><ele>455.0</ele><time>2026-05-02T09:50:51.001Z</time></trkpt><trkpt lat="50.48463623041737" lon="16.069529604905785"><ele>455.0</ele><time>2026-05-02T09:50:52.001Z</time></trkpt><trkpt lat="50.484774575505995" lon="16.069479762680423"><ele>455.0</ele><time>2026-05-02T09:50:53.001Z</time></trkpt><trkpt lat="50.48489969179621" lon="16.069433510409464"><ele>456.0</ele><time>2026-05-02T09:50:54.001Z</time></trkpt><trkpt lat="50.48501196541709" lon="16.06939337710223"><ele>457.0</ele><time>2026-05-02T09:50:55.001Z</time></trkpt><trkpt lat="50.48513524448153" lon="16.069379014743106"><ele>458.0</ele><time>2026-05-02T09:50:56.001Z</time></trkpt><trkpt lat="50.485259147772894" lon="16.069310345806954"><ele>459.0</ele><time>2026-05-02T09:50:57.001Z</time></trkpt><trkpt lat="50.48539135697675" lon="16.069260977585806"><ele>460.4</ele><time>2026-05-02T09:50:58.001Z</time></trkpt><trkpt lat="50.48548352186879" lon="16.069233091525813"><ele>461.79999999999995</ele><time>2026-05-02T09:50:59.001Z</time></trkpt><trkpt lat="50.48559333396405" lon="16.069188498359843"><ele>463.20000000000005</ele><time>2026-05-02T09:51:00.001Z</time></trkpt><trkpt lat="50.485705756518264" lon="16.06914940772754"><ele>464.6</ele><time>2026-05-02T09:51:01.001Z</time></trkpt><trkpt lat="50.485822394742655" lon="16.06910171503068"><ele>466.0</ele><time>2026-05-02T09:51:02.001Z</time></trkpt><trkpt lat="50.485938901999084" lon="16.069051917713672"><ele>466.25</ele><time>2026-05-02T09:51:03.001Z</time></trkpt><trkpt lat="50.486053897501755" lon="16.06900173358723"><ele>466.5</ele><time>2026-05-02T09:51:04.001Z</time></trkpt><trkpt lat="50.48616424578251" lon="16.068953198729886"><ele>466.75</ele><time>2026-05-02T09:51:05.001Z</time></trkpt><trkpt lat="50.48627619200234" lon="16.06890514788752"><ele>467.0</ele><time>2026-05-02T09:51:06.001Z</time></trkpt><trkpt lat="50.486392668942564" lon="16.068858891499033"><ele>467.0</ele><time>2026-05-02T09:51:07.001Z</time></trkpt><trkpt lat="50.486510490829254" lon="16.06881418837659"><ele>467.0</ele><time>2026-05-02T09:51:08.001Z</time></trkpt><trkpt lat="50.486626180795746" lon="16.06876332077642"><ele>467.0</ele><time>2026-05-02T09:51:09Z</time></trkpt><trkpt lat="50.486744462799166" lon="16.068715483924258"><ele>467.0</ele><time>2026-05-02T09:51:10Z</time></trkpt><trkpt lat="50.48686251958531" lon="16.068666927533382"><ele>467.0</ele><time>2026-05-02T09:51:11Z</time></trkpt><trkpt lat="50.486980407134524" lon="16.0686139110363"><ele>467.0</ele><time>2026-05-02T09:51:12Z</time></trkpt><trkpt lat="50.487098080229835" lon="16.06856089915634"><ele>467.0</ele><time>2026-05-02T09:51:13Z</time></trkpt><trkpt lat="50.487214796141686" lon="16.06850577704004"><ele>467.0</ele><time>2026-05-02T09:51:14Z</time></trkpt><trkpt lat="50.48732891517394" lon="16.068441541684816"><ele>466.5</ele><time>2026-05-02T09:51:15Z</time></trkpt><trkpt lat="50.48744457165647" lon="16.068372125547018"><ele>466.0</ele><time>2026-05-02T09:51:16Z</time></trkpt><trkpt lat="50.487572052941545" lon="16.0683045410977"><ele>465.5</ele><time>2026-05-02T09:51:17Z</time></trkpt><trkpt lat="50.48770566613393" lon="16.068233735267395"><ele>465.0</ele><time>2026-05-02T09:51:18Z</time></trkpt><trkpt lat="50.48784569595961" lon="16.068158907278832"><ele>467.0</ele><time>2026-05-02T09:51:19Z</time></trkpt><trkpt lat="50.48798620555596" lon="16.068081310571873"><ele>469.0</ele><time>2026-05-02T09:51:20Z</time></trkpt><trkpt lat="50.48814936597062" lon="16.06799985938909"><ele>471.0</ele><time>2026-05-02T09:51:21Z</time></trkpt><trkpt lat="50.48830606640162" lon="16.06792467197418"><ele>471.0</ele><time>2026-05-02T09:51:22Z</time></trkpt><trkpt lat="50.48846395381177" lon="16.067870416426388"><ele>471.0</ele><time>2026-05-02T09:51:23Z</time></trkpt><trkpt lat="50.48861201182402" lon="16.06784777298814"><ele>471.0</ele><time>2026-05-02T09:51:24Z</time></trkpt><trkpt lat="50.48875172990289" lon="16.06784988755636"><ele>471.5</ele><time>2026-05-02T09:51:25Z</time></trkpt><trkpt lat="50.488876336812524" lon="16.067868335472575"><ele>472.0</ele><time>2026-05-02T09:51:26Z</time></trkpt><trkpt lat="50.488994970350866" lon="16.0678893946507"><ele>472.5</ele><time>2026-05-02T09:51:27Z</time></trkpt><trkpt lat="50.4891119280301" lon="16.067923310970865"><ele>473.0</ele><time>2026-05-02T09:51:28Z</time></trkpt><trkpt lat="50.489284030789186" lon="16.06794310223342"><ele>473.0</ele><time>2026-05-02T09:51:29Z</time></trkpt><trkpt lat="50.48942825373243" lon="16.067985040550344"><ele>473.0</ele><time>2026-05-02T09:51:30Z</time></trkpt><trkpt lat="50.48955836830896" lon="16.068051872355394"><ele>473.0</ele><time>2026-05-02T09:51:31Z</time></trkpt><trkpt lat="50.48968760994885" lon="16.068083622763545"><ele>473.0</ele><time>2026-05-02T09:51:32Z</time></trkpt><trkpt lat="50.489796718719184" lon="16.06814060269198"><ele>473.0</ele><time>2026-05-02T09:51:33Z</time></trkpt><trkpt lat="50.48989967729478" lon="16.068195170555278"><ele>472.99999999999994</ele><time>2026-05-02T09:51:34Z</time></trkpt><trkpt lat="50.48999811881387" lon="16.068244165669253"><ele>472.99999999999994</ele><time>2026-05-02T09:51:35Z</time></trkpt><trkpt lat="50.49009921061467" lon="16.068288289596033"><ele>473.0</ele><time>2026-05-02T09:51:36Z</time></trkpt><trkpt lat="50.49020459406944" lon="16.06832587742394"><ele>473.0</ele><time>2026-05-02T09:51:37Z</time></trkpt><trkpt lat="50.49032393905699" lon="16.068374109472774"><ele>471.25</ele><time>2026-05-02T09:51:38Z</time></trkpt><trkpt lat="50.49044168431741" lon="16.06842308116666"><ele>469.5</ele><time>2026-05-02T09:51:39Z</time></trkpt><trkpt lat="50.49055829471765" lon="16.06850460341227"><ele>467.75</ele><time>2026-05-02T09:51:40Z</time></trkpt><trkpt lat="50.490678464632644" lon="16.068591440328614"><ele>466.0</ele><time>2026-05-02T09:51:41Z</time></trkpt><trkpt lat="50.49080944428422" lon="16.06867871611095"><ele>466.0</ele><time>2026-05-02T09:51:42Z</time></trkpt><trkpt lat="50.4909487327135" lon="16.068801883965758"><ele>466.0</ele><time>2026-05-02T09:51:43Z</time></trkpt><trkpt lat="50.491084503419934" lon="16.0689220259988"><ele>466.0</ele><time>2026-05-02T09:51:44Z</time></trkpt><trkpt lat="50.491210547967505" lon="16.06903515726001"><ele>464.75</ele><time>2026-05-02T09:51:45Z</time></trkpt><trkpt lat="50.49132543030539" lon="16.069141594967363"><ele>463.5</ele><time>2026-05-02T09:51:46Z</time></trkpt><trkpt lat="50.491440653194736" lon="16.069236524452638"><ele>462.25</ele><time>2026-05-02T09:51:47Z</time></trkpt><trkpt lat="50.491565564303635" lon="16.069325162733378"><ele>461.0</ele><time>2026-05-02T09:51:48Z</time></trkpt><trkpt lat="50.49170969210517" lon="16.069417955021404"><ele>461.0</ele><time>2026-05-02T09:51:49Z</time></trkpt><trkpt lat="50.49186326451741" lon="16.069509742145044"><ele>461.0</ele><time>2026-05-02T09:51:50Z</time></trkpt><trkpt lat="50.49202902354208" lon="16.069594524856512"><ele>461.0</ele><time>2026-05-02T09:51:51Z</time></trkpt><trkpt lat="50.492202416488276" lon="16.06967465263402"><ele>461.3333333333333</ele><time>2026-05-02T09:51:52Z</time></trkpt><trkpt lat="50.49237922477591" lon="16.069763517220647"><ele>461.66666666666663</ele><time>2026-05-02T09:51:53Z</time></trkpt><trkpt lat="50.49256293920498" lon="16.069847944552947"><ele>462.0</ele><time>2026-05-02T09:51:54Z</time></trkpt><trkpt lat="50.49274838011144" lon="16.06993714468631"><ele>459.66666666666663</ele><time>2026-05-02T09:51:55Z</time></trkpt><trkpt lat="50.4929237279341" lon="16.070016666990647"><ele>457.3333333333333</ele><time>2026-05-02T09:51:56Z</time></trkpt><trkpt lat="50.493091208475484" lon="16.07008375613292"><ele>455.0</ele><time>2026-05-02T09:51:57Z</time></trkpt><trkpt lat="50.493250703145804" lon="16.07013278712733"><ele>455.0</ele><time>2026-05-02T09:51:58Z</time></trkpt><trkpt lat="50.493409631453986" lon="16.07017954924645"><ele>455.0</ele><time>2026-05-02T09:51:59Z</time></trkpt><trkpt lat="50.493566781203405" lon="16.070238321359117"><ele>455.0</ele><time>2026-05-02T09:52:00Z</time></trkpt><trkpt lat="50.49372578452387" lon="16.070307886013808"><ele>456.66666666666663</ele><time>2026-05-02T09:52:01Z</time></trkpt><trkpt lat="50.49388294143614" lon="16.070382426000016"><ele>458.33333333333337</ele><time>2026-05-02T09:52:02Z</time></trkpt><trkpt lat="50.49404296242665" lon="16.070465087528206"><ele>460.0</ele><time>2026-05-02T09:52:03Z</time></trkpt><trkpt lat="50.494194206759175" lon="16.07056955619339"><ele>460.0</ele><time>2026-05-02T09:52:04Z</time></trkpt><trkpt lat="50.49434282694427" lon="16.070683434498118"><ele>460.0</ele><time>2026-05-02T09:52:05Z</time></trkpt><trkpt lat="50.4944957607148" lon="16.070792032717527"><ele>460.0</ele><time>2026-05-02T09:52:06Z</time></trkpt><trkpt lat="50.49465455977951" lon="16.070924621276816"><ele>454.33333333333337</ele><time>2026-05-02T09:52:07Z</time></trkpt><trkpt lat="50.494803301443646" lon="16.071063748540727"><ele>448.66666666666663</ele><time>2026-05-02T09:52:08Z</time></trkpt><trkpt lat="50.494955665797015" lon="16.071216240153788"><ele>443.0</ele><time>2026-05-02T09:52:09Z</time></trkpt><trkpt lat="50.49510594827156" lon="16.071356608051065"><ele>443.0</ele><time>2026-05-02T09:52:10Z</time></trkpt><trkpt lat="50.495244403116395" lon="16.071478769016647"><ele>443.0</ele><time>2026-05-02T09:52:11Z</time></trkpt><trkpt lat="50.4953713412682" lon="16.071598576649382"><ele>443.0</ele><time>2026-05-02T09:52:12Z</time></trkpt><trkpt lat="50.495490516661235" lon="16.071718584276756"><ele>443.0</ele><time>2026-05-02T09:52:13Z</time></trkpt><trkpt lat="50.495607086771166" lon="16.071833205609927"><ele>439.0</ele><time>2026-05-02T09:52:14Z</time></trkpt><trkpt lat="50.4957165971447" lon="16.071936462761045"><ele>435.0</ele><time>2026-05-02T09:52:15Z</time></trkpt><trkpt lat="50.495823633671556" lon="16.072030400211695"><ele>431.0</ele><time>2026-05-02T09:52:16Z</time></trkpt><trkpt lat="50.495928169217336" lon="16.072115711841764"><ele>427.0</ele><time>2026-05-02T09:52:17Z</time></trkpt><trkpt lat="50.496039725237445" lon="16.072192753100396"><ele>427.0</ele><time>2026-05-02T09:52:18Z</time></trkpt><trkpt lat="50.496153243965416" lon="16.072267944787896"><ele>427.00000000000006</ele><time>2026-05-02T09:52:19Z</time></trkpt><trkpt lat="50.49626144877237" lon="16.07232075442723"><ele>427.00000000000006</ele><time>2026-05-02T09:52:20Z</time></trkpt><trkpt lat="50.49636181386807" lon="16.07236566791665"><ele>427.0</ele><time>2026-05-02T09:52:21Z</time></trkpt><trkpt lat="50.49646529860743" lon="16.072409829159565"><ele>427.0</ele><time>2026-05-02T09:52:22Z</time></trkpt><trkpt lat="50.496575281994495" lon="16.072450636383667"><ele>427.75</ele><time>2026-05-02T09:52:23Z</time></trkpt><trkpt lat="50.49669003877416" lon="16.072475032219085"><ele>428.5</ele><time>2026-05-02T09:52:24Z</time></trkpt><trkpt lat="50.496807117472834" lon="16.072475936038057"><ele>429.25</ele><time>2026-05-02T09:52:25Z</time></trkpt><trkpt lat="50.49691939384737" lon="16.0724652081247"><ele>430.0</ele><time>2026-05-02T09:52:26Z</time></trkpt><trkpt lat="50.497028745207544" lon="16.072448875954105"><ele>427.25</ele><time>2026-05-02T09:52:27Z</time></trkpt><trkpt lat="50.49713378587947" lon="16.072406694928286"><ele>424.5</ele><time>2026-05-02T09:52:28Z</time></trkpt><trkpt lat="50.497242618773065" lon="16.072351813551816"><ele>421.75</ele><time>2026-05-02T09:52:29Z</time></trkpt><trkpt lat="50.49736521240149" lon="16.07231659764528"><ele>419.0</ele><time>2026-05-02T09:52:30Z</time></trkpt><trkpt lat="50.49748579432643" lon="16.072259340300622"><ele>419.0</ele><time>2026-05-02T09:52:31Z</time></trkpt><trkpt lat="50.49761219366083" lon="16.072214229447948"><ele>419.0</ele><time>2026-05-02T09:52:32Z</time></trkpt><trkpt lat="50.49773476580405" lon="16.07217112632395"><ele>419.0</ele><time>2026-05-02T09:52:33Z</time></trkpt><trkpt lat="50.497864620914385" lon="16.072115065139073"><ele>419.0</ele><time>2026-05-02T09:52:34Z</time></trkpt><trkpt lat="50.49799701958814" lon="16.072059329746264"><ele>419.0</ele><time>2026-05-02T09:52:35Z</time></trkpt><trkpt lat="50.49813044105566" lon="16.07200594988732"><ele>419.0</ele><time>2026-05-02T09:52:36Z</time></trkpt><trkpt lat="50.4982542869866" lon="16.071958004686966"><ele>419.0</ele><time>2026-05-02T09:52:37Z</time></trkpt><trkpt lat="50.49837098324521" lon="16.071910443819498"><ele>419.0</ele><time>2026-05-02T09:52:38Z</time></trkpt><trkpt lat="50.49848798584932" lon="16.071861943302522"><ele>419.0</ele><time>2026-05-02T09:52:39Z</time></trkpt><trkpt lat="50.49860902555904" lon="16.07181219860123"><ele>419.0</ele><time>2026-05-02T09:52:40Z</time></trkpt><trkpt lat="50.49873392428586" lon="16.071761471443388"><ele>419.0</ele><time>2026-05-02T09:52:41Z</time></trkpt><trkpt lat="50.498858965909804" lon="16.07170664316131"><ele>419.0</ele><time>2026-05-02T09:52:42Z</time></trkpt><trkpt lat="50.49898429185578" lon="16.071649353005917"><ele>416.5</ele><time>2026-05-02T09:52:43Z</time></trkpt><trkpt lat="50.499111527430664" lon="16.071597389234363"><ele>414.0</ele><time>2026-05-02T09:52:44Z</time></trkpt><trkpt lat="50.499240183695754" lon="16.07154741988044"><ele>411.5</ele><time>2026-05-02T09:52:45Z</time></trkpt><trkpt lat="50.49937007612126" lon="16.071501596757795"><ele>409.0</ele><time>2026-05-02T09:52:46Z</time></trkpt><trkpt lat="50.49950014832122" lon="16.071457636424828"><ele>408.5</ele><time>2026-05-02T09:52:47Z</time></trkpt><trkpt lat="50.49963098311057" lon="16.071417889419784"><ele>408.0</ele><time>2026-05-02T09:52:48Z</time></trkpt><trkpt lat="50.49976172440281" lon="16.07138189247086"><ele>407.5</ele><time>2026-05-02T09:52:49Z</time></trkpt><trkpt lat="50.49988667422839" lon="16.07134782534335"><ele>407.0</ele><time>2026-05-02T09:52:50Z</time></trkpt><trkpt lat="50.50000285311941" lon="16.071314381802388"><ele>407.0</ele><time>2026-05-02T09:52:51Z</time></trkpt><trkpt lat="50.50011334789368" lon="16.07127696966515"><ele>407.0</ele><time>2026-05-02T09:52:52Z</time></trkpt><trkpt lat="50.50021897919479" lon="16.071248276695627"><ele>407.0</ele><time>2026-05-02T09:52:53Z</time></trkpt><trkpt lat="50.500319994967704" lon="16.071221385255974"><ele>407.0</ele><time>2026-05-02T09:52:54Z</time></trkpt><trkpt lat="50.5004157404496" lon="16.071197108981575"><ele>407.0</ele><time>2026-05-02T09:52:55Z</time></trkpt><trkpt lat="50.500506951039" lon="16.071172359494074"><ele>406.8</ele><time>2026-05-02T09:52:56Z</time></trkpt><trkpt lat="50.50059714927063" lon="16.07114628192187"><ele>406.6</ele><time>2026-05-02T09:52:57Z</time></trkpt><trkpt lat="50.500699431360744" lon="16.07111000424325"><ele>406.40000000000003</ele><time>2026-05-02T09:52:58Z</time></trkpt><trkpt lat="50.50081427535307" lon="16.071068577173644"><ele>406.20000000000005</ele><time>2026-05-02T09:52:59Z</time></trkpt><trkpt lat="50.50093895122398" lon="16.071034649155987"><ele>406.0</ele><time>2026-05-02T09:53:00Z</time></trkpt><trkpt lat="50.50106772673839" lon="16.070999643550177"><ele>406.0</ele><time>2026-05-02T09:53:01Z</time></trkpt><trkpt lat="50.50120038061468" lon="16.070956144163755"><ele>406.0</ele><time>2026-05-02T09:53:02Z</time></trkpt><trkpt lat="50.501345502968604" lon="16.070909992358192"><ele>406.0</ele><time>2026-05-02T09:53:03Z</time></trkpt><trkpt lat="50.50148420887009" lon="16.070868727492847"><ele>406.0</ele><time>2026-05-02T09:53:04Z</time></trkpt><trkpt lat="50.50163059172652" lon="16.07083303712899"><ele>405.6666666666667</ele><time>2026-05-02T09:53:05Z</time></trkpt><trkpt lat="50.501778274878475" lon="16.070788325456352"><ele>405.33333333333337</ele><time>2026-05-02T09:53:06Z</time></trkpt><trkpt lat="50.501927052834226" lon="16.070739724076628"><ele>405.0</ele><time>2026-05-02T09:53:07Z</time></trkpt><trkpt lat="50.502077306901136" lon="16.070695592645688"><ele>404.66666666666663</ele><time>2026-05-02T09:53:08Z</time></trkpt><trkpt lat="50.50223088322821" lon="16.070652722054568"><ele>404.3333333333333</ele><time>2026-05-02T09:53:09Z</time></trkpt><trkpt lat="50.502381717515476" lon="16.07060908677924"><ele>404.0</ele><time>2026-05-02T09:53:10Z</time></trkpt><trkpt lat="50.50254084920883" lon="16.07056440517233"><ele>404.0</ele><time>2026-05-02T09:53:11Z</time></trkpt><trkpt lat="50.502676352297996" lon="16.070528673453346"><ele>404.0</ele><time>2026-05-02T09:53:12Z</time></trkpt><trkpt lat="50.502811260176536" lon="16.070506929577732"><ele>404.0</ele><time>2026-05-02T09:53:13Z</time></trkpt><trkpt lat="50.50294243973693" lon="16.07049561238966"><ele>404.0</ele><time>2026-05-02T09:53:14Z</time></trkpt><trkpt lat="50.50306227760465" lon="16.070491612130496"><ele>404.0</ele><time>2026-05-02T09:53:15Z</time></trkpt><trkpt lat="50.50317391634455" lon="16.07049957304032"><ele>404.0</ele><time>2026-05-02T09:53:16Z</time></trkpt><trkpt lat="50.503285535996426" lon="16.070532102128475"><ele>404.0</ele><time>2026-05-02T09:53:17Z</time></trkpt><trkpt lat="50.5033865885336" lon="16.07059081399378"><ele>404.0</ele><time>2026-05-02T09:53:18Z</time></trkpt><trkpt lat="50.50348185236074" lon="16.07065425143148"><ele>404.0</ele><time>2026-05-02T09:53:19Z</time></trkpt><trkpt lat="50.503577809854676" lon="16.070721850757025"><ele>404.25</ele><time>2026-05-02T09:53:20Z</time></trkpt><trkpt lat="50.50367482968923" lon="16.070802884564696"><ele>404.5</ele><time>2026-05-02T09:53:21Z</time></trkpt><trkpt lat="50.5037707937708" lon="16.070897042538046"><ele>404.75</ele><time>2026-05-02T09:53:22Z</time></trkpt><trkpt lat="50.50386933681961" lon="16.070996042516366"><ele>405.0</ele><time>2026-05-02T09:53:23Z</time></trkpt><trkpt lat="50.50397363074241" lon="16.071083837664705"><ele>404.2</ele><time>2026-05-02T09:53:24Z</time></trkpt><trkpt lat="50.5040814188682" lon="16.071128473074534"><ele>403.4</ele><time>2026-05-02T09:53:25Z</time></trkpt><trkpt lat="50.50418792599703" lon="16.071112691265004"><ele>402.6</ele><time>2026-05-02T09:53:26Z</time></trkpt><trkpt lat="50.50428350512606" lon="16.071040240164933"><ele>401.8</ele><time>2026-05-02T09:53:27Z</time></trkpt><trkpt lat="50.5043613082862" lon="16.07092056436043"><ele>401.0</ele><time>2026-05-02T09:53:28Z</time></trkpt><trkpt lat="50.50442702081578" lon="16.07075443803191"><ele>400.75</ele><time>2026-05-02T09:53:29Z</time></trkpt><trkpt lat="50.504483364524056" lon="16.07055306037749"><ele>400.5</ele><time>2026-05-02T09:53:30Z</time></trkpt><trkpt lat="50.504554339947056" lon="16.070345622829944"><ele>400.25</ele><time>2026-05-02T09:53:31Z</time></trkpt><trkpt lat="50.50462597279938" lon="16.07015762345792"><ele>400.0</ele><time>2026-05-02T09:53:32Z</time></trkpt><trkpt lat="50.50471322027223" lon="16.06998290492014"><ele>396.75</ele><time>2026-05-02T09:53:33Z</time></trkpt><trkpt lat="50.50480192034894" lon="16.069831070214626"><ele>393.5</ele><time>2026-05-02T09:53:34Z</time></trkpt><trkpt lat="50.504893917663566" lon="16.06968705918004"><ele>390.25</ele><time>2026-05-02T09:53:35Z</time></trkpt><trkpt lat="50.504975110862425" lon="16.069544896585"><ele>387.0</ele><time>2026-05-02T09:53:36Z</time></trkpt><trkpt lat="50.50505273433128" lon="16.069401002379642"><ele>387.0</ele><time>2026-05-02T09:53:37Z</time></trkpt><trkpt lat="50.505142360126" lon="16.06928589460766"><ele>387.0</ele><time>2026-05-02T09:53:38Z</time></trkpt><trkpt lat="50.505245927768684" lon="16.069220618452704"><ele>387.0</ele><time>2026-05-02T09:53:39Z</time></trkpt><trkpt lat="50.505350854952304" lon="16.0691865423513"><ele>387.0</ele><time>2026-05-02T09:53:40Z</time></trkpt><trkpt lat="50.50545417116188" lon="16.06917032597195"><ele>387.0</ele><time>2026-05-02T09:53:41Z</time></trkpt><trkpt lat="50.505563258402205" lon="16.069159788125095"><ele>386.5</ele><time>2026-05-02T09:53:42Z</time></trkpt><trkpt lat="50.50567656189611" lon="16.06913474701656"><ele>386.0</ele><time>2026-05-02T09:53:43Z</time></trkpt><trkpt lat="50.505789881103475" lon="16.069071619966635"><ele>385.5</ele><time>2026-05-02T09:53:44Z</time></trkpt><trkpt lat="50.505892451237564" lon="16.068968687828395"><ele>385.0</ele><time>2026-05-02T09:53:45Z</time></trkpt><trkpt lat="50.50598351286427" lon="16.068826307486237"><ele>385.0</ele><time>2026-05-02T09:53:46Z</time></trkpt><trkpt lat="50.50605922554803" lon="16.06864626258451"><ele>385.0</ele><time>2026-05-02T09:53:47Z</time></trkpt><trkpt lat="50.50613005937716" lon="16.06845562083039"><ele>385.0</ele><time>2026-05-02T09:53:48Z</time></trkpt><trkpt lat="50.506203183374225" lon="16.068276939909037"><ele>385.0</ele><time>2026-05-02T09:53:49Z</time></trkpt><trkpt lat="50.50627335195418" lon="16.068109082338005"><ele>384.75</ele><time>2026-05-02T09:53:50Z</time></trkpt><trkpt lat="50.50634987135127" lon="16.067934569740345"><ele>384.5</ele><time>2026-05-02T09:53:51Z</time></trkpt><trkpt lat="50.50643017618535" lon="16.067750235608166"><ele>384.25</ele><time>2026-05-02T09:53:52Z</time></trkpt><trkpt lat="50.50650657707058" lon="16.067562465795863"><ele>384.0</ele><time>2026-05-02T09:53:53Z</time></trkpt><trkpt lat="50.506577195827056" lon="16.06738206197133"><ele>384.0</ele><time>2026-05-02T09:53:54Z</time></trkpt><trkpt lat="50.506648740245474" lon="16.067208557308813"><ele>384.0</ele><time>2026-05-02T09:53:55Z</time></trkpt><trkpt lat="50.50672379736434" lon="16.067045201830254"><ele>384.0</ele><time>2026-05-02T09:53:56Z</time></trkpt><trkpt lat="50.506803243417465" lon="16.066890383812268"><ele>384.0</ele><time>2026-05-02T09:53:57Z</time></trkpt><trkpt lat="50.506886690094014" lon="16.06675401381371"><ele>384.0</ele><time>2026-05-02T09:53:58Z</time></trkpt><trkpt lat="50.50696625160715" lon="16.06662061526448"><ele>384.0</ele><time>2026-05-02T09:53:59Z</time></trkpt><trkpt lat="50.507036027172354" lon="16.06649980716106"><ele>384.0</ele><time>2026-05-02T09:54:00Z</time></trkpt><trkpt lat="50.50710148221506" lon="16.06638603956839"><ele>384.0</ele><time>2026-05-02T09:54:01Z</time></trkpt><trkpt lat="50.507166495542975" lon="16.066268920442255"><ele>384.0</ele><time>2026-05-02T09:54:02Z</time></trkpt><trkpt lat="50.50722498985743" lon="16.066147986338514"><ele>383.25</ele><time>2026-05-02T09:54:03Z</time></trkpt><trkpt lat="50.50727791808182" lon="16.066021316438434"><ele>382.5</ele><time>2026-05-02T09:54:04Z</time></trkpt><trkpt lat="50.507327340476856" lon="16.06586890392418"><ele>381.75</ele><time>2026-05-02T09:54:05Z</time></trkpt><trkpt lat="50.50737931216106" lon="16.065685490578538"><ele>381.0</ele><time>2026-05-02T09:54:06Z</time></trkpt><trkpt lat="50.50743967694557" lon="16.065499631122155"><ele>381.0</ele><time>2026-05-02T09:54:07Z</time></trkpt><trkpt lat="50.507505925634" lon="16.06530753720675"><ele>381.0</ele><time>2026-05-02T09:54:08Z</time></trkpt><trkpt lat="50.50757500109883" lon="16.065102011184944"><ele>381.0</ele><time>2026-05-02T09:54:09Z</time></trkpt><trkpt lat="50.50764052827709" lon="16.0649222520149"><ele>381.0</ele><time>2026-05-02T09:54:10Z</time></trkpt><trkpt lat="50.507701098852074" lon="16.064742517167858"><ele>381.0</ele><time>2026-05-02T09:54:11Z</time></trkpt><trkpt lat="50.50776233856218" lon="16.064562821899443"><ele>381.0</ele><time>2026-05-02T09:54:12Z</time></trkpt><trkpt lat="50.50783684790255" lon="16.0643871809478"><ele>381.0</ele><time>2026-05-02T09:54:13Z</time></trkpt><trkpt lat="50.50791766972311" lon="16.064212176495424"><ele>381.0</ele><time>2026-05-02T09:54:14Z</time></trkpt><trkpt lat="50.50799894770126" lon="16.064034447594093"><ele>379.75</ele><time>2026-05-02T09:54:15Z</time></trkpt><trkpt lat="50.508080709318946" lon="16.063862103618035"><ele>378.5</ele><time>2026-05-02T09:54:16Z</time></trkpt><trkpt lat="50.50816077330733" lon="16.063695742808438"><ele>377.25</ele><time>2026-05-02T09:54:17Z</time></trkpt><trkpt lat="50.508244583362874" lon="16.063538161419455"><ele>376.0</ele><time>2026-05-02T09:54:18Z</time></trkpt><trkpt lat="50.50833060130819" lon="16.063378043414033"><ele>376.25</ele><time>2026-05-02T09:54:19Z</time></trkpt><trkpt lat="50.508419246995956" lon="16.06322029780507"><ele>376.5</ele><time>2026-05-02T09:54:20Z</time></trkpt><trkpt lat="50.50850827828782" lon="16.063068270890927"><ele>376.75</ele><time>2026-05-02T09:54:21Z</time></trkpt><trkpt lat="50.50859453674708" lon="16.062923191884476"><ele>377.0</ele><time>2026-05-02T09:54:22Z</time></trkpt><trkpt lat="50.508681567819046" lon="16.06278564088447"><ele>376.25</ele><time>2026-05-02T09:54:23Z</time></trkpt><trkpt lat="50.50877203926054" lon="16.062662359359702"><ele>375.5</ele><time>2026-05-02T09:54:24Z</time></trkpt><trkpt lat="50.50886599492465" lon="16.062550317661138"><ele>374.75</ele><time>2026-05-02T09:54:25Z</time></trkpt><trkpt lat="50.50896737367265" lon="16.062451164073945"><ele>374.0</ele><time>2026-05-02T09:54:26Z</time></trkpt><trkpt lat="50.50907761221904" lon="16.062368635493108"><ele>374.0</ele><time>2026-05-02T09:54:27Z</time></trkpt><trkpt lat="50.50919671979087" lon="16.062296571708636"><ele>374.0</ele><time>2026-05-02T09:54:28Z</time></trkpt><trkpt lat="50.50932121069486" lon="16.06223463032375"><ele>374.0</ele><time>2026-05-02T09:54:29Z</time></trkpt><trkpt lat="50.509446878889285" lon="16.06218096170393"><ele>374.0</ele><time>2026-05-02T09:54:30Z</time></trkpt><trkpt lat="50.509568190773194" lon="16.062129417957394"><ele>373.75</ele><time>2026-05-02T09:54:31Z</time></trkpt><trkpt lat="50.50968042693059" lon="16.0620793031005"><ele>373.5</ele><time>2026-05-02T09:54:32Z</time></trkpt><trkpt lat="50.509789747661486" lon="16.062032752289394"><ele>373.25</ele><time>2026-05-02T09:54:33Z</time></trkpt><trkpt lat="50.50989644058378" lon="16.061989457554237"><ele>373.0</ele><time>2026-05-02T09:54:34Z</time></trkpt><trkpt lat="50.510002795069774" lon="16.061936940775396"><ele>373.0</ele><time>2026-05-02T09:54:35Z</time></trkpt><trkpt lat="50.510110111427124" lon="16.061883410941853"><ele>373.0</ele><time>2026-05-02T09:54:36Z</time></trkpt><trkpt lat="50.510212407914544" lon="16.061811312211447"><ele>373.0</ele><time>2026-05-02T09:54:37Z</time></trkpt><trkpt lat="50.51032334219542" lon="16.061745342136348"><ele>373.0</ele><time>2026-05-02T09:54:38Z</time></trkpt><trkpt lat="50.510407992148636" lon="16.06160707593332"><ele>372.75</ele><time>2026-05-02T09:54:39Z</time></trkpt><trkpt lat="50.51050889676866" lon="16.06149517373328"><ele>372.5</ele><time>2026-05-02T09:54:40Z</time></trkpt><trkpt lat="50.510580623831245" lon="16.06133632447361"><ele>372.25</ele><time>2026-05-02T09:54:41Z</time></trkpt><trkpt lat="50.51066609862759" lon="16.061194337658126"><ele>372.0</ele><time>2026-05-02T09:54:42Z</time></trkpt><trkpt lat="50.51075273912259" lon="16.06104460332653"><ele>372.0</ele><time>2026-05-02T09:54:43Z</time></trkpt><trkpt lat="50.51084778445981" lon="16.060921762048842"><ele>372.0</ele><time>2026-05-02T09:54:44Z</time></trkpt><trkpt lat="50.51092153188611" lon="16.060783758125897"><ele>372.0</ele><time>2026-05-02T09:54:45Z</time></trkpt><trkpt lat="50.5109862416305" lon="16.0606210169784"><ele>372.0</ele><time>2026-05-02T09:54:46Z</time></trkpt><trkpt lat="50.51104534453879" lon="16.06043949537148"><ele>371.75</ele><time>2026-05-02T09:54:47Z</time></trkpt><trkpt lat="50.5110685316606" lon="16.060228533336417"><ele>371.5</ele><time>2026-05-02T09:54:48Z</time></trkpt><trkpt lat="50.51109473787784" lon="16.060027274364643"><ele>371.25</ele><time>2026-05-02T09:54:49Z</time></trkpt><trkpt lat="50.51111366971662" lon="16.05984211867462"><ele>371.0</ele><time>2026-05-02T09:54:50Z</time></trkpt><trkpt lat="50.51112810734722" lon="16.059662087429224"><ele>370.75</ele><time>2026-05-02T09:54:51Z</time></trkpt><trkpt lat="50.51115248011456" lon="16.05947007835414"><ele>370.5</ele><time>2026-05-02T09:54:52Z</time></trkpt><trkpt lat="50.51115215003948" lon="16.059271646677683"><ele>370.25</ele><time>2026-05-02T09:54:53Z</time></trkpt><trkpt lat="50.51114425320894" lon="16.059067117576635"><ele>370.0</ele><time>2026-05-02T09:54:54Z</time></trkpt><trkpt lat="50.511134820466765" lon="16.058868238618775"><ele>369.75</ele><time>2026-05-02T09:54:55Z</time></trkpt><trkpt lat="50.51112507160596" lon="16.058673628890677"><ele>369.5</ele><time>2026-05-02T09:54:56Z</time></trkpt><trkpt lat="50.51110115019007" lon="16.058483737215173"><ele>369.25</ele><time>2026-05-02T09:54:57Z</time></trkpt><trkpt lat="50.51109262239217" lon="16.058293637562905"><ele>369.0</ele><time>2026-05-02T09:54:58Z</time></trkpt><trkpt lat="50.51108347014771" lon="16.05810455868476"><ele>368.5</ele><time>2026-05-02T09:54:59Z</time></trkpt><trkpt lat="50.51107463010391" lon="16.057916280739647"><ele>368.0</ele><time>2026-05-02T09:55:00Z</time></trkpt><trkpt lat="50.51106521635251" lon="16.05772899799782"><ele>367.5</ele><time>2026-05-02T09:55:01Z</time></trkpt><trkpt lat="50.51105057489923" lon="16.057540898788062"><ele>367.0</ele><time>2026-05-02T09:55:02Z</time></trkpt><trkpt lat="50.511027836363844" lon="16.057367599387945"><ele>367.0</ele><time>2026-05-02T09:55:03Z</time></trkpt><trkpt lat="50.51101189533988" lon="16.05720930196401"><ele>367.0</ele><time>2026-05-02T09:55:04Z</time></trkpt><trkpt lat="50.51096526948165" lon="16.057082738089385"><ele>367.0</ele><time>2026-05-02T09:55:05Z</time></trkpt><trkpt lat="50.510939277930675" lon="16.056960361156246"><ele>367.0</ele><time>2026-05-02T09:55:06Z</time></trkpt><trkpt lat="50.51090100010148" lon="16.056807854694394"><ele>367.0</ele><time>2026-05-02T09:55:08Z</time></trkpt><trkpt lat="50.51088031880417" lon="16.056687125613188"><ele>366.8333333333333</ele><time>2026-05-02T09:55:10Z</time></trkpt><trkpt lat="50.51085488211755" lon="16.056586738684675"><ele>366.66666666666663</ele><time>2026-05-02T09:55:12Z</time></trkpt><trkpt lat="50.51082184180163" lon="16.056456343726953"><ele>366.5</ele><time>2026-05-02T09:55:15Z</time></trkpt><trkpt lat="50.51078469372938" lon="16.056309737376484"><ele>366.3333333333333</ele><time>2026-05-02T09:55:30Z</time></trkpt><trkpt lat="50.51075984229209" lon="16.056211660914414"><ele>366.1666666666667</ele><time>2026-05-02T09:55:31Z</time></trkpt><trkpt lat="50.51072359189811" lon="16.056070906509266"><ele>366.0</ele><time>2026-05-02T09:55:32Z</time></trkpt><trkpt lat="50.51067615323308" lon="16.05588615325485"><ele>366.0</ele><time>2026-05-02T09:55:33Z</time></trkpt><trkpt lat="50.510633009786176" lon="16.055717589181185"><ele>366.0</ele><time>2026-05-02T09:55:34Z</time></trkpt><trkpt lat="50.510589516045535" lon="16.05554524576677"><ele>366.0</ele><time>2026-05-02T09:55:35Z</time></trkpt><trkpt lat="50.51054316150841" lon="16.055363500178935"><ele>366.0</ele><time>2026-05-02T09:55:36Z</time></trkpt><trkpt lat="50.51049022840275" lon="16.055161968364864"><ele>366.0</ele><time>2026-05-02T09:55:37Z</time></trkpt><trkpt lat="50.51043769972617" lon="16.054955103654596"><ele>366.0</ele><time>2026-05-02T09:55:38Z</time></trkpt><trkpt lat="50.51039078396033" lon="16.054767666250978"><ele>366.0</ele><time>2026-05-02T09:55:39Z</time></trkpt><trkpt lat="50.510354117611996" lon="16.054610143655324"><ele>366.0</ele><time>2026-05-02T09:55:40Z</time></trkpt><trkpt lat="50.51034109582675" lon="16.05446143383793"><ele>365.8</ele><time>2026-05-02T09:55:41Z</time></trkpt><trkpt lat="50.51034620182429" lon="16.05430228506494"><ele>365.6</ele><time>2026-05-02T09:55:42Z</time></trkpt><trkpt lat="50.51036270788447" lon="16.054141680358008"><ele>365.4</ele><time>2026-05-02T09:55:43Z</time></trkpt><trkpt lat="50.510389916889494" lon="16.053975090733044"><ele>365.2</ele><time>2026-05-02T09:55:44Z</time></trkpt><trkpt lat="50.51043523559504" lon="16.053831393376495"><ele>365.0</ele><time>2026-05-02T09:55:45Z</time></trkpt><trkpt lat="50.51049164356794" lon="16.05369381899474"><ele>364.8</ele><time>2026-05-02T09:55:46Z</time></trkpt><trkpt lat="50.5105614279022" lon="16.053574538597825"><ele>364.6</ele><time>2026-05-02T09:55:47Z</time></trkpt><trkpt lat="50.51064081332127" lon="16.053456160077474"><ele>364.4</ele><time>2026-05-02T09:55:48Z</time></trkpt><trkpt lat="50.51073190857754" lon="16.05337677604526"><ele>364.2</ele><time>2026-05-02T09:55:49Z</time></trkpt><trkpt lat="50.51083073916164" lon="16.0533190751641"><ele>364.0</ele><time>2026-05-02T09:55:50Z</time></trkpt><trkpt lat="50.5109309054658" lon="16.053251093891152"><ele>363.5</ele><time>2026-05-02T09:55:51Z</time></trkpt><trkpt lat="50.51103770541068" lon="16.05317861043737"><ele>363.0</ele><time>2026-05-02T09:55:52Z</time></trkpt><trkpt lat="50.511146730322345" lon="16.05310461698215"><ele>362.5</ele><time>2026-05-02T09:55:53Z</time></trkpt><trkpt lat="50.51126064327204" lon="16.0530273061943"><ele>362.0</ele><time>2026-05-02T09:55:54Z</time></trkpt><trkpt lat="50.51137783522881" lon="16.052949345116673"><ele>362.0</ele><time>2026-05-02T09:55:55Z</time></trkpt><trkpt lat="50.51149624350179" lon="16.052869959342697"><ele>362.0</ele><time>2026-05-02T09:55:56Z</time></trkpt><trkpt lat="50.51160608789524" lon="16.052794064737824"><ele>362.0</ele><time>2026-05-02T09:55:57Z</time></trkpt><trkpt lat="50.511708592114765" lon="16.052720226376067"><ele>362.0</ele><time>2026-05-02T09:55:58Z</time></trkpt><trkpt lat="50.51180791392379" lon="16.05263715069179"><ele>362.0</ele><time>2026-05-02T09:55:59Z</time></trkpt><trkpt lat="50.51190272145751" lon="16.05254334918098"><ele>362.0</ele><time>2026-05-02T09:56:00Z</time></trkpt><trkpt lat="50.51198891750092" lon="16.052442142619928"><ele>362.0</ele><time>2026-05-02T09:56:01Z</time></trkpt><trkpt lat="50.51207467173141" lon="16.052341095387508"><ele>362.0</ele><time>2026-05-02T09:56:02Z</time></trkpt><trkpt lat="50.512168760896074" lon="16.05223022676492"><ele>362.0</ele><time>2026-05-02T09:56:03Z</time></trkpt><trkpt lat="50.51226724839942" lon="16.052113042867727"><ele>362.25</ele><time>2026-05-02T09:56:04Z</time></trkpt><trkpt lat="50.51236461714535" lon="16.051996437809002"><ele>362.5</ele><time>2026-05-02T09:56:05Z</time></trkpt><trkpt lat="50.51246123384815" lon="16.051880733327625"><ele>362.75</ele><time>2026-05-02T09:56:06Z</time></trkpt><trkpt lat="50.5125609636835" lon="16.051761788534364"><ele>363.0</ele><time>2026-05-02T09:56:07Z</time></trkpt><trkpt lat="50.5126597084324" lon="16.051655922070534"><ele>363.0</ele><time>2026-05-02T09:56:08Z</time></trkpt><trkpt lat="50.512762795605774" lon="16.051568219334243"><ele>363.0</ele><time>2026-05-02T09:56:09Z</time></trkpt><trkpt lat="50.51285978154706" lon="16.0514995484647"><ele>363.0</ele><time>2026-05-02T09:56:10Z</time></trkpt><trkpt lat="50.51296180254224" lon="16.05142742297739"><ele>363.0</ele><time>2026-05-02T09:56:11Z</time></trkpt><trkpt lat="50.51306934897974" lon="16.05135167938197"><ele>362.5</ele><time>2026-05-02T09:56:12Z</time></trkpt><trkpt lat="50.51317660677395" lon="16.051275236240055"><ele>362.0</ele><time>2026-05-02T09:56:13Z</time></trkpt><trkpt lat="50.513287084476865" lon="16.05119553878272"><ele>361.5</ele><time>2026-05-02T09:56:14Z</time></trkpt><trkpt lat="50.51339905675461" lon="16.05111409155688"><ele>361.0</ele><time>2026-05-02T09:56:15Z</time></trkpt><trkpt lat="50.513507402946075" lon="16.051019123005727"><ele>361.0</ele><time>2026-05-02T09:56:16Z</time></trkpt><trkpt lat="50.51360998579248" lon="16.050916425913616"><ele>361.0</ele><time>2026-05-02T09:56:17Z</time></trkpt><trkpt lat="50.51369511460195" lon="16.050782719116523"><ele>361.0</ele><time>2026-05-02T09:56:18Z</time></trkpt><trkpt lat="50.51377385086542" lon="16.050638293424814"><ele>361.0</ele><time>2026-05-02T09:56:19Z</time></trkpt><trkpt lat="50.513856826811626" lon="16.05048713439414"><ele>361.0</ele><time>2026-05-02T09:56:20Z</time></trkpt><trkpt lat="50.513942508319516" lon="16.05033404574363"><ele>361.0</ele><time>2026-05-02T09:56:21Z</time></trkpt><trkpt lat="50.51402887355801" lon="16.05017909624226"><ele>361.0</ele><time>2026-05-02T09:56:22Z</time></trkpt><trkpt lat="50.51411470309535" lon="16.050025369489354"><ele>361.0</ele><time>2026-05-02T09:56:23Z</time></trkpt><trkpt lat="50.51419899366397" lon="16.0498748186631"><ele>360.0</ele><time>2026-05-02T09:56:24Z</time></trkpt><trkpt lat="50.514277342581636" lon="16.049743336146"><ele>359.0</ele><time>2026-05-02T09:56:25Z</time></trkpt><trkpt lat="50.51435702846778" lon="16.04962683340053"><ele>358.0</ele><time>2026-05-02T09:56:26Z</time></trkpt><trkpt lat="50.51445551315592" lon="16.04955170949434"><ele>357.0</ele><time>2026-05-02T09:56:27Z</time></trkpt><trkpt lat="50.51455953901638" lon="16.04945309870181"><ele>357.25</ele><time>2026-05-02T09:56:28Z</time></trkpt><trkpt lat="50.514667679575645" lon="16.049350059497243"><ele>357.5</ele><time>2026-05-02T09:56:29Z</time></trkpt><trkpt lat="50.51477941592766" lon="16.04924592723461"><ele>357.75</ele><time>2026-05-02T09:56:30Z</time></trkpt><trkpt lat="50.514890467345374" lon="16.049143618587745"><ele>358.0</ele><time>2026-05-02T09:56:31Z</time></trkpt><trkpt lat="50.515002591723544" lon="16.049040321472688"><ele>358.0</ele><time>2026-05-02T09:56:32Z</time></trkpt><trkpt lat="50.51510260394251" lon="16.048935647355563"><ele>358.0</ele><time>2026-05-02T09:56:33Z</time></trkpt><trkpt lat="50.51518672529912" lon="16.04882282901803"><ele>358.0</ele><time>2026-05-02T09:56:34Z</time></trkpt><trkpt lat="50.51526694786977" lon="16.048714751415865"><ele>358.0</ele><time>2026-05-02T09:56:35Z</time></trkpt><trkpt lat="50.515337262686124" lon="16.048586139642396"><ele>358.0</ele><time>2026-05-02T09:56:36Z</time></trkpt><trkpt lat="50.515402905908466" lon="16.048433660128378"><ele>358.0</ele><time>2026-05-02T09:56:37Z</time></trkpt><trkpt lat="50.51545926540615" lon="16.048258025641502"><ele>358.0</ele><time>2026-05-02T09:56:38Z</time></trkpt><trkpt lat="50.51551245004607" lon="16.0480775272112"><ele>358.0</ele><time>2026-05-02T09:56:39Z</time></trkpt><trkpt lat="50.51558809363249" lon="16.047898007629918"><ele>358.0</ele><time>2026-05-02T09:56:40Z</time></trkpt><trkpt lat="50.51563498319452" lon="16.04769755291073"><ele>358.0</ele><time>2026-05-02T09:56:41Z</time></trkpt><trkpt lat="50.51569698469053" lon="16.047510739181284"><ele>358.0</ele><time>2026-05-02T09:56:42Z</time></trkpt><trkpt lat="50.51576360243653" lon="16.04732475283723"><ele>358.0</ele><time>2026-05-02T09:56:43Z</time></trkpt><trkpt lat="50.51582824585779" lon="16.047140740735696"><ele>358.0</ele><time>2026-05-02T09:56:44Z</time></trkpt><trkpt lat="50.51589033173629" lon="16.04695391515294"><ele>358.0</ele><time>2026-05-02T09:56:45Z</time></trkpt><trkpt lat="50.51595263448418" lon="16.04676484278119"><ele>358.0</ele><time>2026-05-02T09:56:46Z</time></trkpt><trkpt lat="50.516014870838774" lon="16.046572122420965"><ele>358.0</ele><time>2026-05-02T09:56:47Z</time></trkpt><trkpt lat="50.516076587942536" lon="16.046381572321998"><ele>358.0</ele><time>2026-05-02T09:56:48Z</time></trkpt><trkpt lat="50.5161405378648" lon="16.04619785422723"><ele>358.0</ele><time>2026-05-02T09:56:49Z</time></trkpt><trkpt lat="50.51619640738704" lon="16.046023488902687"><ele>358.0</ele><time>2026-05-02T09:56:50Z</time></trkpt><trkpt lat="50.51625004875817" lon="16.04585850724798"><ele>358.0</ele><time>2026-05-02T09:56:51Z</time></trkpt><trkpt lat="50.516317936399126" lon="16.04569144912641"><ele>358.0</ele><time>2026-05-02T09:56:52Z</time></trkpt><trkpt lat="50.516365021187795" lon="16.045495508131328"><ele>357.75</ele><time>2026-05-02T09:56:53Z</time></trkpt><trkpt lat="50.51643331407235" lon="16.045315046079736"><ele>357.5</ele><time>2026-05-02T09:56:54Z</time></trkpt><trkpt lat="50.51651923306775" lon="16.04514318473103"><ele>357.25</ele><time>2026-05-02T09:56:55Z</time></trkpt><trkpt lat="50.51661667262339" lon="16.044989557503698"><ele>357.0</ele><time>2026-05-02T09:56:56Z</time></trkpt><trkpt lat="50.51672364978196" lon="16.04484084243721"><ele>357.0</ele><time>2026-05-02T09:56:57Z</time></trkpt><trkpt lat="50.51682319074414" lon="16.044699365182986"><ele>357.0</ele><time>2026-05-02T09:56:58Z</time></trkpt><trkpt lat="50.51692187326074" lon="16.044538985937898"><ele>357.0</ele><time>2026-05-02T09:56:59Z</time></trkpt><trkpt lat="50.517020519487026" lon="16.044386979695247"><ele>357.0</ele><time>2026-05-02T09:57:00Z</time></trkpt><trkpt lat="50.517118528367256" lon="16.0442156773758"><ele>356.75</ele><time>2026-05-02T09:57:01Z</time></trkpt><trkpt lat="50.517216677368474" lon="16.044054037644162"><ele>356.5</ele><time>2026-05-02T09:57:02Z</time></trkpt><trkpt lat="50.51727187015553" lon="16.04382823178612"><ele>356.25</ele><time>2026-05-02T09:57:03Z</time></trkpt><trkpt lat="50.51733414947837" lon="16.043627083450833"><ele>356.0</ele><time>2026-05-02T09:57:04Z</time></trkpt><trkpt lat="50.51741175618821" lon="16.043446503927637"><ele>355.25</ele><time>2026-05-02T09:57:05Z</time></trkpt><trkpt lat="50.51746593428242" lon="16.043251377898788"><ele>354.5</ele><time>2026-05-02T09:57:06Z</time></trkpt><trkpt lat="50.51753097244794" lon="16.04305328669392"><ele>353.75</ele><time>2026-05-02T09:57:07Z</time></trkpt><trkpt lat="50.51759230562917" lon="16.042866334933315"><ele>353.0</ele><time>2026-05-02T09:57:08Z</time></trkpt><trkpt lat="50.51765696872945" lon="16.04267918541175"><ele>353.0</ele><time>2026-05-02T09:57:09Z</time></trkpt><trkpt lat="50.51772264782444" lon="16.042490173118594"><ele>353.0</ele><time>2026-05-02T09:57:10Z</time></trkpt><trkpt lat="50.517788742363564" lon="16.042306362593905"><ele>353.0</ele><time>2026-05-02T09:57:11Z</time></trkpt><trkpt lat="50.51785617598929" lon="16.042119956671662"><ele>353.0</ele><time>2026-05-02T09:57:12Z</time></trkpt><trkpt lat="50.517920627722866" lon="16.041916115660054"><ele>353.0</ele><time>2026-05-02T09:57:13Z</time></trkpt><trkpt lat="50.517984172447555" lon="16.041718248673508"><ele>353.0</ele><time>2026-05-02T09:57:14Z</time></trkpt><trkpt lat="50.5180542761963" lon="16.04151648702611"><ele>353.0</ele><time>2026-05-02T09:57:15Z</time></trkpt><trkpt lat="50.51812436474991" lon="16.04131956875455"><ele>353.0</ele><time>2026-05-02T09:57:16Z</time></trkpt><trkpt lat="50.51819253782331" lon="16.04111669257786"><ele>353.0</ele><time>2026-05-02T09:57:17Z</time></trkpt><trkpt lat="50.518262789158825" lon="16.040910433590746"><ele>353.0</ele><time>2026-05-02T09:57:18Z</time></trkpt><trkpt lat="50.51832967450559" lon="16.040721891665804"><ele>353.0</ele><time>2026-05-02T09:57:19Z</time></trkpt><trkpt lat="50.51838978289126" lon="16.04054828757841"><ele>353.0</ele><time>2026-05-02T09:57:20Z</time></trkpt><trkpt lat="50.51844984230152" lon="16.040369658988922"><ele>353.0</ele><time>2026-05-02T09:57:21Z</time></trkpt><trkpt lat="50.518511841038695" lon="16.040194857627995"><ele>353.0</ele><time>2026-05-02T09:57:22Z</time></trkpt><trkpt lat="50.518585486026126" lon="16.04003015238251"><ele>353.0</ele><time>2026-05-02T09:57:23Z</time></trkpt><trkpt lat="50.51861628635559" lon="16.039841977831816"><ele>353.0</ele><time>2026-05-02T09:57:24Z</time></trkpt><trkpt lat="50.51863999556469" lon="16.039671927938507"><ele>353.0</ele><time>2026-05-02T09:57:25Z</time></trkpt><trkpt lat="50.518662244480446" lon="16.039496201606312"><ele>353.0</ele><time>2026-05-02T09:57:26Z</time></trkpt><trkpt lat="50.51862283960701" lon="16.039290849360267"><ele>353.0</ele><time>2026-05-02T09:57:27Z</time></trkpt><trkpt lat="50.51857254393096" lon="16.03907574271055"><ele>353.0</ele><time>2026-05-02T09:57:28Z</time></trkpt><trkpt lat="50.51850228701051" lon="16.038866796599265"><ele>352.6666666666667</ele><time>2026-05-02T09:57:29Z</time></trkpt><trkpt lat="50.51841271034834" lon="16.038649072092994"><ele>352.3333333333333</ele><time>2026-05-02T09:57:30Z</time></trkpt><trkpt lat="50.518336799242284" lon="16.038454373744358"><ele>352.0</ele><time>2026-05-02T09:57:31Z</time></trkpt><trkpt lat="50.51826993279185" lon="16.03825588874845"><ele>352.0</ele><time>2026-05-02T09:57:32Z</time></trkpt><trkpt lat="50.51820518187076" lon="16.038063744217926"><ele>352.0</ele><time>2026-05-02T09:57:33Z</time></trkpt><trkpt lat="50.51814338771438" lon="16.03789210241724"><ele>352.0</ele><time>2026-05-02T09:57:34Z</time></trkpt><trkpt lat="50.51808020607765" lon="16.03772707370185"><ele>352.0</ele><time>2026-05-02T09:57:35Z</time></trkpt><trkpt lat="50.518008625130626" lon="16.037561360141858"><ele>352.0</ele><time>2026-05-02T09:57:36Z</time></trkpt><trkpt lat="50.517926941224026" lon="16.037424240317694"><ele>352.0</ele><time>2026-05-02T09:57:37Z</time></trkpt><trkpt lat="50.517836183500634" lon="16.037302701194417"><ele>352.0</ele><time>2026-05-02T09:57:38Z</time></trkpt><trkpt lat="50.51773852248232" lon="16.037190472855176"><ele>352.0</ele><time>2026-05-02T09:57:39Z</time></trkpt><trkpt lat="50.517631622334584" lon="16.03708958066338"><ele>352.0</ele><time>2026-05-02T09:57:40Z</time></trkpt><trkpt lat="50.51754146489448" lon="16.03694684198791"><ele>352.0</ele><time>2026-05-02T09:57:41Z</time></trkpt><trkpt lat="50.51743687990616" lon="16.03681196393417"><ele>352.0</ele><time>2026-05-02T09:57:42Z</time></trkpt><trkpt lat="50.517345007399285" lon="16.03666868078629"><ele>352.0</ele><time>2026-05-02T09:57:43Z</time></trkpt><trkpt lat="50.51726396228921" lon="16.036520974721068"><ele>352.25</ele><time>2026-05-02T09:57:44Z</time></trkpt><trkpt lat="50.51719746475748" lon="16.036361530682814"><ele>352.5</ele><time>2026-05-02T09:57:45Z</time></trkpt><trkpt lat="50.51713954475554" lon="16.03620407899771"><ele>352.75</ele><time>2026-05-02T09:57:46Z</time></trkpt><trkpt lat="50.5170863342899" lon="16.036032291205313"><ele>353.0</ele><time>2026-05-02T09:57:47Z</time></trkpt><trkpt lat="50.517033680497356" lon="16.03584807333385"><ele>352.75</ele><time>2026-05-02T09:57:48Z</time></trkpt><trkpt lat="50.51696936417698" lon="16.035669095581714"><ele>352.5</ele><time>2026-05-02T09:57:49Z</time></trkpt><trkpt lat="50.516924224616446" lon="16.03548978228705"><ele>352.25</ele><time>2026-05-02T09:57:50Z</time></trkpt><trkpt lat="50.51686738601524" lon="16.03531185707412"><ele>352.0</ele><time>2026-05-02T09:57:51Z</time></trkpt><trkpt lat="50.51681553525023" lon="16.035123928538972"><ele>353.25</ele><time>2026-05-02T09:57:52Z</time></trkpt><trkpt lat="50.51675745395831" lon="16.034926936079824"><ele>354.5</ele><time>2026-05-02T09:57:53Z</time></trkpt><trkpt lat="50.516703465421095" lon="16.034724704199025"><ele>355.75</ele><time>2026-05-02T09:57:54Z</time></trkpt><trkpt lat="50.51664785396593" lon="16.034540217643368"><ele>357.0</ele><time>2026-05-02T09:57:55Z</time></trkpt><trkpt lat="50.51658972194873" lon="16.03438996079358"><ele>357.0</ele><time>2026-05-02T09:57:56Z</time></trkpt><trkpt lat="50.516529199423886" lon="16.03425064674367"><ele>357.0</ele><time>2026-05-02T09:57:57Z</time></trkpt><trkpt lat="50.5164623528655" lon="16.034123553320974"><ele>357.0</ele><time>2026-05-02T09:57:58Z</time></trkpt><trkpt lat="50.51638942992991" lon="16.033995107716873"><ele>357.0</ele><time>2026-05-02T09:57:59Z</time></trkpt><trkpt lat="50.51627988903938" lon="16.033917539597088"><ele>357.0</ele><time>2026-05-02T09:58:00Z</time></trkpt><trkpt lat="50.51616211676605" lon="16.033826392359842"><ele>357.75</ele><time>2026-05-02T09:58:01Z</time></trkpt><trkpt lat="50.516043753263595" lon="16.03371582729468"><ele>358.5</ele><time>2026-05-02T09:58:02Z</time></trkpt><trkpt lat="50.51592829812826" lon="16.03363879796697"><ele>359.25</ele><time>2026-05-02T09:58:03Z</time></trkpt><trkpt lat="50.51582783395209" lon="16.03358105967371"><ele>360.0</ele><time>2026-05-02T09:58:04Z</time></trkpt><trkpt lat="50.515735272153556" lon="16.033547906247158"><ele>360.0</ele><time>2026-05-02T09:58:05Z</time></trkpt><trkpt lat="50.51564143630131" lon="16.03354285650783"><ele>360.0</ele><time>2026-05-02T09:58:06Z</time></trkpt><trkpt lat="50.515535646160345" lon="16.03358700779958"><ele>360.0</ele><time>2026-05-02T09:58:07Z</time></trkpt><trkpt lat="50.51541618583699" lon="16.0335964447599"><ele>360.0</ele><time>2026-05-02T09:58:08Z</time></trkpt><trkpt lat="50.51528926170356" lon="16.033627527546194"><ele>359.0</ele><time>2026-05-02T09:58:09Z</time></trkpt><trkpt lat="50.515174025317904" lon="16.03362537343047"><ele>358.0</ele><time>2026-05-02T09:58:10Z</time></trkpt><trkpt lat="50.5150672998103" lon="16.03360281064831"><ele>357.0</ele><time>2026-05-02T09:58:11Z</time></trkpt><trkpt lat="50.514952741129775" lon="16.033564439641676"><ele>356.0</ele><time>2026-05-02T09:58:12Z</time></trkpt><trkpt lat="50.514839982362844" lon="16.033519291962865"><ele>356.0</ele><time>2026-05-02T09:58:13Z</time></trkpt><trkpt lat="50.51474530699676" lon="16.033471073538788"><ele>356.0</ele><time>2026-05-02T09:58:14Z</time></trkpt><trkpt lat="50.51467386245854" lon="16.033407960289765"><ele>356.0</ele><time>2026-05-02T09:58:15Z</time></trkpt><trkpt lat="50.51461203662624" lon="16.033322790390294"><ele>356.0</ele><time>2026-05-02T09:58:16Z</time></trkpt><trkpt lat="50.514540758017795" lon="16.03320304117689"><ele>356.0</ele><time>2026-05-02T09:58:17Z</time></trkpt><trkpt lat="50.51447174676384" lon="16.03305523251083"><ele>356.0</ele><time>2026-05-02T09:58:18Z</time></trkpt><trkpt lat="50.514409820641106" lon="16.032882457122536"><ele>356.0</ele><time>2026-05-02T09:58:19Z</time></trkpt><trkpt lat="50.514341440623205" lon="16.03268811278923"><ele>356.0</ele><time>2026-05-02T09:58:20Z</time></trkpt><trkpt lat="50.514268400988215" lon="16.03248404046786"><ele>356.0</ele><time>2026-05-02T09:58:21Z</time></trkpt><trkpt lat="50.51418693409417" lon="16.032308325320972"><ele>354.25</ele><time>2026-05-02T09:58:22Z</time></trkpt><trkpt lat="50.514121408708434" lon="16.032125687264006"><ele>352.5</ele><time>2026-05-02T09:58:23Z</time></trkpt><trkpt lat="50.51406513198107" lon="16.031923543958072"><ele>350.75</ele><time>2026-05-02T09:58:24Z</time></trkpt><trkpt lat="50.51398500548821" lon="16.031702757273"><ele>349.0</ele><time>2026-05-02T09:58:25Z</time></trkpt><trkpt lat="50.513892692043605" lon="16.03146910665638"><ele>348.5</ele><time>2026-05-02T09:58:26Z</time></trkpt><trkpt lat="50.513843918425195" lon="16.031359287263605"><ele>348.0</ele><time>2026-05-02T09:58:27Z</time></trkpt><trkpt lat="50.51375658089888" lon="16.03120241608871"><ele>347.5</ele><time>2026-05-02T09:58:28Z</time></trkpt><trkpt lat="50.51367669463166" lon="16.03104403780276"><ele>347.0</ele><time>2026-05-02T09:58:29Z</time></trkpt><trkpt lat="50.51358997909019" lon="16.03089321819777"><ele>347.25</ele><time>2026-05-02T09:58:30Z</time></trkpt><trkpt lat="50.51350092789959" lon="16.030746540442156"><ele>347.5</ele><time>2026-05-02T09:58:31Z</time></trkpt><trkpt lat="50.51340031736178" lon="16.030599414044428"><ele>347.75</ele><time>2026-05-02T09:58:32Z</time></trkpt><trkpt lat="50.51329457594546" lon="16.030469758447914"><ele>348.0</ele><time>2026-05-02T09:58:33Z</time></trkpt><trkpt lat="50.51318714539695" lon="16.030342080334645"><ele>348.0</ele><time>2026-05-02T09:58:34Z</time></trkpt><trkpt lat="50.51307694493714" lon="16.03022706624969"><ele>348.0</ele><time>2026-05-02T09:58:35Z</time></trkpt><trkpt lat="50.51296109773045" lon="16.03013388941666"><ele>348.0</ele><time>2026-05-02T09:58:36Z</time></trkpt><trkpt lat="50.51283478942777" lon="16.030059391710044"><ele>348.0</ele><time>2026-05-02T09:58:37Z</time></trkpt><trkpt lat="50.51269482137268" lon="16.03000584128857"><ele>349.25</ele><time>2026-05-02T09:58:38Z</time></trkpt><trkpt lat="50.51255410766936" lon="16.02999066397283"><ele>350.5</ele><time>2026-05-02T09:58:39Z</time></trkpt><trkpt lat="50.512412642162104" lon="16.030030369939716"><ele>351.75</ele><time>2026-05-02T09:58:40Z</time></trkpt><trkpt lat="50.51226936614103" lon="16.030132750500293"><ele>353.0</ele><time>2026-05-02T09:58:41Z</time></trkpt><trkpt lat="50.51212165880704" lon="16.030263703549366"><ele>352.6666666666667</ele><time>2026-05-02T09:58:42Z</time></trkpt><trkpt lat="50.5119715452241" lon="16.030394777150246"><ele>352.3333333333333</ele><time>2026-05-02T09:58:43Z</time></trkpt><trkpt lat="50.511824995406954" lon="16.030492331321483"><ele>352.0</ele><time>2026-05-02T09:58:44Z</time></trkpt><trkpt lat="50.511687535537156" lon="16.03051400516662"><ele>352.0</ele><time>2026-05-02T09:58:45Z</time></trkpt><trkpt lat="50.511538129431734" lon="16.030518119136463"><ele>352.0</ele><time>2026-05-02T09:58:46Z</time></trkpt><trkpt lat="50.51139607385719" lon="16.030461855569826"><ele>352.0</ele><time>2026-05-02T09:58:47Z</time></trkpt><trkpt lat="50.511243215743214" lon="16.030370808654425"><ele>351.0</ele><time>2026-05-02T09:58:48Z</time></trkpt><trkpt lat="50.511090923499594" lon="16.03026665801187"><ele>350.0</ele><time>2026-05-02T09:58:49Z</time></trkpt><trkpt lat="50.510966610599255" lon="16.030163935377352"><ele>349.0</ele><time>2026-05-02T09:58:50Z</time></trkpt><trkpt lat="50.5108703082957" lon="16.030067661129525"><ele>348.0</ele><time>2026-05-02T09:58:51Z</time></trkpt><trkpt lat="50.510797888778875" lon="16.029947990085205"><ele>348.0</ele><time>2026-05-02T09:58:52Z</time></trkpt><trkpt lat="50.51074286680462" lon="16.029798021316413"><ele>348.0</ele><time>2026-05-02T09:58:53Z</time></trkpt><trkpt lat="50.51070030888498" lon="16.029640211402945"><ele>348.0</ele><time>2026-05-02T09:58:54Z</time></trkpt><trkpt lat="50.5106488076831" lon="16.029464334270195"><ele>348.0</ele><time>2026-05-02T09:58:55Z</time></trkpt><trkpt lat="50.51065686238987" lon="16.02924926076409"><ele>346.6666666666667</ele><time>2026-05-02T09:58:56Z</time></trkpt><trkpt lat="50.51068903687707" lon="16.029002133872318"><ele>345.33333333333337</ele><time>2026-05-02T09:58:57Z</time></trkpt><trkpt lat="50.51070828388348" lon="16.028732058007648"><ele>344.0</ele><time>2026-05-02T09:58:58Z</time></trkpt><trkpt lat="50.51070567557992" lon="16.02849808456431"><ele>343.75</ele><time>2026-05-02T09:58:59Z</time></trkpt><trkpt lat="50.510712705918635" lon="16.028272172039728"><ele>343.5</ele><time>2026-05-02T09:59:00Z</time></trkpt><trkpt lat="50.51072272023881" lon="16.028064904941864"><ele>343.25</ele><time>2026-05-02T09:59:01Z</time></trkpt><trkpt lat="50.51072288601566" lon="16.027867394483017"><ele>343.0</ele><time>2026-05-02T09:59:02Z</time></trkpt><trkpt lat="50.510720384920226" lon="16.027674274603076"><ele>343.75</ele><time>2026-05-02T09:59:03Z</time></trkpt><trkpt lat="50.5106961127793" lon="16.0274770231771"><ele>344.5</ele><time>2026-05-02T09:59:04Z</time></trkpt><trkpt lat="50.510635379186986" lon="16.027297384799926"><ele>345.25</ele><time>2026-05-02T09:59:05Z</time></trkpt><trkpt lat="50.51054274050428" lon="16.027137965996637"><ele>346.0</ele><time>2026-05-02T09:59:06Z</time></trkpt><trkpt lat="50.510425254516406" lon="16.027009459852536"><ele>345.5</ele><time>2026-05-02T09:59:07Z</time></trkpt><trkpt lat="50.510284597938785" lon="16.026895030356773"><ele>345.0</ele><time>2026-05-02T09:59:08Z</time></trkpt><trkpt lat="50.51015031403138" lon="16.026783038146057"><ele>344.5</ele><time>2026-05-02T09:59:09Z</time></trkpt><trkpt lat="50.51003379436909" lon="16.026666382480876"><ele>344.0</ele><time>2026-05-02T09:59:10Z</time></trkpt><trkpt lat="50.50993037041703" lon="16.026569358162437"><ele>344.25</ele><time>2026-05-02T09:59:11Z</time></trkpt><trkpt lat="50.5098247091849" lon="16.026507201905037"><ele>344.5</ele><time>2026-05-02T09:59:12Z</time></trkpt><trkpt lat="50.50971325457018" lon="16.026492835741642"><ele>344.75</ele><time>2026-05-02T09:59:13Z</time></trkpt><trkpt lat="50.50958392351002" lon="16.026505869617765"><ele>345.0</ele><time>2026-05-02T09:59:14Z</time></trkpt><trkpt lat="50.50946036227095" lon="16.026538067243674"><ele>345.0</ele><time>2026-05-02T09:59:15Z</time></trkpt><trkpt lat="50.50934863541272" lon="16.026564360962702"><ele>345.0</ele><time>2026-05-02T09:59:16Z</time></trkpt><trkpt lat="50.50923351191592" lon="16.026600876849177"><ele>345.0</ele><time>2026-05-02T09:59:17Z</time></trkpt><trkpt lat="50.50909890198587" lon="16.02661696221391"><ele>345.0</ele><time>2026-05-02T09:59:18Z</time></trkpt><trkpt lat="50.50896533354272" lon="16.026655474385052"><ele>344.0</ele><time>2026-05-02T09:59:19Z</time></trkpt><trkpt lat="50.50883243710897" lon="16.026736634911135"><ele>343.0</ele><time>2026-05-02T09:59:20Z</time></trkpt><trkpt lat="50.5087069769977" lon="16.026846952469963"><ele>342.0</ele><time>2026-05-02T09:59:21Z</time></trkpt><trkpt lat="50.50859599130931" lon="16.027004715507374"><ele>341.0</ele><time>2026-05-02T09:59:22Z</time></trkpt><trkpt lat="50.508484347347185" lon="16.027160606468694"><ele>341.0</ele><time>2026-05-02T09:59:23Z</time></trkpt><trkpt lat="50.50837507821935" lon="16.027292743804654"><ele>341.0</ele><time>2026-05-02T09:59:24Z</time></trkpt><trkpt lat="50.508266656309225" lon="16.027399898468353"><ele>341.0</ele><time>2026-05-02T09:59:25Z</time></trkpt><trkpt lat="50.50814539515969" lon="16.027493625266096"><ele>341.0</ele><time>2026-05-02T09:59:26Z</time></trkpt><trkpt lat="50.50802800381747" lon="16.02756503774416"><ele>340.5</ele><time>2026-05-02T09:59:27Z</time></trkpt><trkpt lat="50.50791415983573" lon="16.02761719265674"><ele>340.0</ele><time>2026-05-02T09:59:28Z</time></trkpt><trkpt lat="50.50780150204735" lon="16.02766652801447"><ele>339.5</ele><time>2026-05-02T09:59:29Z</time></trkpt><trkpt lat="50.507683077241005" lon="16.027710462343787"><ele>339.0</ele><time>2026-05-02T09:59:30Z</time></trkpt><trkpt lat="50.50756383676911" lon="16.027720897661485"><ele>339.0</ele><time>2026-05-02T09:59:31Z</time></trkpt><trkpt lat="50.50744591479735" lon="16.027676898553416"><ele>339.0</ele><time>2026-05-02T09:59:32Z</time></trkpt><trkpt lat="50.50734418038259" lon="16.027545032379173"><ele>339.0</ele><time>2026-05-02T09:59:33Z</time></trkpt><trkpt lat="50.5072131993475" lon="16.02745601491743"><ele>339.0</ele><time>2026-05-02T09:59:34Z</time></trkpt><trkpt lat="50.507089815916146" lon="16.027329266660743"><ele>339.0</ele><time>2026-05-02T09:59:35Z</time></trkpt><trkpt lat="50.50698615856491" lon="16.02718997118377"><ele>339.0</ele><time>2026-05-02T09:59:36Z</time></trkpt><trkpt lat="50.5069296722412" lon="16.027004285321993"><ele>339.0</ele><time>2026-05-02T09:59:37Z</time></trkpt><trkpt lat="50.50686982224669" lon="16.026814627663185"><ele>339.0</ele><time>2026-05-02T09:59:38Z</time></trkpt><trkpt lat="50.50681639956795" lon="16.026611193181672"><ele>339.0</ele><time>2026-05-02T09:59:39Z</time></trkpt><trkpt lat="50.506775309319146" lon="16.026402953159266"><ele>339.0</ele><time>2026-05-02T09:59:40Z</time></trkpt><trkpt lat="50.50671734792747" lon="16.02623639322462"><ele>339.0</ele><time>2026-05-02T09:59:41Z</time></trkpt><trkpt lat="50.50666316541173" lon="16.02607848640204"><ele>339.0</ele><time>2026-05-02T09:59:42Z</time></trkpt><trkpt lat="50.506620592719166" lon="16.02592768812463"><ele>338.79999999999995</ele><time>2026-05-02T09:59:43Z</time></trkpt><trkpt lat="50.50659119700276" lon="16.025784976354068"><ele>338.59999999999997</ele><time>2026-05-02T09:59:44Z</time></trkpt><trkpt lat="50.50659358109926" lon="16.02562913690852"><ele>338.4</ele><time>2026-05-02T09:59:45Z</time></trkpt><trkpt lat="50.50664056802082" lon="16.02545631788593"><ele>338.2</ele><time>2026-05-02T09:59:46Z</time></trkpt><trkpt lat="50.506725524408736" lon="16.025292803084696"><ele>338.0</ele><time>2026-05-02T09:59:47Z</time></trkpt><trkpt lat="50.50683966329932" lon="16.025153702668472"><ele>338.0</ele><time>2026-05-02T09:59:48Z</time></trkpt><trkpt lat="50.50698969222002" lon="16.025087379585187"><ele>338.0</ele><time>2026-05-02T09:59:49Z</time></trkpt><trkpt lat="50.50714967836493" lon="16.02499934305702"><ele>338.0</ele><time>2026-05-02T09:59:50Z</time></trkpt><trkpt lat="50.50730192364064" lon="16.024946043517016"><ele>337.75</ele><time>2026-05-02T09:59:51Z</time></trkpt><trkpt lat="50.507437689157214" lon="16.02488999807515"><ele>337.5</ele><time>2026-05-02T09:59:52Z</time></trkpt><trkpt lat="50.50756931780765" lon="16.024829428846974"><ele>337.25</ele><time>2026-05-02T09:59:53Z</time></trkpt><trkpt lat="50.50770180369318" lon="16.024765731865685"><ele>337.0</ele><time>2026-05-02T09:59:54Z</time></trkpt><trkpt lat="50.50782920046416" lon="16.024697787089465"><ele>338.25</ele><time>2026-05-02T09:59:55Z</time></trkpt><trkpt lat="50.50795535955892" lon="16.02462079999211"><ele>339.5</ele><time>2026-05-02T09:59:56Z</time></trkpt><trkpt lat="50.50807501961937" lon="16.024512786802354"><ele>340.75</ele><time>2026-05-02T09:59:57Z</time></trkpt><trkpt lat="50.50819727455253" lon="16.02436060091325"><ele>342.0</ele><time>2026-05-02T09:59:58Z</time></trkpt><trkpt lat="50.50830270316089" lon="16.024169868293484"><ele>340.6666666666667</ele><time>2026-05-02T09:59:59Z</time></trkpt><trkpt lat="50.50840366915815" lon="16.02396341525617"><ele>339.33333333333337</ele><time>2026-05-02T10:00:00Z</time></trkpt><trkpt lat="50.50851311035249" lon="16.023771395164296"><ele>338.0</ele><time>2026-05-02T10:00:01Z</time></trkpt><trkpt lat="50.50861874476648" lon="16.02360132352357"><ele>338.0</ele><time>2026-05-02T10:00:02Z</time></trkpt><trkpt lat="50.508714055576945" lon="16.02344616872671"><ele>338.0</ele><time>2026-05-02T10:00:03Z</time></trkpt><trkpt lat="50.508815395406806" lon="16.02328249485256"><ele>338.0</ele><time>2026-05-02T10:00:04Z</time></trkpt><trkpt lat="50.50891705829358" lon="16.023119991831933"><ele>338.0</ele><time>2026-05-02T10:00:05Z</time></trkpt><trkpt lat="50.509014984085574" lon="16.0229708524252"><ele>337.75</ele><time>2026-05-02T10:00:06Z</time></trkpt><trkpt lat="50.50911700360897" lon="16.0228308226566"><ele>337.5</ele><time>2026-05-02T10:00:07Z</time></trkpt><trkpt lat="50.50924131541129" lon="16.02270655116567"><ele>337.25</ele><time>2026-05-02T10:00:08Z</time></trkpt><trkpt lat="50.509355866734694" lon="16.022581121546764"><ele>337.0</ele><time>2026-05-02T10:00:09Z</time></trkpt><trkpt lat="50.50946974129709" lon="16.02243492852825"><ele>338.0</ele><time>2026-05-02T10:00:10Z</time></trkpt><trkpt lat="50.50960031581189" lon="16.022320508873783"><ele>339.0</ele><time>2026-05-02T10:00:11Z</time></trkpt><trkpt lat="50.50973326210868" lon="16.022200373228277"><ele>340.0</ele><time>2026-05-02T10:00:12Z</time></trkpt><trkpt lat="50.50986754154701" lon="16.022077389616065"><ele>340.0</ele><time>2026-05-02T10:00:13Z</time></trkpt><trkpt lat="50.509993335621644" lon="16.021955165892923"><ele>340.0</ele><time>2026-05-02T10:00:14Z</time></trkpt><trkpt lat="50.51011286221943" lon="16.021838616830323"><ele>340.0</ele><time>2026-05-02T10:00:15Z</time></trkpt><trkpt lat="50.510236654309" lon="16.021716537867025"><ele>340.0</ele><time>2026-05-02T10:00:16Z</time></trkpt><trkpt lat="50.51036932624044" lon="16.021591387551236"><ele>339.66666666666663</ele><time>2026-05-02T10:00:17Z</time></trkpt><trkpt lat="50.510505766616554" lon="16.02146521776964"><ele>339.3333333333333</ele><time>2026-05-02T10:00:18Z</time></trkpt><trkpt lat="50.510629309956194" lon="16.02133814245546"><ele>339.0</ele><time>2026-05-02T10:00:19Z</time></trkpt><trkpt lat="50.510754772141" lon="16.02120097558244"><ele>339.0</ele><time>2026-05-02T10:00:20Z</time></trkpt><trkpt lat="50.51088581436546" lon="16.021058032132363"><ele>339.0</ele><time>2026-05-02T10:00:21Z</time></trkpt><trkpt lat="50.51101904673494" lon="16.020916138889703"><ele>339.0</ele><time>2026-05-02T10:00:22Z</time></trkpt><trkpt lat="50.51115392983893" lon="16.020786597717215"><ele>339.3333333333333</ele><time>2026-05-02T10:00:23Z</time></trkpt><trkpt lat="50.511294766745856" lon="16.0206592058961"><ele>339.66666666666663</ele><time>2026-05-02T10:00:24Z</time></trkpt><trkpt lat="50.51143827108715" lon="16.020542514490206"><ele>340.0</ele><time>2026-05-02T10:00:25Z</time></trkpt><trkpt lat="50.511594853959835" lon="16.020434295353837"><ele>340.0</ele><time>2026-05-02T10:00:26Z</time></trkpt><trkpt lat="50.511762436220586" lon="16.020332360408165"><ele>340.0</ele><time>2026-05-02T10:00:27Z</time></trkpt><trkpt lat="50.51193151410218" lon="16.02023152151089"><ele>340.0</ele><time>2026-05-02T10:00:28Z</time></trkpt><trkpt lat="50.51210286614256" lon="16.02013396654267"><ele>340.0</ele><time>2026-05-02T10:00:29Z</time></trkpt><trkpt lat="50.512276807958216" lon="16.020032768955318"><ele>340.0</ele><time>2026-05-02T10:00:30Z</time></trkpt><trkpt lat="50.512433181006976" lon="16.019940003222835"><ele>340.0</ele><time>2026-05-02T10:00:31Z</time></trkpt><trkpt lat="50.512573817894385" lon="16.019843246628852"><ele>340.0</ele><time>2026-05-02T10:00:32Z</time></trkpt><trkpt lat="50.5127001180587" lon="16.019745904573664"><ele>340.0</ele><time>2026-05-02T10:00:33Z</time></trkpt><trkpt lat="50.512827189056644" lon="16.019631386869428"><ele>340.0</ele><time>2026-05-02T10:00:34Z</time></trkpt><trkpt lat="50.51296118512647" lon="16.019490422582585"><ele>340.0</ele><time>2026-05-02T10:00:35Z</time></trkpt><trkpt lat="50.513090379674374" lon="16.019329143793733"><ele>340.66666666666663</ele><time>2026-05-02T10:00:36Z</time></trkpt><trkpt lat="50.51320688511005" lon="16.0191727094237"><ele>341.3333333333333</ele><time>2026-05-02T10:00:37Z</time></trkpt><trkpt lat="50.51330927680625" lon="16.01898951281145"><ele>342.0</ele><time>2026-05-02T10:00:38Z</time></trkpt><trkpt lat="50.51341183419093" lon="16.018788849377273"><ele>341.6666666666667</ele><time>2026-05-02T10:00:39Z</time></trkpt><trkpt lat="50.5135110030441" lon="16.018577148277874"><ele>341.33333333333337</ele><time>2026-05-02T10:00:40Z</time></trkpt><trkpt lat="50.5135991449263" lon="16.018347837737572"><ele>341.0</ele><time>2026-05-02T10:00:41Z</time></trkpt><trkpt lat="50.5136656316584" lon="16.018111968004714"><ele>341.0</ele><time>2026-05-02T10:00:42Z</time></trkpt><trkpt lat="50.513725586519385" lon="16.017878858701568"><ele>341.0</ele><time>2026-05-02T10:00:43Z</time></trkpt><trkpt lat="50.513786931820505" lon="16.017636700772584"><ele>341.0</ele><time>2026-05-02T10:00:44Z</time></trkpt><trkpt lat="50.51382787291416" lon="16.017381187192782"><ele>340.6666666666667</ele><time>2026-05-02T10:00:45Z</time></trkpt><trkpt lat="50.51385277937529" lon="16.017132630930686"><ele>340.3333333333333</ele><time>2026-05-02T10:00:46Z</time></trkpt><trkpt lat="50.51388609953236" lon="16.016864155394494"><ele>340.0</ele><time>2026-05-02T10:00:47Z</time></trkpt><trkpt lat="50.51392109047844" lon="16.016592750515116"><ele>340.3333333333333</ele><time>2026-05-02T10:00:48Z</time></trkpt><trkpt lat="50.51395713775287" lon="16.01632218658954"><ele>340.6666666666667</ele><time>2026-05-02T10:00:49Z</time></trkpt><trkpt lat="50.51399603949956" lon="16.016043310065484"><ele>341.0</ele><time>2026-05-02T10:00:50Z</time></trkpt><trkpt lat="50.514030758621175" lon="16.01578489224692"><ele>341.0</ele><time>2026-05-02T10:00:51Z</time></trkpt><trkpt lat="50.514063823223694" lon="16.0155526138875"><ele>341.0</ele><time>2026-05-02T10:00:52Z</time></trkpt><trkpt lat="50.51408998961612" lon="16.01534915515717"><ele>341.0</ele><time>2026-05-02T10:00:53Z</time></trkpt><trkpt lat="50.51411309133899" lon="16.01516323369037"><ele>341.0</ele><time>2026-05-02T10:00:54Z</time></trkpt><trkpt lat="50.514135259083815" lon="16.01498438370415"><ele>341.0</ele><time>2026-05-02T10:00:55Z</time></trkpt><trkpt lat="50.51415967772471" lon="16.0148021673736"><ele>341.0</ele><time>2026-05-02T10:00:56Z</time></trkpt><trkpt lat="50.51418273207258" lon="16.014604672647586"><ele>341.0</ele><time>2026-05-02T10:00:57Z</time></trkpt><trkpt lat="50.51420460648306" lon="16.014411832527255"><ele>341.0</ele><time>2026-05-02T10:00:58Z</time></trkpt><trkpt lat="50.51423061713055" lon="16.014221364307428"><ele>341.0</ele><time>2026-05-02T10:00:59Z</time></trkpt><trkpt lat="50.514262389152954" lon="16.01401808143326"><ele>341.0</ele><time>2026-05-02T10:01:00Z</time></trkpt><trkpt lat="50.5142894493321" lon="16.01380177688189"><ele>341.0</ele><time>2026-05-02T10:01:01Z</time></trkpt><trkpt lat="50.51431757820232" lon="16.013572828711524"><ele>341.0</ele><time>2026-05-02T10:01:02Z</time></trkpt><trkpt lat="50.51434111253223" lon="16.01335329254808"><ele>341.25</ele><time>2026-05-02T10:01:03Z</time></trkpt><trkpt lat="50.514363267976854" lon="16.013135190470862"><ele>341.5</ele><time>2026-05-02T10:01:04Z</time></trkpt><trkpt lat="50.514378551077414" lon="16.01291050885205"><ele>341.75</ele><time>2026-05-02T10:01:05Z</time></trkpt><trkpt lat="50.51438536267426" lon="16.012690563492104"><ele>342.0</ele><time>2026-05-02T10:01:06Z</time></trkpt><trkpt lat="50.514383451540155" lon="16.012486122845107"><ele>342.75</ele><time>2026-05-02T10:01:07Z</time></trkpt><trkpt lat="50.514372501608996" lon="16.012280552369152"><ele>343.5</ele><time>2026-05-02T10:01:08Z</time></trkpt><trkpt lat="50.51435750258469" lon="16.012079536688873"><ele>344.25</ele><time>2026-05-02T10:01:09Z</time></trkpt><trkpt lat="50.51433197432496" lon="16.011879371289453"><ele>345.0</ele><time>2026-05-02T10:01:10Z</time></trkpt><trkpt lat="50.51430208744761" lon="16.011679007933537"><ele>345.25</ele><time>2026-05-02T10:01:11Z</time></trkpt><trkpt lat="50.51427313149146" lon="16.01146672500206"><ele>345.5</ele><time>2026-05-02T10:01:12Z</time></trkpt><trkpt lat="50.51422231989674" lon="16.01123785836606"><ele>345.75</ele><time>2026-05-02T10:01:13Z</time></trkpt><trkpt lat="50.51418434805275" lon="16.011019115145697"><ele>346.0</ele><time>2026-05-02T10:01:14Z</time></trkpt><trkpt lat="50.5141470473383" lon="16.01077583026731"><ele>345.0</ele><time>2026-05-02T10:01:15Z</time></trkpt><trkpt lat="50.51410363277681" lon="16.010534314774787"><ele>344.0</ele><time>2026-05-02T10:01:16Z</time></trkpt><trkpt lat="50.51405941546466" lon="16.01028831323426"><ele>343.0</ele><time>2026-05-02T10:01:17Z</time></trkpt><trkpt lat="50.514018866643724" lon="16.010040785488023"><ele>343.25</ele><time>2026-05-02T10:01:18Z</time></trkpt><trkpt lat="50.51397969295355" lon="16.009811236086115"><ele>343.5</ele><time>2026-05-02T10:01:19Z</time></trkpt><trkpt lat="50.513946595746866" lon="16.009604255014064"><ele>343.75</ele><time>2026-05-02T10:01:20Z</time></trkpt><trkpt lat="50.51391019040843" lon="16.00940488375831"><ele>344.0</ele><time>2026-05-02T10:01:21Z</time></trkpt><trkpt lat="50.513863509828404" lon="16.00917316463425"><ele>344.0</ele><time>2026-05-02T10:01:22Z</time></trkpt><trkpt lat="50.51383504424212" lon="16.00892575775559"><ele>344.0</ele><time>2026-05-02T10:01:23Z</time></trkpt><trkpt lat="50.51379986434996" lon="16.008788697029143"><ele>344.0</ele><time>2026-05-02T10:01:24Z</time></trkpt><trkpt lat="50.51376330847943" lon="16.008594270373443"><ele>344.0</ele><time>2026-05-02T10:01:25Z</time></trkpt><trkpt lat="50.51372887636486" lon="16.00839416197414"><ele>344.25</ele><time>2026-05-02T10:01:26Z</time></trkpt><trkpt lat="50.51370137737223" lon="16.008204144599706"><ele>344.5</ele><time>2026-05-02T10:01:27.001Z</time></trkpt><trkpt lat="50.51366898611524" lon="16.008010228985537"><ele>344.75</ele><time>2026-05-02T10:01:28.001Z</time></trkpt><trkpt lat="50.513638633800504" lon="16.007827601736818"><ele>345.0</ele><time>2026-05-02T10:01:29.001Z</time></trkpt><trkpt lat="50.5136041844673" lon="16.007644703059977"><ele>345.0</ele><time>2026-05-02T10:01:30.001Z</time></trkpt><trkpt lat="50.51356941545529" lon="16.00745643053868"><ele>345.0</ele><time>2026-05-02T10:01:31.001Z</time></trkpt><trkpt lat="50.51353487275124" lon="16.007257554325445"><ele>345.0</ele><time>2026-05-02T10:01:32.001Z</time></trkpt><trkpt lat="50.513498148500574" lon="16.007049242778887"><ele>345.0</ele><time>2026-05-02T10:01:33.001Z</time></trkpt><trkpt lat="50.513462922920034" lon="16.006842863312144"><ele>345.0</ele><time>2026-05-02T10:01:34Z</time></trkpt><trkpt lat="50.51344395603904" lon="16.006651141262356"><ele>345.0</ele><time>2026-05-02T10:01:35Z</time></trkpt><trkpt lat="50.51345140665908" lon="16.006485065588958"><ele>345.0</ele><time>2026-05-02T10:01:36Z</time></trkpt><trkpt lat="50.51335276886538" lon="16.00622805133872"><ele>345.0</ele><time>2026-05-02T10:01:37Z</time></trkpt><trkpt lat="50.51332162219795" lon="16.006040091762074"><ele>345.0</ele><time>2026-05-02T10:01:38Z</time></trkpt><trkpt lat="50.51330309172588" lon="16.005851429330413"><ele>345.0</ele><time>2026-05-02T10:01:39Z</time></trkpt><trkpt lat="50.513274000709906" lon="16.005683269780267"><ele>345.0</ele><time>2026-05-02T10:01:40Z</time></trkpt><trkpt lat="50.513238801680636" lon="16.00555480427389"><ele>345.0</ele><time>2026-05-02T10:01:41Z</time></trkpt><trkpt lat="50.51322083206075" lon="16.005438329903473"><ele>345.0</ele><time>2026-05-02T10:01:42Z</time></trkpt><trkpt lat="50.51320895079568" lon="16.005327451264307"><ele>345.5</ele><time>2026-05-02T10:01:43Z</time></trkpt><trkpt lat="50.51323049070791" lon="16.005177385752297"><ele>346.0</ele><time>2026-05-02T10:01:44Z</time></trkpt><trkpt lat="50.5133250096032" lon="16.005082939535075"><ele>346.5</ele><time>2026-05-02T10:01:45Z</time></trkpt><trkpt lat="50.51342205134179" lon="16.004956638732978"><ele>347.0</ele><time>2026-05-02T10:01:46Z</time></trkpt><trkpt lat="50.51353803549545" lon="16.004828967243657"><ele>346.75</ele><time>2026-05-02T10:01:47Z</time></trkpt><trkpt lat="50.513631868355944" lon="16.004702459934624"><ele>346.5</ele><time>2026-05-02T10:01:48Z</time></trkpt><trkpt lat="50.51373430261473" lon="16.004605289470447"><ele>346.25</ele><time>2026-05-02T10:01:49Z</time></trkpt><trkpt lat="50.51383555869181" lon="16.004519657439324"><ele>346.0</ele><time>2026-05-02T10:01:50Z</time></trkpt><trkpt lat="50.513954410288726" lon="16.004433542725206"><ele>346.0</ele><time>2026-05-02T10:01:51Z</time></trkpt><trkpt lat="50.51408944677009" lon="16.004385838413"><ele>346.0</ele><time>2026-05-02T10:01:52Z</time></trkpt><trkpt lat="50.51422230990331" lon="16.004305201487217"><ele>346.0</ele><time>2026-05-02T10:01:53Z</time></trkpt><trkpt lat="50.51436118296567" lon="16.00425414606258"><ele>346.0</ele><time>2026-05-02T10:01:54Z</time></trkpt><trkpt lat="50.514501078057684" lon="16.004203677317722"><ele>346.5</ele><time>2026-05-02T10:01:55Z</time></trkpt><trkpt lat="50.51464190390939" lon="16.004153103417607"><ele>347.0</ele><time>2026-05-02T10:01:56Z</time></trkpt><trkpt lat="50.51478299273789" lon="16.00411371507345"><ele>347.5</ele><time>2026-05-02T10:01:57Z</time></trkpt><trkpt lat="50.51492916167705" lon="16.004131499414676"><ele>348.0</ele><time>2026-05-02T10:01:58Z</time></trkpt><trkpt lat="50.515084281403475" lon="16.004101305807602"><ele>348.0</ele><time>2026-05-02T10:01:59Z</time></trkpt><trkpt lat="50.5152472564101" lon="16.004116718950147"><ele>348.0</ele><time>2026-05-02T10:02:00Z</time></trkpt><trkpt lat="50.515401159267924" lon="16.004119515582023"><ele>348.0</ele><time>2026-05-02T10:02:01Z</time></trkpt><trkpt lat="50.51553952900986" lon="16.004111940255765"><ele>348.25</ele><time>2026-05-02T10:02:02Z</time></trkpt><trkpt lat="50.51567903561584" lon="16.004119351595747"><ele>348.5</ele><time>2026-05-02T10:02:03Z</time></trkpt><trkpt lat="50.51582906675989" lon="16.004137897240817"><ele>348.75</ele><time>2026-05-02T10:02:04Z</time></trkpt><trkpt lat="50.51598617054109" lon="16.00416185004246"><ele>349.0</ele><time>2026-05-02T10:02:05Z</time></trkpt><trkpt lat="50.51614661808645" lon="16.0041856033913"><ele>349.66666666666663</ele><time>2026-05-02T10:02:06Z</time></trkpt><trkpt lat="50.516312331069436" lon="16.004212561497045"><ele>350.3333333333333</ele><time>2026-05-02T10:02:07Z</time></trkpt><trkpt lat="50.51647865979344" lon="16.00424540728743"><ele>351.0</ele><time>2026-05-02T10:02:08Z</time></trkpt><trkpt lat="50.51663786974187" lon="16.0042817199366"><ele>351.0</ele><time>2026-05-02T10:02:09Z</time></trkpt><trkpt lat="50.516780014166834" lon="16.00432215505745"><ele>351.0</ele><time>2026-05-02T10:02:10Z</time></trkpt><trkpt lat="50.51691276608717" lon="16.00437374229011"><ele>351.0</ele><time>2026-05-02T10:02:11Z</time></trkpt><trkpt lat="50.51705908880995" lon="16.004436328901495"><ele>351.0</ele><time>2026-05-02T10:02:12Z</time></trkpt><trkpt lat="50.51720481182699" lon="16.00452344393277"><ele>349.6666666666667</ele><time>2026-05-02T10:02:13Z</time></trkpt><trkpt lat="50.51735755533735" lon="16.004593328116417"><ele>348.33333333333337</ele><time>2026-05-02T10:02:14Z</time></trkpt><trkpt lat="50.517518123458906" lon="16.004646245031473"><ele>347.0</ele><time>2026-05-02T10:02:15Z</time></trkpt><trkpt lat="50.51767364771347" lon="16.004724328321736"><ele>347.0</ele><time>2026-05-02T10:02:16Z</time></trkpt><trkpt lat="50.5178195074833" lon="16.004789967052616"><ele>347.0</ele><time>2026-05-02T10:02:17Z</time></trkpt><trkpt lat="50.51796126227244" lon="16.00485806090154"><ele>347.0</ele><time>2026-05-02T10:02:18Z</time></trkpt><trkpt lat="50.51809725674287" lon="16.00492800657107"><ele>347.0</ele><time>2026-05-02T10:02:19Z</time></trkpt><trkpt lat="50.51823058135144" lon="16.005000838974855"><ele>350.0</ele><time>2026-05-02T10:02:20Z</time></trkpt><trkpt lat="50.51835095561008" lon="16.00510326381677"><ele>353.0</ele><time>2026-05-02T10:02:21Z</time></trkpt><trkpt lat="50.51846999011838" lon="16.005180858877882"><ele>356.0</ele><time>2026-05-02T10:02:22Z</time></trkpt><trkpt lat="50.51858093252009" lon="16.005253344028635"><ele>359.0</ele><time>2026-05-02T10:02:23Z</time></trkpt><trkpt lat="50.51869801835471" lon="16.00531106333541"><ele>356.75</ele><time>2026-05-02T10:02:24Z</time></trkpt><trkpt lat="50.51881410621559" lon="16.005377250676982"><ele>354.5</ele><time>2026-05-02T10:02:25Z</time></trkpt><trkpt lat="50.51893566624571" lon="16.005404636991624"><ele>352.25</ele><time>2026-05-02T10:02:26Z</time></trkpt><trkpt lat="50.519063181549996" lon="16.005387305501426"><ele>350.0</ele><time>2026-05-02T10:02:27Z</time></trkpt><trkpt lat="50.519192046451984" lon="16.0053273477158"><ele>350.0</ele><time>2026-05-02T10:02:28Z</time></trkpt><trkpt lat="50.51932780705879" lon="16.005280706488296"><ele>350.0</ele><time>2026-05-02T10:02:29Z</time></trkpt><trkpt lat="50.519465724174374" lon="16.005218256382076"><ele>350.0</ele><time>2026-05-02T10:02:30Z</time></trkpt><trkpt lat="50.51960329494028" lon="16.005134945012877"><ele>350.0</ele><time>2026-05-02T10:02:31Z</time></trkpt><trkpt lat="50.51973490351267" lon="16.004980870764808"><ele>348.6666666666667</ele><time>2026-05-02T10:02:32Z</time></trkpt><trkpt lat="50.51986608697484" lon="16.0048198752611"><ele>347.3333333333333</ele><time>2026-05-02T10:02:33Z</time></trkpt><trkpt lat="50.51998783397616" lon="16.004644591890095"><ele>346.0</ele><time>2026-05-02T10:02:34Z</time></trkpt><trkpt lat="50.5200998023896" lon="16.004488102499955"><ele>346.0</ele><time>2026-05-02T10:02:35Z</time></trkpt><trkpt lat="50.52020136692803" lon="16.004345528681657"><ele>346.0</ele><time>2026-05-02T10:02:36Z</time></trkpt><trkpt lat="50.52031174954978" lon="16.0042193129245"><ele>346.0</ele><time>2026-05-02T10:02:37Z</time></trkpt><trkpt lat="50.52041312953805" lon="16.004080283878512"><ele>346.0</ele><time>2026-05-02T10:02:38Z</time></trkpt><trkpt lat="50.5205000106844" lon="16.00392484726013"><ele>346.0</ele><time>2026-05-02T10:02:39Z</time></trkpt><trkpt lat="50.52060179493678" lon="16.003794017150113"><ele>346.0</ele><time>2026-05-02T10:02:40Z</time></trkpt><trkpt lat="50.52070490942215" lon="16.00366739112395"><ele>346.0</ele><time>2026-05-02T10:02:41Z</time></trkpt><trkpt lat="50.52081038947263" lon="16.00354178085197"><ele>346.0</ele><time>2026-05-02T10:02:42Z</time></trkpt><trkpt lat="50.52091534198531" lon="16.003417448202853"><ele>346.0</ele><time>2026-05-02T10:02:43Z</time></trkpt><trkpt lat="50.52102339183894" lon="16.00329418483033"><ele>346.0</ele><time>2026-05-02T10:02:44Z</time></trkpt><trkpt lat="50.52112797596558" lon="16.003161819396716"><ele>346.0</ele><time>2026-05-02T10:02:45Z</time></trkpt><trkpt lat="50.521244821118366" lon="16.003044815366604"><ele>346.0</ele><time>2026-05-02T10:02:46Z</time></trkpt><trkpt lat="50.52134837253964" lon="16.002896927917423"><ele>346.0</ele><time>2026-05-02T10:02:47Z</time></trkpt><trkpt lat="50.52145858827359" lon="16.0027679560803"><ele>346.0</ele><time>2026-05-02T10:02:48Z</time></trkpt><trkpt lat="50.52156346084709" lon="16.002629434938125"><ele>346.0</ele><time>2026-05-02T10:02:49Z</time></trkpt><trkpt lat="50.52167494621783" lon="16.002507791459237"><ele>346.0</ele><time>2026-05-02T10:02:50Z</time></trkpt><trkpt lat="50.521774993118356" lon="16.00233441857263"><ele>346.0</ele><time>2026-05-02T10:02:51Z</time></trkpt><trkpt lat="50.52187380892117" lon="16.002184772112972"><ele>346.0</ele><time>2026-05-02T10:02:52Z</time></trkpt><trkpt lat="50.52196426583084" lon="16.002037276476965"><ele>346.0</ele><time>2026-05-02T10:02:53Z</time></trkpt><trkpt lat="50.5220522447509" lon="16.001894690402228"><ele>346.0</ele><time>2026-05-02T10:02:54Z</time></trkpt><trkpt lat="50.522138848332766" lon="16.001749829405632"><ele>346.25</ele><time>2026-05-02T10:02:55Z</time></trkpt><trkpt lat="50.52222505628581" lon="16.00160327061722"><ele>346.5</ele><time>2026-05-02T10:02:56Z</time></trkpt><trkpt lat="50.52232109845674" lon="16.001450287564584"><ele>346.75</ele><time>2026-05-02T10:02:57Z</time></trkpt><trkpt lat="50.52241990169147" lon="16.0012726616302"><ele>347.0</ele><time>2026-05-02T10:02:58Z</time></trkpt><trkpt lat="50.52251310801103" lon="16.001081101681237"><ele>347.0</ele><time>2026-05-02T10:02:59Z</time></trkpt><trkpt lat="50.522608479610845" lon="16.00088384136702"><ele>347.0</ele><time>2026-05-02T10:03:00Z</time></trkpt><trkpt lat="50.52269136133673" lon="16.00069288767032"><ele>347.0</ele><time>2026-05-02T10:03:01Z</time></trkpt><trkpt lat="50.522764593770084" lon="16.00051593772283"><ele>347.0</ele><time>2026-05-02T10:03:02Z</time></trkpt><trkpt lat="50.522830530906894" lon="16.00035629088558"><ele>347.25</ele><time>2026-05-02T10:03:03Z</time></trkpt><trkpt lat="50.52290136234647" lon="16.000190511201495"><ele>347.5</ele><time>2026-05-02T10:03:04Z</time></trkpt><trkpt lat="50.522973182653175" lon="16.00001272278097"><ele>347.75</ele><time>2026-05-02T10:03:05Z</time></trkpt><trkpt lat="50.523042949955396" lon="15.999824240789167"><ele>348.0</ele><time>2026-05-02T10:03:06Z</time></trkpt><trkpt lat="50.523103804241835" lon="15.999625470263148"><ele>348.0</ele><time>2026-05-02T10:03:07Z</time></trkpt><trkpt lat="50.52315923114999" lon="15.999439062829973"><ele>348.0</ele><time>2026-05-02T10:03:08Z</time></trkpt><trkpt lat="50.52320871745069" lon="15.99927516517996"><ele>348.0</ele><time>2026-05-02T10:03:09Z</time></trkpt><trkpt lat="50.5232430802372" lon="15.999120697026955"><ele>348.0</ele><time>2026-05-02T10:03:10Z</time></trkpt><trkpt lat="50.52327241432447" lon="15.99897487842261"><ele>348.0</ele><time>2026-05-02T10:03:11Z</time></trkpt><trkpt lat="50.523303341400045" lon="15.998830215257579"><ele>348.25</ele><time>2026-05-02T10:03:12Z</time></trkpt><trkpt lat="50.52332577445302" lon="15.998660543499215"><ele>348.5</ele><time>2026-05-02T10:03:13Z</time></trkpt><trkpt lat="50.52334098366802" lon="15.998470388885218"><ele>348.75</ele><time>2026-05-02T10:03:14Z</time></trkpt><trkpt lat="50.52336808978988" lon="15.99827769853771"><ele>349.0</ele><time>2026-05-02T10:03:15Z</time></trkpt><trkpt lat="50.5234232997361" lon="15.998091120167993"><ele>349.25</ele><time>2026-05-02T10:03:16Z</time></trkpt><trkpt lat="50.5235067597105" lon="15.997905619085067"><ele>349.5</ele><time>2026-05-02T10:03:17Z</time></trkpt><trkpt lat="50.52360119839621" lon="15.99773948204984"><ele>349.75</ele><time>2026-05-02T10:03:18Z</time></trkpt><trkpt lat="50.52371394598284" lon="15.997564847592976"><ele>350.0</ele><time>2026-05-02T10:03:19Z</time></trkpt><trkpt lat="50.52382792093783" lon="15.997412239830316"><ele>350.0</ele><time>2026-05-02T10:03:20Z</time></trkpt><trkpt lat="50.523931356944644" lon="15.99727175532508"><ele>350.0</ele><time>2026-05-02T10:03:21Z</time></trkpt><trkpt lat="50.524024124913616" lon="15.99715248008838"><ele>350.0</ele><time>2026-05-02T10:03:22Z</time></trkpt><trkpt lat="50.52411474412756" lon="15.997049953815587"><ele>350.0</ele><time>2026-05-02T10:03:23Z</time></trkpt><trkpt lat="50.52421561361857" lon="15.99695725808954"><ele>350.0</ele><time>2026-05-02T10:03:24Z</time></trkpt><trkpt lat="50.52433001230929" lon="15.996874063785922"><ele>350.0</ele><time>2026-05-02T10:03:25Z</time></trkpt><trkpt lat="50.52445716508556" lon="15.996806911108088"><ele>350.0</ele><time>2026-05-02T10:03:26Z</time></trkpt><trkpt lat="50.52459109537795" lon="15.996773995610868"><ele>350.0</ele><time>2026-05-02T10:03:27Z</time></trkpt><trkpt lat="50.52472639958228" lon="15.996785697093326"><ele>350.75</ele><time>2026-05-02T10:03:28Z</time></trkpt><trkpt lat="50.52486411259174" lon="15.99676623377572"><ele>351.5</ele><time>2026-05-02T10:03:29Z</time></trkpt><trkpt lat="50.52500295118313" lon="15.996782307398286"><ele>352.25</ele><time>2026-05-02T10:03:30Z</time></trkpt><trkpt lat="50.5251471239222" lon="15.996836802489122"><ele>353.0</ele><time>2026-05-02T10:03:31Z</time></trkpt><trkpt lat="50.52529663193808" lon="15.996879474713854"><ele>354.33333333333337</ele><time>2026-05-02T10:03:32Z</time></trkpt><trkpt lat="50.52545269798538" lon="15.996905596624629"><ele>355.6666666666667</ele><time>2026-05-02T10:03:33Z</time></trkpt><trkpt lat="50.52561201895328" lon="15.996962087896337"><ele>357.0</ele><time>2026-05-02T10:03:34Z</time></trkpt><trkpt lat="50.5257706501476" lon="15.997012950136646"><ele>357.0</ele><time>2026-05-02T10:03:35Z</time></trkpt><trkpt lat="50.525929013084045" lon="15.997064406768505"><ele>357.0</ele><time>2026-05-02T10:03:36Z</time></trkpt><trkpt lat="50.52608329461115" lon="15.997142333989276"><ele>357.0</ele><time>2026-05-02T10:03:37Z</time></trkpt><trkpt lat="50.52624457332695" lon="15.997161916233654"><ele>357.3333333333333</ele><time>2026-05-02T10:03:38Z</time></trkpt><trkpt lat="50.52639898180515" lon="15.997202672580292"><ele>357.66666666666663</ele><time>2026-05-02T10:03:39Z</time></trkpt><trkpt lat="50.52655084934406" lon="15.997236532488913"><ele>358.0</ele><time>2026-05-02T10:03:40Z</time></trkpt><trkpt lat="50.52670230784594" lon="15.997277012925064"><ele>358.0</ele><time>2026-05-02T10:03:41Z</time></trkpt><trkpt lat="50.52685867912333" lon="15.997324465101151"><ele>358.0</ele><time>2026-05-02T10:03:42Z</time></trkpt><trkpt lat="50.527013725840916" lon="15.99738575938672"><ele>358.0</ele><time>2026-05-02T10:03:43Z</time></trkpt><trkpt lat="50.527167846088304" lon="15.997454687346517"><ele>360.5</ele><time>2026-05-02T10:03:44Z</time></trkpt><trkpt lat="50.52730987994709" lon="15.997526937128107"><ele>363.0</ele><time>2026-05-02T10:03:45Z</time></trkpt><trkpt lat="50.52744417245583" lon="15.997587606447961"><ele>365.5</ele><time>2026-05-02T10:03:46Z</time></trkpt><trkpt lat="50.52757373339395" lon="15.997638485185862"><ele>368.0</ele><time>2026-05-02T10:03:47Z</time></trkpt><trkpt lat="50.52769602621612" lon="15.997681396924373"><ele>368.0</ele><time>2026-05-02T10:03:48Z</time></trkpt><trkpt lat="50.52781600612844" lon="15.997708566635671"><ele>368.0</ele><time>2026-05-02T10:03:49Z</time></trkpt><trkpt lat="50.52794441750065" lon="15.997711365999624"><ele>368.0</ele><time>2026-05-02T10:03:50Z</time></trkpt><trkpt lat="50.52808386832573" lon="15.997687557615908"><ele>368.0</ele><time>2026-05-02T10:03:51Z</time></trkpt><trkpt lat="50.52823328606738" lon="15.997649673766183"><ele>367.0</ele><time>2026-05-02T10:03:52Z</time></trkpt><trkpt lat="50.52838366685381" lon="15.997617994271744"><ele>366.0</ele><time>2026-05-02T10:03:53Z</time></trkpt><trkpt lat="50.52853665022482" lon="15.997616659360704"><ele>365.0</ele><time>2026-05-02T10:03:54Z</time></trkpt><trkpt lat="50.528685121265006" lon="15.997655138414892"><ele>362.25</ele><time>2026-05-02T10:03:55Z</time></trkpt><trkpt lat="50.52882926808897" lon="15.997710335725458"><ele>359.5</ele><time>2026-05-02T10:03:56Z</time></trkpt><trkpt lat="50.5289703980032" lon="15.99778802673937"><ele>356.75</ele><time>2026-05-02T10:03:57Z</time></trkpt><trkpt lat="50.529106885511375" lon="15.997882068145177"><ele>354.0</ele><time>2026-05-02T10:03:58Z</time></trkpt><trkpt lat="50.52923370872626" lon="15.997984102380375"><ele>354.0</ele><time>2026-05-02T10:03:59Z</time></trkpt><trkpt lat="50.52934834026536" lon="15.998087401062573"><ele>354.0</ele><time>2026-05-02T10:04:00Z</time></trkpt><trkpt lat="50.529453519373035" lon="15.998178729449478"><ele>354.0</ele><time>2026-05-02T10:04:01Z</time></trkpt><trkpt lat="50.52955180744209" lon="15.998259093075681"><ele>354.0</ele><time>2026-05-02T10:04:02Z</time></trkpt><trkpt lat="50.529648478047704" lon="15.998348687782334"><ele>355.0</ele><time>2026-05-02T10:04:03Z</time></trkpt><trkpt lat="50.529748732247455" lon="15.998437819187938"><ele>356.0</ele><time>2026-05-02T10:04:04Z</time></trkpt><trkpt lat="50.529846821693184" lon="15.99853788232146"><ele>357.0</ele><time>2026-05-02T10:04:05Z</time></trkpt><trkpt lat="50.52994683988317" lon="15.998642089013572"><ele>358.0</ele><time>2026-05-02T10:04:06Z</time></trkpt><trkpt lat="50.5300479797385" lon="15.99874008458667"><ele>358.0</ele><time>2026-05-02T10:04:07Z</time></trkpt><trkpt lat="50.53014752085128" lon="15.998849048949113"><ele>358.0</ele><time>2026-05-02T10:04:08Z</time></trkpt><trkpt lat="50.53024639126313" lon="15.998968956373103"><ele>358.0</ele><time>2026-05-02T10:04:09Z</time></trkpt><trkpt lat="50.53035261134747" lon="15.999103019651159"><ele>358.0</ele><time>2026-05-02T10:04:10Z</time></trkpt><trkpt lat="50.53046460387438" lon="15.99923467707689"><ele>358.5</ele><time>2026-05-02T10:04:11Z</time></trkpt><trkpt lat="50.530571678767494" lon="15.999363418175705"><ele>359.0</ele><time>2026-05-02T10:04:12Z</time></trkpt><trkpt lat="50.530684244008775" lon="15.999484654704725"><ele>359.5</ele><time>2026-05-02T10:04:13Z</time></trkpt><trkpt lat="50.53081799683982" lon="15.99965593462348"><ele>360.0</ele><time>2026-05-02T10:04:14Z</time></trkpt><trkpt lat="50.53094191035053" lon="15.999807884056207"><ele>360.0</ele><time>2026-05-02T10:04:15Z</time></trkpt><trkpt lat="50.53107523778054" lon="15.999940648189408"><ele>360.0</ele><time>2026-05-02T10:04:16Z</time></trkpt><trkpt lat="50.53120754198363" lon="16.00006462808189"><ele>360.0</ele><time>2026-05-02T10:04:17Z</time></trkpt><trkpt lat="50.531339870947285" lon="16.000183694133614"><ele>359.3333333333333</ele><time>2026-05-02T10:04:18Z</time></trkpt><trkpt lat="50.531472005526076" lon="16.0002948603596"><ele>358.66666666666663</ele><time>2026-05-02T10:04:19Z</time></trkpt><trkpt lat="50.531614564746086" lon="16.000400009392212"><ele>358.0</ele><time>2026-05-02T10:04:20Z</time></trkpt><trkpt lat="50.53174872939905" lon="16.00048935459532"><ele>358.0</ele><time>2026-05-02T10:04:21Z</time></trkpt><trkpt lat="50.53187360160235" lon="16.000566505478538"><ele>358.0</ele><time>2026-05-02T10:04:22Z</time></trkpt><trkpt lat="50.53200043590445" lon="16.00061712773802"><ele>358.0</ele><time>2026-05-02T10:04:23Z</time></trkpt><trkpt lat="50.53211018516863" lon="16.000685956239113"><ele>358.0</ele><time>2026-05-02T10:04:24Z</time></trkpt><trkpt lat="50.53222073209334" lon="16.0007392293456"><ele>357.59999999999997</ele><time>2026-05-02T10:04:25Z</time></trkpt><trkpt lat="50.53231565066572" lon="16.000784968906533"><ele>357.2</ele><time>2026-05-02T10:04:26Z</time></trkpt><trkpt lat="50.5324067583476" lon="16.00082830379384"><ele>356.8</ele><time>2026-05-02T10:04:27Z</time></trkpt><trkpt lat="50.532492534394535" lon="16.000867828516622"><ele>356.4</ele><time>2026-05-02T10:04:28Z</time></trkpt><trkpt lat="50.53259021524493" lon="16.000911385605278"><ele>356.0</ele><time>2026-05-02T10:04:29Z</time></trkpt><trkpt lat="50.5326891677832" lon="16.000954144297285"><ele>358.75</ele><time>2026-05-02T10:04:30Z</time></trkpt><trkpt lat="50.53279665023279" lon="16.000997941853406"><ele>361.5</ele><time>2026-05-02T10:04:31Z</time></trkpt><trkpt lat="50.532910342106874" lon="16.00103928423993"><ele>364.25</ele><time>2026-05-02T10:04:32Z</time></trkpt><trkpt lat="50.53303172154386" lon="16.001072615444397"><ele>367.0</ele><time>2026-05-02T10:04:33Z</time></trkpt><trkpt lat="50.53316054020682" lon="16.001073740433785"><ele>367.5</ele><time>2026-05-02T10:04:34Z</time></trkpt><trkpt lat="50.533297068481396" lon="16.00111210013533"><ele>368.0</ele><time>2026-05-02T10:04:35Z</time></trkpt><trkpt lat="50.53341591782518" lon="16.001099143791247"><ele>368.5</ele><time>2026-05-02T10:04:36Z</time></trkpt><trkpt lat="50.533529482076055" lon="16.001103014249335"><ele>369.0</ele><time>2026-05-02T10:04:37Z</time></trkpt><trkpt lat="50.5336584838592" lon="16.001071679430776"><ele>369.75</ele><time>2026-05-02T10:04:38Z</time></trkpt><trkpt lat="50.53380231637347" lon="16.00105420406053"><ele>370.5</ele><time>2026-05-02T10:04:39Z</time></trkpt><trkpt lat="50.53394252165474" lon="16.00098342097213"><ele>371.25</ele><time>2026-05-02T10:04:40Z</time></trkpt><trkpt lat="50.53408969251562" lon="16.000929011899604"><ele>372.0</ele><time>2026-05-02T10:04:41Z</time></trkpt><trkpt lat="50.53423453173154" lon="16.000873808567533"><ele>369.5</ele><time>2026-05-02T10:04:42Z</time></trkpt><trkpt lat="50.5343812739404" lon="16.000803390186164"><ele>367.0</ele><time>2026-05-02T10:04:43Z</time></trkpt><trkpt lat="50.53452490482343" lon="16.000726495899926"><ele>364.5</ele><time>2026-05-02T10:04:44Z</time></trkpt><trkpt lat="50.53465398056239" lon="16.000647712364117"><ele>362.0</ele><time>2026-05-02T10:04:45Z</time></trkpt><trkpt lat="50.534776645577566" lon="16.000554155696694"><ele>362.0</ele><time>2026-05-02T10:04:46Z</time></trkpt><trkpt lat="50.53489123279098" lon="16.000443928406774"><ele>362.0</ele><time>2026-05-02T10:04:47Z</time></trkpt><trkpt lat="50.53500341415379" lon="16.000316233544098"><ele>362.0</ele><time>2026-05-02T10:04:48Z</time></trkpt><trkpt lat="50.535117755684325" lon="16.00017674769921"><ele>362.0</ele><time>2026-05-02T10:04:49Z</time></trkpt><trkpt lat="50.53522484069958" lon="16.000019126924514"><ele>362.0</ele><time>2026-05-02T10:04:50Z</time></trkpt><trkpt lat="50.53531391764326" lon="15.99987133456924"><ele>362.0</ele><time>2026-05-02T10:04:51Z</time></trkpt><trkpt lat="50.53538337989261" lon="15.999703899422338"><ele>362.0</ele><time>2026-05-02T10:04:52Z</time></trkpt><trkpt lat="50.535440503609976" lon="15.999509069096774"><ele>362.0</ele><time>2026-05-02T10:04:53Z</time></trkpt><trkpt lat="50.53549613216747" lon="15.999324664798724"><ele>362.5</ele><time>2026-05-02T10:04:54Z</time></trkpt><trkpt lat="50.535537560698025" lon="15.999130330440382"><ele>363.0</ele><time>2026-05-02T10:04:55Z</time></trkpt><trkpt lat="50.53556279984097" lon="15.998943137718005"><ele>363.5</ele><time>2026-05-02T10:04:56Z</time></trkpt><trkpt lat="50.53558008802212" lon="15.998735970114852"><ele>364.0</ele><time>2026-05-02T10:04:57Z</time></trkpt><trkpt lat="50.53558098513714" lon="15.998542575088274"><ele>364.0</ele><time>2026-05-02T10:04:58Z</time></trkpt><trkpt lat="50.53557236692189" lon="15.998340513917165"><ele>364.0</ele><time>2026-05-02T10:04:59Z</time></trkpt><trkpt lat="50.535545209358084" lon="15.998107273250062"><ele>364.0</ele><time>2026-05-02T10:05:00Z</time></trkpt><trkpt lat="50.535508789959394" lon="15.997834079488541"><ele>364.3333333333333</ele><time>2026-05-02T10:05:01Z</time></trkpt><trkpt lat="50.53548289207175" lon="15.997552696683345"><ele>364.6666666666667</ele><time>2026-05-02T10:05:02Z</time></trkpt><trkpt lat="50.53544965358836" lon="15.997258507972084"><ele>365.0</ele><time>2026-05-02T10:05:03Z</time></trkpt><trkpt lat="50.53540894089761" lon="15.996923805766228"><ele>372.0</ele><time>2026-05-02T10:05:04Z</time></trkpt><trkpt lat="50.53536204404846" lon="15.99654199825325"><ele>379.0</ele><time>2026-05-02T10:05:05Z</time></trkpt><trkpt lat="50.535306295601394" lon="15.996159883984573"><ele>377.5</ele><time>2026-05-02T10:05:06Z</time></trkpt><trkpt lat="50.53524185606921" lon="15.995794965824954"><ele>376.0</ele><time>2026-05-02T10:05:07Z</time></trkpt><trkpt lat="50.535178269083154" lon="15.99547662427634"><ele>376.0</ele><time>2026-05-02T10:05:08Z</time></trkpt><trkpt lat="50.53512841017567" lon="15.995223120647132"><ele>376.0</ele><time>2026-05-02T10:05:09Z</time></trkpt><trkpt lat="50.53507792221424" lon="15.99498564514792"><ele>376.0</ele><time>2026-05-02T10:05:10Z</time></trkpt><trkpt lat="50.5350388258394" lon="15.994760649409617"><ele>373.3333333333333</ele><time>2026-05-02T10:05:11Z</time></trkpt><trkpt lat="50.53500208673965" lon="15.994531071324579"><ele>370.6666666666667</ele><time>2026-05-02T10:05:12Z</time></trkpt><trkpt lat="50.53497368687453" lon="15.994276510801217"><ele>368.0</ele><time>2026-05-02T10:05:13Z</time></trkpt><trkpt lat="50.534961735311725" lon="15.993996730289654"><ele>366.33333333333337</ele><time>2026-05-02T10:05:14Z</time></trkpt><trkpt lat="50.53495422470952" lon="15.993708617866483"><ele>364.6666666666667</ele><time>2026-05-02T10:05:15Z</time></trkpt><trkpt lat="50.534936626487166" lon="15.993406132601162"><ele>363.0</ele><time>2026-05-02T10:05:16Z</time></trkpt><trkpt lat="50.53490386988433" lon="15.993089462273632"><ele>361.6666666666667</ele><time>2026-05-02T10:05:17Z</time></trkpt><trkpt lat="50.53485855074247" lon="15.992761753291335"><ele>360.33333333333337</ele><time>2026-05-02T10:05:18Z</time></trkpt><trkpt lat="50.53480550276028" lon="15.99243539473178"><ele>359.0</ele><time>2026-05-02T10:05:19Z</time></trkpt><trkpt lat="50.53474472420277" lon="15.992111765978297"><ele>359.0</ele><time>2026-05-02T10:05:20Z</time></trkpt><trkpt lat="50.53467797042326" lon="15.99179391043514"><ele>359.0</ele><time>2026-05-02T10:05:21Z</time></trkpt><trkpt lat="50.53461275413324" lon="15.991501369865416"><ele>359.0</ele><time>2026-05-02T10:05:22Z</time></trkpt><trkpt lat="50.53456564187687" lon="15.991206114522702"><ele>359.33333333333337</ele><time>2026-05-02T10:05:23Z</time></trkpt><trkpt lat="50.53454276920142" lon="15.990877629478963"><ele>359.6666666666667</ele><time>2026-05-02T10:05:24Z</time></trkpt><trkpt lat="50.53457848510725" lon="15.990537849099857"><ele>360.0</ele><time>2026-05-02T10:05:25Z</time></trkpt><trkpt lat="50.534641795534476" lon="15.990179904346341"><ele>358.5</ele><time>2026-05-02T10:05:26Z</time></trkpt><trkpt lat="50.53472717626786" lon="15.989808897391264"><ele>357.0</ele><time>2026-05-02T10:05:27Z</time></trkpt><trkpt lat="50.53481716363696" lon="15.989414602976124"><ele>357.5</ele><time>2026-05-02T10:05:28Z</time></trkpt><trkpt lat="50.53492895665853" lon="15.989011473156113"><ele>358.0</ele><time>2026-05-02T10:05:29Z</time></trkpt><trkpt lat="50.53503375039785" lon="15.988628816468694"><ele>359.0</ele><time>2026-05-02T10:05:30Z</time></trkpt><trkpt lat="50.53512816946321" lon="15.988278271928754"><ele>360.0</ele><time>2026-05-02T10:05:31Z</time></trkpt><trkpt lat="50.53522288995386" lon="15.987935517151652"><ele>360.0</ele><time>2026-05-02T10:05:32Z</time></trkpt><trkpt lat="50.535324627400634" lon="15.987588233074232"><ele>360.0</ele><time>2026-05-02T10:05:33Z</time></trkpt><trkpt lat="50.53541838308753" lon="15.98727033935726"><ele>364.0</ele><time>2026-05-02T10:05:34Z</time></trkpt><trkpt lat="50.53550596017916" lon="15.98698396518427"><ele>368.0</ele><time>2026-05-02T10:05:35Z</time></trkpt><trkpt lat="50.53559482740363" lon="15.986713789270194"><ele>372.0</ele><time>2026-05-02T10:05:36Z</time></trkpt><trkpt lat="50.535691121628204" lon="15.9864443887442"><ele>372.0</ele><time>2026-05-02T10:05:37Z</time></trkpt><trkpt lat="50.53580203965861" lon="15.986173054576298"><ele>372.0</ele><time>2026-05-02T10:05:38Z</time></trkpt><trkpt lat="50.535953770101514" lon="15.985912151127856"><ele>372.0</ele><time>2026-05-02T10:05:39Z</time></trkpt><trkpt lat="50.536105583157685" lon="15.985623740939923"><ele>376.5</ele><time>2026-05-02T10:05:40Z</time></trkpt><trkpt lat="50.53627834473166" lon="15.985368594907056"><ele>381.0</ele><time>2026-05-02T10:05:41Z</time></trkpt><trkpt lat="50.536452715547625" lon="15.985107833224971"><ele>377.0</ele><time>2026-05-02T10:05:42Z</time></trkpt><trkpt lat="50.53663870567602" lon="15.984855068766452"><ele>373.0</ele><time>2026-05-02T10:05:43Z</time></trkpt><trkpt lat="50.536836035930214" lon="15.984608758988932"><ele>373.0</ele><time>2026-05-02T10:05:44Z</time></trkpt><trkpt lat="50.53704404385486" lon="15.984387620144282"><ele>373.0</ele><time>2026-05-02T10:05:45Z</time></trkpt><trkpt lat="50.53726936596818" lon="15.984213167447617"><ele>375.0</ele><time>2026-05-02T10:05:46Z</time></trkpt><trkpt lat="50.53747716177642" lon="15.984023053015928"><ele>377.0</ele><time>2026-05-02T10:05:47Z</time></trkpt><trkpt lat="50.53771123038192" lon="15.98386233035752"><ele>386.0</ele><time>2026-05-02T10:05:48Z</time></trkpt><trkpt lat="50.5379578682913" lon="15.983681380246873"><ele>395.0</ele><time>2026-05-02T10:05:49Z</time></trkpt><trkpt lat="50.53822572212165" lon="15.983492765006226"><ele>384.0</ele><time>2026-05-02T10:05:50Z</time></trkpt><trkpt lat="50.53848325771519" lon="15.983322858055514"><ele>373.0</ele><time>2026-05-02T10:05:51Z</time></trkpt><trkpt lat="50.538697594598545" lon="15.983174813831628"><ele>379.3333333333333</ele><time>2026-05-02T10:05:52Z</time></trkpt><trkpt lat="50.538898234132176" lon="15.98304923393109"><ele>385.66666666666663</ele><time>2026-05-02T10:05:53Z</time></trkpt><trkpt lat="50.53909176625726" lon="15.982934974935233"><ele>392.0</ele><time>2026-05-02T10:05:54Z</time></trkpt><trkpt lat="50.539276106608355" lon="15.982823078868115"><ele>392.0</ele><time>2026-05-02T10:05:55Z</time></trkpt><trkpt lat="50.5394624117948" lon="15.982711235478215"><ele>392.0</ele><time>2026-05-02T10:05:56Z</time></trkpt><trkpt lat="50.539653349444016" lon="15.982579598029966"><ele>392.0</ele><time>2026-05-02T10:05:57Z</time></trkpt><trkpt lat="50.53984411118536" lon="15.982424794332355"><ele>390.3333333333333</ele><time>2026-05-02T10:05:58Z</time></trkpt><trkpt lat="50.540024690385266" lon="15.982242794590718"><ele>388.66666666666663</ele><time>2026-05-02T10:05:59Z</time></trkpt><trkpt lat="50.54019131715835" lon="15.982032012571322"><ele>387.0</ele><time>2026-05-02T10:06:00Z</time></trkpt><trkpt lat="50.54033604252688" lon="15.981823776180354"><ele>388.66666666666663</ele><time>2026-05-02T10:06:01Z</time></trkpt><trkpt lat="50.54046925655357" lon="15.98163801785378"><ele>390.3333333333333</ele><time>2026-05-02T10:06:02Z</time></trkpt><trkpt lat="50.54057515060655" lon="15.981436887052848"><ele>392.0</ele><time>2026-05-02T10:06:03Z</time></trkpt><trkpt lat="50.540660300467216" lon="15.981199937281142"><ele>392.0</ele><time>2026-05-02T10:06:04Z</time></trkpt><trkpt lat="50.540752053801725" lon="15.98096843110262"><ele>392.0</ele><time>2026-05-02T10:06:05Z</time></trkpt><trkpt lat="50.54083861016031" lon="15.980745147032916"><ele>392.0</ele><time>2026-05-02T10:06:06Z</time></trkpt><trkpt lat="50.54087936218494" lon="15.980520231959456"><ele>389.75</ele><time>2026-05-02T10:06:07Z</time></trkpt><trkpt lat="50.54093954013033" lon="15.980330481950661"><ele>387.5</ele><time>2026-05-02T10:06:08Z</time></trkpt><trkpt lat="50.54098749535695" lon="15.980154035407127"><ele>385.25</ele><time>2026-05-02T10:06:09Z</time></trkpt><trkpt lat="50.54104050409526" lon="15.979983609777719"><ele>383.0</ele><time>2026-05-02T10:06:10Z</time></trkpt><trkpt lat="50.54109124208765" lon="15.979789227958822"><ele>385.75</ele><time>2026-05-02T10:06:11Z</time></trkpt><trkpt lat="50.54114677408749" lon="15.979594267121486"><ele>388.5</ele><time>2026-05-02T10:06:12Z</time></trkpt><trkpt lat="50.54121216503179" lon="15.97940035619538"><ele>391.25</ele><time>2026-05-02T10:06:13Z</time></trkpt><trkpt lat="50.54127387431583" lon="15.979198812385249"><ele>394.0</ele><time>2026-05-02T10:06:14Z</time></trkpt><trkpt lat="50.541354678800545" lon="15.978992648532298"><ele>394.0</ele><time>2026-05-02T10:06:15Z</time></trkpt><trkpt lat="50.54144745458515" lon="15.978787913116195"><ele>394.0</ele><time>2026-05-02T10:06:16Z</time></trkpt><trkpt lat="50.54154004134308" lon="15.978577800444533"><ele>394.0</ele><time>2026-05-02T10:06:17Z</time></trkpt><trkpt lat="50.5416377802435" lon="15.978348790865757"><ele>388.0</ele><time>2026-05-02T10:06:18Z</time></trkpt><trkpt lat="50.54173526186804" lon="15.978124710725941"><ele>382.0</ele><time>2026-05-02T10:06:19Z</time></trkpt><trkpt lat="50.541832265012836" lon="15.977899965904154"><ele>376.0</ele><time>2026-05-02T10:06:20Z</time></trkpt><trkpt lat="50.54192534119425" lon="15.977663799133603"><ele>372.66666666666663</ele><time>2026-05-02T10:06:21Z</time></trkpt><trkpt lat="50.54202066411638" lon="15.977423882296895"><ele>369.3333333333333</ele><time>2026-05-02T10:06:22Z</time></trkpt><trkpt lat="50.54211359238069" lon="15.97720074543219"><ele>366.0</ele><time>2026-05-02T10:06:23Z</time></trkpt><trkpt lat="50.54219545832101" lon="15.977005921900771"><ele>371.0</ele><time>2026-05-02T10:06:24Z</time></trkpt><trkpt lat="50.54227063234628" lon="15.976821674980812"><ele>376.0</ele><time>2026-05-02T10:06:25Z</time></trkpt><trkpt lat="50.54235061471989" lon="15.976637333109213"><ele>381.0</ele><time>2026-05-02T10:06:26Z</time></trkpt><trkpt lat="50.54243459608497" lon="15.97644391472234"><ele>386.0</ele><time>2026-05-02T10:06:27Z</time></trkpt><trkpt lat="50.54252031338474" lon="15.97623536140639"><ele>386.0</ele><time>2026-05-02T10:06:28Z</time></trkpt><trkpt lat="50.54260470673913" lon="15.976029527331061"><ele>386.0</ele><time>2026-05-02T10:06:29Z</time></trkpt><trkpt lat="50.54269265774855" lon="15.975812053025981"><ele>386.0</ele><time>2026-05-02T10:06:30Z</time></trkpt><trkpt lat="50.54278433203195" lon="15.975595882676416"><ele>387.66666666666663</ele><time>2026-05-02T10:06:31Z</time></trkpt><trkpt lat="50.54288103497841" lon="15.975377216601375"><ele>389.33333333333337</ele><time>2026-05-02T10:06:32Z</time></trkpt><trkpt lat="50.542987322663386" lon="15.975161103420708"><ele>391.0</ele><time>2026-05-02T10:06:33Z</time></trkpt><trkpt lat="50.543106440335805" lon="15.974931718982173"><ele>391.0</ele><time>2026-05-02T10:06:34Z</time></trkpt><trkpt lat="50.543248109325475" lon="15.974702331236712"><ele>391.0</ele><time>2026-05-02T10:06:35Z</time></trkpt><trkpt lat="50.543392470823605" lon="15.974497817146345"><ele>391.0</ele><time>2026-05-02T10:06:36Z</time></trkpt><trkpt lat="50.54351983288963" lon="15.974337862795752"><ele>391.0</ele><time>2026-05-02T10:06:37Z</time></trkpt><trkpt lat="50.54362413019918" lon="15.97421469941325"><ele>391.0</ele><time>2026-05-02T10:06:38Z</time></trkpt><trkpt lat="50.54372493899008" lon="15.974112712688113"><ele>391.0</ele><time>2026-05-02T10:06:39Z</time></trkpt><trkpt lat="50.54383952880951" lon="15.974056823560202"><ele>391.0</ele><time>2026-05-02T10:06:40Z</time></trkpt><trkpt lat="50.543968661578326" lon="15.974072959872272"><ele>389.5</ele><time>2026-05-02T10:06:41Z</time></trkpt><trkpt lat="50.54410046091269" lon="15.974166203828212"><ele>388.0</ele><time>2026-05-02T10:06:42Z</time></trkpt><trkpt lat="50.544196657905445" lon="15.97430941694728"><ele>386.5</ele><time>2026-05-02T10:06:43Z</time></trkpt><trkpt lat="50.54426630922482" lon="15.97451743610508"><ele>385.0</ele><time>2026-05-02T10:06:44Z</time></trkpt><trkpt lat="50.544294120496396" lon="15.974727411070504"><ele>385.0</ele><time>2026-05-02T10:06:45Z</time></trkpt><trkpt lat="50.54428124098054" lon="15.974963169905761"><ele>385.0</ele><time>2026-05-02T10:06:46Z</time></trkpt><trkpt lat="50.54421440124941" lon="15.97520239827758"><ele>385.0</ele><time>2026-05-02T10:06:47Z</time></trkpt><trkpt lat="50.54414200759588" lon="15.97545614424288"><ele>384.33333333333337</ele><time>2026-05-02T10:06:48Z</time></trkpt><trkpt lat="50.544047296445655" lon="15.97574561840485"><ele>383.6666666666667</ele><time>2026-05-02T10:06:49Z</time></trkpt><trkpt lat="50.54393121590432" lon="15.976035870401253"><ele>383.0</ele><time>2026-05-02T10:06:50Z</time></trkpt><trkpt lat="50.54379873593674" lon="15.976335760540394"><ele>382.33333333333337</ele><time>2026-05-02T10:06:51Z</time></trkpt><trkpt lat="50.54363650226219" lon="15.976598732064684"><ele>381.6666666666667</ele><time>2026-05-02T10:06:52Z</time></trkpt><trkpt lat="50.54349856430776" lon="15.976855163100703"><ele>381.0</ele><time>2026-05-02T10:06:53Z</time></trkpt><trkpt lat="50.54337459143997" lon="15.977089523600306"><ele>381.0</ele><time>2026-05-02T10:06:54Z</time></trkpt><trkpt lat="50.54325596882382" lon="15.977315155890325"><ele>381.0</ele><time>2026-05-02T10:06:55Z</time></trkpt><trkpt lat="50.54314674824243" lon="15.97754957917927"><ele>381.0</ele><time>2026-05-02T10:06:56Z</time></trkpt><trkpt lat="50.54305459766324" lon="15.977794379833398"><ele>381.0</ele><time>2026-05-02T10:06:57Z</time></trkpt><trkpt lat="50.54298165404694" lon="15.978059556045737"><ele>381.0</ele><time>2026-05-02T10:06:58Z</time></trkpt><trkpt lat="50.542929993190995" lon="15.978339032252734"><ele>381.0</ele><time>2026-05-02T10:06:59Z</time></trkpt><trkpt lat="50.54289958921125" lon="15.9786097581591"><ele>388.0</ele><time>2026-05-02T10:07:00Z</time></trkpt><trkpt lat="50.542877448798514" lon="15.978849864129648"><ele>395.0</ele><time>2026-05-02T10:07:01Z</time></trkpt><trkpt lat="50.5428710698215" lon="15.97906674192197"><ele>402.0</ele><time>2026-05-02T10:07:02Z</time></trkpt><trkpt lat="50.54291875176944" lon="15.979304161307029"><ele>402.0</ele><time>2026-05-02T10:07:03Z</time></trkpt><trkpt lat="50.543005580286774" lon="15.979538566647925"><ele>402.0</ele><time>2026-05-02T10:07:04Z</time></trkpt><trkpt lat="50.54311996582517" lon="15.979753572406066"><ele>402.0</ele><time>2026-05-02T10:07:05Z</time></trkpt><trkpt lat="50.54326935849125" lon="15.97993783690435"><ele>397.0</ele><time>2026-05-02T10:07:06Z</time></trkpt><trkpt lat="50.5434493600771" lon="15.980097929852212"><ele>392.0</ele><time>2026-05-02T10:07:07Z</time></trkpt><trkpt lat="50.54364842850763" lon="15.980249327532752"><ele>387.0</ele><time>2026-05-02T10:07:08Z</time></trkpt><trkpt lat="50.54382820018615" lon="15.980391749612537"><ele>387.0</ele><time>2026-05-02T10:07:09Z</time></trkpt><trkpt lat="50.543997886805556" lon="15.980535014067309"><ele>387.0</ele><time>2026-05-02T10:07:10Z</time></trkpt><trkpt lat="50.544148265763994" lon="15.98065257950088"><ele>387.0</ele><time>2026-05-02T10:07:11Z</time></trkpt><trkpt lat="50.544292084134746" lon="15.980778623736816"><ele>385.0</ele><time>2026-05-02T10:07:12Z</time></trkpt><trkpt lat="50.544448952136335" lon="15.980916283172185"><ele>383.0</ele><time>2026-05-02T10:07:13Z</time></trkpt><trkpt lat="50.54461500873228" lon="15.981041215851166"><ele>381.0</ele><time>2026-05-02T10:07:14Z</time></trkpt><trkpt lat="50.54476202064023" lon="15.981147990863125"><ele>381.0</ele><time>2026-05-02T10:07:15Z</time></trkpt><trkpt lat="50.544912325976355" lon="15.981217198927263"><ele>381.0</ele><time>2026-05-02T10:07:16Z</time></trkpt><trkpt lat="50.54507351172447" lon="15.981278333161189"><ele>381.0</ele><time>2026-05-02T10:07:17Z</time></trkpt><trkpt lat="50.5452493446848" lon="15.981294376699624"><ele>379.6666666666667</ele><time>2026-05-02T10:07:18Z</time></trkpt><trkpt lat="50.54543252807523" lon="15.98127262838181"><ele>378.33333333333337</ele><time>2026-05-02T10:07:19Z</time></trkpt><trkpt lat="50.54560145805938" lon="15.981234922867907"><ele>377.0</ele><time>2026-05-02T10:07:20Z</time></trkpt><trkpt lat="50.54575706491223" lon="15.981208596757734"><ele>377.0</ele><time>2026-05-02T10:07:21Z</time></trkpt><trkpt lat="50.54590304131356" lon="15.981187243954448"><ele>377.0</ele><time>2026-05-02T10:07:22Z</time></trkpt><trkpt lat="50.546040116664486" lon="15.981166653442447"><ele>377.0</ele><time>2026-05-02T10:07:23Z</time></trkpt><trkpt lat="50.5461910568059" lon="15.981146734640886"><ele>377.0</ele><time>2026-05-02T10:07:24Z</time></trkpt><trkpt lat="50.54634394652088" lon="15.981125825110682"><ele>377.33333333333337</ele><time>2026-05-02T10:07:25Z</time></trkpt><trkpt lat="50.546509436676175" lon="15.981097957540625"><ele>377.6666666666667</ele><time>2026-05-02T10:07:26Z</time></trkpt><trkpt lat="50.54667379661217" lon="15.98106160999194"><ele>378.0</ele><time>2026-05-02T10:07:27Z</time></trkpt><trkpt lat="50.5468353141986" lon="15.98100899938676"><ele>378.0</ele><time>2026-05-02T10:07:28Z</time></trkpt><trkpt lat="50.546994373569134" lon="15.980935343718782"><ele>378.0</ele><time>2026-05-02T10:07:29Z</time></trkpt><trkpt lat="50.54715405270281" lon="15.980842304944892"><ele>378.0</ele><time>2026-05-02T10:07:30Z</time></trkpt><trkpt lat="50.54730315471923" lon="15.980714576504228"><ele>378.3333333333333</ele><time>2026-05-02T10:07:31Z</time></trkpt><trkpt lat="50.547436375277904" lon="15.980541512303112"><ele>378.66666666666663</ele><time>2026-05-02T10:07:32Z</time></trkpt><trkpt lat="50.54754635288631" lon="15.980363977086835"><ele>379.0</ele><time>2026-05-02T10:07:33Z</time></trkpt><trkpt lat="50.54765862723925" lon="15.98021328491631"><ele>379.0</ele><time>2026-05-02T10:07:34Z</time></trkpt><trkpt lat="50.54778012731344" lon="15.98005238665509"><ele>379.0</ele><time>2026-05-02T10:07:35Z</time></trkpt><trkpt lat="50.547910258880414" lon="15.979884324257656"><ele>379.0</ele><time>2026-05-02T10:07:36Z</time></trkpt><trkpt lat="50.54804800192273" lon="15.979719214069235"><ele>379.3333333333333</ele><time>2026-05-02T10:07:37Z</time></trkpt><trkpt lat="50.548196180391095" lon="15.97956083639895"><ele>379.6666666666667</ele><time>2026-05-02T10:07:38Z</time></trkpt><trkpt lat="50.54835165890973" lon="15.97940480721318"><ele>380.0</ele><time>2026-05-02T10:07:39Z</time></trkpt><trkpt lat="50.54850818490805" lon="15.979243234439826"><ele>380.6666666666667</ele><time>2026-05-02T10:07:40Z</time></trkpt><trkpt lat="50.54867569535525" lon="15.979097918680111"><ele>381.3333333333333</ele><time>2026-05-02T10:07:41Z</time></trkpt><trkpt lat="50.54883182474938" lon="15.978918493037918"><ele>382.0</ele><time>2026-05-02T10:07:42Z</time></trkpt><trkpt lat="50.54899665292833" lon="15.978763824394438"><ele>382.0</ele><time>2026-05-02T10:07:43Z</time></trkpt><trkpt lat="50.54915042544046" lon="15.978615412957167"><ele>382.0</ele><time>2026-05-02T10:07:44Z</time></trkpt><trkpt lat="50.54929694763384" lon="15.97847146341077"><ele>382.0</ele><time>2026-05-02T10:07:45Z</time></trkpt><trkpt lat="50.5494360262787" lon="15.978332445394111"><ele>382.3333333333333</ele><time>2026-05-02T10:07:46Z</time></trkpt><trkpt lat="50.549567844275494" lon="15.97818301614065"><ele>382.6666666666667</ele><time>2026-05-02T10:07:47Z</time></trkpt><trkpt lat="50.54968212290487" lon="15.978012649789118"><ele>383.0</ele><time>2026-05-02T10:07:48Z</time></trkpt><trkpt lat="50.549785769992404" lon="15.977812299311198"><ele>383.0</ele><time>2026-05-02T10:07:49Z</time></trkpt><trkpt lat="50.5498771561659" lon="15.977586636996156"><ele>383.0</ele><time>2026-05-02T10:07:50Z</time></trkpt><trkpt lat="50.54995334273159" lon="15.97733847894266"><ele>383.0</ele><time>2026-05-02T10:07:51Z</time></trkpt><trkpt lat="50.55001026952092" lon="15.977069439882978"><ele>380.33333333333337</ele><time>2026-05-02T10:07:52Z</time></trkpt><trkpt lat="50.550052782141954" lon="15.976791107981791"><ele>377.6666666666667</ele><time>2026-05-02T10:07:53Z</time></trkpt><trkpt lat="50.550079676521385" lon="15.976520742297383"><ele>375.0</ele><time>2026-05-02T10:07:54Z</time></trkpt><trkpt lat="50.55009800053155" lon="15.97627108138223"><ele>374.0</ele><time>2026-05-02T10:07:55Z</time></trkpt><trkpt lat="50.550121948768435" lon="15.976023762168355"><ele>373.0</ele><time>2026-05-02T10:07:56Z</time></trkpt><trkpt lat="50.550148792716946" lon="15.975759751487475"><ele>372.0</ele><time>2026-05-02T10:07:57Z</time></trkpt><trkpt lat="50.5501800035266" lon="15.975495834745672"><ele>372.0</ele><time>2026-05-02T10:07:58Z</time></trkpt><trkpt lat="50.55022243525241" lon="15.975240979894176"><ele>372.0</ele><time>2026-05-02T10:07:59Z</time></trkpt><trkpt lat="50.550282166888266" lon="15.97499444332755"><ele>372.0</ele><time>2026-05-02T10:08:00Z</time></trkpt><trkpt lat="50.55034911498188" lon="15.97475503599273"><ele>371.6666666666667</ele><time>2026-05-02T10:08:01Z</time></trkpt><trkpt lat="50.55041637661423" lon="15.974519811700642"><ele>371.33333333333337</ele><time>2026-05-02T10:08:02Z</time></trkpt><trkpt lat="50.550492767904835" lon="15.974289654419277"><ele>371.0</ele><time>2026-05-02T10:08:03Z</time></trkpt><trkpt lat="50.5505820163163" lon="15.974074052119974"><ele>371.0</ele><time>2026-05-02T10:08:04Z</time></trkpt><trkpt lat="50.55068314081032" lon="15.973872703347068"><ele>371.0</ele><time>2026-05-02T10:08:05Z</time></trkpt><trkpt lat="50.55079025748055" lon="15.973674967845417"><ele>371.0</ele><time>2026-05-02T10:08:06Z</time></trkpt><trkpt lat="50.550903840118316" lon="15.973482571843345"><ele>372.33333333333337</ele><time>2026-05-02T10:08:07Z</time></trkpt><trkpt lat="50.551025652317975" lon="15.973302680995921"><ele>373.6666666666667</ele><time>2026-05-02T10:08:08Z</time></trkpt><trkpt lat="50.55115835095221" lon="15.973143474822514"><ele>375.0</ele><time>2026-05-02T10:08:09Z</time></trkpt><trkpt lat="50.55129739077757" lon="15.972999981933315"><ele>375.0</ele><time>2026-05-02T10:08:10Z</time></trkpt><trkpt lat="50.55143201470406" lon="15.972879063733611"><ele>375.0</ele><time>2026-05-02T10:08:11Z</time></trkpt><trkpt lat="50.55155589370277" lon="15.972764590584225"><ele>375.0</ele><time>2026-05-02T10:08:12Z</time></trkpt><trkpt lat="50.55167709864949" lon="15.972660463323466"><ele>375.0</ele><time>2026-05-02T10:08:13Z</time></trkpt><trkpt lat="50.55181016935921" lon="15.97255190127358"><ele>375.0</ele><time>2026-05-02T10:08:14Z</time></trkpt><trkpt lat="50.551950890057505" lon="15.97241691338714"><ele>375.0</ele><time>2026-05-02T10:08:15Z</time></trkpt><trkpt lat="50.55210729197643" lon="15.972319933172868"><ele>375.0</ele><time>2026-05-02T10:08:16Z</time></trkpt><trkpt lat="50.552224645692824" lon="15.972237476430484"><ele>375.0</ele><time>2026-05-02T10:08:17Z</time></trkpt><trkpt lat="50.552364988269346" lon="15.972134874058481"><ele>375.0</ele><time>2026-05-02T10:08:18Z</time></trkpt><trkpt lat="50.55250998871843" lon="15.972067591087152"><ele>375.0</ele><time>2026-05-02T10:08:19Z</time></trkpt><trkpt lat="50.55264460147743" lon="15.972020538416853"><ele>375.0</ele><time>2026-05-02T10:08:20Z</time></trkpt><trkpt lat="50.55277271421976" lon="15.97199738140278"><ele>374.5</ele><time>2026-05-02T10:08:21Z</time></trkpt><trkpt lat="50.55289657760847" lon="15.9719742934724"><ele>374.0</ele><time>2026-05-02T10:08:22Z</time></trkpt><trkpt lat="50.553009071282595" lon="15.971952208211802"><ele>373.5</ele><time>2026-05-02T10:08:23Z</time></trkpt><trkpt lat="50.55312263428896" lon="15.971931571101452"><ele>373.0</ele><time>2026-05-02T10:08:24Z</time></trkpt><trkpt lat="50.55324748470455" lon="15.97192350647092"><ele>373.0</ele><time>2026-05-02T10:08:25Z</time></trkpt><trkpt lat="50.55337568979943" lon="15.97190665025616"><ele>373.0</ele><time>2026-05-02T10:08:26Z</time></trkpt><trkpt lat="50.55350934502891" lon="15.971893705251745"><ele>373.0</ele><time>2026-05-02T10:08:27Z</time></trkpt><trkpt lat="50.55364647285836" lon="15.971873204256104"><ele>373.0</ele><time>2026-05-02T10:08:28Z</time></trkpt><trkpt lat="50.553786450804104" lon="15.971813465800963"><ele>374.3333333333333</ele><time>2026-05-02T10:08:29Z</time></trkpt><trkpt lat="50.553927768293185" lon="15.971710043077342"><ele>375.6666666666667</ele><time>2026-05-02T10:08:30Z</time></trkpt><trkpt lat="50.55407890873999" lon="15.971585238156614"><ele>377.0</ele><time>2026-05-02T10:08:31Z</time></trkpt><trkpt lat="50.55423093138838" lon="15.971427023279611"><ele>377.0</ele><time>2026-05-02T10:08:32Z</time></trkpt><trkpt lat="50.55439659401409" lon="15.971256123401902"><ele>377.0</ele><time>2026-05-02T10:08:33Z</time></trkpt><trkpt lat="50.55456513064179" lon="15.97108959604493"><ele>377.0</ele><time>2026-05-02T10:08:34Z</time></trkpt><trkpt lat="50.55474202005147" lon="15.97092652261697"><ele>376.33333333333337</ele><time>2026-05-02T10:08:35Z</time></trkpt><trkpt lat="50.55491793167643" lon="15.970760723262892"><ele>375.6666666666667</ele><time>2026-05-02T10:08:36Z</time></trkpt><trkpt lat="50.55508899112361" lon="15.97059394377677"><ele>375.0</ele><time>2026-05-02T10:08:37Z</time></trkpt><trkpt lat="50.55525822055263" lon="15.970435303286605"><ele>375.6666666666667</ele><time>2026-05-02T10:08:38Z</time></trkpt><trkpt lat="50.55542608483719" lon="15.970268515349472"><ele>376.33333333333337</ele><time>2026-05-02T10:08:39Z</time></trkpt><trkpt lat="50.555600634671116" lon="15.970096232409844"><ele>377.0</ele><time>2026-05-02T10:08:40Z</time></trkpt><trkpt lat="50.55578218836765" lon="15.969922828682476"><ele>377.0</ele><time>2026-05-02T10:08:41Z</time></trkpt><trkpt lat="50.5559845542513" lon="15.96972929170193"><ele>377.0</ele><time>2026-05-02T10:08:42Z</time></trkpt><trkpt lat="50.55621584039034" lon="15.96950473060528"><ele>377.0</ele><time>2026-05-02T10:08:43Z</time></trkpt><trkpt lat="50.5564766263536" lon="15.969251760446921"><ele>377.0</ele><time>2026-05-02T10:08:44Z</time></trkpt><trkpt lat="50.55672640412956" lon="15.96901542311431"><ele>377.0</ele><time>2026-05-02T10:08:45Z</time></trkpt><trkpt lat="50.556949211329695" lon="15.968810894305552"><ele>377.0</ele><time>2026-05-02T10:08:46Z</time></trkpt><trkpt lat="50.55715183200985" lon="15.968616624696502"><ele>377.33333333333337</ele><time>2026-05-02T10:08:47Z</time></trkpt><trkpt lat="50.557341361867145" lon="15.968431924566204"><ele>377.6666666666667</ele><time>2026-05-02T10:08:48Z</time></trkpt><trkpt lat="50.55751627168086" lon="15.968262396557858"><ele>378.0</ele><time>2026-05-02T10:08:49Z</time></trkpt><trkpt lat="50.55768931112302" lon="15.96809278535544"><ele>378.0</ele><time>2026-05-02T10:08:50Z</time></trkpt><trkpt lat="50.557859579727186" lon="15.967924310450352"><ele>378.0</ele><time>2026-05-02T10:08:51Z</time></trkpt><trkpt lat="50.55803718711405" lon="15.967754277008728"><ele>378.0</ele><time>2026-05-02T10:08:52Z</time></trkpt><trkpt lat="50.55822611450912" lon="15.96759211937102"><ele>378.0</ele><time>2026-05-02T10:08:53Z</time></trkpt><trkpt lat="50.558419123733046" lon="15.967447805018677"><ele>378.0</ele><time>2026-05-02T10:08:54Z</time></trkpt><trkpt lat="50.55862273009212" lon="15.967313679504578"><ele>378.0</ele><time>2026-05-02T10:08:55Z</time></trkpt><trkpt lat="50.55883957466417" lon="15.967179274367576"><ele>378.0</ele><time>2026-05-02T10:08:56Z</time></trkpt><trkpt lat="50.55906600033778" lon="15.967055563153014"><ele>378.0</ele><time>2026-05-02T10:08:57Z</time></trkpt><trkpt lat="50.55929197003751" lon="15.966957615363613"><ele>378.0</ele><time>2026-05-02T10:08:58Z</time></trkpt><trkpt lat="50.55951679171381" lon="15.966883186210993"><ele>378.0</ele><time>2026-05-02T10:08:59Z</time></trkpt><trkpt lat="50.55974662040831" lon="15.966824440758552"><ele>378.5</ele><time>2026-05-02T10:09:00Z</time></trkpt><trkpt lat="50.5599838987765" lon="15.966776440794064"><ele>379.0</ele><time>2026-05-02T10:09:01Z</time></trkpt><trkpt lat="50.560221044827365" lon="15.966743828467703"><ele>378.0</ele><time>2026-05-02T10:09:02Z</time></trkpt><trkpt lat="50.560456554068885" lon="15.966715962181137"><ele>377.0</ele><time>2026-05-02T10:09:03Z</time></trkpt><trkpt lat="50.560680274817294" lon="15.966684895108582"><ele>378.33333333333337</ele><time>2026-05-02T10:09:04Z</time></trkpt><trkpt lat="50.56089981145478" lon="15.966649730470731"><ele>379.6666666666667</ele><time>2026-05-02T10:09:05Z</time></trkpt><trkpt lat="50.56111691488492" lon="15.966610416214547"><ele>381.0</ele><time>2026-05-02T10:09:06Z</time></trkpt><trkpt lat="50.56132795420795" lon="15.966575964263"><ele>382.0</ele><time>2026-05-02T10:09:07Z</time></trkpt><trkpt lat="50.56153615823916" lon="15.966553872427381"><ele>383.0</ele><time>2026-05-02T10:09:08Z</time></trkpt><trkpt lat="50.561743928986616" lon="15.966528192985537"><ele>384.0</ele><time>2026-05-02T10:09:09Z</time></trkpt><trkpt lat="50.56195448869752" lon="15.96650071352436"><ele>384.66666666666663</ele><time>2026-05-02T10:09:10Z</time></trkpt><trkpt lat="50.56216409914148" lon="15.96647501024094"><ele>385.3333333333333</ele><time>2026-05-02T10:09:11Z</time></trkpt><trkpt lat="50.56237806301309" lon="15.966449235274657"><ele>386.0</ele><time>2026-05-02T10:09:12Z</time></trkpt><trkpt lat="50.56259543325238" lon="15.96642324197896"><ele>386.0</ele><time>2026-05-02T10:09:13Z</time></trkpt><trkpt lat="50.5628164935649" lon="15.966398161276866"><ele>386.0</ele><time>2026-05-02T10:09:14Z</time></trkpt><trkpt lat="50.56303815192688" lon="15.96636691992886"><ele>386.0</ele><time>2026-05-02T10:09:15Z</time></trkpt><trkpt lat="50.563245585364875" lon="15.96633616390166"><ele>385.3333333333333</ele><time>2026-05-02T10:09:16Z</time></trkpt><trkpt lat="50.563455952229646" lon="15.966314070291048"><ele>384.66666666666663</ele><time>2026-05-02T10:09:17Z</time></trkpt><trkpt lat="50.563671008990326" lon="15.966285290136344"><ele>384.0</ele><time>2026-05-02T10:09:18Z</time></trkpt><trkpt lat="50.563885621362495" lon="15.9662528065451"><ele>383.6666666666667</ele><time>2026-05-02T10:09:19Z</time></trkpt><trkpt lat="50.564097322318666" lon="15.966226143956233"><ele>383.33333333333337</ele><time>2026-05-02T10:09:20Z</time></trkpt><trkpt lat="50.56429674431206" lon="15.966200454038091"><ele>383.0</ele><time>2026-05-02T10:09:21Z</time></trkpt><trkpt lat="50.56449221110847" lon="15.96618292730343"><ele>382.33333333333337</ele><time>2026-05-02T10:09:22Z</time></trkpt><trkpt lat="50.564690075348395" lon="15.966167843144447"><ele>381.6666666666667</ele><time>2026-05-02T10:09:23Z</time></trkpt><trkpt lat="50.56488711242406" lon="15.966151994445253"><ele>381.0</ele><time>2026-05-02T10:09:24Z</time></trkpt><trkpt lat="50.56507755353504" lon="15.966141675960225"><ele>381.0</ele><time>2026-05-02T10:09:25Z</time></trkpt><trkpt lat="50.56526824025859" lon="15.966133599556857"><ele>381.0</ele><time>2026-05-02T10:09:26Z</time></trkpt><trkpt lat="50.56546476468272" lon="15.966117744431324"><ele>381.0</ele><time>2026-05-02T10:09:27Z</time></trkpt><trkpt lat="50.56567023821467" lon="15.966097304462545"><ele>381.0</ele><time>2026-05-02T10:09:28Z</time></trkpt><trkpt lat="50.56587607145931" lon="15.966078563779181"><ele>381.0</ele><time>2026-05-02T10:09:29Z</time></trkpt><trkpt lat="50.56608300616948" lon="15.966065045446086"><ele>381.0</ele><time>2026-05-02T10:09:30Z</time></trkpt><trkpt lat="50.56629447207827" lon="15.966061309178912"><ele>381.0</ele><time>2026-05-02T10:09:31Z</time></trkpt><trkpt lat="50.566495281851246" lon="15.966061025445347"><ele>381.0</ele><time>2026-05-02T10:09:32Z</time></trkpt><trkpt lat="50.56668222377382" lon="15.966060281227252"><ele>381.0</ele><time>2026-05-02T10:09:33Z</time></trkpt><trkpt lat="50.56687413300141" lon="15.966060706614071"><ele>382.33333333333337</ele><time>2026-05-02T10:09:34Z</time></trkpt><trkpt lat="50.56706976672675" lon="15.96605840499366"><ele>383.6666666666667</ele><time>2026-05-02T10:09:35Z</time></trkpt><trkpt lat="50.56726600378065" lon="15.966053605514407"><ele>385.0</ele><time>2026-05-02T10:09:36Z</time></trkpt><trkpt lat="50.56746664992383" lon="15.966048801317335"><ele>385.0</ele><time>2026-05-02T10:09:37Z</time></trkpt><trkpt lat="50.56766680093225" lon="15.966034384106916"><ele>385.0</ele><time>2026-05-02T10:09:38Z</time></trkpt><trkpt lat="50.56787123927861" lon="15.965997330890096"><ele>385.0</ele><time>2026-05-02T10:09:39Z</time></trkpt><trkpt lat="50.56807332123671" lon="15.965936940660372"><ele>388.0</ele><time>2026-05-02T10:09:40Z</time></trkpt><trkpt lat="50.56827296742762" lon="15.965858596838858"><ele>391.0</ele><time>2026-05-02T10:09:41Z</time></trkpt><trkpt lat="50.5684681862135" lon="15.965746402803035"><ele>394.0</ele><time>2026-05-02T10:09:42Z</time></trkpt><trkpt lat="50.56864695224715" lon="15.9656135592805"><ele>391.33333333333337</ele><time>2026-05-02T10:09:43Z</time></trkpt><trkpt lat="50.56880650448264" lon="15.965458571376592"><ele>388.66666666666663</ele><time>2026-05-02T10:09:44Z</time></trkpt><trkpt lat="50.568953336108855" lon="15.96529247417911"><ele>386.0</ele><time>2026-05-02T10:09:45Z</time></trkpt><trkpt lat="50.569081131336" lon="15.965110382338068"><ele>388.3333333333333</ele><time>2026-05-02T10:09:46Z</time></trkpt><trkpt lat="50.56920589269919" lon="15.964923873426407"><ele>390.66666666666663</ele><time>2026-05-02T10:09:47Z</time></trkpt><trkpt lat="50.56932219643763" lon="15.964707802191622"><ele>393.0</ele><time>2026-05-02T10:09:48Z</time></trkpt><trkpt lat="50.56942512143447" lon="15.964486800574209"><ele>393.0</ele><time>2026-05-02T10:09:49Z</time></trkpt><trkpt lat="50.56951411313723" lon="15.96427255936826"><ele>393.0</ele><time>2026-05-02T10:09:50Z</time></trkpt><trkpt lat="50.569596573158655" lon="15.96405920997502"><ele>393.0</ele><time>2026-05-02T10:09:51Z</time></trkpt><trkpt lat="50.56967181021696" lon="15.963846709489914"><ele>392.33333333333337</ele><time>2026-05-02T10:09:52Z</time></trkpt><trkpt lat="50.56975583458031" lon="15.963644019374215"><ele>391.6666666666667</ele><time>2026-05-02T10:09:53Z</time></trkpt><trkpt lat="50.569841169282554" lon="15.963439468951975"><ele>391.0</ele><time>2026-05-02T10:09:54Z</time></trkpt><trkpt lat="50.5699373805384" lon="15.963236613630999"><ele>391.0</ele><time>2026-05-02T10:09:55Z</time></trkpt><trkpt lat="50.57005406443797" lon="15.963036335307732"><ele>391.0</ele><time>2026-05-02T10:09:56Z</time></trkpt><trkpt lat="50.570173421615955" lon="15.9628402817099"><ele>391.0</ele><time>2026-05-02T10:09:57Z</time></trkpt><trkpt lat="50.570299187280746" lon="15.962656678747237"><ele>391.33333333333337</ele><time>2026-05-02T10:09:58Z</time></trkpt><trkpt lat="50.5704347421421" lon="15.962481979469645"><ele>391.66666666666663</ele><time>2026-05-02T10:09:59Z</time></trkpt><trkpt lat="50.57057279178034" lon="15.962340435942847"><ele>392.0</ele><time>2026-05-02T10:10:00Z</time></trkpt><trkpt lat="50.57071552619886" lon="15.962215561873093"><ele>392.0</ele><time>2026-05-02T10:10:01Z</time></trkpt><trkpt lat="50.57085504202732" lon="15.962110247664793"><ele>392.0</ele><time>2026-05-02T10:10:02Z</time></trkpt><trkpt lat="50.57098053967478" lon="15.96201915602758"><ele>392.0</ele><time>2026-05-02T10:10:03Z</time></trkpt><trkpt lat="50.571106938253685" lon="15.961928828215335"><ele>392.0</ele><time>2026-05-02T10:10:04Z</time></trkpt><trkpt lat="50.57123390448768" lon="15.961856461407187"><ele>392.0</ele><time>2026-05-02T10:10:05Z</time></trkpt><trkpt lat="50.57136353044998" lon="15.961785739970187"><ele>392.0</ele><time>2026-05-02T10:10:06Z</time></trkpt><trkpt lat="50.571487070434884" lon="15.961722495985192"><ele>392.0</ele><time>2026-05-02T10:10:07Z</time></trkpt><trkpt lat="50.571603461007456" lon="15.961659545843176"><ele>392.0</ele><time>2026-05-02T10:10:08Z</time></trkpt><trkpt lat="50.571710814210306" lon="15.961590878189888"><ele>392.0</ele><time>2026-05-02T10:10:09Z</time></trkpt><trkpt lat="50.57181436432174" lon="15.961522676301497"><ele>392.0</ele><time>2026-05-02T10:10:10Z</time></trkpt><trkpt lat="50.57191501708724" lon="15.961458894159062"><ele>392.0</ele><time>2026-05-02T10:10:11Z</time></trkpt><trkpt lat="50.57201447054846" lon="15.961402618532286"><ele>392.0</ele><time>2026-05-02T10:10:12Z</time></trkpt><trkpt lat="50.57211253713522" lon="15.961345693105681"><ele>392.0</ele><time>2026-05-02T10:10:13Z</time></trkpt><trkpt lat="50.572209292062446" lon="15.961291894863683"><ele>391.0</ele><time>2026-05-02T10:10:14Z</time></trkpt><trkpt lat="50.57231019080533" lon="15.961232971233189"><ele>390.0</ele><time>2026-05-02T10:10:15Z</time></trkpt><trkpt lat="50.57241859230893" lon="15.96117133056372"><ele>389.0</ele><time>2026-05-02T10:10:16Z</time></trkpt><trkpt lat="50.57252116139499" lon="15.961110908883631"><ele>388.0</ele><time>2026-05-02T10:10:17Z</time></trkpt><trkpt lat="50.57262550223895" lon="15.9610507338044"><ele>387.0</ele><time>2026-05-02T10:10:18Z</time></trkpt><trkpt lat="50.572736498945204" lon="15.960987606875328"><ele>387.0</ele><time>2026-05-02T10:10:19Z</time></trkpt><trkpt lat="50.57285348873055" lon="15.96092256048567"><ele>387.0</ele><time>2026-05-02T10:10:20Z</time></trkpt><trkpt lat="50.57297071112997" lon="15.960856558940623"><ele>387.0</ele><time>2026-05-02T10:10:21Z</time></trkpt><trkpt lat="50.57308154394327" lon="15.960797389755392"><ele>387.0</ele><time>2026-05-02T10:10:22Z</time></trkpt><trkpt lat="50.57318905296881" lon="15.960741045501377"><ele>387.20000000000005</ele><time>2026-05-02T10:10:23Z</time></trkpt><trkpt lat="50.57329793536518" lon="15.960680393603804"><ele>387.4</ele><time>2026-05-02T10:10:24Z</time></trkpt><trkpt lat="50.573399955879836" lon="15.960614493340131"><ele>387.6</ele><time>2026-05-02T10:10:25Z</time></trkpt><trkpt lat="50.573493281025925" lon="15.960557204148712"><ele>387.79999999999995</ele><time>2026-05-02T10:10:26Z</time></trkpt><trkpt lat="50.57359153473906" lon="15.960501909929395"><ele>388.0</ele><time>2026-05-02T10:10:27Z</time></trkpt><trkpt lat="50.57369014808541" lon="15.960449817138322"><ele>388.0</ele><time>2026-05-02T10:10:28Z</time></trkpt><trkpt lat="50.573782507357976" lon="15.96038270423364"><ele>388.0</ele><time>2026-05-02T10:10:29Z</time></trkpt><trkpt lat="50.57387233173644" lon="15.960327103373947"><ele>388.0</ele><time>2026-05-02T10:10:30Z</time></trkpt><trkpt lat="50.57395923654142" lon="15.960281119566103"><ele>388.0</ele><time>2026-05-02T10:10:31Z</time></trkpt><trkpt lat="50.57404008497532" lon="15.960234688800956"><ele>388.0</ele><time>2026-05-02T10:10:32Z</time></trkpt><trkpt lat="50.574125234851714" lon="15.96019270102223"><ele>388.0</ele><time>2026-05-02T10:10:33Z</time></trkpt><trkpt lat="50.57421688205841" lon="15.96014445326746"><ele>388.0</ele><time>2026-05-02T10:10:34Z</time></trkpt><trkpt lat="50.57431525152286" lon="15.960091230873898"><ele>388.0</ele><time>2026-05-02T10:10:35Z</time></trkpt><trkpt lat="50.57442196877472" lon="15.960035132466507"><ele>388.0</ele><time>2026-05-02T10:10:36Z</time></trkpt><trkpt lat="50.5745319016523" lon="15.959965755542985"><ele>388.0</ele><time>2026-05-02T10:10:37Z</time></trkpt><trkpt lat="50.57464455302998" lon="15.959892814657664"><ele>387.75</ele><time>2026-05-02T10:10:38Z</time></trkpt><trkpt lat="50.574757818048234" lon="15.959809562369736"><ele>387.5</ele><time>2026-05-02T10:10:39Z</time></trkpt><trkpt lat="50.574859716265046" lon="15.95969707943701"><ele>387.25</ele><time>2026-05-02T10:10:40Z</time></trkpt><trkpt lat="50.574945466136285" lon="15.959559825325098"><ele>387.0</ele><time>2026-05-02T10:10:41Z</time></trkpt><trkpt lat="50.57501662655876" lon="15.959398158470696"><ele>387.0</ele><time>2026-05-02T10:10:42Z</time></trkpt><trkpt lat="50.575071114886526" lon="15.959222103075042"><ele>387.0</ele><time>2026-05-02T10:10:43Z</time></trkpt><trkpt lat="50.57511064863716" lon="15.959030372582415"><ele>387.0</ele><time>2026-05-02T10:10:44Z</time></trkpt><trkpt lat="50.575142455018515" lon="15.958829188027737"><ele>387.0</ele><time>2026-05-02T10:10:45Z</time></trkpt><trkpt lat="50.575168485336405" lon="15.958631088645946"><ele>386.75</ele><time>2026-05-02T10:10:46Z</time></trkpt><trkpt lat="50.575187198002084" lon="15.958431999712664"><ele>386.5</ele><time>2026-05-02T10:10:47Z</time></trkpt><trkpt lat="50.575198623902295" lon="15.958228707963372"><ele>386.25</ele><time>2026-05-02T10:10:48Z</time></trkpt><trkpt lat="50.5752063641323" lon="15.958037787537677"><ele>386.0</ele><time>2026-05-02T10:10:49Z</time></trkpt><trkpt lat="50.57520494204628" lon="15.957856924779092"><ele>386.0</ele><time>2026-05-02T10:10:50Z</time></trkpt><trkpt lat="50.575202119248914" lon="15.957698596228864"><ele>386.0</ele><time>2026-05-02T10:10:51Z</time></trkpt><trkpt lat="50.5751960450131" lon="15.957544736843078"><ele>386.0</ele><time>2026-05-02T10:10:52Z</time></trkpt><trkpt lat="50.57519050903334" lon="15.957400891525891"><ele>386.0</ele><time>2026-05-02T10:10:53Z</time></trkpt><trkpt lat="50.57518700059682" lon="15.957258374017627"><ele>386.0</ele><time>2026-05-02T10:10:54Z</time></trkpt><trkpt lat="50.57518719510026" lon="15.957110821752023"><ele>386.0</ele><time>2026-05-02T10:10:55Z</time></trkpt><trkpt lat="50.57518497843459" lon="15.956954060908418"><ele>386.0</ele><time>2026-05-02T10:10:56Z</time></trkpt><trkpt lat="50.57518044523612" lon="15.956788262527231"><ele>386.0</ele><time>2026-05-02T10:10:57Z</time></trkpt><trkpt lat="50.575180276920854" lon="15.956615160415959"><ele>386.0</ele><time>2026-05-02T10:10:58Z</time></trkpt><trkpt lat="50.575180252042756" lon="15.956450141297111"><ele>386.0</ele><time>2026-05-02T10:10:59Z</time></trkpt><trkpt lat="50.57517503864523" lon="15.956297570712213"><ele>386.0</ele><time>2026-05-02T10:11:00Z</time></trkpt><trkpt lat="50.575171955569125" lon="15.956150024831231"><ele>386.0</ele><time>2026-05-02T10:11:01Z</time></trkpt><trkpt lat="50.575166992279506" lon="15.956002946420845"><ele>386.0</ele><time>2026-05-02T10:11:02Z</time></trkpt><trkpt lat="50.57516178544352" lon="15.955851169034672"><ele>386.0</ele><time>2026-05-02T10:11:03Z</time></trkpt><trkpt lat="50.57515974486716" lon="15.955699149272549"><ele>386.0</ele><time>2026-05-02T10:11:04Z</time></trkpt><trkpt lat="50.57515802245165" lon="15.955547225357213"><ele>386.20000000000005</ele><time>2026-05-02T10:11:05Z</time></trkpt><trkpt lat="50.575152186193854" lon="15.95539221299434"><ele>386.40000000000003</ele><time>2026-05-02T10:11:06Z</time></trkpt><trkpt lat="50.575146731564" lon="15.955236003404504"><ele>386.6</ele><time>2026-05-02T10:11:07Z</time></trkpt><trkpt lat="50.57514589957148" lon="15.955079085585718"><ele>386.8</ele><time>2026-05-02T10:11:08Z</time></trkpt><trkpt lat="50.57514737946656" lon="15.954914708414394"><ele>387.0</ele><time>2026-05-02T10:11:09Z</time></trkpt><trkpt lat="50.575146390211174" lon="15.954741357512516"><ele>387.25</ele><time>2026-05-02T10:11:10Z</time></trkpt><trkpt lat="50.57514023333503" lon="15.95456453489923"><ele>387.5</ele><time>2026-05-02T10:11:11Z</time></trkpt><trkpt lat="50.575135564906816" lon="15.954389559147364"><ele>387.75</ele><time>2026-05-02T10:11:12Z</time></trkpt><trkpt lat="50.57513253010767" lon="15.95421057849451"><ele>388.0</ele><time>2026-05-02T10:11:13Z</time></trkpt><trkpt lat="50.575132452166564" lon="15.95402642849613"><ele>388.25</ele><time>2026-05-02T10:11:14Z</time></trkpt><trkpt lat="50.57513205291862" lon="15.953831657480071"><ele>388.5</ele><time>2026-05-02T10:11:15Z</time></trkpt><trkpt lat="50.575125999203344" lon="15.953608207929028"><ele>388.75</ele><time>2026-05-02T10:11:16Z</time></trkpt><trkpt lat="50.57510765450138" lon="15.953366983796762"><ele>389.0</ele><time>2026-05-02T10:11:17Z</time></trkpt><trkpt lat="50.57507432195556" lon="15.953124700904722"><ele>389.3333333333333</ele><time>2026-05-02T10:11:18Z</time></trkpt><trkpt lat="50.57502386209437" lon="15.95288821822467"><ele>389.66666666666663</ele><time>2026-05-02T10:11:19Z</time></trkpt><trkpt lat="50.57497810983119" lon="15.952665606220329"><ele>390.0</ele><time>2026-05-02T10:11:20Z</time></trkpt><trkpt lat="50.57491825978602" lon="15.95244306433746"><ele>390.5</ele><time>2026-05-02T10:11:21Z</time></trkpt><trkpt lat="50.57485946750889" lon="15.952219588377552"><ele>391.0</ele><time>2026-05-02T10:11:22Z</time></trkpt><trkpt lat="50.57480213369179" lon="15.9520084702058"><ele>391.5</ele><time>2026-05-02T10:11:23Z</time></trkpt><trkpt lat="50.574730757953425" lon="15.951821778545083"><ele>392.0</ele><time>2026-05-02T10:11:24Z</time></trkpt><trkpt lat="50.57464003251142" lon="15.951668475742142"><ele>392.25</ele><time>2026-05-02T10:11:25Z</time></trkpt><trkpt lat="50.574558307061224" lon="15.951519129123014"><ele>392.5</ele><time>2026-05-02T10:11:26Z</time></trkpt><trkpt lat="50.57446639815833" lon="15.951427685266854"><ele>392.75</ele><time>2026-05-02T10:11:27Z</time></trkpt><trkpt lat="50.57435594209155" lon="15.951272078705756"><ele>393.0</ele><time>2026-05-02T10:11:28Z</time></trkpt><trkpt lat="50.57427262619052" lon="15.95116394243845"><ele>392.5</ele><time>2026-05-02T10:11:29Z</time></trkpt><trkpt lat="50.57417978699129" lon="15.951068623642191"><ele>392.0</ele><time>2026-05-02T10:11:30Z</time></trkpt><trkpt lat="50.57409994422285" lon="15.950934983607851"><ele>391.5</ele><time>2026-05-02T10:11:31Z</time></trkpt><trkpt lat="50.57402243549682" lon="15.950794041821625"><ele>391.0</ele><time>2026-05-02T10:11:32Z</time></trkpt><trkpt lat="50.57395300838466" lon="15.95064540819651"><ele>391.0</ele><time>2026-05-02T10:11:33Z</time></trkpt><trkpt lat="50.573892075023764" lon="15.950504566666988"><ele>391.0</ele><time>2026-05-02T10:11:34Z</time></trkpt><trkpt lat="50.57383578976221" lon="15.950379945901581"><ele>391.0</ele><time>2026-05-02T10:11:35Z</time></trkpt><trkpt lat="50.5737791369073" lon="15.95026570627696"><ele>391.0</ele><time>2026-05-02T10:11:36Z</time></trkpt><trkpt lat="50.57371463575843" lon="15.950143785428846"><ele>391.0</ele><time>2026-05-02T10:11:37Z</time></trkpt><trkpt lat="50.573645455045195" lon="15.950021812304456"><ele>391.25</ele><time>2026-05-02T10:11:38Z</time></trkpt><trkpt lat="50.5735941568451" lon="15.94987743521658"><ele>391.5</ele><time>2026-05-02T10:11:39Z</time></trkpt><trkpt lat="50.57351572433575" lon="15.949748005164155"><ele>391.75</ele><time>2026-05-02T10:11:40Z</time></trkpt><trkpt lat="50.57344586713423" lon="15.949591629305413"><ele>392.0</ele><time>2026-05-02T10:11:41Z</time></trkpt><trkpt lat="50.57338156413368" lon="15.949424120514719"><ele>392.0</ele><time>2026-05-02T10:11:42Z</time></trkpt><trkpt lat="50.57330622339225" lon="15.949263679178165"><ele>392.0</ele><time>2026-05-02T10:11:43Z</time></trkpt><trkpt lat="50.573228908658194" lon="15.949099703608852"><ele>392.0</ele><time>2026-05-02T10:11:44Z</time></trkpt><trkpt lat="50.57314146527023" lon="15.948944898257404"><ele>392.0</ele><time>2026-05-02T10:11:45Z</time></trkpt><trkpt lat="50.5730679425973" lon="15.948771276655041"><ele>392.75</ele><time>2026-05-02T10:11:46Z</time></trkpt><trkpt lat="50.57299839424588" lon="15.94858978288371"><ele>393.5</ele><time>2026-05-02T10:11:47Z</time></trkpt><trkpt lat="50.57293138942528" lon="15.948397164339207"><ele>394.25</ele><time>2026-05-02T10:11:48Z</time></trkpt><trkpt lat="50.5728843721837" lon="15.948198244189664"><ele>395.0</ele><time>2026-05-02T10:11:49Z</time></trkpt><trkpt lat="50.57282404499147" lon="15.948021366646811"><ele>395.0</ele><time>2026-05-02T10:11:50Z</time></trkpt><trkpt lat="50.572790845596785" lon="15.947847827758476"><ele>395.0</ele><time>2026-05-02T10:11:51Z</time></trkpt><trkpt lat="50.57275834134322" lon="15.947682937553262"><ele>395.0</ele><time>2026-05-02T10:11:52Z</time></trkpt><trkpt lat="50.57271193105274" lon="15.947516405772225"><ele>395.0</ele><time>2026-05-02T10:11:53Z</time></trkpt><trkpt lat="50.57266078233523" lon="15.947339246458855"><ele>395.0</ele><time>2026-05-02T10:11:54Z</time></trkpt><trkpt lat="50.572600499178996" lon="15.947168308512536"><ele>395.0</ele><time>2026-05-02T10:11:55Z</time></trkpt><trkpt lat="50.572532170251165" lon="15.946994887204596"><ele>395.0</ele><time>2026-05-02T10:11:56Z</time></trkpt><trkpt lat="50.57246728391085" lon="15.946813382746978"><ele>395.0</ele><time>2026-05-02T10:11:57Z</time></trkpt><trkpt lat="50.57241179917645" lon="15.946657384245862"><ele>395.0</ele><time>2026-05-02T10:11:58Z</time></trkpt><trkpt lat="50.572368954105045" lon="15.946509770039361"><ele>395.0</ele><time>2026-05-02T10:11:59Z</time></trkpt><trkpt lat="50.57233567315629" lon="15.946368043866624"><ele>395.0</ele><time>2026-05-02T10:12:00Z</time></trkpt><trkpt lat="50.57228912531729" lon="15.946228439940725"><ele>395.0</ele><time>2026-05-02T10:12:01Z</time></trkpt><trkpt lat="50.57224160437718" lon="15.946071300084267"><ele>395.0</ele><time>2026-05-02T10:12:02Z</time></trkpt><trkpt lat="50.57220834969607" lon="15.945890139622175"><ele>395.2</ele><time>2026-05-02T10:12:03Z</time></trkpt><trkpt lat="50.572163513348876" lon="15.945710168853664"><ele>395.4</ele><time>2026-05-02T10:12:04Z</time></trkpt><trkpt lat="50.572127978779235" lon="15.945550605068236"><ele>395.6</ele><time>2026-05-02T10:12:05Z</time></trkpt><trkpt lat="50.572098925468595" lon="15.945407495143375"><ele>395.8</ele><time>2026-05-02T10:12:06Z</time></trkpt><trkpt lat="50.572066246246415" lon="15.94526334761396"><ele>396.0</ele><time>2026-05-02T10:12:07Z</time></trkpt><trkpt lat="50.57202593724911" lon="15.94510541602458"><ele>395.5</ele><time>2026-05-02T10:12:08Z</time></trkpt><trkpt lat="50.57198185156837" lon="15.944938536006743"><ele>395.0</ele><time>2026-05-02T10:12:09Z</time></trkpt><trkpt lat="50.57193297616804" lon="15.944772819261058"><ele>394.5</ele><time>2026-05-02T10:12:10Z</time></trkpt><trkpt lat="50.571888166458926" lon="15.944596463922391"><ele>394.0</ele><time>2026-05-02T10:12:11Z</time></trkpt><trkpt lat="50.57185342621579" lon="15.944401044327398"><ele>394.0</ele><time>2026-05-02T10:12:12Z</time></trkpt><trkpt lat="50.57181313043107" lon="15.944221045644007"><ele>394.0</ele><time>2026-05-02T10:12:13Z</time></trkpt><trkpt lat="50.571771647675" lon="15.944053007632288"><ele>394.0</ele><time>2026-05-02T10:12:14Z</time></trkpt><trkpt lat="50.571732385334315" lon="15.943890360059996"><ele>394.0</ele><time>2026-05-02T10:12:15Z</time></trkpt><trkpt lat="50.571694007396694" lon="15.943723811251187"><ele>394.2</ele><time>2026-05-02T10:12:16Z</time></trkpt><trkpt lat="50.571656101113646" lon="15.943561898434933"><ele>394.4</ele><time>2026-05-02T10:12:17Z</time></trkpt><trkpt lat="50.57161864349496" lon="15.943402647103419"><ele>394.6</ele><time>2026-05-02T10:12:18Z</time></trkpt><trkpt lat="50.571575618086676" lon="15.943242238069562"><ele>394.8</ele><time>2026-05-02T10:12:19Z</time></trkpt><trkpt lat="50.571525228017926" lon="15.943079451957507"><ele>395.0</ele><time>2026-05-02T10:12:20Z</time></trkpt><trkpt lat="50.571479819314746" lon="15.942912105240907"><ele>395.25</ele><time>2026-05-02T10:12:21Z</time></trkpt><trkpt lat="50.57145043779053" lon="15.942730461602963"><ele>395.5</ele><time>2026-05-02T10:12:22Z</time></trkpt><trkpt lat="50.57140142445519" lon="15.942560205165632"><ele>395.75</ele><time>2026-05-02T10:12:23Z</time></trkpt><trkpt lat="50.57133749896368" lon="15.9423964782843"><ele>396.0</ele><time>2026-05-02T10:12:24Z</time></trkpt><trkpt lat="50.57129118506927" lon="15.942210956249857"><ele>396.25</ele><time>2026-05-02T10:12:25Z</time></trkpt><trkpt lat="50.571226163422345" lon="15.942027474544286"><ele>396.5</ele><time>2026-05-02T10:12:26Z</time></trkpt><trkpt lat="50.57115310502684" lon="15.941840639974002"><ele>396.75</ele><time>2026-05-02T10:12:27Z</time></trkpt><trkpt lat="50.57110036191792" lon="15.941644190322252"><ele>397.0</ele><time>2026-05-02T10:12:28Z</time></trkpt><trkpt lat="50.57102655983808" lon="15.941484148375554"><ele>396.75</ele><time>2026-05-02T10:12:29Z</time></trkpt><trkpt lat="50.57096215712543" lon="15.941329858075669"><ele>396.5</ele><time>2026-05-02T10:12:30Z</time></trkpt><trkpt lat="50.57089842805769" lon="15.941159640585509"><ele>396.25</ele><time>2026-05-02T10:12:31Z</time></trkpt><trkpt lat="50.57081897165085" lon="15.941007836295"><ele>396.0</ele><time>2026-05-02T10:12:32Z</time></trkpt><trkpt lat="50.57074919768182" lon="15.940852303752989"><ele>396.0</ele><time>2026-05-02T10:12:33Z</time></trkpt><trkpt lat="50.57068295399873" lon="15.940695060589654"><ele>396.0</ele><time>2026-05-02T10:12:34Z</time></trkpt><trkpt lat="50.57060484390162" lon="15.940549635092347"><ele>396.0</ele><time>2026-05-02T10:12:35Z</time></trkpt><trkpt lat="50.57052766358276" lon="15.940381059915737"><ele>396.0</ele><time>2026-05-02T10:12:36Z</time></trkpt><trkpt lat="50.5704481489985" lon="15.940208484505675"><ele>396.25</ele><time>2026-05-02T10:12:37Z</time></trkpt><trkpt lat="50.57036478630698" lon="15.940048194300328"><ele>396.5</ele><time>2026-05-02T10:12:38Z</time></trkpt><trkpt lat="50.57027960772183" lon="15.939883349499452"><ele>396.75</ele><time>2026-05-02T10:12:39Z</time></trkpt><trkpt lat="50.5701978173757" lon="15.939711534313302"><ele>397.0</ele><time>2026-05-02T10:12:40Z</time></trkpt><trkpt lat="50.5701165675477" lon="15.939534476557924"><ele>397.25</ele><time>2026-05-02T10:12:41Z</time></trkpt><trkpt lat="50.57003753140978" lon="15.939360321217949"><ele>397.5</ele><time>2026-05-02T10:12:42Z</time></trkpt><trkpt lat="50.56996923051014" lon="15.93918390250438"><ele>397.75</ele><time>2026-05-02T10:12:43Z</time></trkpt><trkpt lat="50.569903520060585" lon="15.938990425497838"><ele>398.0</ele><time>2026-05-02T10:12:44Z</time></trkpt><trkpt lat="50.56983768608564" lon="15.938782350639872"><ele>398.25</ele><time>2026-05-02T10:12:45Z</time></trkpt><trkpt lat="50.569781002281104" lon="15.938575525258612"><ele>398.5</ele><time>2026-05-02T10:12:46Z</time></trkpt><trkpt lat="50.56973205167103" lon="15.938368772896105"><ele>398.75</ele><time>2026-05-02T10:12:47Z</time></trkpt><trkpt lat="50.56968679942033" lon="15.938159785434266"><ele>399.0</ele><time>2026-05-02T10:12:48Z</time></trkpt><trkpt lat="50.5696483113616" lon="15.937978596828808"><ele>399.0</ele><time>2026-05-02T10:12:49Z</time></trkpt><trkpt lat="50.569608923065616" lon="15.937795020765753"><ele>399.0</ele><time>2026-05-02T10:12:50Z</time></trkpt><trkpt lat="50.56956907287787" lon="15.937617894492385"><ele>399.0</ele><time>2026-05-02T10:12:51Z</time></trkpt><trkpt lat="50.56953119263026" lon="15.937431999952002"><ele>399.0</ele><time>2026-05-02T10:12:52Z</time></trkpt><trkpt lat="50.5694918758016" lon="15.937256162199908"><ele>398.75</ele><time>2026-05-02T10:12:53Z</time></trkpt><trkpt lat="50.569451730920306" lon="15.93707280135885"><ele>398.5</ele><time>2026-05-02T10:12:54Z</time></trkpt><trkpt lat="50.569415955517854" lon="15.936903340591307"><ele>398.25</ele><time>2026-05-02T10:12:55Z</time></trkpt><trkpt lat="50.56938066678467" lon="15.936723483074573"><ele>398.0</ele><time>2026-05-02T10:12:56Z</time></trkpt><trkpt lat="50.56933873433167" lon="15.936530193551565"><ele>398.5</ele><time>2026-05-02T10:12:57Z</time></trkpt><trkpt lat="50.56929424585922" lon="15.936333321007355"><ele>399.0</ele><time>2026-05-02T10:12:58Z</time></trkpt><trkpt lat="50.56925127101178" lon="15.936141973108652"><ele>399.5</ele><time>2026-05-02T10:12:59Z</time></trkpt><trkpt lat="50.56921319318866" lon="15.935963059100143"><ele>400.0</ele><time>2026-05-02T10:13:00Z</time></trkpt><trkpt lat="50.569176654984" lon="15.935791886141953"><ele>400.25</ele><time>2026-05-02T10:13:01Z</time></trkpt><trkpt lat="50.56913250206407" lon="15.93561267912078"><ele>400.5</ele><time>2026-05-02T10:13:02Z</time></trkpt><trkpt lat="50.56908306832415" lon="15.935425756521077"><ele>400.75</ele><time>2026-05-02T10:13:03Z</time></trkpt><trkpt lat="50.56902620027584" lon="15.935244407220079"><ele>401.0</ele><time>2026-05-02T10:13:04Z</time></trkpt><trkpt lat="50.56895995518823" lon="15.93506371509739"><ele>401.5</ele><time>2026-05-02T10:13:05Z</time></trkpt><trkpt lat="50.568903775881935" lon="15.934859058951927"><ele>402.0</ele><time>2026-05-02T10:13:06Z</time></trkpt><trkpt lat="50.568817354323016" lon="15.934664855907585"><ele>402.5</ele><time>2026-05-02T10:13:07Z</time></trkpt><trkpt lat="50.56873948594326" lon="15.934454292031624"><ele>403.0</ele><time>2026-05-02T10:13:08Z</time></trkpt><trkpt lat="50.568654429267305" lon="15.934241348300635"><ele>404.0</ele><time>2026-05-02T10:13:09Z</time></trkpt><trkpt lat="50.56856542530301" lon="15.934020674401648"><ele>405.0</ele><time>2026-05-02T10:13:10Z</time></trkpt><trkpt lat="50.56848416039087" lon="15.933800112336636"><ele>406.0</ele><time>2026-05-02T10:13:11Z</time></trkpt><trkpt lat="50.56839873501078" lon="15.933574926038405"><ele>405.0</ele><time>2026-05-02T10:13:12Z</time></trkpt><trkpt lat="50.56831195455941" lon="15.933355556784138"><ele>404.0</ele><time>2026-05-02T10:13:13Z</time></trkpt><trkpt lat="50.56821986964392" lon="15.933136983309907"><ele>403.0</ele><time>2026-05-02T10:13:14Z</time></trkpt><trkpt lat="50.568129446271435" lon="15.932933461521221"><ele>403.0</ele><time>2026-05-02T10:13:15Z</time></trkpt><trkpt lat="50.56804654742013" lon="15.932716749318464"><ele>403.0</ele><time>2026-05-02T10:13:16Z</time></trkpt><trkpt lat="50.567965105798585" lon="15.932507961587387"><ele>403.0</ele><time>2026-05-02T10:13:17Z</time></trkpt><trkpt lat="50.5678867352574" lon="15.9322948181488"><ele>403.25</ele><time>2026-05-02T10:13:18Z</time></trkpt><trkpt lat="50.56781173479824" lon="15.932089524104066"><ele>403.5</ele><time>2026-05-02T10:13:19Z</time></trkpt><trkpt lat="50.56773412132224" lon="15.931892057397604"><ele>403.75</ele><time>2026-05-02T10:13:20Z</time></trkpt><trkpt lat="50.56766672750743" lon="15.931701428579267"><ele>404.0</ele><time>2026-05-02T10:13:21Z</time></trkpt><trkpt lat="50.5676084480621" lon="15.931502066430157"><ele>404.25</ele><time>2026-05-02T10:13:22Z</time></trkpt><trkpt lat="50.5675479485997" lon="15.931304690377008"><ele>404.5</ele><time>2026-05-02T10:13:23Z</time></trkpt><trkpt lat="50.56747979093514" lon="15.931098419811754"><ele>404.75</ele><time>2026-05-02T10:13:24Z</time></trkpt><trkpt lat="50.56743311307559" lon="15.930912255343555"><ele>405.0</ele><time>2026-05-02T10:13:25Z</time></trkpt><trkpt lat="50.56737684793581" lon="15.930706231209902"><ele>405.0</ele><time>2026-05-02T10:13:26Z</time></trkpt><trkpt lat="50.56732372430958" lon="15.930513025551912"><ele>405.0</ele><time>2026-05-02T10:13:27Z</time></trkpt><trkpt lat="50.567278860376504" lon="15.930339210930214"><ele>405.0</ele><time>2026-05-02T10:13:28Z</time></trkpt><trkpt lat="50.567234456363884" lon="15.930163586018978"><ele>405.0</ele><time>2026-05-02T10:13:29Z</time></trkpt><trkpt lat="50.56719215913052" lon="15.929989768397734"><ele>405.0</ele><time>2026-05-02T10:13:30Z</time></trkpt><trkpt lat="50.567149251824986" lon="15.929812315756216"><ele>405.0</ele><time>2026-05-02T10:13:31Z</time></trkpt><trkpt lat="50.56711395902004" lon="15.929636190822746"><ele>405.0</ele><time>2026-05-02T10:13:32Z</time></trkpt><trkpt lat="50.56707401666814" lon="15.929457272664578"><ele>405.0</ele><time>2026-05-02T10:13:33Z</time></trkpt><trkpt lat="50.56703106226526" lon="15.929279550239334"><ele>406.0</ele><time>2026-05-02T10:13:34Z</time></trkpt><trkpt lat="50.56698928794126" lon="15.929096891020112"><ele>407.0</ele><time>2026-05-02T10:13:35Z</time></trkpt><trkpt lat="50.56695194650581" lon="15.92893024603635"><ele>408.0</ele><time>2026-05-02T10:13:36Z</time></trkpt><trkpt lat="50.5669200021351" lon="15.928783024547396"><ele>409.0</ele><time>2026-05-02T10:13:37Z</time></trkpt><trkpt lat="50.56689145389973" lon="15.928648870524501"><ele>410.0</ele><time>2026-05-02T10:13:38Z</time></trkpt><trkpt lat="50.5668683760282" lon="15.928520700988372"><ele>409.99999999999994</ele><time>2026-05-02T10:13:39Z</time></trkpt><trkpt lat="50.56686413486882" lon="15.928397480438663"><ele>410.0</ele><time>2026-05-02T10:13:40Z</time></trkpt><trkpt lat="50.56686226834428" lon="15.928272500865317"><ele>410.0</ele><time>2026-05-02T10:13:41Z</time></trkpt><trkpt lat="50.56685878783624" lon="15.928129018520588"><ele>410.0</ele><time>2026-05-02T10:13:42Z</time></trkpt><trkpt lat="50.56686351270396" lon="15.927989672016668"><ele>409.99999999999994</ele><time>2026-05-02T10:13:43Z</time></trkpt><trkpt lat="50.566867367884086" lon="15.927888125755235"><ele>410.0</ele><time>2026-05-02T10:13:44Z</time></trkpt><trkpt lat="50.56687457916121" lon="15.92775224251439"><ele>410.14285714285717</ele><time>2026-05-02T10:13:46Z</time></trkpt><trkpt lat="50.56687555441024" lon="15.92762593345444"><ele>410.2857142857143</ele><time>2026-05-02T10:13:49Z</time></trkpt><trkpt lat="50.56683969608948" lon="15.927529016380431"><ele>410.42857142857144</ele><time>2026-05-02T10:15:46Z</time></trkpt><trkpt lat="50.56684371691631" lon="15.92742179664412"><ele>410.57142857142856</ele><time>2026-05-02T10:15:55Z</time></trkpt><trkpt lat="50.56682537157882" lon="15.927323152166872"><ele>410.71428571428567</ele><time>2026-05-02T10:16:00Z</time></trkpt><trkpt lat="50.56679793476775" lon="15.927225399910029"><ele>410.85714285714283</ele><time>2026-05-02T10:16:04Z</time></trkpt><trkpt lat="50.566771452828135" lon="15.927104962936687"><ele>411.0</ele><time>2026-05-02T10:16:15Z</time></trkpt><trkpt lat="50.566745846128" lon="15.926856442587411"><ele>411.0</ele><time>2026-05-02T10:16:20Z</time></trkpt><trkpt lat="50.566738472453764" lon="15.926757983056744"><ele>411.0</ele><time>2026-05-02T10:16:21Z</time></trkpt><trkpt lat="50.56676342182788" lon="15.926900577741074"><ele>411.0</ele><time>2026-05-02T10:16:22Z</time></trkpt><trkpt lat="50.56680425717032" lon="15.927248703697167"><ele>411.0</ele><time>2026-05-02T10:17:01.662Z</time></trkpt><trkpt lat="50.566774201748046" lon="15.927432907900599"><ele>411.0</ele><time>2026-05-02T10:17:08.03Z</time></trkpt><trkpt lat="50.56683747946026" lon="15.927279342682379"><ele>411.0</ele><time>2026-05-02T10:17:11.032Z</time></trkpt><trkpt lat="50.5667694024683" lon="15.92725587607429"><ele>411.0</ele><time>2026-05-02T10:17:12.031Z</time></trkpt><trkpt lat="50.56681324020611" lon="15.927146883754594"><ele>411.0</ele><time>2026-05-02T10:17:14.032Z</time></trkpt><trkpt lat="50.566821908164044" lon="15.927270788524531"><ele>411.0</ele><time>2026-05-02T10:17:35Z</time></trkpt><trkpt lat="50.5668500949783" lon="15.927373084887105"><ele>411.0</ele><time>2026-05-02T10:18:15Z</time></trkpt><trkpt lat="50.566864348634454" lon="15.927481337944156"><ele>411.0</ele><time>2026-05-02T10:18:21Z</time></trkpt><trkpt lat="50.56688434087556" lon="15.927588443442355"><ele>411.0</ele><time>2026-05-02T10:18:26Z</time></trkpt><trkpt lat="50.566829291318136" lon="15.927455584739025"><ele>411.0</ele><time>2026-05-02T10:27:12Z</time></trkpt><trkpt lat="50.566787617054196" lon="15.927333979743038"><ele>411.0</ele><time>2026-05-02T10:27:13Z</time></trkpt><trkpt lat="50.56676139334016" lon="15.927228913844367"><ele>411.0</ele><time>2026-05-02T10:27:14Z</time></trkpt><trkpt lat="50.566720551760845" lon="15.927107891730477"><ele>411.0</ele><time>2026-05-02T10:27:16Z</time></trkpt><trkpt lat="50.56671895031121" lon="15.926951788082034"><ele>411.0</ele><time>2026-05-02T10:27:18Z</time></trkpt><trkpt lat="50.566799708849985" lon="15.926823872862578"><ele>411.0</ele><time>2026-05-02T10:27:20Z</time></trkpt><trkpt lat="50.56683652157221" lon="15.926735187410115"><ele>411.0</ele><time>2026-05-02T10:27:21.999Z</time></trkpt><trkpt lat="50.56678184926755" lon="15.926487655372389"><ele>411.0</ele><time>2026-05-02T10:27:23.999Z</time></trkpt><trkpt lat="50.56673427226337" lon="15.926365602022962"><ele>411.0</ele><time>2026-05-02T10:27:24.999Z</time></trkpt><trkpt lat="50.56667731885692" lon="15.926253070734294"><ele>411.1666666666667</ele><time>2026-05-02T10:27:25.999Z</time></trkpt><trkpt lat="50.566627552918185" lon="15.926137502461259"><ele>411.33333333333337</ele><time>2026-05-02T10:27:26.999Z</time></trkpt><trkpt lat="50.566579333655376" lon="15.926027536373335"><ele>411.5</ele><time>2026-05-02T10:27:27.999Z</time></trkpt><trkpt lat="50.56652904749848" lon="15.925941597158484"><ele>411.6666666666667</ele><time>2026-05-02T10:27:28.999Z</time></trkpt><trkpt lat="50.56647453493737" lon="15.925880436541973"><ele>411.83333333333337</ele><time>2026-05-02T10:27:29.999Z</time></trkpt><trkpt lat="50.56637850853131" lon="15.925838166911436"><ele>412.0</ele><time>2026-05-02T10:27:31.999Z</time></trkpt><trkpt lat="50.566311667017935" lon="15.925826376725327"><ele>411.6</ele><time>2026-05-02T10:27:33.999Z</time></trkpt><trkpt lat="50.56624031396924" lon="15.925728100055567"><ele>411.20000000000005</ele><time>2026-05-02T10:27:35.999Z</time></trkpt><trkpt lat="50.56620224022512" lon="15.925623278786665"><ele>410.8</ele><time>2026-05-02T10:27:36.999Z</time></trkpt><trkpt lat="50.56616525458466" lon="15.925488741367145"><ele>410.4</ele><time>2026-05-02T10:27:37.999Z</time></trkpt><trkpt lat="50.5661502730101" lon="15.925380254440212"><ele>410.0</ele><time>2026-05-02T10:27:38.999Z</time></trkpt><trkpt lat="50.56609979853223" lon="15.925198526592284"><ele>409.8333333333333</ele><time>2026-05-02T10:27:40.999Z</time></trkpt><trkpt lat="50.56607438430712" lon="15.925107021481752"><ele>409.66666666666663</ele><time>2026-05-02T10:27:41.999Z</time></trkpt><trkpt lat="50.56605404404735" lon="15.92501208248243"><ele>409.5</ele><time>2026-05-02T10:27:42.999Z</time></trkpt><trkpt lat="50.56602722281751" lon="15.92491437027424"><ele>409.33333333333337</ele><time>2026-05-02T10:27:43.999Z</time></trkpt><trkpt lat="50.56597076966009" lon="15.924738347934117"><ele>409.1666666666667</ele><time>2026-05-02T10:27:45.999Z</time></trkpt><trkpt lat="50.565942930447385" lon="15.92464851121611"><ele>409.0</ele><time>2026-05-02T10:27:46.999Z</time></trkpt><trkpt lat="50.56590288350498" lon="15.924548075413771"><ele>409.0</ele><time>2026-05-02T10:27:47.999Z</time></trkpt><trkpt lat="50.565856668040695" lon="15.924420166927893"><ele>409.0</ele><time>2026-05-02T10:27:48.999Z</time></trkpt><trkpt lat="50.565815859212236" lon="15.924318854239136"><ele>409.0</ele><time>2026-05-02T10:27:49.999Z</time></trkpt><trkpt lat="50.56577711008277" lon="15.924235890671744"><ele>409.0</ele><time>2026-05-02T10:27:50.999Z</time></trkpt><trkpt lat="50.56571309957575" lon="15.924093302622419"><ele>409.0</ele><time>2026-05-02T10:27:52.999Z</time></trkpt><trkpt lat="50.565638031784054" lon="15.923961004555967"><ele>409.00000000000006</ele><time>2026-05-02T10:27:54.999Z</time></trkpt><trkpt lat="50.56556348868905" lon="15.923878737578537"><ele>409.0</ele><time>2026-05-02T10:27:56.999Z</time></trkpt><trkpt lat="50.5655071387941" lon="15.923755235198142"><ele>409.0</ele><time>2026-05-02T10:27:58.999Z</time></trkpt><trkpt lat="50.56547946537916" lon="15.923657794882944"><ele>409.0</ele><time>2026-05-02T10:27:59.999Z</time></trkpt><trkpt lat="50.56544501446455" lon="15.92355119751467"><ele>409.00000000000006</ele><time>2026-05-02T10:28:00.999Z</time></trkpt><trkpt lat="50.56539150370669" lon="15.923455898047994"><ele>409.0</ele><time>2026-05-02T10:28:01.999Z</time></trkpt><trkpt lat="50.56533690160463" lon="15.923363014724755"><ele>409.0</ele><time>2026-05-02T10:28:02.999Z</time></trkpt><trkpt lat="50.56529142964479" lon="15.923261035038902"><ele>409.0</ele><time>2026-05-02T10:28:03.999Z</time></trkpt><trkpt lat="50.56525934916135" lon="15.923157963348388"><ele>409.0</ele><time>2026-05-02T10:28:04.999Z</time></trkpt><trkpt lat="50.5652257703201" lon="15.923063847126514"><ele>409.0</ele><time>2026-05-02T10:28:05.999Z</time></trkpt><trkpt lat="50.56518595679796" lon="15.922977256164945"><ele>409.0</ele><time>2026-05-02T10:28:06.999Z</time></trkpt><trkpt lat="50.56514006403205" lon="15.922892600487538"><ele>409.0</ele><time>2026-05-02T10:28:07.999Z</time></trkpt><trkpt lat="50.565099968552836" lon="15.922799144178482"><ele>409.0</ele><time>2026-05-02T10:28:08.999Z</time></trkpt><trkpt lat="50.56505859958156" lon="15.922698148261786"><ele>409.0</ele><time>2026-05-02T10:28:09.999Z</time></trkpt><trkpt lat="50.56500511578279" lon="15.922586179583167"><ele>409.0</ele><time>2026-05-02T10:28:10.999Z</time></trkpt><trkpt lat="50.564949716000726" lon="15.922464763289524"><ele>409.0</ele><time>2026-05-02T10:28:11.999Z</time></trkpt><trkpt lat="50.56488884178777" lon="15.922330528273486"><ele>409.0</ele><time>2026-05-02T10:28:12.999Z</time></trkpt><trkpt lat="50.564827332980684" lon="15.922176033507764"><ele>409.0</ele><time>2026-05-02T10:28:13.999Z</time></trkpt><trkpt lat="50.56476136296945" lon="15.922010668097512"><ele>409.25</ele><time>2026-05-02T10:28:14.999Z</time></trkpt><trkpt lat="50.56468423252224" lon="15.921823163661662"><ele>409.5</ele><time>2026-05-02T10:28:15.999Z</time></trkpt><trkpt lat="50.56460666605605" lon="15.921666201086571"><ele>409.75</ele><time>2026-05-02T10:28:16.999Z</time></trkpt><trkpt lat="50.564541805406115" lon="15.921522294514213"><ele>410.0</ele><time>2026-05-02T10:28:17.999Z</time></trkpt><trkpt lat="50.56447872148142" lon="15.921395906768803"><ele>410.2</ele><time>2026-05-02T10:28:18.999Z</time></trkpt><trkpt lat="50.564419625739674" lon="15.921265294979337"><ele>410.4</ele><time>2026-05-02T10:28:19.999Z</time></trkpt><trkpt lat="50.56435103189075" lon="15.921135414155055"><ele>410.6</ele><time>2026-05-02T10:28:20.999Z</time></trkpt><trkpt lat="50.56428786861486" lon="15.921019581236889"><ele>410.8</ele><time>2026-05-02T10:28:21.999Z</time></trkpt><trkpt lat="50.564232643555314" lon="15.920902644595394"><ele>411.0</ele><time>2026-05-02T10:28:22.999Z</time></trkpt><trkpt lat="50.56417728002871" lon="15.920787347757644"><ele>411.0</ele><time>2026-05-02T10:28:23.999Z</time></trkpt><trkpt lat="50.56412389801298" lon="15.920666908970642"><ele>411.0</ele><time>2026-05-02T10:28:24.999Z</time></trkpt><trkpt lat="50.564070216662046" lon="15.92054504832989"><ele>411.0</ele><time>2026-05-02T10:28:25.999Z</time></trkpt><trkpt lat="50.56401136061687" lon="15.92042456273878"><ele>411.0</ele><time>2026-05-02T10:28:26.999Z</time></trkpt><trkpt lat="50.56395503504809" lon="15.920300928291462"><ele>411.0</ele><time>2026-05-02T10:28:27.999Z</time></trkpt><trkpt lat="50.56389419512495" lon="15.920157600634033"><ele>410.75</ele><time>2026-05-02T10:28:28.999Z</time></trkpt><trkpt lat="50.56382389260636" lon="15.920003223879608"><ele>410.5</ele><time>2026-05-02T10:28:29.999Z</time></trkpt><trkpt lat="50.56373639542782" lon="15.919812672959688"><ele>410.25</ele><time>2026-05-02T10:28:30.999Z</time></trkpt><trkpt lat="50.56364267027141" lon="15.919610393892324"><ele>410.0</ele><time>2026-05-02T10:28:31.999Z</time></trkpt><trkpt lat="50.56356583115999" lon="15.919433541670283"><ele>410.4</ele><time>2026-05-02T10:28:32.999Z</time></trkpt><trkpt lat="50.56349125771749" lon="15.919280159542824"><ele>410.8</ele><time>2026-05-02T10:28:33.999Z</time></trkpt><trkpt lat="50.56342392130396" lon="15.919135332045405"><ele>411.20000000000005</ele><time>2026-05-02T10:28:34.999Z</time></trkpt><trkpt lat="50.563362589366214" lon="15.919001109380206"><ele>411.6</ele><time>2026-05-02T10:28:35.999Z</time></trkpt><trkpt lat="50.563308826339444" lon="15.918880091047196"><ele>412.0</ele><time>2026-05-02T10:28:36.999Z</time></trkpt><trkpt lat="50.56325612033096" lon="15.91875703289646"><ele>412.00000000000006</ele><time>2026-05-02T10:28:37.999Z</time></trkpt><trkpt lat="50.56320073279046" lon="15.918640991023544"><ele>412.0</ele><time>2026-05-02T10:28:38.999Z</time></trkpt><trkpt lat="50.56315302271219" lon="15.91853583506065"><ele>412.0</ele><time>2026-05-02T10:28:39.999Z</time></trkpt><trkpt lat="50.56310983696737" lon="15.918439678070795"><ele>412.0</ele><time>2026-05-02T10:28:40.999Z</time></trkpt><trkpt lat="50.563069519312805" lon="15.918355844915304"><ele>412.00000000000006</ele><time>2026-05-02T10:28:41.999Z</time></trkpt><trkpt lat="50.56302786744949" lon="15.918274740396031"><ele>412.0</ele><time>2026-05-02T10:28:42.999Z</time></trkpt><trkpt lat="50.56295885768674" lon="15.918119282851732"><ele>411.83333333333337</ele><time>2026-05-02T10:28:44.999Z</time></trkpt><trkpt lat="50.56290687838362" lon="15.91796558788049"><ele>411.6666666666667</ele><time>2026-05-02T10:28:46.999Z</time></trkpt><trkpt lat="50.562871288662684" lon="15.917867030605233"><ele>411.5</ele><time>2026-05-02T10:28:47.999Z</time></trkpt><trkpt lat="50.56285288691728" lon="15.917745144253935"><ele>411.33333333333337</ele><time>2026-05-02T10:28:48.999Z</time></trkpt><trkpt lat="50.56284188322903" lon="15.917638843685054"><ele>411.1666666666667</ele><time>2026-05-02T10:28:49.999Z</time></trkpt><trkpt lat="50.56280068300795" lon="15.917556919054409"><ele>411.0</ele><time>2026-05-02T10:28:50.999Z</time></trkpt><trkpt lat="50.56274012447308" lon="15.917525023461268"><ele>411.0</ele><time>2026-05-02T10:28:51.999Z</time></trkpt><trkpt lat="50.56267403112639" lon="15.917555031618498"><ele>411.0</ele><time>2026-05-02T10:28:52.999Z</time></trkpt><trkpt lat="50.56261421030297" lon="15.917619188133877"><ele>411.0</ele><time>2026-05-02T10:28:53.999Z</time></trkpt><trkpt lat="50.56254415376808" lon="15.917667682367494"><ele>411.0</ele><time>2026-05-02T10:28:54.999Z</time></trkpt><trkpt lat="50.562459606071165" lon="15.91764077680962"><ele>411.0</ele><time>2026-05-02T10:28:55.999Z</time></trkpt><trkpt lat="50.56236587275195" lon="15.917589302569489"><ele>411.0</ele><time>2026-05-02T10:28:56.999Z</time></trkpt><trkpt lat="50.56226043283529" lon="15.91754434161164"><ele>411.0</ele><time>2026-05-02T10:28:57.999Z</time></trkpt><trkpt lat="50.5621393546462" lon="15.917519425288557"><ele>411.0</ele><time>2026-05-02T10:28:58.999Z</time></trkpt><trkpt lat="50.562009979106826" lon="15.91747963789406"><ele>411.0</ele><time>2026-05-02T10:28:59.999Z</time></trkpt><trkpt lat="50.56189143855138" lon="15.917416264107269"><ele>411.0</ele><time>2026-05-02T10:29:00.999Z</time></trkpt><trkpt lat="50.56179329570428" lon="15.917342536897207"><ele>413.4</ele><time>2026-05-02T10:29:01.999Z</time></trkpt><trkpt lat="50.56169557682155" lon="15.917269624544943"><ele>415.8</ele><time>2026-05-02T10:29:02.999Z</time></trkpt><trkpt lat="50.56158984064748" lon="15.917196759670654"><ele>418.2</ele><time>2026-05-02T10:29:03.999Z</time></trkpt><trkpt lat="50.56149336634603" lon="15.91711199311037"><ele>420.59999999999997</ele><time>2026-05-02T10:29:04.999Z</time></trkpt><trkpt lat="50.56141286037966" lon="15.917032561676471"><ele>423.0</ele><time>2026-05-02T10:29:05.999Z</time></trkpt><trkpt lat="50.561322622387465" lon="15.916948031940452"><ele>423.0</ele><time>2026-05-02T10:29:06.999Z</time></trkpt><trkpt lat="50.56122291172702" lon="15.91685746142523"><ele>423.0</ele><time>2026-05-02T10:29:07.999Z</time></trkpt><trkpt lat="50.561122169850755" lon="15.916755894520323"><ele>423.0</ele><time>2026-05-02T10:29:08.999Z</time></trkpt><trkpt lat="50.561012148100545" lon="15.916617675810576"><ele>423.0</ele><time>2026-05-02T10:29:09.999Z</time></trkpt><trkpt lat="50.560921113688735" lon="15.916465831931145"><ele>423.75</ele><time>2026-05-02T10:29:10.999Z</time></trkpt><trkpt lat="50.56083856027862" lon="15.916309340569642"><ele>424.5</ele><time>2026-05-02T10:29:11.999Z</time></trkpt><trkpt lat="50.560754774359815" lon="15.91614767175465"><ele>425.25</ele><time>2026-05-02T10:29:12.999Z</time></trkpt><trkpt lat="50.56067552108362" lon="15.915980163447497"><ele>426.0</ele><time>2026-05-02T10:29:14Z</time></trkpt><trkpt lat="50.5605945750643" lon="15.915804653686797"><ele>426.33333333333337</ele><time>2026-05-02T10:29:15Z</time></trkpt><trkpt lat="50.56052175078438" lon="15.915591293210003"><ele>426.6666666666667</ele><time>2026-05-02T10:29:16Z</time></trkpt><trkpt lat="50.56044240072425" lon="15.915334105812029"><ele>427.0</ele><time>2026-05-02T10:29:17Z</time></trkpt><trkpt lat="50.56035940557426" lon="15.91506956510281"><ele>429.5</ele><time>2026-05-02T10:29:18Z</time></trkpt><trkpt lat="50.56027421211926" lon="15.914860675326665"><ele>432.0</ele><time>2026-05-02T10:29:19Z</time></trkpt><trkpt lat="50.56020240530044" lon="15.91468412653899"><ele>434.5</ele><time>2026-05-02T10:29:20Z</time></trkpt><trkpt lat="50.560140956454234" lon="15.91450967522415"><ele>437.0</ele><time>2026-05-02T10:29:21Z</time></trkpt><trkpt lat="50.560074412915085" lon="15.914331946580667"><ele>436.25</ele><time>2026-05-02T10:29:22Z</time></trkpt><trkpt lat="50.56000964727244" lon="15.914145997127129"><ele>435.5</ele><time>2026-05-02T10:29:23Z</time></trkpt><trkpt lat="50.55993992972196" lon="15.913957738616025"><ele>434.75</ele><time>2026-05-02T10:29:24Z</time></trkpt><trkpt lat="50.55986748654354" lon="15.913769952923124"><ele>434.0</ele><time>2026-05-02T10:29:25Z</time></trkpt><trkpt lat="50.55979752025486" lon="15.913579398339431"><ele>434.25</ele><time>2026-05-02T10:29:26Z</time></trkpt><trkpt lat="50.55973022827654" lon="15.913400312473577"><ele>434.5</ele><time>2026-05-02T10:29:27Z</time></trkpt><trkpt lat="50.559666830148004" lon="15.913231733141771"><ele>434.75</ele><time>2026-05-02T10:29:28Z</time></trkpt><trkpt lat="50.55961021493997" lon="15.913051485392039"><ele>435.0</ele><time>2026-05-02T10:29:29Z</time></trkpt><trkpt lat="50.55956048715282" lon="15.912857217664909"><ele>435.33333333333337</ele><time>2026-05-02T10:29:30Z</time></trkpt><trkpt lat="50.559505319775674" lon="15.912665836529388"><ele>435.6666666666667</ele><time>2026-05-02T10:29:31Z</time></trkpt><trkpt lat="50.559468720607065" lon="15.912440454167037"><ele>436.0</ele><time>2026-05-02T10:29:32Z</time></trkpt><trkpt lat="50.55944947151457" lon="15.912161374992811"><ele>436.0</ele><time>2026-05-02T10:29:33Z</time></trkpt><trkpt lat="50.55943043148286" lon="15.911892833945403"><ele>436.0</ele><time>2026-05-02T10:29:34Z</time></trkpt><trkpt lat="50.55942127824594" lon="15.911679540311033"><ele>436.0</ele><time>2026-05-02T10:29:35Z</time></trkpt><trkpt lat="50.559418220298724" lon="15.911476242190497"><ele>436.0</ele><time>2026-05-02T10:29:36Z</time></trkpt><trkpt lat="50.55941288788101" lon="15.911269905209457"><ele>436.0</ele><time>2026-05-02T10:29:37Z</time></trkpt><trkpt lat="50.55940495425528" lon="15.911055951321448"><ele>436.0</ele><time>2026-05-02T10:29:38Z</time></trkpt><trkpt lat="50.55939786852463" lon="15.910824797591664"><ele>436.0</ele><time>2026-05-02T10:29:39Z</time></trkpt><trkpt lat="50.559385802808634" lon="15.910622069130584"><ele>436.0</ele><time>2026-05-02T10:29:40Z</time></trkpt><trkpt lat="50.5593581290926" lon="15.910452251611282"><ele>436.75</ele><time>2026-05-02T10:29:41Z</time></trkpt><trkpt lat="50.55932747124399" lon="15.910285565753282"><ele>437.5</ele><time>2026-05-02T10:29:42Z</time></trkpt><trkpt lat="50.55929033154857" lon="15.910108540240255"><ele>438.25</ele><time>2026-05-02T10:29:43Z</time></trkpt><trkpt lat="50.559246310013954" lon="15.90992580085376"><ele>439.0</ele><time>2026-05-02T10:29:44Z</time></trkpt><trkpt lat="50.55918901925794" lon="15.909731412777512"><ele>439.75</ele><time>2026-05-02T10:29:45Z</time></trkpt><trkpt lat="50.55911986521266" lon="15.909538922258697"><ele>440.5</ele><time>2026-05-02T10:29:46Z</time></trkpt><trkpt lat="50.55905055143745" lon="15.909368308445142"><ele>441.25</ele><time>2026-05-02T10:29:47Z</time></trkpt><trkpt lat="50.558979147750215" lon="15.90920901624858"><ele>442.0</ele><time>2026-05-02T10:29:48Z</time></trkpt><trkpt lat="50.55889165610562" lon="15.909030426288675"><ele>442.20000000000005</ele><time>2026-05-02T10:29:49Z</time></trkpt><trkpt lat="50.5588136615851" lon="15.908859422599797"><ele>442.40000000000003</ele><time>2026-05-02T10:29:50Z</time></trkpt><trkpt lat="50.55875406777313" lon="15.908716748712653"><ele>442.59999999999997</ele><time>2026-05-02T10:29:51Z</time></trkpt><trkpt lat="50.558700239841166" lon="15.908599642732716"><ele>442.79999999999995</ele><time>2026-05-02T10:29:52Z</time></trkpt><trkpt lat="50.558652036417456" lon="15.908489532916569"><ele>443.0</ele><time>2026-05-02T10:29:53Z</time></trkpt><trkpt lat="50.558602317725395" lon="15.908373742152566"><ele>443.8333333333333</ele><time>2026-05-02T10:29:54Z</time></trkpt><trkpt lat="50.558555023596135" lon="15.908233029313564"><ele>444.66666666666663</ele><time>2026-05-02T10:29:54.999Z</time></trkpt><trkpt lat="50.558527937715205" lon="15.908093736007672"><ele>445.5</ele><time>2026-05-02T10:29:55.999Z</time></trkpt><trkpt lat="50.55852639806795" lon="15.90797159707044"><ele>446.33333333333337</ele><time>2026-05-02T10:29:56.999Z</time></trkpt><trkpt lat="50.558531162830526" lon="15.907843386293761"><ele>447.1666666666667</ele><time>2026-05-02T10:29:57.999Z</time></trkpt><trkpt lat="50.55849328489589" lon="15.907722880612159"><ele>448.0</ele><time>2026-05-02T10:29:58.999Z</time></trkpt><trkpt lat="50.55842660665234" lon="15.90761954650944"><ele>448.0</ele><time>2026-05-02T10:29:59.999Z</time></trkpt><trkpt lat="50.55838233278099" lon="15.907486832904578"><ele>447.99999999999994</ele><time>2026-05-02T10:30:00.999Z</time></trkpt><trkpt lat="50.55837453232889" lon="15.90731461296517"><ele>447.99999999999994</ele><time>2026-05-02T10:30:01.999Z</time></trkpt><trkpt lat="50.55836990436632" lon="15.907129216391613"><ele>448.0</ele><time>2026-05-02T10:30:02.999Z</time></trkpt><trkpt lat="50.558355902931375" lon="15.906948344952594"><ele>448.0</ele><time>2026-05-02T10:30:03.999Z</time></trkpt><trkpt lat="50.558346774534556" lon="15.906765282567765"><ele>448.5</ele><time>2026-05-02T10:30:04.999Z</time></trkpt><trkpt lat="50.55834489835501" lon="15.90657784721655"><ele>449.0</ele><time>2026-05-02T10:30:05.999Z</time></trkpt><trkpt lat="50.55833630102684" lon="15.906391303777406"><ele>449.5</ele><time>2026-05-02T10:30:06.999Z</time></trkpt><trkpt lat="50.55832688073266" lon="15.906218430666526"><ele>450.0</ele><time>2026-05-02T10:30:07.999Z</time></trkpt><trkpt lat="50.55831564935043" lon="15.906040606861149"><ele>449.75</ele><time>2026-05-02T10:30:08.999Z</time></trkpt><trkpt lat="50.558307413549116" lon="15.905858112641907"><ele>449.5</ele><time>2026-05-02T10:30:09.999Z</time></trkpt><trkpt lat="50.55830014806551" lon="15.905663328915402"><ele>449.25</ele><time>2026-05-02T10:30:10.999Z</time></trkpt><trkpt lat="50.55829106618509" lon="15.90547752500057"><ele>449.0</ele><time>2026-05-02T10:30:11.999Z</time></trkpt><trkpt lat="50.55827886000536" lon="15.905276114159545"><ele>448.75</ele><time>2026-05-02T10:30:12.999Z</time></trkpt><trkpt lat="50.55827044795619" lon="15.905066776509813"><ele>448.5</ele><time>2026-05-02T10:30:13.999Z</time></trkpt><trkpt lat="50.55826567604108" lon="15.904854426886084"><ele>448.25</ele><time>2026-05-02T10:30:14.999Z</time></trkpt><trkpt lat="50.55825757562457" lon="15.90466120657616"><ele>448.0</ele><time>2026-05-02T10:30:15.999Z</time></trkpt><trkpt lat="50.558249127219106" lon="15.904472880817748"><ele>448.0</ele><time>2026-05-02T10:30:16.999Z</time></trkpt><trkpt lat="50.558241502888706" lon="15.904283125248833"><ele>448.0</ele><time>2026-05-02T10:30:17.999Z</time></trkpt><trkpt lat="50.55823086447984" lon="15.904092260192487"><ele>448.0</ele><time>2026-05-02T10:30:18.999Z</time></trkpt><trkpt lat="50.55821896297414" lon="15.903897824981401"><ele>448.0</ele><time>2026-05-02T10:30:19.999Z</time></trkpt><trkpt lat="50.55820991149659" lon="15.903701877323263"><ele>447.75</ele><time>2026-05-02T10:30:20.999Z</time></trkpt><trkpt lat="50.558194844120706" lon="15.903491981872245"><ele>447.5</ele><time>2026-05-02T10:30:21.999Z</time></trkpt><trkpt lat="50.55820345686832" lon="15.903281807803332"><ele>447.25</ele><time>2026-05-02T10:30:22.999Z</time></trkpt><trkpt lat="50.55819939934919" lon="15.903146844852072"><ele>447.0</ele><time>2026-05-02T10:30:23.999Z</time></trkpt><trkpt lat="50.5581948929321" lon="15.902988403655597"><ele>446.3333333333333</ele><time>2026-05-02T10:30:24.999Z</time></trkpt><trkpt lat="50.55820274105456" lon="15.902845842358008"><ele>445.66666666666663</ele><time>2026-05-02T10:30:25.999Z</time></trkpt><trkpt lat="50.55821237597676" lon="15.902725481503918"><ele>445.0</ele><time>2026-05-02T10:30:26.999Z</time></trkpt><trkpt lat="50.55822116136384" lon="15.902602850033096"><ele>444.3333333333333</ele><time>2026-05-02T10:30:27.999Z</time></trkpt><trkpt lat="50.55826212578192" lon="15.90248592174277"><ele>443.66666666666663</ele><time>2026-05-02T10:30:28.999Z</time></trkpt><trkpt lat="50.558327190009926" lon="15.902413154021929"><ele>443.0</ele><time>2026-05-02T10:30:29.999Z</time></trkpt><trkpt lat="50.55841222513688" lon="15.902372063059856"><ele>443.25</ele><time>2026-05-02T10:30:30.999Z</time></trkpt><trkpt lat="50.55851663818427" lon="15.902360292105827"><ele>443.5</ele><time>2026-05-02T10:30:31.999Z</time></trkpt><trkpt lat="50.55865689844401" lon="15.902364589282811"><ele>443.75</ele><time>2026-05-02T10:30:32.999Z</time></trkpt><trkpt lat="50.558831771635774" lon="15.902366430460908"><ele>444.0</ele><time>2026-05-02T10:30:33.999Z</time></trkpt><trkpt lat="50.55899508982593" lon="15.902337338753364"><ele>444.0</ele><time>2026-05-02T10:30:34.999Z</time></trkpt><trkpt lat="50.55914509625019" lon="15.902320719898777"><ele>444.0</ele><time>2026-05-02T10:30:35.999Z</time></trkpt><trkpt lat="50.55929327107874" lon="15.902318256589343"><ele>444.0</ele><time>2026-05-02T10:30:36.999Z</time></trkpt><trkpt lat="50.5594474035598" lon="15.902306734252893"><ele>444.5</ele><time>2026-05-02T10:30:37.999Z</time></trkpt><trkpt lat="50.55958601276765" lon="15.902305516766072"><ele>445.0</ele><time>2026-05-02T10:30:38.999Z</time></trkpt><trkpt lat="50.55971580100437" lon="15.902323538738251"><ele>445.5</ele><time>2026-05-02T10:30:39.999Z</time></trkpt><trkpt lat="50.55983984573561" lon="15.902333503232677"><ele>446.0</ele><time>2026-05-02T10:30:40.999Z</time></trkpt><trkpt lat="50.559964621162194" lon="15.902356241541389"><ele>446.0</ele><time>2026-05-02T10:30:41.999Z</time></trkpt><trkpt lat="50.560086702594596" lon="15.902376925143333"><ele>446.0</ele><time>2026-05-02T10:30:42.999Z</time></trkpt><trkpt lat="50.560204700510845" lon="15.902402814486885"><ele>446.0</ele><time>2026-05-02T10:30:43.999Z</time></trkpt><trkpt lat="50.560326338673526" lon="15.902423211578204"><ele>446.0</ele><time>2026-05-02T10:30:44.999Z</time></trkpt><trkpt lat="50.560446399096044" lon="15.90243785760589"><ele>445.75</ele><time>2026-05-02T10:30:45.999Z</time></trkpt><trkpt lat="50.560564837229386" lon="15.902456620938473"><ele>445.5</ele><time>2026-05-02T10:30:46.999Z</time></trkpt><trkpt lat="50.56069146372972" lon="15.9024726390105"><ele>445.25</ele><time>2026-05-02T10:30:47.999Z</time></trkpt><trkpt lat="50.56082167264918" lon="15.902470966993233"><ele>445.0</ele><time>2026-05-02T10:30:49Z</time></trkpt><trkpt lat="50.56096546013622" lon="15.902447286656264"><ele>445.0</ele><time>2026-05-02T10:30:50Z</time></trkpt><trkpt lat="50.561083623966326" lon="15.902398030481464"><ele>445.0</ele><time>2026-05-02T10:30:51Z</time></trkpt><trkpt lat="50.561190717349426" lon="15.902321298566235"><ele>445.0</ele><time>2026-05-02T10:30:52Z</time></trkpt><trkpt lat="50.56130004466316" lon="15.902231655600481"><ele>445.0</ele><time>2026-05-02T10:30:53Z</time></trkpt><trkpt lat="50.56141331067473" lon="15.902144447307512"><ele>444.75</ele><time>2026-05-02T10:30:54Z</time></trkpt><trkpt lat="50.56152218274247" lon="15.902052240405927"><ele>444.5</ele><time>2026-05-02T10:30:55Z</time></trkpt><trkpt lat="50.56161341638222" lon="15.901945178804022"><ele>444.25</ele><time>2026-05-02T10:30:56Z</time></trkpt><trkpt lat="50.561688255465725" lon="15.901831342294997"><ele>444.0</ele><time>2026-05-02T10:30:57Z</time></trkpt><trkpt lat="50.56175296233362" lon="15.901692522695217"><ele>444.0</ele><time>2026-05-02T10:30:58Z</time></trkpt><trkpt lat="50.56182133426793" lon="15.901551137981304"><ele>444.0</ele><time>2026-05-02T10:30:59Z</time></trkpt><trkpt lat="50.561901024998434" lon="15.901409799077296"><ele>444.0</ele><time>2026-05-02T10:31:00Z</time></trkpt><trkpt lat="50.56198062692402" lon="15.901264982869538"><ele>444.0</ele><time>2026-05-02T10:31:01Z</time></trkpt><trkpt lat="50.56205098132062" lon="15.901138550610028"><ele>442.79999999999995</ele><time>2026-05-02T10:31:02Z</time></trkpt><trkpt lat="50.56211605386223" lon="15.90101705049866"><ele>441.59999999999997</ele><time>2026-05-02T10:31:03Z</time></trkpt><trkpt lat="50.56217542944211" lon="15.900894703289477"><ele>440.4</ele><time>2026-05-02T10:31:04Z</time></trkpt><trkpt lat="50.56223307021428" lon="15.900769621834797"><ele>439.2</ele><time>2026-05-02T10:31:05Z</time></trkpt><trkpt lat="50.5623039441227" lon="15.90066932002068"><ele>438.0</ele><time>2026-05-02T10:31:06Z</time></trkpt><trkpt lat="50.56235891179109" lon="15.90055503459088"><ele>438.0</ele><time>2026-05-02T10:31:07Z</time></trkpt><trkpt lat="50.56241656015126" lon="15.900423080424343"><ele>438.0</ele><time>2026-05-02T10:31:08Z</time></trkpt><trkpt lat="50.56250737053116" lon="15.900254065127811"><ele>438.0</ele><time>2026-05-02T10:31:09Z</time></trkpt><trkpt lat="50.5625866086871" lon="15.900102509103462"><ele>438.0</ele><time>2026-05-02T10:31:10Z</time></trkpt><trkpt lat="50.562653989805284" lon="15.899969317738885"><ele>438.2</ele><time>2026-05-02T10:31:11Z</time></trkpt><trkpt lat="50.56272181520667" lon="15.899857716852326"><ele>438.4</ele><time>2026-05-02T10:31:12Z</time></trkpt><trkpt lat="50.562773108607935" lon="15.899739098422241"><ele>438.59999999999997</ele><time>2026-05-02T10:31:13Z</time></trkpt><trkpt lat="50.5628500404032" lon="15.899618973790602"><ele>438.79999999999995</ele><time>2026-05-02T10:31:14Z</time></trkpt><trkpt lat="50.56293954910526" lon="15.899495306463795"><ele>439.0</ele><time>2026-05-02T10:31:15Z</time></trkpt><trkpt lat="50.56301827567232" lon="15.899358588067646"><ele>437.6</ele><time>2026-05-02T10:31:16Z</time></trkpt><trkpt lat="50.563105030231085" lon="15.899232097138295"><ele>436.2</ele><time>2026-05-02T10:31:17Z</time></trkpt><trkpt lat="50.56317941324837" lon="15.899134808467773"><ele>434.80000000000007</ele><time>2026-05-02T10:31:18Z</time></trkpt><trkpt lat="50.56323362236916" lon="15.899060299221624"><ele>433.40000000000003</ele><time>2026-05-02T10:31:19Z</time></trkpt><trkpt lat="50.563331418053885" lon="15.8989569401853"><ele>432.0</ele><time>2026-05-02T10:31:21Z</time></trkpt><trkpt lat="50.563444484916005" lon="15.89896239750486"><ele>432.0</ele><time>2026-05-02T10:31:23Z</time></trkpt><trkpt lat="50.56350731756454" lon="15.89902484784052"><ele>432.0</ele><time>2026-05-02T10:31:24Z</time></trkpt><trkpt lat="50.56358636950153" lon="15.899061554297406"><ele>432.0</ele><time>2026-05-02T10:31:26Z</time></trkpt><trkpt lat="50.5636676250946" lon="15.899010735435407"><ele>432.0</ele><time>2026-05-02T10:31:28Z</time></trkpt><trkpt lat="50.56371178652937" lon="15.8989207784178"><ele>432.0</ele><time>2026-05-02T10:31:29Z</time></trkpt><trkpt lat="50.56374474861296" lon="15.898820601120752"><ele>432.0</ele><time>2026-05-02T10:31:30Z</time></trkpt><trkpt lat="50.563769751781514" lon="15.898715765358416"><ele>432.0</ele><time>2026-05-02T10:31:31Z</time></trkpt><trkpt lat="50.56379039929945" lon="15.898613968781738"><ele>432.0</ele><time>2026-05-02T10:31:32Z</time></trkpt><trkpt lat="50.56386814359674" lon="15.898531249284204"><ele>432.0</ele><time>2026-05-02T10:31:33Z</time></trkpt><trkpt lat="50.56394200110463" lon="15.89846005653826"><ele>432.0</ele><time>2026-05-02T10:31:34Z</time></trkpt><trkpt lat="50.564026833457795" lon="15.898393850117374"><ele>432.0</ele><time>2026-05-02T10:31:35Z</time></trkpt><trkpt lat="50.56412016818086" lon="15.898335122556432"><ele>432.0</ele><time>2026-05-02T10:31:36Z</time></trkpt><trkpt lat="50.56422339640252" lon="15.898275598654916"><ele>432.0</ele><time>2026-05-02T10:31:37Z</time></trkpt><trkpt lat="50.564329348345666" lon="15.898237469610207"><ele>432.00000000000006</ele><time>2026-05-02T10:31:38Z</time></trkpt><trkpt lat="50.564432355664565" lon="15.89819216739358"><ele>432.00000000000006</ele><time>2026-05-02T10:31:39Z</time></trkpt><trkpt lat="50.564529720451596" lon="15.898137586325287"><ele>432.0</ele><time>2026-05-02T10:31:40Z</time></trkpt><trkpt lat="50.5646198957388" lon="15.89808329262312"><ele>432.0</ele><time>2026-05-02T10:31:41Z</time></trkpt><trkpt lat="50.564723053143226" lon="15.898021592276521"><ele>433.0</ele><time>2026-05-02T10:31:42Z</time></trkpt><trkpt lat="50.56483369526287" lon="15.897961288134203"><ele>434.0</ele><time>2026-05-02T10:31:43Z</time></trkpt><trkpt lat="50.56494807681368" lon="15.89790953134113"><ele>435.0</ele><time>2026-05-02T10:31:44Z</time></trkpt><trkpt lat="50.565060983970916" lon="15.897859318119462"><ele>436.0</ele><time>2026-05-02T10:31:45Z</time></trkpt><trkpt lat="50.56516573132669" lon="15.897809724141455"><ele>436.0</ele><time>2026-05-02T10:31:46Z</time></trkpt><trkpt lat="50.56526652330076" lon="15.89775638013853"><ele>436.0</ele><time>2026-05-02T10:31:47Z</time></trkpt><trkpt lat="50.5653715997877" lon="15.897703091384297"><ele>436.0</ele><time>2026-05-02T10:31:48Z</time></trkpt><trkpt lat="50.565475489903285" lon="15.897649352004054"><ele>436.0</ele><time>2026-05-02T10:31:49Z</time></trkpt><trkpt lat="50.56557852367536" lon="15.897587178802029"><ele>436.0</ele><time>2026-05-02T10:31:50Z</time></trkpt><trkpt lat="50.56567896985329" lon="15.897523614241493"><ele>436.4</ele><time>2026-05-02T10:31:51Z</time></trkpt><trkpt lat="50.56578027396676" lon="15.897465260274053"><ele>436.8</ele><time>2026-05-02T10:31:52Z</time></trkpt><trkpt lat="50.565885336961784" lon="15.897409353533023"><ele>437.19999999999993</ele><time>2026-05-02T10:31:53Z</time></trkpt><trkpt lat="50.565989860155746" lon="15.897351819274284"><ele>437.59999999999997</ele><time>2026-05-02T10:31:54Z</time></trkpt><trkpt lat="50.56609392700013" lon="15.897294201111215"><ele>438.0</ele><time>2026-05-02T10:31:55Z</time></trkpt><trkpt lat="50.56620045101587" lon="15.89723140119357"><ele>438.0</ele><time>2026-05-02T10:31:56Z</time></trkpt><trkpt lat="50.56630792916083" lon="15.897177865830772"><ele>438.0</ele><time>2026-05-02T10:31:57Z</time></trkpt><trkpt lat="50.56641762373238" lon="15.897122641630771"><ele>438.0</ele><time>2026-05-02T10:31:58Z</time></trkpt><trkpt lat="50.56652690988946" lon="15.8970668210272"><ele>438.0</ele><time>2026-05-02T10:31:59Z</time></trkpt><trkpt lat="50.566634145777925" lon="15.897010000655312"><ele>438.0</ele><time>2026-05-02T10:32:00Z</time></trkpt><trkpt lat="50.566733265701956" lon="15.896956703762106"><ele>438.0</ele><time>2026-05-02T10:32:01Z</time></trkpt><trkpt lat="50.566818734571214" lon="15.896912847753242"><ele>438.0</ele><time>2026-05-02T10:32:02Z</time></trkpt><trkpt lat="50.566897182418636" lon="15.89687281489884"><ele>438.0</ele><time>2026-05-02T10:32:03Z</time></trkpt><trkpt lat="50.56697234319852" lon="15.896840986665543"><ele>438.0</ele><time>2026-05-02T10:32:04Z</time></trkpt><trkpt lat="50.56704667193745" lon="15.89680211998265"><ele>438.0</ele><time>2026-05-02T10:32:05Z</time></trkpt><trkpt lat="50.567130012244824" lon="15.896747789917889"><ele>437.4</ele><time>2026-05-02T10:32:06Z</time></trkpt><trkpt lat="50.5672240129065" lon="15.896702682760845"><ele>436.79999999999995</ele><time>2026-05-02T10:32:07Z</time></trkpt><trkpt lat="50.56731847561654" lon="15.896653150985257"><ele>436.2</ele><time>2026-05-02T10:32:08Z</time></trkpt><trkpt lat="50.567410234876" lon="15.896600297108447"><ele>435.6</ele><time>2026-05-02T10:32:09Z</time></trkpt><trkpt lat="50.56749870240858" lon="15.89654966266141"><ele>435.0</ele><time>2026-05-02T10:32:10Z</time></trkpt><trkpt lat="50.56757647144864" lon="15.896512236788876"><ele>435.0</ele><time>2026-05-02T10:32:11Z</time></trkpt><trkpt lat="50.56764860577445" lon="15.896474036864777"><ele>435.0</ele><time>2026-05-02T10:32:12Z</time></trkpt><trkpt lat="50.567715249945266" lon="15.896434636769381"><ele>435.0</ele><time>2026-05-02T10:32:13Z</time></trkpt><trkpt lat="50.56782896253429" lon="15.896384218768798"><ele>435.0</ele><time>2026-05-02T10:32:15Z</time></trkpt><trkpt lat="50.56792324893475" lon="15.896340704700952"><ele>435.0</ele><time>2026-05-02T10:32:17Z</time></trkpt><trkpt lat="50.56800523781915" lon="15.896305060843597"><ele>435.0</ele><time>2026-05-02T10:32:19Z</time></trkpt><trkpt lat="50.56807660513612" lon="15.896271685620011"><ele>434.5</ele><time>2026-05-02T10:32:21Z</time></trkpt><trkpt lat="50.56815222701495" lon="15.896232088909063"><ele>434.0</ele><time>2026-05-02T10:32:24Z</time></trkpt><trkpt lat="50.568253485381845" lon="15.896179112496629"><ele>433.5</ele><time>2026-05-02T10:32:27Z</time></trkpt><trkpt lat="50.56831861666039" lon="15.896168273352036"><ele>433.0</ele><time>2026-05-02T10:32:28Z</time></trkpt><trkpt lat="50.568387674739775" lon="15.896189043462329"><ele>432.5</ele><time>2026-05-02T10:32:29Z</time></trkpt><trkpt lat="50.568508596742255" lon="15.896186015671542"><ele>432.0</ele><time>2026-05-02T10:32:31Z</time></trkpt><trkpt lat="50.56857284565856" lon="15.89613869194662"><ele>432.0</ele><time>2026-05-02T10:32:32Z</time></trkpt><trkpt lat="50.5686235996722" lon="15.896058389232536"><ele>432.00000000000006</ele><time>2026-05-02T10:32:33Z</time></trkpt><trkpt lat="50.56868554466553" lon="15.895956312759793"><ele>432.00000000000006</ele><time>2026-05-02T10:32:34Z</time></trkpt><trkpt lat="50.56878726893941" lon="15.895858340990568"><ele>432.0</ele><time>2026-05-02T10:32:35Z</time></trkpt><trkpt lat="50.56892553145165" lon="15.895772428592933"><ele>432.0</ele><time>2026-05-02T10:32:36Z</time></trkpt><trkpt lat="50.56908307683317" lon="15.895687925167142"><ele>431.66666666666663</ele><time>2026-05-02T10:32:37Z</time></trkpt><trkpt lat="50.56925435328079" lon="15.895580169885582"><ele>431.3333333333333</ele><time>2026-05-02T10:32:38Z</time></trkpt><trkpt lat="50.56943979104149" lon="15.895436971956398"><ele>431.0</ele><time>2026-05-02T10:32:39Z</time></trkpt><trkpt lat="50.56962841997481" lon="15.895295464743489"><ele>431.0</ele><time>2026-05-02T10:32:40Z</time></trkpt><trkpt lat="50.569824800808085" lon="15.895159473430322"><ele>431.0</ele><time>2026-05-02T10:32:41Z</time></trkpt><trkpt lat="50.57003366223897" lon="15.895011312967178"><ele>431.0</ele><time>2026-05-02T10:32:42Z</time></trkpt><trkpt lat="50.57025454285989" lon="15.8948420876667"><ele>430.5</ele><time>2026-05-02T10:32:43Z</time></trkpt><trkpt lat="50.57046146772314" lon="15.89467569342146"><ele>430.0</ele><time>2026-05-02T10:32:44Z</time></trkpt><trkpt lat="50.5706663084344" lon="15.894515018612225"><ele>430.0</ele><time>2026-05-02T10:32:45Z</time></trkpt><trkpt lat="50.57088673527643" lon="15.89435380509916"><ele>430.0</ele><time>2026-05-02T10:32:46Z</time></trkpt><trkpt lat="50.571097818498245" lon="15.894171929174831"><ele>432.0</ele><time>2026-05-02T10:32:47Z</time></trkpt><trkpt lat="50.57130237039391" lon="15.89398191778981"><ele>434.0</ele><time>2026-05-02T10:32:48Z</time></trkpt><trkpt lat="50.571508649441036" lon="15.893777634974144"><ele>434.0</ele><time>2026-05-02T10:32:49Z</time></trkpt><trkpt lat="50.57172401667625" lon="15.893571114104866"><ele>434.0</ele><time>2026-05-02T10:32:50Z</time></trkpt><trkpt lat="50.57193792763417" lon="15.893370031088098"><ele>434.0</ele><time>2026-05-02T10:32:51Z</time></trkpt><trkpt lat="50.572143938329916" lon="15.893168216148577"><ele>434.0</ele><time>2026-05-02T10:32:52Z</time></trkpt><trkpt lat="50.5723479895643" lon="15.892967482520591"><ele>434.0</ele><time>2026-05-02T10:32:53Z</time></trkpt><trkpt lat="50.57255232122295" lon="15.892771419725916"><ele>434.0</ele><time>2026-05-02T10:32:54Z</time></trkpt><trkpt lat="50.57275804140699" lon="15.892576741768465"><ele>432.0</ele><time>2026-05-02T10:32:55Z</time></trkpt><trkpt lat="50.57296591897205" lon="15.892382934674147"><ele>430.0</ele><time>2026-05-02T10:32:56Z</time></trkpt><trkpt lat="50.57316696898083" lon="15.892193703696494"><ele>430.0</ele><time>2026-05-02T10:32:57Z</time></trkpt><trkpt lat="50.573362420476116" lon="15.892009483514379"><ele>430.0</ele><time>2026-05-02T10:32:58Z</time></trkpt><trkpt lat="50.57355366950442" lon="15.891827216452844"><ele>430.6666666666667</ele><time>2026-05-02T10:32:59Z</time></trkpt><trkpt lat="50.573735086755434" lon="15.89165180741708"><ele>431.33333333333337</ele><time>2026-05-02T10:33:00Z</time></trkpt><trkpt lat="50.57390246386648" lon="15.891493985496345"><ele>432.0</ele><time>2026-05-02T10:33:01Z</time></trkpt><trkpt lat="50.5740588712223" lon="15.891338110318156"><ele>432.0</ele><time>2026-05-02T10:33:02Z</time></trkpt><trkpt lat="50.574212044108904" lon="15.891186239767393"><ele>432.0</ele><time>2026-05-02T10:33:03Z</time></trkpt><trkpt lat="50.57436909358184" lon="15.891034092750733"><ele>432.0</ele><time>2026-05-02T10:33:04Z</time></trkpt><trkpt lat="50.57453286673769" lon="15.890878477809723"><ele>433.0</ele><time>2026-05-02T10:33:05Z</time></trkpt><trkpt lat="50.57469875753543" lon="15.89072286770327"><ele>434.0</ele><time>2026-05-02T10:33:06Z</time></trkpt><trkpt lat="50.57486181457944" lon="15.890568823145205"><ele>435.0</ele><time>2026-05-02T10:33:07Z</time></trkpt><trkpt lat="50.575019031412054" lon="15.890419633039357"><ele>435.0</ele><time>2026-05-02T10:33:08Z</time></trkpt><trkpt lat="50.5751762368955" lon="15.890270029701101"><ele>435.0</ele><time>2026-05-02T10:33:09Z</time></trkpt><trkpt lat="50.57533333253091" lon="15.89011575771723"><ele>435.0</ele><time>2026-05-02T10:33:10Z</time></trkpt><trkpt lat="50.57549159586773" lon="15.88996347026931"><ele>435.33333333333337</ele><time>2026-05-02T10:33:11Z</time></trkpt><trkpt lat="50.575654963376074" lon="15.889807268288271"><ele>435.6666666666667</ele><time>2026-05-02T10:33:12Z</time></trkpt><trkpt lat="50.5758265979183" lon="15.88964183810005"><ele>436.0</ele><time>2026-05-02T10:33:13Z</time></trkpt><trkpt lat="50.576008618275964" lon="15.889472336761694"><ele>435.0</ele><time>2026-05-02T10:33:14Z</time></trkpt><trkpt lat="50.57621184397768" lon="15.889283698266496"><ele>434.0</ele><time>2026-05-02T10:33:15Z</time></trkpt><trkpt lat="50.57640732253023" lon="15.889092394727466"><ele>434.0</ele><time>2026-05-02T10:33:16Z</time></trkpt><trkpt lat="50.576613211967135" lon="15.888879945846073"><ele>434.0</ele><time>2026-05-02T10:33:17Z</time></trkpt><trkpt lat="50.576842867941316" lon="15.888650777132886"><ele>435.5</ele><time>2026-05-02T10:33:18Z</time></trkpt><trkpt lat="50.57708645125822" lon="15.88842018547014"><ele>437.0</ele><time>2026-05-02T10:33:19Z</time></trkpt><trkpt lat="50.57732913253528" lon="15.888186216579863"><ele>437.0</ele><time>2026-05-02T10:33:20Z</time></trkpt><trkpt lat="50.577553139289144" lon="15.887976620383506"><ele>437.0</ele><time>2026-05-02T10:33:21Z</time></trkpt><trkpt lat="50.577752888967765" lon="15.887802750266571"><ele>435.5</ele><time>2026-05-02T10:33:22Z</time></trkpt><trkpt lat="50.57794579105929" lon="15.887635483841773"><ele>434.0</ele><time>2026-05-02T10:33:23Z</time></trkpt><trkpt lat="50.578168399429764" lon="15.887423908789646"><ele>433.5</ele><time>2026-05-02T10:33:24Z</time></trkpt><trkpt lat="50.578421153121795" lon="15.887167448063568"><ele>433.0</ele><time>2026-05-02T10:33:25Z</time></trkpt><trkpt lat="50.57870025115217" lon="15.886884000012262"><ele>436.5</ele><time>2026-05-02T10:33:26Z</time></trkpt><trkpt lat="50.578987769540795" lon="15.886602344686422"><ele>440.0</ele><time>2026-05-02T10:33:27Z</time></trkpt><trkpt lat="50.57927549409853" lon="15.886342303032356"><ele>439.0</ele><time>2026-05-02T10:33:28Z</time></trkpt><trkpt lat="50.579553862717894" lon="15.886101827274654"><ele>438.0</ele><time>2026-05-02T10:33:29Z</time></trkpt><trkpt lat="50.579843374193274" lon="15.885841073195145"><ele>440.5</ele><time>2026-05-02T10:33:30Z</time></trkpt><trkpt lat="50.58015107651532" lon="15.885535410731947"><ele>443.0</ele><time>2026-05-02T10:33:31Z</time></trkpt><trkpt lat="50.580471911801546" lon="15.885227542213077"><ele>446.0</ele><time>2026-05-02T10:33:32Z</time></trkpt><trkpt lat="50.58076252889528" lon="15.88495345265168"><ele>449.0</ele><time>2026-05-02T10:33:33Z</time></trkpt><trkpt lat="50.581039586259564" lon="15.884688546313503"><ele>448.0</ele><time>2026-05-02T10:33:34Z</time></trkpt><trkpt lat="50.5813176942734" lon="15.884420302698393"><ele>447.0</ele><time>2026-05-02T10:33:35Z</time></trkpt><trkpt lat="50.58160848333211" lon="15.884145947600507"><ele>449.0</ele><time>2026-05-02T10:33:36Z</time></trkpt><trkpt lat="50.58189729769211" lon="15.88387435819553"><ele>451.0</ele><time>2026-05-02T10:33:37Z</time></trkpt><trkpt lat="50.58217628627855" lon="15.883610578486163"><ele>448.0</ele><time>2026-05-02T10:33:38Z</time></trkpt><trkpt lat="50.582451612964" lon="15.883347357188558"><ele>445.0</ele><time>2026-05-02T10:33:39Z</time></trkpt><trkpt lat="50.58273160877774" lon="15.883080153653186"><ele>447.0</ele><time>2026-05-02T10:33:40Z</time></trkpt><trkpt lat="50.58302302366014" lon="15.882799545065133"><ele>449.0</ele><time>2026-05-02T10:33:41Z</time></trkpt><trkpt lat="50.58332180848682" lon="15.882555720964591"><ele>449.0</ele><time>2026-05-02T10:33:42Z</time></trkpt><trkpt lat="50.58358783825592" lon="15.882261798091289"><ele>449.0</ele><time>2026-05-02T10:33:43Z</time></trkpt><trkpt lat="50.583859177661644" lon="15.88199755583137"><ele>452.0</ele><time>2026-05-02T10:33:44Z</time></trkpt><trkpt lat="50.58413606192765" lon="15.881728786081824"><ele>455.0</ele><time>2026-05-02T10:33:45Z</time></trkpt><trkpt lat="50.58441498207142" lon="15.881462968601415"><ele>454.0</ele><time>2026-05-02T10:33:46Z</time></trkpt><trkpt lat="50.58469483616554" lon="15.881197226455031"><ele>453.0</ele><time>2026-05-02T10:33:47Z</time></trkpt><trkpt lat="50.5849694442003" lon="15.880935810077418"><ele>455.0</ele><time>2026-05-02T10:33:48Z</time></trkpt><trkpt lat="50.58523469144119" lon="15.880685256027457"><ele>457.0</ele><time>2026-05-02T10:33:49Z</time></trkpt><trkpt lat="50.58548700538836" lon="15.880442789122686"><ele>457.5</ele><time>2026-05-02T10:33:50Z</time></trkpt><trkpt lat="50.58571972653416" lon="15.880221753876645"><ele>458.0</ele><time>2026-05-02T10:33:51Z</time></trkpt><trkpt lat="50.585938122639405" lon="15.880015898811596"><ele>460.0</ele><time>2026-05-02T10:33:52Z</time></trkpt><trkpt lat="50.58615732282494" lon="15.879823840665676"><ele>462.0</ele><time>2026-05-02T10:33:53Z</time></trkpt><trkpt lat="50.58638053281873" lon="15.879642683043421"><ele>463.5</ele><time>2026-05-02T10:33:54Z</time></trkpt><trkpt lat="50.58660591127245" lon="15.879485134915559"><ele>465.0</ele><time>2026-05-02T10:33:55Z</time></trkpt><trkpt lat="50.5868393069433" lon="15.879341670844893"><ele>467.5</ele><time>2026-05-02T10:33:56Z</time></trkpt><trkpt lat="50.587074017780026" lon="15.879229446275493"><ele>470.0</ele><time>2026-05-02T10:33:57Z</time></trkpt><trkpt lat="50.58731315360286" lon="15.879142264865232"><ele>470.0</ele><time>2026-05-02T10:33:58Z</time></trkpt><trkpt lat="50.587562708216225" lon="15.879075719984616"><ele>470.0</ele><time>2026-05-02T10:33:59Z</time></trkpt><trkpt lat="50.58782151736892" lon="15.879033354608799"><ele>469.5</ele><time>2026-05-02T10:34:00Z</time></trkpt><trkpt lat="50.58808992482591" lon="15.879017243896108"><ele>469.0</ele><time>2026-05-02T10:34:01Z</time></trkpt><trkpt lat="50.58833795939394" lon="15.879024733619998"><ele>469.0</ele><time>2026-05-02T10:34:02Z</time></trkpt><trkpt lat="50.588591014862395" lon="15.879037262108847"><ele>469.0</ele><time>2026-05-02T10:34:03Z</time></trkpt><trkpt lat="50.588844019209716" lon="15.879041505457822"><ele>471.5</ele><time>2026-05-02T10:34:04Z</time></trkpt><trkpt lat="50.58909798319649" lon="15.87903435916523"><ele>474.0</ele><time>2026-05-02T10:34:05Z</time></trkpt><trkpt lat="50.589353283496045" lon="15.879011882057473"><ele>471.0</ele><time>2026-05-02T10:34:06Z</time></trkpt><trkpt lat="50.589618429265336" lon="15.878967494352304"><ele>468.0</ele><time>2026-05-02T10:34:07Z</time></trkpt><trkpt lat="50.58989134296171" lon="15.878891389081156"><ele>468.0</ele><time>2026-05-02T10:34:08Z</time></trkpt><trkpt lat="50.59017256477471" lon="15.878779645969948"><ele>468.0</ele><time>2026-05-02T10:34:09Z</time></trkpt><trkpt lat="50.59046856587646" lon="15.878632391569832"><ele>467.0</ele><time>2026-05-02T10:34:10Z</time></trkpt><trkpt lat="50.59077180090205" lon="15.878466805242345"><ele>466.0</ele><time>2026-05-02T10:34:11Z</time></trkpt><trkpt lat="50.59107559795707" lon="15.878298801263835"><ele>466.5</ele><time>2026-05-02T10:34:12Z</time></trkpt><trkpt lat="50.59138294858627" lon="15.878137580484681"><ele>467.0</ele><time>2026-05-02T10:34:13Z</time></trkpt><trkpt lat="50.59167953803397" lon="15.877983364105418"><ele>467.0</ele><time>2026-05-02T10:34:14Z</time></trkpt><trkpt lat="50.59195245895405" lon="15.877843237446342"><ele>467.0</ele><time>2026-05-02T10:34:15Z</time></trkpt><trkpt lat="50.59222385393377" lon="15.87770266449848"><ele>467.0</ele><time>2026-05-02T10:34:16Z</time></trkpt><trkpt lat="50.59249845344602" lon="15.877549606060438"><ele>467.0</ele><time>2026-05-02T10:34:17Z</time></trkpt><trkpt lat="50.59277615064073" lon="15.877392426608573"><ele>463.0</ele><time>2026-05-02T10:34:18Z</time></trkpt><trkpt lat="50.59306015586038" lon="15.877242541439527"><ele>459.0</ele><time>2026-05-02T10:34:19Z</time></trkpt><trkpt lat="50.593341293652706" lon="15.877097494685891"><ele>459.0</ele><time>2026-05-02T10:34:20Z</time></trkpt><trkpt lat="50.59361182501324" lon="15.876964102511224"><ele>459.0</ele><time>2026-05-02T10:34:21Z</time></trkpt><trkpt lat="50.59387741338338" lon="15.876836127828408"><ele>463.0</ele><time>2026-05-02T10:34:22Z</time></trkpt><trkpt lat="50.59413662417433" lon="15.87673122840689"><ele>467.0</ele><time>2026-05-02T10:34:23Z</time></trkpt><trkpt lat="50.594397993159454" lon="15.876650123674969"><ele>467.5</ele><time>2026-05-02T10:34:24Z</time></trkpt><trkpt lat="50.594663942076316" lon="15.876589710349096"><ele>468.0</ele><time>2026-05-02T10:34:25Z</time></trkpt><trkpt lat="50.59493738187141" lon="15.876542020404182"><ele>468.0</ele><time>2026-05-02T10:34:26Z</time></trkpt><trkpt lat="50.595207574556525" lon="15.876511312054566"><ele>468.0</ele><time>2026-05-02T10:34:27Z</time></trkpt><trkpt lat="50.59546892841015" lon="15.876496054860478"><ele>464.0</ele><time>2026-05-02T10:34:28Z</time></trkpt><trkpt lat="50.5957326352237" lon="15.876491840234497"><ele>460.0</ele><time>2026-05-02T10:34:29Z</time></trkpt><trkpt lat="50.59600440052777" lon="15.876491756662782"><ele>457.0</ele><time>2026-05-02T10:34:30Z</time></trkpt><trkpt lat="50.59627870347241" lon="15.876497414927321"><ele>454.0</ele><time>2026-05-02T10:34:31Z</time></trkpt><trkpt lat="50.596537196881314" lon="15.876496370934023"><ele>454.0</ele><time>2026-05-02T10:34:32Z</time></trkpt><trkpt lat="50.59679133311383" lon="15.87648620202715"><ele>454.0</ele><time>2026-05-02T10:34:33Z</time></trkpt><trkpt lat="50.59703775248584" lon="15.87647011837744"><ele>454.0</ele><time>2026-05-02T10:34:34Z</time></trkpt><trkpt lat="50.5972742154828" lon="15.876446437482324"><ele>454.0</ele><time>2026-05-02T10:34:35Z</time></trkpt><trkpt lat="50.59749429416882" lon="15.876391742616756"><ele>454.0</ele><time>2026-05-02T10:34:36Z</time></trkpt><trkpt lat="50.59770816398595" lon="15.876287795624467"><ele>454.0</ele><time>2026-05-02T10:34:37Z</time></trkpt><trkpt lat="50.597935694519755" lon="15.876128315317684"><ele>454.5</ele><time>2026-05-02T10:34:38Z</time></trkpt><trkpt lat="50.59816736445158" lon="15.875943900327686"><ele>455.0</ele><time>2026-05-02T10:34:39Z</time></trkpt><trkpt lat="50.59838628757795" lon="15.875726119458133"><ele>455.0</ele><time>2026-05-02T10:34:40Z</time></trkpt><trkpt lat="50.59859750620581" lon="15.875468538209418"><ele>455.0</ele><time>2026-05-02T10:34:41Z</time></trkpt><trkpt lat="50.598791237521795" lon="15.875177811880661"><ele>455.5</ele><time>2026-05-02T10:34:42Z</time></trkpt><trkpt lat="50.59896878770978" lon="15.874852310089361"><ele>456.0</ele><time>2026-05-02T10:34:43Z</time></trkpt><trkpt lat="50.59912826142542" lon="15.874501897923365"><ele>455.0</ele><time>2026-05-02T10:34:44Z</time></trkpt><trkpt lat="50.59926321338836" lon="15.874127510041342"><ele>454.0</ele><time>2026-05-02T10:34:45Z</time></trkpt><trkpt lat="50.599385931061946" lon="15.873719659685847"><ele>457.5</ele><time>2026-05-02T10:34:46Z</time></trkpt><trkpt lat="50.5995099407429" lon="15.873301804607193"><ele>461.0</ele><time>2026-05-02T10:34:47Z</time></trkpt><trkpt lat="50.59963418401108" lon="15.872887103176684"><ele>460.5</ele><time>2026-05-02T10:34:48Z</time></trkpt><trkpt lat="50.59975849262348" lon="15.87246197724182"><ele>460.0</ele><time>2026-05-02T10:34:49Z</time></trkpt><trkpt lat="50.599879980268824" lon="15.87204540415585"><ele>458.5</ele><time>2026-05-02T10:34:50Z</time></trkpt><trkpt lat="50.600001388171215" lon="15.871633374119522"><ele>457.0</ele><time>2026-05-02T10:34:51Z</time></trkpt><trkpt lat="50.60012297755256" lon="15.87121948294267"><ele>457.5</ele><time>2026-05-02T10:34:52Z</time></trkpt><trkpt lat="50.60024158465439" lon="15.870808612512093"><ele>458.0</ele><time>2026-05-02T10:34:53Z</time></trkpt><trkpt lat="50.60036377908934" lon="15.87040516398258"><ele>459.0</ele><time>2026-05-02T10:34:54Z</time></trkpt><trkpt lat="50.60048395500327" lon="15.870004933537576"><ele>460.0</ele><time>2026-05-02T10:34:55Z</time></trkpt><trkpt lat="50.600605342097474" lon="15.869602357952418"><ele>458.5</ele><time>2026-05-02T10:34:56Z</time></trkpt><trkpt lat="50.60072828736978" lon="15.869193373852296"><ele>457.0</ele><time>2026-05-02T10:34:57Z</time></trkpt><trkpt lat="50.60085291385487" lon="15.868768006156804"><ele>457.0</ele><time>2026-05-02T10:34:58Z</time></trkpt><trkpt lat="50.60098250640596" lon="15.868342176863592"><ele>457.0</ele><time>2026-05-02T10:34:59Z</time></trkpt><trkpt lat="50.6011124473395" lon="15.86791523568558"><ele>458.5</ele><time>2026-05-02T10:35:00Z</time></trkpt><trkpt lat="50.60124223770203" lon="15.867480764395125"><ele>460.0</ele><time>2026-05-02T10:35:01Z</time></trkpt><trkpt lat="50.60137175534925" lon="15.86704449145382"><ele>459.5</ele><time>2026-05-02T10:35:02Z</time></trkpt><trkpt lat="50.60150185511494" lon="15.866604401167308"><ele>459.0</ele><time>2026-05-02T10:35:03Z</time></trkpt><trkpt lat="50.601636173814555" lon="15.86616367699006"><ele>459.5</ele><time>2026-05-02T10:35:04Z</time></trkpt><trkpt lat="50.60176850907058" lon="15.865728139285137"><ele>460.0</ele><time>2026-05-02T10:35:05Z</time></trkpt><trkpt lat="50.60189679816975" lon="15.865299036569994"><ele>461.5</ele><time>2026-05-02T10:35:06Z</time></trkpt><trkpt lat="50.602021343770524" lon="15.864881796465173"><ele>463.0</ele><time>2026-05-02T10:35:07Z</time></trkpt><trkpt lat="50.60213845145356" lon="15.864477333564036"><ele>463.0</ele><time>2026-05-02T10:35:08Z</time></trkpt><trkpt lat="50.60225451802861" lon="15.864087444364515"><ele>463.0</ele><time>2026-05-02T10:35:09Z</time></trkpt><trkpt lat="50.60237134253441" lon="15.863707846096185"><ele>463.5</ele><time>2026-05-02T10:35:10Z</time></trkpt><trkpt lat="50.60248581563538" lon="15.863326481150358"><ele>464.0</ele><time>2026-05-02T10:35:11Z</time></trkpt><trkpt lat="50.60260038807939" lon="15.862942976099616"><ele>463.5</ele><time>2026-05-02T10:35:12Z</time></trkpt><trkpt lat="50.60271315962202" lon="15.862563190961954"><ele>463.0</ele><time>2026-05-02T10:35:13Z</time></trkpt><trkpt lat="50.60281572816207" lon="15.86221197387824"><ele>463.0</ele><time>2026-05-02T10:35:14Z</time></trkpt><trkpt lat="50.60291735383388" lon="15.861875819131766"><ele>463.0</ele><time>2026-05-02T10:35:15Z</time></trkpt><trkpt lat="50.6030216404407" lon="15.861535337858998"><ele>463.5</ele><time>2026-05-02T10:35:16Z</time></trkpt><trkpt lat="50.603122786453596" lon="15.861186947230184"><ele>464.0</ele><time>2026-05-02T10:35:17Z</time></trkpt><trkpt lat="50.603226793898514" lon="15.860840199398734"><ele>464.0</ele><time>2026-05-02T10:35:18Z</time></trkpt><trkpt lat="50.60333409497869" lon="15.860497926849353"><ele>464.0</ele><time>2026-05-02T10:35:19Z</time></trkpt><trkpt lat="50.603439594645586" lon="15.860148909547814"><ele>464.0</ele><time>2026-05-02T10:35:20Z</time></trkpt><trkpt lat="50.603542037722896" lon="15.859802963826546"><ele>464.0</ele><time>2026-05-02T10:35:21Z</time></trkpt><trkpt lat="50.6036373049722" lon="15.859481142507745"><ele>466.0</ele><time>2026-05-02T10:35:22Z</time></trkpt><trkpt lat="50.603728338435744" lon="15.859172186208133"><ele>468.0</ele><time>2026-05-02T10:35:23Z</time></trkpt><trkpt lat="50.60381478851643" lon="15.858878362579688"><ele>470.0</ele><time>2026-05-02T10:35:24Z</time></trkpt><trkpt lat="50.60390045275657" lon="15.858585672065344"><ele>470.3333333333333</ele><time>2026-05-02T10:35:25Z</time></trkpt><trkpt lat="50.603983624499136" lon="15.858278732858016"><ele>470.66666666666663</ele><time>2026-05-02T10:35:26Z</time></trkpt><trkpt lat="50.60406189595199" lon="15.857969513537135"><ele>471.0</ele><time>2026-05-02T10:35:27Z</time></trkpt><trkpt lat="50.60414244028928" lon="15.857656242542461"><ele>470.66666666666663</ele><time>2026-05-02T10:35:28Z</time></trkpt><trkpt lat="50.60422182488011" lon="15.857339642907034"><ele>470.3333333333333</ele><time>2026-05-02T10:35:29Z</time></trkpt><trkpt lat="50.60429746154585" lon="15.857021380092554"><ele>470.0</ele><time>2026-05-02T10:35:30Z</time></trkpt><trkpt lat="50.60436754437288" lon="15.85671031575246"><ele>469.3333333333333</ele><time>2026-05-02T10:35:31Z</time></trkpt><trkpt lat="50.604435770488344" lon="15.856395157154461"><ele>468.66666666666663</ele><time>2026-05-02T10:35:32Z</time></trkpt><trkpt lat="50.60450131453007" lon="15.856082587296562"><ele>468.0</ele><time>2026-05-02T10:35:33Z</time></trkpt><trkpt lat="50.60456408583384" lon="15.855770589177952"><ele>469.66666666666663</ele><time>2026-05-02T10:35:34Z</time></trkpt><trkpt lat="50.60462287154575" lon="15.855459597094333"><ele>471.3333333333333</ele><time>2026-05-02T10:35:35Z</time></trkpt><trkpt lat="50.60467879839188" lon="15.855149479577438"><ele>473.0</ele><time>2026-05-02T10:35:36Z</time></trkpt><trkpt lat="50.60473195080893" lon="15.854834249355365"><ele>473.0</ele><time>2026-05-02T10:35:37Z</time></trkpt><trkpt lat="50.60478064482521" lon="15.854524023042519"><ele>473.0</ele><time>2026-05-02T10:35:38Z</time></trkpt><trkpt lat="50.604828738817716" lon="15.854214409280162"><ele>473.0</ele><time>2026-05-02T10:35:39Z</time></trkpt><trkpt lat="50.604876146233394" lon="15.853909330723642"><ele>473.0</ele><time>2026-05-02T10:35:40Z</time></trkpt><trkpt lat="50.60492239484195" lon="15.853610546353343"><ele>473.0</ele><time>2026-05-02T10:35:41Z</time></trkpt><trkpt lat="50.604968843000044" lon="15.853314129054247"><ele>473.0</ele><time>2026-05-02T10:35:42Z</time></trkpt><trkpt lat="50.60501801542708" lon="15.853011088265962"><ele>473.0</ele><time>2026-05-02T10:35:43Z</time></trkpt><trkpt lat="50.605068342422115" lon="15.852713542393099"><ele>473.0</ele><time>2026-05-02T10:35:44Z</time></trkpt><trkpt lat="50.605112178287854" lon="15.852439783980268"><ele>473.0</ele><time>2026-05-02T10:35:45Z</time></trkpt><trkpt lat="50.605155270887344" lon="15.852161784099765"><ele>472.3333333333333</ele><time>2026-05-02T10:35:46Z</time></trkpt><trkpt lat="50.605200783405714" lon="15.851879360710768"><ele>471.66666666666663</ele><time>2026-05-02T10:35:47Z</time></trkpt><trkpt lat="50.60524850501507" lon="15.85159541034189"><ele>471.0</ele><time>2026-05-02T10:35:48Z</time></trkpt><trkpt lat="50.60529347215074" lon="15.851307083896057"><ele>471.0</ele><time>2026-05-02T10:35:49Z</time></trkpt><trkpt lat="50.605339660607186" lon="15.85101081249516"><ele>471.0</ele><time>2026-05-02T10:35:50Z</time></trkpt><trkpt lat="50.60538843698447" lon="15.850709269811487"><ele>471.0</ele><time>2026-05-02T10:35:51Z</time></trkpt><trkpt lat="50.60543648692136" lon="15.850403340590006"><ele>471.33333333333337</ele><time>2026-05-02T10:35:52Z</time></trkpt><trkpt lat="50.60548327474432" lon="15.850093857138965"><ele>471.6666666666667</ele><time>2026-05-02T10:35:53Z</time></trkpt><trkpt lat="50.6055332039189" lon="15.849784303615268"><ele>472.0</ele><time>2026-05-02T10:35:54Z</time></trkpt><trkpt lat="50.60558521803048" lon="15.84947295346532"><ele>472.33333333333337</ele><time>2026-05-02T10:35:55Z</time></trkpt><trkpt lat="50.60563704822652" lon="15.849156589882789"><ele>472.66666666666663</ele><time>2026-05-02T10:35:56Z</time></trkpt><trkpt lat="50.60568889529361" lon="15.848833909339"><ele>473.0</ele><time>2026-05-02T10:35:57Z</time></trkpt><trkpt lat="50.6057404389145" lon="15.84850888208235"><ele>473.0</ele><time>2026-05-02T10:35:58Z</time></trkpt><trkpt lat="50.605793026141306" lon="15.848177135043345"><ele>473.0</ele><time>2026-05-02T10:35:59Z</time></trkpt><trkpt lat="50.60584418637354" lon="15.847838382021271"><ele>473.0</ele><time>2026-05-02T10:36:00Z</time></trkpt><trkpt lat="50.605895452447534" lon="15.847517350234467"><ele>473.0</ele><time>2026-05-02T10:36:01Z</time></trkpt><trkpt lat="50.60594748197476" lon="15.847206563689564"><ele>473.0</ele><time>2026-05-02T10:36:02Z</time></trkpt><trkpt lat="50.60599836281895" lon="15.846889922650693"><ele>473.0</ele><time>2026-05-02T10:36:03Z</time></trkpt><trkpt lat="50.606048508096094" lon="15.846570901040073"><ele>473.0</ele><time>2026-05-02T10:36:04Z</time></trkpt><trkpt lat="50.60609627082704" lon="15.846261155740885"><ele>473.0</ele><time>2026-05-02T10:36:05Z</time></trkpt><trkpt lat="50.60614150807986" lon="15.84597819073927"><ele>473.0</ele><time>2026-05-02T10:36:06Z</time></trkpt><trkpt lat="50.60618413398415" lon="15.845712788706646"><ele>474.3333333333333</ele><time>2026-05-02T10:36:07Z</time></trkpt><trkpt lat="50.60622582114467" lon="15.845445709896161"><ele>475.66666666666663</ele><time>2026-05-02T10:36:08Z</time></trkpt><trkpt lat="50.60626850570144" lon="15.84517963716432"><ele>477.0</ele><time>2026-05-02T10:36:09Z</time></trkpt><trkpt lat="50.60630980582257" lon="15.844915912124485"><ele>477.0</ele><time>2026-05-02T10:36:10Z</time></trkpt><trkpt lat="50.606346074895285" lon="15.844675174164593"><ele>477.0</ele><time>2026-05-02T10:36:11Z</time></trkpt><trkpt lat="50.606378484842125" lon="15.844474349196085"><ele>477.0</ele><time>2026-05-02T10:36:12Z</time></trkpt><trkpt lat="50.6064099098004" lon="15.84429987390156"><ele>477.0</ele><time>2026-05-02T10:36:13Z</time></trkpt><trkpt lat="50.60643630327493" lon="15.844134064568038"><ele>477.0</ele><time>2026-05-02T10:36:14Z</time></trkpt><trkpt lat="50.606465183928016" lon="15.843978850745083"><ele>477.00000000000006</ele><time>2026-05-02T10:36:15Z</time></trkpt><trkpt lat="50.606494281981014" lon="15.84382377089442"><ele>477.00000000000006</ele><time>2026-05-02T10:36:16Z</time></trkpt><trkpt lat="50.60652101682942" lon="15.843656304000808"><ele>477.0</ele><time>2026-05-02T10:36:17Z</time></trkpt><trkpt lat="50.606547694568" lon="15.843482476498282"><ele>477.0</ele><time>2026-05-02T10:36:18Z</time></trkpt><trkpt lat="50.606576948570236" lon="15.84330320579221"><ele>477.25</ele><time>2026-05-02T10:36:19Z</time></trkpt><trkpt lat="50.6066079644593" lon="15.843117832206726"><ele>477.5</ele><time>2026-05-02T10:36:20Z</time></trkpt><trkpt lat="50.606639177636126" lon="15.842926457626467"><ele>477.75</ele><time>2026-05-02T10:36:21Z</time></trkpt><trkpt lat="50.6066719069172" lon="15.842731004775485"><ele>478.0</ele><time>2026-05-02T10:36:22Z</time></trkpt><trkpt lat="50.60670344980473" lon="15.842534470516984"><ele>478.5</ele><time>2026-05-02T10:36:23Z</time></trkpt><trkpt lat="50.60673281789233" lon="15.842349755303013"><ele>479.0</ele><time>2026-05-02T10:36:24Z</time></trkpt><trkpt lat="50.606760674121915" lon="15.842170122291433"><ele>479.5</ele><time>2026-05-02T10:36:25Z</time></trkpt><trkpt lat="50.606790967650426" lon="15.841995851396934"><ele>480.0</ele><time>2026-05-02T10:36:26Z</time></trkpt><trkpt lat="50.60682159153485" lon="15.841808401356435"><ele>480.25</ele><time>2026-05-02T10:36:27Z</time></trkpt><trkpt lat="50.606851382291325" lon="15.841608991194661"><ele>480.5</ele><time>2026-05-02T10:36:28Z</time></trkpt><trkpt lat="50.60687974708086" lon="15.841396969871248"><ele>480.75</ele><time>2026-05-02T10:36:29Z</time></trkpt><trkpt lat="50.60690660390807" lon="15.841185946337292"><ele>481.0</ele><time>2026-05-02T10:36:30Z</time></trkpt><trkpt lat="50.60693690704374" lon="15.840976336943035"><ele>480.6666666666667</ele><time>2026-05-02T10:36:31Z</time></trkpt><trkpt lat="50.60697364347428" lon="15.84076152475554"><ele>480.33333333333337</ele><time>2026-05-02T10:36:32Z</time></trkpt><trkpt lat="50.607010426820636" lon="15.84053181939154"><ele>480.0</ele><time>2026-05-02T10:36:33Z</time></trkpt><trkpt lat="50.607050693387244" lon="15.840267230203914"><ele>480.0</ele><time>2026-05-02T10:36:34Z</time></trkpt><trkpt lat="50.607099923663924" lon="15.839976946788969"><ele>480.0</ele><time>2026-05-02T10:36:35Z</time></trkpt><trkpt lat="50.60716472324577" lon="15.839615616318401"><ele>480.0</ele><time>2026-05-02T10:36:36Z</time></trkpt><trkpt lat="50.60723007733492" lon="15.839213948364332"><ele>480.5</ele><time>2026-05-02T10:36:37Z</time></trkpt><trkpt lat="50.60729252998465" lon="15.838780918123913"><ele>481.0</ele><time>2026-05-02T10:36:38Z</time></trkpt><trkpt lat="50.60735675320594" lon="15.838318695819334"><ele>481.5</ele><time>2026-05-02T10:36:39Z</time></trkpt><trkpt lat="50.60743713865089" lon="15.83786901762251"><ele>482.0</ele><time>2026-05-02T10:36:40Z</time></trkpt><trkpt lat="50.607508928955475" lon="15.837405847315798"><ele>482.0</ele><time>2026-05-02T10:36:41Z</time></trkpt><trkpt lat="50.607582157808224" lon="15.836911416806329"><ele>482.0</ele><time>2026-05-02T10:36:42Z</time></trkpt><trkpt lat="50.607663723579" lon="15.836400761050207"><ele>482.0</ele><time>2026-05-02T10:36:43Z</time></trkpt><trkpt lat="50.60775603915615" lon="15.835883238558766"><ele>482.0</ele><time>2026-05-02T10:36:44Z</time></trkpt><trkpt lat="50.607841395202925" lon="15.835391992194698"><ele>483.5</ele><time>2026-05-02T10:36:45Z</time></trkpt><trkpt lat="50.607910045668895" lon="15.834964034561496"><ele>485.0</ele><time>2026-05-02T10:36:46Z</time></trkpt><trkpt lat="50.60796972390154" lon="15.834568359658594"><ele>486.0</ele><time>2026-05-02T10:36:47Z</time></trkpt><trkpt lat="50.60803128588676" lon="15.834202574283477"><ele>487.0</ele><time>2026-05-02T10:36:48Z</time></trkpt><trkpt lat="50.60809006777686" lon="15.833814310570242"><ele>487.5</ele><time>2026-05-02T10:36:49Z</time></trkpt><trkpt lat="50.60815764978225" lon="15.833423145753454"><ele>488.0</ele><time>2026-05-02T10:36:50Z</time></trkpt><trkpt lat="50.60822734557619" lon="15.833030216429737"><ele>488.0</ele><time>2026-05-02T10:36:51Z</time></trkpt><trkpt lat="50.60829947711125" lon="15.832666198480506"><ele>488.0</ele><time>2026-05-02T10:36:52Z</time></trkpt><trkpt lat="50.60837417951056" lon="15.832321894765077"><ele>488.0</ele><time>2026-05-02T10:36:53Z</time></trkpt><trkpt lat="50.60845563560315" lon="15.831994867205463"><ele>488.0</ele><time>2026-05-02T10:36:54Z</time></trkpt><trkpt lat="50.60854340496216" lon="15.831655456109353"><ele>488.0</ele><time>2026-05-02T10:36:55Z</time></trkpt><trkpt lat="50.60863791665072" lon="15.8313153026736"><ele>488.0</ele><time>2026-05-02T10:36:56Z</time></trkpt><trkpt lat="50.608731304584914" lon="15.830974794657282"><ele>488.5</ele><time>2026-05-02T10:36:57Z</time></trkpt><trkpt lat="50.60883224886977" lon="15.830633184070647"><ele>489.0</ele><time>2026-05-02T10:36:58Z</time></trkpt><trkpt lat="50.608931361251564" lon="15.830283023463954"><ele>488.5</ele><time>2026-05-02T10:36:59Z</time></trkpt><trkpt lat="50.6090444626018" lon="15.829918174438102"><ele>488.0</ele><time>2026-05-02T10:37:00Z</time></trkpt><trkpt lat="50.60917566541907" lon="15.829563951622264"><ele>489.0</ele><time>2026-05-02T10:37:01Z</time></trkpt><trkpt lat="50.60930300718019" lon="15.829207236464399"><ele>490.0</ele><time>2026-05-02T10:37:02Z</time></trkpt><trkpt lat="50.60943541416187" lon="15.828860663985118"><ele>490.0</ele><time>2026-05-02T10:37:03Z</time></trkpt><trkpt lat="50.609570379064834" lon="15.828509937398401"><ele>490.0</ele><time>2026-05-02T10:37:04Z</time></trkpt><trkpt lat="50.609723284706" lon="15.828140400544626"><ele>490.5</ele><time>2026-05-02T10:37:05Z</time></trkpt><trkpt lat="50.60988412984072" lon="15.827762767953503"><ele>491.0</ele><time>2026-05-02T10:37:06Z</time></trkpt><trkpt lat="50.61005857194474" lon="15.827399231499625"><ele>491.5</ele><time>2026-05-02T10:37:07Z</time></trkpt><trkpt lat="50.610248554722475" lon="15.827027602170215"><ele>492.0</ele><time>2026-05-02T10:37:08Z</time></trkpt><trkpt lat="50.610432526462326" lon="15.826674861395972"><ele>492.5</ele><time>2026-05-02T10:37:09Z</time></trkpt><trkpt lat="50.610619396463775" lon="15.826327610693486"><ele>493.0</ele><time>2026-05-02T10:37:10Z</time></trkpt><trkpt lat="50.61080759215098" lon="15.825993556019675"><ele>493.5</ele><time>2026-05-02T10:37:11Z</time></trkpt><trkpt lat="50.611003152136384" lon="15.825669879397585"><ele>494.0</ele><time>2026-05-02T10:37:12Z</time></trkpt><trkpt lat="50.61120245910117" lon="15.825355355291592"><ele>494.5</ele><time>2026-05-02T10:37:13Z</time></trkpt><trkpt lat="50.61140299404673" lon="15.825056670822493"><ele>495.0</ele><time>2026-05-02T10:37:14Z</time></trkpt><trkpt lat="50.61159410750112" lon="15.824781351313975"><ele>495.0</ele><time>2026-05-02T10:37:15Z</time></trkpt><trkpt lat="50.611767249382666" lon="15.824543896575298"><ele>495.0</ele><time>2026-05-02T10:37:16Z</time></trkpt><trkpt lat="50.61191950051754" lon="15.824342201368596"><ele>495.0</ele><time>2026-05-02T10:37:17Z</time></trkpt><trkpt lat="50.61206242930781" lon="15.82415932813198"><ele>495.33333333333337</ele><time>2026-05-02T10:37:18Z</time></trkpt><trkpt lat="50.61219250379201" lon="15.823995353710902"><ele>495.6666666666667</ele><time>2026-05-02T10:37:19Z</time></trkpt><trkpt lat="50.61231622041258" lon="15.823840210434948"><ele>496.0</ele><time>2026-05-02T10:37:20Z</time></trkpt><trkpt lat="50.61243887398303" lon="15.823694247894549"><ele>496.0</ele><time>2026-05-02T10:37:21Z</time></trkpt><trkpt lat="50.612551586724784" lon="15.823566685307393"><ele>496.0</ele><time>2026-05-02T10:37:22Z</time></trkpt><trkpt lat="50.612658244198066" lon="15.823447543799185"><ele>496.0</ele><time>2026-05-02T10:37:23Z</time></trkpt><trkpt lat="50.612755455408035" lon="15.823331644956411"><ele>496.0</ele><time>2026-05-02T10:37:24Z</time></trkpt><trkpt lat="50.61285043581317" lon="15.82323390010112"><ele>497.25</ele><time>2026-05-02T10:37:25Z</time></trkpt><trkpt lat="50.61295043090312" lon="15.823140478300322"><ele>498.5</ele><time>2026-05-02T10:37:26Z</time></trkpt><trkpt lat="50.61305508249044" lon="15.82303039525648"><ele>499.75</ele><time>2026-05-02T10:37:27Z</time></trkpt><trkpt lat="50.61316060075009" lon="15.822914402430175"><ele>501.0</ele><time>2026-05-02T10:37:28Z</time></trkpt><trkpt lat="50.61327169066248" lon="15.822810873870393"><ele>501.0</ele><time>2026-05-02T10:37:29Z</time></trkpt><trkpt lat="50.613387362794136" lon="15.822715269555985"><ele>501.0</ele><time>2026-05-02T10:37:30Z</time></trkpt><trkpt lat="50.6135008494338" lon="15.822615961085814"><ele>501.0</ele><time>2026-05-02T10:37:31Z</time></trkpt><trkpt lat="50.61361271923284" lon="15.822504458283467"><ele>501.0</ele><time>2026-05-02T10:37:32Z</time></trkpt><trkpt lat="50.61372245962571" lon="15.822391227550005"><ele>501.0</ele><time>2026-05-02T10:37:33Z</time></trkpt><trkpt lat="50.61383741196945" lon="15.822283583447808"><ele>501.0</ele><time>2026-05-02T10:37:34Z</time></trkpt><trkpt lat="50.6139556080493" lon="15.822190281720946"><ele>501.0</ele><time>2026-05-02T10:37:35Z</time></trkpt><trkpt lat="50.6140749715326" lon="15.822095129750721"><ele>501.0</ele><time>2026-05-02T10:37:36Z</time></trkpt><trkpt lat="50.614195030076004" lon="15.821986872889665"><ele>501.0</ele><time>2026-05-02T10:37:37Z</time></trkpt><trkpt lat="50.61431030192384" lon="15.821883236753974"><ele>501.0</ele><time>2026-05-02T10:37:38Z</time></trkpt><trkpt lat="50.61442515694379" lon="15.821791450220767"><ele>501.0</ele><time>2026-05-02T10:37:39Z</time></trkpt><trkpt lat="50.61454471920854" lon="15.821690509532225"><ele>501.0</ele><time>2026-05-02T10:37:40Z</time></trkpt><trkpt lat="50.61466265075972" lon="15.821576784022625"><ele>501.0</ele><time>2026-05-02T10:37:41Z</time></trkpt><trkpt lat="50.61478647163586" lon="15.821469491868962"><ele>501.0</ele><time>2026-05-02T10:37:42Z</time></trkpt><trkpt lat="50.61491645667151" lon="15.82136307772928"><ele>501.0</ele><time>2026-05-02T10:37:43Z</time></trkpt><trkpt lat="50.61504556623785" lon="15.82125732866324"><ele>501.0</ele><time>2026-05-02T10:37:44Z</time></trkpt><trkpt lat="50.61517642928054" lon="15.82115048838564"><ele>501.0</ele><time>2026-05-02T10:37:45Z</time></trkpt><trkpt lat="50.615305031249825" lon="15.821041646665858"><ele>501.0</ele><time>2026-05-02T10:37:46Z</time></trkpt><trkpt lat="50.61542753064445" lon="15.820938280723789"><ele>501.0</ele><time>2026-05-02T10:37:47Z</time></trkpt><trkpt lat="50.61554831610667" lon="15.820847167100034"><ele>501.0</ele><time>2026-05-02T10:37:48Z</time></trkpt><trkpt lat="50.6156670143404" lon="15.820754805632815"><ele>501.0</ele><time>2026-05-02T10:37:49Z</time></trkpt><trkpt lat="50.61578574145816" lon="15.820650708430144"><ele>501.0</ele><time>2026-05-02T10:37:50Z</time></trkpt><trkpt lat="50.61590860616093" lon="15.820544712653414"><ele>501.0</ele><time>2026-05-02T10:37:51Z</time></trkpt><trkpt lat="50.61603410208717" lon="15.820445697050246"><ele>501.0</ele><time>2026-05-02T10:37:52Z</time></trkpt><trkpt lat="50.61616110767721" lon="15.820342530723504"><ele>501.5</ele><time>2026-05-02T10:37:53Z</time></trkpt><trkpt lat="50.61628589206156" lon="15.820237953934313"><ele>502.0</ele><time>2026-05-02T10:37:54Z</time></trkpt><trkpt lat="50.61641225181374" lon="15.820128833359176"><ele>502.5</ele><time>2026-05-02T10:37:55Z</time></trkpt><trkpt lat="50.61653756777856" lon="15.82002060105892"><ele>503.0</ele><time>2026-05-02T10:37:56Z</time></trkpt><trkpt lat="50.61666215385895" lon="15.819913804835515"><ele>503.0</ele><time>2026-05-02T10:37:57Z</time></trkpt><trkpt lat="50.61679065854123" lon="15.819814422246576"><ele>503.0</ele><time>2026-05-02T10:37:58Z</time></trkpt><trkpt lat="50.61691517042639" lon="15.81972172447753"><ele>503.0</ele><time>2026-05-02T10:37:59Z</time></trkpt><trkpt lat="50.61704063890611" lon="15.819626539520222"><ele>503.0</ele><time>2026-05-02T10:38:00Z</time></trkpt><trkpt lat="50.61716666136535" lon="15.819527388158754"><ele>503.5</ele><time>2026-05-02T10:38:01Z</time></trkpt><trkpt lat="50.61729394726871" lon="15.819441310461324"><ele>504.0</ele><time>2026-05-02T10:38:02Z</time></trkpt><trkpt lat="50.61742748713261" lon="15.819359699320243"><ele>504.5</ele><time>2026-05-02T10:38:03Z</time></trkpt><trkpt lat="50.61756163370009" lon="15.819284020587313"><ele>505.0</ele><time>2026-05-02T10:38:04Z</time></trkpt><trkpt lat="50.61770311848043" lon="15.81921050063302"><ele>505.5</ele><time>2026-05-02T10:38:05Z</time></trkpt><trkpt lat="50.61784599965725" lon="15.81913799585809"><ele>506.0</ele><time>2026-05-02T10:38:06Z</time></trkpt><trkpt lat="50.61798323608712" lon="15.819066608637135"><ele>506.5</ele><time>2026-05-02T10:38:07Z</time></trkpt><trkpt lat="50.61811941993445" lon="15.819016242761196"><ele>507.0</ele><time>2026-05-02T10:38:08Z</time></trkpt><trkpt lat="50.61825222695872" lon="15.818986370058562"><ele>507.0</ele><time>2026-05-02T10:38:09Z</time></trkpt><trkpt lat="50.61838291732862" lon="15.818935748482085"><ele>507.0</ele><time>2026-05-02T10:38:10Z</time></trkpt><trkpt lat="50.61851349441722" lon="15.818878225028286"><ele>507.0</ele><time>2026-05-02T10:38:11Z</time></trkpt><trkpt lat="50.61864229787487" lon="15.818851299993353"><ele>507.0</ele><time>2026-05-02T10:38:12Z</time></trkpt><trkpt lat="50.61876079106406" lon="15.81881979609287"><ele>507.25</ele><time>2026-05-02T10:38:13Z</time></trkpt><trkpt lat="50.618876027539265" lon="15.818781227449767"><ele>507.5</ele><time>2026-05-02T10:38:14Z</time></trkpt><trkpt lat="50.61899235103851" lon="15.818759323007887"><ele>507.75</ele><time>2026-05-02T10:38:15Z</time></trkpt><trkpt lat="50.61911307078923" lon="15.818748788055974"><ele>508.0</ele><time>2026-05-02T10:38:16Z</time></trkpt><trkpt lat="50.619238595906005" lon="15.818727851453263"><ele>508.0</ele><time>2026-05-02T10:38:17Z</time></trkpt><trkpt lat="50.619369852086955" lon="15.818696041173586"><ele>508.0</ele><time>2026-05-02T10:38:18Z</time></trkpt><trkpt lat="50.61950262552227" lon="15.818674787930783"><ele>508.0</ele><time>2026-05-02T10:38:19Z</time></trkpt><trkpt lat="50.61963899338105" lon="15.818664915446236"><ele>508.0</ele><time>2026-05-02T10:38:20Z</time></trkpt><trkpt lat="50.61977634315961" lon="15.818655679952702"><ele>508.0</ele><time>2026-05-02T10:38:21Z</time></trkpt><trkpt lat="50.619913963232335" lon="15.81863694176422"><ele>508.0</ele><time>2026-05-02T10:38:22Z</time></trkpt><trkpt lat="50.620051159477114" lon="15.818625902821168"><ele>508.0</ele><time>2026-05-02T10:38:23Z</time></trkpt><trkpt lat="50.62017584355468" lon="15.818625453522316"><ele>508.0</ele><time>2026-05-02T10:38:24Z</time></trkpt><trkpt lat="50.6202895197072" lon="15.818626086952325"><ele>508.25</ele><time>2026-05-02T10:38:25Z</time></trkpt><trkpt lat="50.62039795870022" lon="15.818626771466032"><ele>508.5</ele><time>2026-05-02T10:38:26Z</time></trkpt><trkpt lat="50.62050877914489" lon="15.81861470941732"><ele>508.75</ele><time>2026-05-02T10:38:27Z</time></trkpt><trkpt lat="50.62062284407745" lon="15.818607479422916"><ele>509.0</ele><time>2026-05-02T10:38:28Z</time></trkpt><trkpt lat="50.62074418161289" lon="15.818616891829654"><ele>509.0</ele><time>2026-05-02T10:38:29Z</time></trkpt><trkpt lat="50.620871600095214" lon="15.818631930681025"><ele>509.0</ele><time>2026-05-02T10:38:30Z</time></trkpt><trkpt lat="50.62098746464475" lon="15.818630252216906"><ele>509.0</ele><time>2026-05-02T10:38:31Z</time></trkpt><trkpt lat="50.62110258292198" lon="15.8186303416209"><ele>509.0</ele><time>2026-05-02T10:38:32Z</time></trkpt><trkpt lat="50.62122239446494" lon="15.818646685913881"><ele>509.25</ele><time>2026-05-02T10:38:33Z</time></trkpt><trkpt lat="50.621344880205605" lon="15.818661544604632"><ele>509.5</ele><time>2026-05-02T10:38:34Z</time></trkpt><trkpt lat="50.621461673464964" lon="15.818671957132393"><ele>509.75</ele><time>2026-05-02T10:38:35Z</time></trkpt><trkpt lat="50.62158528240876" lon="15.818677368382218"><ele>510.0</ele><time>2026-05-02T10:38:36Z</time></trkpt><trkpt lat="50.62172104901513" lon="15.818680183663995"><ele>510.0</ele><time>2026-05-02T10:38:37Z</time></trkpt><trkpt lat="50.62185340738679" lon="15.818673925231938"><ele>510.0</ele><time>2026-05-02T10:38:38Z</time></trkpt><trkpt lat="50.62198758341407" lon="15.81867451463279"><ele>510.0</ele><time>2026-05-02T10:38:39Z</time></trkpt><trkpt lat="50.622122884697056" lon="15.818686400272906"><ele>510.0</ele><time>2026-05-02T10:38:40Z</time></trkpt><trkpt lat="50.62226985935841" lon="15.818695856760892"><ele>510.33333333333337</ele><time>2026-05-02T10:38:41Z</time></trkpt><trkpt lat="50.62242194178096" lon="15.818690811466427"><ele>510.6666666666667</ele><time>2026-05-02T10:38:42Z</time></trkpt><trkpt lat="50.62257787663127" lon="15.818683350621"><ele>511.0</ele><time>2026-05-02T10:38:43Z</time></trkpt><trkpt lat="50.62272922421495" lon="15.818680523468677"><ele>512.5</ele><time>2026-05-02T10:38:44Z</time></trkpt><trkpt lat="50.622884768915256" lon="15.818672438553593"><ele>514.0</ele><time>2026-05-02T10:38:45Z</time></trkpt><trkpt lat="50.62302543990567" lon="15.818661925176354"><ele>515.5</ele><time>2026-05-02T10:38:46Z</time></trkpt><trkpt lat="50.62316574822116" lon="15.818646922542758"><ele>517.0</ele><time>2026-05-02T10:38:47Z</time></trkpt><trkpt lat="50.62330367020175" lon="15.818623471905163"><ele>517.0</ele><time>2026-05-02T10:38:48Z</time></trkpt><trkpt lat="50.62344895734001" lon="15.818604355907993"><ele>517.0</ele><time>2026-05-02T10:38:49Z</time></trkpt><trkpt lat="50.6235928774612" lon="15.818587183990076"><ele>517.0</ele><time>2026-05-02T10:38:50Z</time></trkpt><trkpt lat="50.623737855872015" lon="15.818557213595641"><ele>517.0</ele><time>2026-05-02T10:38:51Z</time></trkpt><trkpt lat="50.623868373926236" lon="15.818524416759008"><ele>517.0</ele><time>2026-05-02T10:38:52Z</time></trkpt><trkpt lat="50.62398992266067" lon="15.818493399374615"><ele>517.0</ele><time>2026-05-02T10:38:53Z</time></trkpt><trkpt lat="50.62411467981671" lon="15.818482621000411"><ele>517.0</ele><time>2026-05-02T10:38:54Z</time></trkpt><trkpt lat="50.624248327999545" lon="15.818451399992377"><ele>517.0</ele><time>2026-05-02T10:38:55Z</time></trkpt><trkpt lat="50.62438896085295" lon="15.818400629916287"><ele>518.25</ele><time>2026-05-02T10:38:56Z</time></trkpt><trkpt lat="50.62452716403376" lon="15.818348767268093"><ele>519.5</ele><time>2026-05-02T10:38:57Z</time></trkpt><trkpt lat="50.624658775743704" lon="15.818310921693682"><ele>520.75</ele><time>2026-05-02T10:38:58Z</time></trkpt><trkpt lat="50.624789301647134" lon="15.818258354949572"><ele>522.0</ele><time>2026-05-02T10:38:59Z</time></trkpt><trkpt lat="50.62491192931848" lon="15.81819033199239"><ele>522.0</ele><time>2026-05-02T10:39:00Z</time></trkpt><trkpt lat="50.62506926398821" lon="15.818132818446218"><ele>522.0</ele><time>2026-05-02T10:39:01Z</time></trkpt><trkpt lat="50.62521101748996" lon="15.81807867553792"><ele>522.0</ele><time>2026-05-02T10:39:02Z</time></trkpt><trkpt lat="50.6253544994646" lon="15.818013316128493"><ele>524.0</ele><time>2026-05-02T10:39:03Z</time></trkpt><trkpt lat="50.62548525004758" lon="15.817940707900243"><ele>526.0</ele><time>2026-05-02T10:39:04Z</time></trkpt><trkpt lat="50.62561039016614" lon="15.817876537164246"><ele>528.0</ele><time>2026-05-02T10:39:05Z</time></trkpt><trkpt lat="50.62573571636379" lon="15.81780394233346"><ele>530.0</ele><time>2026-05-02T10:39:06Z</time></trkpt><trkpt lat="50.62585979112233" lon="15.817731381173537"><ele>530.0</ele><time>2026-05-02T10:39:07Z</time></trkpt><trkpt lat="50.625987299752815" lon="15.817653210493994"><ele>530.0</ele><time>2026-05-02T10:39:08Z</time></trkpt><trkpt lat="50.626111457691266" lon="15.81757221184984"><ele>530.0</ele><time>2026-05-02T10:39:09Z</time></trkpt><trkpt lat="50.62623907957501" lon="15.817500062776142"><ele>530.0</ele><time>2026-05-02T10:39:10Z</time></trkpt><trkpt lat="50.62636379881091" lon="15.817418353502244"><ele>529.0</ele><time>2026-05-02T10:39:11Z</time></trkpt><trkpt lat="50.626487594882455" lon="15.81732122277285"><ele>528.0</ele><time>2026-05-02T10:39:12Z</time></trkpt><trkpt lat="50.626612059013475" lon="15.817232272491768"><ele>527.0</ele><time>2026-05-02T10:39:13Z</time></trkpt><trkpt lat="50.626736698870594" lon="15.817143951416591"><ele>526.0</ele><time>2026-05-02T10:39:14Z</time></trkpt><trkpt lat="50.626859283131374" lon="15.817045191591182"><ele>526.0</ele><time>2026-05-02T10:39:15Z</time></trkpt><trkpt lat="50.62696826698932" lon="15.81695747782324"><ele>526.0</ele><time>2026-05-02T10:39:16Z</time></trkpt><trkpt lat="50.62707571361877" lon="15.81686863626934"><ele>526.0</ele><time>2026-05-02T10:39:17Z</time></trkpt><trkpt lat="50.62717737794752" lon="15.816767004302424"><ele>526.0</ele><time>2026-05-02T10:39:18Z</time></trkpt><trkpt lat="50.627276429042446" lon="15.816656073906373"><ele>525.0</ele><time>2026-05-02T10:39:19Z</time></trkpt><trkpt lat="50.627386615396695" lon="15.816543297290584"><ele>524.0</ele><time>2026-05-02T10:39:20Z</time></trkpt><trkpt lat="50.62749170928687" lon="15.816439514888838"><ele>523.0</ele><time>2026-05-02T10:39:21Z</time></trkpt><trkpt lat="50.62759487617601" lon="15.816323294647814"><ele>522.0</ele><time>2026-05-02T10:39:22Z</time></trkpt><trkpt lat="50.627698777777496" lon="15.81620295719207"><ele>522.0</ele><time>2026-05-02T10:39:23Z</time></trkpt><trkpt lat="50.62780183080722" lon="15.816084895676848"><ele>522.0</ele><time>2026-05-02T10:39:24Z</time></trkpt><trkpt lat="50.627904409387746" lon="15.815960046922434"><ele>522.0</ele><time>2026-05-02T10:39:25Z</time></trkpt><trkpt lat="50.62801018401763" lon="15.815835633174842"><ele>522.0</ele><time>2026-05-02T10:39:26Z</time></trkpt><trkpt lat="50.62811307952671" lon="15.815717127468506"><ele>522.0</ele><time>2026-05-02T10:39:27Z</time></trkpt><trkpt lat="50.62820351710223" lon="15.81559143594237"><ele>522.0</ele><time>2026-05-02T10:39:28Z</time></trkpt><trkpt lat="50.628289529962544" lon="15.81546546283405"><ele>522.0</ele><time>2026-05-02T10:39:29Z</time></trkpt><trkpt lat="50.62837870244189" lon="15.81533368111206"><ele>522.0</ele><time>2026-05-02T10:39:30Z</time></trkpt><trkpt lat="50.62847163814832" lon="15.815183649736316"><ele>522.0</ele><time>2026-05-02T10:39:31Z</time></trkpt><trkpt lat="50.628572809729235" lon="15.815032205866054"><ele>522.0</ele><time>2026-05-02T10:39:32Z</time></trkpt><trkpt lat="50.62869206489475" lon="15.814852300951356"><ele>522.0</ele><time>2026-05-02T10:39:33Z</time></trkpt><trkpt lat="50.6288307146651" lon="15.814643432026854"><ele>522.3333333333334</ele><time>2026-05-02T10:39:34Z</time></trkpt><trkpt lat="50.62897171539323" lon="15.814433050275198"><ele>522.6666666666667</ele><time>2026-05-02T10:39:35Z</time></trkpt><trkpt lat="50.62907154917734" lon="15.814279449985877"><ele>523.0</ele><time>2026-05-02T10:39:37Z</time></trkpt><trkpt lat="50.62917006716087" lon="15.8141326013475"><ele>523.0</ele><time>2026-05-02T10:39:38Z</time></trkpt><trkpt lat="50.62926510319184" lon="15.813999588558982"><ele>523.0</ele><time>2026-05-02T10:39:39Z</time></trkpt><trkpt lat="50.62935826218006" lon="15.813864733808048"><ele>523.0</ele><time>2026-05-02T10:39:40Z</time></trkpt><trkpt lat="50.629455309635844" lon="15.813731027194141"><ele>523.0</ele><time>2026-05-02T10:39:41Z</time></trkpt><trkpt lat="50.62955130249329" lon="15.813601568386385"><ele>524.0</ele><time>2026-05-02T10:39:42Z</time></trkpt><trkpt lat="50.62965306434838" lon="15.813485154429848"><ele>525.0</ele><time>2026-05-02T10:39:43Z</time></trkpt><trkpt lat="50.62975673131255" lon="15.813375846319413"><ele>526.0</ele><time>2026-05-02T10:39:44Z</time></trkpt><trkpt lat="50.62986039159302" lon="15.81326133972006"><ele>527.0</ele><time>2026-05-02T10:39:45Z</time></trkpt><trkpt lat="50.629972280897185" lon="15.813146092255833"><ele>527.0</ele><time>2026-05-02T10:39:46Z</time></trkpt><trkpt lat="50.630087967402396" lon="15.813023532757018"><ele>527.0</ele><time>2026-05-02T10:39:47Z</time></trkpt><trkpt lat="50.63020903618271" lon="15.812900247273827"><ele>527.0</ele><time>2026-05-02T10:39:48Z</time></trkpt><trkpt lat="50.63033597611205" lon="15.81278346092849"><ele>527.0</ele><time>2026-05-02T10:39:49Z</time></trkpt><trkpt lat="50.63046030609112" lon="15.812670403881624"><ele>527.75</ele><time>2026-05-02T10:39:50Z</time></trkpt><trkpt lat="50.630572304000935" lon="15.812572858934486"><ele>528.5</ele><time>2026-05-02T10:39:51Z</time></trkpt><trkpt lat="50.63068463997131" lon="15.81248375991206"><ele>529.25</ele><time>2026-05-02T10:39:52Z</time></trkpt><trkpt lat="50.63080512267627" lon="15.812382886169571"><ele>530.0</ele><time>2026-05-02T10:39:53Z</time></trkpt><trkpt lat="50.63092134943734" lon="15.812307892200318"><ele>530.0</ele><time>2026-05-02T10:39:54Z</time></trkpt><trkpt lat="50.63103785391378" lon="15.812242322812299"><ele>530.0</ele><time>2026-05-02T10:39:55Z</time></trkpt><trkpt lat="50.63115439786187" lon="15.812172616849077"><ele>530.0</ele><time>2026-05-02T10:39:56Z</time></trkpt><trkpt lat="50.63127000872007" lon="15.8121008411265"><ele>530.0</ele><time>2026-05-02T10:39:57Z</time></trkpt><trkpt lat="50.63138402002253" lon="15.81204778951874"><ele>529.5</ele><time>2026-05-02T10:39:58Z</time></trkpt><trkpt lat="50.631492803278896" lon="15.811981061159377"><ele>529.0</ele><time>2026-05-02T10:39:59Z</time></trkpt><trkpt lat="50.63161301663598" lon="15.811926235348942"><ele>528.5</ele><time>2026-05-02T10:40:00Z</time></trkpt><trkpt lat="50.63174022175386" lon="15.811887121305633"><ele>528.0</ele><time>2026-05-02T10:40:01Z</time></trkpt><trkpt lat="50.63187411434054" lon="15.811830354477447"><ele>528.5</ele><time>2026-05-02T10:40:02Z</time></trkpt><trkpt lat="50.63201256970539" lon="15.811789894218283"><ele>529.0</ele><time>2026-05-02T10:40:03Z</time></trkpt><trkpt lat="50.632150619028224" lon="15.811782718331173"><ele>529.5</ele><time>2026-05-02T10:40:04Z</time></trkpt><trkpt lat="50.63228847517897" lon="15.811785824425593"><ele>530.0</ele><time>2026-05-02T10:40:05Z</time></trkpt><trkpt lat="50.632428299888986" lon="15.811791893968104"><ele>530.0</ele><time>2026-05-02T10:40:06Z</time></trkpt><trkpt lat="50.632563548857455" lon="15.811804875630651"><ele>530.0</ele><time>2026-05-02T10:40:07Z</time></trkpt><trkpt lat="50.63269371597327" lon="15.811823578125443"><ele>530.0</ele><time>2026-05-02T10:40:08Z</time></trkpt><trkpt lat="50.63282188633468" lon="15.81185094149897"><ele>530.0</ele><time>2026-05-02T10:40:09Z</time></trkpt><trkpt lat="50.632944432067504" lon="15.811880689502157"><ele>529.5</ele><time>2026-05-02T10:40:10Z</time></trkpt><trkpt lat="50.63306557016082" lon="15.8119119829893"><ele>529.0</ele><time>2026-05-02T10:40:11Z</time></trkpt><trkpt lat="50.63318501661929" lon="15.811942468789484"><ele>528.5</ele><time>2026-05-02T10:40:12Z</time></trkpt><trkpt lat="50.63330520349633" lon="15.811985336082389"><ele>528.0</ele><time>2026-05-02T10:40:13Z</time></trkpt><trkpt lat="50.633422522614545" lon="15.812034968586437"><ele>528.0</ele><time>2026-05-02T10:40:14Z</time></trkpt><trkpt lat="50.63354317238685" lon="15.8120806685387"><ele>528.0</ele><time>2026-05-02T10:40:15Z</time></trkpt><trkpt lat="50.63366320801899" lon="15.812127663206645"><ele>528.0</ele><time>2026-05-02T10:40:16Z</time></trkpt><trkpt lat="50.633785742907484" lon="15.812178048009756"><ele>528.0</ele><time>2026-05-02T10:40:17Z</time></trkpt><trkpt lat="50.63390808917331" lon="15.812231636438055"><ele>528.25</ele><time>2026-05-02T10:40:18Z</time></trkpt><trkpt lat="50.63403439639569" lon="15.812271442843759"><ele>528.5</ele><time>2026-05-02T10:40:19Z</time></trkpt><trkpt lat="50.63416639606081" lon="15.812289135133284"><ele>528.75</ele><time>2026-05-02T10:40:20Z</time></trkpt><trkpt lat="50.634305668988965" lon="15.812303790728237"><ele>529.0</ele><time>2026-05-02T10:40:21Z</time></trkpt><trkpt lat="50.634448236432256" lon="15.812328380087626"><ele>529.75</ele><time>2026-05-02T10:40:22Z</time></trkpt><trkpt lat="50.63459042829743" lon="15.812345035511468"><ele>530.5</ele><time>2026-05-02T10:40:23Z</time></trkpt><trkpt lat="50.63472619293362" lon="15.812336332020125"><ele>531.25</ele><time>2026-05-02T10:40:24Z</time></trkpt><trkpt lat="50.63485303642588" lon="15.812319034273138"><ele>532.0</ele><time>2026-05-02T10:40:25Z</time></trkpt><trkpt lat="50.63496901988855" lon="15.812324311275635"><ele>532.0</ele><time>2026-05-02T10:40:26Z</time></trkpt><trkpt lat="50.63508746548075" lon="15.812312978310336"><ele>532.0</ele><time>2026-05-02T10:40:27Z</time></trkpt><trkpt lat="50.635214417706216" lon="15.8122885691321"><ele>532.0</ele><time>2026-05-02T10:40:28Z</time></trkpt><trkpt lat="50.635353228181195" lon="15.812280660172533"><ele>532.0</ele><time>2026-05-02T10:40:29Z</time></trkpt><trkpt lat="50.63548633402283" lon="15.812276748644184"><ele>532.25</ele><time>2026-05-02T10:40:30Z</time></trkpt><trkpt lat="50.63561280253267" lon="15.812263035715537"><ele>532.5</ele><time>2026-05-02T10:40:31Z</time></trkpt><trkpt lat="50.635736393948335" lon="15.812252823283785"><ele>532.75</ele><time>2026-05-02T10:40:32Z</time></trkpt><trkpt lat="50.63585941599501" lon="15.812253149373364"><ele>533.0</ele><time>2026-05-02T10:40:33Z</time></trkpt><trkpt lat="50.635984391232085" lon="15.812262900975979"><ele>533.0</ele><time>2026-05-02T10:40:34Z</time></trkpt><trkpt lat="50.63611190976175" lon="15.81227563854303"><ele>533.0</ele><time>2026-05-02T10:40:35Z</time></trkpt><trkpt lat="50.636238870213525" lon="15.812295375331395"><ele>533.0</ele><time>2026-05-02T10:40:36Z</time></trkpt><trkpt lat="50.63636660395224" lon="15.81232710228352"><ele>533.0</ele><time>2026-05-02T10:40:37Z</time></trkpt><trkpt lat="50.63649597944838" lon="15.812365269188472"><ele>533.25</ele><time>2026-05-02T10:40:38Z</time></trkpt><trkpt lat="50.6366348424592" lon="15.812404086112368"><ele>533.5</ele><time>2026-05-02T10:40:39Z</time></trkpt><trkpt lat="50.6367788428525" lon="15.812455026395627"><ele>533.75</ele><time>2026-05-02T10:40:40Z</time></trkpt><trkpt lat="50.63693171746534" lon="15.812519705553445"><ele>534.0</ele><time>2026-05-02T10:40:41Z</time></trkpt><trkpt lat="50.637064186797645" lon="15.812590803850886"><ele>535.75</ele><time>2026-05-02T10:40:42Z</time></trkpt><trkpt lat="50.637182666136866" lon="15.812663069765884"><ele>537.5</ele><time>2026-05-02T10:40:43Z</time></trkpt><trkpt lat="50.63731271974068" lon="15.81274392833466"><ele>539.25</ele><time>2026-05-02T10:40:44Z</time></trkpt><trkpt lat="50.63745241674561" lon="15.81284084444512"><ele>541.0</ele><time>2026-05-02T10:40:45Z</time></trkpt><trkpt lat="50.63758111323241" lon="15.812952790763797"><ele>541.0</ele><time>2026-05-02T10:40:46Z</time></trkpt><trkpt lat="50.637693198303104" lon="15.813055519528342"><ele>541.0</ele><time>2026-05-02T10:40:47Z</time></trkpt><trkpt lat="50.63780528037384" lon="15.813151556156432"><ele>541.0</ele><time>2026-05-02T10:40:48Z</time></trkpt><trkpt lat="50.637925928570894" lon="15.813248502322805"><ele>541.0</ele><time>2026-05-02T10:40:49Z</time></trkpt><trkpt lat="50.638050830298376" lon="15.813347989846708"><ele>541.75</ele><time>2026-05-02T10:40:50Z</time></trkpt><trkpt lat="50.63817737172344" lon="15.813444958610779"><ele>542.5</ele><time>2026-05-02T10:40:51Z</time></trkpt><trkpt lat="50.63830644154521" lon="15.81354460557763"><ele>543.25</ele><time>2026-05-02T10:40:52Z</time></trkpt><trkpt lat="50.63843372240229" lon="15.813637651258443"><ele>544.0</ele><time>2026-05-02T10:40:53Z</time></trkpt><trkpt lat="50.63856465361957" lon="15.813734033036564"><ele>544.25</ele><time>2026-05-02T10:40:54Z</time></trkpt><trkpt lat="50.638697215389875" lon="15.813826190436219"><ele>544.5</ele><time>2026-05-02T10:40:55Z</time></trkpt><trkpt lat="50.63883440075381" lon="15.81390909606988"><ele>544.75</ele><time>2026-05-02T10:40:56Z</time></trkpt><trkpt lat="50.63896527262448" lon="15.813976027931554"><ele>545.0</ele><time>2026-05-02T10:40:57Z</time></trkpt><trkpt lat="50.63909417790117" lon="15.814033840944152"><ele>545.0</ele><time>2026-05-02T10:40:58Z</time></trkpt><trkpt lat="50.63923056233288" lon="15.814091321384497"><ele>545.0</ele><time>2026-05-02T10:40:59Z</time></trkpt><trkpt lat="50.639370358956135" lon="15.814149489770466"><ele>545.0</ele><time>2026-05-02T10:41:00Z</time></trkpt><trkpt lat="50.63951513591088" lon="15.81419701367468"><ele>545.0</ele><time>2026-05-02T10:41:01Z</time></trkpt><trkpt lat="50.63966519495673" lon="15.81423481483599"><ele>545.25</ele><time>2026-05-02T10:41:02Z</time></trkpt><trkpt lat="50.639808619063274" lon="15.814261806741422"><ele>545.5</ele><time>2026-05-02T10:41:03Z</time></trkpt><trkpt lat="50.63994917253871" lon="15.814285730125972"><ele>545.75</ele><time>2026-05-02T10:41:04Z</time></trkpt><trkpt lat="50.64009243437364" lon="15.81430244888124"><ele>546.0</ele><time>2026-05-02T10:41:05Z</time></trkpt><trkpt lat="50.640241391096446" lon="15.81431360378526"><ele>546.0</ele><time>2026-05-02T10:41:06Z</time></trkpt><trkpt lat="50.64039034787263" lon="15.814317553584342"><ele>546.0</ele><time>2026-05-02T10:41:07Z</time></trkpt><trkpt lat="50.64053844682519" lon="15.814317450879795"><ele>546.0</ele><time>2026-05-02T10:41:08Z</time></trkpt><trkpt lat="50.6406883018132" lon="15.81431171187035"><ele>546.0</ele><time>2026-05-02T10:41:09Z</time></trkpt><trkpt lat="50.64084032136822" lon="15.814305218603026"><ele>546.0</ele><time>2026-05-02T10:41:10Z</time></trkpt><trkpt lat="50.64099104676519" lon="15.814290179838844"><ele>546.0</ele><time>2026-05-02T10:41:11Z</time></trkpt><trkpt lat="50.64114109038722" lon="15.814269068373749"><ele>546.0</ele><time>2026-05-02T10:41:12Z</time></trkpt><trkpt lat="50.641284227909296" lon="15.81425739036744"><ele>546.0</ele><time>2026-05-02T10:41:13Z</time></trkpt><trkpt lat="50.6414245837714" lon="15.814257572323335"><ele>545.0</ele><time>2026-05-02T10:41:14Z</time></trkpt><trkpt lat="50.641539098951384" lon="15.814244903521569"><ele>544.0</ele><time>2026-05-02T10:41:15Z</time></trkpt><trkpt lat="50.64166976193204" lon="15.814215357707637"><ele>543.0</ele><time>2026-05-02T10:41:16Z</time></trkpt><trkpt lat="50.641820883723014" lon="15.814193435830552"><ele>542.0</ele><time>2026-05-02T10:41:17Z</time></trkpt><trkpt lat="50.64197507029504" lon="15.81417334776784"><ele>542.0</ele><time>2026-05-02T10:41:18Z</time></trkpt><trkpt lat="50.64214079285362" lon="15.814162170799012"><ele>542.0</ele><time>2026-05-02T10:41:19Z</time></trkpt><trkpt lat="50.64229184591686" lon="15.814169732545773"><ele>542.0</ele><time>2026-05-02T10:41:20Z</time></trkpt><trkpt lat="50.64242701311865" lon="15.814173444978175"><ele>542.0</ele><time>2026-05-02T10:41:21Z</time></trkpt><trkpt lat="50.64255339236238" lon="15.814180900947822"><ele>542.0</ele><time>2026-05-02T10:41:22Z</time></trkpt><trkpt lat="50.64267879246203" lon="15.814191800580767"><ele>542.0</ele><time>2026-05-02T10:41:23Z</time></trkpt><trkpt lat="50.64280655916765" lon="15.814203767392671"><ele>542.0</ele><time>2026-05-02T10:41:24Z</time></trkpt><trkpt lat="50.64292804090224" lon="15.814220458505643"><ele>542.75</ele><time>2026-05-02T10:41:25Z</time></trkpt><trkpt lat="50.64304025866854" lon="15.814258698978573"><ele>543.5</ele><time>2026-05-02T10:41:26Z</time></trkpt><trkpt lat="50.643151916884435" lon="15.81428745197446"><ele>544.25</ele><time>2026-05-02T10:41:27Z</time></trkpt><trkpt lat="50.64327618551714" lon="15.814300566845075"><ele>545.0</ele><time>2026-05-02T10:41:28Z</time></trkpt><trkpt lat="50.64340257516953" lon="15.814325909042976"><ele>545.0</ele><time>2026-05-02T10:41:29Z</time></trkpt><trkpt lat="50.64352991860325" lon="15.814365745666265"><ele>545.0</ele><time>2026-05-02T10:41:30Z</time></trkpt><trkpt lat="50.643657997657776" lon="15.814407314279954"><ele>545.0</ele><time>2026-05-02T10:41:31Z</time></trkpt><trkpt lat="50.64377047159897" lon="15.81444315833357"><ele>545.0</ele><time>2026-05-02T10:41:32Z</time></trkpt><trkpt lat="50.64386733426806" lon="15.814477047518224"><ele>544.8333333333333</ele><time>2026-05-02T10:41:33Z</time></trkpt><trkpt lat="50.64396796710592" lon="15.814521390932896"><ele>544.6666666666666</ele><time>2026-05-02T10:41:34Z</time></trkpt><trkpt lat="50.644075630395584" lon="15.814581526673535"><ele>544.5</ele><time>2026-05-02T10:41:35Z</time></trkpt><trkpt lat="50.644138704301106" lon="15.814622788877928"><ele>544.3333333333334</ele><time>2026-05-02T10:41:36Z</time></trkpt><trkpt lat="50.64420443343321" lon="15.814672430494545"><ele>544.1666666666667</ele><time>2026-05-02T10:41:47Z</time></trkpt><trkpt lat="50.64427897227881" lon="15.814713789717011"><ele>544.0</ele><time>2026-05-02T10:41:57Z</time></trkpt><trkpt lat="50.644349811989485" lon="15.814713026944492"><ele>544.0</ele><time>2026-05-02T10:42:42Z</time></trkpt><trkpt lat="50.64429692994806" lon="15.81460422542821"><ele>544.0</ele><time>2026-05-02T10:42:45Z</time></trkpt><trkpt lat="50.6442171052743" lon="15.814648037598806"><ele>544.0</ele><time>2026-05-02T10:42:46Z</time></trkpt><trkpt lat="50.64413851672013" lon="15.814602597398746"><ele>544.0</ele><time>2026-05-02T10:42:47Z</time></trkpt><trkpt lat="50.643989657078926" lon="15.814448881063681"><ele>544.0</ele><time>2026-05-02T10:42:48Z</time></trkpt><trkpt lat="50.643891249410316" lon="15.814414921553254"><ele>544.0</ele><time>2026-05-02T10:42:49Z</time></trkpt><trkpt lat="50.64377170323763" lon="15.81436302068368"><ele>544.0</ele><time>2026-05-02T10:42:50Z</time></trkpt><trkpt lat="50.64364967810614" lon="15.814319659119779"><ele>544.0</ele><time>2026-05-02T10:42:51Z</time></trkpt><trkpt lat="50.64351925790784" lon="15.81428554818736"><ele>544.0</ele><time>2026-05-02T10:42:52Z</time></trkpt><trkpt lat="50.643385654415354" lon="15.814254333018942"><ele>544.25</ele><time>2026-05-02T10:42:53Z</time></trkpt><trkpt lat="50.64325900322048" lon="15.814226964563067"><ele>544.5</ele><time>2026-05-02T10:42:54Z</time></trkpt><trkpt lat="50.6431174344897" lon="15.8141943777448"><ele>544.75</ele><time>2026-05-02T10:42:55Z</time></trkpt><trkpt lat="50.6429614107568" lon="15.81416032861679"><ele>545.0</ele><time>2026-05-02T10:42:56Z</time></trkpt><trkpt lat="50.64283407575251" lon="15.81413837086037"><ele>544.4</ele><time>2026-05-02T10:42:57Z</time></trkpt><trkpt lat="50.64272150610401" lon="15.814137141582506"><ele>543.8</ele><time>2026-05-02T10:42:58Z</time></trkpt><trkpt lat="50.642615172042" lon="15.814135350525637"><ele>543.2</ele><time>2026-05-02T10:42:59Z</time></trkpt><trkpt lat="50.64250580392444" lon="15.814136261276694"><ele>542.6</ele><time>2026-05-02T10:43:00Z</time></trkpt><trkpt lat="50.642391914331846" lon="15.814135875598563"><ele>542.0</ele><time>2026-05-02T10:43:01Z</time></trkpt><trkpt lat="50.642269436742964" lon="15.814133931446026"><ele>542.0</ele><time>2026-05-02T10:43:02Z</time></trkpt><trkpt lat="50.64213991462818" lon="15.814141336120672"><ele>542.0</ele><time>2026-05-02T10:43:03Z</time></trkpt><trkpt lat="50.64201379387971" lon="15.814150270185939"><ele>542.0</ele><time>2026-05-02T10:43:04Z</time></trkpt><trkpt lat="50.64190777312828" lon="15.814158632802727"><ele>542.0</ele><time>2026-05-02T10:43:05Z</time></trkpt><trkpt lat="50.641813084629426" lon="15.81416040392301"><ele>541.8000000000001</ele><time>2026-05-02T10:43:06Z</time></trkpt><trkpt lat="50.641729333115144" lon="15.81415832855134"><ele>541.6</ele><time>2026-05-02T10:43:07Z</time></trkpt><trkpt lat="50.64165072691765" lon="15.81416937057016"><ele>541.4000000000001</ele><time>2026-05-02T10:43:08Z</time></trkpt><trkpt lat="50.6415629693803" lon="15.814175066044376"><ele>541.2</ele><time>2026-05-02T10:43:10Z</time></trkpt><trkpt lat="50.64159059113765" lon="15.814470023794756"><ele>541.0</ele><time>2026-05-02T10:43:12Z</time></trkpt><trkpt lat="50.64158298388032" lon="15.814575562835714"><ele>541.0</ele><time>2026-05-02T10:43:13Z</time></trkpt><trkpt lat="50.64159743885026" lon="15.814738915255125"><ele>541.0</ele><time>2026-05-02T10:43:15Z</time></trkpt><trkpt lat="50.64178191824969" lon="15.814797713691775"><ele>541.0</ele><time>2026-05-02T10:43:17Z</time></trkpt><trkpt lat="50.64187505689091" lon="15.814837855341354"><ele>541.0</ele><time>2026-05-02T10:43:18Z</time></trkpt><trkpt lat="50.64197847032072" lon="15.814880462386926"><ele>541.4</ele><time>2026-05-02T10:43:19Z</time></trkpt><trkpt lat="50.64207739317169" lon="15.81491058685434"><ele>541.8</ele><time>2026-05-02T10:43:20Z</time></trkpt><trkpt lat="50.64217458873707" lon="15.814929675711465"><ele>542.1999999999999</ele><time>2026-05-02T10:43:21Z</time></trkpt><trkpt lat="50.642268685294205" lon="15.814946258698738"><ele>542.6</ele><time>2026-05-02T10:43:22Z</time></trkpt><trkpt lat="50.64235964817498" lon="15.814987003155407"><ele>543.0</ele><time>2026-05-02T10:43:23Z</time></trkpt><trkpt lat="50.642430941012194" lon="15.815001296345722"><ele>543.0</ele><time>2026-05-02T10:43:24Z</time></trkpt><trkpt lat="50.64252212372245" lon="15.815042351305392"><ele>543.0</ele><time>2026-05-02T10:43:26Z</time></trkpt><trkpt lat="50.642573306943035" lon="15.815113564451686"><ele>543.0</ele><time>2026-05-02T10:43:28Z</time></trkpt><trkpt lat="50.64255483380936" lon="15.815259056205692"><ele>543.0</ele><time>2026-05-02T10:43:30Z</time></trkpt><trkpt lat="50.64257622844085" lon="15.815375583273175"><ele>543.0</ele><time>2026-05-02T10:43:33Z</time></trkpt><trkpt lat="50.64277589515995" lon="15.815360801801377"><ele>544.6666666666666</ele><time>2026-05-02T10:43:34Z</time></trkpt><trkpt lat="50.642857414991845" lon="15.815411069708862"><ele>546.3333333333334</ele><time>2026-05-02T10:43:35Z</time></trkpt><trkpt lat="50.642947838244" lon="15.815450614541653"><ele>548.0</ele><time>2026-05-02T10:43:36Z</time></trkpt><trkpt lat="50.64302958318899" lon="15.815491459065345"><ele>549.6666666666667</ele><time>2026-05-02T10:43:37Z</time></trkpt><trkpt lat="50.64309682151644" lon="15.815528501800877"><ele>551.3333333333334</ele><time>2026-05-02T10:43:38Z</time></trkpt><trkpt lat="50.64316088300413" lon="15.815564525541788"><ele>553.0</ele><time>2026-05-02T10:43:39Z</time></trkpt><trkpt lat="50.643222712217664" lon="15.815599293956964"><ele>553.0</ele><time>2026-05-02T10:43:40Z</time></trkpt><trkpt lat="50.64328643776019" lon="15.81561160575495"><ele>553.0</ele><time>2026-05-02T10:43:41Z</time></trkpt><trkpt lat="50.64340416738109" lon="15.815670053997236"><ele>553.0</ele><time>2026-05-02T10:43:43Z</time></trkpt><trkpt lat="50.643510900136484" lon="15.815752068950285"><ele>553.0</ele><time>2026-05-02T10:43:45Z</time></trkpt><trkpt lat="50.64357831475463" lon="15.815773640555003"><ele>553.0</ele><time>2026-05-02T10:43:47Z</time></trkpt><trkpt lat="50.64363327781671" lon="15.81583397694728"><ele>553.0</ele><time>2026-05-02T10:43:51Z</time></trkpt><trkpt lat="50.64370261792611" lon="15.815832198584223"><ele>552.5714285714286</ele><time>2026-05-02T10:45:38Z</time></trkpt><trkpt lat="50.64376856068469" lon="15.815792436957548"><ele>552.1428571428571</ele><time>2026-05-02T10:46:00Z</time></trkpt><trkpt lat="50.64378787651976" lon="15.815683743909247"><ele>551.7142857142858</ele><time>2026-05-02T10:46:21Z</time></trkpt><trkpt lat="50.64386442655839" lon="15.81571781331117"><ele>551.2857142857142</ele><time>2026-05-02T10:46:37Z</time></trkpt><trkpt lat="50.64392056118046" lon="15.815619250571777"><ele>550.8571428571429</ele><time>2026-05-02T10:46:54Z</time></trkpt><trkpt lat="50.643984377888984" lon="15.815606708352464"><ele>550.4285714285714</ele><time>2026-05-02T10:47:02Z</time></trkpt><trkpt lat="50.644052832906056" lon="15.815600830462772"><ele>550.0</ele><time>2026-05-02T10:47:09Z</time></trkpt><trkpt lat="50.64411417927252" lon="15.815568967480921"><ele>550.0</ele><time>2026-05-02T10:47:17Z</time></trkpt><trkpt lat="50.64418961685286" lon="15.815597496343363"><ele>550.0</ele><time>2026-05-02T10:49:20Z</time></trkpt><trkpt lat="50.64413736243269" lon="15.815527246278144"><ele>550.0</ele><time>2026-05-02T11:12:55Z</time></trkpt><trkpt lat="50.64407547970896" lon="15.815546040199735"><ele>550.0</ele><time>2026-05-02T11:13:01Z</time></trkpt><trkpt lat="50.64400901923485" lon="15.81556825678171"><ele>550.0</ele><time>2026-05-02T11:13:08Z</time></trkpt><trkpt lat="50.64394668902595" lon="15.815593284910676"><ele>550.0</ele><time>2026-05-02T11:13:16Z</time></trkpt><trkpt lat="50.6438782957581" lon="15.815633508107165"><ele>550.0</ele><time>2026-05-02T11:13:26Z</time></trkpt><trkpt lat="50.643810314915946" lon="15.815660176570425"><ele>550.0</ele><time>2026-05-02T11:13:38Z</time></trkpt><trkpt lat="50.64376170833618" lon="15.815726665082106"><ele>550.0</ele><time>2026-05-02T11:13:50Z</time></trkpt><trkpt lat="50.64372663242879" lon="15.81581729602323"><ele>550.0</ele><time>2026-05-02T11:14:01Z</time></trkpt><trkpt lat="50.64365899783148" lon="15.815803087351009"><ele>550.0</ele><time>2026-05-02T11:18:16.999Z</time></trkpt><trkpt lat="50.64359421973216" lon="15.815777001094542"><ele>550.0</ele><time>2026-05-02T11:18:23.999Z</time></trkpt><trkpt lat="50.64349641056818" lon="15.815723031017468"><ele>550.0</ele><time>2026-05-02T11:18:25.999Z</time></trkpt><trkpt lat="50.64343533471636" lon="15.815681464497105"><ele>550.0</ele><time>2026-05-02T11:18:26.999Z</time></trkpt><trkpt lat="50.64336532848834" lon="15.815646070944739"><ele>550.5</ele><time>2026-05-02T11:18:27.999Z</time></trkpt><trkpt lat="50.64329165700116" lon="15.815614960495216"><ele>551.0</ele><time>2026-05-02T11:18:28.999Z</time></trkpt><trkpt lat="50.64322013666901" lon="15.815575083009172"><ele>551.5</ele><time>2026-05-02T11:18:29.999Z</time></trkpt><trkpt lat="50.64314786685566" lon="15.815533141170281"><ele>552.0</ele><time>2026-05-02T11:18:30.999Z</time></trkpt><trkpt lat="50.64307611217897" lon="15.815491017312379"><ele>552.5</ele><time>2026-05-02T11:18:31.999Z</time></trkpt><trkpt lat="50.64300834133828" lon="15.815461475295495"><ele>553.0</ele><time>2026-05-02T11:18:32.999Z</time></trkpt><trkpt lat="50.64293276442764" lon="15.815429420554421"><ele>553.0</ele><time>2026-05-02T11:18:33.999Z</time></trkpt><trkpt lat="50.6428668942192" lon="15.815405100619492"><ele>553.0</ele><time>2026-05-02T11:18:34.999Z</time></trkpt><trkpt lat="50.64275408811428" lon="15.815343502740587"><ele>553.0</ele><time>2026-05-02T11:18:36.999Z</time></trkpt><trkpt lat="50.64268463622539" lon="15.815323260052217"><ele>553.0</ele><time>2026-05-02T11:18:37.999Z</time></trkpt><trkpt lat="50.6425880247637" lon="15.815305091232483"><ele>553.0</ele><time>2026-05-02T11:18:39.999Z</time></trkpt><trkpt lat="50.64256266941117" lon="15.815206382502152"><ele>553.0</ele><time>2026-05-02T11:18:41.999Z</time></trkpt><trkpt lat="50.642561166079616" lon="15.815078207549089"><ele>551.3333333333334</ele><time>2026-05-02T11:18:43.999Z</time></trkpt><trkpt lat="50.6424985603578" lon="15.814990384281325"><ele>549.6666666666667</ele><time>2026-05-02T11:18:45.999Z</time></trkpt><trkpt lat="50.6424224871709" lon="15.814965568160103"><ele>548.0</ele><time>2026-05-02T11:18:46.999Z</time></trkpt><trkpt lat="50.64233218257484" lon="15.814956655293905"><ele>546.3333333333334</ele><time>2026-05-02T11:18:47.999Z</time></trkpt><trkpt lat="50.64227357329536" lon="15.814916924329808"><ele>544.6666666666666</ele><time>2026-05-02T11:18:48.999Z</time></trkpt><trkpt lat="50.64216330104351" lon="15.81488907486807"><ele>543.0</ele><time>2026-05-02T11:18:50.999Z</time></trkpt><trkpt lat="50.642064839179625" lon="15.814884835558887"><ele>543.0</ele><time>2026-05-02T11:18:52.999Z</time></trkpt><trkpt lat="50.6419711607113" lon="15.814862082701051"><ele>543.0</ele><time>2026-05-02T11:18:54.999Z</time></trkpt><trkpt lat="50.64188519203618" lon="15.814805157480984"><ele>543.0</ele><time>2026-05-02T11:18:56.999Z</time></trkpt><trkpt lat="50.64180335933873" lon="15.81478513649235"><ele>543.0</ele><time>2026-05-02T11:18:58.999Z</time></trkpt><trkpt lat="50.641722428212795" lon="15.814750704738747"><ele>543.0</ele><time>2026-05-02T11:19:00.999Z</time></trkpt><trkpt lat="50.641627212261255" lon="15.814699240832798"><ele>542.6666666666666</ele><time>2026-05-02T11:19:02.999Z</time></trkpt><trkpt lat="50.64161616114879" lon="15.81457152698677"><ele>542.3333333333334</ele><time>2026-05-02T11:19:04.999Z</time></trkpt><trkpt lat="50.64160904579724" lon="15.814470447493065"><ele>542.0</ele><time>2026-05-02T11:19:05.998Z</time></trkpt><trkpt lat="50.64158801675037" lon="15.814333953856162"><ele>541.6666666666667</ele><time>2026-05-02T11:19:07.998Z</time></trkpt><trkpt lat="50.64162200601579" lon="15.81420895188311"><ele>541.3333333333334</ele><time>2026-05-02T11:19:10.998Z</time></trkpt><trkpt lat="50.64168939667437" lon="15.814214349217542"><ele>541.0</ele><time>2026-05-02T11:19:11.999Z</time></trkpt><trkpt lat="50.64177665297726" lon="15.814204322924045"><ele>541.0</ele><time>2026-05-02T11:19:12.999Z</time></trkpt><trkpt lat="50.64188851548834" lon="15.814180197364134"><ele>541.0</ele><time>2026-05-02T11:19:13.999Z</time></trkpt><trkpt lat="50.642026553182696" lon="15.814182235402587"><ele>541.0</ele><time>2026-05-02T11:19:14.999Z</time></trkpt><trkpt lat="50.64218781708262" lon="15.814171092817418"><ele>541.0</ele><time>2026-05-02T11:19:15.999Z</time></trkpt><trkpt lat="50.642390325434526" lon="15.814158132864568"><ele>541.3333333333334</ele><time>2026-05-02T11:19:16.999Z</time></trkpt><trkpt lat="50.64261181956293" lon="15.81415423326517"><ele>541.6666666666666</ele><time>2026-05-02T11:19:17.999Z</time></trkpt><trkpt lat="50.64281892205825" lon="15.814194713038672"><ele>542.0</ele><time>2026-05-02T11:19:18.999Z</time></trkpt><trkpt lat="50.64298399161923" lon="15.814200497900433"><ele>542.75</ele><time>2026-05-02T11:19:19.999Z</time></trkpt><trkpt lat="50.643048135281425" lon="15.814240007614089"><ele>543.5</ele><time>2026-05-02T11:19:20.999Z</time></trkpt><trkpt lat="50.643225946331526" lon="15.814273655038182"><ele>544.25</ele><time>2026-05-02T11:19:21.999Z</time></trkpt><trkpt lat="50.643411945294496" lon="15.814297529491414"><ele>545.0</ele><time>2026-05-02T11:19:22.999Z</time></trkpt><trkpt lat="50.64360102038095" lon="15.814359646031315"><ele>544.6666666666666</ele><time>2026-05-02T11:19:23.999Z</time></trkpt><trkpt lat="50.643791996642165" lon="15.814434225515416"><ele>544.3333333333334</ele><time>2026-05-02T11:19:24.999Z</time></trkpt><trkpt lat="50.643973737614516" lon="15.814516921297436"><ele>544.0</ele><time>2026-05-02T11:19:25.999Z</time></trkpt><trkpt lat="50.64415034451545" lon="15.814603228869696"><ele>544.0</ele><time>2026-05-02T11:19:27Z</time></trkpt><trkpt lat="50.64433938443545" lon="15.814710240584333"><ele>544.0</ele><time>2026-05-02T11:19:28Z</time></trkpt><trkpt lat="50.644565725096484" lon="15.814839639932496"><ele>544.0</ele><time>2026-05-02T11:19:29Z</time></trkpt><trkpt lat="50.64475069050821" lon="15.814949505694901"><ele>545.6666666666667</ele><time>2026-05-02T11:19:30Z</time></trkpt><trkpt lat="50.64491478425331" lon="15.815051419751482"><ele>547.3333333333334</ele><time>2026-05-02T11:19:31Z</time></trkpt><trkpt lat="50.6450995957524" lon="15.815172292803968"><ele>549.0</ele><time>2026-05-02T11:19:32Z</time></trkpt><trkpt lat="50.645280560878646" lon="15.815317741892883"><ele>551.0</ele><time>2026-05-02T11:19:33Z</time></trkpt><trkpt lat="50.64546441375909" lon="15.815445047006728"><ele>553.0</ele><time>2026-05-02T11:19:34Z</time></trkpt><trkpt lat="50.64568789826681" lon="15.815568325270018"><ele>555.0</ele><time>2026-05-02T11:19:35Z</time></trkpt><trkpt lat="50.645935355246785" lon="15.81569303669699"><ele>557.0</ele><time>2026-05-02T11:19:36Z</time></trkpt><trkpt lat="50.64619573267561" lon="15.81578607681646"><ele>559.0</ele><time>2026-05-02T11:19:37Z</time></trkpt><trkpt lat="50.646442418488974" lon="15.815839472229243"><ele>559.0</ele><time>2026-05-02T11:19:38Z</time></trkpt><trkpt lat="50.64670589027662" lon="15.815867492735572"><ele>559.0</ele><time>2026-05-02T11:19:39Z</time></trkpt><trkpt lat="50.646984497561455" lon="15.81587807875927"><ele>560.0</ele><time>2026-05-02T11:19:40Z</time></trkpt><trkpt lat="50.64727595515192" lon="15.815864271368058"><ele>561.0</ele><time>2026-05-02T11:19:41Z</time></trkpt><trkpt lat="50.64756697144985" lon="15.81585969281381"><ele>562.0</ele><time>2026-05-02T11:19:42Z</time></trkpt><trkpt lat="50.64782584432799" lon="15.815865660939311"><ele>563.0</ele><time>2026-05-02T11:19:43Z</time></trkpt><trkpt lat="50.64806649466382" lon="15.815928688247855"><ele>557.0</ele><time>2026-05-02T11:19:44Z</time></trkpt><trkpt lat="50.648293414164215" lon="15.816003223734485"><ele>551.0</ele><time>2026-05-02T11:19:45Z</time></trkpt><trkpt lat="50.6485283522754" lon="15.816099131589588"><ele>553.6666666666666</ele><time>2026-05-02T11:19:46Z</time></trkpt><trkpt lat="50.64872546613396" lon="15.81625384580328"><ele>556.3333333333334</ele><time>2026-05-02T11:19:47Z</time></trkpt><trkpt lat="50.64891544059938" lon="15.816369383281534"><ele>559.0</ele><time>2026-05-02T11:19:48Z</time></trkpt><trkpt lat="50.649084967587406" lon="15.81654633224832"><ele>559.0</ele><time>2026-05-02T11:19:49Z</time></trkpt><trkpt lat="50.64926667291841" lon="15.816725321200828"><ele>559.0</ele><time>2026-05-02T11:19:50Z</time></trkpt><trkpt lat="50.64944990802303" lon="15.816917113706207"><ele>559.0</ele><time>2026-05-02T11:19:51Z</time></trkpt><trkpt lat="50.64965547652093" lon="15.817139922422122"><ele>561.0</ele><time>2026-05-02T11:19:52Z</time></trkpt><trkpt lat="50.64988251564836" lon="15.817371697680096"><ele>563.0</ele><time>2026-05-02T11:19:53Z</time></trkpt><trkpt lat="50.65012709214334" lon="15.81760885578082"><ele>564.0</ele><time>2026-05-02T11:19:54Z</time></trkpt><trkpt lat="50.65038516741449" lon="15.8178592442683"><ele>565.0</ele><time>2026-05-02T11:19:55Z</time></trkpt><trkpt lat="50.65065365559386" lon="15.818084627098175"><ele>565.0</ele><time>2026-05-02T11:19:56Z</time></trkpt><trkpt lat="50.65093164687267" lon="15.818300243773614"><ele>565.0</ele><time>2026-05-02T11:19:57Z</time></trkpt><trkpt lat="50.65122367084208" lon="15.818493471031568"><ele>564.0</ele><time>2026-05-02T11:19:58Z</time></trkpt><trkpt lat="50.65152796229277" lon="15.818668626183639"><ele>563.0</ele><time>2026-05-02T11:19:59Z</time></trkpt><trkpt lat="50.65184503621209" lon="15.818818374092151"><ele>566.0</ele><time>2026-05-02T11:20:00Z</time></trkpt><trkpt lat="50.65213426847355" lon="15.81891762926286"><ele>569.0</ele><time>2026-05-02T11:20:01Z</time></trkpt><trkpt lat="50.65239229562621" lon="15.819021619089698"><ele>569.0</ele><time>2026-05-02T11:20:02Z</time></trkpt><trkpt lat="50.652626598659" lon="15.819112879037608"><ele>569.0</ele><time>2026-05-02T11:20:03Z</time></trkpt><trkpt lat="50.65284057797447" lon="15.819201752310397"><ele>567.6666666666666</ele><time>2026-05-02T11:20:04Z</time></trkpt><trkpt lat="50.653037046579705" lon="15.81928852833061"><ele>566.3333333333334</ele><time>2026-05-02T11:20:05Z</time></trkpt><trkpt lat="50.65321285786429" lon="15.819360318239307"><ele>565.0</ele><time>2026-05-02T11:20:06Z</time></trkpt><trkpt lat="50.65336468600142" lon="15.819419824120914"><ele>565.0</ele><time>2026-05-02T11:20:07Z</time></trkpt><trkpt lat="50.65348900567938" lon="15.819491552500107"><ele>565.0</ele><time>2026-05-02T11:20:08Z</time></trkpt><trkpt lat="50.653599986190116" lon="15.819570010606432"><ele>565.0</ele><time>2026-05-02T11:20:09Z</time></trkpt><trkpt lat="50.653724746520126" lon="15.81963534386531"><ele>565.0</ele><time>2026-05-02T11:20:10Z</time></trkpt><trkpt lat="50.65386477786317" lon="15.819704446601452"><ele>567.3333333333334</ele><time>2026-05-02T11:20:11Z</time></trkpt><trkpt lat="50.654025203755175" lon="15.819772069357326"><ele>569.6666666666666</ele><time>2026-05-02T11:20:12Z</time></trkpt><trkpt lat="50.654186531615345" lon="15.819846866189565"><ele>572.0</ele><time>2026-05-02T11:20:13Z</time></trkpt><trkpt lat="50.65433880973756" lon="15.819926764659172"><ele>574.0</ele><time>2026-05-02T11:20:14Z</time></trkpt><trkpt lat="50.654497804192765" lon="15.82000145669736"><ele>576.0</ele><time>2026-05-02T11:20:15Z</time></trkpt><trkpt lat="50.65466502588385" lon="15.820078513772659"><ele>578.0</ele><time>2026-05-02T11:20:16Z</time></trkpt><trkpt lat="50.654832463439455" lon="15.820148579349913"><ele>574.6666666666666</ele><time>2026-05-02T11:20:17Z</time></trkpt><trkpt lat="50.6550044048151" lon="15.82020526434605"><ele>571.3333333333334</ele><time>2026-05-02T11:20:18Z</time></trkpt><trkpt lat="50.65516587441518" lon="15.820246189826936"><ele>568.0</ele><time>2026-05-02T11:20:19Z</time></trkpt><trkpt lat="50.65532011133069" lon="15.820287682922622"><ele>568.0</ele><time>2026-05-02T11:20:20Z</time></trkpt><trkpt lat="50.65546126320063" lon="15.820312730665272"><ele>568.0</ele><time>2026-05-02T11:20:21Z</time></trkpt><trkpt lat="50.655610782061146" lon="15.820329448855766"><ele>568.0</ele><time>2026-05-02T11:20:22Z</time></trkpt><trkpt lat="50.65577301989039" lon="15.820347878298659"><ele>568.0</ele><time>2026-05-02T11:20:23Z</time></trkpt><trkpt lat="50.65593947894626" lon="15.820360581067558"><ele>568.0</ele><time>2026-05-02T11:20:24Z</time></trkpt><trkpt lat="50.65611323521922" lon="15.820367855628911"><ele>568.0</ele><time>2026-05-02T11:20:25Z</time></trkpt><trkpt lat="50.65628921844462" lon="15.820361713072483"><ele>569.0</ele><time>2026-05-02T11:20:26Z</time></trkpt><trkpt lat="50.65646845801586" lon="15.820344935668853"><ele>570.0</ele><time>2026-05-02T11:20:27Z</time></trkpt><trkpt lat="50.656643048443186" lon="15.820313140770704"><ele>571.0</ele><time>2026-05-02T11:20:28Z</time></trkpt><trkpt lat="50.65680927622389" lon="15.82026714870683"><ele>570.3333333333334</ele><time>2026-05-02T11:20:29Z</time></trkpt><trkpt lat="50.656962952985914" lon="15.820207948160942"><ele>569.6666666666666</ele><time>2026-05-02T11:20:30Z</time></trkpt><trkpt lat="50.65711096692733" lon="15.82015190389791"><ele>569.0</ele><time>2026-05-02T11:20:31Z</time></trkpt><trkpt lat="50.65725106481157" lon="15.820096932020832"><ele>569.8</ele><time>2026-05-02T11:20:32Z</time></trkpt><trkpt lat="50.65737439291657" lon="15.820048491333113"><ele>570.5999999999999</ele><time>2026-05-02T11:20:33Z</time></trkpt><trkpt lat="50.65747800822779" lon="15.82000700752221"><ele>571.4</ele><time>2026-05-02T11:20:34Z</time></trkpt><trkpt lat="50.65754336652834" lon="15.819979088760702"><ele>572.1999999999999</ele><time>2026-05-02T11:20:35Z</time></trkpt><trkpt lat="50.65761684494159" lon="15.819939585259883"><ele>573.0</ele><time>2026-05-02T11:20:37.001Z</time></trkpt><trkpt lat="50.65769540795909" lon="15.819893920966281"><ele>573.25</ele><time>2026-05-02T11:20:39.001Z</time></trkpt><trkpt lat="50.65783409821545" lon="15.819842100924577"><ele>573.5</ele><time>2026-05-02T11:20:41.001Z</time></trkpt><trkpt lat="50.65794413717846" lon="15.819792375309865"><ele>573.75</ele><time>2026-05-02T11:20:42.001Z</time></trkpt><trkpt lat="50.65808376728546" lon="15.819723478937918"><ele>574.0</ele><time>2026-05-02T11:20:43.001Z</time></trkpt><trkpt lat="50.65824017348041" lon="15.819649137833498"><ele>574.0</ele><time>2026-05-02T11:20:44.001Z</time></trkpt><trkpt lat="50.6584155073279" lon="15.819587962780082"><ele>574.0</ele><time>2026-05-02T11:20:45.001Z</time></trkpt><trkpt lat="50.658589109863215" lon="15.819489061184122"><ele>574.0</ele><time>2026-05-02T11:20:46.001Z</time></trkpt><trkpt lat="50.658764022227444" lon="15.81942361039105"><ele>573.6666666666667</ele><time>2026-05-02T11:20:47.001Z</time></trkpt><trkpt lat="50.65894806854094" lon="15.819372437481753"><ele>573.3333333333334</ele><time>2026-05-02T11:20:48.001Z</time></trkpt><trkpt lat="50.65912771345655" lon="15.819309950297631"><ele>573.0</ele><time>2026-05-02T11:20:49.001Z</time></trkpt><trkpt lat="50.65928707858556" lon="15.819230558989302"><ele>574.3333333333334</ele><time>2026-05-02T11:20:50.001Z</time></trkpt><trkpt lat="50.65943252455618" lon="15.819161881246881"><ele>575.6666666666667</ele><time>2026-05-02T11:20:51.001Z</time></trkpt><trkpt lat="50.659587663560764" lon="15.819101187865382"><ele>577.0</ele><time>2026-05-02T11:20:52.001Z</time></trkpt><trkpt lat="50.65972597276836" lon="15.819045158863082"><ele>577.0</ele><time>2026-05-02T11:20:53.001Z</time></trkpt><trkpt lat="50.65986371129792" lon="15.81899649790569"><ele>577.0</ele><time>2026-05-02T11:20:54.001Z</time></trkpt><trkpt lat="50.66000052479326" lon="15.818953538446035"><ele>577.0</ele><time>2026-05-02T11:20:55.001Z</time></trkpt><trkpt lat="50.66013330215299" lon="15.818921130629583"><ele>577.0</ele><time>2026-05-02T11:20:56.001Z</time></trkpt><trkpt lat="50.660261822507174" lon="15.818898859508039"><ele>576.75</ele><time>2026-05-02T11:20:57.001Z</time></trkpt><trkpt lat="50.660385668752966" lon="15.818883843215442"><ele>576.5</ele><time>2026-05-02T11:20:58.001Z</time></trkpt><trkpt lat="50.66051710529998" lon="15.818869638695027"><ele>576.25</ele><time>2026-05-02T11:20:59.001Z</time></trkpt><trkpt lat="50.66066096115381" lon="15.81886063849843"><ele>576.0</ele><time>2026-05-02T11:21:00.001Z</time></trkpt><trkpt lat="50.66081073320784" lon="15.818867302674487"><ele>576.0</ele><time>2026-05-02T11:21:01.001Z</time></trkpt><trkpt lat="50.66096236889153" lon="15.818853304818441"><ele>576.0</ele><time>2026-05-02T11:21:02.001Z</time></trkpt><trkpt lat="50.66110848387095" lon="15.818811036208677"><ele>576.0</ele><time>2026-05-02T11:21:03.001Z</time></trkpt><trkpt lat="50.66125385039546" lon="15.818738950834781"><ele>577.3333333333334</ele><time>2026-05-02T11:21:04.001Z</time></trkpt><trkpt lat="50.661389780593346" lon="15.818618364161363"><ele>578.6666666666667</ele><time>2026-05-02T11:21:05.001Z</time></trkpt><trkpt lat="50.66150936145518" lon="15.818465898259026"><ele>580.0</ele><time>2026-05-02T11:21:06.001Z</time></trkpt><trkpt lat="50.661615386105915" lon="15.818258248663916"><ele>580.0</ele><time>2026-05-02T11:21:07.001Z</time></trkpt><trkpt lat="50.661704696154786" lon="15.818016250062938"><ele>580.0</ele><time>2026-05-02T11:21:08.001Z</time></trkpt><trkpt lat="50.6617719257722" lon="15.817745023681187"><ele>580.0</ele><time>2026-05-02T11:21:09.001Z</time></trkpt><trkpt lat="50.66181572811241" lon="15.817458959643766"><ele>579.3333333333334</ele><time>2026-05-02T11:21:10.001Z</time></trkpt><trkpt lat="50.66184374199128" lon="15.817185861178423"><ele>578.6666666666666</ele><time>2026-05-02T11:21:11.001Z</time></trkpt><trkpt lat="50.66187476220305" lon="15.816934269822678"><ele>578.0</ele><time>2026-05-02T11:21:12Z</time></trkpt><trkpt lat="50.66191376818244" lon="15.81668894138067"><ele>581.3333333333333</ele><time>2026-05-02T11:21:13Z</time></trkpt><trkpt lat="50.66195450850112" lon="15.816425070068963"><ele>584.6666666666666</ele><time>2026-05-02T11:21:14Z</time></trkpt><trkpt lat="50.661991734617416" lon="15.81616495864577"><ele>588.0</ele><time>2026-05-02T11:21:15Z</time></trkpt><trkpt lat="50.662024564589544" lon="15.815926649497687"><ele>589.0</ele><time>2026-05-02T11:21:16Z</time></trkpt><trkpt lat="50.66205482502817" lon="15.815693386533795"><ele>590.0</ele><time>2026-05-02T11:21:17Z</time></trkpt><trkpt lat="50.662082116841006" lon="15.815456720800833"><ele>591.0</ele><time>2026-05-02T11:21:18Z</time></trkpt><trkpt lat="50.6621084277371" lon="15.815214687665275"><ele>590.6666666666666</ele><time>2026-05-02T11:21:19Z</time></trkpt><trkpt lat="50.66212961606541" lon="15.814979089800422"><ele>590.3333333333333</ele><time>2026-05-02T11:21:20Z</time></trkpt><trkpt lat="50.662148711075204" lon="15.814730808967122"><ele>590.0</ele><time>2026-05-02T11:21:21Z</time></trkpt><trkpt lat="50.66217068638888" lon="15.814473808772133"><ele>589.3333333333333</ele><time>2026-05-02T11:21:22Z</time></trkpt><trkpt lat="50.662194783121436" lon="15.814217516395752"><ele>588.6666666666666</ele><time>2026-05-02T11:21:23Z</time></trkpt><trkpt lat="50.66221590144622" lon="15.81395762593358"><ele>588.0</ele><time>2026-05-02T11:21:24Z</time></trkpt><trkpt lat="50.66224786651678" lon="15.813695440016597"><ele>588.3333333333334</ele><time>2026-05-02T11:21:25Z</time></trkpt><trkpt lat="50.662278098058124" lon="15.8134374904446"><ele>588.6666666666667</ele><time>2026-05-02T11:21:26Z</time></trkpt><trkpt lat="50.66231249200911" lon="15.813173795117633"><ele>589.0</ele><time>2026-05-02T11:21:27Z</time></trkpt><trkpt lat="50.66235475690214" lon="15.812903759633116"><ele>589.6666666666667</ele><time>2026-05-02T11:21:28Z</time></trkpt><trkpt lat="50.662410323741746" lon="15.812628302310545"><ele>590.3333333333334</ele><time>2026-05-02T11:21:29Z</time></trkpt><trkpt lat="50.6624710066951" lon="15.812339834667084"><ele>591.0</ele><time>2026-05-02T11:21:30Z</time></trkpt><trkpt lat="50.662537128035545" lon="15.812042933303802"><ele>594.3333333333334</ele><time>2026-05-02T11:21:31Z</time></trkpt><trkpt lat="50.66261842208352" lon="15.811746347250299"><ele>597.6666666666667</ele><time>2026-05-02T11:21:32Z</time></trkpt><trkpt lat="50.66271601665055" lon="15.811471731432476"><ele>601.0</ele><time>2026-05-02T11:21:33Z</time></trkpt><trkpt lat="50.66283215212684" lon="15.811192596630528"><ele>602.0</ele><time>2026-05-02T11:21:34Z</time></trkpt><trkpt lat="50.662964487238526" lon="15.810937162881961"><ele>603.0</ele><time>2026-05-02T11:21:35Z</time></trkpt><trkpt lat="50.66310191224509" lon="15.810688502303515"><ele>604.0</ele><time>2026-05-02T11:21:36Z</time></trkpt><trkpt lat="50.66323334351094" lon="15.810467250337421"><ele>604.0</ele><time>2026-05-02T11:21:37Z</time></trkpt><trkpt lat="50.66336955707574" lon="15.810232326537436"><ele>604.0</ele><time>2026-05-02T11:21:38Z</time></trkpt><trkpt lat="50.66350334213006" lon="15.809994756701286"><ele>604.0</ele><time>2026-05-02T11:21:39Z</time></trkpt><trkpt lat="50.66363135886479" lon="15.809766917863994"><ele>607.0</ele><time>2026-05-02T11:21:40Z</time></trkpt><trkpt lat="50.663751772674274" lon="15.809545266214602"><ele>610.0</ele><time>2026-05-02T11:21:41Z</time></trkpt><trkpt lat="50.663868654230725" lon="15.809317416403253"><ele>613.0</ele><time>2026-05-02T11:21:42Z</time></trkpt><trkpt lat="50.6639763160538" lon="15.809099420405818"><ele>613.0</ele><time>2026-05-02T11:21:43Z</time></trkpt><trkpt lat="50.66407718042024" lon="15.808904534583485"><ele>613.0</ele><time>2026-05-02T11:21:44Z</time></trkpt><trkpt lat="50.66416715472678" lon="15.808721043103612"><ele>613.0</ele><time>2026-05-02T11:21:45Z</time></trkpt><trkpt lat="50.66424265894532" lon="15.808534153306512"><ele>613.0</ele><time>2026-05-02T11:21:46Z</time></trkpt><trkpt lat="50.66430553674968" lon="15.808323103045135"><ele>617.0</ele><time>2026-05-02T11:21:47Z</time></trkpt><trkpt lat="50.664369684355364" lon="15.80810653368553"><ele>621.0</ele><time>2026-05-02T11:21:48Z</time></trkpt><trkpt lat="50.66442964291305" lon="15.807865464501226"><ele>625.0</ele><time>2026-05-02T11:21:49Z</time></trkpt><trkpt lat="50.66447485014214" lon="15.807595526080188"><ele>625.0</ele><time>2026-05-02T11:21:50Z</time></trkpt><trkpt lat="50.664507819256556" lon="15.807342425088272"><ele>625.0</ele><time>2026-05-02T11:21:51Z</time></trkpt><trkpt lat="50.66453562205399" lon="15.807123379347722"><ele>625.0</ele><time>2026-05-02T11:21:52Z</time></trkpt><trkpt lat="50.66454041508393" lon="15.806903189716987"><ele>625.0</ele><time>2026-05-02T11:21:53Z</time></trkpt><trkpt lat="50.6645433003583" lon="15.806704296287593"><ele>623.0</ele><time>2026-05-02T11:21:54Z</time></trkpt><trkpt lat="50.664555190416245" lon="15.806522353142638"><ele>621.0</ele><time>2026-05-02T11:21:55Z</time></trkpt><trkpt lat="50.66455752368037" lon="15.806330615164361"><ele>619.0</ele><time>2026-05-02T11:21:56Z</time></trkpt><trkpt lat="50.66455340295045" lon="15.806119828500126"><ele>617.0</ele><time>2026-05-02T11:21:57Z</time></trkpt><trkpt lat="50.66454928323439" lon="15.805905307449304"><ele>615.75</ele><time>2026-05-02T11:21:58Z</time></trkpt><trkpt lat="50.664548455107784" lon="15.805682324804614"><ele>614.5</ele><time>2026-05-02T11:21:59Z</time></trkpt><trkpt lat="50.66454601564101" lon="15.805454205011516"><ele>613.25</ele><time>2026-05-02T11:22:00Z</time></trkpt><trkpt lat="50.664545852640366" lon="15.805211090736496"><ele>612.0</ele><time>2026-05-02T11:22:01Z</time></trkpt><trkpt lat="50.66455293804296" lon="15.804977810175123"><ele>611.0</ele><time>2026-05-02T11:22:02Z</time></trkpt><trkpt lat="50.664557665830955" lon="15.804768895580004"><ele>610.0</ele><time>2026-05-02T11:22:03Z</time></trkpt><trkpt lat="50.66455538023925" lon="15.804564726365829"><ele>609.0</ele><time>2026-05-02T11:22:04Z</time></trkpt><trkpt lat="50.66455595380943" lon="15.804339764918973"><ele>608.0</ele><time>2026-05-02T11:22:05Z</time></trkpt><trkpt lat="50.664556747263056" lon="15.804110828424175"><ele>608.0</ele><time>2026-05-02T11:22:06Z</time></trkpt><trkpt lat="50.66455652544186" lon="15.803883646890167"><ele>608.0</ele><time>2026-05-02T11:22:07Z</time></trkpt><trkpt lat="50.66455851271668" lon="15.803656967377542"><ele>608.0</ele><time>2026-05-02T11:22:08Z</time></trkpt><trkpt lat="50.66455793797845" lon="15.80342558257485"><ele>608.0</ele><time>2026-05-02T11:22:09Z</time></trkpt><trkpt lat="50.66455430088219" lon="15.803181069701202"><ele>610.3333333333333</ele><time>2026-05-02T11:22:10Z</time></trkpt><trkpt lat="50.66454334917315" lon="15.802874461618588"><ele>612.6666666666666</ele><time>2026-05-02T11:22:11Z</time></trkpt><trkpt lat="50.66453878887666" lon="15.802522934869172"><ele>615.0</ele><time>2026-05-02T11:22:12Z</time></trkpt><trkpt lat="50.664543385379794" lon="15.802207014025914"><ele>618.0</ele><time>2026-05-02T11:22:13Z</time></trkpt><trkpt lat="50.66455159871856" lon="15.801942078437198"><ele>621.0</ele><time>2026-05-02T11:22:14Z</time></trkpt><trkpt lat="50.664547754357606" lon="15.801682547755226"><ele>624.0</ele><time>2026-05-02T11:22:15Z</time></trkpt><trkpt lat="50.664545030431185" lon="15.8014006987864"><ele>625.3333333333334</ele><time>2026-05-02T11:22:16Z</time></trkpt><trkpt lat="50.664549551727625" lon="15.801123692362781"><ele>626.6666666666667</ele><time>2026-05-02T11:22:17Z</time></trkpt><trkpt lat="50.664553798552426" lon="15.800846168272521"><ele>628.0</ele><time>2026-05-02T11:22:18Z</time></trkpt><trkpt lat="50.664557306595576" lon="15.80056530255294"><ele>628.0</ele><time>2026-05-02T11:22:19Z</time></trkpt><trkpt lat="50.664559953998705" lon="15.800290913370544"><ele>628.0</ele><time>2026-05-02T11:22:20Z</time></trkpt><trkpt lat="50.66456678220139" lon="15.80002186962112"><ele>628.0</ele><time>2026-05-02T11:22:21Z</time></trkpt><trkpt lat="50.66457591762956" lon="15.799763698434068"><ele>628.0</ele><time>2026-05-02T11:22:22Z</time></trkpt><trkpt lat="50.66459860389466" lon="15.799515198420835"><ele>628.0</ele><time>2026-05-02T11:22:23Z</time></trkpt><trkpt lat="50.664644677301595" lon="15.799269042680319"><ele>628.0</ele><time>2026-05-02T11:22:24Z</time></trkpt><trkpt lat="50.66470816411441" lon="15.799030180012377"><ele>626.3333333333334</ele><time>2026-05-02T11:22:25Z</time></trkpt><trkpt lat="50.66479175469835" lon="15.798789215175006"><ele>624.6666666666666</ele><time>2026-05-02T11:22:26Z</time></trkpt><trkpt lat="50.664892293969075" lon="15.798535362791842"><ele>623.0</ele><time>2026-05-02T11:22:27Z</time></trkpt><trkpt lat="50.6649991054601" lon="15.798282330223664"><ele>621.75</ele><time>2026-05-02T11:22:28Z</time></trkpt><trkpt lat="50.665094317504185" lon="15.798068388943745"><ele>620.5</ele><time>2026-05-02T11:22:29Z</time></trkpt><trkpt lat="50.665172742618644" lon="15.797871128842944"><ele>619.25</ele><time>2026-05-02T11:22:30Z</time></trkpt><trkpt lat="50.66523378762924" lon="15.79768249908623"><ele>618.0</ele><time>2026-05-02T11:22:31Z</time></trkpt><trkpt lat="50.66529446820008" lon="15.797483962989164"><ele>621.25</ele><time>2026-05-02T11:22:32Z</time></trkpt><trkpt lat="50.66535591386134" lon="15.797279187274654"><ele>624.5</ele><time>2026-05-02T11:22:33Z</time></trkpt><trkpt lat="50.66541334879808" lon="15.797073066005865"><ele>627.75</ele><time>2026-05-02T11:22:34Z</time></trkpt><trkpt lat="50.66546112413257" lon="15.796887660280754"><ele>631.0</ele><time>2026-05-02T11:22:35Z</time></trkpt><trkpt lat="50.665507313598724" lon="15.796718598644336"><ele>631.0</ele><time>2026-05-02T11:22:36Z</time></trkpt><trkpt lat="50.665566653446504" lon="15.796547282319418"><ele>631.0</ele><time>2026-05-02T11:22:37Z</time></trkpt><trkpt lat="50.66563940007346" lon="15.796342835501333"><ele>631.0</ele><time>2026-05-02T11:22:38Z</time></trkpt><trkpt lat="50.66572949475717" lon="15.796094153631984"><ele>626.6666666666667</ele><time>2026-05-02T11:22:39Z</time></trkpt><trkpt lat="50.66584433082118" lon="15.795839798917026"><ele>622.3333333333334</ele><time>2026-05-02T11:22:40Z</time></trkpt><trkpt lat="50.666003526115915" lon="15.795563492025341"><ele>618.0</ele><time>2026-05-02T11:22:41Z</time></trkpt><trkpt lat="50.66617976898227" lon="15.795242770868132"><ele>625.5</ele><time>2026-05-02T11:22:42Z</time></trkpt><trkpt lat="50.66633133479173" lon="15.794939565639211"><ele>633.0</ele><time>2026-05-02T11:22:43Z</time></trkpt><trkpt lat="50.66646824127714" lon="15.794685178424215"><ele>633.0</ele><time>2026-05-02T11:22:44Z</time></trkpt><trkpt lat="50.66658279034513" lon="15.794395963757708"><ele>633.0</ele><time>2026-05-02T11:22:45Z</time></trkpt><trkpt lat="50.666685563906405" lon="15.79412185845503"><ele>633.0</ele><time>2026-05-02T11:22:46Z</time></trkpt><trkpt lat="50.66679281429777" lon="15.793874508997966"><ele>632.3333333333334</ele><time>2026-05-02T11:22:47Z</time></trkpt><trkpt lat="50.66690708368369" lon="15.793648299336585"><ele>631.6666666666667</ele><time>2026-05-02T11:22:48Z</time></trkpt><trkpt lat="50.66702367134825" lon="15.793459156258868"><ele>631.0</ele><time>2026-05-02T11:22:49Z</time></trkpt><trkpt lat="50.66716647438619" lon="15.793303491661925"><ele>631.0</ele><time>2026-05-02T11:22:50Z</time></trkpt><trkpt lat="50.66733765465311" lon="15.793195247965818"><ele>631.0</ele><time>2026-05-02T11:22:51Z</time></trkpt><trkpt lat="50.66751388103207" lon="15.793141708890841"><ele>631.0</ele><time>2026-05-02T11:22:52Z</time></trkpt><trkpt lat="50.66767153512028" lon="15.793161682720518"><ele>633.3333333333334</ele><time>2026-05-02T11:22:53Z</time></trkpt><trkpt lat="50.66784944019236" lon="15.793196496412328"><ele>635.6666666666666</ele><time>2026-05-02T11:22:54Z</time></trkpt><trkpt lat="50.66802562732969" lon="15.79330622276267"><ele>638.0</ele><time>2026-05-02T11:22:55.001Z</time></trkpt><trkpt lat="50.66817036065903" lon="15.793408521084281"><ele>638.0</ele><time>2026-05-02T11:22:56.001Z</time></trkpt><trkpt lat="50.668301969041366" lon="15.793480226551946"><ele>638.0</ele><time>2026-05-02T11:22:57.001Z</time></trkpt><trkpt lat="50.66843010501436" lon="15.793539874348628"><ele>638.0</ele><time>2026-05-02T11:22:58.001Z</time></trkpt><trkpt lat="50.668557489865634" lon="15.79360857852068"><ele>638.0</ele><time>2026-05-02T11:22:59.001Z</time></trkpt><trkpt lat="50.66868054193854" lon="15.79369888234549"><ele>639.0</ele><time>2026-05-02T11:23:00.001Z</time></trkpt><trkpt lat="50.66880744703393" lon="15.793826443799635"><ele>640.0</ele><time>2026-05-02T11:23:01.001Z</time></trkpt><trkpt lat="50.66893040317979" lon="15.793973443518107"><ele>641.0</ele><time>2026-05-02T11:23:02.001Z</time></trkpt><trkpt lat="50.669062888424925" lon="15.794126975878797"><ele>641.0</ele><time>2026-05-02T11:23:03.001Z</time></trkpt><trkpt lat="50.66918613358982" lon="15.794300537772962"><ele>641.0</ele><time>2026-05-02T11:23:04.001Z</time></trkpt><trkpt lat="50.66930982169196" lon="15.794488843222437"><ele>641.0</ele><time>2026-05-02T11:23:05.001Z</time></trkpt><trkpt lat="50.669426053148946" lon="15.794639955419939"><ele>641.3333333333333</ele><time>2026-05-02T11:23:06.001Z</time></trkpt><trkpt lat="50.6695489009881" lon="15.794785888585116"><ele>641.6666666666666</ele><time>2026-05-02T11:23:07.001Z</time></trkpt><trkpt lat="50.66967848677283" lon="15.794913383190595"><ele>642.0</ele><time>2026-05-02T11:23:08.001Z</time></trkpt><trkpt lat="50.66982085017678" lon="15.795019825175682"><ele>642.0</ele><time>2026-05-02T11:23:09.001Z</time></trkpt><trkpt lat="50.6699711772073" lon="15.79511146356173"><ele>642.0</ele><time>2026-05-02T11:23:10.001Z</time></trkpt><trkpt lat="50.670126863160604" lon="15.795188156706747"><ele>642.0</ele><time>2026-05-02T11:23:11.001Z</time></trkpt><trkpt lat="50.67028790595864" lon="15.795249744288254"><ele>640.75</ele><time>2026-05-02T11:23:12.001Z</time></trkpt><trkpt lat="50.67044240763425" lon="15.795276964598443"><ele>639.5</ele><time>2026-05-02T11:23:13.001Z</time></trkpt><trkpt lat="50.67058681458822" lon="15.79528429581044"><ele>638.25</ele><time>2026-05-02T11:23:14.001Z</time></trkpt><trkpt lat="50.670728127818855" lon="15.795277815092785"><ele>637.0</ele><time>2026-05-02T11:23:15.001Z</time></trkpt><trkpt lat="50.67087108044342" lon="15.795259603538447"><ele>637.0</ele><time>2026-05-02T11:23:16.001Z</time></trkpt><trkpt lat="50.6710138058079" lon="15.795216671307536"><ele>637.0</ele><time>2026-05-02T11:23:17Z</time></trkpt><trkpt lat="50.67115191719287" lon="15.79514994372138"><ele>637.0</ele><time>2026-05-02T11:23:18Z</time></trkpt><trkpt lat="50.67128857200616" lon="15.795066994335414"><ele>637.0</ele><time>2026-05-02T11:23:19Z</time></trkpt><trkpt lat="50.67142221903003" lon="15.794973476784527"><ele>637.25</ele><time>2026-05-02T11:23:20Z</time></trkpt><trkpt lat="50.671548799117204" lon="15.79486281699482"><ele>637.5</ele><time>2026-05-02T11:23:21Z</time></trkpt><trkpt lat="50.671676182864" lon="15.794760192636483"><ele>637.75</ele><time>2026-05-02T11:23:22Z</time></trkpt><trkpt lat="50.6718097489378" lon="15.794659764975217"><ele>638.0</ele><time>2026-05-02T11:23:23Z</time></trkpt><trkpt lat="50.6719397398331" lon="15.794555732211675"><ele>639.0</ele><time>2026-05-02T11:23:24Z</time></trkpt><trkpt lat="50.67206270715754" lon="15.794454717565909"><ele>640.0</ele><time>2026-05-02T11:23:25Z</time></trkpt><trkpt lat="50.67218123210496" lon="15.794361807631605"><ele>641.0</ele><time>2026-05-02T11:23:26Z</time></trkpt><trkpt lat="50.67230255544574" lon="15.794274505783493"><ele>642.0</ele><time>2026-05-02T11:23:27Z</time></trkpt><trkpt lat="50.67241769903772" lon="15.79417016212349"><ele>642.0</ele><time>2026-05-02T11:23:28Z</time></trkpt><trkpt lat="50.67253910443198" lon="15.794080785914957"><ele>642.0</ele><time>2026-05-02T11:23:29Z</time></trkpt><trkpt lat="50.67266012819018" lon="15.793992834837804"><ele>642.0</ele><time>2026-05-02T11:23:30Z</time></trkpt><trkpt lat="50.67278711312027" lon="15.793898724623464"><ele>642.0</ele><time>2026-05-02T11:23:31Z</time></trkpt><trkpt lat="50.672920777886354" lon="15.793817952480483"><ele>647.0</ele><time>2026-05-02T11:23:32Z</time></trkpt><trkpt lat="50.67305181616928" lon="15.793748146487783"><ele>652.0</ele><time>2026-05-02T11:23:33Z</time></trkpt><trkpt lat="50.67318162233922" lon="15.793691525377199"><ele>657.0</ele><time>2026-05-02T11:23:34Z</time></trkpt><trkpt lat="50.67331384769492" lon="15.793661594426569"><ele>662.0</ele><time>2026-05-02T11:23:35Z</time></trkpt><trkpt lat="50.67344842183999" lon="15.793655171464415"><ele>662.0</ele><time>2026-05-02T11:23:36Z</time></trkpt><trkpt lat="50.67358247586707" lon="15.79365153380933"><ele>662.0</ele><time>2026-05-02T11:23:37Z</time></trkpt><trkpt lat="50.67371695033813" lon="15.793666226284047"><ele>662.0</ele><time>2026-05-02T11:23:38Z</time></trkpt><trkpt lat="50.67385092737997" lon="15.793687997264573"><ele>662.0</ele><time>2026-05-02T11:23:39Z</time></trkpt><trkpt lat="50.673988180009665" lon="15.79371615070875"><ele>661.75</ele><time>2026-05-02T11:23:40Z</time></trkpt><trkpt lat="50.674126392655076" lon="15.793747448202911"><ele>661.5</ele><time>2026-05-02T11:23:41Z</time></trkpt><trkpt lat="50.67426937458344" lon="15.793778627633426"><ele>661.25</ele><time>2026-05-02T11:23:42Z</time></trkpt><trkpt lat="50.67439867792588" lon="15.793807319817075"><ele>661.0</ele><time>2026-05-02T11:23:43Z</time></trkpt><trkpt lat="50.67452191781276" lon="15.79382374195834"><ele>661.0</ele><time>2026-05-02T11:23:44Z</time></trkpt><trkpt lat="50.67464365833473" lon="15.79382351392355"><ele>661.0</ele><time>2026-05-02T11:23:45Z</time></trkpt><trkpt lat="50.674765173128506" lon="15.793821171969638"><ele>661.0</ele><time>2026-05-02T11:23:46Z</time></trkpt><trkpt lat="50.6748794833995" lon="15.793809128630398"><ele>661.0</ele><time>2026-05-02T11:23:47Z</time></trkpt><trkpt lat="50.674993631334104" lon="15.793779286478362"><ele>661.0</ele><time>2026-05-02T11:23:48Z</time></trkpt><trkpt lat="50.67511940648869" lon="15.79374426170975"><ele>661.0</ele><time>2026-05-02T11:23:49Z</time></trkpt><trkpt lat="50.67526424333318" lon="15.793684459088063"><ele>661.0</ele><time>2026-05-02T11:23:50Z</time></trkpt><trkpt lat="50.67542548935788" lon="15.79362738566618"><ele>661.0</ele><time>2026-05-02T11:23:51Z</time></trkpt><trkpt lat="50.67558528033744" lon="15.793516374533228"><ele>658.5</ele><time>2026-05-02T11:23:52Z</time></trkpt><trkpt lat="50.67578063762349" lon="15.79340522856112"><ele>656.0</ele><time>2026-05-02T11:23:53Z</time></trkpt><trkpt lat="50.67569232855324" lon="15.793447070838337"><ele>653.5</ele><time>2026-05-02T11:23:54Z</time></trkpt><trkpt lat="50.675778257310526" lon="15.793377613000057"><ele>651.0</ele><time>2026-05-02T11:23:55Z</time></trkpt><trkpt lat="50.67586635923476" lon="15.793336038109176"><ele>651.0</ele><time>2026-05-02T11:23:56.001Z</time></trkpt><trkpt lat="50.675974536666615" lon="15.793375592828061"><ele>651.0</ele><time>2026-05-02T11:23:57.001Z</time></trkpt><trkpt lat="50.676086778946974" lon="15.79346726331825"><ele>651.0</ele><time>2026-05-02T11:23:58.001Z</time></trkpt><trkpt lat="50.676215782940474" lon="15.793610358740688"><ele>651.0</ele><time>2026-05-02T11:23:59.001Z</time></trkpt><trkpt lat="50.67635833542787" lon="15.79377175481233"><ele>651.3333333333334</ele><time>2026-05-02T11:24:00.001Z</time></trkpt><trkpt lat="50.676513287738544" lon="15.793924676750354"><ele>651.6666666666667</ele><time>2026-05-02T11:24:01.001Z</time></trkpt><trkpt lat="50.676664433088675" lon="15.794071689579509"><ele>652.0</ele><time>2026-05-02T11:24:02.001Z</time></trkpt><trkpt lat="50.676806606297156" lon="15.79419707704561"><ele>659.3333333333334</ele><time>2026-05-02T11:24:03.001Z</time></trkpt><trkpt lat="50.67694817775923" lon="15.794317789669442"><ele>666.6666666666666</ele><time>2026-05-02T11:24:04.001Z</time></trkpt><trkpt lat="50.677083527537214" lon="15.794439589188222"><ele>674.0</ele><time>2026-05-02T11:24:05.001Z</time></trkpt><trkpt lat="50.67721219300545" lon="15.794564491518795"><ele>674.0</ele><time>2026-05-02T11:24:06.001Z</time></trkpt><trkpt lat="50.67733582165919" lon="15.79470555205422"><ele>674.0</ele><time>2026-05-02T11:24:07.001Z</time></trkpt><trkpt lat="50.677441032839496" lon="15.794865521652522"><ele>674.0</ele><time>2026-05-02T11:24:08.001Z</time></trkpt><trkpt lat="50.677524258869695" lon="15.795032580509236"><ele>674.0</ele><time>2026-05-02T11:24:09.001Z</time></trkpt><trkpt lat="50.677592690798264" lon="15.7952353237485"><ele>673.6666666666666</ele><time>2026-05-02T11:24:10.001Z</time></trkpt><trkpt lat="50.67762753933136" lon="15.7954775532176"><ele>673.3333333333334</ele><time>2026-05-02T11:24:11.001Z</time></trkpt><trkpt lat="50.677648915245456" lon="15.795748621737857"><ele>673.0</ele><time>2026-05-02T11:24:12.001Z</time></trkpt><trkpt lat="50.67765054300053" lon="15.796022878801939"><ele>674.3333333333334</ele><time>2026-05-02T11:24:13.001Z</time></trkpt><trkpt lat="50.67763666464105" lon="15.79630713253038"><ele>675.6666666666666</ele><time>2026-05-02T11:24:14.001Z</time></trkpt><trkpt lat="50.67758586334746" lon="15.796585390354876"><ele>677.0</ele><time>2026-05-02T11:24:15.001Z</time></trkpt><trkpt lat="50.677511617238764" lon="15.796880081920877"><ele>678.6666666666666</ele><time>2026-05-02T11:24:16.001Z</time></trkpt><trkpt lat="50.677425753526705" lon="15.797192061026513"><ele>680.3333333333334</ele><time>2026-05-02T11:24:17.001Z</time></trkpt><trkpt lat="50.677317922530996" lon="15.797501014779135"><ele>682.0</ele><time>2026-05-02T11:24:18.001Z</time></trkpt><trkpt lat="50.677216356152364" lon="15.797761489118638"><ele>679.0</ele><time>2026-05-02T11:24:19.001Z</time></trkpt><trkpt lat="50.67710623080001" lon="15.798027137867425"><ele>676.0</ele><time>2026-05-02T11:24:20.001Z</time></trkpt><trkpt lat="50.67698209394541" lon="15.79829530775414"><ele>673.0</ele><time>2026-05-02T11:24:21.001Z</time></trkpt><trkpt lat="50.67685865694049" lon="15.798542319698766"><ele>673.0</ele><time>2026-05-02T11:24:22.001Z</time></trkpt><trkpt lat="50.67674001870553" lon="15.798764360988823"><ele>673.0</ele><time>2026-05-02T11:24:23.001Z</time></trkpt><trkpt lat="50.676632778370625" lon="15.798992762389748"><ele>673.0</ele><time>2026-05-02T11:24:24.001Z</time></trkpt><trkpt lat="50.676520766387185" lon="15.799220493324516"><ele>678.0</ele><time>2026-05-02T11:24:25.001Z</time></trkpt><trkpt lat="50.67640871188854" lon="15.799445789241757"><ele>683.0</ele><time>2026-05-02T11:24:26.001Z</time></trkpt><trkpt lat="50.67629735356011" lon="15.79968017057995"><ele>688.0</ele><time>2026-05-02T11:24:27.001Z</time></trkpt><trkpt lat="50.67619300057532" lon="15.799922594534808"><ele>685.0</ele><time>2026-05-02T11:24:28.001Z</time></trkpt><trkpt lat="50.67610886961506" lon="15.800182926397678"><ele>682.0</ele><time>2026-05-02T11:24:29.001Z</time></trkpt><trkpt lat="50.676054074752024" lon="15.800466857811644"><ele>679.0</ele><time>2026-05-02T11:24:30.001Z</time></trkpt><trkpt lat="50.6760251833112" lon="15.80075281387078"><ele>680.3333333333334</ele><time>2026-05-02T11:24:31.001Z</time></trkpt><trkpt lat="50.676012982754294" lon="15.80105359890727"><ele>681.6666666666666</ele><time>2026-05-02T11:24:32.001Z</time></trkpt><trkpt lat="50.67602016441075" lon="15.801352698861114"><ele>683.0</ele><time>2026-05-02T11:24:33.001Z</time></trkpt><trkpt lat="50.67604894670277" lon="15.801659273691872"><ele>686.6666666666666</ele><time>2026-05-02T11:24:34.001Z</time></trkpt><trkpt lat="50.67610674057198" lon="15.80197215107453"><ele>690.3333333333334</ele><time>2026-05-02T11:24:35.001Z</time></trkpt><trkpt lat="50.67619182014367" lon="15.802289165377081"><ele>694.0</ele><time>2026-05-02T11:24:36.001Z</time></trkpt><trkpt lat="50.67629899043038" lon="15.802593866526934"><ele>690.6666666666667</ele><time>2026-05-02T11:24:37.001Z</time></trkpt><trkpt lat="50.67646245712031" lon="15.80286915766623"><ele>687.3333333333334</ele><time>2026-05-02T11:24:38.001Z</time></trkpt><trkpt lat="50.67661489832072" lon="15.80307964210225"><ele>684.0</ele><time>2026-05-02T11:24:39.001Z</time></trkpt><trkpt lat="50.67677779978141" lon="15.803297406242796"><ele>684.0</ele><time>2026-05-02T11:24:40.001Z</time></trkpt><trkpt lat="50.67695650790414" lon="15.803484616776357"><ele>684.0</ele><time>2026-05-02T11:24:41.001Z</time></trkpt><trkpt lat="50.67715515043461" lon="15.803622509652998"><ele>684.0</ele><time>2026-05-02T11:24:42.001Z</time></trkpt><trkpt lat="50.67737330829768" lon="15.803714674359318"><ele>684.0</ele><time>2026-05-02T11:24:43.001Z</time></trkpt><trkpt lat="50.677600432456764" lon="15.803835810834826"><ele>684.0</ele><time>2026-05-02T11:24:44.001Z</time></trkpt><trkpt lat="50.677858350240314" lon="15.803955898369765"><ele>687.5</ele><time>2026-05-02T11:24:45.001Z</time></trkpt><trkpt lat="50.67815202304338" lon="15.80409355003548"><ele>691.0</ele><time>2026-05-02T11:24:46.001Z</time></trkpt><trkpt lat="50.678453238127126" lon="15.804234439719808"><ele>688.0</ele><time>2026-05-02T11:24:47.001Z</time></trkpt><trkpt lat="50.67871353026016" lon="15.804407135885686"><ele>685.0</ele><time>2026-05-02T11:24:48.001Z</time></trkpt><trkpt lat="50.67895162744596" lon="15.80445753179998"><ele>685.0</ele><time>2026-05-02T11:24:49.001Z</time></trkpt><trkpt lat="50.67919792193139" lon="15.804574219776631"><ele>685.0</ele><time>2026-05-02T11:24:50.001Z</time></trkpt><trkpt lat="50.6794242212198" lon="15.804669706969447"><ele>686.3333333333334</ele><time>2026-05-02T11:24:51.001Z</time></trkpt><trkpt lat="50.6796404686101" lon="15.8047759765902"><ele>687.6666666666666</ele><time>2026-05-02T11:24:52.001Z</time></trkpt><trkpt lat="50.679840500693416" lon="15.804870962577615"><ele>689.0</ele><time>2026-05-02T11:24:53.001Z</time></trkpt><trkpt lat="50.68000368855842" lon="15.804942367495585"><ele>689.0</ele><time>2026-05-02T11:24:54.001Z</time></trkpt><trkpt lat="50.68018983533866" lon="15.804958454227195"><ele>689.0</ele><time>2026-05-02T11:24:55.001Z</time></trkpt><trkpt lat="50.680403513713436" lon="15.80489678587557"><ele>689.0</ele><time>2026-05-02T11:24:56.001Z</time></trkpt><trkpt lat="50.6806338671752" lon="15.80479356362401"><ele>690.0</ele><time>2026-05-02T11:24:57.001Z</time></trkpt><trkpt lat="50.68086552661871" lon="15.804710960222907"><ele>691.0</ele><time>2026-05-02T11:24:58.001Z</time></trkpt><trkpt lat="50.68107681226376" lon="15.804707433753729"><ele>692.0</ele><time>2026-05-02T11:24:59.001Z</time></trkpt><trkpt lat="50.68126937656651" lon="15.804660463153596"><ele>692.6666666666666</ele><time>2026-05-02T11:25:00.001Z</time></trkpt><trkpt lat="50.68148695113326" lon="15.804800544857947"><ele>693.3333333333334</ele><time>2026-05-02T11:25:01.001Z</time></trkpt><trkpt lat="50.681678107225984" lon="15.804883558542103"><ele>694.0</ele><time>2026-05-02T11:25:02.001Z</time></trkpt><trkpt lat="50.68185909432157" lon="15.804998147971803"><ele>694.6666666666667</ele><time>2026-05-02T11:25:03.001Z</time></trkpt><trkpt lat="50.68205283821968" lon="15.805126988523359"><ele>695.3333333333334</ele><time>2026-05-02T11:25:04.001Z</time></trkpt><trkpt lat="50.682224589049575" lon="15.805253962950095"><ele>696.0</ele><time>2026-05-02T11:25:05.001Z</time></trkpt><trkpt lat="50.68237345475349" lon="15.805386187091816"><ele>696.0</ele><time>2026-05-02T11:25:06.001Z</time></trkpt><trkpt lat="50.682511072969355" lon="15.80551766578386"><ele>696.0</ele><time>2026-05-02T11:25:07.001Z</time></trkpt><trkpt lat="50.6826353054093" lon="15.805654358997685"><ele>696.0</ele><time>2026-05-02T11:25:08.001Z</time></trkpt><trkpt lat="50.68275159784234" lon="15.80580324668198"><ele>698.0</ele><time>2026-05-02T11:25:09.001Z</time></trkpt><trkpt lat="50.68286332816238" lon="15.805937433302303"><ele>700.0</ele><time>2026-05-02T11:25:10.001Z</time></trkpt><trkpt lat="50.6829783637789" lon="15.80608573361316"><ele>702.0</ele><time>2026-05-02T11:25:11.001Z</time></trkpt><trkpt lat="50.68309136077825" lon="15.806259195024854"><ele>704.0</ele><time>2026-05-02T11:25:12.001Z</time></trkpt><trkpt lat="50.683197594337265" lon="15.806417613058828"><ele>704.0</ele><time>2026-05-02T11:25:13.001Z</time></trkpt><trkpt lat="50.68330964399559" lon="15.806550902350544"><ele>704.0</ele><time>2026-05-02T11:25:14.001Z</time></trkpt><trkpt lat="50.68342527326845" lon="15.806671428582153"><ele>704.0</ele><time>2026-05-02T11:25:15.001Z</time></trkpt><trkpt lat="50.6835510314803" lon="15.80677933486871"><ele>704.0</ele><time>2026-05-02T11:25:16.001Z</time></trkpt><trkpt lat="50.68368114186969" lon="15.80685305603632"><ele>704.75</ele><time>2026-05-02T11:25:17.001Z</time></trkpt><trkpt lat="50.68382046575035" lon="15.806890342888618"><ele>705.5</ele><time>2026-05-02T11:25:18.001Z</time></trkpt><trkpt lat="50.683970757313226" lon="15.806893753756595"><ele>706.25</ele><time>2026-05-02T11:25:19.001Z</time></trkpt><trkpt lat="50.68410485459706" lon="15.806863228367016"><ele>707.0</ele><time>2026-05-02T11:25:20.001Z</time></trkpt><trkpt lat="50.6842370222458" lon="15.806814945716921"><ele>707.0</ele><time>2026-05-02T11:25:21.001Z</time></trkpt><trkpt lat="50.68437818998616" lon="15.806738008930758"><ele>707.0</ele><time>2026-05-02T11:25:22.001Z</time></trkpt><trkpt lat="50.684513038281935" lon="15.806652823474238"><ele>707.0</ele><time>2026-05-02T11:25:23.001Z</time></trkpt><trkpt lat="50.68464689736829" lon="15.806538086400534"><ele>707.0</ele><time>2026-05-02T11:25:24.001Z</time></trkpt><trkpt lat="50.684779130826556" lon="15.806396900087025"><ele>706.25</ele><time>2026-05-02T11:25:25.001Z</time></trkpt><trkpt lat="50.684899238409066" lon="15.80624009344595"><ele>705.5</ele><time>2026-05-02T11:25:26.001Z</time></trkpt><trkpt lat="50.68499818991771" lon="15.806071299555862"><ele>704.75</ele><time>2026-05-02T11:25:27.001Z</time></trkpt><trkpt lat="50.68508868663188" lon="15.805890719713933"><ele>704.0</ele><time>2026-05-02T11:25:28.001Z</time></trkpt><trkpt lat="50.685169615230244" lon="15.805693366424318"><ele>704.0</ele><time>2026-05-02T11:25:29.001Z</time></trkpt><trkpt lat="50.68523821310862" lon="15.805490597173"><ele>704.0</ele><time>2026-05-02T11:25:30.001Z</time></trkpt><trkpt lat="50.68530183766046" lon="15.805296545622241"><ele>704.0</ele><time>2026-05-02T11:25:31.001Z</time></trkpt><trkpt lat="50.68535973639903" lon="15.805102854378061"><ele>704.0</ele><time>2026-05-02T11:25:32.001Z</time></trkpt><trkpt lat="50.68542139677672" lon="15.804916299339638"><ele>703.0</ele><time>2026-05-02T11:25:33.001Z</time></trkpt><trkpt lat="50.68549139254792" lon="15.804731148185784"><ele>702.0</ele><time>2026-05-02T11:25:34.001Z</time></trkpt><trkpt lat="50.68556419626733" lon="15.804574431002262"><ele>701.0</ele><time>2026-05-02T11:25:35.001Z</time></trkpt><trkpt lat="50.68564211339357" lon="15.804425612097242"><ele>700.0</ele><time>2026-05-02T11:25:36.001Z</time></trkpt><trkpt lat="50.68572870642498" lon="15.804286891503638"><ele>701.75</ele><time>2026-05-02T11:25:37.001Z</time></trkpt><trkpt lat="50.68581694873611" lon="15.804162745352905"><ele>703.5</ele><time>2026-05-02T11:25:38.001Z</time></trkpt><trkpt lat="50.68591650693612" lon="15.804049950446888"><ele>705.25</ele><time>2026-05-02T11:25:39.001Z</time></trkpt><trkpt lat="50.68602477817786" lon="15.803960431115504"><ele>707.0</ele><time>2026-05-02T11:25:40.001Z</time></trkpt><trkpt lat="50.68614128947714" lon="15.803899801918497"><ele>707.0</ele><time>2026-05-02T11:25:41.001Z</time></trkpt><trkpt lat="50.68627198631954" lon="15.803869044623122"><ele>707.0</ele><time>2026-05-02T11:25:42.001Z</time></trkpt><trkpt lat="50.686408332259894" lon="15.803876927201015"><ele>707.0</ele><time>2026-05-02T11:25:43.001Z</time></trkpt><trkpt lat="50.686547098068786" lon="15.803907502081602"><ele>707.0</ele><time>2026-05-02T11:25:44.001Z</time></trkpt><trkpt lat="50.68669141736743" lon="15.803964887892922"><ele>707.0</ele><time>2026-05-02T11:25:45.001Z</time></trkpt><trkpt lat="50.686827204362366" lon="15.804052955020008"><ele>707.0</ele><time>2026-05-02T11:25:46.001Z</time></trkpt><trkpt lat="50.68694636723208" lon="15.80413128479761"><ele>707.0</ele><time>2026-05-02T11:25:47.001Z</time></trkpt><trkpt lat="50.687064732788926" lon="15.804213209782395"><ele>707.0</ele><time>2026-05-02T11:25:48.001Z</time></trkpt><trkpt lat="50.68718878726541" lon="15.804296691831034"><ele>708.6666666666666</ele><time>2026-05-02T11:25:49.001Z</time></trkpt><trkpt lat="50.68732775233813" lon="15.804401076205878"><ele>710.3333333333334</ele><time>2026-05-02T11:25:50.001Z</time></trkpt><trkpt lat="50.68746256888962" lon="15.804533542906723"><ele>712.0</ele><time>2026-05-02T11:25:51.001Z</time></trkpt><trkpt lat="50.68758008272787" lon="15.804675553971835"><ele>712.0</ele><time>2026-05-02T11:25:52.001Z</time></trkpt><trkpt lat="50.68769681038873" lon="15.804832926023174"><ele>712.0</ele><time>2026-05-02T11:25:53.001Z</time></trkpt><trkpt lat="50.68781635151629" lon="15.804995905640277"><ele>712.0</ele><time>2026-05-02T11:25:54.001Z</time></trkpt><trkpt lat="50.6879403251324" lon="15.805162738974602"><ele>713.6666666666667</ele><time>2026-05-02T11:25:55.001Z</time></trkpt><trkpt lat="50.688061082839305" lon="15.80532456680802"><ele>715.3333333333334</ele><time>2026-05-02T11:25:56.001Z</time></trkpt><trkpt lat="50.68818304296013" lon="15.805482252484257"><ele>717.0</ele><time>2026-05-02T11:25:57.001Z</time></trkpt><trkpt lat="50.68830871925782" lon="15.805636622985231"><ele>717.0</ele><time>2026-05-02T11:25:58.001Z</time></trkpt><trkpt lat="50.68843070242622" lon="15.805760045308142"><ele>717.0</ele><time>2026-05-02T11:25:59.001Z</time></trkpt><trkpt lat="50.68856481864238" lon="15.805847879172678"><ele>717.0</ele><time>2026-05-02T11:26:00.001Z</time></trkpt><trkpt lat="50.68869791309596" lon="15.805894988895346"><ele>717.0</ele><time>2026-05-02T11:26:01.001Z</time></trkpt><trkpt lat="50.68883269563551" lon="15.805922818385492"><ele>718.5</ele><time>2026-05-02T11:26:02.001Z</time></trkpt><trkpt lat="50.68896978502989" lon="15.805895232191432"><ele>720.0</ele><time>2026-05-02T11:26:03.001Z</time></trkpt><trkpt lat="50.68911360916004" lon="15.805829466991653"><ele>721.5</ele><time>2026-05-02T11:26:04.001Z</time></trkpt><trkpt lat="50.68926301961022" lon="15.80573805237713"><ele>723.0</ele><time>2026-05-02T11:26:05.001Z</time></trkpt><trkpt lat="50.68941230839585" lon="15.805633744454811"><ele>726.0</ele><time>2026-05-02T11:26:06.001Z</time></trkpt><trkpt lat="50.689566422181144" lon="15.8055367236029"><ele>729.0</ele><time>2026-05-02T11:26:07.001Z</time></trkpt><trkpt lat="50.68973778622146" lon="15.805427011481022"><ele>732.0</ele><time>2026-05-02T11:26:08.001Z</time></trkpt><trkpt lat="50.689904971826444" lon="15.805323721875114"><ele>732.0</ele><time>2026-05-02T11:26:09.001Z</time></trkpt><trkpt lat="50.69006038403011" lon="15.805221705596407"><ele>732.0</ele><time>2026-05-02T11:26:10.001Z</time></trkpt><trkpt lat="50.69020897040603" lon="15.805132332957546"><ele>732.0</ele><time>2026-05-02T11:26:11.001Z</time></trkpt><trkpt lat="50.690357159321835" lon="15.805039990893404"><ele>731.0</ele><time>2026-05-02T11:26:12.001Z</time></trkpt><trkpt lat="50.6904963985144" lon="15.804919151096563"><ele>730.0</ele><time>2026-05-02T11:26:13.001Z</time></trkpt><trkpt lat="50.690624029493094" lon="15.804759503075468"><ele>729.0</ele><time>2026-05-02T11:26:14.001Z</time></trkpt><trkpt lat="50.69075055725984" lon="15.804530860992433"><ele>729.0</ele><time>2026-05-02T11:26:15.001Z</time></trkpt><trkpt lat="50.69089341129596" lon="15.80427455963876"><ele>729.0</ele><time>2026-05-02T11:26:16.001Z</time></trkpt><trkpt lat="50.69106103772127" lon="15.804094543736731"><ele>729.0</ele><time>2026-05-02T11:26:17.001Z</time></trkpt><trkpt lat="50.691260457111966" lon="15.803967260179585"><ele>727.0</ele><time>2026-05-02T11:26:18.001Z</time></trkpt><trkpt lat="50.691478102029315" lon="15.80388169127084"><ele>725.0</ele><time>2026-05-02T11:26:19.001Z</time></trkpt><trkpt lat="50.691676463504834" lon="15.803829453735508"><ele>723.0</ele><time>2026-05-02T11:26:20.001Z</time></trkpt><trkpt lat="50.69183069390115" lon="15.803769496284973"><ele>724.75</ele><time>2026-05-02T11:26:21.001Z</time></trkpt><trkpt lat="50.69196455995328" lon="15.80369011701793"><ele>726.5</ele><time>2026-05-02T11:26:22.001Z</time></trkpt><trkpt lat="50.692084807266724" lon="15.803619130012141"><ele>728.25</ele><time>2026-05-02T11:26:23.001Z</time></trkpt><trkpt lat="50.69218456533548" lon="15.803539082600283"><ele>730.0</ele><time>2026-05-02T11:26:24.001Z</time></trkpt><trkpt lat="50.69227303459201" lon="15.803419715249373"><ele>730.0</ele><time>2026-05-02T11:26:25.001Z</time></trkpt><trkpt lat="50.69234687082776" lon="15.803235839868712"><ele>730.0</ele><time>2026-05-02T11:26:26.001Z</time></trkpt><trkpt lat="50.69240562577313" lon="15.802990638510469"><ele>730.0</ele><time>2026-05-02T11:26:27.001Z</time></trkpt><trkpt lat="50.69244059287245" lon="15.802715274751396"><ele>730.5</ele><time>2026-05-02T11:26:28.001Z</time></trkpt><trkpt lat="50.69247329297078" lon="15.80238066522134"><ele>731.0</ele><time>2026-05-02T11:26:29.001Z</time></trkpt><trkpt lat="50.692507324347844" lon="15.802006422023121"><ele>734.0</ele><time>2026-05-02T11:26:30.001Z</time></trkpt><trkpt lat="50.69255931856894" lon="15.801574273063055"><ele>737.0</ele><time>2026-05-02T11:26:31.001Z</time></trkpt><trkpt lat="50.69262343398091" lon="15.80116594508894"><ele>739.0</ele><time>2026-05-02T11:26:32.001Z</time></trkpt><trkpt lat="50.69267263742991" lon="15.800823270994929"><ele>741.0</ele><time>2026-05-02T11:26:33.001Z</time></trkpt><trkpt lat="50.69271127260654" lon="15.800532823066836"><ele>743.0</ele><time>2026-05-02T11:26:34.001Z</time></trkpt><trkpt lat="50.69274847407036" lon="15.80029615612937"><ele>741.25</ele><time>2026-05-02T11:26:35.001Z</time></trkpt><trkpt lat="50.69279747772864" lon="15.800109836788932"><ele>739.5</ele><time>2026-05-02T11:26:36.001Z</time></trkpt><trkpt lat="50.692870330729946" lon="15.79993713436785"><ele>737.75</ele><time>2026-05-02T11:26:37.001Z</time></trkpt><trkpt lat="50.69297302367256" lon="15.799793500749677"><ele>736.0</ele><time>2026-05-02T11:26:38.001Z</time></trkpt><trkpt lat="50.69309577575915" lon="15.79969593924811"><ele>736.0</ele><time>2026-05-02T11:26:39.001Z</time></trkpt><trkpt lat="50.693243682482425" lon="15.799643396053023"><ele>736.0</ele><time>2026-05-02T11:26:40.001Z</time></trkpt><trkpt lat="50.693406545326994" lon="15.799628785698047"><ele>736.0</ele><time>2026-05-02T11:26:41.001Z</time></trkpt><trkpt lat="50.69356685521482" lon="15.79968350973221"><ele>738.3333333333334</ele><time>2026-05-02T11:26:42.001Z</time></trkpt><trkpt lat="50.693707143365074" lon="15.79978788027921"><ele>740.6666666666666</ele><time>2026-05-02T11:26:43.001Z</time></trkpt><trkpt lat="50.69383405209207" lon="15.79996461875334"><ele>743.0</ele><time>2026-05-02T11:26:44.001Z</time></trkpt><trkpt lat="50.69395048586003" lon="15.800197489282626"><ele>748.6666666666666</ele><time>2026-05-02T11:26:45.001Z</time></trkpt><trkpt lat="50.69408640775889" lon="15.800470282416883"><ele>754.3333333333334</ele><time>2026-05-02T11:26:46.001Z</time></trkpt><trkpt lat="50.694209204792465" lon="15.8007122887722"><ele>760.0</ele><time>2026-05-02T11:26:47.001Z</time></trkpt><trkpt lat="50.694339687034685" lon="15.800893461606423"><ele>763.3333333333334</ele><time>2026-05-02T11:26:48.001Z</time></trkpt><trkpt lat="50.69449282314283" lon="15.801029484075354"><ele>766.6666666666667</ele><time>2026-05-02T11:26:49.001Z</time></trkpt><trkpt lat="50.69466405323103" lon="15.801124239829864"><ele>770.0</ele><time>2026-05-02T11:26:50.001Z</time></trkpt><trkpt lat="50.694812787977106" lon="15.801228665838714"><ele>770.0</ele><time>2026-05-02T11:26:51.001Z</time></trkpt><trkpt lat="50.694958693219746" lon="15.801347554665467"><ele>770.0</ele><time>2026-05-02T11:26:52.001Z</time></trkpt><trkpt lat="50.69512056790955" lon="15.801415784777769"><ele>770.0</ele><time>2026-05-02T11:26:53.001Z</time></trkpt><trkpt lat="50.69528184362277" lon="15.801481315742297"><ele>769.0</ele><time>2026-05-02T11:26:54.001Z</time></trkpt><trkpt lat="50.695450295982084" lon="15.801548856463855"><ele>768.0</ele><time>2026-05-02T11:26:55.001Z</time></trkpt><trkpt lat="50.69565058575641" lon="15.801628387701639"><ele>767.0</ele><time>2026-05-02T11:26:56.001Z</time></trkpt><trkpt lat="50.69587100581565" lon="15.801719533111477"><ele>773.0</ele><time>2026-05-02T11:26:57.001Z</time></trkpt><trkpt lat="50.696103734473496" lon="15.801815260370795"><ele>779.0</ele><time>2026-05-02T11:26:58.001Z</time></trkpt><trkpt lat="50.696350826830724" lon="15.801926128117831"><ele>779.0</ele><time>2026-05-02T11:26:59.001Z</time></trkpt><trkpt lat="50.69660717730579" lon="15.802074900361783"><ele>779.0</ele><time>2026-05-02T11:27:00.001Z</time></trkpt><trkpt lat="50.69687074585334" lon="15.802245158397053"><ele>774.5</ele><time>2026-05-02T11:27:01.001Z</time></trkpt><trkpt lat="50.6971362310701" lon="15.802399268891905"><ele>770.0</ele><time>2026-05-02T11:27:02.001Z</time></trkpt><trkpt lat="50.69743642420188" lon="15.80250253713317"><ele>770.0</ele><time>2026-05-02T11:27:03.001Z</time></trkpt><trkpt lat="50.697723290308566" lon="15.80265217917166"><ele>770.0</ele><time>2026-05-02T11:27:04.001Z</time></trkpt><trkpt lat="50.69798294547275" lon="15.802765070287041"><ele>781.0</ele><time>2026-05-02T11:27:05.001Z</time></trkpt><trkpt lat="50.698212548364644" lon="15.802868167383757"><ele>792.0</ele><time>2026-05-02T11:27:06.001Z</time></trkpt><trkpt lat="50.69843533774376" lon="15.80299291388632"><ele>784.0</ele><time>2026-05-02T11:27:07.001Z</time></trkpt><trkpt lat="50.69865836184577" lon="15.803159593478691"><ele>776.0</ele><time>2026-05-02T11:27:08.001Z</time></trkpt><trkpt lat="50.6988825545828" lon="15.803353223203485"><ele>790.5</ele><time>2026-05-02T11:27:09.001Z</time></trkpt><trkpt lat="50.69912470097209" lon="15.803561737892064"><ele>805.0</ele><time>2026-05-02T11:27:10.001Z</time></trkpt><trkpt lat="50.699384637528254" lon="15.803776449885351"><ele>795.5</ele><time>2026-05-02T11:27:11.001Z</time></trkpt><trkpt lat="50.69961986625063" lon="15.803955463324709"><ele>786.0</ele><time>2026-05-02T11:27:12.001Z</time></trkpt><trkpt lat="50.699839056126876" lon="15.804100576940447"><ele>786.0</ele><time>2026-05-02T11:27:13.001Z</time></trkpt><trkpt lat="50.7000726081005" lon="15.80423480370477"><ele>786.0</ele><time>2026-05-02T11:27:14.001Z</time></trkpt><trkpt lat="50.700314089206785" lon="15.804357280652884"><ele>794.0</ele><time>2026-05-02T11:27:15.001Z</time></trkpt><trkpt lat="50.7005733409374" lon="15.804477277935277"><ele>802.0</ele><time>2026-05-02T11:27:16.001Z</time></trkpt><trkpt lat="50.70081460751555" lon="15.804582359807146"><ele>802.0</ele><time>2026-05-02T11:27:17.001Z</time></trkpt><trkpt lat="50.70104905446906" lon="15.804677230011755"><ele>802.0</ele><time>2026-05-02T11:27:18.001Z</time></trkpt><trkpt lat="50.70129063897802" lon="15.80475854890973"><ele>799.5</ele><time>2026-05-02T11:27:19.001Z</time></trkpt><trkpt lat="50.70154317750854" lon="15.804836686368043"><ele>797.0</ele><time>2026-05-02T11:27:20.001Z</time></trkpt><trkpt lat="50.701788678551985" lon="15.804909592279257"><ele>794.6666666666667</ele><time>2026-05-02T11:27:21.001Z</time></trkpt><trkpt lat="50.702013273472915" lon="15.80497849520092"><ele>792.3333333333333</ele><time>2026-05-02T11:27:22.001Z</time></trkpt><trkpt lat="50.70221854312934" lon="15.805045135899196"><ele>790.0</ele><time>2026-05-02T11:27:23.001Z</time></trkpt><trkpt lat="50.702404307045995" lon="15.80511891308603"><ele>791.6666666666666</ele><time>2026-05-02T11:27:24.001Z</time></trkpt><trkpt lat="50.70259529343533" lon="15.80521642694426"><ele>793.3333333333333</ele><time>2026-05-02T11:27:25.001Z</time></trkpt><trkpt lat="50.702791821416426" lon="15.805343149264242"><ele>795.0</ele><time>2026-05-02T11:27:26.001Z</time></trkpt><trkpt lat="50.702965373029265" lon="15.805473187632776"><ele>795.0</ele><time>2026-05-02T11:27:27.001Z</time></trkpt><trkpt lat="50.70313174461852" lon="15.805619415566222"><ele>795.0</ele><time>2026-05-02T11:27:28.001Z</time></trkpt><trkpt lat="50.70329405272412" lon="15.805785386144677"><ele>795.0</ele><time>2026-05-02T11:27:29.001Z</time></trkpt><trkpt lat="50.703469553026466" lon="15.805992088987677"><ele>793.0</ele><time>2026-05-02T11:27:30.001Z</time></trkpt><trkpt lat="50.703645482725804" lon="15.806203979169712"><ele>791.0</ele><time>2026-05-02T11:27:31.001Z</time></trkpt><trkpt lat="50.703804334597635" lon="15.806381951659112"><ele>789.0</ele><time>2026-05-02T11:27:32.001Z</time></trkpt><trkpt lat="50.70394615497912" lon="15.806542912226433"><ele>789.0</ele><time>2026-05-02T11:27:33.001Z</time></trkpt><trkpt lat="50.70407388542804" lon="15.806701397840438"><ele>789.0</ele><time>2026-05-02T11:27:34.001Z</time></trkpt><trkpt lat="50.70420614729806" lon="15.806840155136838"><ele>789.0</ele><time>2026-05-02T11:27:35.001Z</time></trkpt><trkpt lat="50.704321668470726" lon="15.806960648709108"><ele>792.75</ele><time>2026-05-02T11:27:36.001Z</time></trkpt><trkpt lat="50.704437131014075" lon="15.807052815511163"><ele>796.5</ele><time>2026-05-02T11:27:37.001Z</time></trkpt><trkpt lat="50.704566466939674" lon="15.807113283296006"><ele>800.25</ele><time>2026-05-02T11:27:38.001Z</time></trkpt><trkpt lat="50.704718777831246" lon="15.807146495493466"><ele>804.0</ele><time>2026-05-02T11:27:39.001Z</time></trkpt><trkpt lat="50.7048939389875" lon="15.807154974630064"><ele>804.0</ele><time>2026-05-02T11:27:40.001Z</time></trkpt><trkpt lat="50.70507676517037" lon="15.807141134368491"><ele>804.0</ele><time>2026-05-02T11:27:41.001Z</time></trkpt><trkpt lat="50.70526071751587" lon="15.807116764454328"><ele>804.0</ele><time>2026-05-02T11:27:42.001Z</time></trkpt><trkpt lat="50.705418224244" lon="15.807078740683819"><ele>803.0</ele><time>2026-05-02T11:27:43.001Z</time></trkpt><trkpt lat="50.7055664072258" lon="15.807009881120795"><ele>802.0</ele><time>2026-05-02T11:27:44.001Z</time></trkpt><trkpt lat="50.70570409088228" lon="15.80692826839869"><ele>801.0</ele><time>2026-05-02T11:27:45.001Z</time></trkpt><trkpt lat="50.705820285787986" lon="15.806825801564862"><ele>800.0</ele><time>2026-05-02T11:27:46.001Z</time></trkpt><trkpt lat="50.70593898408326" lon="15.806712734154473"><ele>794.5</ele><time>2026-05-02T11:27:47.001Z</time></trkpt><trkpt lat="50.70603841217568" lon="15.806595560857431"><ele>789.0</ele><time>2026-05-02T11:27:48.001Z</time></trkpt><trkpt lat="50.706131812897475" lon="15.80647510820363"><ele>783.5</ele><time>2026-05-02T11:27:49.001Z</time></trkpt><trkpt lat="50.70621770820508" lon="15.806352895649502"><ele>778.0</ele><time>2026-05-02T11:27:50.001Z</time></trkpt><trkpt lat="50.70629235996319" lon="15.806230851150879"><ele>777.8</ele><time>2026-05-02T11:27:51.001Z</time></trkpt><trkpt lat="50.706369839537466" lon="15.806122902893206"><ele>777.5999999999999</ele><time>2026-05-02T11:27:52.001Z</time></trkpt><trkpt lat="50.706452891107325" lon="15.806013117301818"><ele>777.4000000000001</ele><time>2026-05-02T11:27:53.001Z</time></trkpt><trkpt lat="50.70653335641889" lon="15.805897679812528"><ele>777.2</ele><time>2026-05-02T11:27:54.001Z</time></trkpt><trkpt lat="50.706605056885586" lon="15.80578361271665"><ele>777.0</ele><time>2026-05-02T11:27:55.001Z</time></trkpt><trkpt lat="50.7066808022869" lon="15.805659537307369"><ele>776.5</ele><time>2026-05-02T11:27:56.001Z</time></trkpt><trkpt lat="50.70676406183384" lon="15.805529240885612"><ele>776.0</ele><time>2026-05-02T11:27:57.001Z</time></trkpt><trkpt lat="50.7068543166706" lon="15.805419555534986"><ele>775.5</ele><time>2026-05-02T11:27:58.001Z</time></trkpt><trkpt lat="50.70695893412876" lon="15.80528014372734"><ele>775.0</ele><time>2026-05-02T11:27:59.001Z</time></trkpt><trkpt lat="50.70705619189484" lon="15.80512383114356"><ele>777.25</ele><time>2026-05-02T11:28:00.001Z</time></trkpt><trkpt lat="50.70716727306263" lon="15.804968273297863"><ele>779.5</ele><time>2026-05-02T11:28:01.001Z</time></trkpt><trkpt lat="50.707270345513805" lon="15.804817189649349"><ele>781.75</ele><time>2026-05-02T11:28:02.001Z</time></trkpt><trkpt lat="50.707380336303736" lon="15.804673944997882"><ele>784.0</ele><time>2026-05-02T11:28:03.001Z</time></trkpt><trkpt lat="50.70748385015826" lon="15.804514679908904"><ele>784.0</ele><time>2026-05-02T11:28:04.001Z</time></trkpt><trkpt lat="50.70759364025537" lon="15.804349884959239"><ele>784.0</ele><time>2026-05-02T11:28:05.001Z</time></trkpt><trkpt lat="50.70768568234129" lon="15.804148181619436"><ele>784.0</ele><time>2026-05-02T11:28:06.001Z</time></trkpt><trkpt lat="50.707772238936656" lon="15.803946935273814"><ele>790.6666666666666</ele><time>2026-05-02T11:28:07.001Z</time></trkpt><trkpt lat="50.707850442003625" lon="15.803750678423983"><ele>797.3333333333333</ele><time>2026-05-02T11:28:08.001Z</time></trkpt><trkpt lat="50.70793292580174" lon="15.803537294375575"><ele>804.0</ele><time>2026-05-02T11:28:09.001Z</time></trkpt><trkpt lat="50.708017054721395" lon="15.803301583524627"><ele>804.0</ele><time>2026-05-02T11:28:10.001Z</time></trkpt><trkpt lat="50.70810118000792" lon="15.803077877285057"><ele>804.0</ele><time>2026-05-02T11:28:11.001Z</time></trkpt><trkpt lat="50.70818233829574" lon="15.80286789396501"><ele>804.0</ele><time>2026-05-02T11:28:12.001Z</time></trkpt><trkpt lat="50.70825520716588" lon="15.802668241986188"><ele>802.0</ele><time>2026-05-02T11:28:13.001Z</time></trkpt><trkpt lat="50.708329141152824" lon="15.802458604741455"><ele>800.0</ele><time>2026-05-02T11:28:14.001Z</time></trkpt><trkpt lat="50.708402103728865" lon="15.802260780518973"><ele>798.0</ele><time>2026-05-02T11:28:15.001Z</time></trkpt><trkpt lat="50.70846830400046" lon="15.802066774746567"><ele>796.0</ele><time>2026-05-02T11:28:16.001Z</time></trkpt><trkpt lat="50.70854623201257" lon="15.801879272713995"><ele>801.5</ele><time>2026-05-02T11:28:17.001Z</time></trkpt><trkpt lat="50.70862330093296" lon="15.801684297471972"><ele>807.0</ele><time>2026-05-02T11:28:18.001Z</time></trkpt><trkpt lat="50.70870187228156" lon="15.801479905508332"><ele>812.5</ele><time>2026-05-02T11:28:19.001Z</time></trkpt><trkpt lat="50.70877834086809" lon="15.80127215205821"><ele>818.0</ele><time>2026-05-02T11:28:20.001Z</time></trkpt><trkpt lat="50.70886241776538" lon="15.80104046410002"><ele>813.3333333333334</ele><time>2026-05-02T11:28:21.001Z</time></trkpt><trkpt lat="50.70895830269696" lon="15.800802067255068"><ele>808.6666666666667</ele><time>2026-05-02T11:28:22.001Z</time></trkpt><trkpt lat="50.70905788294783" lon="15.800558433962271"><ele>804.0</ele><time>2026-05-02T11:28:23.001Z</time></trkpt><trkpt lat="50.70917696362102" lon="15.800332995883704"><ele>801.6666666666667</ele><time>2026-05-02T11:28:24.001Z</time></trkpt><trkpt lat="50.709315925299954" lon="15.800124513742496"><ele>799.3333333333334</ele><time>2026-05-02T11:28:25.001Z</time></trkpt><trkpt lat="50.70946480581613" lon="15.799951955292553"><ele>797.0</ele><time>2026-05-02T11:28:26.001Z</time></trkpt><trkpt lat="50.70962052569666" lon="15.79982915714865"><ele>801.6666666666667</ele><time>2026-05-02T11:28:27.001Z</time></trkpt><trkpt lat="50.70977178034011" lon="15.799772265259719"><ele>806.3333333333333</ele><time>2026-05-02T11:28:28.001Z</time></trkpt><trkpt lat="50.709921659211574" lon="15.799748749456146"><ele>811.0</ele><time>2026-05-02T11:28:29.001Z</time></trkpt><trkpt lat="50.71007508590939" lon="15.799767119251758"><ele>813.0</ele><time>2026-05-02T11:28:30.001Z</time></trkpt><trkpt lat="50.710251638710744" lon="15.79981562153382"><ele>815.0</ele><time>2026-05-02T11:28:31.001Z</time></trkpt><trkpt lat="50.710444104315116" lon="15.799883601512711"><ele>817.0</ele><time>2026-05-02T11:28:32.001Z</time></trkpt><trkpt lat="50.710661119381236" lon="15.799931885525089"><ele>817.0</ele><time>2026-05-02T11:28:33.001Z</time></trkpt><trkpt lat="50.71090970823898" lon="15.800009054260798"><ele>817.0</ele><time>2026-05-02T11:28:34.001Z</time></trkpt><trkpt lat="50.711194354159204" lon="15.8000576905555"><ele>820.5</ele><time>2026-05-02T11:28:35.001Z</time></trkpt><trkpt lat="50.71144419588281" lon="15.80013149858132"><ele>824.0</ele><time>2026-05-02T11:28:36.001Z</time></trkpt><trkpt lat="50.711653088893435" lon="15.80019802693283"><ele>829.6666666666667</ele><time>2026-05-02T11:28:37.001Z</time></trkpt><trkpt lat="50.7118423861372" lon="15.800300424782796"><ele>835.3333333333333</ele><time>2026-05-02T11:28:38.001Z</time></trkpt><trkpt lat="50.71201654543621" lon="15.800404766264675"><ele>841.0</ele><time>2026-05-02T11:28:39.001Z</time></trkpt><trkpt lat="50.71218326240676" lon="15.800501378458085"><ele>841.0</ele><time>2026-05-02T11:28:40.001Z</time></trkpt><trkpt lat="50.712369808002045" lon="15.80056164881911"><ele>841.0</ele><time>2026-05-02T11:28:41.001Z</time></trkpt><trkpt lat="50.712542210643726" lon="15.80057469206568"><ele>841.0</ele><time>2026-05-02T11:28:42.001Z</time></trkpt><trkpt lat="50.71271401984928" lon="15.800518840980104"><ele>845.0</ele><time>2026-05-02T11:28:43.001Z</time></trkpt><trkpt lat="50.71289436378149" lon="15.80041623236736"><ele>849.0</ele><time>2026-05-02T11:28:44.001Z</time></trkpt><trkpt lat="50.71308795892823" lon="15.800289702661702"><ele>853.0</ele><time>2026-05-02T11:28:45.001Z</time></trkpt><trkpt lat="50.713308040359976" lon="15.800195894505952"><ele>847.6666666666666</ele><time>2026-05-02T11:28:46.001Z</time></trkpt><trkpt lat="50.71350097663613" lon="15.800095326388046"><ele>842.3333333333333</ele><time>2026-05-02T11:28:47.001Z</time></trkpt><trkpt lat="50.7136765735558" lon="15.80001669322292"><ele>837.0</ele><time>2026-05-02T11:28:48.001Z</time></trkpt><trkpt lat="50.71383989229436" lon="15.799964012684717"><ele>837.0</ele><time>2026-05-02T11:28:49.001Z</time></trkpt><trkpt lat="50.71399798204633" lon="15.79993598563348"><ele>837.0</ele><time>2026-05-02T11:28:50.001Z</time></trkpt><trkpt lat="50.714173508217854" lon="15.799940429758063"><ele>837.0</ele><time>2026-05-02T11:28:51.001Z</time></trkpt><trkpt lat="50.71438110243842" lon="15.799997074368799"><ele>839.0</ele><time>2026-05-02T11:28:52.001Z</time></trkpt><trkpt lat="50.71459935193662" lon="15.800065679328126"><ele>841.0</ele><time>2026-05-02T11:28:53.001Z</time></trkpt><trkpt lat="50.71484335370341" lon="15.80014307768352"><ele>852.3333333333333</ele><time>2026-05-02T11:28:54.001Z</time></trkpt><trkpt lat="50.715061882682484" lon="15.800206668984563"><ele>863.6666666666667</ele><time>2026-05-02T11:28:55.001Z</time></trkpt><trkpt lat="50.71527901217443" lon="15.800245626683472"><ele>875.0</ele><time>2026-05-02T11:28:56.001Z</time></trkpt><trkpt lat="50.71550529008474" lon="15.800247601352257"><ele>877.0</ele><time>2026-05-02T11:28:57.001Z</time></trkpt><trkpt lat="50.71572572679769" lon="15.800197553557302"><ele>879.0</ele><time>2026-05-02T11:28:58.001Z</time></trkpt><trkpt lat="50.71595018057944" lon="15.800141094570419"><ele>873.6666666666667</ele><time>2026-05-02T11:28:59.001Z</time></trkpt><trkpt lat="50.71616981428714" lon="15.800049692613364"><ele>868.3333333333334</ele><time>2026-05-02T11:29:00.001Z</time></trkpt><trkpt lat="50.716372325538416" lon="15.799923830295285"><ele>863.0</ele><time>2026-05-02T11:29:01.001Z</time></trkpt><trkpt lat="50.71656204565817" lon="15.79977497364054"><ele>863.0</ele><time>2026-05-02T11:29:02.001Z</time></trkpt><trkpt lat="50.716729318226626" lon="15.79960672353896"><ele>863.0</ele><time>2026-05-02T11:29:03.001Z</time></trkpt><trkpt lat="50.71687059740722" lon="15.799404010806523"><ele>863.0</ele><time>2026-05-02T11:29:04.001Z</time></trkpt><trkpt lat="50.716984232584736" lon="15.799167375812928"><ele>861.3333333333334</ele><time>2026-05-02T11:29:05.001Z</time></trkpt><trkpt lat="50.71708324354119" lon="15.798877429107263"><ele>859.6666666666667</ele><time>2026-05-02T11:29:06.001Z</time></trkpt><trkpt lat="50.7171703592468" lon="15.798576943998304"><ele>858.0</ele><time>2026-05-02T11:29:07.001Z</time></trkpt><trkpt lat="50.717250960290954" lon="15.798327230282649"><ele>858.0</ele><time>2026-05-02T11:29:08.001Z</time></trkpt><trkpt lat="50.717335292695246" lon="15.798117794711382"><ele>858.0</ele><time>2026-05-02T11:29:09.001Z</time></trkpt><trkpt lat="50.71743685483582" lon="15.797947257945287"><ele>858.0</ele><time>2026-05-02T11:29:10.001Z</time></trkpt><trkpt lat="50.71757288839498" lon="15.797828732889561"><ele>858.0</ele><time>2026-05-02T11:29:11.001Z</time></trkpt><trkpt lat="50.717721443798695" lon="15.797737150470555"><ele>858.0</ele><time>2026-05-02T11:29:12.001Z</time></trkpt><trkpt lat="50.717890684045926" lon="15.7976830269486"><ele>858.0</ele><time>2026-05-02T11:29:13.001Z</time></trkpt><trkpt lat="50.71808819490196" lon="15.797624354099613"><ele>859.6666666666667</ele><time>2026-05-02T11:29:14.001Z</time></trkpt><trkpt lat="50.71829597757248" lon="15.797551050321045"><ele>861.3333333333334</ele><time>2026-05-02T11:29:15.001Z</time></trkpt><trkpt lat="50.71850963396557" lon="15.797414485093729"><ele>863.0</ele><time>2026-05-02T11:29:16.001Z</time></trkpt><trkpt lat="50.71872027865755" lon="15.797267963773265"><ele>867.0</ele><time>2026-05-02T11:29:17.001Z</time></trkpt><trkpt lat="50.71894021744748" lon="15.797129148216051"><ele>871.0</ele><time>2026-05-02T11:29:18.001Z</time></trkpt><trkpt lat="50.71913103948593" lon="15.797008878084599"><ele>875.0</ele><time>2026-05-02T11:29:19.001Z</time></trkpt><trkpt lat="50.71931809545406" lon="15.796912876227196"><ele>872.6666666666667</ele><time>2026-05-02T11:29:20.001Z</time></trkpt><trkpt lat="50.719506624737406" lon="15.796840682938354"><ele>870.3333333333333</ele><time>2026-05-02T11:29:21.001Z</time></trkpt><trkpt lat="50.71970723802887" lon="15.796784425709726"><ele>868.0</ele><time>2026-05-02T11:29:22.001Z</time></trkpt><trkpt lat="50.719913960030766" lon="15.796751861899718"><ele>868.0</ele><time>2026-05-02T11:29:23.001Z</time></trkpt><trkpt lat="50.72014089597181" lon="15.796739005230743"><ele>868.0</ele><time>2026-05-02T11:29:24.001Z</time></trkpt><trkpt lat="50.720363631752335" lon="15.7967518724076"><ele>870.3333333333333</ele><time>2026-05-02T11:29:25.001Z</time></trkpt><trkpt lat="50.72057883926967" lon="15.79678566614329"><ele>872.6666666666667</ele><time>2026-05-02T11:29:26.001Z</time></trkpt><trkpt lat="50.720779885785134" lon="15.796833638333649"><ele>875.0</ele><time>2026-05-02T11:29:27.001Z</time></trkpt><trkpt lat="50.72098697253065" lon="15.796908145107945"><ele>873.0</ele><time>2026-05-02T11:29:28.001Z</time></trkpt><trkpt lat="50.72121570171738" lon="15.7969932963836"><ele>871.0</ele><time>2026-05-02T11:29:29.001Z</time></trkpt><trkpt lat="50.72144353258389" lon="15.7971095677687"><ele>871.0</ele><time>2026-05-02T11:29:30.001Z</time></trkpt><trkpt lat="50.721645598534785" lon="15.79723178603662"><ele>871.0</ele><time>2026-05-02T11:29:31.001Z</time></trkpt><trkpt lat="50.72183912725456" lon="15.797336381153917"><ele>871.0</ele><time>2026-05-02T11:29:32.001Z</time></trkpt><trkpt lat="50.722065955102515" lon="15.797418346229389"><ele>874.0</ele><time>2026-05-02T11:29:33.001Z</time></trkpt><trkpt lat="50.7223080947035" lon="15.797465136294514"><ele>877.0</ele><time>2026-05-02T11:29:34.001Z</time></trkpt><trkpt lat="50.722552673081665" lon="15.797485171679034"><ele>881.5</ele><time>2026-05-02T11:29:35.001Z</time></trkpt><trkpt lat="50.72278283100077" lon="15.797544308735283"><ele>886.0</ele><time>2026-05-02T11:29:36.001Z</time></trkpt><trkpt lat="50.72300667024527" lon="15.797520894398643"><ele>886.0</ele><time>2026-05-02T11:29:37.001Z</time></trkpt><trkpt lat="50.72320212326478" lon="15.797555610155738"><ele>886.0</ele><time>2026-05-02T11:29:38.001Z</time></trkpt><trkpt lat="50.72339369986758" lon="15.797589717972704"><ele>886.0</ele><time>2026-05-02T11:29:39.001Z</time></trkpt><trkpt lat="50.72357876390526" lon="15.797646927684298"><ele>886.6666666666666</ele><time>2026-05-02T11:29:40.001Z</time></trkpt><trkpt lat="50.72377073181089" lon="15.797740956890411"><ele>887.3333333333333</ele><time>2026-05-02T11:29:41.001Z</time></trkpt><trkpt lat="50.723971002778335" lon="15.797892728132132"><ele>888.0</ele><time>2026-05-02T11:29:42.001Z</time></trkpt><trkpt lat="50.72419074715301" lon="15.7980715511239"><ele>888.0</ele><time>2026-05-02T11:29:43.001Z</time></trkpt><trkpt lat="50.724391585332725" lon="15.798232496317999"><ele>888.0</ele><time>2026-05-02T11:29:44.001Z</time></trkpt><trkpt lat="50.724573521272085" lon="15.798365675947004"><ele>888.0</ele><time>2026-05-02T11:29:45.001Z</time></trkpt><trkpt lat="50.72474243826986" lon="15.79845850051273"><ele>887.6666666666667</ele><time>2026-05-02T11:29:46.001Z</time></trkpt><trkpt lat="50.724918426307994" lon="15.798523603363906"><ele>887.3333333333334</ele><time>2026-05-02T11:29:47.001Z</time></trkpt><trkpt lat="50.72510100382432" lon="15.798549011462239"><ele>887.0</ele><time>2026-05-02T11:29:48.001Z</time></trkpt><trkpt lat="50.72528576184087" lon="15.798521053311974"><ele>888.0</ele><time>2026-05-02T11:29:49.001Z</time></trkpt><trkpt lat="50.72544803738493" lon="15.7984343040304"><ele>889.0</ele><time>2026-05-02T11:29:50.001Z</time></trkpt><trkpt lat="50.72558868646017" lon="15.798297227011915"><ele>890.0</ele><time>2026-05-02T11:29:51.001Z</time></trkpt><trkpt lat="50.725690713193956" lon="15.798122161402627"><ele>890.0</ele><time>2026-05-02T11:29:52.001Z</time></trkpt><trkpt lat="50.725761184902474" lon="15.797898636386066"><ele>890.0</ele><time>2026-05-02T11:29:53.001Z</time></trkpt><trkpt lat="50.72580714988074" lon="15.797639688090449"><ele>890.0</ele><time>2026-05-02T11:29:54.001Z</time></trkpt><trkpt lat="50.72584320183599" lon="15.797331823491534"><ele>893.3333333333334</ele><time>2026-05-02T11:29:55.001Z</time></trkpt><trkpt lat="50.725890648559336" lon="15.7970080017552"><ele>896.6666666666667</ele><time>2026-05-02T11:29:56.001Z</time></trkpt><trkpt lat="50.72597586467682" lon="15.796683826337855"><ele>900.0</ele><time>2026-05-02T11:29:57.001Z</time></trkpt><trkpt lat="50.72608620695641" lon="15.796375144725879"><ele>902.0</ele><time>2026-05-02T11:29:58.001Z</time></trkpt><trkpt lat="50.72620752225513" lon="15.796060949850029"><ele>904.0</ele><time>2026-05-02T11:29:59.001Z</time></trkpt><trkpt lat="50.726299985141516" lon="15.795802266859196"><ele>906.0</ele><time>2026-05-02T11:30:00.001Z</time></trkpt><trkpt lat="50.72639825035303" lon="15.795564179178234"><ele>906.0</ele><time>2026-05-02T11:30:01.001Z</time></trkpt><trkpt lat="50.72650781348866" lon="15.795363446492273"><ele>906.0</ele><time>2026-05-02T11:30:02.001Z</time></trkpt><trkpt lat="50.726632306302854" lon="15.795199880741583"><ele>906.0</ele><time>2026-05-02T11:30:03.001Z</time></trkpt><trkpt lat="50.726801968724416" lon="15.795078166984926"><ele>906.6666666666667</ele><time>2026-05-02T11:30:04.001Z</time></trkpt><trkpt lat="50.72698167720535" lon="15.794995820894133"><ele>907.3333333333334</ele><time>2026-05-02T11:30:05.001Z</time></trkpt><trkpt lat="50.7271911372942" lon="15.794927165891325"><ele>908.0</ele><time>2026-05-02T11:30:06.001Z</time></trkpt><trkpt lat="50.7274403719989" lon="15.794868518835527"><ele>908.0</ele><time>2026-05-02T11:30:07.001Z</time></trkpt><trkpt lat="50.727667965948115" lon="15.794789345282304"><ele>908.0</ele><time>2026-05-02T11:30:08.001Z</time></trkpt><trkpt lat="50.72785572157922" lon="15.79468218984026"><ele>908.0</ele><time>2026-05-02T11:30:09.001Z</time></trkpt><trkpt lat="50.72800136821448" lon="15.794528020056493"><ele>909.6666666666667</ele><time>2026-05-02T11:30:10.001Z</time></trkpt><trkpt lat="50.72816086844162" lon="15.79434759632722"><ele>911.3333333333333</ele><time>2026-05-02T11:30:11.001Z</time></trkpt><trkpt lat="50.728320323884276" lon="15.794159179982575"><ele>913.0</ele><time>2026-05-02T11:30:12.001Z</time></trkpt><trkpt lat="50.72845924768894" lon="15.793990306876955"><ele>916.6666666666666</ele><time>2026-05-02T11:30:13.001Z</time></trkpt><trkpt lat="50.728586944528345" lon="15.793849224487014"><ele>920.3333333333333</ele><time>2026-05-02T11:30:14.001Z</time></trkpt><trkpt lat="50.728716680935776" lon="15.793736917904683"><ele>924.0</ele><time>2026-05-02T11:30:15.001Z</time></trkpt><trkpt lat="50.728862343826414" lon="15.793662668089823"><ele>924.0</ele><time>2026-05-02T11:30:16.001Z</time></trkpt><trkpt lat="50.729015894845" lon="15.793633509102666"><ele>924.0</ele><time>2026-05-02T11:30:17.001Z</time></trkpt><trkpt lat="50.729172803430444" lon="15.79366618746062"><ele>924.0</ele><time>2026-05-02T11:30:18.001Z</time></trkpt><trkpt lat="50.72932908814242" lon="15.793745950209642"><ele>923.0</ele><time>2026-05-02T11:30:19.001Z</time></trkpt><trkpt lat="50.72949132793205" lon="15.793848910245167"><ele>922.0</ele><time>2026-05-02T11:30:20.001Z</time></trkpt><trkpt lat="50.729687248975466" lon="15.793924595256197"><ele>921.0</ele><time>2026-05-02T11:30:21.001Z</time></trkpt><trkpt lat="50.72987632988996" lon="15.793933380455462"><ele>921.0</ele><time>2026-05-02T11:30:22.001Z</time></trkpt><trkpt lat="50.73007822086703" lon="15.793870401685757"><ele>921.0</ele><time>2026-05-02T11:30:23.001Z</time></trkpt><trkpt lat="50.730240133033575" lon="15.793782502902292"><ele>921.0</ele><time>2026-05-02T11:30:24.001Z</time></trkpt><trkpt lat="50.730356222327174" lon="15.793733765871387"><ele>920.3333333333333</ele><time>2026-05-02T11:30:25.001Z</time></trkpt><trkpt lat="50.73053454078154" lon="15.79370446860404"><ele>919.6666666666666</ele><time>2026-05-02T11:30:26.001Z</time></trkpt><trkpt lat="50.73070533429218" lon="15.793684759112283"><ele>919.0</ele><time>2026-05-02T11:30:27.001Z</time></trkpt><trkpt lat="50.73088029459823" lon="15.793671839837426"><ele>919.6666666666666</ele><time>2026-05-02T11:30:28.001Z</time></trkpt><trkpt lat="50.73105786775331" lon="15.793665017086466"><ele>920.3333333333333</ele><time>2026-05-02T11:30:29.001Z</time></trkpt><trkpt lat="50.73124317667161" lon="15.79366313195747"><ele>921.0</ele><time>2026-05-02T11:30:30.001Z</time></trkpt><trkpt lat="50.731429353463575" lon="15.793663316480005"><ele>921.0</ele><time>2026-05-02T11:30:31.001Z</time></trkpt><trkpt lat="50.73162587253811" lon="15.793653579549325"><ele>921.0</ele><time>2026-05-02T11:30:32.001Z</time></trkpt><trkpt lat="50.73181457647955" lon="15.793648735340348"><ele>921.0</ele><time>2026-05-02T11:30:33.001Z</time></trkpt><trkpt lat="50.731976750570105" lon="15.79363798262934"><ele>922.0</ele><time>2026-05-02T11:30:34.001Z</time></trkpt><trkpt lat="50.732149475003226" lon="15.79363647990842"><ele>923.0</ele><time>2026-05-02T11:30:35.001Z</time></trkpt><trkpt lat="50.7323124447414" lon="15.793665183853532"><ele>924.0</ele><time>2026-05-02T11:30:36.001Z</time></trkpt><trkpt lat="50.7324753484654" lon="15.793730904058801"><ele>924.0</ele><time>2026-05-02T11:30:37.001Z</time></trkpt><trkpt lat="50.73263990711747" lon="15.793830165686952"><ele>924.0</ele><time>2026-05-02T11:30:38.001Z</time></trkpt><trkpt lat="50.732795507898814" lon="15.793984735348664"><ele>924.0</ele><time>2026-05-02T11:30:39.001Z</time></trkpt><trkpt lat="50.732944630247545" lon="15.794185666792663"><ele>925.6666666666667</ele><time>2026-05-02T11:30:40.001Z</time></trkpt><trkpt lat="50.733092867223306" lon="15.794416853677113"><ele>927.3333333333334</ele><time>2026-05-02T11:30:41.001Z</time></trkpt><trkpt lat="50.73324702769672" lon="15.79466744040907"><ele>929.0</ele><time>2026-05-02T11:30:42.001Z</time></trkpt><trkpt lat="50.73341288756055" lon="15.794894624684467"><ele>928.6666666666667</ele><time>2026-05-02T11:30:43.001Z</time></trkpt><trkpt lat="50.733585292727874" lon="15.795061537134371"><ele>928.3333333333333</ele><time>2026-05-02T11:30:44.001Z</time></trkpt><trkpt lat="50.73377643092227" lon="15.795206127936222"><ele>928.0</ele><time>2026-05-02T11:30:45.001Z</time></trkpt><trkpt lat="50.73397156110023" lon="15.795309677414647"><ele>928.0</ele><time>2026-05-02T11:30:46.001Z</time></trkpt><trkpt lat="50.73415296280245" lon="15.795440520420414"><ele>928.0</ele><time>2026-05-02T11:30:47.001Z</time></trkpt><trkpt lat="50.734329784802156" lon="15.795570750727435"><ele>928.0</ele><time>2026-05-02T11:30:48.001Z</time></trkpt><trkpt lat="50.73450418420129" lon="15.79573208801269"><ele>928.6666666666666</ele><time>2026-05-02T11:30:49.001Z</time></trkpt><trkpt lat="50.73466457648897" lon="15.795933008325175"><ele>929.3333333333333</ele><time>2026-05-02T11:30:50.001Z</time></trkpt><trkpt lat="50.73481765806839" lon="15.796176145058354"><ele>930.0</ele><time>2026-05-02T11:30:51.001Z</time></trkpt><trkpt lat="50.73496599465008" lon="15.79643906673935"><ele>930.0</ele><time>2026-05-02T11:30:52.001Z</time></trkpt><trkpt lat="50.73511756469262" lon="15.796709089437423"><ele>930.0</ele><time>2026-05-02T11:30:53.001Z</time></trkpt><trkpt lat="50.73526689047391" lon="15.796978260448588"><ele>932.0</ele><time>2026-05-02T11:30:54.001Z</time></trkpt><trkpt lat="50.73541695383543" lon="15.797244731541896"><ele>934.0</ele><time>2026-05-02T11:30:55.001Z</time></trkpt><trkpt lat="50.735549468237025" lon="15.797473379183891"><ele>936.0</ele><time>2026-05-02T11:30:56.001Z</time></trkpt><trkpt lat="50.735679167924935" lon="15.797694151565315"><ele>938.6666666666667</ele><time>2026-05-02T11:30:57.001Z</time></trkpt><trkpt lat="50.73581698763034" lon="15.797914584548174"><ele>941.3333333333334</ele><time>2026-05-02T11:30:58.001Z</time></trkpt><trkpt lat="50.735968757331506" lon="15.798143572167895"><ele>944.0</ele><time>2026-05-02T11:30:59.001Z</time></trkpt><trkpt lat="50.73612484157676" lon="15.79836517485571"><ele>944.6666666666667</ele><time>2026-05-02T11:31:00.001Z</time></trkpt><trkpt lat="50.73628152586602" lon="15.798581841335125"><ele>945.3333333333333</ele><time>2026-05-02T11:31:01.001Z</time></trkpt><trkpt lat="50.73643211351336" lon="15.798787126398363"><ele>946.0</ele><time>2026-05-02T11:31:02.001Z</time></trkpt><trkpt lat="50.736588398593085" lon="15.799015987528508"><ele>946.0</ele><time>2026-05-02T11:31:03.001Z</time></trkpt><trkpt lat="50.73673535312164" lon="15.79924764400632"><ele>946.0</ele><time>2026-05-02T11:31:04.001Z</time></trkpt><trkpt lat="50.7368826974942" lon="15.799496621841657"><ele>946.0</ele><time>2026-05-02T11:31:05.001Z</time></trkpt><trkpt lat="50.73701893733627" lon="15.79973683747559"><ele>949.0</ele><time>2026-05-02T11:31:06.001Z</time></trkpt><trkpt lat="50.73713157894478" lon="15.799939776737062"><ele>952.0</ele><time>2026-05-02T11:31:07.001Z</time></trkpt><trkpt lat="50.73724306018385" lon="15.80014350628631"><ele>955.0</ele><time>2026-05-02T11:31:08.001Z</time></trkpt><trkpt lat="50.73735322064667" lon="15.800342561938177"><ele>955.0</ele><time>2026-05-02T11:31:09.001Z</time></trkpt><trkpt lat="50.73747626783916" lon="15.800532925407728"><ele>955.0</ele><time>2026-05-02T11:31:10.001Z</time></trkpt><trkpt lat="50.737580348601895" lon="15.800725925864135"><ele>955.0</ele><time>2026-05-02T11:31:11.001Z</time></trkpt><trkpt lat="50.737673121001926" lon="15.80089107610406"><ele>956.75</ele><time>2026-05-02T11:31:12.001Z</time></trkpt><trkpt lat="50.737753533964764" lon="15.80107608608602"><ele>958.5</ele><time>2026-05-02T11:31:13.001Z</time></trkpt><trkpt lat="50.73784409448667" lon="15.801243575302571"><ele>960.25</ele><time>2026-05-02T11:31:14.001Z</time></trkpt><trkpt lat="50.737930710174744" lon="15.801404965927599"><ele>962.0</ele><time>2026-05-02T11:31:15.001Z</time></trkpt><trkpt lat="50.73802798369553" lon="15.801553385405631"><ele>962.0</ele><time>2026-05-02T11:31:16.001Z</time></trkpt><trkpt lat="50.73809632416717" lon="15.801754110680152"><ele>962.0</ele><time>2026-05-02T11:31:17.001Z</time></trkpt><trkpt lat="50.73815704948501" lon="15.801945938706394"><ele>962.0</ele><time>2026-05-02T11:31:18.001Z</time></trkpt><trkpt lat="50.738191926372856" lon="15.802139813208075"><ele>962.0</ele><time>2026-05-02T11:31:19.001Z</time></trkpt><trkpt lat="50.73820358695902" lon="15.802340600165207"><ele>962.25</ele><time>2026-05-02T11:31:20.001Z</time></trkpt><trkpt lat="50.738203110433446" lon="15.802551279394876"><ele>962.5</ele><time>2026-05-02T11:31:21.001Z</time></trkpt><trkpt lat="50.738151192100894" lon="15.802755310278558"><ele>962.75</ele><time>2026-05-02T11:31:22.001Z</time></trkpt><trkpt lat="50.7380579931024" lon="15.802927207832486"><ele>963.0</ele><time>2026-05-02T11:31:23.001Z</time></trkpt><trkpt lat="50.73793972758008" lon="15.803056272961491"><ele>964.3333333333333</ele><time>2026-05-02T11:31:24.001Z</time></trkpt><trkpt lat="50.73779832783822" lon="15.80315376488765"><ele>965.6666666666666</ele><time>2026-05-02T11:31:25.001Z</time></trkpt><trkpt lat="50.737646411097224" lon="15.803175133322489"><ele>967.0</ele><time>2026-05-02T11:31:26.001Z</time></trkpt><trkpt lat="50.737493477985446" lon="15.803087381451762"><ele>968.0</ele><time>2026-05-02T11:31:27.001Z</time></trkpt><trkpt lat="50.73734638097702" lon="15.802970055307487"><ele>969.0</ele><time>2026-05-02T11:31:28.001Z</time></trkpt><trkpt lat="50.73720311791587" lon="15.80279239098395"><ele>970.0</ele><time>2026-05-02T11:31:29.001Z</time></trkpt><trkpt lat="50.73706776080481" lon="15.802575474205911"><ele>967.6666666666666</ele><time>2026-05-02T11:31:30.001Z</time></trkpt><trkpt lat="50.736929955763216" lon="15.802367486433495"><ele>965.3333333333333</ele><time>2026-05-02T11:31:31.001Z</time></trkpt><trkpt lat="50.73682678963741" lon="15.80217463171395"><ele>963.0</ele><time>2026-05-02T11:31:32.001Z</time></trkpt><trkpt lat="50.736729018112925" lon="15.802005199088994"><ele>966.0</ele><time>2026-05-02T11:31:33.001Z</time></trkpt><trkpt lat="50.73663287356633" lon="15.801834093046294"><ele>969.0</ele><time>2026-05-02T11:31:34.001Z</time></trkpt><trkpt lat="50.73653711748238" lon="15.801681083328429"><ele>972.0</ele><time>2026-05-02T11:31:35.001Z</time></trkpt><trkpt lat="50.73643921490492" lon="15.801554573053796"><ele>975.0</ele><time>2026-05-02T11:31:36.001Z</time></trkpt><trkpt lat="50.736341963987684" lon="15.801456192090434"><ele>975.0</ele><time>2026-05-02T11:31:37.001Z</time></trkpt><trkpt lat="50.73624569418334" lon="15.801393765868537"><ele>975.0</ele><time>2026-05-02T11:31:38.001Z</time></trkpt><trkpt lat="50.736141066265624" lon="15.801340271130808"><ele>975.0</ele><time>2026-05-02T11:31:39.001Z</time></trkpt><trkpt lat="50.736036372543445" lon="15.801318349712309"><ele>975.0</ele><time>2026-05-02T11:31:40.001Z</time></trkpt><trkpt lat="50.735935133576874" lon="15.801338276651622"><ele>975.0</ele><time>2026-05-02T11:31:41.001Z</time></trkpt><trkpt lat="50.73583533287732" lon="15.801380076367218"><ele>976.6</ele><time>2026-05-02T11:31:42.001Z</time></trkpt><trkpt lat="50.735737465905956" lon="15.801448069466137"><ele>978.2</ele><time>2026-05-02T11:31:43.001Z</time></trkpt><trkpt lat="50.7356506183267" lon="15.801538002745888"><ele>979.8</ele><time>2026-05-02T11:31:44.001Z</time></trkpt><trkpt lat="50.73556794683962" lon="15.801656112179142"><ele>981.4</ele><time>2026-05-02T11:31:45.001Z</time></trkpt><trkpt lat="50.73549378486106" lon="15.801797735287911"><ele>983.0</ele><time>2026-05-02T11:31:46.001Z</time></trkpt><trkpt lat="50.73540848554654" lon="15.8019509910346"><ele>984.0</ele><time>2026-05-02T11:31:47.001Z</time></trkpt><trkpt lat="50.73532984235386" lon="15.802204414477385"><ele>985.0</ele><time>2026-05-02T11:31:48.001Z</time></trkpt><trkpt lat="50.73525826969019" lon="15.802525827354273"><ele>986.0</ele><time>2026-05-02T11:31:49.001Z</time></trkpt><trkpt lat="50.735219609270615" lon="15.802760261868617"><ele>986.0</ele><time>2026-05-02T11:31:50.001Z</time></trkpt><trkpt lat="50.735181031236614" lon="15.803039224396342"><ele>986.0</ele><time>2026-05-02T11:31:51.001Z</time></trkpt><trkpt lat="50.73518145531514" lon="15.803340230648795"><ele>986.0</ele><time>2026-05-02T11:31:52.001Z</time></trkpt><trkpt lat="50.73520390837968" lon="15.803656413008499"><ele>986.0</ele><time>2026-05-02T11:31:53.001Z</time></trkpt><trkpt lat="50.735245707764555" lon="15.803966263140302"><ele>986.0</ele><time>2026-05-02T11:31:54.001Z</time></trkpt><trkpt lat="50.73532407375316" lon="15.804237177455603"><ele>986.0</ele><time>2026-05-02T11:31:55.001Z</time></trkpt><trkpt lat="50.73543621247592" lon="15.804492606940824"><ele>986.0</ele><time>2026-05-02T11:31:56.001Z</time></trkpt><trkpt lat="50.73556995410688" lon="15.804741867331572"><ele>986.0</ele><time>2026-05-02T11:31:57.001Z</time></trkpt><trkpt lat="50.73572645172561" lon="15.804986274381418"><ele>986.0</ele><time>2026-05-02T11:31:58.001Z</time></trkpt><trkpt lat="50.73590803319851" lon="15.805249209095988"><ele>987.0</ele><time>2026-05-02T11:31:59.001Z</time></trkpt><trkpt lat="50.736105421517266" lon="15.805548884301377"><ele>988.0</ele><time>2026-05-02T11:32:00.001Z</time></trkpt><trkpt lat="50.73629449460874" lon="15.80584308344561"><ele>988.5</ele><time>2026-05-02T11:32:01.001Z</time></trkpt><trkpt lat="50.73648640523126" lon="15.806140294121906"><ele>989.0</ele><time>2026-05-02T11:32:02.001Z</time></trkpt><trkpt lat="50.7366934249959" lon="15.806457090485882"><ele>989.0</ele><time>2026-05-02T11:32:03.001Z</time></trkpt><trkpt lat="50.73686347223253" lon="15.806721501729058"><ele>989.0</ele><time>2026-05-02T11:32:04.001Z</time></trkpt><trkpt lat="50.7370174293715" lon="15.806922955375704"><ele>989.0</ele><time>2026-05-02T11:32:05.001Z</time></trkpt><trkpt lat="50.73716965209783" lon="15.807100796056723"><ele>990.0</ele><time>2026-05-02T11:32:06.001Z</time></trkpt><trkpt lat="50.737319595151114" lon="15.80724087493484"><ele>991.0</ele><time>2026-05-02T11:32:07.001Z</time></trkpt><trkpt lat="50.73746946210281" lon="15.807348674503857"><ele>992.0</ele><time>2026-05-02T11:32:08.001Z</time></trkpt><trkpt lat="50.7376290382196" lon="15.807422142330969"><ele>992.3333333333334</ele><time>2026-05-02T11:32:09.001Z</time></trkpt><trkpt lat="50.73781835169546" lon="15.807528213235607"><ele>992.6666666666667</ele><time>2026-05-02T11:32:10.001Z</time></trkpt><trkpt lat="50.738039120146844" lon="15.80764256431493"><ele>993.0</ele><time>2026-05-02T11:32:11.001Z</time></trkpt><trkpt lat="50.73828927092252" lon="15.807758649612012"><ele>992.0</ele><time>2026-05-02T11:32:12.001Z</time></trkpt><trkpt lat="50.738553606783356" lon="15.807911047713443"><ele>991.0</ele><time>2026-05-02T11:32:13.001Z</time></trkpt><trkpt lat="50.73882653334707" lon="15.808041499986276"><ele>991.0</ele><time>2026-05-02T11:32:14.001Z</time></trkpt><trkpt lat="50.73912030506179" lon="15.808183640941575"><ele>991.0</ele><time>2026-05-02T11:32:15.001Z</time></trkpt><trkpt lat="50.73938244120965" lon="15.80835965183247"><ele>993.0</ele><time>2026-05-02T11:32:16.001Z</time></trkpt><trkpt lat="50.739584176533036" lon="15.80851130039303"><ele>995.0</ele><time>2026-05-02T11:32:17.001Z</time></trkpt><trkpt lat="50.739750924583404" lon="15.808669135644413"><ele>997.0</ele><time>2026-05-02T11:32:18.001Z</time></trkpt><trkpt lat="50.73990640208068" lon="15.808857883950221"><ele>997.0</ele><time>2026-05-02T11:32:19.001Z</time></trkpt><trkpt lat="50.74006294607634" lon="15.809082599773795"><ele>997.0</ele><time>2026-05-02T11:32:20.001Z</time></trkpt><trkpt lat="50.7402269683241" lon="15.809342531786628"><ele>997.0</ele><time>2026-05-02T11:32:21.001Z</time></trkpt><trkpt lat="50.740395770771244" lon="15.809610500963451"><ele>998.0</ele><time>2026-05-02T11:32:22.001Z</time></trkpt><trkpt lat="50.74055950587015" lon="15.809842671400915"><ele>999.0</ele><time>2026-05-02T11:32:23.001Z</time></trkpt><trkpt lat="50.74069625268493" lon="15.81006365763076"><ele>1000.0</ele><time>2026-05-02T11:32:24.001Z</time></trkpt><trkpt lat="50.74083217538355" lon="15.8102880856135"><ele>1000.0</ele><time>2026-05-02T11:32:25.001Z</time></trkpt><trkpt lat="50.740965221723485" lon="15.81050776372493"><ele>1000.0</ele><time>2026-05-02T11:32:26.001Z</time></trkpt><trkpt lat="50.74109156796674" lon="15.810719923865829"><ele>1000.0</ele><time>2026-05-02T11:32:27.001Z</time></trkpt><trkpt lat="50.74122469156897" lon="15.810928253884907"><ele>1002.6666666666666</ele><time>2026-05-02T11:32:28.001Z</time></trkpt><trkpt lat="50.74136069107527" lon="15.811142586415595"><ele>1005.3333333333333</ele><time>2026-05-02T11:32:29.001Z</time></trkpt><trkpt lat="50.74149760922975" lon="15.811354304816817"><ele>1008.0</ele><time>2026-05-02T11:32:30.001Z</time></trkpt><trkpt lat="50.74162871099784" lon="15.811587752654003"><ele>1007.3333333333333</ele><time>2026-05-02T11:32:31.001Z</time></trkpt><trkpt lat="50.74177425371653" lon="15.811825325669343"><ele>1006.6666666666666</ele><time>2026-05-02T11:32:32.001Z</time></trkpt><trkpt lat="50.74192414112393" lon="15.812069438708287"><ele>1006.0</ele><time>2026-05-02T11:32:33.001Z</time></trkpt><trkpt lat="50.74207388731183" lon="15.8123310863652"><ele>1010.0</ele><time>2026-05-02T11:32:34.001Z</time></trkpt><trkpt lat="50.74222397390779" lon="15.812605329360238"><ele>1014.0</ele><time>2026-05-02T11:32:35.001Z</time></trkpt><trkpt lat="50.74237289360307" lon="15.81287750143119"><ele>1014.0</ele><time>2026-05-02T11:32:36.001Z</time></trkpt><trkpt lat="50.74250536116512" lon="15.81311583727812"><ele>1014.0</ele><time>2026-05-02T11:32:37.001Z</time></trkpt><trkpt lat="50.74262698205344" lon="15.813336803432396"><ele>1014.0</ele><time>2026-05-02T11:32:38.001Z</time></trkpt><trkpt lat="50.74274387712957" lon="15.813547449316264"><ele>1015.3333333333333</ele><time>2026-05-02T11:32:39.001Z</time></trkpt><trkpt lat="50.74285652861511" lon="15.813761879659047"><ele>1016.6666666666666</ele><time>2026-05-02T11:32:40.001Z</time></trkpt><trkpt lat="50.74296589025905" lon="15.813982071201702"><ele>1018.0</ele><time>2026-05-02T11:32:41.001Z</time></trkpt><trkpt lat="50.74307601240117" lon="15.814196136127048"><ele>1017.3333333333333</ele><time>2026-05-02T11:32:42.001Z</time></trkpt><trkpt lat="50.743192671616995" lon="15.814401335069835"><ele>1016.6666666666667</ele><time>2026-05-02T11:32:43.001Z</time></trkpt><trkpt lat="50.743304208704544" lon="15.814617752429658"><ele>1016.0</ele><time>2026-05-02T11:32:44.001Z</time></trkpt><trkpt lat="50.74341701896727" lon="15.814844772291625"><ele>1016.0</ele><time>2026-05-02T11:32:45.001Z</time></trkpt><trkpt lat="50.74353952019954" lon="15.815065962889006"><ele>1016.0</ele><time>2026-05-02T11:32:46.001Z</time></trkpt><trkpt lat="50.7436494371034" lon="15.815260958797325"><ele>1016.0</ele><time>2026-05-02T11:32:47.001Z</time></trkpt><trkpt lat="50.74373680724751" lon="15.815464613222176"><ele>1018.6666666666667</ele><time>2026-05-02T11:32:48.001Z</time></trkpt><trkpt lat="50.74380304746529" lon="15.815699517057297"><ele>1021.3333333333333</ele><time>2026-05-02T11:32:49.001Z</time></trkpt><trkpt lat="50.74385616720676" lon="15.815933075645834"><ele>1024.0</ele><time>2026-05-02T11:32:50.001Z</time></trkpt><trkpt lat="50.74387848926006" lon="15.816185367243147"><ele>1024.3333333333333</ele><time>2026-05-02T11:32:51.001Z</time></trkpt><trkpt lat="50.743881664331816" lon="15.816459366844667"><ele>1024.6666666666667</ele><time>2026-05-02T11:32:52.001Z</time></trkpt><trkpt lat="50.7438632384109" lon="15.81675007082317"><ele>1025.0</ele><time>2026-05-02T11:32:53.001Z</time></trkpt><trkpt lat="50.74382299152512" lon="15.817051482151529"><ele>1026.0</ele><time>2026-05-02T11:32:54.001Z</time></trkpt><trkpt lat="50.74377825104335" lon="15.817299437946406"><ele>1027.0</ele><time>2026-05-02T11:32:55.001Z</time></trkpt><trkpt lat="50.74374078394284" lon="15.81750626864933"><ele>1028.0</ele><time>2026-05-02T11:32:56.001Z</time></trkpt><trkpt lat="50.74371660600519" lon="15.817682051583569"><ele>1029.0</ele><time>2026-05-02T11:32:57.001Z</time></trkpt><trkpt lat="50.743693849326434" lon="15.817831873065648"><ele>1029.8</ele><time>2026-05-02T11:32:58.001Z</time></trkpt><trkpt lat="50.743684246201084" lon="15.817979507155439"><ele>1030.6000000000001</ele><time>2026-05-02T11:32:59.001Z</time></trkpt><trkpt lat="50.74367196271976" lon="15.818142499787571"><ele>1031.4</ele><time>2026-05-02T11:33:00.001Z</time></trkpt><trkpt lat="50.743663722132496" lon="15.818304591750296"><ele>1032.2</ele><time>2026-05-02T11:33:01.001Z</time></trkpt><trkpt lat="50.743662448824296" lon="15.818460683044611"><ele>1033.0</ele><time>2026-05-02T11:33:02.001Z</time></trkpt><trkpt lat="50.74366945639031" lon="15.818614362226711"><ele>1033.4</ele><time>2026-05-02T11:33:03.001Z</time></trkpt><trkpt lat="50.74368889855671" lon="15.81876085141468"><ele>1033.8</ele><time>2026-05-02T11:33:04.001Z</time></trkpt><trkpt lat="50.743721895969216" lon="15.818899638593301"><ele>1034.2</ele><time>2026-05-02T11:33:05.001Z</time></trkpt><trkpt lat="50.743757492952966" lon="15.81903527544647"><ele>1034.6</ele><time>2026-05-02T11:33:06.001Z</time></trkpt><trkpt lat="50.743798033879386" lon="15.819164427138762"><ele>1035.0</ele><time>2026-05-02T11:33:07.001Z</time></trkpt><trkpt lat="50.74384498872824" lon="15.819280634544834"><ele>1035.6</ele><time>2026-05-02T11:33:08.001Z</time></trkpt><trkpt lat="50.74390644156664" lon="15.819386687325867"><ele>1036.2</ele><time>2026-05-02T11:33:09.001Z</time></trkpt><trkpt lat="50.7439689522062" lon="15.819495673428836"><ele>1036.8</ele><time>2026-05-02T11:33:10.001Z</time></trkpt><trkpt lat="50.74403320821658" lon="15.819599167807903"><ele>1037.4</ele><time>2026-05-02T11:33:11.001Z</time></trkpt><trkpt lat="50.7441075905322" lon="15.819689547060857"><ele>1038.0</ele><time>2026-05-02T11:33:12.001Z</time></trkpt><trkpt lat="50.74417648416871" lon="15.819784705008173"><ele>1038.0</ele><time>2026-05-02T11:33:13.001Z</time></trkpt><trkpt lat="50.74424641348702" lon="15.81988668841666"><ele>1038.0</ele><time>2026-05-02T11:33:14.001Z</time></trkpt><trkpt lat="50.74431799616475" lon="15.819984069245264"><ele>1038.0</ele><time>2026-05-02T11:33:15.001Z</time></trkpt><trkpt lat="50.744394432730886" lon="15.820079294091654"><ele>1038.0</ele><time>2026-05-02T11:33:16.001Z</time></trkpt><trkpt lat="50.74447246311106" lon="15.82017428618565"><ele>1038.0</ele><time>2026-05-02T11:33:17.001Z</time></trkpt><trkpt lat="50.74454776052778" lon="15.820270177320428"><ele>1039.2</ele><time>2026-05-02T11:33:18.001Z</time></trkpt><trkpt lat="50.74462038897711" lon="15.820369680187948"><ele>1040.4</ele><time>2026-05-02T11:33:19.001Z</time></trkpt><trkpt lat="50.744688786160744" lon="15.820465317755392"><ele>1041.6000000000001</ele><time>2026-05-02T11:33:20.001Z</time></trkpt><trkpt lat="50.74476307603467" lon="15.820554003403068"><ele>1042.8</ele><time>2026-05-02T11:33:21.001Z</time></trkpt><trkpt lat="50.74483514732368" lon="15.820641823863381"><ele>1044.0</ele><time>2026-05-02T11:33:22.001Z</time></trkpt><trkpt lat="50.744905513434055" lon="15.820729988927198"><ele>1044.0</ele><time>2026-05-02T11:33:23.001Z</time></trkpt><trkpt lat="50.744970859429436" lon="15.82083080214522"><ele>1044.0</ele><time>2026-05-02T11:33:24.001Z</time></trkpt><trkpt lat="50.745043474114695" lon="15.820913577125163"><ele>1044.0</ele><time>2026-05-02T11:33:25.001Z</time></trkpt><trkpt lat="50.7451207613621" lon="15.820996249786315"><ele>1044.0</ele><time>2026-05-02T11:33:26.001Z</time></trkpt><trkpt lat="50.74518893408868" lon="15.821080202145216"><ele>1044.0</ele><time>2026-05-02T11:33:27.001Z</time></trkpt><trkpt lat="50.74526480012859" lon="15.821187017730763"><ele>1045.2</ele><time>2026-05-02T11:33:28.001Z</time></trkpt><trkpt lat="50.74533847529576" lon="15.821286536410595"><ele>1046.4</ele><time>2026-05-02T11:33:29.001Z</time></trkpt><trkpt lat="50.74541473413276" lon="15.821384855567235"><ele>1047.6</ele><time>2026-05-02T11:33:30.001Z</time></trkpt><trkpt lat="50.74548925292741" lon="15.821489992728024"><ele>1048.8</ele><time>2026-05-02T11:33:31.001Z</time></trkpt><trkpt lat="50.74555843772853" lon="15.821591605709246"><ele>1050.0</ele><time>2026-05-02T11:33:32.001Z</time></trkpt><trkpt lat="50.74561443951018" lon="15.821684323543833"><ele>1050.0</ele><time>2026-05-02T11:33:33.001Z</time></trkpt><trkpt lat="50.74566509492498" lon="15.821767612259478"><ele>1050.0</ele><time>2026-05-02T11:33:34.001Z</time></trkpt><trkpt lat="50.74571850232276" lon="15.821851347464355"><ele>1050.0</ele><time>2026-05-02T11:33:35.001Z</time></trkpt><trkpt lat="50.74576895805726" lon="15.821935870793364"><ele>1050.0</ele><time>2026-05-02T11:33:36.001Z</time></trkpt><trkpt lat="50.74582291682271" lon="15.822020905826403"><ele>1050.0</ele><time>2026-05-02T11:33:37.001Z</time></trkpt><trkpt lat="50.745876797849526" lon="15.822102748772528"><ele>1050.0</ele><time>2026-05-02T11:33:38.001Z</time></trkpt><trkpt lat="50.7459313229937" lon="15.822186243332443"><ele>1050.0</ele><time>2026-05-02T11:33:39.001Z</time></trkpt><trkpt lat="50.745980802197664" lon="15.822264463603744"><ele>1049.8333333333333</ele><time>2026-05-02T11:33:40.001Z</time></trkpt><trkpt lat="50.74602609704138" lon="15.822338617344318"><ele>1049.6666666666667</ele><time>2026-05-02T11:33:41.001Z</time></trkpt><trkpt lat="50.746056598654796" lon="15.822430053320236"><ele>1049.5</ele><time>2026-05-02T11:33:42.001Z</time></trkpt><trkpt lat="50.746078048132254" lon="15.822609457334519"><ele>1049.3333333333335</ele><time>2026-05-02T11:33:44.001Z</time></trkpt><trkpt lat="50.746093279566274" lon="15.822750759000296"><ele>1049.1666666666667</ele><time>2026-05-02T11:33:46.001Z</time></trkpt><trkpt lat="50.74615488243148" lon="15.822777513150415"><ele>1049.0</ele><time>2026-05-02T11:34:37Z</time></trkpt><trkpt lat="50.74624420846809" lon="15.82274962426402"><ele>1048.5</ele><time>2026-05-02T11:34:39Z</time></trkpt><trkpt lat="50.74627257370119" lon="15.822644870199385"><ele>1048.0</ele><time>2026-05-02T11:34:41Z</time></trkpt><trkpt lat="50.74613658861899" lon="15.822383091974661"><ele>1047.5</ele><time>2026-05-02T11:34:47Z</time></trkpt><trkpt lat="50.74604412392854" lon="15.82229088244019"><ele>1047.0</ele><time>2026-05-02T11:34:48Z</time></trkpt><trkpt lat="50.74595603183151" lon="15.822190838485035"><ele>1047.0</ele><time>2026-05-02T11:34:49Z</time></trkpt><trkpt lat="50.7458911449895" lon="15.822075135234984"><ele>1047.0</ele><time>2026-05-02T11:34:50Z</time></trkpt><trkpt lat="50.745826982529415" lon="15.82196107775526"><ele>1047.0</ele><time>2026-05-02T11:34:51Z</time></trkpt><trkpt lat="50.74575988116504" lon="15.82185202697335"><ele>1047.0</ele><time>2026-05-02T11:34:52Z</time></trkpt><trkpt lat="50.74568771150321" lon="15.821738880867132"><ele>1047.0</ele><time>2026-05-02T11:34:53Z</time></trkpt><trkpt lat="50.74561671609655" lon="15.82162363059083"><ele>1047.6</ele><time>2026-05-02T11:34:54Z</time></trkpt><trkpt lat="50.745544348583294" lon="15.821515261603352"><ele>1048.2</ele><time>2026-05-02T11:34:55Z</time></trkpt><trkpt lat="50.74546813520607" lon="15.821411041087817"><ele>1048.8</ele><time>2026-05-02T11:34:56Z</time></trkpt><trkpt lat="50.74539452695004" lon="15.821304492697092"><ele>1049.4</ele><time>2026-05-02T11:34:57Z</time></trkpt><trkpt lat="50.74531712846204" lon="15.821196692277434"><ele>1050.0</ele><time>2026-05-02T11:34:58Z</time></trkpt><trkpt lat="50.7452340185595" lon="15.8211022881677"><ele>1048.8</ele><time>2026-05-02T11:34:59Z</time></trkpt><trkpt lat="50.74515475281507" lon="15.820998063799937"><ele>1047.6</ele><time>2026-05-02T11:35:00Z</time></trkpt><trkpt lat="50.74507337192966" lon="15.82089430833293"><ele>1046.4</ele><time>2026-05-02T11:35:01Z</time></trkpt><trkpt lat="50.74499096413738" lon="15.820778967344696"><ele>1045.2</ele><time>2026-05-02T11:35:02Z</time></trkpt><trkpt lat="50.744911372154206" lon="15.820679042363299"><ele>1044.0</ele><time>2026-05-02T11:35:03Z</time></trkpt><trkpt lat="50.74482873005443" lon="15.820576140403308"><ele>1044.0</ele><time>2026-05-02T11:35:04Z</time></trkpt><trkpt lat="50.74474531558232" lon="15.820465932383115"><ele>1044.0</ele><time>2026-05-02T11:35:05Z</time></trkpt><trkpt lat="50.74466665613142" lon="15.820364966513807"><ele>1044.0</ele><time>2026-05-02T11:35:06Z</time></trkpt><trkpt lat="50.744601186202985" lon="15.82028068067586"><ele>1044.0</ele><time>2026-05-02T11:35:07Z</time></trkpt><trkpt lat="50.744542856304626" lon="15.820201125669334"><ele>1044.0</ele><time>2026-05-02T11:35:08Z</time></trkpt><trkpt lat="50.74448461853751" lon="15.820130008528794"><ele>1044.0</ele><time>2026-05-02T11:35:09Z</time></trkpt><trkpt lat="50.744429849131535" lon="15.820061683096242"><ele>1043.142857142857</ele><time>2026-05-02T11:35:10Z</time></trkpt><trkpt lat="50.74437864113568" lon="15.819992446706063"><ele>1042.2857142857142</ele><time>2026-05-02T11:35:11Z</time></trkpt><trkpt lat="50.74432020468435" lon="15.819916387151983"><ele>1041.4285714285713</ele><time>2026-05-02T11:35:12Z</time></trkpt><trkpt lat="50.74426242028785" lon="15.819841925393348"><ele>1040.5714285714284</ele><time>2026-05-02T11:35:13Z</time></trkpt><trkpt lat="50.74420320187735" lon="15.81976260574355"><ele>1039.7142857142856</ele><time>2026-05-02T11:35:14Z</time></trkpt><trkpt lat="50.74414648821256" lon="15.819677126679078"><ele>1038.857142857143</ele><time>2026-05-02T11:35:15Z</time></trkpt><trkpt lat="50.74409159573618" lon="15.819602080318928"><ele>1038.0</ele><time>2026-05-02T11:35:16Z</time></trkpt><trkpt lat="50.744039017682596" lon="15.819532370691691"><ele>1038.0</ele><time>2026-05-02T11:35:17Z</time></trkpt><trkpt lat="50.74399205125519" lon="15.819457672158762"><ele>1038.0</ele><time>2026-05-02T11:35:18Z</time></trkpt><trkpt lat="50.743948153687356" lon="15.819381753729227"><ele>1038.0</ele><time>2026-05-02T11:35:19Z</time></trkpt><trkpt lat="50.74388206186028" lon="15.819269159736457"><ele>1038.0</ele><time>2026-05-02T11:35:21Z</time></trkpt><trkpt lat="50.743827839452926" lon="15.819170713006379"><ele>1038.0</ele><time>2026-05-02T11:35:23Z</time></trkpt><trkpt lat="50.74377296967317" lon="15.818966044142398"><ele>1037.25</ele><time>2026-05-02T11:35:25Z</time></trkpt><trkpt lat="50.74373408873403" lon="15.818815133971716"><ele>1036.5</ele><time>2026-05-02T11:35:26Z</time></trkpt><trkpt lat="50.74370891009282" lon="15.818628811152026"><ele>1035.75</ele><time>2026-05-02T11:35:27Z</time></trkpt><trkpt lat="50.74369493538821" lon="15.818440621230422"><ele>1035.0</ele><time>2026-05-02T11:35:28Z</time></trkpt><trkpt lat="50.743687294571195" lon="15.8182423069506"><ele>1034.3333333333333</ele><time>2026-05-02T11:35:29Z</time></trkpt><trkpt lat="50.74369972098726" lon="15.818003458025487"><ele>1033.6666666666665</ele><time>2026-05-02T11:35:30Z</time></trkpt><trkpt lat="50.74373322617747" lon="15.817757412933902"><ele>1033.0</ele><time>2026-05-02T11:35:31Z</time></trkpt><trkpt lat="50.743768966946924" lon="15.817498199490945"><ele>1032.0</ele><time>2026-05-02T11:35:32Z</time></trkpt><trkpt lat="50.74378160996006" lon="15.81732011020849"><ele>1031.0</ele><time>2026-05-02T11:35:33Z</time></trkpt><trkpt lat="50.743823570479826" lon="15.817062544284811"><ele>1030.0</ele><time>2026-05-02T11:35:34Z</time></trkpt><trkpt lat="50.74385718697563" lon="15.81682393826872"><ele>1029.0</ele><time>2026-05-02T11:35:35Z</time></trkpt><trkpt lat="50.74388158727721" lon="15.81659013227589"><ele>1027.6666666666667</ele><time>2026-05-02T11:35:36Z</time></trkpt><trkpt lat="50.74389911550794" lon="15.816366503192038"><ele>1026.3333333333335</ele><time>2026-05-02T11:35:37Z</time></trkpt><trkpt lat="50.74390047721621" lon="15.81610946086672"><ele>1025.0</ele><time>2026-05-02T11:35:38Z</time></trkpt><trkpt lat="50.74386731962622" lon="15.815852005366422"><ele>1024.6666666666667</ele><time>2026-05-02T11:35:39Z</time></trkpt><trkpt lat="50.74381200337662" lon="15.815607545371908"><ele>1024.3333333333333</ele><time>2026-05-02T11:35:40Z</time></trkpt><trkpt lat="50.743727999697" lon="15.815367025085909"><ele>1024.0</ele><time>2026-05-02T11:35:41Z</time></trkpt><trkpt lat="50.743618520871834" lon="15.815124231627085"><ele>1021.3333333333333</ele><time>2026-05-02T11:35:42Z</time></trkpt><trkpt lat="50.743489469467484" lon="15.814888069578217"><ele>1018.6666666666667</ele><time>2026-05-02T11:35:43Z</time></trkpt><trkpt lat="50.74335586738186" lon="15.81465475050025"><ele>1016.0</ele><time>2026-05-02T11:35:44Z</time></trkpt><trkpt lat="50.74321920136567" lon="15.814408277474774"><ele>1016.6666666666667</ele><time>2026-05-02T11:35:45Z</time></trkpt><trkpt lat="50.74308477537894" lon="15.814152561606008"><ele>1017.3333333333333</ele><time>2026-05-02T11:35:46Z</time></trkpt><trkpt lat="50.74294948856704" lon="15.813894645808336"><ele>1018.0</ele><time>2026-05-02T11:35:47Z</time></trkpt><trkpt lat="50.742805860024745" lon="15.813635180074638"><ele>1016.6666666666666</ele><time>2026-05-02T11:35:48Z</time></trkpt><trkpt lat="50.742670605418596" lon="15.813383200383083"><ele>1015.3333333333333</ele><time>2026-05-02T11:35:49Z</time></trkpt><trkpt lat="50.74254928008778" lon="15.813145902905374"><ele>1014.0</ele><time>2026-05-02T11:35:50Z</time></trkpt><trkpt lat="50.742417134434724" lon="15.812907233405431"><ele>1014.0</ele><time>2026-05-02T11:35:51Z</time></trkpt><trkpt lat="50.74229511876932" lon="15.81266871849782"><ele>1014.0</ele><time>2026-05-02T11:35:52Z</time></trkpt><trkpt lat="50.74216422911858" lon="15.812429834813022"><ele>1014.0</ele><time>2026-05-02T11:35:53Z</time></trkpt><trkpt lat="50.742029807803505" lon="15.812195288933113"><ele>1014.3333333333333</ele><time>2026-05-02T11:35:54Z</time></trkpt><trkpt lat="50.74189600460918" lon="15.811968985092436"><ele>1014.6666666666666</ele><time>2026-05-02T11:35:55Z</time></trkpt><trkpt lat="50.74177949093599" lon="15.811768688184943"><ele>1015.0</ele><time>2026-05-02T11:35:56Z</time></trkpt><trkpt lat="50.741659087901915" lon="15.811572942329121"><ele>1013.3333333333333</ele><time>2026-05-02T11:35:57Z</time></trkpt><trkpt lat="50.74154084349943" lon="15.811386360904441"><ele>1011.6666666666667</ele><time>2026-05-02T11:35:58Z</time></trkpt><trkpt lat="50.74142368076346" lon="15.811199990664965"><ele>1010.0</ele><time>2026-05-02T11:35:59Z</time></trkpt><trkpt lat="50.741284569182824" lon="15.810981617489258"><ele>1010.0</ele><time>2026-05-02T11:36:00Z</time></trkpt><trkpt lat="50.74113888470793" lon="15.810749520890248"><ele>1010.0</ele><time>2026-05-02T11:36:01Z</time></trkpt><trkpt lat="50.74098014556138" lon="15.81048950997742"><ele>1010.0</ele><time>2026-05-02T11:36:02Z</time></trkpt><trkpt lat="50.740819590362825" lon="15.810233594208027"><ele>1008.6666666666667</ele><time>2026-05-02T11:36:03Z</time></trkpt><trkpt lat="50.74067749090734" lon="15.809994806188218"><ele>1007.3333333333333</ele><time>2026-05-02T11:36:04Z</time></trkpt><trkpt lat="50.74053392785176" lon="15.809763181437189"><ele>1006.0</ele><time>2026-05-02T11:36:05Z</time></trkpt><trkpt lat="50.740399634172014" lon="15.809548738622407"><ele>1006.0</ele><time>2026-05-02T11:36:06Z</time></trkpt><trkpt lat="50.74027039718016" lon="15.809344278514313"><ele>1006.0</ele><time>2026-05-02T11:36:07Z</time></trkpt><trkpt lat="50.74014417684643" lon="15.809140342502117"><ele>1006.0</ele><time>2026-05-02T11:36:08Z</time></trkpt><trkpt lat="50.74001972447891" lon="15.808945093949"><ele>1003.6666666666666</ele><time>2026-05-02T11:36:09Z</time></trkpt><trkpt lat="50.73989016221385" lon="15.808765274331936"><ele>1001.3333333333333</ele><time>2026-05-02T11:36:10Z</time></trkpt><trkpt lat="50.73974156971316" lon="15.808592992478152"><ele>999.0</ele><time>2026-05-02T11:36:11Z</time></trkpt><trkpt lat="50.739577954765394" lon="15.808442629863064"><ele>999.0</ele><time>2026-05-02T11:36:12Z</time></trkpt><trkpt lat="50.739405882138044" lon="15.808318011223296"><ele>999.0</ele><time>2026-05-02T11:36:13Z</time></trkpt><trkpt lat="50.73922161150874" lon="15.808204329861143"><ele>999.0</ele><time>2026-05-02T11:36:14Z</time></trkpt><trkpt lat="50.73902859056066" lon="15.80810432124967"><ele>996.3333333333333</ele><time>2026-05-02T11:36:15Z</time></trkpt><trkpt lat="50.73883072280908" lon="15.808007979872071"><ele>993.6666666666666</ele><time>2026-05-02T11:36:16Z</time></trkpt><trkpt lat="50.738630824110345" lon="15.807905081838335"><ele>991.0</ele><time>2026-05-02T11:36:17Z</time></trkpt><trkpt lat="50.73842760224529" lon="15.807798699686252"><ele>990.3333333333333</ele><time>2026-05-02T11:36:18Z</time></trkpt><trkpt lat="50.738232310128524" lon="15.807688353172706"><ele>989.6666666666667</ele><time>2026-05-02T11:36:19Z</time></trkpt><trkpt lat="50.73805434543145" lon="15.807589335074983"><ele>989.0</ele><time>2026-05-02T11:36:20Z</time></trkpt><trkpt lat="50.73787679073589" lon="15.807495977537657"><ele>990.0</ele><time>2026-05-02T11:36:21Z</time></trkpt><trkpt lat="50.73769595196343" lon="15.807405456869867"><ele>991.0</ele><time>2026-05-02T11:36:22Z</time></trkpt><trkpt lat="50.73751097261802" lon="15.807303135778575"><ele>992.0</ele><time>2026-05-02T11:36:23Z</time></trkpt><trkpt lat="50.73732999781212" lon="15.807185711813215"><ele>992.0</ele><time>2026-05-02T11:36:24Z</time></trkpt><trkpt lat="50.73716091895236" lon="15.807041571841673"><ele>992.0</ele><time>2026-05-02T11:36:25Z</time></trkpt><trkpt lat="50.736997927050304" lon="15.806860734099615"><ele>992.0</ele><time>2026-05-02T11:36:26Z</time></trkpt><trkpt lat="50.73683942680451" lon="15.806651109637713"><ele>991.0</ele><time>2026-05-02T11:36:27Z</time></trkpt><trkpt lat="50.73668621986756" lon="15.806406664832165"><ele>990.0</ele><time>2026-05-02T11:36:28Z</time></trkpt><trkpt lat="50.7365316908375" lon="15.806154189755679"><ele>989.0</ele><time>2026-05-02T11:36:29Z</time></trkpt><trkpt lat="50.73638119131968" lon="15.805914363707723"><ele>988.6666666666667</ele><time>2026-05-02T11:36:30Z</time></trkpt><trkpt lat="50.73623749792247" lon="15.805687707016514"><ele>988.3333333333333</ele><time>2026-05-02T11:36:31Z</time></trkpt><trkpt lat="50.736108994942164" lon="15.80548058222944"><ele>988.0</ele><time>2026-05-02T11:36:32Z</time></trkpt><trkpt lat="50.73598541821573" lon="15.805285531129488"><ele>987.3333333333333</ele><time>2026-05-02T11:36:33Z</time></trkpt><trkpt lat="50.735868610188334" lon="15.805093479210546"><ele>986.6666666666667</ele><time>2026-05-02T11:36:34Z</time></trkpt><trkpt lat="50.7357526629451" lon="15.80490731946641"><ele>986.0</ele><time>2026-05-02T11:36:35Z</time></trkpt><trkpt lat="50.73563686421818" lon="15.804710917727322"><ele>986.0</ele><time>2026-05-02T11:36:36Z</time></trkpt><trkpt lat="50.735527002942085" lon="15.804498330212315"><ele>986.0</ele><time>2026-05-02T11:36:37Z</time></trkpt><trkpt lat="50.73542939111062" lon="15.804267925756477"><ele>986.0</ele><time>2026-05-02T11:36:38Z</time></trkpt><trkpt lat="50.73535137527941" lon="15.804029010745538"><ele>986.0</ele><time>2026-05-02T11:36:39Z</time></trkpt><trkpt lat="50.73528836598392" lon="15.803767141890795"><ele>986.0</ele><time>2026-05-02T11:36:40Z</time></trkpt><trkpt lat="50.73524870174673" lon="15.803479043236434"><ele>986.0</ele><time>2026-05-02T11:36:41Z</time></trkpt><trkpt lat="50.735231483227345" lon="15.803207342371168"><ele>986.0</ele><time>2026-05-02T11:36:42Z</time></trkpt><trkpt lat="50.7352407981655" lon="15.802940139453812"><ele>986.0</ele><time>2026-05-02T11:36:43Z</time></trkpt><trkpt lat="50.735265888009" lon="15.802682243686153"><ele>986.0</ele><time>2026-05-02T11:36:44Z</time></trkpt><trkpt lat="50.7353076777209" lon="15.802426275066702"><ele>986.0</ele><time>2026-05-02T11:36:45Z</time></trkpt><trkpt lat="50.73536553173517" lon="15.80219205036116"><ele>986.0</ele><time>2026-05-02T11:36:46Z</time></trkpt><trkpt lat="50.735430038279965" lon="15.80198229881983"><ele>986.0</ele><time>2026-05-02T11:36:47Z</time></trkpt><trkpt lat="50.73551364058331" lon="15.801800781112458"><ele>986.0</ele><time>2026-05-02T11:36:48Z</time></trkpt><trkpt lat="50.73560368701274" lon="15.801633934260817"><ele>985.25</ele><time>2026-05-02T11:36:49Z</time></trkpt><trkpt lat="50.73570702869815" lon="15.801496784555479"><ele>984.5</ele><time>2026-05-02T11:36:50Z</time></trkpt><trkpt lat="50.735820139826494" lon="15.801407719779384"><ele>983.75</ele><time>2026-05-02T11:36:51Z</time></trkpt><trkpt lat="50.735943689925264" lon="15.801352731504348"><ele>983.0</ele><time>2026-05-02T11:36:52Z</time></trkpt><trkpt lat="50.73607562765031" lon="15.80135260829512"><ele>981.5</ele><time>2026-05-02T11:36:53Z</time></trkpt><trkpt lat="50.73621122507342" lon="15.801392677226426"><ele>980.0</ele><time>2026-05-02T11:36:54Z</time></trkpt><trkpt lat="50.73633908187877" lon="15.801507430839427"><ele>978.5</ele><time>2026-05-02T11:36:55Z</time></trkpt><trkpt lat="50.73646544795443" lon="15.801650498302475"><ele>977.0</ele><time>2026-05-02T11:36:56Z</time></trkpt><trkpt lat="50.73660222642123" lon="15.801832180061144"><ele>977.0</ele><time>2026-05-02T11:36:57Z</time></trkpt><trkpt lat="50.7367405566036" lon="15.802073952662711"><ele>977.0</ele><time>2026-05-02T11:36:58Z</time></trkpt><trkpt lat="50.73688142767529" lon="15.80231303005436"><ele>977.0</ele><time>2026-05-02T11:36:59Z</time></trkpt><trkpt lat="50.73699672723574" lon="15.80253221143374"><ele>974.6666666666667</ele><time>2026-05-02T11:37:00Z</time></trkpt><trkpt lat="50.737115297441186" lon="15.802730062308434"><ele>972.3333333333333</ele><time>2026-05-02T11:37:01Z</time></trkpt><trkpt lat="50.73722290721383" lon="15.802901152872408"><ele>970.0</ele><time>2026-05-02T11:37:02Z</time></trkpt><trkpt lat="50.73732660681004" lon="15.803031982107749"><ele>970.0</ele><time>2026-05-02T11:37:03Z</time></trkpt><trkpt lat="50.73747775714212" lon="15.803152890392166"><ele>970.0</ele><time>2026-05-02T11:37:04Z</time></trkpt><trkpt lat="50.73762474944947" lon="15.803200275602547"><ele>970.0</ele><time>2026-05-02T11:37:05Z</time></trkpt><trkpt lat="50.73777785564096" lon="15.803198159824364"><ele>969.0</ele><time>2026-05-02T11:37:06Z</time></trkpt><trkpt lat="50.73793065361432" lon="15.803119117965354"><ele>968.0</ele><time>2026-05-02T11:37:07Z</time></trkpt><trkpt lat="50.73806342065689" lon="15.802988186693302"><ele>967.0</ele><time>2026-05-02T11:37:08Z</time></trkpt><trkpt lat="50.7381600077757" lon="15.802793378125426"><ele>965.6666666666666</ele><time>2026-05-02T11:37:09Z</time></trkpt><trkpt lat="50.738229600424816" lon="15.802574244580216"><ele>964.3333333333333</ele><time>2026-05-02T11:37:10Z</time></trkpt><trkpt lat="50.73825999709756" lon="15.80233861239094"><ele>963.0</ele><time>2026-05-02T11:37:11Z</time></trkpt><trkpt lat="50.73823232652387" lon="15.802082469046876"><ele>963.0</ele><time>2026-05-02T11:37:12Z</time></trkpt><trkpt lat="50.73816861612886" lon="15.801840936942977"><ele>963.0</ele><time>2026-05-02T11:37:13Z</time></trkpt><trkpt lat="50.73807615295858" lon="15.801598024569259"><ele>963.0</ele><time>2026-05-02T11:37:14Z</time></trkpt><trkpt lat="50.737952273341065" lon="15.801369147360578"><ele>962.6666666666667</ele><time>2026-05-02T11:37:15Z</time></trkpt><trkpt lat="50.737819840722516" lon="15.801140880620267"><ele>962.3333333333334</ele><time>2026-05-02T11:37:16Z</time></trkpt><trkpt lat="50.737696804941635" lon="15.800923178808343"><ele>962.0</ele><time>2026-05-02T11:37:17Z</time></trkpt><trkpt lat="50.73757767572606" lon="15.800701383331488"><ele>960.6666666666667</ele><time>2026-05-02T11:37:18Z</time></trkpt><trkpt lat="50.737453868604184" lon="15.800457948987848"><ele>959.3333333333333</ele><time>2026-05-02T11:37:19Z</time></trkpt><trkpt lat="50.737323397591815" lon="15.800217903138732"><ele>958.0</ele><time>2026-05-02T11:37:20Z</time></trkpt><trkpt lat="50.737198798180124" lon="15.799997781580355"><ele>958.0</ele><time>2026-05-02T11:37:21Z</time></trkpt><trkpt lat="50.73707296903117" lon="15.799775330778328"><ele>958.0</ele><time>2026-05-02T11:37:22Z</time></trkpt><trkpt lat="50.73693805118338" lon="15.799543159998025"><ele>958.0</ele><time>2026-05-02T11:37:23Z</time></trkpt><trkpt lat="50.73680236657652" lon="15.799307325390808"><ele>954.0</ele><time>2026-05-02T11:37:24Z</time></trkpt><trkpt lat="50.736674816004005" lon="15.79909504539808"><ele>950.0</ele><time>2026-05-02T11:37:25Z</time></trkpt><trkpt lat="50.73654789195717" lon="15.798896700956345"><ele>946.0</ele><time>2026-05-02T11:37:26Z</time></trkpt><trkpt lat="50.73641407742134" lon="15.798697744356787"><ele>946.0</ele><time>2026-05-02T11:37:27Z</time></trkpt><trkpt lat="50.73626853389078" lon="15.798510257170872"><ele>946.0</ele><time>2026-05-02T11:37:28Z</time></trkpt><trkpt lat="50.736122485447744" lon="15.798321045055358"><ele>946.0</ele><time>2026-05-02T11:37:29Z</time></trkpt><trkpt lat="50.735977443494825" lon="15.798109209408846"><ele>945.6666666666666</ele><time>2026-05-02T11:37:30Z</time></trkpt><trkpt lat="50.7358447494312" lon="15.797895575489632"><ele>945.3333333333333</ele><time>2026-05-02T11:37:31Z</time></trkpt><trkpt lat="50.73572464185624" lon="15.79769771853734"><ele>945.0</ele><time>2026-05-02T11:37:32Z</time></trkpt><trkpt lat="50.73561347605218" lon="15.797512010664985"><ele>942.0</ele><time>2026-05-02T11:37:33Z</time></trkpt><trkpt lat="50.73550015903708" lon="15.797307950142383"><ele>939.0</ele><time>2026-05-02T11:37:34Z</time></trkpt><trkpt lat="50.73538472350587" lon="15.797093246337777"><ele>936.0</ele><time>2026-05-02T11:37:35Z</time></trkpt><trkpt lat="50.735264960634765" lon="15.796872641155828"><ele>934.0</ele><time>2026-05-02T11:37:36Z</time></trkpt><trkpt lat="50.735135784208275" lon="15.796643798212418"><ele>932.0</ele><time>2026-05-02T11:37:37Z</time></trkpt><trkpt lat="50.735008873063116" lon="15.796415515625327"><ele>930.0</ele><time>2026-05-02T11:37:38Z</time></trkpt><trkpt lat="50.734884524043835" lon="15.796204582003686"><ele>930.0</ele><time>2026-05-02T11:37:39Z</time></trkpt><trkpt lat="50.73476568052067" lon="15.796010921243727"><ele>930.0</ele><time>2026-05-02T11:37:40Z</time></trkpt><trkpt lat="50.734634654835396" lon="15.795812925097753"><ele>930.0</ele><time>2026-05-02T11:37:41Z</time></trkpt><trkpt lat="50.7344893943018" lon="15.795639251169709"><ele>929.3333333333333</ele><time>2026-05-02T11:37:42Z</time></trkpt><trkpt lat="50.73432366197552" lon="15.7954894463637"><ele>928.6666666666666</ele><time>2026-05-02T11:37:43Z</time></trkpt><trkpt lat="50.73414568797979" lon="15.795371732798374"><ele>928.0</ele><time>2026-05-02T11:37:44Z</time></trkpt><trkpt lat="50.733954277709586" lon="15.795266350867415"><ele>928.3333333333333</ele><time>2026-05-02T11:37:45Z</time></trkpt><trkpt lat="50.733774871123885" lon="15.795161436543077"><ele>928.6666666666667</ele><time>2026-05-02T11:37:46Z</time></trkpt><trkpt lat="50.733600743717375" lon="15.79504526625707"><ele>929.0</ele><time>2026-05-02T11:37:47Z</time></trkpt><trkpt lat="50.73342564748651" lon="15.794881200933355"><ele>929.0</ele><time>2026-05-02T11:37:48Z</time></trkpt><trkpt lat="50.7332645798175" lon="15.79465477844889"><ele>929.0</ele><time>2026-05-02T11:37:49Z</time></trkpt><trkpt lat="50.73311229644408" lon="15.794424576970387"><ele>929.0</ele><time>2026-05-02T11:37:50Z</time></trkpt><trkpt lat="50.73295978411922" lon="15.794211935287167"><ele>927.3333333333334</ele><time>2026-05-02T11:37:51Z</time></trkpt><trkpt lat="50.73281697349609" lon="15.793996066045986"><ele>925.6666666666667</ele><time>2026-05-02T11:37:52Z</time></trkpt><trkpt lat="50.73267256564146" lon="15.793829719448578"><ele>924.0</ele><time>2026-05-02T11:37:53Z</time></trkpt><trkpt lat="50.73252682205393" lon="15.79372046599718"><ele>924.0</ele><time>2026-05-02T11:37:54Z</time></trkpt><trkpt lat="50.732365574546286" lon="15.793646994025973"><ele>924.0</ele><time>2026-05-02T11:37:55Z</time></trkpt><trkpt lat="50.73219179633086" lon="15.793616170019288"><ele>924.0</ele><time>2026-05-02T11:37:56Z</time></trkpt><trkpt lat="50.7319953574139" lon="15.793619675812787"><ele>923.0</ele><time>2026-05-02T11:37:57Z</time></trkpt><trkpt lat="50.73178951474542" lon="15.793638956389389"><ele>922.0</ele><time>2026-05-02T11:37:58Z</time></trkpt><trkpt lat="50.73157857653087" lon="15.793645344441549"><ele>921.0</ele><time>2026-05-02T11:37:59Z</time></trkpt><trkpt lat="50.73138187350897" lon="15.793636582792024"><ele>921.0</ele><time>2026-05-02T11:38:00Z</time></trkpt><trkpt lat="50.731170890538586" lon="15.793647171369864"><ele>921.0</ele><time>2026-05-02T11:38:01Z</time></trkpt><trkpt lat="50.73096434287229" lon="15.793664384455136"><ele>921.0</ele><time>2026-05-02T11:38:02Z</time></trkpt><trkpt lat="50.730766663584056" lon="15.793680951554158"><ele>921.0</ele><time>2026-05-02T11:38:03Z</time></trkpt><trkpt lat="50.73056858307913" lon="15.793680786321849"><ele>921.0</ele><time>2026-05-02T11:38:04Z</time></trkpt><trkpt lat="50.73038067308433" lon="15.793718337545581"><ele>921.0</ele><time>2026-05-02T11:38:05Z</time></trkpt><trkpt lat="50.73020250367618" lon="15.79377204551314"><ele>921.0</ele><time>2026-05-02T11:38:06Z</time></trkpt><trkpt lat="50.73004503278609" lon="15.793834915380982"><ele>921.0</ele><time>2026-05-02T11:38:07Z</time></trkpt><trkpt lat="50.72989156787727" lon="15.793862019152288"><ele>921.0</ele><time>2026-05-02T11:38:08Z</time></trkpt><trkpt lat="50.729734579788754" lon="15.79386232212758"><ele>921.0</ele><time>2026-05-02T11:38:09Z</time></trkpt><trkpt lat="50.7295705146096" lon="15.793821973554667"><ele>921.0</ele><time>2026-05-02T11:38:10Z</time></trkpt><trkpt lat="50.72940474824846" lon="15.79374761853099"><ele>921.0</ele><time>2026-05-02T11:38:11Z</time></trkpt><trkpt lat="50.729238754904806" lon="15.7936888434918"><ele>921.75</ele><time>2026-05-02T11:38:12Z</time></trkpt><trkpt lat="50.729092889791666" lon="15.793626772848516"><ele>922.5</ele><time>2026-05-02T11:38:13Z</time></trkpt><trkpt lat="50.728950594426806" lon="15.793617392568821"><ele>923.25</ele><time>2026-05-02T11:38:14Z</time></trkpt><trkpt lat="50.72880706616658" lon="15.7936604362352"><ele>924.0</ele><time>2026-05-02T11:38:15Z</time></trkpt><trkpt lat="50.72865397064286" lon="15.793765447879341"><ele>920.3333333333333</ele><time>2026-05-02T11:38:16Z</time></trkpt><trkpt lat="50.7284992913277" lon="15.793910125719133"><ele>916.6666666666666</ele><time>2026-05-02T11:38:17Z</time></trkpt><trkpt lat="50.72834476868014" lon="15.79409278086855"><ele>913.0</ele><time>2026-05-02T11:38:18Z</time></trkpt><trkpt lat="50.728191221385295" lon="15.79427771392328"><ele>919.3333333333333</ele><time>2026-05-02T11:38:19Z</time></trkpt><trkpt lat="50.72804645085152" lon="15.794435656417225"><ele>925.6666666666667</ele><time>2026-05-02T11:38:20Z</time></trkpt><trkpt lat="50.72791164646014" lon="15.79457098696609"><ele>932.0</ele><time>2026-05-02T11:38:21Z</time></trkpt><trkpt lat="50.72776827586898" lon="15.794690520532534"><ele>924.0</ele><time>2026-05-02T11:38:22Z</time></trkpt><trkpt lat="50.72762192416953" lon="15.794775741898912"><ele>916.0</ele><time>2026-05-02T11:38:23Z</time></trkpt><trkpt lat="50.727441022030874" lon="15.794833062857778"><ele>908.0</ele><time>2026-05-02T11:38:24Z</time></trkpt><trkpt lat="50.72723944340257" lon="15.794890573863857"><ele>908.0</ele><time>2026-05-02T11:38:25Z</time></trkpt><trkpt lat="50.727034366884816" lon="15.794960502936558"><ele>908.0</ele><time>2026-05-02T11:38:26Z</time></trkpt><trkpt lat="50.72685089870638" lon="15.795038641073766"><ele>908.0</ele><time>2026-05-02T11:38:27Z</time></trkpt><trkpt lat="50.726697289275336" lon="15.795139553440741"><ele>907.3333333333334</ele><time>2026-05-02T11:38:28Z</time></trkpt><trkpt lat="50.72655794313109" lon="15.795269746132545"><ele>906.6666666666667</ele><time>2026-05-02T11:38:29Z</time></trkpt><trkpt lat="50.726434562563064" lon="15.79544351363099"><ele>906.0</ele><time>2026-05-02T11:38:30Z</time></trkpt><trkpt lat="50.726326020624846" lon="15.795655988659496"><ele>906.0</ele><time>2026-05-02T11:38:31Z</time></trkpt><trkpt lat="50.726234013883754" lon="15.795908764701073"><ele>906.0</ele><time>2026-05-02T11:38:32Z</time></trkpt><trkpt lat="50.726124211936984" lon="15.796191059619215"><ele>906.0</ele><time>2026-05-02T11:38:33Z</time></trkpt><trkpt lat="50.72602581403828" lon="15.796473054207251"><ele>904.0</ele><time>2026-05-02T11:38:34Z</time></trkpt><trkpt lat="50.72593786057644" lon="15.796729400926415"><ele>902.0</ele><time>2026-05-02T11:38:35Z</time></trkpt><trkpt lat="50.72586880194193" lon="15.796988520583364"><ele>900.0</ele><time>2026-05-02T11:38:36Z</time></trkpt><trkpt lat="50.72583633600538" lon="15.797243448345085"><ele>900.0</ele><time>2026-05-02T11:38:37Z</time></trkpt><trkpt lat="50.72578377687522" lon="15.797477810158828"><ele>900.0</ele><time>2026-05-02T11:38:38Z</time></trkpt><trkpt lat="50.72574860021128" lon="15.797702889251873"><ele>900.0</ele><time>2026-05-02T11:38:39Z</time></trkpt><trkpt lat="50.72570784358984" lon="15.79789834895359"><ele>900.0</ele><time>2026-05-02T11:38:40Z</time></trkpt><trkpt lat="50.72566110158683" lon="15.798086529102791"><ele>896.6666666666667</ele><time>2026-05-02T11:38:41Z</time></trkpt><trkpt lat="50.72556549859773" lon="15.798250275594553"><ele>893.3333333333334</ele><time>2026-05-02T11:38:42Z</time></trkpt><trkpt lat="50.725437978609335" lon="15.798378671967512"><ele>890.0</ele><time>2026-05-02T11:38:43Z</time></trkpt><trkpt lat="50.72528231299203" lon="15.798470591720132"><ele>889.3333333333334</ele><time>2026-05-02T11:38:44Z</time></trkpt><trkpt lat="50.72510773578048" lon="15.798488591500481"><ele>888.6666666666667</ele><time>2026-05-02T11:38:45Z</time></trkpt><trkpt lat="50.72493020683745" lon="15.798484455775304"><ele>888.0</ele><time>2026-05-02T11:38:46Z</time></trkpt><trkpt lat="50.72474672323393" lon="15.798407441344668"><ele>888.0</ele><time>2026-05-02T11:38:47Z</time></trkpt><trkpt lat="50.72455247779542" lon="15.798293502085233"><ele>888.0</ele><time>2026-05-02T11:38:48Z</time></trkpt><trkpt lat="50.72435810456732" lon="15.798159023962482"><ele>888.0</ele><time>2026-05-02T11:38:49Z</time></trkpt><trkpt lat="50.724164261585464" lon="15.798020923648545"><ele>888.0</ele><time>2026-05-02T11:38:50Z</time></trkpt><trkpt lat="50.723992146651696" lon="15.797887759245812"><ele>888.0</ele><time>2026-05-02T11:38:51Z</time></trkpt><trkpt lat="50.723823575465154" lon="15.797762171335917"><ele>888.0</ele><time>2026-05-02T11:38:52Z</time></trkpt><trkpt lat="50.72366999897853" lon="15.797663395777862"><ele>887.3333333333333</ele><time>2026-05-02T11:38:53Z</time></trkpt><trkpt lat="50.72351563937893" lon="15.797582558838771"><ele>886.6666666666666</ele><time>2026-05-02T11:38:54Z</time></trkpt><trkpt lat="50.72333842423196" lon="15.797546859839441"><ele>886.0</ele><time>2026-05-02T11:38:55Z</time></trkpt><trkpt lat="50.72315927512092" lon="15.797506627390302"><ele>886.0</ele><time>2026-05-02T11:38:56Z</time></trkpt><trkpt lat="50.72296533498746" lon="15.797495479150264"><ele>886.0</ele><time>2026-05-02T11:38:57Z</time></trkpt><trkpt lat="50.72275908544473" lon="15.79747109145739"><ele>886.0</ele><time>2026-05-02T11:38:58Z</time></trkpt><trkpt lat="50.722555727174644" lon="15.797448458948933"><ele>883.0</ele><time>2026-05-02T11:38:59Z</time></trkpt><trkpt lat="50.72236594865671" lon="15.797423984284551"><ele>880.0</ele><time>2026-05-02T11:39:00Z</time></trkpt><trkpt lat="50.72218088980142" lon="15.797402630583617"><ele>877.0</ele><time>2026-05-02T11:39:01Z</time></trkpt><trkpt lat="50.72199288204736" lon="15.797362129735571"><ele>875.0</ele><time>2026-05-02T11:39:02Z</time></trkpt><trkpt lat="50.72180071715796" lon="15.79728884543099"><ele>873.0</ele><time>2026-05-02T11:39:03Z</time></trkpt><trkpt lat="50.72160299675361" lon="15.797189367663027"><ele>871.0</ele><time>2026-05-02T11:39:04Z</time></trkpt><trkpt lat="50.721408754129214" lon="15.797073517400518"><ele>871.0</ele><time>2026-05-02T11:39:05Z</time></trkpt><trkpt lat="50.72122059543609" lon="15.79697317001704"><ele>871.0</ele><time>2026-05-02T11:39:06Z</time></trkpt><trkpt lat="50.72103633006558" lon="15.796888985742678"><ele>871.0</ele><time>2026-05-02T11:39:07Z</time></trkpt><trkpt lat="50.720859388257885" lon="15.796820122294843"><ele>872.3333333333333</ele><time>2026-05-02T11:39:08Z</time></trkpt><trkpt lat="50.72068888065975" lon="15.796773045109855"><ele>873.6666666666667</ele><time>2026-05-02T11:39:09Z</time></trkpt><trkpt lat="50.7205241770987" lon="15.796737005607014"><ele>875.0</ele><time>2026-05-02T11:39:10Z</time></trkpt><trkpt lat="50.720355352940416" lon="15.796713080362483"><ele>872.6666666666667</ele><time>2026-05-02T11:39:11Z</time></trkpt><trkpt lat="50.720195004622084" lon="15.796701309953676"><ele>870.3333333333333</ele><time>2026-05-02T11:39:12Z</time></trkpt><trkpt lat="50.7200197588772" lon="15.796695113613701"><ele>868.0</ele><time>2026-05-02T11:39:13Z</time></trkpt><trkpt lat="50.71984607046064" lon="15.796713477099425"><ele>868.0</ele><time>2026-05-02T11:39:14Z</time></trkpt><trkpt lat="50.71967336306125" lon="15.796740576247762"><ele>868.0</ele><time>2026-05-02T11:39:15Z</time></trkpt><trkpt lat="50.71950879161028" lon="15.796789968709055"><ele>868.0</ele><time>2026-05-02T11:39:16Z</time></trkpt><trkpt lat="50.71935079127215" lon="15.796857504712776"><ele>870.3333333333333</ele><time>2026-05-02T11:39:17Z</time></trkpt><trkpt lat="50.719161437908156" lon="15.79695323156167"><ele>872.6666666666667</ele><time>2026-05-02T11:39:18Z</time></trkpt><trkpt lat="50.71896651065705" lon="15.797076290734427"><ele>875.0</ele><time>2026-05-02T11:39:19Z</time></trkpt><trkpt lat="50.71879137318059" lon="15.797205924944404"><ele>875.0</ele><time>2026-05-02T11:39:20Z</time></trkpt><trkpt lat="50.71863162770374" lon="15.797322548297482"><ele>875.0</ele><time>2026-05-02T11:39:21Z</time></trkpt><trkpt lat="50.7184635488333" lon="15.797409009288716"><ele>875.0</ele><time>2026-05-02T11:39:22Z</time></trkpt><trkpt lat="50.71830341529024" lon="15.797493642365346"><ele>871.0</ele><time>2026-05-02T11:39:23Z</time></trkpt><trkpt lat="50.71814512342868" lon="15.79755349843359"><ele>867.0</ele><time>2026-05-02T11:39:24Z</time></trkpt><trkpt lat="50.717986808705874" lon="15.79760117331442"><ele>863.0</ele><time>2026-05-02T11:39:25Z</time></trkpt><trkpt lat="50.7178430484579" lon="15.797643866677644"><ele>861.75</ele><time>2026-05-02T11:39:26Z</time></trkpt><trkpt lat="50.71769871390139" lon="15.797721163197707"><ele>860.5</ele><time>2026-05-02T11:39:27Z</time></trkpt><trkpt lat="50.71756305626456" lon="15.797797931695195"><ele>859.25</ele><time>2026-05-02T11:39:28Z</time></trkpt><trkpt lat="50.71744815804414" lon="15.797914117117937"><ele>858.0</ele><time>2026-05-02T11:39:29Z</time></trkpt><trkpt lat="50.71734920440916" lon="15.79806524645585"><ele>858.0</ele><time>2026-05-02T11:39:30Z</time></trkpt><trkpt lat="50.71725425047226" lon="15.798269200993904"><ele>858.0</ele><time>2026-05-02T11:39:31Z</time></trkpt><trkpt lat="50.71717318950831" lon="15.798502747608623"><ele>858.0</ele><time>2026-05-02T11:39:32Z</time></trkpt><trkpt lat="50.71709092034998" lon="15.798754751028588"><ele>859.6666666666667</ele><time>2026-05-02T11:39:33Z</time></trkpt><trkpt lat="50.71699551889618" lon="15.798998032744027"><ele>861.3333333333334</ele><time>2026-05-02T11:39:34Z</time></trkpt><trkpt lat="50.71690663145826" lon="15.799221924211219"><ele>863.0</ele><time>2026-05-02T11:39:35Z</time></trkpt><trkpt lat="50.71679916654527" lon="15.79942542359367"><ele>863.0</ele><time>2026-05-02T11:39:36Z</time></trkpt><trkpt lat="50.71667441186749" lon="15.7996157628515"><ele>863.0</ele><time>2026-05-02T11:39:37Z</time></trkpt><trkpt lat="50.716527605987736" lon="15.799764543086878"><ele>863.0</ele><time>2026-05-02T11:39:38Z</time></trkpt><trkpt lat="50.71635428244764" lon="15.799897327900586"><ele>863.0</ele><time>2026-05-02T11:39:39Z</time></trkpt><trkpt lat="50.71616893117942" lon="15.80000809977617"><ele>863.0</ele><time>2026-05-02T11:39:40Z</time></trkpt><trkpt lat="50.715984221401435" lon="15.800121672178323"><ele>863.0</ele><time>2026-05-02T11:39:41Z</time></trkpt><trkpt lat="50.715791711324655" lon="15.800151398193155"><ele>867.0</ele><time>2026-05-02T11:39:42Z</time></trkpt><trkpt lat="50.71559673963707" lon="15.80018655269333"><ele>871.0</ele><time>2026-05-02T11:39:43Z</time></trkpt><trkpt lat="50.715398046057636" lon="15.800223784824842"><ele>875.0</ele><time>2026-05-02T11:39:44Z</time></trkpt><trkpt lat="50.71519750392779" lon="15.800199951897469"><ele>863.6666666666667</ele><time>2026-05-02T11:39:45Z</time></trkpt><trkpt lat="50.714999778071096" lon="15.800155837754868"><ele>852.3333333333333</ele><time>2026-05-02T11:39:46Z</time></trkpt><trkpt lat="50.71479458184715" lon="15.800091111282354"><ele>841.0</ele><time>2026-05-02T11:39:47Z</time></trkpt><trkpt lat="50.71458394465701" lon="15.800023935653238"><ele>839.6666666666666</ele><time>2026-05-02T11:39:48Z</time></trkpt><trkpt lat="50.714374243390424" lon="15.799959856611547"><ele>838.3333333333333</ele><time>2026-05-02T11:39:49Z</time></trkpt><trkpt lat="50.71417190751015" lon="15.799909144810028"><ele>837.0</ele><time>2026-05-02T11:39:50Z</time></trkpt><trkpt lat="50.71397808808197" lon="15.799892434340132"><ele>837.0</ele><time>2026-05-02T11:39:51Z</time></trkpt><trkpt lat="50.71377962176285" lon="15.799918070875096"><ele>837.0</ele><time>2026-05-02T11:39:52Z</time></trkpt><trkpt lat="50.71358201027948" lon="15.79999394941851"><ele>837.0</ele><time>2026-05-02T11:39:53Z</time></trkpt><trkpt lat="50.71338833235112" lon="15.800103021191285"><ele>842.3333333333333</ele><time>2026-05-02T11:39:54Z</time></trkpt><trkpt lat="50.713193590512546" lon="15.800215837182156"><ele>847.6666666666666</ele><time>2026-05-02T11:39:55Z</time></trkpt><trkpt lat="50.71302213110005" lon="15.800309441379126"><ele>853.0</ele><time>2026-05-02T11:39:56Z</time></trkpt><trkpt lat="50.71284852383514" lon="15.800393962167274"><ele>849.0</ele><time>2026-05-02T11:39:57Z</time></trkpt><trkpt lat="50.71268142752698" lon="15.80047855689212"><ele>845.0</ele><time>2026-05-02T11:39:58Z</time></trkpt><trkpt lat="50.712525348294726" lon="15.800547598750644"><ele>841.0</ele><time>2026-05-02T11:39:59Z</time></trkpt><trkpt lat="50.71236200812855" lon="15.800522796514924"><ele>841.0</ele><time>2026-05-02T11:40:00Z</time></trkpt><trkpt lat="50.712199016035356" lon="15.800454640764453"><ele>841.0</ele><time>2026-05-02T11:40:01Z</time></trkpt><trkpt lat="50.71201470100708" lon="15.800347567487997"><ele>841.0</ele><time>2026-05-02T11:40:02Z</time></trkpt><trkpt lat="50.71182340298053" lon="15.80025559516314"><ele>835.3333333333333</ele><time>2026-05-02T11:40:03Z</time></trkpt><trkpt lat="50.71163323217261" lon="15.800153448878506"><ele>829.6666666666667</ele><time>2026-05-02T11:40:04Z</time></trkpt><trkpt lat="50.71141472579041" lon="15.80007204972076"><ele>824.0</ele><time>2026-05-02T11:40:05Z</time></trkpt><trkpt lat="50.711159200569476" lon="15.800016254842994"><ele>820.5</ele><time>2026-05-02T11:40:06Z</time></trkpt><trkpt lat="50.71088530890668" lon="15.79995458549629"><ele>817.0</ele><time>2026-05-02T11:40:07Z</time></trkpt><trkpt lat="50.71064082076856" lon="15.79991226385984"><ele>817.0</ele><time>2026-05-02T11:40:08Z</time></trkpt><trkpt lat="50.71042531927648" lon="15.799846424524535"><ele>817.0</ele><time>2026-05-02T11:40:09Z</time></trkpt><trkpt lat="50.71022745741032" lon="15.799754006183191"><ele>817.0</ele><time>2026-05-02T11:40:10Z</time></trkpt><trkpt lat="50.71003249712896" lon="15.799720331301508"><ele>815.0</ele><time>2026-05-02T11:40:11Z</time></trkpt><trkpt lat="50.709851850135905" lon="15.799690024504903"><ele>813.0</ele><time>2026-05-02T11:40:12Z</time></trkpt><trkpt lat="50.70967162742318" lon="15.799738672609013"><ele>811.0</ele><time>2026-05-02T11:40:13Z</time></trkpt><trkpt lat="50.709495267947666" lon="15.799849834056467"><ele>808.6666666666666</ele><time>2026-05-02T11:40:14Z</time></trkpt><trkpt lat="50.70932520242318" lon="15.800052458154244"><ele>806.3333333333333</ele><time>2026-05-02T11:40:15Z</time></trkpt><trkpt lat="50.70915669512864" lon="15.800290530936064"><ele>804.0</ele><time>2026-05-02T11:40:16Z</time></trkpt><trkpt lat="50.70900909506586" lon="15.800569017916555"><ele>804.0</ele><time>2026-05-02T11:40:17Z</time></trkpt><trkpt lat="50.70888829140639" lon="15.800840478809885"><ele>804.0</ele><time>2026-05-02T11:40:18Z</time></trkpt><trkpt lat="50.70878329760201" lon="15.801113109499397"><ele>804.0</ele><time>2026-05-02T11:40:19Z</time></trkpt><trkpt lat="50.70868712082164" lon="15.801392641751967"><ele>802.3333333333333</ele><time>2026-05-02T11:40:20Z</time></trkpt><trkpt lat="50.708575885898775" lon="15.801696902166954"><ele>800.6666666666666</ele><time>2026-05-02T11:40:21Z</time></trkpt><trkpt lat="50.7084639460754" lon="15.801999251079723"><ele>799.0</ele><time>2026-05-02T11:40:22Z</time></trkpt><trkpt lat="50.70834608744549" lon="15.802303594898914"><ele>798.0</ele><time>2026-05-02T11:40:23Z</time></trkpt><trkpt lat="50.708237234619574" lon="15.802581793766219"><ele>797.0</ele><time>2026-05-02T11:40:24Z</time></trkpt><trkpt lat="50.70814574403582" lon="15.80284531988488"><ele>796.0</ele><time>2026-05-02T11:40:25Z</time></trkpt><trkpt lat="50.70805505546595" lon="15.803085912468605"><ele>798.6666666666666</ele><time>2026-05-02T11:40:26Z</time></trkpt><trkpt lat="50.7079698273855" lon="15.803313724075371"><ele>801.3333333333333</ele><time>2026-05-02T11:40:27Z</time></trkpt><trkpt lat="50.707886983210045" lon="15.803530717908059"><ele>804.0</ele><time>2026-05-02T11:40:28Z</time></trkpt><trkpt lat="50.70781320205542" lon="15.803731187026422"><ele>799.0</ele><time>2026-05-02T11:40:29Z</time></trkpt><trkpt lat="50.707738750071506" lon="15.803914759371764"><ele>794.0</ele><time>2026-05-02T11:40:30Z</time></trkpt><trkpt lat="50.707663043762274" lon="15.804086002539579"><ele>789.0</ele><time>2026-05-02T11:40:31Z</time></trkpt><trkpt lat="50.70758838302545" lon="15.804237921046543"><ele>784.0</ele><time>2026-05-02T11:40:32Z</time></trkpt><trkpt lat="50.707510602721385" lon="15.804378989842819"><ele>784.0</ele><time>2026-05-02T11:40:33Z</time></trkpt><trkpt lat="50.70743612699233" lon="15.804509669081865"><ele>784.0</ele><time>2026-05-02T11:40:34Z</time></trkpt><trkpt lat="50.70735365801765" lon="15.804639091505239"><ele>784.0</ele><time>2026-05-02T11:40:35Z</time></trkpt><trkpt lat="50.70726860782213" lon="15.804769124215758"><ele>784.0</ele><time>2026-05-02T11:40:36Z</time></trkpt><trkpt lat="50.70717947231202" lon="15.804890909776333"><ele>784.0</ele><time>2026-05-02T11:40:37Z</time></trkpt><trkpt lat="50.70709749675495" lon="15.805010512663417"><ele>784.0</ele><time>2026-05-02T11:40:38Z</time></trkpt><trkpt lat="50.70702217793513" lon="15.805122333572818"><ele>784.0</ele><time>2026-05-02T11:40:39Z</time></trkpt><trkpt lat="50.70694975800071" lon="15.805228915483612"><ele>784.0</ele><time>2026-05-02T11:40:40Z</time></trkpt><trkpt lat="50.706872223735985" lon="15.805336224719259"><ele>784.0</ele><time>2026-05-02T11:40:41Z</time></trkpt><trkpt lat="50.70679357432284" lon="15.805451561329958"><ele>781.75</ele><time>2026-05-02T11:40:42Z</time></trkpt><trkpt lat="50.706708879429065" lon="15.805563869110332"><ele>779.5</ele><time>2026-05-02T11:40:43Z</time></trkpt><trkpt lat="50.706620722888744" lon="15.805695024173357"><ele>777.25</ele><time>2026-05-02T11:40:44Z</time></trkpt><trkpt lat="50.706524101981884" lon="15.805835515682842"><ele>775.0</ele><time>2026-05-02T11:40:45Z</time></trkpt><trkpt lat="50.70642555747896" lon="15.805983212111707"><ele>775.5</ele><time>2026-05-02T11:40:46Z</time></trkpt><trkpt lat="50.70631855627156" lon="15.806139634576214"><ele>776.0</ele><time>2026-05-02T11:40:47Z</time></trkpt><trkpt lat="50.70620978164271" lon="15.806294939243687"><ele>776.5</ele><time>2026-05-02T11:40:48Z</time></trkpt><trkpt lat="50.70610536654061" lon="15.806453209274105"><ele>777.0</ele><time>2026-05-02T11:40:49Z</time></trkpt><trkpt lat="50.70599386946601" lon="15.806611647884239"><ele>777.3333333333333</ele><time>2026-05-02T11:40:50Z</time></trkpt><trkpt lat="50.705857517187" lon="15.806767034999513"><ele>777.6666666666666</ele><time>2026-05-02T11:40:51Z</time></trkpt><trkpt lat="50.70569432721283" lon="15.806899575474178"><ele>778.0</ele><time>2026-05-02T11:40:52Z</time></trkpt><trkpt lat="50.705528179009825" lon="15.807004932865304"><ele>785.3333333333333</ele><time>2026-05-02T11:40:53Z</time></trkpt><trkpt lat="50.70534921602837" lon="15.807090489169228"><ele>792.6666666666667</ele><time>2026-05-02T11:40:54Z</time></trkpt><trkpt lat="50.70515837259176" lon="15.80712887251921"><ele>800.0</ele><time>2026-05-02T11:40:55Z</time></trkpt><trkpt lat="50.70496934535343" lon="15.80713143642673"><ele>801.3333333333334</ele><time>2026-05-02T11:40:56Z</time></trkpt><trkpt lat="50.704783563472496" lon="15.807117280521092"><ele>802.6666666666667</ele><time>2026-05-02T11:40:57Z</time></trkpt><trkpt lat="50.704616203703324" lon="15.807080040115858"><ele>804.0</ele><time>2026-05-02T11:40:58Z</time></trkpt><trkpt lat="50.70446148745919" lon="15.807030833870185"><ele>806.3333333333333</ele><time>2026-05-02T11:40:59Z</time></trkpt><trkpt lat="50.704315146275164" lon="15.806913026844038"><ele>808.6666666666666</ele><time>2026-05-02T11:41:00Z</time></trkpt><trkpt lat="50.70416879253738" lon="15.806761759017734"><ele>811.0</ele><time>2026-05-02T11:41:01Z</time></trkpt><trkpt lat="50.704004297374325" lon="15.806600516994644"><ele>810.3333333333333</ele><time>2026-05-02T11:41:02Z</time></trkpt><trkpt lat="50.703861369700256" lon="15.80640966009517"><ele>809.6666666666667</ele><time>2026-05-02T11:41:03Z</time></trkpt><trkpt lat="50.70371701437212" lon="15.806225314881999"><ele>809.0</ele><time>2026-05-02T11:41:04Z</time></trkpt><trkpt lat="50.70356504233684" lon="15.806048759004144"><ele>804.3333333333334</ele><time>2026-05-02T11:41:05Z</time></trkpt><trkpt lat="50.70340745181668" lon="15.805855752179955"><ele>799.6666666666667</ele><time>2026-05-02T11:41:06Z</time></trkpt><trkpt lat="50.70325499196633" lon="15.805676731955359"><ele>795.0</ele><time>2026-05-02T11:41:07Z</time></trkpt><trkpt lat="50.70310304034116" lon="15.805528012149997"><ele>795.0</ele><time>2026-05-02T11:41:08Z</time></trkpt><trkpt lat="50.70294976862514" lon="15.805403990202318"><ele>795.0</ele><time>2026-05-02T11:41:09Z</time></trkpt><trkpt lat="50.70279011109472" lon="15.805296773211944"><ele>795.0</ele><time>2026-05-02T11:41:10Z</time></trkpt><trkpt lat="50.70261745971741" lon="15.805190518218115"><ele>793.3333333333333</ele><time>2026-05-02T11:41:11Z</time></trkpt><trkpt lat="50.702450879440995" lon="15.805108336028331"><ele>791.6666666666666</ele><time>2026-05-02T11:41:12Z</time></trkpt><trkpt lat="50.70227158309118" lon="15.805018440023568"><ele>790.0</ele><time>2026-05-02T11:41:13Z</time></trkpt><trkpt lat="50.7020907539552" lon="15.804967363374672"><ele>790.0</ele><time>2026-05-02T11:41:14Z</time></trkpt><trkpt lat="50.701920449884575" lon="15.804896157331633"><ele>790.0</ele><time>2026-05-02T11:41:15Z</time></trkpt><trkpt lat="50.70173461113042" lon="15.804866121848619"><ele>790.0</ele><time>2026-05-02T11:41:16Z</time></trkpt><trkpt lat="50.70154360571091" lon="15.804783447156858"><ele>792.3333333333333</ele><time>2026-05-02T11:41:17Z</time></trkpt><trkpt lat="50.70135859512924" lon="15.804726190298757"><ele>794.6666666666667</ele><time>2026-05-02T11:41:18Z</time></trkpt><trkpt lat="50.70116123628163" lon="15.804662296376598"><ele>797.0</ele><time>2026-05-02T11:41:19Z</time></trkpt><trkpt lat="50.70095232817925" lon="15.804585296509675"><ele>799.5</ele><time>2026-05-02T11:41:20Z</time></trkpt><trkpt lat="50.7007316420212" lon="15.80449304693907"><ele>802.0</ele><time>2026-05-02T11:41:21Z</time></trkpt><trkpt lat="50.70051359357937" lon="15.804395839075962"><ele>796.6666666666666</ele><time>2026-05-02T11:41:22Z</time></trkpt><trkpt lat="50.70031516306432" lon="15.804303069638648"><ele>791.3333333333333</ele><time>2026-05-02T11:41:23Z</time></trkpt><trkpt lat="50.70012116221478" lon="15.804204346240203"><ele>786.0</ele><time>2026-05-02T11:41:24Z</time></trkpt><trkpt lat="50.699921982144424" lon="15.804092653402986"><ele>786.0</ele><time>2026-05-02T11:41:25Z</time></trkpt><trkpt lat="50.699730311538644" lon="15.803974981429983"><ele>786.0</ele><time>2026-05-02T11:41:26Z</time></trkpt><trkpt lat="50.699548044017064" lon="15.803844882309484"><ele>786.0</ele><time>2026-05-02T11:41:27Z</time></trkpt><trkpt lat="50.699358243065326" lon="15.803697035892677"><ele>782.6666666666667</ele><time>2026-05-02T11:41:28Z</time></trkpt><trkpt lat="50.699169685238616" lon="15.803561569890801"><ele>779.3333333333334</ele><time>2026-05-02T11:41:29Z</time></trkpt><trkpt lat="50.698975662402056" lon="15.80340198361205"><ele>776.0</ele><time>2026-05-02T11:41:30Z</time></trkpt><trkpt lat="50.69879385106926" lon="15.803216162828987"><ele>776.0</ele><time>2026-05-02T11:41:31Z</time></trkpt><trkpt lat="50.69860139185425" lon="15.803055885386813"><ele>776.0</ele><time>2026-05-02T11:41:32Z</time></trkpt><trkpt lat="50.698419500016115" lon="15.8029523030535"><ele>776.0</ele><time>2026-05-02T11:41:33Z</time></trkpt><trkpt lat="50.69823254633642" lon="15.802831547601766"><ele>774.0</ele><time>2026-05-02T11:41:34Z</time></trkpt><trkpt lat="50.698020460642056" lon="15.80273060790713"><ele>772.0</ele><time>2026-05-02T11:41:35Z</time></trkpt><trkpt lat="50.69779990251016" lon="15.802651828969593"><ele>770.0</ele><time>2026-05-02T11:41:36Z</time></trkpt><trkpt lat="50.6975780187814" lon="15.802559073986023"><ele>770.0</ele><time>2026-05-02T11:41:37Z</time></trkpt><trkpt lat="50.69737086700104" lon="15.802468160786288"><ele>770.0</ele><time>2026-05-02T11:41:38Z</time></trkpt><trkpt lat="50.69717392271418" lon="15.802381346532702"><ele>770.0</ele><time>2026-05-02T11:41:39Z</time></trkpt><trkpt lat="50.696991595821345" lon="15.802289375453165"><ele>773.0</ele><time>2026-05-02T11:41:40Z</time></trkpt><trkpt lat="50.69680580825313" lon="15.802146800049396"><ele>776.0</ele><time>2026-05-02T11:41:41Z</time></trkpt><trkpt lat="50.69660046583214" lon="15.802038563348836"><ele>779.0</ele><time>2026-05-02T11:41:42Z</time></trkpt><trkpt lat="50.6963865475805" lon="15.801904513538211"><ele>775.0</ele><time>2026-05-02T11:41:43Z</time></trkpt><trkpt lat="50.69616860318199" lon="15.801786784476445"><ele>771.0</ele><time>2026-05-02T11:41:44Z</time></trkpt><trkpt lat="50.695965390643174" lon="15.80170835735489"><ele>767.0</ele><time>2026-05-02T11:41:45Z</time></trkpt><trkpt lat="50.69576862546392" lon="15.801641380503058"><ele>767.0</ele><time>2026-05-02T11:41:46Z</time></trkpt><trkpt lat="50.69558433959868" lon="15.801548288055239"><ele>767.0</ele><time>2026-05-02T11:41:47Z</time></trkpt><trkpt lat="50.695398442044485" lon="15.801473889026232"><ele>767.0</ele><time>2026-05-02T11:41:48Z</time></trkpt><trkpt lat="50.69520688920975" lon="15.80139691615226"><ele>768.0</ele><time>2026-05-02T11:41:49Z</time></trkpt><trkpt lat="50.69501509479222" lon="15.801318281332913"><ele>769.0</ele><time>2026-05-02T11:41:50Z</time></trkpt><trkpt lat="50.69484012812925" lon="15.801228660062666"><ele>770.0</ele><time>2026-05-02T11:41:51Z</time></trkpt><trkpt lat="50.69467057631738" lon="15.801120446256693"><ele>770.0</ele><time>2026-05-02T11:41:52Z</time></trkpt><trkpt lat="50.6944996365146" lon="15.801029599871681"><ele>770.0</ele><time>2026-05-02T11:41:53Z</time></trkpt><trkpt lat="50.69436028664806" lon="15.800916168318428"><ele>770.0</ele><time>2026-05-02T11:41:54Z</time></trkpt><trkpt lat="50.69425861359519" lon="15.800756690314575"><ele>766.6666666666667</ele><time>2026-05-02T11:41:55Z</time></trkpt><trkpt lat="50.69415779563319" lon="15.80057857414834"><ele>763.3333333333334</ele><time>2026-05-02T11:41:56Z</time></trkpt><trkpt lat="50.694041828779476" lon="15.800385855424793"><ele>760.0</ele><time>2026-05-02T11:41:57Z</time></trkpt><trkpt lat="50.693945506232886" lon="15.800167155111518"><ele>755.75</ele><time>2026-05-02T11:41:58Z</time></trkpt><trkpt lat="50.6938440474717" lon="15.799985943604748"><ele>751.5</ele><time>2026-05-02T11:41:59Z</time></trkpt><trkpt lat="50.6937424927998" lon="15.79984161448349"><ele>747.25</ele><time>2026-05-02T11:42:00Z</time></trkpt><trkpt lat="50.69363700606977" lon="15.799724319903463"><ele>743.0</ele><time>2026-05-02T11:42:01Z</time></trkpt><trkpt lat="50.69351960453517" lon="15.79964426228032"><ele>741.25</ele><time>2026-05-02T11:42:02Z</time></trkpt><trkpt lat="50.6933733661376" lon="15.799613780395035"><ele>739.5</ele><time>2026-05-02T11:42:03Z</time></trkpt><trkpt lat="50.69321884943482" lon="15.799618321929717"><ele>737.75</ele><time>2026-05-02T11:42:04Z</time></trkpt><trkpt lat="50.69308079421107" lon="15.799669656386719"><ele>736.0</ele><time>2026-05-02T11:42:05Z</time></trkpt><trkpt lat="50.69296239675849" lon="15.799764419648007"><ele>736.0</ele><time>2026-05-02T11:42:06Z</time></trkpt><trkpt lat="50.69285568538527" lon="15.799899473951324"><ele>736.0</ele><time>2026-05-02T11:42:07Z</time></trkpt><trkpt lat="50.69276327588523" lon="15.800091036451008"><ele>736.0</ele><time>2026-05-02T11:42:08Z</time></trkpt><trkpt lat="50.692702336979984" lon="15.800308471882902"><ele>736.0</ele><time>2026-05-02T11:42:09Z</time></trkpt><trkpt lat="50.69265985420399" lon="15.80054243362077"><ele>736.3333333333334</ele><time>2026-05-02T11:42:10Z</time></trkpt><trkpt lat="50.69264397541075" lon="15.800767422220149"><ele>736.6666666666666</ele><time>2026-05-02T11:42:11Z</time></trkpt><trkpt lat="50.6926033813253" lon="15.801066027555835"><ele>737.0</ele><time>2026-05-02T11:42:12Z</time></trkpt><trkpt lat="50.69255974626452" lon="15.801412794934013"><ele>737.0</ele><time>2026-05-02T11:42:13Z</time></trkpt><trkpt lat="50.69251653338265" lon="15.801771934281797"><ele>737.0</ele><time>2026-05-02T11:42:14Z</time></trkpt><trkpt lat="50.692492379216844" lon="15.80206427229392"><ele>737.0</ele><time>2026-05-02T11:42:15Z</time></trkpt><trkpt lat="50.6924473363803" lon="15.802339797864384"><ele>735.0</ele><time>2026-05-02T11:42:16Z</time></trkpt><trkpt lat="50.69241497611281" lon="15.80259428423233"><ele>733.0</ele><time>2026-05-02T11:42:17Z</time></trkpt><trkpt lat="50.69238345389064" lon="15.802836351025455"><ele>731.0</ele><time>2026-05-02T11:42:18Z</time></trkpt><trkpt lat="50.69234330826445" lon="15.803053648771037"><ele>730.75</ele><time>2026-05-02T11:42:19Z</time></trkpt><trkpt lat="50.69228516700683" lon="15.80326018651806"><ele>730.5</ele><time>2026-05-02T11:42:20Z</time></trkpt><trkpt lat="50.69221223171596" lon="15.803422409959746"><ele>730.25</ele><time>2026-05-02T11:42:21Z</time></trkpt><trkpt lat="50.69211527442236" lon="15.803537557477597"><ele>730.0</ele><time>2026-05-02T11:42:22Z</time></trkpt><trkpt lat="50.69198476427457" lon="15.803630129424521"><ele>727.6666666666667</ele><time>2026-05-02T11:42:23Z</time></trkpt><trkpt lat="50.69181524173653" lon="15.80370962911177"><ele>725.3333333333334</ele><time>2026-05-02T11:42:24Z</time></trkpt><trkpt lat="50.691635951367815" lon="15.80379422843762"><ele>723.0</ele><time>2026-05-02T11:42:25Z</time></trkpt><trkpt lat="50.69145181873181" lon="15.80390420981182"><ele>723.0</ele><time>2026-05-02T11:42:26Z</time></trkpt><trkpt lat="50.691264996260294" lon="15.803968669920767"><ele>723.0</ele><time>2026-05-02T11:42:27Z</time></trkpt><trkpt lat="50.69111326995337" lon="15.804087188886607"><ele>723.0</ele><time>2026-05-02T11:42:28Z</time></trkpt><trkpt lat="50.690969283818276" lon="15.804197527160449"><ele>725.0</ele><time>2026-05-02T11:42:29Z</time></trkpt><trkpt lat="50.69084036347227" lon="15.804354933263674"><ele>727.0</ele><time>2026-05-02T11:42:30Z</time></trkpt><trkpt lat="50.69071787352548" lon="15.804543769789168"><ele>729.0</ele><time>2026-05-02T11:42:31Z</time></trkpt><trkpt lat="50.69061127529799" lon="15.80473615423535"><ele>729.0</ele><time>2026-05-02T11:42:32Z</time></trkpt><trkpt lat="50.690490504658456" lon="15.80486663059963"><ele>729.0</ele><time>2026-05-02T11:42:33Z</time></trkpt><trkpt lat="50.69035016101516" lon="15.80499047256658"><ele>729.0</ele><time>2026-05-02T11:42:34Z</time></trkpt><trkpt lat="50.69019676662635" lon="15.805121516523423"><ele>730.0</ele><time>2026-05-02T11:42:35Z</time></trkpt><trkpt lat="50.690024341091714" lon="15.805209839461732"><ele>731.0</ele><time>2026-05-02T11:42:36Z</time></trkpt><trkpt lat="50.68984856638468" lon="15.805324011040163"><ele>732.0</ele><time>2026-05-02T11:42:37Z</time></trkpt><trkpt lat="50.68968110067888" lon="15.80543454629004"><ele>732.0</ele><time>2026-05-02T11:42:38Z</time></trkpt><trkpt lat="50.689530621806085" lon="15.8055251074244"><ele>732.0</ele><time>2026-05-02T11:42:39Z</time></trkpt><trkpt lat="50.689394155948875" lon="15.805617736006866"><ele>732.0</ele><time>2026-05-02T11:42:40Z</time></trkpt><trkpt lat="50.68926603033673" lon="15.805707809780433"><ele>729.75</ele><time>2026-05-02T11:42:41Z</time></trkpt><trkpt lat="50.68913089506117" lon="15.80576240882247"><ele>727.5</ele><time>2026-05-02T11:42:42Z</time></trkpt><trkpt lat="50.68900935844174" lon="15.805846921933677"><ele>725.25</ele><time>2026-05-02T11:42:43Z</time></trkpt><trkpt lat="50.68886012713289" lon="15.805860687725119"><ele>723.0</ele><time>2026-05-02T11:42:44Z</time></trkpt><trkpt lat="50.688714377799066" lon="15.805879033988633"><ele>721.0</ele><time>2026-05-02T11:42:45Z</time></trkpt><trkpt lat="50.6885665792951" lon="15.805834106340429"><ele>719.0</ele><time>2026-05-02T11:42:46Z</time></trkpt><trkpt lat="50.68842256494374" lon="15.805709986120622"><ele>717.0</ele><time>2026-05-02T11:42:47Z</time></trkpt><trkpt lat="50.688263642164486" lon="15.805573923135839"><ele>717.0</ele><time>2026-05-02T11:42:48Z</time></trkpt><trkpt lat="50.688101113570625" lon="15.805366722041803"><ele>717.0</ele><time>2026-05-02T11:42:49Z</time></trkpt><trkpt lat="50.68793378321117" lon="15.8051101840057"><ele>717.0</ele><time>2026-05-02T11:42:50Z</time></trkpt><trkpt lat="50.68777277308893" lon="15.804919641432289"><ele>715.3333333333334</ele><time>2026-05-02T11:42:51Z</time></trkpt><trkpt lat="50.68763261963418" lon="15.804707695558875"><ele>713.6666666666667</ele><time>2026-05-02T11:42:52Z</time></trkpt><trkpt lat="50.687469230929906" lon="15.804508394962642"><ele>712.0</ele><time>2026-05-02T11:42:53Z</time></trkpt><trkpt lat="50.68728913065006" lon="15.80434955615636"><ele>710.3333333333334</ele><time>2026-05-02T11:42:54Z</time></trkpt><trkpt lat="50.687111801997716" lon="15.80420628268438"><ele>708.6666666666666</ele><time>2026-05-02T11:42:55Z</time></trkpt><trkpt lat="50.68694287371474" lon="15.804097353410032"><ele>707.0</ele><time>2026-05-02T11:42:56Z</time></trkpt><trkpt lat="50.686782665800074" lon="15.80401300322626"><ele>707.0</ele><time>2026-05-02T11:42:57Z</time></trkpt><trkpt lat="50.68662481698886" lon="15.803935951990548"><ele>707.0</ele><time>2026-05-02T11:42:58Z</time></trkpt><trkpt lat="50.68646765365261" lon="15.803871101304507"><ele>707.0</ele><time>2026-05-02T11:42:59Z</time></trkpt><trkpt lat="50.68630999036045" lon="15.803845806522814"><ele>707.0</ele><time>2026-05-02T11:43:00Z</time></trkpt><trkpt lat="50.68616308450638" lon="15.803868354469106"><ele>707.0</ele><time>2026-05-02T11:43:01Z</time></trkpt><trkpt lat="50.68602424414748" lon="15.80392993766511"><ele>707.0</ele><time>2026-05-02T11:43:02Z</time></trkpt><trkpt lat="50.685895982683874" lon="15.804020302136482"><ele>707.0</ele><time>2026-05-02T11:43:03Z</time></trkpt><trkpt lat="50.68577470529076" lon="15.804156370783371"><ele>704.6666666666666</ele><time>2026-05-02T11:43:04Z</time></trkpt><trkpt lat="50.68565658063031" lon="15.804338172929633"><ele>702.3333333333334</ele><time>2026-05-02T11:43:05Z</time></trkpt><trkpt lat="50.68554433430067" lon="15.804568983193246"><ele>700.0</ele><time>2026-05-02T11:43:06Z</time></trkpt><trkpt lat="50.685439300681935" lon="15.804826022143978"><ele>700.0</ele><time>2026-05-02T11:43:07Z</time></trkpt><trkpt lat="50.68534877281351" lon="15.805079603744222"><ele>700.0</ele><time>2026-05-02T11:43:08Z</time></trkpt><trkpt lat="50.685267454101044" lon="15.805325545501777"><ele>700.0</ele><time>2026-05-02T11:43:09Z</time></trkpt><trkpt lat="50.68518507875264" lon="15.80557023900097"><ele>701.3333333333334</ele><time>2026-05-02T11:43:10Z</time></trkpt><trkpt lat="50.68510180973331" lon="15.805792518783784"><ele>702.6666666666666</ele><time>2026-05-02T11:43:11Z</time></trkpt><trkpt lat="50.68500894268705" lon="15.805986317967289"><ele>704.0</ele><time>2026-05-02T11:43:12Z</time></trkpt><trkpt lat="50.68490782602152" lon="15.80615825498061"><ele>707.0</ele><time>2026-05-02T11:43:13Z</time></trkpt><trkpt lat="50.68479611143609" lon="15.80631686170399"><ele>710.0</ele><time>2026-05-02T11:43:14Z</time></trkpt><trkpt lat="50.68466466559942" lon="15.806468902522065"><ele>713.0</ele><time>2026-05-02T11:43:15Z</time></trkpt><trkpt lat="50.68451746961488" lon="15.806601667813409"><ele>711.0</ele><time>2026-05-02T11:43:16Z</time></trkpt><trkpt lat="50.68435941247815" lon="15.806712647122287"><ele>709.0</ele><time>2026-05-02T11:43:17Z</time></trkpt><trkpt lat="50.68419041157773" lon="15.80679904417074"><ele>707.0</ele><time>2026-05-02T11:43:18Z</time></trkpt><trkpt lat="50.68401433676381" lon="15.806848935189453"><ele>707.0</ele><time>2026-05-02T11:43:19Z</time></trkpt><trkpt lat="50.68385198272951" lon="15.806858967445002"><ele>707.0</ele><time>2026-05-02T11:43:20Z</time></trkpt><trkpt lat="50.683708306860844" lon="15.806804510642234"><ele>707.0</ele><time>2026-05-02T11:43:21Z</time></trkpt><trkpt lat="50.68356285574223" lon="15.806739619894028"><ele>706.0</ele><time>2026-05-02T11:43:22Z</time></trkpt><trkpt lat="50.683409440642905" lon="15.806627632753283"><ele>705.0</ele><time>2026-05-02T11:43:23Z</time></trkpt><trkpt lat="50.683268394736444" lon="15.806457885079615"><ele>704.0</ele><time>2026-05-02T11:43:24Z</time></trkpt><trkpt lat="50.683115717681105" lon="15.806250596409004"><ele>704.0</ele><time>2026-05-02T11:43:25Z</time></trkpt><trkpt lat="50.68295441645406" lon="15.806027795525289"><ele>704.0</ele><time>2026-05-02T11:43:26Z</time></trkpt><trkpt lat="50.68278168504396" lon="15.805781008809959"><ele>704.0</ele><time>2026-05-02T11:43:27Z</time></trkpt><trkpt lat="50.68259451540762" lon="15.805551313792703"><ele>700.0</ele><time>2026-05-02T11:43:28Z</time></trkpt><trkpt lat="50.682406162733045" lon="15.805366711247679"><ele>696.0</ele><time>2026-05-02T11:43:29Z</time></trkpt><trkpt lat="50.68218919074211" lon="15.805186091267101"><ele>695.3333333333334</ele><time>2026-05-02T11:43:30Z</time></trkpt><trkpt lat="50.68197456948084" lon="15.80504416923283"><ele>694.6666666666667</ele><time>2026-05-02T11:43:31Z</time></trkpt><trkpt lat="50.681775136794364" lon="15.80492336027965"><ele>694.0</ele><time>2026-05-02T11:43:32Z</time></trkpt><trkpt lat="50.681565511695105" lon="15.80482274374655"><ele>694.0</ele><time>2026-05-02T11:43:33Z</time></trkpt><trkpt lat="50.68134578918957" lon="15.804742547900947"><ele>694.0</ele><time>2026-05-02T11:43:34Z</time></trkpt><trkpt lat="50.681120886878816" lon="15.804643841224431"><ele>693.3333333333334</ele><time>2026-05-02T11:43:35Z</time></trkpt><trkpt lat="50.68091652689532" lon="15.804571431966501"><ele>692.6666666666666</ele><time>2026-05-02T11:43:36Z</time></trkpt><trkpt lat="50.680704127509806" lon="15.804719332836436"><ele>692.0</ele><time>2026-05-02T11:43:37Z</time></trkpt><trkpt lat="50.68052259014168" lon="15.804772919890846"><ele>692.0</ele><time>2026-05-02T11:43:38Z</time></trkpt><trkpt lat="50.68035878595484" lon="15.804843838561345"><ele>692.0</ele><time>2026-05-02T11:43:39Z</time></trkpt><trkpt lat="50.680199103256896" lon="15.804900398887973"><ele>692.0</ele><time>2026-05-02T11:43:40Z</time></trkpt><trkpt lat="50.68003724657563" lon="15.804920042250226"><ele>691.0</ele><time>2026-05-02T11:43:41Z</time></trkpt><trkpt lat="50.679878761766396" lon="15.80487724856205"><ele>690.0</ele><time>2026-05-02T11:43:42Z</time></trkpt><trkpt lat="50.67969241255343" lon="15.804787910725256"><ele>689.0</ele><time>2026-05-02T11:43:43Z</time></trkpt><trkpt lat="50.67947293947794" lon="15.80466142227866"><ele>687.0</ele><time>2026-05-02T11:43:44Z</time></trkpt><trkpt lat="50.67924000904916" lon="15.804549046381002"><ele>685.0</ele><time>2026-05-02T11:43:45Z</time></trkpt><trkpt lat="50.67900909356227" lon="15.804447949925184"><ele>685.0</ele><time>2026-05-02T11:43:46Z</time></trkpt><trkpt lat="50.678777474500514" lon="15.804342662006993"><ele>685.0</ele><time>2026-05-02T11:43:47Z</time></trkpt><trkpt lat="50.67854224989249" lon="15.804233525729437"><ele>688.0</ele><time>2026-05-02T11:43:48Z</time></trkpt><trkpt lat="50.678313403291774" lon="15.804128972274325"><ele>691.0</ele><time>2026-05-02T11:43:49Z</time></trkpt><trkpt lat="50.67810582929461" lon="15.804033570204643"><ele>691.0</ele><time>2026-05-02T11:43:50Z</time></trkpt><trkpt lat="50.67790419321524" lon="15.803936202510023"><ele>691.0</ele><time>2026-05-02T11:43:51Z</time></trkpt><trkpt lat="50.677704391332476" lon="15.803834186918868"><ele>691.0</ele><time>2026-05-02T11:43:52Z</time></trkpt><trkpt lat="50.6775071645076" lon="15.80374342262871"><ele>688.6666666666667</ele><time>2026-05-02T11:43:53Z</time></trkpt><trkpt lat="50.67732065040821" lon="15.80366036593844"><ele>686.3333333333334</ele><time>2026-05-02T11:43:54Z</time></trkpt><trkpt lat="50.67714988903882" lon="15.803579842238255"><ele>684.0</ele><time>2026-05-02T11:43:55Z</time></trkpt><trkpt lat="50.6769991889697" lon="15.803489261693834"><ele>684.0</ele><time>2026-05-02T11:43:56Z</time></trkpt><trkpt lat="50.67685744050625" lon="15.803368197805982"><ele>684.0</ele><time>2026-05-02T11:43:57Z</time></trkpt><trkpt lat="50.67671457775634" lon="15.803204334467923"><ele>684.0</ele><time>2026-05-02T11:43:58Z</time></trkpt><trkpt lat="50.67657667327866" lon="15.803008500275451"><ele>684.0</ele><time>2026-05-02T11:43:59Z</time></trkpt><trkpt lat="50.67645923231072" lon="15.802811306323036"><ele>684.0</ele><time>2026-05-02T11:44:00Z</time></trkpt><trkpt lat="50.67633416795865" lon="15.802554890537216"><ele>684.0</ele><time>2026-05-02T11:44:01Z</time></trkpt><trkpt lat="50.67624268740628" lon="15.802276843006897"><ele>683.6666666666666</ele><time>2026-05-02T11:44:02Z</time></trkpt><trkpt lat="50.67616914226122" lon="15.801990801826346"><ele>683.3333333333333</ele><time>2026-05-02T11:44:03Z</time></trkpt><trkpt lat="50.67611136781305" lon="15.801695154028694"><ele>683.0</ele><time>2026-05-02T11:44:04Z</time></trkpt><trkpt lat="50.6760720002575" lon="15.801391248768446"><ele>683.0</ele><time>2026-05-02T11:44:05Z</time></trkpt><trkpt lat="50.67605343489103" lon="15.801067607932463"><ele>683.0</ele><time>2026-05-02T11:44:06Z</time></trkpt><trkpt lat="50.67606555844196" lon="15.800745276144305"><ele>683.0</ele><time>2026-05-02T11:44:07Z</time></trkpt><trkpt lat="50.67610720375607" lon="15.800432153328021"><ele>684.6666666666666</ele><time>2026-05-02T11:44:08Z</time></trkpt><trkpt lat="50.67616312923088" lon="15.80013409417157"><ele>686.3333333333334</ele><time>2026-05-02T11:44:09Z</time></trkpt><trkpt lat="50.67624075795249" lon="15.799850978149637"><ele>688.0</ele><time>2026-05-02T11:44:10Z</time></trkpt><trkpt lat="50.67634477225965" lon="15.799573319451373"><ele>680.5</ele><time>2026-05-02T11:44:11Z</time></trkpt><trkpt lat="50.67647579065391" lon="15.799286900735307"><ele>673.0</ele><time>2026-05-02T11:44:12Z</time></trkpt><trkpt lat="50.67662035878369" lon="15.798986044405328"><ele>673.0</ele><time>2026-05-02T11:44:13Z</time></trkpt><trkpt lat="50.676770371972516" lon="15.79867841148037"><ele>673.0</ele><time>2026-05-02T11:44:14Z</time></trkpt><trkpt lat="50.67690613390441" lon="15.798401172500148"><ele>676.0</ele><time>2026-05-02T11:44:15Z</time></trkpt><trkpt lat="50.67703108338339" lon="15.798136925378111"><ele>679.0</ele><time>2026-05-02T11:44:16Z</time></trkpt><trkpt lat="50.67715486409507" lon="15.797878164547624"><ele>682.0</ele><time>2026-05-02T11:44:17Z</time></trkpt><trkpt lat="50.67726636640976" lon="15.797608210205249"><ele>682.0</ele><time>2026-05-02T11:44:18Z</time></trkpt><trkpt lat="50.677368560468864" lon="15.797329588919636"><ele>682.0</ele><time>2026-05-02T11:44:19Z</time></trkpt><trkpt lat="50.6774616791276" lon="15.797054905493818"><ele>682.0</ele><time>2026-05-02T11:44:20Z</time></trkpt><trkpt lat="50.6775316305308" lon="15.796782809314907"><ele>680.3333333333334</ele><time>2026-05-02T11:44:21Z</time></trkpt><trkpt lat="50.67758372217199" lon="15.79650466817579"><ele>678.6666666666666</ele><time>2026-05-02T11:44:22Z</time></trkpt><trkpt lat="50.677622218959485" lon="15.796213212964462"><ele>677.0</ele><time>2026-05-02T11:44:23Z</time></trkpt><trkpt lat="50.677641608190264" lon="15.795933739870708"><ele>676.0</ele><time>2026-05-02T11:44:24Z</time></trkpt><trkpt lat="50.677634290494716" lon="15.795661543470295"><ele>675.0</ele><time>2026-05-02T11:44:25Z</time></trkpt><trkpt lat="50.67760429474973" lon="15.795403564909929"><ele>674.0</ele><time>2026-05-02T11:44:26Z</time></trkpt><trkpt lat="50.67755557400253" lon="15.795168148726976"><ele>674.0</ele><time>2026-05-02T11:44:27Z</time></trkpt><trkpt lat="50.67748299640244" lon="15.794951460386477"><ele>674.0</ele><time>2026-05-02T11:44:28Z</time></trkpt><trkpt lat="50.677391612160264" lon="15.79474837134817"><ele>674.0</ele><time>2026-05-02T11:44:29Z</time></trkpt><trkpt lat="50.67733538719996" lon="15.794619893911548"><ele>674.0</ele><time>2026-05-02T11:44:30Z</time></trkpt><trkpt lat="50.67721702144223" lon="15.794487843752515"><ele>674.0</ele><time>2026-05-02T11:44:31Z</time></trkpt><trkpt lat="50.67707395191929" lon="15.794365397061314"><ele>674.0</ele><time>2026-05-02T11:44:32Z</time></trkpt><trkpt lat="50.676911823608584" lon="15.794229723208199"><ele>674.0</ele><time>2026-05-02T11:44:33Z</time></trkpt><trkpt lat="50.67675060547743" lon="15.79407577873859"><ele>666.6666666666666</ele><time>2026-05-02T11:44:34Z</time></trkpt><trkpt lat="50.67659148811066" lon="15.793940928571327"><ele>659.3333333333334</ele><time>2026-05-02T11:44:35Z</time></trkpt><trkpt lat="50.67644933149886" lon="15.793820533745194"><ele>652.0</ele><time>2026-05-02T11:44:36Z</time></trkpt><trkpt lat="50.676324740977826" lon="15.793704918133521"><ele>652.0</ele><time>2026-05-02T11:44:37Z</time></trkpt><trkpt lat="50.67622104402726" lon="15.793609105814427"><ele>652.0</ele><time>2026-05-02T11:44:38Z</time></trkpt><trkpt lat="50.67612385869402" lon="15.793527119807626"><ele>652.0</ele><time>2026-05-02T11:44:39Z</time></trkpt><trkpt lat="50.67604554384712" lon="15.793452986123132"><ele>652.0</ele><time>2026-05-02T11:44:40Z</time></trkpt><trkpt lat="50.67598913496525" lon="15.793394747900374"><ele>652.0</ele><time>2026-05-02T11:44:41Z</time></trkpt><trkpt lat="50.67591432950621" lon="15.793314316561698"><ele>651.8</ele><time>2026-05-02T11:44:43Z</time></trkpt><trkpt lat="50.67583474969377" lon="15.793260793087425"><ele>651.6</ele><time>2026-05-02T11:44:46Z</time></trkpt><trkpt lat="50.67576474941965" lon="15.793295092647533"><ele>651.4</ele><time>2026-05-02T11:44:47Z</time></trkpt><trkpt lat="50.67567631974885" lon="15.793373895424127"><ele>651.1999999999999</ele><time>2026-05-02T11:44:48Z</time></trkpt><trkpt lat="50.67556978221417" lon="15.79347232155443"><ele>651.0</ele><time>2026-05-02T11:44:49Z</time></trkpt><trkpt lat="50.675445207443055" lon="15.793562733890555"><ele>652.0</ele><time>2026-05-02T11:44:50Z</time></trkpt><trkpt lat="50.67528647161348" lon="15.793645522077824"><ele>653.0</ele><time>2026-05-02T11:44:51Z</time></trkpt><trkpt lat="50.675101234421604" lon="15.793701662990603"><ele>654.0</ele><time>2026-05-02T11:44:52Z</time></trkpt><trkpt lat="50.67489667600692" lon="15.793759404513485"><ele>656.3333333333334</ele><time>2026-05-02T11:44:53Z</time></trkpt><trkpt lat="50.674704384961366" lon="15.79378516998256"><ele>658.6666666666667</ele><time>2026-05-02T11:44:54Z</time></trkpt><trkpt lat="50.67451448213721" lon="15.79378393646013"><ele>661.0</ele><time>2026-05-02T11:44:55Z</time></trkpt><trkpt lat="50.674313863748516" lon="15.793764314921043"><ele>662.0</ele><time>2026-05-02T11:44:56Z</time></trkpt><trkpt lat="50.67410656212773" lon="15.793718761440307"><ele>663.0</ele><time>2026-05-02T11:44:57Z</time></trkpt><trkpt lat="50.673896308934005" lon="15.793664137939611"><ele>664.0</ele><time>2026-05-02T11:44:58Z</time></trkpt><trkpt lat="50.673676765071406" lon="15.79361023078949"><ele>663.3333333333334</ele><time>2026-05-02T11:44:59Z</time></trkpt><trkpt lat="50.67347608113814" lon="15.79358535030818"><ele>662.6666666666666</ele><time>2026-05-02T11:45:00Z</time></trkpt><trkpt lat="50.67327989243557" lon="15.793607527351336"><ele>662.0</ele><time>2026-05-02T11:45:01Z</time></trkpt><trkpt lat="50.673071550423636" lon="15.79366484836833"><ele>662.0</ele><time>2026-05-02T11:45:02Z</time></trkpt><trkpt lat="50.67286068628645" lon="15.793773978939544"><ele>662.0</ele><time>2026-05-02T11:45:03Z</time></trkpt><trkpt lat="50.672654178598876" lon="15.793915944982624"><ele>662.0</ele><time>2026-05-02T11:45:04Z</time></trkpt><trkpt lat="50.672449405628036" lon="15.7940836984737"><ele>662.5</ele><time>2026-05-02T11:45:05Z</time></trkpt><trkpt lat="50.672245244019095" lon="15.79424895911328"><ele>663.0</ele><time>2026-05-02T11:45:06Z</time></trkpt><trkpt lat="50.67203339806324" lon="15.794411285470122"><ele>650.5</ele><time>2026-05-02T11:45:07Z</time></trkpt><trkpt lat="50.67181995391288" lon="15.794568745603128"><ele>638.0</ele><time>2026-05-02T11:45:08Z</time></trkpt><trkpt lat="50.67162591293371" lon="15.794724198486659"><ele>638.0</ele><time>2026-05-02T11:45:09Z</time></trkpt><trkpt lat="50.671444895921155" lon="15.794861608473857"><ele>638.0</ele><time>2026-05-02T11:45:10Z</time></trkpt><trkpt lat="50.671266932646446" lon="15.794996156598213"><ele>638.0</ele><time>2026-05-02T11:45:11Z</time></trkpt><trkpt lat="50.671079108451906" lon="15.79511477058528"><ele>637.6666666666666</ele><time>2026-05-02T11:45:12Z</time></trkpt><trkpt lat="50.67089590690603" lon="15.79518713904273"><ele>637.3333333333334</ele><time>2026-05-02T11:45:13Z</time></trkpt><trkpt lat="50.67070606141752" lon="15.795243453550324"><ele>637.0</ele><time>2026-05-02T11:45:14Z</time></trkpt><trkpt lat="50.67050356847084" lon="15.795244538973375"><ele>637.0</ele><time>2026-05-02T11:45:15Z</time></trkpt><trkpt lat="50.67030500987611" lon="15.79521580861304"><ele>637.0</ele><time>2026-05-02T11:45:16Z</time></trkpt><trkpt lat="50.67010890733773" lon="15.795150935919713"><ele>637.0</ele><time>2026-05-02T11:45:17Z</time></trkpt><trkpt lat="50.66991897133966" lon="15.79505319618292"><ele>639.5</ele><time>2026-05-02T11:45:18Z</time></trkpt><trkpt lat="50.66972104816355" lon="15.794911876563473"><ele>642.0</ele><time>2026-05-02T11:45:19Z</time></trkpt><trkpt lat="50.6695179093049" lon="15.794722583183082"><ele>642.0</ele><time>2026-05-02T11:45:20Z</time></trkpt><trkpt lat="50.66933099195563" lon="15.794449346700294"><ele>642.0</ele><time>2026-05-02T11:45:21Z</time></trkpt><trkpt lat="50.669148834036406" lon="15.794223138434266"><ele>641.6666666666666</ele><time>2026-05-02T11:45:22Z</time></trkpt><trkpt lat="50.6690051344302" lon="15.793998207391308"><ele>641.3333333333333</ele><time>2026-05-02T11:45:23Z</time></trkpt><trkpt lat="50.66884890252109" lon="15.793802666242378"><ele>641.0</ele><time>2026-05-02T11:45:24Z</time></trkpt><trkpt lat="50.66867135704973" lon="15.793639467698664"><ele>640.0</ele><time>2026-05-02T11:45:25Z</time></trkpt><trkpt lat="50.668471274083" lon="15.793493826518183"><ele>639.0</ele><time>2026-05-02T11:45:26Z</time></trkpt><trkpt lat="50.668271191519416" lon="15.79338507130228"><ele>638.0</ele><time>2026-05-02T11:45:27Z</time></trkpt><trkpt lat="50.668089574382904" lon="15.793293755032531"><ele>638.0</ele><time>2026-05-02T11:45:28Z</time></trkpt><trkpt lat="50.66792209876087" lon="15.79320673212089"><ele>638.0</ele><time>2026-05-02T11:45:29Z</time></trkpt><trkpt lat="50.667774093615925" lon="15.79313411935355"><ele>638.0</ele><time>2026-05-02T11:45:30Z</time></trkpt><trkpt lat="50.66763205539993" lon="15.793093242316488"><ele>636.25</ele><time>2026-05-02T11:45:31Z</time></trkpt><trkpt lat="50.66749821191193" lon="15.793098984829482"><ele>634.5</ele><time>2026-05-02T11:45:32Z</time></trkpt><trkpt lat="50.66735204637621" lon="15.793136013740396"><ele>632.75</ele><time>2026-05-02T11:45:33Z</time></trkpt><trkpt lat="50.667200712461444" lon="15.79323453958591"><ele>631.0</ele><time>2026-05-02T11:45:34Z</time></trkpt><trkpt lat="50.66706081141595" lon="15.793331964119156"><ele>631.0</ele><time>2026-05-02T11:45:35Z</time></trkpt><trkpt lat="50.66695068656986" lon="15.793487772361052"><ele>631.0</ele><time>2026-05-02T11:45:36Z</time></trkpt><trkpt lat="50.666827661530434" lon="15.793672049774068"><ele>631.0</ele><time>2026-05-02T11:45:37Z</time></trkpt><trkpt lat="50.666741527857646" lon="15.793870837598778"><ele>631.6666666666667</ele><time>2026-05-02T11:45:38Z</time></trkpt><trkpt lat="50.666659810086344" lon="15.794086950044983"><ele>632.3333333333334</ele><time>2026-05-02T11:45:39Z</time></trkpt><trkpt lat="50.66657286696348" lon="15.794331782355052"><ele>633.0</ele><time>2026-05-02T11:45:40Z</time></trkpt><trkpt lat="50.666460143125505" lon="15.79462348833073"><ele>633.0</ele><time>2026-05-02T11:45:41Z</time></trkpt><trkpt lat="50.666320084156794" lon="15.794898253672843"><ele>633.0</ele><time>2026-05-02T11:45:42Z</time></trkpt><trkpt lat="50.66618202756159" lon="15.795196130740297"><ele>628.0</ele><time>2026-05-02T11:45:43Z</time></trkpt><trkpt lat="50.66602827825634" lon="15.79544461838222"><ele>623.0</ele><time>2026-05-02T11:45:44Z</time></trkpt><trkpt lat="50.66589355179369" lon="15.795666955098234"><ele>618.0</ele><time>2026-05-02T11:45:45Z</time></trkpt><trkpt lat="50.665777662224805" lon="15.795898830433968"><ele>622.3333333333334</ele><time>2026-05-02T11:45:46Z</time></trkpt><trkpt lat="50.66567407139803" lon="15.796129220997129"><ele>626.6666666666667</ele><time>2026-05-02T11:45:47Z</time></trkpt><trkpt lat="50.66558096481581" lon="15.796361177410812"><ele>631.0</ele><time>2026-05-02T11:45:48Z</time></trkpt><trkpt lat="50.66550067483975" lon="15.796604349865516"><ele>637.0</ele><time>2026-05-02T11:45:49Z</time></trkpt><trkpt lat="50.66543005920157" lon="15.796863645175724"><ele>643.0</ele><time>2026-05-02T11:45:50Z</time></trkpt><trkpt lat="50.665360218713495" lon="15.797114183025258"><ele>649.0</ele><time>2026-05-02T11:45:51Z</time></trkpt><trkpt lat="50.66528501971659" lon="15.797355710297813"><ele>639.3333333333334</ele><time>2026-05-02T11:45:52Z</time></trkpt><trkpt lat="50.66521086027736" lon="15.797599006319043"><ele>629.6666666666666</ele><time>2026-05-02T11:45:53Z</time></trkpt><trkpt lat="50.665135566666024" lon="15.797837261178438"><ele>620.0</ele><time>2026-05-02T11:45:54Z</time></trkpt><trkpt lat="50.66505233338254" lon="15.798073219325792"><ele>619.3333333333333</ele><time>2026-05-02T11:45:55Z</time></trkpt><trkpt lat="50.66496346277708" lon="15.798296657891377"><ele>618.6666666666666</ele><time>2026-05-02T11:45:56Z</time></trkpt><trkpt lat="50.664875141057784" lon="15.798517195689595"><ele>618.0</ele><time>2026-05-02T11:45:57Z</time></trkpt><trkpt lat="50.66478555849249" lon="15.798726437776866"><ele>619.6666666666666</ele><time>2026-05-02T11:45:58Z</time></trkpt><trkpt lat="50.66469671986299" lon="15.798955675906496"><ele>621.3333333333333</ele><time>2026-05-02T11:45:59Z</time></trkpt><trkpt lat="50.66462069941369" lon="15.799192348047669"><ele>623.0</ele><time>2026-05-02T11:46:00Z</time></trkpt><trkpt lat="50.66456660161648" lon="15.799469915222334"><ele>624.6666666666666</ele><time>2026-05-02T11:46:01Z</time></trkpt><trkpt lat="50.6645310472997" lon="15.799740709464466"><ele>626.3333333333334</ele><time>2026-05-02T11:46:02Z</time></trkpt><trkpt lat="50.66451818366599" lon="15.800006070796888"><ele>628.0</ele><time>2026-05-02T11:46:03Z</time></trkpt><trkpt lat="50.664520531026064" lon="15.800281433440663"><ele>628.0</ele><time>2026-05-02T11:46:04Z</time></trkpt><trkpt lat="50.664524029116166" lon="15.800539824700746"><ele>628.0</ele><time>2026-05-02T11:46:05Z</time></trkpt><trkpt lat="50.664524662625396" lon="15.800781765771534"><ele>628.0</ele><time>2026-05-02T11:46:06Z</time></trkpt><trkpt lat="50.664526499062745" lon="15.801004201309393"><ele>628.0</ele><time>2026-05-02T11:46:07Z</time></trkpt><trkpt lat="50.66452712675836" lon="15.801221247913627"><ele>628.0</ele><time>2026-05-02T11:46:08Z</time></trkpt><trkpt lat="50.664524997512174" lon="15.801456185250059"><ele>628.0</ele><time>2026-05-02T11:46:09Z</time></trkpt><trkpt lat="50.66452348386305" lon="15.80168992735426"><ele>628.0</ele><time>2026-05-02T11:46:10Z</time></trkpt><trkpt lat="50.664523993394184" lon="15.801918638616995"><ele>627.0</ele><time>2026-05-02T11:46:11Z</time></trkpt><trkpt lat="50.664528104748975" lon="15.802128104878802"><ele>626.0</ele><time>2026-05-02T11:46:12Z</time></trkpt><trkpt lat="50.66452793095742" lon="15.802325601342051"><ele>625.0</ele><time>2026-05-02T11:46:13Z</time></trkpt><trkpt lat="50.6645283366459" lon="15.802516909989867"><ele>624.0</ele><time>2026-05-02T11:46:14Z</time></trkpt><trkpt lat="50.66453088027474" lon="15.802708391745254"><ele>621.75</ele><time>2026-05-02T11:46:15Z</time></trkpt><trkpt lat="50.66452941795255" lon="15.802904334845904"><ele>619.5</ele><time>2026-05-02T11:46:16Z</time></trkpt><trkpt lat="50.66452832624733" lon="15.803103369337242"><ele>617.25</ele><time>2026-05-02T11:46:17Z</time></trkpt><trkpt lat="50.664530766248795" lon="15.803303368733916"><ele>615.0</ele><time>2026-05-02T11:46:18Z</time></trkpt><trkpt lat="50.664529852069684" lon="15.80350812326892"><ele>613.25</ele><time>2026-05-02T11:46:19Z</time></trkpt><trkpt lat="50.664529459283784" lon="15.80371295623847"><ele>611.5</ele><time>2026-05-02T11:46:20Z</time></trkpt><trkpt lat="50.66452700766559" lon="15.80391349336425"><ele>609.75</ele><time>2026-05-02T11:46:21Z</time></trkpt><trkpt lat="50.66452819231118" lon="15.804124827378347"><ele>608.0</ele><time>2026-05-02T11:46:22Z</time></trkpt><trkpt lat="50.664527554817674" lon="15.804344712142365"><ele>607.75</ele><time>2026-05-02T11:46:23Z</time></trkpt><trkpt lat="50.66452599078518" lon="15.804558397476878"><ele>607.5</ele><time>2026-05-02T11:46:24Z</time></trkpt><trkpt lat="50.66452712562818" lon="15.804784925053657"><ele>607.25</ele><time>2026-05-02T11:46:25Z</time></trkpt><trkpt lat="50.664526582389755" lon="15.805008589914905"><ele>607.0</ele><time>2026-05-02T11:46:26Z</time></trkpt><trkpt lat="50.66452634743754" lon="15.805243901052197"><ele>608.25</ele><time>2026-05-02T11:46:27Z</time></trkpt><trkpt lat="50.664526999711605" lon="15.805482998593611"><ele>609.5</ele><time>2026-05-02T11:46:28Z</time></trkpt><trkpt lat="50.66452623573817" lon="15.805726118606279"><ele>610.75</ele><time>2026-05-02T11:46:29Z</time></trkpt><trkpt lat="50.66452556905932" lon="15.805953008489153"><ele>612.0</ele><time>2026-05-02T11:46:30Z</time></trkpt><trkpt lat="50.66452438685179" lon="15.806164826312827"><ele>613.25</ele><time>2026-05-02T11:46:31Z</time></trkpt><trkpt lat="50.664525437371594" lon="15.80635944331695"><ele>614.5</ele><time>2026-05-02T11:46:32Z</time></trkpt><trkpt lat="50.664523893121014" lon="15.80653653865205"><ele>615.75</ele><time>2026-05-02T11:46:33Z</time></trkpt><trkpt lat="50.66451877880934" lon="15.806711724129721"><ele>617.0</ele><time>2026-05-02T11:46:34Z</time></trkpt><trkpt lat="50.66451168063813" lon="15.806892426455269"><ele>619.0</ele><time>2026-05-02T11:46:35Z</time></trkpt><trkpt lat="50.66450123837796" lon="15.80707625214034"><ele>621.0</ele><time>2026-05-02T11:46:36Z</time></trkpt><trkpt lat="50.6644892253124" lon="15.80726503920741"><ele>623.0</ele><time>2026-05-02T11:46:37Z</time></trkpt><trkpt lat="50.66446684572395" lon="15.80746221916937"><ele>625.0</ele><time>2026-05-02T11:46:38Z</time></trkpt><trkpt lat="50.66443629431039" lon="15.807661759475632"><ele>618.75</ele><time>2026-05-02T11:46:39Z</time></trkpt><trkpt lat="50.664400764508976" lon="15.807866746757453"><ele>612.5</ele><time>2026-05-02T11:46:40Z</time></trkpt><trkpt lat="50.664354986734736" lon="15.808069203197109"><ele>606.25</ele><time>2026-05-02T11:46:41Z</time></trkpt><trkpt lat="50.664295065154896" lon="15.808267648449982"><ele>600.0</ele><time>2026-05-02T11:46:42Z</time></trkpt><trkpt lat="50.66422559165975" lon="15.808457112812832"><ele>603.25</ele><time>2026-05-02T11:46:43Z</time></trkpt><trkpt lat="50.66415337732746" lon="15.808648204322086"><ele>606.5</ele><time>2026-05-02T11:46:44Z</time></trkpt><trkpt lat="50.66407303944394" lon="15.808853716086617"><ele>609.75</ele><time>2026-05-02T11:46:45Z</time></trkpt><trkpt lat="50.66398826600697" lon="15.809032707809173"><ele>613.0</ele><time>2026-05-02T11:46:46Z</time></trkpt><trkpt lat="50.663900355437235" lon="15.809209951223766"><ele>609.5</ele><time>2026-05-02T11:46:47Z</time></trkpt><trkpt lat="50.663812058933814" lon="15.809382880638632"><ele>606.0</ele><time>2026-05-02T11:46:48Z</time></trkpt><trkpt lat="50.66372502681765" lon="15.809544541886552"><ele>602.5</ele><time>2026-05-02T11:46:49Z</time></trkpt><trkpt lat="50.6636390173479" lon="15.809689850281648"><ele>599.0</ele><time>2026-05-02T11:46:50Z</time></trkpt><trkpt lat="50.663553388986834" lon="15.809843922506296"><ele>599.0</ele><time>2026-05-02T11:46:51Z</time></trkpt><trkpt lat="50.663477058899424" lon="15.80998789942266"><ele>599.0</ele><time>2026-05-02T11:46:52Z</time></trkpt><trkpt lat="50.66339940831891" lon="15.810140628766433"><ele>599.0</ele><time>2026-05-02T11:46:53Z</time></trkpt><trkpt lat="50.663308487255165" lon="15.81029976168148"><ele>599.0</ele><time>2026-05-02T11:46:54Z</time></trkpt><trkpt lat="50.663205745725115" lon="15.810464657511119"><ele>600.6666666666666</ele><time>2026-05-02T11:46:55Z</time></trkpt><trkpt lat="50.663097516567866" lon="15.810652633093335"><ele>602.3333333333334</ele><time>2026-05-02T11:46:56Z</time></trkpt><trkpt lat="50.66299100709723" lon="15.810850856311337"><ele>604.0</ele><time>2026-05-02T11:46:57Z</time></trkpt><trkpt lat="50.662873892021274" lon="15.8110589099912"><ele>603.0</ele><time>2026-05-02T11:46:58Z</time></trkpt><trkpt lat="50.66277221266089" lon="15.811291933734756"><ele>602.0</ele><time>2026-05-02T11:46:59Z</time></trkpt><trkpt lat="50.662680235077254" lon="15.811503804146893"><ele>601.0</ele><time>2026-05-02T11:47:00Z</time></trkpt><trkpt lat="50.66260406562831" lon="15.81170997701189"><ele>598.5</ele><time>2026-05-02T11:47:01Z</time></trkpt><trkpt lat="50.662543217042284" lon="15.811899555935224"><ele>596.0</ele><time>2026-05-02T11:47:02Z</time></trkpt><trkpt lat="50.66249122502775" lon="15.8120848137372"><ele>593.5</ele><time>2026-05-02T11:47:03Z</time></trkpt><trkpt lat="50.662445092522276" lon="15.812263113709811"><ele>591.0</ele><time>2026-05-02T11:47:04Z</time></trkpt><trkpt lat="50.66242713877987" lon="15.812413388364748"><ele>591.0</ele><time>2026-05-02T11:47:05Z</time></trkpt><trkpt lat="50.662387105458315" lon="15.81255068000421"><ele>591.0</ele><time>2026-05-02T11:47:06Z</time></trkpt><trkpt lat="50.662361647735516" lon="15.812695393450825"><ele>591.0</ele><time>2026-05-02T11:47:08Z</time></trkpt><trkpt lat="50.66233535028908" lon="15.81281431220426"><ele>591.0</ele><time>2026-05-02T11:47:11Z</time></trkpt><trkpt lat="50.662301487447195" lon="15.812986490679444"><ele>591.0</ele><time>2026-05-02T11:49:30Z</time></trkpt><trkpt lat="50.66229486447014" lon="15.813124702519588"><ele>590.6666666666666</ele><time>2026-05-02T11:49:31Z</time></trkpt><trkpt lat="50.66226756127924" lon="15.813223151962903"><ele>590.3333333333334</ele><time>2026-05-02T11:49:32Z</time></trkpt><trkpt lat="50.66225221408614" lon="15.81332517673678"><ele>590.0</ele><time>2026-05-02T11:49:33Z</time></trkpt><trkpt lat="50.6622368380644" lon="15.81343622738613"><ele>589.6666666666667</ele><time>2026-05-02T11:49:34Z</time></trkpt><trkpt lat="50.66222197531042" lon="15.813558685392945"><ele>589.3333333333334</ele><time>2026-05-02T11:49:35Z</time></trkpt><trkpt lat="50.66220610865448" lon="15.813705105032192"><ele>589.0</ele><time>2026-05-02T11:49:36Z</time></trkpt><trkpt lat="50.6621888181648" lon="15.81386925894765"><ele>588.75</ele><time>2026-05-02T11:49:37Z</time></trkpt><trkpt lat="50.662170035384314" lon="15.81405544158881"><ele>588.5</ele><time>2026-05-02T11:49:38Z</time></trkpt><trkpt lat="50.66215146677627" lon="15.814255720575016"><ele>588.25</ele><time>2026-05-02T11:49:39Z</time></trkpt><trkpt lat="50.662132123724426" lon="15.81447730714302"><ele>588.0</ele><time>2026-05-02T11:49:40Z</time></trkpt><trkpt lat="50.66211156784549" lon="15.81470884874366"><ele>588.5</ele><time>2026-05-02T11:49:41Z</time></trkpt><trkpt lat="50.66209140689327" lon="15.814941565408693"><ele>589.0</ele><time>2026-05-02T11:49:42Z</time></trkpt><trkpt lat="50.66207322468611" lon="15.81515138223583"><ele>589.5</ele><time>2026-05-02T11:49:43Z</time></trkpt><trkpt lat="50.66205209700645" lon="15.815353504133306"><ele>590.0</ele><time>2026-05-02T11:49:44Z</time></trkpt><trkpt lat="50.662029187802595" lon="15.815560955921812"><ele>590.25</ele><time>2026-05-02T11:49:45Z</time></trkpt><trkpt lat="50.662004519372914" lon="15.81576478147638"><ele>590.5</ele><time>2026-05-02T11:49:46Z</time></trkpt><trkpt lat="50.66197881407103" lon="15.815968963013908"><ele>590.75</ele><time>2026-05-02T11:49:47Z</time></trkpt><trkpt lat="50.66195135102632" lon="15.81617325355207"><ele>591.0</ele><time>2026-05-02T11:49:48Z</time></trkpt><trkpt lat="50.66192537945013" lon="15.816363778291937"><ele>588.75</ele><time>2026-05-02T11:49:49Z</time></trkpt><trkpt lat="50.66190141822264" lon="15.816538381225376"><ele>586.5</ele><time>2026-05-02T11:49:50Z</time></trkpt><trkpt lat="50.661878294248964" lon="15.816702308821032"><ele>584.25</ele><time>2026-05-02T11:49:51Z</time></trkpt><trkpt lat="50.66185261959884" lon="15.816884753111703"><ele>582.0</ele><time>2026-05-02T11:49:52Z</time></trkpt><trkpt lat="50.66183933449063" lon="15.817068699253934"><ele>581.6</ele><time>2026-05-02T11:49:53Z</time></trkpt><trkpt lat="50.66180281394412" lon="15.817244761322785"><ele>581.2</ele><time>2026-05-02T11:49:54Z</time></trkpt><trkpt lat="50.6617827853263" lon="15.817383580656717"><ele>580.8</ele><time>2026-05-02T11:49:55Z</time></trkpt><trkpt lat="50.661760512401635" lon="15.817545447297395"><ele>580.4</ele><time>2026-05-02T11:49:56Z</time></trkpt><trkpt lat="50.66173436936452" lon="15.817708447314976"><ele>580.0</ele><time>2026-05-02T11:49:57Z</time></trkpt><trkpt lat="50.66170048421671" lon="15.817875409076544"><ele>580.0</ele><time>2026-05-02T11:49:58Z</time></trkpt><trkpt lat="50.66165439575333" lon="15.818041151483477"><ele>580.0</ele><time>2026-05-02T11:49:59Z</time></trkpt><trkpt lat="50.66159320027507" lon="15.81820468637468"><ele>580.0</ele><time>2026-05-02T11:50:00Z</time></trkpt><trkpt lat="50.661523504006055" lon="15.818364672003081"><ele>580.0</ele><time>2026-05-02T11:50:01Z</time></trkpt><trkpt lat="50.66146081748262" lon="15.818461207195632"><ele>580.0</ele><time>2026-05-02T11:50:02Z</time></trkpt><trkpt lat="50.66137285394919" lon="15.818563052778398"><ele>580.5</ele><time>2026-05-02T11:50:03Z</time></trkpt><trkpt lat="50.661280935819725" lon="15.818660156266052"><ele>581.0</ele><time>2026-05-02T11:50:04Z</time></trkpt><trkpt lat="50.66117705614087" lon="15.818741605939325"><ele>581.5</ele><time>2026-05-02T11:50:05Z</time></trkpt><trkpt lat="50.66106124282624" lon="15.81880136955667"><ele>582.0</ele><time>2026-05-02T11:50:06Z</time></trkpt><trkpt lat="50.660940270310164" lon="15.81881227633407"><ele>580.5</ele><time>2026-05-02T11:50:07Z</time></trkpt><trkpt lat="50.66082133445613" lon="15.818844306596793"><ele>579.0</ele><time>2026-05-02T11:50:08Z</time></trkpt><trkpt lat="50.66070414154492" lon="15.818836015860137"><ele>577.5</ele><time>2026-05-02T11:50:09Z</time></trkpt><trkpt lat="50.66058707540125" lon="15.818843301659152"><ele>576.0</ele><time>2026-05-02T11:50:10Z</time></trkpt><trkpt lat="50.660474359745066" lon="15.818860897461617"><ele>576.0</ele><time>2026-05-02T11:50:11Z</time></trkpt><trkpt lat="50.660360177110476" lon="15.818868289550082"><ele>576.0</ele><time>2026-05-02T11:50:12Z</time></trkpt><trkpt lat="50.66024563670885" lon="15.818875493948468"><ele>576.0</ele><time>2026-05-02T11:50:13Z</time></trkpt><trkpt lat="50.66012905257403" lon="15.818897840558618"><ele>576.0</ele><time>2026-05-02T11:50:14Z</time></trkpt><trkpt lat="50.66001230712164" lon="15.818923084563659"><ele>576.25</ele><time>2026-05-02T11:50:15Z</time></trkpt><trkpt lat="50.65988893811237" lon="15.818957492779768"><ele>576.5</ele><time>2026-05-02T11:50:16Z</time></trkpt><trkpt lat="50.65976799987332" lon="15.81899894141306"><ele>576.75</ele><time>2026-05-02T11:50:17Z</time></trkpt><trkpt lat="50.6596465842778" lon="15.819048166883272"><ele>577.0</ele><time>2026-05-02T11:50:18Z</time></trkpt><trkpt lat="50.65953318830744" lon="15.819092700887172"><ele>577.25</ele><time>2026-05-02T11:50:19Z</time></trkpt><trkpt lat="50.65941563507599" lon="15.819137374607504"><ele>577.5</ele><time>2026-05-02T11:50:20Z</time></trkpt><trkpt lat="50.659299950460856" lon="15.81919648410345"><ele>577.75</ele><time>2026-05-02T11:50:21Z</time></trkpt><trkpt lat="50.65918484352265" lon="15.819248501090527"><ele>578.0</ele><time>2026-05-02T11:50:22Z</time></trkpt><trkpt lat="50.65905994764302" lon="15.81928626938074"><ele>577.0</ele><time>2026-05-02T11:50:23Z</time></trkpt><trkpt lat="50.65894293041607" lon="15.81933847772218"><ele>576.0</ele><time>2026-05-02T11:50:24Z</time></trkpt><trkpt lat="50.65882371495201" lon="15.819394942736"><ele>575.0</ele><time>2026-05-02T11:50:25Z</time></trkpt><trkpt lat="50.65868685292609" lon="15.819458022353944"><ele>574.0</ele><time>2026-05-02T11:50:26Z</time></trkpt><trkpt lat="50.65852053170825" lon="15.8195126998672"><ele>574.0</ele><time>2026-05-02T11:50:27Z</time></trkpt><trkpt lat="50.65833267617267" lon="15.819594040896106"><ele>574.0</ele><time>2026-05-02T11:50:28Z</time></trkpt><trkpt lat="50.658156387991454" lon="15.819693456483598"><ele>574.0</ele><time>2026-05-02T11:50:29Z</time></trkpt><trkpt lat="50.65799792909977" lon="15.819744255699693"><ele>574.0</ele><time>2026-05-02T11:50:30Z</time></trkpt><trkpt lat="50.65785907333643" lon="15.819804878361735"><ele>574.0</ele><time>2026-05-02T11:50:31Z</time></trkpt><trkpt lat="50.65772156381569" lon="15.81986414792976"><ele>574.0</ele><time>2026-05-02T11:50:32Z</time></trkpt><trkpt lat="50.65757986357478" lon="15.819925715357918"><ele>574.0</ele><time>2026-05-02T11:50:33Z</time></trkpt><trkpt lat="50.657440128682374" lon="15.819988930861062"><ele>573.75</ele><time>2026-05-02T11:50:34Z</time></trkpt><trkpt lat="50.65729972598331" lon="15.820048546510026"><ele>573.5</ele><time>2026-05-02T11:50:35Z</time></trkpt><trkpt lat="50.657159366617115" lon="15.820104531470678"><ele>573.25</ele><time>2026-05-02T11:50:36Z</time></trkpt><trkpt lat="50.65701681684642" lon="15.820151098334158"><ele>573.0</ele><time>2026-05-02T11:50:37Z</time></trkpt><trkpt lat="50.65687026008772" lon="15.82019519341534"><ele>572.3333333333334</ele><time>2026-05-02T11:50:38Z</time></trkpt><trkpt lat="50.656715848324595" lon="15.820238599106704"><ele>571.6666666666667</ele><time>2026-05-02T11:50:39Z</time></trkpt><trkpt lat="50.65656882806781" lon="15.82027563838781"><ele>571.0</ele><time>2026-05-02T11:50:40Z</time></trkpt><trkpt lat="50.656418131784996" lon="15.82029555633615"><ele>571.0</ele><time>2026-05-02T11:50:41Z</time></trkpt><trkpt lat="50.656268339857895" lon="15.820308000509222"><ele>571.0</ele><time>2026-05-02T11:50:42Z</time></trkpt><trkpt lat="50.65611795315151" lon="15.820323518077874"><ele>571.0</ele><time>2026-05-02T11:50:43Z</time></trkpt><trkpt lat="50.6559723347978" lon="15.820328149062581"><ele>571.0</ele><time>2026-05-02T11:50:44Z</time></trkpt><trkpt lat="50.65583772194034" lon="15.82032757110213"><ele>570.25</ele><time>2026-05-02T11:50:45Z</time></trkpt><trkpt lat="50.65571101976716" lon="15.82031680239892"><ele>569.5</ele><time>2026-05-02T11:50:46Z</time></trkpt><trkpt lat="50.655581791816694" lon="15.820295975440935"><ele>568.75</ele><time>2026-05-02T11:50:47Z</time></trkpt><trkpt lat="50.65544820636482" lon="15.820269793170803"><ele>568.0</ele><time>2026-05-02T11:50:48Z</time></trkpt><trkpt lat="50.6553121356737" lon="15.820242822781896"><ele>567.75</ele><time>2026-05-02T11:50:49Z</time></trkpt><trkpt lat="50.65517120296291" lon="15.820219511856235"><ele>567.5</ele><time>2026-05-02T11:50:50Z</time></trkpt><trkpt lat="50.65502365425802" lon="15.820178887483445"><ele>567.25</ele><time>2026-05-02T11:50:51Z</time></trkpt><trkpt lat="50.654870148151474" lon="15.820126475915787"><ele>567.0</ele><time>2026-05-02T11:50:52Z</time></trkpt><trkpt lat="50.65471568070453" lon="15.82006528966028"><ele>568.6666666666666</ele><time>2026-05-02T11:50:53Z</time></trkpt><trkpt lat="50.65456356089286" lon="15.820000160581646"><ele>570.3333333333333</ele><time>2026-05-02T11:50:54Z</time></trkpt><trkpt lat="50.65441099989983" lon="15.819933383894945"><ele>572.0</ele><time>2026-05-02T11:50:55Z</time></trkpt><trkpt lat="50.6542598183066" lon="15.819862243456681"><ele>572.0</ele><time>2026-05-02T11:50:56Z</time></trkpt><trkpt lat="50.65410568605205" lon="15.819780387505409"><ele>572.0</ele><time>2026-05-02T11:50:57Z</time></trkpt><trkpt lat="50.65395429990196" lon="15.819696547269487"><ele>572.0</ele><time>2026-05-02T11:50:58Z</time></trkpt><trkpt lat="50.653798294263" lon="15.819614531907598"><ele>572.0</ele><time>2026-05-02T11:50:59Z</time></trkpt><trkpt lat="50.653638648581186" lon="15.819531957133524"><ele>572.0</ele><time>2026-05-02T11:51:00Z</time></trkpt><trkpt lat="50.65347813062215" lon="15.819456387815551"><ele>572.0</ele><time>2026-05-02T11:51:01Z</time></trkpt><trkpt lat="50.65330087870859" lon="15.819381520425296"><ele>571.0</ele><time>2026-05-02T11:51:02Z</time></trkpt><trkpt lat="50.653122343993886" lon="15.819302830493818"><ele>570.0</ele><time>2026-05-02T11:51:03Z</time></trkpt><trkpt lat="50.652908554744656" lon="15.819211449050588"><ele>569.0</ele><time>2026-05-02T11:51:04Z</time></trkpt><trkpt lat="50.6526461258759" lon="15.819072569321559"><ele>569.0</ele><time>2026-05-02T11:51:05Z</time></trkpt><trkpt lat="50.652333755510234" lon="15.818936743782693"><ele>569.0</ele><time>2026-05-02T11:51:06Z</time></trkpt><trkpt lat="50.65201014980499" lon="15.818798110415186"><ele>566.0</ele><time>2026-05-02T11:51:07Z</time></trkpt><trkpt lat="50.65172586729487" lon="15.818674452556818"><ele>563.0</ele><time>2026-05-02T11:51:08Z</time></trkpt><trkpt lat="50.65147070559328" lon="15.81856735613682"><ele>564.0</ele><time>2026-05-02T11:51:09Z</time></trkpt><trkpt lat="50.65121634266842" lon="15.818427877569261"><ele>565.0</ele><time>2026-05-02T11:51:10Z</time></trkpt><trkpt lat="50.650970427316196" lon="15.818267409649598"><ele>565.0</ele><time>2026-05-02T11:51:11Z</time></trkpt><trkpt lat="50.65072169754347" lon="15.818086053029873"><ele>565.0</ele><time>2026-05-02T11:51:12Z</time></trkpt><trkpt lat="50.650474173021635" lon="15.817887319067227"><ele>564.0</ele><time>2026-05-02T11:51:13Z</time></trkpt><trkpt lat="50.65022858527211" lon="15.817669060256199"><ele>563.0</ele><time>2026-05-02T11:51:14Z</time></trkpt><trkpt lat="50.649999552701686" lon="15.817448918344304"><ele>563.0</ele><time>2026-05-02T11:51:15Z</time></trkpt><trkpt lat="50.64976742242147" lon="15.817217000574278"><ele>563.0</ele><time>2026-05-02T11:51:16Z</time></trkpt><trkpt lat="50.64953663566939" lon="15.816986698009641"><ele>561.0</ele><time>2026-05-02T11:51:17Z</time></trkpt><trkpt lat="50.649311749427916" lon="15.816755450364626"><ele>559.0</ele><time>2026-05-02T11:51:18Z</time></trkpt><trkpt lat="50.6490941064073" lon="15.816525867678285"><ele>559.0</ele><time>2026-05-02T11:51:19Z</time></trkpt><trkpt lat="50.64886725319721" lon="15.816309519350812"><ele>559.0</ele><time>2026-05-02T11:51:20Z</time></trkpt><trkpt lat="50.64863856335396" lon="15.816130673195541"><ele>561.0</ele><time>2026-05-02T11:51:21Z</time></trkpt><trkpt lat="50.648412185954776" lon="15.815999560545208"><ele>563.0</ele><time>2026-05-02T11:51:22Z</time></trkpt><trkpt lat="50.648171003863624" lon="15.815901584579452"><ele>563.0</ele><time>2026-05-02T11:51:23Z</time></trkpt><trkpt lat="50.647924899972864" lon="15.815836501901954"><ele>563.0</ele><time>2026-05-02T11:51:24Z</time></trkpt><trkpt lat="50.64766643934554" lon="15.81580695926558"><ele>562.0</ele><time>2026-05-02T11:51:25Z</time></trkpt><trkpt lat="50.64739681399559" lon="15.815800668437827"><ele>561.0</ele><time>2026-05-02T11:51:26Z</time></trkpt><trkpt lat="50.647111514649" lon="15.815805278645788"><ele>560.0</ele><time>2026-05-02T11:51:27Z</time></trkpt><trkpt lat="50.646841859871664" lon="15.815806100791898"><ele>559.0</ele><time>2026-05-02T11:51:28Z</time></trkpt><trkpt lat="50.646603335618984" lon="15.81579841470012"><ele>559.0</ele><time>2026-05-02T11:51:29Z</time></trkpt><trkpt lat="50.646380386634874" lon="15.815746248559982"><ele>559.0</ele><time>2026-05-02T11:51:30Z</time></trkpt><trkpt lat="50.64615809755276" lon="15.815716022356703"><ele>559.0</ele><time>2026-05-02T11:51:31Z</time></trkpt><trkpt lat="50.64594736237918" lon="15.81561843097629"><ele>557.0</ele><time>2026-05-02T11:51:32Z</time></trkpt><trkpt lat="50.64573533160425" lon="15.815524198924017"><ele>555.0</ele><time>2026-05-02T11:51:33Z</time></trkpt><trkpt lat="50.645517841334446" lon="15.815408015240575"><ele>555.0</ele><time>2026-05-02T11:51:34Z</time></trkpt><trkpt lat="50.64530786628583" lon="15.815298106821102"><ele>555.0</ele><time>2026-05-02T11:51:35Z</time></trkpt><trkpt lat="50.64512150562598" lon="15.815177319179307"><ele>555.0</ele><time>2026-05-02T11:51:36Z</time></trkpt><trkpt lat="50.64494944986735" lon="15.815067156283956"><ele>553.0</ele><time>2026-05-02T11:51:37Z</time></trkpt><trkpt lat="50.64478606046618" lon="15.814934611109486"><ele>551.0</ele><time>2026-05-02T11:51:38Z</time></trkpt><trkpt lat="50.64461059503397" lon="15.814821063610346"><ele>549.0</ele><time>2026-05-02T11:51:39Z</time></trkpt><trkpt lat="50.64443335544782" lon="15.814740323803509"><ele>547.3333333333334</ele><time>2026-05-02T11:51:40Z</time></trkpt><trkpt lat="50.64426704987607" lon="15.814642686452274"><ele>545.6666666666667</ele><time>2026-05-02T11:51:41Z</time></trkpt><trkpt lat="50.64409855580453" lon="15.814551663102245"><ele>544.0</ele><time>2026-05-02T11:51:42Z</time></trkpt><trkpt lat="50.64392368340884" lon="15.814463857426848"><ele>544.0</ele><time>2026-05-02T11:51:43Z</time></trkpt><trkpt lat="50.64374590401207" lon="15.814377511899075"><ele>544.0</ele><time>2026-05-02T11:51:44Z</time></trkpt><trkpt lat="50.64356789425833" lon="15.814307913838155"><ele>544.0</ele><time>2026-05-02T11:51:45Z</time></trkpt><trkpt lat="50.64339200245819" lon="15.814261205272818"><ele>544.3333333333334</ele><time>2026-05-02T11:51:46Z</time></trkpt><trkpt lat="50.64322455016806" lon="15.814221492136499"><ele>544.6666666666666</ele><time>2026-05-02T11:51:47Z</time></trkpt><trkpt lat="50.6430586654787" lon="15.814181229941802"><ele>545.0</ele><time>2026-05-02T11:51:48Z</time></trkpt><trkpt lat="50.642883544064496" lon="15.81414087816148"><ele>544.0</ele><time>2026-05-02T11:51:49Z</time></trkpt><trkpt lat="50.64270585090867" lon="15.81412533409741"><ele>543.0</ele><time>2026-05-02T11:51:50Z</time></trkpt><trkpt lat="50.6425245884741" lon="15.814127242255998"><ele>542.0</ele><time>2026-05-02T11:51:51Z</time></trkpt><trkpt lat="50.64234343982293" lon="15.814133665192987"><ele>542.0</ele><time>2026-05-02T11:51:52Z</time></trkpt><trkpt lat="50.642162605697635" lon="15.81413284329063"><ele>542.0</ele><time>2026-05-02T11:51:53Z</time></trkpt><trkpt lat="50.6419806613168" lon="15.814139166727827"><ele>542.0</ele><time>2026-05-02T11:51:54Z</time></trkpt><trkpt lat="50.64179836931919" lon="15.814156036805052"><ele>541.6666666666666</ele><time>2026-05-02T11:51:55Z</time></trkpt><trkpt lat="50.641629256387965" lon="15.81416860007624"><ele>541.3333333333334</ele><time>2026-05-02T11:51:56Z</time></trkpt><trkpt lat="50.64145775892881" lon="15.814175456677482"><ele>541.0</ele><time>2026-05-02T11:51:57Z</time></trkpt><trkpt lat="50.64129233302504" lon="15.814204177244607"><ele>542.6666666666667</ele><time>2026-05-02T11:51:58Z</time></trkpt><trkpt lat="50.641122691593345" lon="15.81422594067192"><ele>544.3333333333334</ele><time>2026-05-02T11:51:59Z</time></trkpt><trkpt lat="50.640954889239374" lon="15.814229894883042"><ele>546.0</ele><time>2026-05-02T11:52:00Z</time></trkpt><trkpt lat="50.64078574878114" lon="15.814236461337199"><ele>546.0</ele><time>2026-05-02T11:52:01Z</time></trkpt><trkpt lat="50.640619489328685" lon="15.8142558708245"><ele>546.0</ele><time>2026-05-02T11:52:02Z</time></trkpt><trkpt lat="50.64045327900638" lon="15.814257217909867"><ele>546.0</ele><time>2026-05-02T11:52:03Z</time></trkpt><trkpt lat="50.640292349557335" lon="15.814246826348672"><ele>546.0</ele><time>2026-05-02T11:52:04Z</time></trkpt><trkpt lat="50.64013260787289" lon="15.814241269702876"><ele>546.0</ele><time>2026-05-02T11:52:05Z</time></trkpt><trkpt lat="50.639978988509256" lon="15.814225731845118"><ele>546.0</ele><time>2026-05-02T11:52:06Z</time></trkpt><trkpt lat="50.639817800620044" lon="15.814198980957265"><ele>546.0</ele><time>2026-05-02T11:52:07Z</time></trkpt><trkpt lat="50.63965408289902" lon="15.814167868500826"><ele>546.0</ele><time>2026-05-02T11:52:08Z</time></trkpt><trkpt lat="50.63948191295484" lon="15.81412010927919"><ele>546.0</ele><time>2026-05-02T11:52:09Z</time></trkpt><trkpt lat="50.639309935812754" lon="15.814063395117481"><ele>545.6666666666666</ele><time>2026-05-02T11:52:10Z</time></trkpt><trkpt lat="50.63914714829054" lon="15.814003717700956"><ele>545.3333333333333</ele><time>2026-05-02T11:52:11Z</time></trkpt><trkpt lat="50.638994781137264" lon="15.813932775848997"><ele>545.0</ele><time>2026-05-02T11:52:12Z</time></trkpt><trkpt lat="50.638848003017046" lon="15.813846903578677"><ele>545.0</ele><time>2026-05-02T11:52:13Z</time></trkpt><trkpt lat="50.63870039377168" lon="15.813764818628584"><ele>545.0</ele><time>2026-05-02T11:52:14Z</time></trkpt><trkpt lat="50.63855550913926" lon="15.81367319489731"><ele>545.0</ele><time>2026-05-02T11:52:15Z</time></trkpt><trkpt lat="50.63841387620724" lon="15.813572915553522"><ele>548.0</ele><time>2026-05-02T11:52:16Z</time></trkpt><trkpt lat="50.63827571075221" lon="15.813459116474176"><ele>551.0</ele><time>2026-05-02T11:52:17Z</time></trkpt><trkpt lat="50.638140230101826" lon="15.81334200912701"><ele>554.0</ele><time>2026-05-02T11:52:18Z</time></trkpt><trkpt lat="50.638004514029305" lon="15.813228978483274"><ele>554.0</ele><time>2026-05-02T11:52:19Z</time></trkpt><trkpt lat="50.637872841230795" lon="15.813129694444898"><ele>554.0</ele><time>2026-05-02T11:52:20Z</time></trkpt><trkpt lat="50.63773638943603" lon="15.813021692256777"><ele>554.0</ele><time>2026-05-02T11:52:21Z</time></trkpt><trkpt lat="50.63760076171726" lon="15.812914461785082"><ele>550.0</ele><time>2026-05-02T11:52:22Z</time></trkpt><trkpt lat="50.63746372031373" lon="15.812813704518003"><ele>546.0</ele><time>2026-05-02T11:52:23Z</time></trkpt><trkpt lat="50.63732585375886" lon="15.812717742459144"><ele>542.0</ele><time>2026-05-02T11:52:24Z</time></trkpt><trkpt lat="50.637186806464335" lon="15.812622067577117"><ele>542.0</ele><time>2026-05-02T11:52:25Z</time></trkpt><trkpt lat="50.63704664920806" lon="15.812536032295016"><ele>542.0</ele><time>2026-05-02T11:52:26Z</time></trkpt><trkpt lat="50.63690685180088" lon="15.812462058229215"><ele>542.0</ele><time>2026-05-02T11:52:27Z</time></trkpt><trkpt lat="50.636762762892076" lon="15.812396073017961"><ele>542.0</ele><time>2026-05-02T11:52:28Z</time></trkpt><trkpt lat="50.63662141903486" lon="15.812344229930181"><ele>540.0</ele><time>2026-05-02T11:52:29Z</time></trkpt><trkpt lat="50.63647607660134" lon="15.812299436029772"><ele>538.0</ele><time>2026-05-02T11:52:30Z</time></trkpt><trkpt lat="50.63632780463414" lon="15.812257872243654"><ele>536.0</ele><time>2026-05-02T11:52:31Z</time></trkpt><trkpt lat="50.63617939518577" lon="15.812235188764108"><ele>534.0</ele><time>2026-05-02T11:52:32Z</time></trkpt><trkpt lat="50.63602806582638" lon="15.812213354280463"><ele>533.6666666666666</ele><time>2026-05-02T11:52:33Z</time></trkpt><trkpt lat="50.63587489177424" lon="15.812208623043963"><ele>533.3333333333333</ele><time>2026-05-02T11:52:34Z</time></trkpt><trkpt lat="50.635723999091496" lon="15.81221056102557"><ele>533.0</ele><time>2026-05-02T11:52:35Z</time></trkpt><trkpt lat="50.635571813621475" lon="15.812219694013988"><ele>533.0</ele><time>2026-05-02T11:52:36Z</time></trkpt><trkpt lat="50.63542322016171" lon="15.812225605105299"><ele>533.0</ele><time>2026-05-02T11:52:37Z</time></trkpt><trkpt lat="50.635274189722814" lon="15.81224279071901"><ele>533.0</ele><time>2026-05-02T11:52:38Z</time></trkpt><trkpt lat="50.63511886435949" lon="15.812248012746808"><ele>532.6666666666666</ele><time>2026-05-02T11:52:39Z</time></trkpt><trkpt lat="50.63496033845635" lon="15.812261640374563"><ele>532.3333333333334</ele><time>2026-05-02T11:52:40Z</time></trkpt><trkpt lat="50.634802439778845" lon="15.81227237843669"><ele>532.0</ele><time>2026-05-02T11:52:41Z</time></trkpt><trkpt lat="50.63464661792547" lon="15.812271813960319"><ele>532.0</ele><time>2026-05-02T11:52:42Z</time></trkpt><trkpt lat="50.634492369387" lon="15.812264926878528"><ele>532.0</ele><time>2026-05-02T11:52:43Z</time></trkpt><trkpt lat="50.63434106810993" lon="15.81225028895918"><ele>532.0</ele><time>2026-05-02T11:52:44Z</time></trkpt><trkpt lat="50.634199580422106" lon="15.81222701559535"><ele>532.0</ele><time>2026-05-02T11:52:45Z</time></trkpt><trkpt lat="50.634058914531295" lon="15.812199425559292"><ele>531.25</ele><time>2026-05-02T11:52:46Z</time></trkpt><trkpt lat="50.633914509105885" lon="15.812158739036805"><ele>530.5</ele><time>2026-05-02T11:52:47Z</time></trkpt><trkpt lat="50.63378384533517" lon="15.812111614466092"><ele>529.75</ele><time>2026-05-02T11:52:48Z</time></trkpt><trkpt lat="50.63364668219057" lon="15.81206600049825"><ele>529.0</ele><time>2026-05-02T11:52:49Z</time></trkpt><trkpt lat="50.63350847612136" lon="15.812024265176186"><ele>528.75</ele><time>2026-05-02T11:52:50Z</time></trkpt><trkpt lat="50.63336332912623" lon="15.811975805010944"><ele>528.5</ele><time>2026-05-02T11:52:51Z</time></trkpt><trkpt lat="50.63322136053253" lon="15.81192056093704"><ele>528.25</ele><time>2026-05-02T11:52:52Z</time></trkpt><trkpt lat="50.633077924974515" lon="15.811851205914861"><ele>528.0</ele><time>2026-05-02T11:52:53Z</time></trkpt><trkpt lat="50.632930455135956" lon="15.811789307609967"><ele>528.6666666666666</ele><time>2026-05-02T11:52:54Z</time></trkpt><trkpt lat="50.632777476309876" lon="15.811745979388322"><ele>529.3333333333333</ele><time>2026-05-02T11:52:55Z</time></trkpt><trkpt lat="50.632626511793646" lon="15.811706797894983"><ele>530.0</ele><time>2026-05-02T11:52:56Z</time></trkpt><trkpt lat="50.6324690816962" lon="15.811672145767366"><ele>530.0</ele><time>2026-05-02T11:52:57Z</time></trkpt><trkpt lat="50.6323139049987" lon="15.811662848483598"><ele>530.0</ele><time>2026-05-02T11:52:58Z</time></trkpt><trkpt lat="50.63215528317546" lon="15.81168484490477"><ele>530.0</ele><time>2026-05-02T11:52:59Z</time></trkpt><trkpt lat="50.63199597048061" lon="15.811720095331589"><ele>529.3333333333333</ele><time>2026-05-02T11:53:00Z</time></trkpt><trkpt lat="50.631835916574055" lon="15.811755049900977"><ele>528.6666666666666</ele><time>2026-05-02T11:53:01Z</time></trkpt><trkpt lat="50.631676257214785" lon="15.811808817405606"><ele>528.0</ele><time>2026-05-02T11:53:02Z</time></trkpt><trkpt lat="50.63152027147079" lon="15.811878930623623"><ele>528.0</ele><time>2026-05-02T11:53:03Z</time></trkpt><trkpt lat="50.63136679356588" lon="15.811966230564057"><ele>528.0</ele><time>2026-05-02T11:53:04Z</time></trkpt><trkpt lat="50.63121569130149" lon="15.812059444950915"><ele>528.0</ele><time>2026-05-02T11:53:05Z</time></trkpt><trkpt lat="50.63106171195498" lon="15.812155667148716"><ele>528.6666666666666</ele><time>2026-05-02T11:53:06Z</time></trkpt><trkpt lat="50.63091071569977" lon="15.812254584073642"><ele>529.3333333333333</ele><time>2026-05-02T11:53:07Z</time></trkpt><trkpt lat="50.63076455456577" lon="15.812358999751094"><ele>530.0</ele><time>2026-05-02T11:53:08Z</time></trkpt><trkpt lat="50.63061623922417" lon="15.81246660649963"><ele>530.0</ele><time>2026-05-02T11:53:09Z</time></trkpt><trkpt lat="50.63046966489574" lon="15.812583061567386"><ele>530.0</ele><time>2026-05-02T11:53:10Z</time></trkpt><trkpt lat="50.63032909761173" lon="15.812710514690764"><ele>530.0</ele><time>2026-05-02T11:53:11Z</time></trkpt><trkpt lat="50.630183035364624" lon="15.812844440866218"><ele>529.0</ele><time>2026-05-02T11:53:12Z</time></trkpt><trkpt lat="50.63004088553237" lon="15.812978250472842"><ele>528.0</ele><time>2026-05-02T11:53:13Z</time></trkpt><trkpt lat="50.62990221345381" lon="15.813118992980593"><ele>527.0</ele><time>2026-05-02T11:53:14Z</time></trkpt><trkpt lat="50.62976279233218" lon="15.813267842545072"><ele>527.0</ele><time>2026-05-02T11:53:15Z</time></trkpt><trkpt lat="50.62962863597297" lon="15.813424375824715"><ele>527.0</ele><time>2026-05-02T11:53:16Z</time></trkpt><trkpt lat="50.62949589259616" lon="15.813590976459436"><ele>527.0</ele><time>2026-05-02T11:53:17Z</time></trkpt><trkpt lat="50.62936991384592" lon="15.81375665771632"><ele>525.6666666666666</ele><time>2026-05-02T11:53:18Z</time></trkpt><trkpt lat="50.629244258863466" lon="15.813933078125514"><ele>524.3333333333334</ele><time>2026-05-02T11:53:19Z</time></trkpt><trkpt lat="50.62912353193597" lon="15.81410521627289"><ele>523.0</ele><time>2026-05-02T11:53:20Z</time></trkpt><trkpt lat="50.62899995325596" lon="15.814284264958788"><ele>523.3333333333334</ele><time>2026-05-02T11:53:21Z</time></trkpt><trkpt lat="50.62887881383168" lon="15.814454375956737"><ele>523.6666666666666</ele><time>2026-05-02T11:53:22Z</time></trkpt><trkpt lat="50.62875656212534" lon="15.814640038171252"><ele>524.0</ele><time>2026-05-02T11:53:23Z</time></trkpt><trkpt lat="50.62864167584003" lon="15.814830179450226"><ele>523.3333333333333</ele><time>2026-05-02T11:53:24Z</time></trkpt><trkpt lat="50.62852433427055" lon="15.815010479580017"><ele>522.6666666666666</ele><time>2026-05-02T11:53:25Z</time></trkpt><trkpt lat="50.62840304452003" lon="15.81519698147791"><ele>522.0</ele><time>2026-05-02T11:53:26Z</time></trkpt><trkpt lat="50.62828167036872" lon="15.815382293901399"><ele>522.0</ele><time>2026-05-02T11:53:27Z</time></trkpt><trkpt lat="50.62814857878773" lon="15.815569454190658"><ele>522.0</ele><time>2026-05-02T11:53:28Z</time></trkpt><trkpt lat="50.62801514290883" lon="15.815749924394538"><ele>522.0</ele><time>2026-05-02T11:53:29Z</time></trkpt><trkpt lat="50.627873000452176" lon="15.815929003560258"><ele>522.0</ele><time>2026-05-02T11:53:30Z</time></trkpt><trkpt lat="50.62772594975045" lon="15.81609914119838"><ele>522.0</ele><time>2026-05-02T11:53:31Z</time></trkpt><trkpt lat="50.62757960955287" lon="15.816262347640624"><ele>522.0</ele><time>2026-05-02T11:53:32Z</time></trkpt><trkpt lat="50.627430971171755" lon="15.816425270529216"><ele>522.0</ele><time>2026-05-02T11:53:33Z</time></trkpt><trkpt lat="50.62727745289099" lon="15.816580671395007"><ele>522.0</ele><time>2026-05-02T11:53:34Z</time></trkpt><trkpt lat="50.62712733554334" lon="15.816710209432603"><ele>522.0</ele><time>2026-05-02T11:53:35Z</time></trkpt><trkpt lat="50.62698212108154" lon="15.816827738036551"><ele>523.3333333333334</ele><time>2026-05-02T11:53:36Z</time></trkpt><trkpt lat="50.6268424979985" lon="15.81693938273562"><ele>524.6666666666667</ele><time>2026-05-02T11:53:37Z</time></trkpt><trkpt lat="50.62669471525295" lon="15.817051165560384"><ele>526.0</ele><time>2026-05-02T11:53:38Z</time></trkpt><trkpt lat="50.626547920760714" lon="15.817167641726469"><ele>526.0</ele><time>2026-05-02T11:53:39Z</time></trkpt><trkpt lat="50.6263923241937" lon="15.817302768779905"><ele>526.0</ele><time>2026-05-02T11:53:40Z</time></trkpt><trkpt lat="50.62622178807876" lon="15.817427317982828"><ele>526.0</ele><time>2026-05-02T11:53:41Z</time></trkpt><trkpt lat="50.626051490055396" lon="15.817537309703015"><ele>527.3333333333334</ele><time>2026-05-02T11:53:42Z</time></trkpt><trkpt lat="50.625891748160065" lon="15.817640012984315"><ele>528.6666666666666</ele><time>2026-05-02T11:53:43Z</time></trkpt><trkpt lat="50.625729185384664" lon="15.817736373421498"><ele>530.0</ele><time>2026-05-02T11:53:44Z</time></trkpt><trkpt lat="50.62555496120672" lon="15.817828910249348"><ele>530.0</ele><time>2026-05-02T11:53:45Z</time></trkpt><trkpt lat="50.6253806013952" lon="15.81791604991477"><ele>530.0</ele><time>2026-05-02T11:53:46Z</time></trkpt><trkpt lat="50.62520283614945" lon="15.818009908740336"><ele>530.0</ele><time>2026-05-02T11:53:47Z</time></trkpt><trkpt lat="50.625025926263646" lon="15.81810242207381"><ele>527.3333333333333</ele><time>2026-05-02T11:53:48Z</time></trkpt><trkpt lat="50.62484309169667" lon="15.818183096224628"><ele>524.6666666666666</ele><time>2026-05-02T11:53:49Z</time></trkpt><trkpt lat="50.62467041963734" lon="15.818249149682414"><ele>522.0</ele><time>2026-05-02T11:53:50Z</time></trkpt><trkpt lat="50.62451262349647" lon="15.818303197035792"><ele>520.75</ele><time>2026-05-02T11:53:51Z</time></trkpt><trkpt lat="50.62436539124258" lon="15.818351787922483"><ele>519.5</ele><time>2026-05-02T11:53:52Z</time></trkpt><trkpt lat="50.624232335509475" lon="15.818388011015879"><ele>518.25</ele><time>2026-05-02T11:53:53Z</time></trkpt><trkpt lat="50.62410122955892" lon="15.818420379832077"><ele>517.0</ele><time>2026-05-02T11:53:54Z</time></trkpt><trkpt lat="50.62398280626431" lon="15.818449444299931"><ele>517.0</ele><time>2026-05-02T11:53:55Z</time></trkpt><trkpt lat="50.62386484570213" lon="15.818479488041701"><ele>517.0</ele><time>2026-05-02T11:53:56Z</time></trkpt><trkpt lat="50.623741490994405" lon="15.818499250231772"><ele>517.0</ele><time>2026-05-02T11:53:57Z</time></trkpt><trkpt lat="50.623612761927966" lon="15.818510945289388"><ele>517.0</ele><time>2026-05-02T11:53:58Z</time></trkpt><trkpt lat="50.62347931826613" lon="15.818535259828577"><ele>517.0</ele><time>2026-05-02T11:53:59Z</time></trkpt><trkpt lat="50.62334476964035" lon="15.818579221130202"><ele>517.0</ele><time>2026-05-02T11:54:00Z</time></trkpt><trkpt lat="50.62320904876441" lon="15.818599899600017"><ele>517.0</ele><time>2026-05-02T11:54:01Z</time></trkpt><trkpt lat="50.6230808956992" lon="15.818615081945044"><ele>517.0</ele><time>2026-05-02T11:54:02Z</time></trkpt><trkpt lat="50.62296609633238" lon="15.818623653613178"><ele>517.0</ele><time>2026-05-02T11:54:03Z</time></trkpt><trkpt lat="50.62285061389929" lon="15.818629555850288"><ele>517.0</ele><time>2026-05-02T11:54:04Z</time></trkpt><trkpt lat="50.62273559720926" lon="15.818633921043597"><ele>517.0</ele><time>2026-05-02T11:54:05Z</time></trkpt><trkpt lat="50.62262287681368" lon="15.818637139511326"><ele>517.0</ele><time>2026-05-02T11:54:06Z</time></trkpt><trkpt lat="50.62251822526198" lon="15.818638432346189"><ele>517.0</ele><time>2026-05-02T11:54:07Z</time></trkpt><trkpt lat="50.62241825573133" lon="15.81864166660131"><ele>516.0</ele><time>2026-05-02T11:54:08Z</time></trkpt><trkpt lat="50.622334227953345" lon="15.818641736559991"><ele>515.0</ele><time>2026-05-02T11:54:09Z</time></trkpt><trkpt lat="50.622261471896906" lon="15.818639400711723"><ele>514.0</ele><time>2026-05-02T11:54:10Z</time></trkpt><trkpt lat="50.62219512088189" lon="15.818637561822447"><ele>513.0</ele><time>2026-05-02T11:54:11Z</time></trkpt><trkpt lat="50.62211278356587" lon="15.818634509594704"><ele>512.0</ele><time>2026-05-02T11:54:12Z</time></trkpt><trkpt lat="50.622016201467694" lon="15.81862916653275"><ele>511.0</ele><time>2026-05-02T11:54:13Z</time></trkpt><trkpt lat="50.62191367147522" lon="15.81862239290477"><ele>510.8</ele><time>2026-05-02T11:54:14Z</time></trkpt><trkpt lat="50.621809637153575" lon="15.818614035387213"><ele>510.6</ele><time>2026-05-02T11:54:15Z</time></trkpt><trkpt lat="50.6217024945159" lon="15.818607466495365"><ele>510.4</ele><time>2026-05-02T11:54:16Z</time></trkpt><trkpt lat="50.62159297129312" lon="15.818599609980113"><ele>510.2</ele><time>2026-05-02T11:54:17Z</time></trkpt><trkpt lat="50.621487894993436" lon="15.81859160337437"><ele>510.0</ele><time>2026-05-02T11:54:18Z</time></trkpt><trkpt lat="50.621383302897435" lon="15.818586746290416"><ele>510.0</ele><time>2026-05-02T11:54:19Z</time></trkpt><trkpt lat="50.62127886592721" lon="15.818588037722158"><ele>510.0</ele><time>2026-05-02T11:54:20Z</time></trkpt><trkpt lat="50.62115541092737" lon="15.818583622189664"><ele>510.0</ele><time>2026-05-02T11:54:21Z</time></trkpt><trkpt lat="50.62102480040505" lon="15.818580787630317"><ele>510.0</ele><time>2026-05-02T11:54:22Z</time></trkpt><trkpt lat="50.620892698905486" lon="15.818582131286353"><ele>509.75</ele><time>2026-05-02T11:54:23Z</time></trkpt><trkpt lat="50.62075643331461" lon="15.818583205601179"><ele>509.5</ele><time>2026-05-02T11:54:24Z</time></trkpt><trkpt lat="50.62062658624553" lon="15.818582931791974"><ele>509.25</ele><time>2026-05-02T11:54:25Z</time></trkpt><trkpt lat="50.62050564480442" lon="15.818580700570017"><ele>509.0</ele><time>2026-05-02T11:54:26Z</time></trkpt><trkpt lat="50.6203826960974" lon="15.818584256371395"><ele>508.75</ele><time>2026-05-02T11:54:27Z</time></trkpt><trkpt lat="50.620257558050056" lon="15.818590598370026"><ele>508.5</ele><time>2026-05-02T11:54:28Z</time></trkpt><trkpt lat="50.62013422422892" lon="15.818593181921718"><ele>508.25</ele><time>2026-05-02T11:54:29Z</time></trkpt><trkpt lat="50.620012273646594" lon="15.818592762250702"><ele>508.0</ele><time>2026-05-02T11:54:30Z</time></trkpt><trkpt lat="50.61988974074122" lon="15.818602562246353"><ele>508.0</ele><time>2026-05-02T11:54:31Z</time></trkpt><trkpt lat="50.6197651342562" lon="15.818586655112698"><ele>508.0</ele><time>2026-05-02T11:54:32Z</time></trkpt><trkpt lat="50.61963682570966" lon="15.818597604882168"><ele>508.0</ele><time>2026-05-02T11:54:33Z</time></trkpt><trkpt lat="50.619510508229354" lon="15.818632791120242"><ele>508.0</ele><time>2026-05-02T11:54:34Z</time></trkpt><trkpt lat="50.61938016740576" lon="15.818646718303537"><ele>508.0</ele><time>2026-05-02T11:54:35Z</time></trkpt><trkpt lat="50.61924872773524" lon="15.818668045632508"><ele>508.0</ele><time>2026-05-02T11:54:36Z</time></trkpt><trkpt lat="50.61911878726779" lon="15.81868898404987"><ele>508.0</ele><time>2026-05-02T11:54:37Z</time></trkpt><trkpt lat="50.61898718523263" lon="15.818711091919935"><ele>508.0</ele><time>2026-05-02T11:54:38Z</time></trkpt><trkpt lat="50.618853601771214" lon="15.818742076573157"><ele>508.0</ele><time>2026-05-02T11:54:39Z</time></trkpt><trkpt lat="50.61871585622488" lon="15.81878047268733"><ele>508.0</ele><time>2026-05-02T11:54:40Z</time></trkpt><trkpt lat="50.618580282358344" lon="15.818816737765232"><ele>508.0</ele><time>2026-05-02T11:54:41Z</time></trkpt><trkpt lat="50.618455194988925" lon="15.818849675549881"><ele>508.0</ele><time>2026-05-02T11:54:42Z</time></trkpt><trkpt lat="50.618327375528885" lon="15.818894375676212"><ele>507.75</ele><time>2026-05-02T11:54:43Z</time></trkpt><trkpt lat="50.618196707123715" lon="15.818944942487827"><ele>507.5</ele><time>2026-05-02T11:54:44Z</time></trkpt><trkpt lat="50.61806636807446" lon="15.81899525335311"><ele>507.25</ele><time>2026-05-02T11:54:45Z</time></trkpt><trkpt lat="50.617934341793955" lon="15.819049054119867"><ele>507.0</ele><time>2026-05-02T11:54:46Z</time></trkpt><trkpt lat="50.617805096614774" lon="15.819111772217171"><ele>506.5</ele><time>2026-05-02T11:54:47Z</time></trkpt><trkpt lat="50.6176813757612" lon="15.819177700209977"><ele>506.0</ele><time>2026-05-02T11:54:48Z</time></trkpt><trkpt lat="50.6175576957454" lon="15.819237311677435"><ele>505.5</ele><time>2026-05-02T11:54:49Z</time></trkpt><trkpt lat="50.61744430511528" lon="15.81930930346937"><ele>505.0</ele><time>2026-05-02T11:54:50Z</time></trkpt><trkpt lat="50.61733524789327" lon="15.819376831450178"><ele>505.0</ele><time>2026-05-02T11:54:51Z</time></trkpt><trkpt lat="50.61722321905335" lon="15.819449277037014"><ele>505.0</ele><time>2026-05-02T11:54:52Z</time></trkpt><trkpt lat="50.61712123132332" lon="15.819520214462534"><ele>505.0</ele><time>2026-05-02T11:54:53Z</time></trkpt><trkpt lat="50.61701883851597" lon="15.819592187093042"><ele>505.0</ele><time>2026-05-02T11:54:54Z</time></trkpt><trkpt lat="50.61690938833252" lon="15.819676407153052"><ele>504.6</ele><time>2026-05-02T11:54:55Z</time></trkpt><trkpt lat="50.61680113695996" lon="15.819765983159936"><ele>504.2</ele><time>2026-05-02T11:54:56Z</time></trkpt><trkpt lat="50.616700318892505" lon="15.819847221739415"><ele>503.79999999999995</ele><time>2026-05-02T11:54:57Z</time></trkpt><trkpt lat="50.61660640221485" lon="15.819926670124687"><ele>503.4</ele><time>2026-05-02T11:54:58Z</time></trkpt><trkpt lat="50.616517759283994" lon="15.819999405710398"><ele>503.0</ele><time>2026-05-02T11:54:59Z</time></trkpt><trkpt lat="50.61642583218148" lon="15.820083451058908"><ele>503.0</ele><time>2026-05-02T11:55:00Z</time></trkpt><trkpt lat="50.616327436891346" lon="15.820167273943955"><ele>503.0</ele><time>2026-05-02T11:55:01Z</time></trkpt><trkpt lat="50.616226647969434" lon="15.820248544531848"><ele>503.0</ele><time>2026-05-02T11:55:02Z</time></trkpt><trkpt lat="50.61612840161492" lon="15.820334301990076"><ele>503.0</ele><time>2026-05-02T11:55:03Z</time></trkpt><trkpt lat="50.616029241540325" lon="15.820418638300806"><ele>502.59999999999997</ele><time>2026-05-02T11:55:04Z</time></trkpt><trkpt lat="50.61593329498889" lon="15.820495399939691"><ele>502.19999999999993</ele><time>2026-05-02T11:55:05Z</time></trkpt><trkpt lat="50.615835302239645" lon="15.820576737511118"><ele>501.8</ele><time>2026-05-02T11:55:06Z</time></trkpt><trkpt lat="50.6157396317385" lon="15.820658982416282"><ele>501.4</ele><time>2026-05-02T11:55:07Z</time></trkpt><trkpt lat="50.61564086932548" lon="15.820737639252052"><ele>501.0</ele><time>2026-05-02T11:55:08Z</time></trkpt><trkpt lat="50.6155401759767" lon="15.820819240553925"><ele>501.0</ele><time>2026-05-02T11:55:09Z</time></trkpt><trkpt lat="50.61544041789176" lon="15.820899640632334"><ele>501.0</ele><time>2026-05-02T11:55:10Z</time></trkpt><trkpt lat="50.615334162095934" lon="15.820989340005822"><ele>501.0</ele><time>2026-05-02T11:55:11Z</time></trkpt><trkpt lat="50.61522691668439" lon="15.821080641519234"><ele>501.0</ele><time>2026-05-02T11:55:12Z</time></trkpt><trkpt lat="50.61512306725582" lon="15.82116262637918"><ele>501.0</ele><time>2026-05-02T11:55:13Z</time></trkpt><trkpt lat="50.615026137454386" lon="15.821247837854115"><ele>501.0</ele><time>2026-05-02T11:55:14Z</time></trkpt><trkpt lat="50.614923748085886" lon="15.821332498442874"><ele>501.0</ele><time>2026-05-02T11:55:15Z</time></trkpt><trkpt lat="50.614822689296524" lon="15.821415108369957"><ele>501.0</ele><time>2026-05-02T11:55:16Z</time></trkpt><trkpt lat="50.61471747331581" lon="15.821481648950478"><ele>501.0</ele><time>2026-05-02T11:55:17Z</time></trkpt><trkpt lat="50.614624918828284" lon="15.821584610656846"><ele>501.0</ele><time>2026-05-02T11:55:18Z</time></trkpt><trkpt lat="50.6145272539791" lon="15.821665356642235"><ele>501.0</ele><time>2026-05-02T11:55:19Z</time></trkpt><trkpt lat="50.61442818948289" lon="15.821749827457149"><ele>501.0</ele><time>2026-05-02T11:55:20Z</time></trkpt><trkpt lat="50.61432777096452" lon="15.821827442378506"><ele>501.0</ele><time>2026-05-02T11:55:21Z</time></trkpt><trkpt lat="50.6142309716565" lon="15.821912531470842"><ele>501.0</ele><time>2026-05-02T11:55:22Z</time></trkpt><trkpt lat="50.61414089819026" lon="15.821985583591637"><ele>501.0</ele><time>2026-05-02T11:55:23Z</time></trkpt><trkpt lat="50.61405724109478" lon="15.822057493936716"><ele>501.0</ele><time>2026-05-02T11:55:24Z</time></trkpt><trkpt lat="50.61396764281233" lon="15.822141430659766"><ele>501.0</ele><time>2026-05-02T11:55:25Z</time></trkpt><trkpt lat="50.61386845736798" lon="15.822223201722995"><ele>501.0</ele><time>2026-05-02T11:55:26Z</time></trkpt><trkpt lat="50.61376461986976" lon="15.822307728644232"><ele>501.0</ele><time>2026-05-02T11:55:27Z</time></trkpt><trkpt lat="50.613667538356125" lon="15.822386343261828"><ele>501.0</ele><time>2026-05-02T11:55:28Z</time></trkpt><trkpt lat="50.61357314007329" lon="15.822466876179352"><ele>501.0</ele><time>2026-05-02T11:55:29Z</time></trkpt><trkpt lat="50.613475770242815" lon="15.82256250777189"><ele>501.0</ele><time>2026-05-02T11:55:30Z</time></trkpt><trkpt lat="50.613369452185054" lon="15.822663890650553"><ele>501.0</ele><time>2026-05-02T11:55:31Z</time></trkpt><trkpt lat="50.61325627888212" lon="15.822773922038044"><ele>501.0</ele><time>2026-05-02T11:55:32Z</time></trkpt><trkpt lat="50.61313622208589" lon="15.82288809660704"><ele>501.0</ele><time>2026-05-02T11:55:33Z</time></trkpt><trkpt lat="50.6130179909989" lon="15.82300778930351"><ele>501.0</ele><time>2026-05-02T11:55:34Z</time></trkpt><trkpt lat="50.612893645190105" lon="15.823140821364628"><ele>500.25</ele><time>2026-05-02T11:55:35Z</time></trkpt><trkpt lat="50.61278445837552" lon="15.82325597277693"><ele>499.5</ele><time>2026-05-02T11:55:36Z</time></trkpt><trkpt lat="50.61267090985308" lon="15.82338247542322"><ele>498.75</ele><time>2026-05-02T11:55:37Z</time></trkpt><trkpt lat="50.612558199666026" lon="15.823509591576478"><ele>498.0</ele><time>2026-05-02T11:55:38Z</time></trkpt><trkpt lat="50.61244856035109" lon="15.823628116250994"><ele>497.33333333333337</ele><time>2026-05-02T11:55:39Z</time></trkpt><trkpt lat="50.612338568991746" lon="15.823762502183257"><ele>496.6666666666667</ele><time>2026-05-02T11:55:40Z</time></trkpt><trkpt lat="50.61221238325674" lon="15.823923019182887"><ele>496.0</ele><time>2026-05-02T11:55:41Z</time></trkpt><trkpt lat="50.61208680777248" lon="15.824075146536488"><ele>496.0</ele><time>2026-05-02T11:55:42Z</time></trkpt><trkpt lat="50.61197441086493" lon="15.824217901758637"><ele>496.0</ele><time>2026-05-02T11:55:43Z</time></trkpt><trkpt lat="50.61184823889059" lon="15.824383159159735"><ele>496.0</ele><time>2026-05-02T11:55:44Z</time></trkpt><trkpt lat="50.61169339806519" lon="15.824594665621172"><ele>495.6666666666667</ele><time>2026-05-02T11:55:45Z</time></trkpt><trkpt lat="50.611526735361615" lon="15.82482707585089"><ele>495.33333333333337</ele><time>2026-05-02T11:55:46Z</time></trkpt><trkpt lat="50.611376179606744" lon="15.825012685684829"><ele>495.0</ele><time>2026-05-02T11:55:47Z</time></trkpt><trkpt lat="50.61125141066715" lon="15.82523509965532"><ele>494.5</ele><time>2026-05-02T11:55:48Z</time></trkpt><trkpt lat="50.611088912913694" lon="15.82548807434878"><ele>494.0</ele><time>2026-05-02T11:55:49Z</time></trkpt><trkpt lat="50.61092281726802" lon="15.825752644436431"><ele>493.5</ele><time>2026-05-02T11:55:50Z</time></trkpt><trkpt lat="50.61075854964015" lon="15.826033627920937"><ele>493.0</ele><time>2026-05-02T11:55:51Z</time></trkpt><trkpt lat="50.61058350105639" lon="15.8263296042236"><ele>493.0</ele><time>2026-05-02T11:55:52Z</time></trkpt><trkpt lat="50.6104034959424" lon="15.826640978645646"><ele>493.0</ele><time>2026-05-02T11:55:53Z</time></trkpt><trkpt lat="50.61020415106284" lon="15.826987235295064"><ele>492.5</ele><time>2026-05-02T11:55:54Z</time></trkpt><trkpt lat="50.61000933355451" lon="15.827384870250704"><ele>492.0</ele><time>2026-05-02T11:55:55Z</time></trkpt><trkpt lat="50.609812772802584" lon="15.827827946588542"><ele>491.5</ele><time>2026-05-02T11:55:56Z</time></trkpt><trkpt lat="50.609650369731206" lon="15.8282060281467"><ele>491.0</ele><time>2026-05-02T11:55:57Z</time></trkpt><trkpt lat="50.60950397222367" lon="15.82854753464557"><ele>490.5</ele><time>2026-05-02T11:55:58Z</time></trkpt><trkpt lat="50.60936632441342" lon="15.828890886598886"><ele>490.0</ele><time>2026-05-02T11:55:59Z</time></trkpt><trkpt lat="50.60923691338822" lon="15.829237568692276"><ele>489.0</ele><time>2026-05-02T11:56:00Z</time></trkpt><trkpt lat="50.60911298225702" lon="15.829579227637414"><ele>488.0</ele><time>2026-05-02T11:56:01Z</time></trkpt><trkpt lat="50.60899683632434" lon="15.82991986808327"><ele>488.5</ele><time>2026-05-02T11:56:02Z</time></trkpt><trkpt lat="50.60888110404142" lon="15.830263953266604"><ele>489.0</ele><time>2026-05-02T11:56:03Z</time></trkpt><trkpt lat="50.608773207823454" lon="15.83059225961892"><ele>489.0</ele><time>2026-05-02T11:56:04Z</time></trkpt><trkpt lat="50.60867918727758" lon="15.830933313149753"><ele>489.0</ele><time>2026-05-02T11:56:05Z</time></trkpt><trkpt lat="50.60858717974863" lon="15.831277361819598"><ele>488.5</ele><time>2026-05-02T11:56:06Z</time></trkpt><trkpt lat="50.60849909809016" lon="15.831628840816665"><ele>488.0</ele><time>2026-05-02T11:56:07Z</time></trkpt><trkpt lat="50.60841675510771" lon="15.831974199681952"><ele>488.0</ele><time>2026-05-02T11:56:08Z</time></trkpt><trkpt lat="50.60833422068244" lon="15.832330894585503"><ele>488.0</ele><time>2026-05-02T11:56:09Z</time></trkpt><trkpt lat="50.60825903991766" lon="15.832686956773994"><ele>488.0</ele><time>2026-05-02T11:56:10Z</time></trkpt><trkpt lat="50.608196047189885" lon="15.833058071915856"><ele>488.0</ele><time>2026-05-02T11:56:11Z</time></trkpt><trkpt lat="50.60811192617369" lon="15.833447787169117"><ele>487.5</ele><time>2026-05-02T11:56:12Z</time></trkpt><trkpt lat="50.608036906987785" lon="15.833864591055313"><ele>487.0</ele><time>2026-05-02T11:56:13Z</time></trkpt><trkpt lat="50.607982279722556" lon="15.83424362363522"><ele>486.0</ele><time>2026-05-02T11:56:14Z</time></trkpt><trkpt lat="50.6079252878061" lon="15.834605542345253"><ele>485.0</ele><time>2026-05-02T11:56:15Z</time></trkpt><trkpt lat="50.607876029350905" lon="15.834940063060131"><ele>484.0</ele><time>2026-05-02T11:56:16Z</time></trkpt><trkpt lat="50.60782641641722" lon="15.835252184072433"><ele>483.0</ele><time>2026-05-02T11:56:17Z</time></trkpt><trkpt lat="50.60777836406329" lon="15.835537063579329"><ele>482.0</ele><time>2026-05-02T11:56:18Z</time></trkpt><trkpt lat="50.60772923227148" lon="15.835818834546224"><ele>482.0</ele><time>2026-05-02T11:56:19Z</time></trkpt><trkpt lat="50.60768430324823" lon="15.836110357407309"><ele>482.0</ele><time>2026-05-02T11:56:20Z</time></trkpt><trkpt lat="50.607641620732814" lon="15.836408068431297"><ele>482.0</ele><time>2026-05-02T11:56:21Z</time></trkpt><trkpt lat="50.60759642538837" lon="15.836710992879334"><ele>482.3333333333333</ele><time>2026-05-02T11:56:22Z</time></trkpt><trkpt lat="50.6075494190365" lon="15.837008949227345"><ele>482.66666666666663</ele><time>2026-05-02T11:56:23Z</time></trkpt><trkpt lat="50.6075019075838" lon="15.837308976034672"><ele>483.0</ele><time>2026-05-02T11:56:24Z</time></trkpt><trkpt lat="50.60745400729428" lon="15.83760588969876"><ele>482.66666666666663</ele><time>2026-05-02T11:56:25Z</time></trkpt><trkpt lat="50.6074058689422" lon="15.837906468970695"><ele>482.3333333333333</ele><time>2026-05-02T11:56:26Z</time></trkpt><trkpt lat="50.6073578390591" lon="15.838206267969188"><ele>482.0</ele><time>2026-05-02T11:56:27Z</time></trkpt><trkpt lat="50.607310624266944" lon="15.838500312908861"><ele>481.66666666666663</ele><time>2026-05-02T11:56:28Z</time></trkpt><trkpt lat="50.6072651607114" lon="15.838786483074951"><ele>481.33333333333337</ele><time>2026-05-02T11:56:29Z</time></trkpt><trkpt lat="50.60721753323509" lon="15.839054441519764"><ele>481.0</ele><time>2026-05-02T11:56:30Z</time></trkpt><trkpt lat="50.60718088401004" lon="15.839310554693878"><ele>480.6666666666667</ele><time>2026-05-02T11:56:31Z</time></trkpt><trkpt lat="50.60714300102083" lon="15.839550223592717"><ele>480.33333333333337</ele><time>2026-05-02T11:56:32Z</time></trkpt><trkpt lat="50.60710535755054" lon="15.83978795840327"><ele>480.0</ele><time>2026-05-02T11:56:33Z</time></trkpt><trkpt lat="50.60707171695486" lon="15.840012191760012"><ele>480.0</ele><time>2026-05-02T11:56:34Z</time></trkpt><trkpt lat="50.607035946262876" lon="15.840234613226702"><ele>480.0</ele><time>2026-05-02T11:56:35Z</time></trkpt><trkpt lat="50.607002652683946" lon="15.840442652103565"><ele>480.0</ele><time>2026-05-02T11:56:36Z</time></trkpt><trkpt lat="50.60697355791746" lon="15.84063142034003"><ele>480.0</ele><time>2026-05-02T11:56:37Z</time></trkpt><trkpt lat="50.606944875440504" lon="15.84080312105149"><ele>480.2</ele><time>2026-05-02T11:56:38Z</time></trkpt><trkpt lat="50.60691970260414" lon="15.840970415467904"><ele>480.4</ele><time>2026-05-02T11:56:39Z</time></trkpt><trkpt lat="50.606893165902065" lon="15.84112148661895"><ele>480.6</ele><time>2026-05-02T11:56:40Z</time></trkpt><trkpt lat="50.60686706673066" lon="15.84127172910444"><ele>480.8</ele><time>2026-05-02T11:56:41Z</time></trkpt><trkpt lat="50.60683498821726" lon="15.841431347165381"><ele>481.0</ele><time>2026-05-02T11:56:42Z</time></trkpt><trkpt lat="50.606810365481934" lon="15.841590449164261"><ele>481.0</ele><time>2026-05-02T11:56:43Z</time></trkpt><trkpt lat="50.60679312478324" lon="15.841707602817507"><ele>481.0</ele><time>2026-05-02T11:56:44Z</time></trkpt><trkpt lat="50.60677425902233" lon="15.841830347710843"><ele>481.0</ele><time>2026-05-02T11:56:45Z</time></trkpt><trkpt lat="50.60674509815663" lon="15.841990061180582"><ele>481.0</ele><time>2026-05-02T11:56:46Z</time></trkpt><trkpt lat="50.60671320100084" lon="15.842178720705627"><ele>481.0</ele><time>2026-05-02T11:56:47Z</time></trkpt><trkpt lat="50.60668068627262" lon="15.84238309020514"><ele>480.75</ele><time>2026-05-02T11:56:48Z</time></trkpt><trkpt lat="50.60665189519169" lon="15.842590256125773"><ele>480.5</ele><time>2026-05-02T11:56:49Z</time></trkpt><trkpt lat="50.6066204498752" lon="15.842791885432856"><ele>480.25</ele><time>2026-05-02T11:56:50Z</time></trkpt><trkpt lat="50.60658718092166" lon="15.84299401764977"><ele>480.0</ele><time>2026-05-02T11:56:51Z</time></trkpt><trkpt lat="50.60655662526065" lon="15.843195596262841"><ele>479.33333333333337</ele><time>2026-05-02T11:56:52Z</time></trkpt><trkpt lat="50.606524235075376" lon="15.843402429011487"><ele>478.6666666666667</ele><time>2026-05-02T11:56:53Z</time></trkpt><trkpt lat="50.606486701924915" lon="15.843633014880508"><ele>478.0</ele><time>2026-05-02T11:56:54Z</time></trkpt><trkpt lat="50.606437057604914" lon="15.843938045169807"><ele>477.5</ele><time>2026-05-02T11:56:55Z</time></trkpt><trkpt lat="50.606378831055" lon="15.84431143680805"><ele>477.0</ele><time>2026-05-02T11:56:56Z</time></trkpt><trkpt lat="50.60631348209554" lon="15.844735345162968"><ele>477.0</ele><time>2026-05-02T11:56:57Z</time></trkpt><trkpt lat="50.6062416234793" lon="15.845198183227433"><ele>477.0</ele><time>2026-05-02T11:56:58Z</time></trkpt><trkpt lat="50.60617590781278" lon="15.845624851570378"><ele>475.0</ele><time>2026-05-02T11:56:59Z</time></trkpt><trkpt lat="50.60611908472161" lon="15.846004493082882"><ele>473.0</ele><time>2026-05-02T11:57:00Z</time></trkpt><trkpt lat="50.60605771489624" lon="15.846388053807829"><ele>473.0</ele><time>2026-05-02T11:57:01Z</time></trkpt><trkpt lat="50.605998689725254" lon="15.84675337164605"><ele>473.0</ele><time>2026-05-02T11:57:02Z</time></trkpt><trkpt lat="50.60594181036486" lon="15.84713560944143"><ele>473.0</ele><time>2026-05-02T11:57:03Z</time></trkpt><trkpt lat="50.60588195107186" lon="15.847554970749012"><ele>473.0</ele><time>2026-05-02T11:57:04Z</time></trkpt><trkpt lat="50.60580124899575" lon="15.847995427325362"><ele>473.0</ele><time>2026-05-02T11:57:05Z</time></trkpt><trkpt lat="50.60571590769697" lon="15.848440934996605"><ele>473.0</ele><time>2026-05-02T11:57:06Z</time></trkpt><trkpt lat="50.60563869976662" lon="15.848908574055667"><ele>472.5</ele><time>2026-05-02T11:57:07Z</time></trkpt><trkpt lat="50.60555890521554" lon="15.849411375423012"><ele>472.0</ele><time>2026-05-02T11:57:08Z</time></trkpt><trkpt lat="50.60547513922468" lon="15.84995321751651"><ele>471.5</ele><time>2026-05-02T11:57:09Z</time></trkpt><trkpt lat="50.605385927518064" lon="15.850515988351866"><ele>471.0</ele><time>2026-05-02T11:57:10Z</time></trkpt><trkpt lat="50.60530188544983" lon="15.851032851924412"><ele>471.0</ele><time>2026-05-02T11:57:11Z</time></trkpt><trkpt lat="50.60522838716187" lon="15.85150138915353"><ele>471.0</ele><time>2026-05-02T11:57:12Z</time></trkpt><trkpt lat="50.6051559224392" lon="15.851954455343359"><ele>471.0</ele><time>2026-05-02T11:57:13Z</time></trkpt><trkpt lat="50.605081507408094" lon="15.852417504119835"><ele>471.0</ele><time>2026-05-02T11:57:14Z</time></trkpt><trkpt lat="50.60500599518808" lon="15.852884676602338"><ele>472.0</ele><time>2026-05-02T11:57:15Z</time></trkpt><trkpt lat="50.60492858464887" lon="15.853354203213296"><ele>473.0</ele><time>2026-05-02T11:57:16Z</time></trkpt><trkpt lat="50.604852420851245" lon="15.853825055689665"><ele>473.0</ele><time>2026-05-02T11:57:17Z</time></trkpt><trkpt lat="50.60477644454217" lon="15.854301483432918"><ele>473.0</ele><time>2026-05-02T11:57:18Z</time></trkpt><trkpt lat="50.604699335180584" lon="15.854780998834457"><ele>474.0</ele><time>2026-05-02T11:57:19Z</time></trkpt><trkpt lat="50.604615498725224" lon="15.855257314703893"><ele>475.0</ele><time>2026-05-02T11:57:20Z</time></trkpt><trkpt lat="50.60452165630387" lon="15.85572806802032"><ele>471.5</ele><time>2026-05-02T11:57:21Z</time></trkpt><trkpt lat="50.60442169631198" lon="15.856196143336756"><ele>468.0</ele><time>2026-05-02T11:57:22Z</time></trkpt><trkpt lat="50.60431611180985" lon="15.856682636922715"><ele>469.0</ele><time>2026-05-02T11:57:23Z</time></trkpt><trkpt lat="50.604205726656005" lon="15.85714460262372"><ele>470.0</ele><time>2026-05-02T11:57:24Z</time></trkpt><trkpt lat="50.604090205461084" lon="15.857620861064683"><ele>470.0</ele><time>2026-05-02T11:57:25Z</time></trkpt><trkpt lat="50.6039694281625" lon="15.858094494756216"><ele>470.0</ele><time>2026-05-02T11:57:26Z</time></trkpt><trkpt lat="50.60385015126007" lon="15.858527650668508"><ele>470.0</ele><time>2026-05-02T11:57:27Z</time></trkpt><trkpt lat="50.6037256037811" lon="15.85897575862856"><ele>470.0</ele><time>2026-05-02T11:57:28Z</time></trkpt><trkpt lat="50.60359137776385" lon="15.859438572947022"><ele>467.0</ele><time>2026-05-02T11:57:29Z</time></trkpt><trkpt lat="50.6034543434063" lon="15.859905631402038"><ele>464.0</ele><time>2026-05-02T11:57:30Z</time></trkpt><trkpt lat="50.60331083599608" lon="15.860407737476244"><ele>464.0</ele><time>2026-05-02T11:57:31Z</time></trkpt><trkpt lat="50.60316188916006" lon="15.860948465481748"><ele>464.0</ele><time>2026-05-02T11:57:32Z</time></trkpt><trkpt lat="50.60299081401893" lon="15.861535079367272"><ele>464.0</ele><time>2026-05-02T11:57:33Z</time></trkpt><trkpt lat="50.602805107867496" lon="15.86213910930327"><ele>464.0</ele><time>2026-05-02T11:57:34Z</time></trkpt><trkpt lat="50.602613618577784" lon="15.862766567364222"><ele>464.0</ele><time>2026-05-02T11:57:35Z</time></trkpt><trkpt lat="50.60242225813324" lon="15.863414011577591"><ele>463.0</ele><time>2026-05-02T11:57:36Z</time></trkpt><trkpt lat="50.602223773810515" lon="15.864079449500585"><ele>463.0</ele><time>2026-05-02T11:57:37Z</time></trkpt><trkpt lat="50.602020938650064" lon="15.864753294341346"><ele>461.5</ele><time>2026-05-02T11:57:38Z</time></trkpt><trkpt lat="50.60183256217777" lon="15.865378565722763"><ele>460.0</ele><time>2026-05-02T11:57:39Z</time></trkpt><trkpt lat="50.60166738373162" lon="15.865936542085802"><ele>460.0</ele><time>2026-05-02T11:57:40Z</time></trkpt><trkpt lat="50.60150781226313" lon="15.866468883829846"><ele>460.0</ele><time>2026-05-02T11:57:41Z</time></trkpt><trkpt lat="50.60135037017939" lon="15.866990143222253"><ele>460.0</ele><time>2026-05-02T11:57:42Z</time></trkpt><trkpt lat="50.601198272251" lon="15.86749902055091"><ele>460.0</ele><time>2026-05-02T11:57:43Z</time></trkpt><trkpt lat="50.60104729339457" lon="15.868001189972643"><ele>458.5</ele><time>2026-05-02T11:57:44Z</time></trkpt><trkpt lat="50.600900390956454" lon="15.868491669017262"><ele>457.0</ele><time>2026-05-02T11:57:45Z</time></trkpt><trkpt lat="50.600756681572605" lon="15.868972333363557"><ele>458.5</ele><time>2026-05-02T11:57:46Z</time></trkpt><trkpt lat="50.60061782346629" lon="15.869439361218655"><ele>460.0</ele><time>2026-05-02T11:57:47Z</time></trkpt><trkpt lat="50.60048787810276" lon="15.869877054837255"><ele>459.0</ele><time>2026-05-02T11:57:48Z</time></trkpt><trkpt lat="50.600366646467606" lon="15.870279797912401"><ele>458.0</ele><time>2026-05-02T11:57:49Z</time></trkpt><trkpt lat="50.600255141406215" lon="15.870655990921101"><ele>457.5</ele><time>2026-05-02T11:57:50Z</time></trkpt><trkpt lat="50.600147419644735" lon="15.871020452618778"><ele>457.0</ele><time>2026-05-02T11:57:51Z</time></trkpt><trkpt lat="50.600042052043484" lon="15.871366830476273"><ele>457.0</ele><time>2026-05-02T11:57:52Z</time></trkpt><trkpt lat="50.59993731959027" lon="15.871716050287992"><ele>457.0</ele><time>2026-05-02T11:57:53Z</time></trkpt><trkpt lat="50.599835943686536" lon="15.872061782869046"><ele>458.5</ele><time>2026-05-02T11:57:54Z</time></trkpt><trkpt lat="50.59973095404238" lon="15.872408347296"><ele>460.0</ele><time>2026-05-02T11:57:55Z</time></trkpt><trkpt lat="50.59962823910551" lon="15.872750897794376"><ele>460.5</ele><time>2026-05-02T11:57:56Z</time></trkpt><trkpt lat="50.59952499311449" lon="15.873095464423143"><ele>461.0</ele><time>2026-05-02T11:57:57Z</time></trkpt><trkpt lat="50.599425751159" lon="15.873434702355539"><ele>459.3333333333333</ele><time>2026-05-02T11:57:58Z</time></trkpt><trkpt lat="50.59932864658924" lon="15.87375139546993"><ele>457.66666666666663</ele><time>2026-05-02T11:57:59Z</time></trkpt><trkpt lat="50.59923414727262" lon="15.874047439936072"><ele>456.0</ele><time>2026-05-02T11:58:00Z</time></trkpt><trkpt lat="50.59913202532401" lon="15.874342564452586"><ele>456.0</ele><time>2026-05-02T11:58:01Z</time></trkpt><trkpt lat="50.599023951756116" lon="15.874618708506219"><ele>456.0</ele><time>2026-05-02T11:58:02Z</time></trkpt><trkpt lat="50.598911072835925" lon="15.874862583620267"><ele>456.0</ele><time>2026-05-02T11:58:03Z</time></trkpt><trkpt lat="50.59878407779378" lon="15.875094764868766"><ele>455.66666666666663</ele><time>2026-05-02T11:58:04Z</time></trkpt><trkpt lat="50.59863979290007" lon="15.875314042769023"><ele>455.3333333333333</ele><time>2026-05-02T11:58:05Z</time></trkpt><trkpt lat="50.59848662086447" lon="15.875516148930393"><ele>455.0</ele><time>2026-05-02T11:58:06Z</time></trkpt><trkpt lat="50.59833291155627" lon="15.875704724248974"><ele>455.0</ele><time>2026-05-02T11:58:07Z</time></trkpt><trkpt lat="50.59818938686376" lon="15.87584714151222"><ele>455.0</ele><time>2026-05-02T11:58:08Z</time></trkpt><trkpt lat="50.59804659013241" lon="15.87598641458289"><ele>455.0</ele><time>2026-05-02T11:58:09Z</time></trkpt><trkpt lat="50.59790027102802" lon="15.876072865583955"><ele>454.8</ele><time>2026-05-02T11:58:10Z</time></trkpt><trkpt lat="50.597767329241975" lon="15.876161486379065"><ele>454.6</ele><time>2026-05-02T11:58:11Z</time></trkpt><trkpt lat="50.59765379926818" lon="15.876229119141135"><ele>454.4</ele><time>2026-05-02T11:58:12Z</time></trkpt><trkpt lat="50.5975705066937" lon="15.876272248516623"><ele>454.2</ele><time>2026-05-02T11:58:13Z</time></trkpt><trkpt lat="50.597508552882516" lon="15.876301720388252"><ele>454.0</ele><time>2026-05-02T11:58:14Z</time></trkpt><trkpt lat="50.597435235531194" lon="15.876331227257038"><ele>454.0</ele><time>2026-05-02T11:58:16Z</time></trkpt><trkpt lat="50.597375947681094" lon="15.876370107448485"><ele>454.0</ele><time>2026-05-02T11:58:21Z</time></trkpt><trkpt lat="50.59742686384294" lon="15.876647921775747"><ele>454.0</ele><time>2026-05-02T11:58:22Z</time></trkpt><trkpt lat="50.5974823747587" lon="15.87678672840466"><ele>454.0</ele><time>2026-05-02T11:58:23Z</time></trkpt><trkpt lat="50.597532975906624" lon="15.87695467863748"><ele>454.1666666666667</ele><time>2026-05-02T11:58:24Z</time></trkpt><trkpt lat="50.597564912924376" lon="15.877122573800573"><ele>454.33333333333337</ele><time>2026-05-02T11:58:25Z</time></trkpt><trkpt lat="50.597589637137645" lon="15.877250993594494"><ele>454.5</ele><time>2026-05-02T11:58:26Z</time></trkpt><trkpt lat="50.59762066294822" lon="15.877372461920189"><ele>454.66666666666663</ele><time>2026-05-02T11:58:27Z</time></trkpt><trkpt lat="50.59765148494514" lon="15.877493114471829"><ele>454.8333333333333</ele><time>2026-05-02T11:58:28Z</time></trkpt><trkpt lat="50.59766556883766" lon="15.877614249143056"><ele>455.0</ele><time>2026-05-02T11:58:29Z</time></trkpt><trkpt lat="50.59765341652259" lon="15.87771386661315"><ele>455.6</ele><time>2026-05-02T11:58:30Z</time></trkpt><trkpt lat="50.597610899826044" lon="15.877833908962828"><ele>456.2</ele><time>2026-05-02T11:58:32Z</time></trkpt><trkpt lat="50.59747023074188" lon="15.87788091443858"><ele>456.79999999999995</ele><time>2026-05-02T11:58:33Z</time></trkpt><trkpt lat="50.59736933413795" lon="15.877888443242634"><ele>457.4</ele><time>2026-05-02T11:58:34Z</time></trkpt><trkpt lat="50.597273509457914" lon="15.87790292482263"><ele>458.0</ele><time>2026-05-02T11:58:35Z</time></trkpt><trkpt lat="50.59717602998854" lon="15.877917033495702"><ele>458.0</ele><time>2026-05-02T11:58:36Z</time></trkpt><trkpt lat="50.59708089119067" lon="15.877930937073184"><ele>457.99999999999994</ele><time>2026-05-02T11:58:37Z</time></trkpt><trkpt lat="50.59698477638472" lon="15.877944326944194"><ele>457.99999999999994</ele><time>2026-05-02T11:58:38Z</time></trkpt><trkpt lat="50.596880807482854" lon="15.877961341902754"><ele>458.0</ele><time>2026-05-02T11:58:39Z</time></trkpt><trkpt lat="50.5967747795981" lon="15.877964835719974"><ele>458.0</ele><time>2026-05-02T11:58:40Z</time></trkpt><trkpt lat="50.59666606447659" lon="15.87796919207493"><ele>456.0</ele><time>2026-05-02T11:58:41Z</time></trkpt><trkpt lat="50.596546222877315" lon="15.87797863806932"><ele>454.0</ele><time>2026-05-02T11:58:42Z</time></trkpt><trkpt lat="50.596430864834325" lon="15.877980996539202"><ele>452.0</ele><time>2026-05-02T11:58:43Z</time></trkpt><trkpt lat="50.59631065847482" lon="15.878003734353209"><ele>450.0</ele><time>2026-05-02T11:58:44Z</time></trkpt><trkpt lat="50.59619853621627" lon="15.878015993300734"><ele>450.2</ele><time>2026-05-02T11:58:45Z</time></trkpt><trkpt lat="50.59608972599392" lon="15.878004795617843"><ele>450.4</ele><time>2026-05-02T11:58:46Z</time></trkpt><trkpt lat="50.595991865898036" lon="15.877997043178091"><ele>450.6</ele><time>2026-05-02T11:58:47Z</time></trkpt><trkpt lat="50.59589293491517" lon="15.87798508853255"><ele>450.8</ele><time>2026-05-02T11:58:48Z</time></trkpt><trkpt lat="50.59578859826949" lon="15.877976386405106"><ele>451.0</ele><time>2026-05-02T11:58:49Z</time></trkpt><trkpt lat="50.59569223762843" lon="15.877966660825022"><ele>451.0</ele><time>2026-05-02T11:58:50Z</time></trkpt><trkpt lat="50.59561363353971" lon="15.877918273685173"><ele>451.0</ele><time>2026-05-02T11:58:51Z</time></trkpt><trkpt lat="50.59553885675146" lon="15.877876716338264"><ele>451.0</ele><time>2026-05-02T11:58:52Z</time></trkpt><trkpt lat="50.59546898473767" lon="15.877792170016546"><ele>451.0</ele><time>2026-05-02T11:58:54Z</time></trkpt><trkpt lat="50.595590244859075" lon="15.877658532124599"><ele>451.0</ele><time>2026-05-02T11:59:05.001Z</time></trkpt><trkpt lat="50.59552890455997" lon="15.877220232012467"><ele>451.00000000000006</ele><time>2026-05-02T11:59:24Z</time></trkpt><trkpt lat="50.59549209662529" lon="15.87730851976477"><ele>451.0</ele><time>2026-05-02T11:59:46Z</time></trkpt><trkpt lat="50.595497131865216" lon="15.877411332172207"><ele>451.0</ele><time>2026-05-02T11:59:48Z</time></trkpt><trkpt lat="50.59550640066248" lon="15.877542502437155"><ele>451.0</ele><time>2026-05-02T11:59:51Z</time></trkpt><trkpt lat="50.59552299117159" lon="15.877643225503641"><ele>451.00000000000006</ele><time>2026-05-02T11:59:54Z</time></trkpt><trkpt lat="50.59546966445233" lon="15.877754892567749"><ele>451.0</ele><time>2026-05-02T12:00:41Z</time></trkpt><trkpt lat="50.595332895336135" lon="15.877687156606648"><ele>451.20000000000005</ele><time>2026-05-02T12:00:49Z</time></trkpt><trkpt lat="50.59529149741646" lon="15.87759586520779"><ele>451.40000000000003</ele><time>2026-05-02T12:00:56Z</time></trkpt><trkpt lat="50.595288959329075" lon="15.877488876005087"><ele>451.6</ele><time>2026-05-02T12:01:01Z</time></trkpt><trkpt lat="50.59510192848002" lon="15.877466257469798"><ele>451.8</ele><time>2026-05-02T12:04:21.062Z</time></trkpt><trkpt lat="50.5951962595605" lon="15.877543400060006"><ele>452.0</ele><time>2026-05-02T12:05:07.364Z</time></trkpt><trkpt lat="50.59527113965469" lon="15.877647127490038"><ele>451.99999999999994</ele><time>2026-05-02T12:05:08.655Z</time></trkpt><trkpt lat="50.5953300985232" lon="15.877598142629399"><ele>452.0</ele><time>2026-05-02T12:05:30Z</time></trkpt><trkpt lat="50.59522713230157" lon="15.877473402906325"><ele>452.0</ele><time>2026-05-02T12:05:32Z</time></trkpt><trkpt lat="50.59527079325044" lon="15.877370459313621"><ele>452.0</ele><time>2026-05-02T12:05:40Z</time></trkpt><trkpt lat="50.59528340552996" lon="15.877468674349094"><ele>451.99999999999994</ele><time>2026-05-02T12:50:13.999Z</time></trkpt><trkpt lat="50.595368456243925" lon="15.877531019542792"><ele>452.0</ele><time>2026-05-02T12:50:20.999Z</time></trkpt><trkpt lat="50.59542722509108" lon="15.877595689937246"><ele>452.0</ele><time>2026-05-02T12:50:24.999Z</time></trkpt><trkpt lat="50.595487020509275" lon="15.877646466835682"><ele>452.00000000000006</ele><time>2026-05-02T12:50:28.999Z</time></trkpt><trkpt lat="50.59541694666398" lon="15.877511801233995"><ele>452.00000000000006</ele><time>2026-05-02T12:50:45.029Z</time></trkpt><trkpt lat="50.59533495112591" lon="15.877316126934048"><ele>452.0</ele><time>2026-05-02T12:50:59.035Z</time></trkpt><trkpt lat="50.59539227455252" lon="15.877211679523707"><ele>452.0</ele><time>2026-05-02T12:51:04.034Z</time></trkpt><trkpt lat="50.5954303932403" lon="15.877127888949312"><ele>452.0</ele><time>2026-05-02T12:51:07.035Z</time></trkpt><trkpt lat="50.59536286275815" lon="15.87733027606077"><ele>452.0</ele><time>2026-05-02T12:51:25.444Z</time></trkpt><trkpt lat="50.59530592272502" lon="15.877542434985395"><ele>452.0</ele><time>2026-05-02T12:51:31.444Z</time></trkpt><trkpt lat="50.59519339763791" lon="15.877494765035303"><ele>452.0</ele><time>2026-05-02T12:52:12.999Z</time></trkpt><trkpt lat="50.59523597516886" lon="15.877406121349662"><ele>451.99999999999994</ele><time>2026-05-02T12:52:16.999Z</time></trkpt><trkpt lat="50.595299221030594" lon="15.877430242741562"><ele>452.0</ele><time>2026-05-02T13:04:09Z</time></trkpt><trkpt lat="50.59530972194254" lon="15.877532934162963"><ele>452.0</ele><time>2026-05-02T13:04:17Z</time></trkpt><trkpt lat="50.59533872904139" lon="15.877622154211997"><ele>452.0</ele><time>2026-05-02T13:04:26Z</time></trkpt><trkpt lat="50.595402390907324" lon="15.877583038240488"><ele>451.99999999999994</ele><time>2026-05-02T13:04:32Z</time></trkpt><trkpt lat="50.5954710285623" lon="15.87757397569967"><ele>452.0</ele><time>2026-05-02T13:04:38Z</time></trkpt><trkpt lat="50.5953835626781" lon="15.877752377402722"><ele>452.0</ele><time>2026-05-02T13:07:43Z</time></trkpt><trkpt lat="50.59527195999535" lon="15.877722247548927"><ele>452.00000000000006</ele><time>2026-05-02T13:07:45Z</time></trkpt><trkpt lat="50.59517772927835" lon="15.877659793818635"><ele>452.00000000000006</ele><time>2026-05-02T13:07:46Z</time></trkpt><trkpt lat="50.59507131098593" lon="15.877559948714936"><ele>452.0</ele><time>2026-05-02T13:07:47Z</time></trkpt><trkpt lat="50.59498327663325" lon="15.877486811408865"><ele>452.0</ele><time>2026-05-02T13:07:48Z</time></trkpt><trkpt lat="50.5949109309264" lon="15.877439252083018"><ele>451.8</ele><time>2026-05-02T13:07:49Z</time></trkpt><trkpt lat="50.59482917402226" lon="15.877402632857317"><ele>451.6</ele><time>2026-05-02T13:07:50Z</time></trkpt><trkpt lat="50.59473885668471" lon="15.877393133397039"><ele>451.40000000000003</ele><time>2026-05-02T13:07:51Z</time></trkpt><trkpt lat="50.5946431031207" lon="15.877436477071157"><ele>451.20000000000005</ele><time>2026-05-02T13:07:52Z</time></trkpt><trkpt lat="50.59457165528766" lon="15.87752710230315"><ele>451.0</ele><time>2026-05-02T13:07:53Z</time></trkpt><trkpt lat="50.59449242543969" lon="15.87766343866089"><ele>451.0</ele><time>2026-05-02T13:07:54Z</time></trkpt><trkpt lat="50.594400154057126" lon="15.87779870053315"><ele>451.0</ele><time>2026-05-02T13:07:55Z</time></trkpt><trkpt lat="50.59429313595201" lon="15.877925247246374"><ele>451.0</ele><time>2026-05-02T13:07:56Z</time></trkpt><trkpt lat="50.59422250616731" lon="15.878054585875196"><ele>451.0</ele><time>2026-05-02T13:07:57Z</time></trkpt><trkpt lat="50.59414971169698" lon="15.878155243369132"><ele>451.0</ele><time>2026-05-02T13:07:58Z</time></trkpt><trkpt lat="50.59408834466488" lon="15.87825079941782"><ele>451.0</ele><time>2026-05-02T13:07:59Z</time></trkpt><trkpt lat="50.59402145378726" lon="15.87834553512015"><ele>451.0</ele><time>2026-05-02T13:08:00Z</time></trkpt><trkpt lat="50.59395148629227" lon="15.878451914393064"><ele>451.0</ele><time>2026-05-02T13:08:01Z</time></trkpt><trkpt lat="50.59387859538491" lon="15.87855706083801"><ele>451.0</ele><time>2026-05-02T13:08:02Z</time></trkpt><trkpt lat="50.593803790868435" lon="15.878660916194594"><ele>451.0</ele><time>2026-05-02T13:08:03Z</time></trkpt><trkpt lat="50.593728806509745" lon="15.87877110129272"><ele>451.0</ele><time>2026-05-02T13:08:04Z</time></trkpt><trkpt lat="50.593654207027214" lon="15.878885195060354"><ele>451.0</ele><time>2026-05-02T13:08:05Z</time></trkpt><trkpt lat="50.59357809195015" lon="15.87899659671222"><ele>451.0</ele><time>2026-05-02T13:08:06Z</time></trkpt><trkpt lat="50.59349983233527" lon="15.879103289376582"><ele>451.0</ele><time>2026-05-02T13:08:07Z</time></trkpt><trkpt lat="50.59341996467399" lon="15.87921365123909"><ele>450.4</ele><time>2026-05-02T13:08:08Z</time></trkpt><trkpt lat="50.59334465134612" lon="15.879327446017404"><ele>449.8</ele><time>2026-05-02T13:08:09Z</time></trkpt><trkpt lat="50.59326957898459" lon="15.879438569737438"><ele>449.19999999999993</ele><time>2026-05-02T13:08:10Z</time></trkpt><trkpt lat="50.59319228376766" lon="15.879537551338645"><ele>448.59999999999997</ele><time>2026-05-02T13:08:11Z</time></trkpt><trkpt lat="50.59312378186541" lon="15.879631487878942"><ele>448.0</ele><time>2026-05-02T13:08:12Z</time></trkpt><trkpt lat="50.59305707530716" lon="15.879718561908168"><ele>448.0</ele><time>2026-05-02T13:08:13Z</time></trkpt><trkpt lat="50.59298701449857" lon="15.879806542136802"><ele>447.99999999999994</ele><time>2026-05-02T13:08:14Z</time></trkpt><trkpt lat="50.59291379693061" lon="15.879897381247204"><ele>447.99999999999994</ele><time>2026-05-02T13:08:15Z</time></trkpt><trkpt lat="50.5928299761909" lon="15.87997826361982"><ele>448.0</ele><time>2026-05-02T13:08:16Z</time></trkpt><trkpt lat="50.59275803710367" lon="15.880091660021105"><ele>448.0</ele><time>2026-05-02T13:08:17Z</time></trkpt><trkpt lat="50.592668296692466" lon="15.880184179065337"><ele>447.5</ele><time>2026-05-02T13:08:18Z</time></trkpt><trkpt lat="50.59257178885703" lon="15.880265881912676"><ele>447.0</ele><time>2026-05-02T13:08:19Z</time></trkpt><trkpt lat="50.592479177285135" lon="15.88036669670725"><ele>446.5</ele><time>2026-05-02T13:08:20Z</time></trkpt><trkpt lat="50.59238459336258" lon="15.880470713864485"><ele>446.0</ele><time>2026-05-02T13:08:21Z</time></trkpt><trkpt lat="50.59229592075024" lon="15.880594032168517"><ele>446.0</ele><time>2026-05-02T13:08:22Z</time></trkpt><trkpt lat="50.59219652154508" lon="15.880705020114673"><ele>446.0</ele><time>2026-05-02T13:08:23Z</time></trkpt><trkpt lat="50.592080256266236" lon="15.880806265708062"><ele>446.0</ele><time>2026-05-02T13:08:24Z</time></trkpt><trkpt lat="50.59199852861357" lon="15.880896451223471"><ele>446.0</ele><time>2026-05-02T13:08:25Z</time></trkpt><trkpt lat="50.59190512713256" lon="15.881017649245713"><ele>446.20000000000005</ele><time>2026-05-02T13:08:26Z</time></trkpt><trkpt lat="50.59180460607617" lon="15.881125409156166"><ele>446.40000000000003</ele><time>2026-05-02T13:08:27Z</time></trkpt><trkpt lat="50.591715940121134" lon="15.881221633660562"><ele>446.6</ele><time>2026-05-02T13:08:28Z</time></trkpt><trkpt lat="50.591636450283225" lon="15.881305040325854"><ele>446.8</ele><time>2026-05-02T13:08:29Z</time></trkpt><trkpt lat="50.59155699743707" lon="15.881389437214104"><ele>447.0</ele><time>2026-05-02T13:08:30Z</time></trkpt><trkpt lat="50.591478453567284" lon="15.881478559613862"><ele>447.0</ele><time>2026-05-02T13:08:31Z</time></trkpt><trkpt lat="50.59139880320185" lon="15.881566882477507"><ele>447.00000000000006</ele><time>2026-05-02T13:08:32Z</time></trkpt><trkpt lat="50.59131784707699" lon="15.881651642144979"><ele>447.00000000000006</ele><time>2026-05-02T13:08:33Z</time></trkpt><trkpt lat="50.59123946006175" lon="15.8817355587274"><ele>447.0</ele><time>2026-05-02T13:08:34Z</time></trkpt><trkpt lat="50.59116205538061" lon="15.881810810581891"><ele>447.0</ele><time>2026-05-02T13:08:35Z</time></trkpt><trkpt lat="50.59109288901384" lon="15.881885238402175"><ele>446.8</ele><time>2026-05-02T13:08:36Z</time></trkpt><trkpt lat="50.59102880282779" lon="15.881973050556224"><ele>446.6</ele><time>2026-05-02T13:08:37Z</time></trkpt><trkpt lat="50.590951928607446" lon="15.882064969098627"><ele>446.40000000000003</ele><time>2026-05-02T13:08:38Z</time></trkpt><trkpt lat="50.59087205267496" lon="15.882165044425651"><ele>446.20000000000005</ele><time>2026-05-02T13:08:39Z</time></trkpt><trkpt lat="50.59078498730812" lon="15.882258300444086"><ele>446.0</ele><time>2026-05-02T13:08:40Z</time></trkpt><trkpt lat="50.590701731567" lon="15.882360741722534"><ele>446.0</ele><time>2026-05-02T13:08:41Z</time></trkpt><trkpt lat="50.59060751252115" lon="15.882459354432209"><ele>446.0</ele><time>2026-05-02T13:08:42Z</time></trkpt><trkpt lat="50.59051241325735" lon="15.882550074928686"><ele>446.0</ele><time>2026-05-02T13:08:43Z</time></trkpt><trkpt lat="50.590412131259015" lon="15.88263570371198"><ele>446.0</ele><time>2026-05-02T13:08:44Z</time></trkpt><trkpt lat="50.59031520458799" lon="15.882717960848007"><ele>446.0</ele><time>2026-05-02T13:08:45Z</time></trkpt><trkpt lat="50.590214168122046" lon="15.882791076886754"><ele>445.8</ele><time>2026-05-02T13:08:46Z</time></trkpt><trkpt lat="50.590121237650834" lon="15.882847258988456"><ele>445.6</ele><time>2026-05-02T13:08:47Z</time></trkpt><trkpt lat="50.59004948371794" lon="15.882928716601013"><ele>445.4</ele><time>2026-05-02T13:08:48Z</time></trkpt><trkpt lat="50.58996145200068" lon="15.88298916117078"><ele>445.2</ele><time>2026-05-02T13:08:49Z</time></trkpt><trkpt lat="50.589860100970704" lon="15.883046843867584"><ele>445.0</ele><time>2026-05-02T13:08:50Z</time></trkpt><trkpt lat="50.58976025542336" lon="15.883140473037571"><ele>445.0</ele><time>2026-05-02T13:08:51Z</time></trkpt><trkpt lat="50.589651347036195" lon="15.883210951561864"><ele>445.0</ele><time>2026-05-02T13:08:52Z</time></trkpt><trkpt lat="50.589550600154126" lon="15.883286461117223"><ele>445.0</ele><time>2026-05-02T13:08:53Z</time></trkpt><trkpt lat="50.589460129955036" lon="15.883349791101471"><ele>445.0</ele><time>2026-05-02T13:08:54Z</time></trkpt><trkpt lat="50.58936298256115" lon="15.883412157711883"><ele>445.0</ele><time>2026-05-02T13:08:55Z</time></trkpt><trkpt lat="50.5892649961615" lon="15.883476015593546"><ele>445.2</ele><time>2026-05-02T13:08:56Z</time></trkpt><trkpt lat="50.58915998380023" lon="15.883517361814276"><ele>445.4</ele><time>2026-05-02T13:08:57Z</time></trkpt><trkpt lat="50.58906082047136" lon="15.883596519050574"><ele>445.6</ele><time>2026-05-02T13:08:58Z</time></trkpt><trkpt lat="50.58895441345966" lon="15.88365184048085"><ele>445.8</ele><time>2026-05-02T13:08:59Z</time></trkpt><trkpt lat="50.588844289444395" lon="15.883706783538894"><ele>446.0</ele><time>2026-05-02T13:09:00Z</time></trkpt><trkpt lat="50.58873771720768" lon="15.883759998854945"><ele>445.75</ele><time>2026-05-02T13:09:01Z</time></trkpt><trkpt lat="50.58863507673486" lon="15.883828237740119"><ele>445.5</ele><time>2026-05-02T13:09:02Z</time></trkpt><trkpt lat="50.58852881377094" lon="15.883899389205986"><ele>445.25</ele><time>2026-05-02T13:09:03Z</time></trkpt><trkpt lat="50.588424062720804" lon="15.883968550870524"><ele>445.0</ele><time>2026-05-02T13:09:04Z</time></trkpt><trkpt lat="50.588316074617055" lon="15.884042691516422"><ele>445.0</ele><time>2026-05-02T13:09:05Z</time></trkpt><trkpt lat="50.58821250424303" lon="15.88412487450289"><ele>445.0</ele><time>2026-05-02T13:09:06Z</time></trkpt><trkpt lat="50.58811125826316" lon="15.884208288930695"><ele>445.0</ele><time>2026-05-02T13:09:07Z</time></trkpt><trkpt lat="50.588009932457204" lon="15.88430518168916"><ele>445.0</ele><time>2026-05-02T13:09:08Z</time></trkpt><trkpt lat="50.58791588979351" lon="15.884415139661503"><ele>444.2</ele><time>2026-05-02T13:09:09Z</time></trkpt><trkpt lat="50.58782698122239" lon="15.884499646348804"><ele>443.4</ele><time>2026-05-02T13:09:10Z</time></trkpt><trkpt lat="50.5877539504522" lon="15.884590634188907"><ele>442.6</ele><time>2026-05-02T13:09:11Z</time></trkpt><trkpt lat="50.58767546716771" lon="15.88468396854811"><ele>441.8</ele><time>2026-05-02T13:09:12Z</time></trkpt><trkpt lat="50.58757980226882" lon="15.88481131360382"><ele>441.0</ele><time>2026-05-02T13:09:13Z</time></trkpt><trkpt lat="50.58748725333106" lon="15.884928137891716"><ele>441.0</ele><time>2026-05-02T13:09:14Z</time></trkpt><trkpt lat="50.58740761427144" lon="15.88503049379533"><ele>441.0</ele><time>2026-05-02T13:09:15Z</time></trkpt><trkpt lat="50.587333830898125" lon="15.885148910451543"><ele>441.0</ele><time>2026-05-02T13:09:16Z</time></trkpt><trkpt lat="50.58725553302272" lon="15.885261343928182"><ele>441.0</ele><time>2026-05-02T13:09:17Z</time></trkpt><trkpt lat="50.58717158183405" lon="15.885375216601783"><ele>441.0</ele><time>2026-05-02T13:09:18Z</time></trkpt><trkpt lat="50.587089236844875" lon="15.885493059139813"><ele>440.75</ele><time>2026-05-02T13:09:19Z</time></trkpt><trkpt lat="50.587009911208234" lon="15.885612349474966"><ele>440.5</ele><time>2026-05-02T13:09:20Z</time></trkpt><trkpt lat="50.58692719985334" lon="15.885735964340611"><ele>440.25</ele><time>2026-05-02T13:09:21Z</time></trkpt><trkpt lat="50.58684316531239" lon="15.885855499886976"><ele>440.0</ele><time>2026-05-02T13:09:22Z</time></trkpt><trkpt lat="50.586759127966936" lon="15.88597847407186"><ele>441.0</ele><time>2026-05-02T13:09:23Z</time></trkpt><trkpt lat="50.58667980952517" lon="15.886107656779108"><ele>442.0</ele><time>2026-05-02T13:09:24Z</time></trkpt><trkpt lat="50.58660000130044" lon="15.886232897678067"><ele>443.0</ele><time>2026-05-02T13:09:25Z</time></trkpt><trkpt lat="50.58651353481164" lon="15.886352353858594"><ele>444.0</ele><time>2026-05-02T13:09:26Z</time></trkpt><trkpt lat="50.58642279555241" lon="15.886467532406153"><ele>444.0</ele><time>2026-05-02T13:09:27Z</time></trkpt><trkpt lat="50.58633927312573" lon="15.886590105168892"><ele>444.0</ele><time>2026-05-02T13:09:28Z</time></trkpt><trkpt lat="50.586257087819455" lon="15.88671030798078"><ele>444.0</ele><time>2026-05-02T13:09:29Z</time></trkpt><trkpt lat="50.58618125953653" lon="15.886817621660668"><ele>444.0</ele><time>2026-05-02T13:09:30Z</time></trkpt><trkpt lat="50.58611427740544" lon="15.886914359790651"><ele>444.0</ele><time>2026-05-02T13:09:31Z</time></trkpt><trkpt lat="50.58604512037924" lon="15.887008293206865"><ele>443.4</ele><time>2026-05-02T13:09:32Z</time></trkpt><trkpt lat="50.585970647443226" lon="15.88710355021536"><ele>442.79999999999995</ele><time>2026-05-02T13:09:33Z</time></trkpt><trkpt lat="50.58589309320088" lon="15.887197848119614"><ele>442.20000000000005</ele><time>2026-05-02T13:09:34Z</time></trkpt><trkpt lat="50.58581590673351" lon="15.887306222887286"><ele>441.6</ele><time>2026-05-02T13:09:35Z</time></trkpt><trkpt lat="50.58572769352492" lon="15.88740830306303"><ele>441.0</ele><time>2026-05-02T13:09:36Z</time></trkpt><trkpt lat="50.58564389083348" lon="15.887526198211221"><ele>441.6</ele><time>2026-05-02T13:09:37Z</time></trkpt><trkpt lat="50.58554744299045" lon="15.887633360481335"><ele>442.20000000000005</ele><time>2026-05-02T13:09:38Z</time></trkpt><trkpt lat="50.58546601361727" lon="15.88776023347156"><ele>442.79999999999995</ele><time>2026-05-02T13:09:39Z</time></trkpt><trkpt lat="50.58539137145407" lon="15.887872801334272"><ele>443.4</ele><time>2026-05-02T13:09:40Z</time></trkpt><trkpt lat="50.58531267863318" lon="15.88796820299818"><ele>444.0</ele><time>2026-05-02T13:09:41Z</time></trkpt><trkpt lat="50.58523235238217" lon="15.888071409648207"><ele>443.0</ele><time>2026-05-02T13:09:42Z</time></trkpt><trkpt lat="50.58515334184651" lon="15.888181904740488"><ele>442.0</ele><time>2026-05-02T13:09:43Z</time></trkpt><trkpt lat="50.58506720799006" lon="15.888293689358473"><ele>441.0</ele><time>2026-05-02T13:09:44Z</time></trkpt><trkpt lat="50.584987539489916" lon="15.888398994885709"><ele>440.0</ele><time>2026-05-02T13:09:45Z</time></trkpt><trkpt lat="50.584918442942005" lon="15.888493906748531"><ele>439.0</ele><time>2026-05-02T13:09:46Z</time></trkpt><trkpt lat="50.584843812037924" lon="15.888565250577606"><ele>439.0</ele><time>2026-05-02T13:09:47Z</time></trkpt><trkpt lat="50.58477340660283" lon="15.888657444959582"><ele>439.0</ele><time>2026-05-02T13:09:48Z</time></trkpt><trkpt lat="50.5847096907658" lon="15.888761149868472"><ele>439.0</ele><time>2026-05-02T13:09:49Z</time></trkpt><trkpt lat="50.58464317963631" lon="15.888858826934824"><ele>439.0</ele><time>2026-05-02T13:09:50Z</time></trkpt><trkpt lat="50.58457350287248" lon="15.88895202834361"><ele>439.0</ele><time>2026-05-02T13:09:51Z</time></trkpt><trkpt lat="50.584502348333366" lon="15.889049745388796"><ele>439.0</ele><time>2026-05-02T13:09:52Z</time></trkpt><trkpt lat="50.58443076605874" lon="15.889143661102322"><ele>439.0</ele><time>2026-05-02T13:09:53Z</time></trkpt><trkpt lat="50.5843550994033" lon="15.889239477701658"><ele>439.0</ele><time>2026-05-02T13:09:54Z</time></trkpt><trkpt lat="50.584277427326825" lon="15.889335805274051"><ele>439.0</ele><time>2026-05-02T13:09:55Z</time></trkpt><trkpt lat="50.58419583427453" lon="15.889429401271565"><ele>439.0</ele><time>2026-05-02T13:09:56Z</time></trkpt><trkpt lat="50.584112529359" lon="15.889510058065424"><ele>439.00000000000006</ele><time>2026-05-02T13:09:57Z</time></trkpt><trkpt lat="50.58403459885953" lon="15.889577867350535"><ele>439.0</ele><time>2026-05-02T13:09:58Z</time></trkpt><trkpt lat="50.58396322640017" lon="15.889627856688248"><ele>439.0</ele><time>2026-05-02T13:09:59Z</time></trkpt><trkpt lat="50.58389296444275" lon="15.889674740366354"><ele>439.0</ele><time>2026-05-02T13:10:00Z</time></trkpt><trkpt lat="50.58381978575465" lon="15.889723322604233"><ele>439.00000000000006</ele><time>2026-05-02T13:10:01Z</time></trkpt><trkpt lat="50.58373743979909" lon="15.889763803827124"><ele>439.0</ele><time>2026-05-02T13:10:02Z</time></trkpt><trkpt lat="50.583648962221574" lon="15.889802975877233"><ele>438.6</ele><time>2026-05-02T13:10:03Z</time></trkpt><trkpt lat="50.58355545988671" lon="15.889839653449085"><ele>438.2</ele><time>2026-05-02T13:10:04Z</time></trkpt><trkpt lat="50.58345659978933" lon="15.889877977992885"><ele>437.80000000000007</ele><time>2026-05-02T13:10:05Z</time></trkpt><trkpt lat="50.58336213543433" lon="15.889920849081259"><ele>437.40000000000003</ele><time>2026-05-02T13:10:06Z</time></trkpt><trkpt lat="50.58328216579538" lon="15.8899653084197"><ele>437.0</ele><time>2026-05-02T13:10:07Z</time></trkpt><trkpt lat="50.58320270894665" lon="15.890007491874547"><ele>437.0</ele><time>2026-05-02T13:10:08Z</time></trkpt><trkpt lat="50.58311365331141" lon="15.890045471443495"><ele>437.00000000000006</ele><time>2026-05-02T13:10:09Z</time></trkpt><trkpt lat="50.58301717204429" lon="15.890094707927982"><ele>437.00000000000006</ele><time>2026-05-02T13:10:10Z</time></trkpt><trkpt lat="50.58292720152909" lon="15.89014126218989"><ele>437.0</ele><time>2026-05-02T13:10:11Z</time></trkpt><trkpt lat="50.58284571500697" lon="15.89018801856783"><ele>437.0</ele><time>2026-05-02T13:10:12Z</time></trkpt><trkpt lat="50.58277689610753" lon="15.890235518614762"><ele>437.16666666666663</ele><time>2026-05-02T13:10:13Z</time></trkpt><trkpt lat="50.58270741422295" lon="15.89027934808303"><ele>437.3333333333333</ele><time>2026-05-02T13:10:14Z</time></trkpt><trkpt lat="50.5826087490078" lon="15.890348766250346"><ele>437.5</ele><time>2026-05-02T13:10:16Z</time></trkpt><trkpt lat="50.582539296727795" lon="15.890394677070164"><ele>437.66666666666663</ele><time>2026-05-02T13:10:18Z</time></trkpt><trkpt lat="50.58247531627796" lon="15.890430147812799"><ele>437.8333333333333</ele><time>2026-05-02T13:10:20Z</time></trkpt><trkpt lat="50.58239428703442" lon="15.890444913729835"><ele>438.0</ele><time>2026-05-02T13:10:22Z</time></trkpt><trkpt lat="50.5823033738977" lon="15.890483118186749"><ele>438.0</ele><time>2026-05-02T13:10:24Z</time></trkpt><trkpt lat="50.58221577986853" lon="15.890599697952748"><ele>437.99999999999994</ele><time>2026-05-02T13:10:26Z</time></trkpt><trkpt lat="50.58214949924034" lon="15.890668125359895"><ele>437.99999999999994</ele><time>2026-05-02T13:10:27Z</time></trkpt><trkpt lat="50.582069007936056" lon="15.89072590899907"><ele>438.0</ele><time>2026-05-02T13:10:28Z</time></trkpt><trkpt lat="50.58197927790074" lon="15.890780761043654"><ele>438.0</ele><time>2026-05-02T13:10:29Z</time></trkpt><trkpt lat="50.58188895083359" lon="15.890847346023579"><ele>437.79999999999995</ele><time>2026-05-02T13:10:30Z</time></trkpt><trkpt lat="50.5818000961268" lon="15.890925316403429"><ele>437.59999999999997</ele><time>2026-05-02T13:10:31Z</time></trkpt><trkpt lat="50.58171234137013" lon="15.890992298198377"><ele>437.40000000000003</ele><time>2026-05-02T13:10:32Z</time></trkpt><trkpt lat="50.58162369467748" lon="15.89106779000747"><ele>437.20000000000005</ele><time>2026-05-02T13:10:33Z</time></trkpt><trkpt lat="50.58153089279" lon="15.891142160158696"><ele>437.0</ele><time>2026-05-02T13:10:34Z</time></trkpt><trkpt lat="50.58143720221409" lon="15.891207338113126"><ele>437.0</ele><time>2026-05-02T13:10:35Z</time></trkpt><trkpt lat="50.58134758869173" lon="15.891275367199155"><ele>437.00000000000006</ele><time>2026-05-02T13:10:36Z</time></trkpt><trkpt lat="50.5812527003245" lon="15.891344415580514"><ele>437.00000000000006</ele><time>2026-05-02T13:10:37Z</time></trkpt><trkpt lat="50.58114619747107" lon="15.891416110133415"><ele>437.0</ele><time>2026-05-02T13:10:38Z</time></trkpt><trkpt lat="50.58104031023263" lon="15.891491761886556"><ele>437.0</ele><time>2026-05-02T13:10:39Z</time></trkpt><trkpt lat="50.58092907786069" lon="15.891572086688921"><ele>436.75</ele><time>2026-05-02T13:10:40Z</time></trkpt><trkpt lat="50.5808100617143" lon="15.89165124372955"><ele>436.5</ele><time>2026-05-02T13:10:41Z</time></trkpt><trkpt lat="50.58068739924029" lon="15.891732172873969"><ele>436.25</ele><time>2026-05-02T13:10:42Z</time></trkpt><trkpt lat="50.58056626650569" lon="15.891817908754687"><ele>436.0</ele><time>2026-05-02T13:10:43Z</time></trkpt><trkpt lat="50.580460106837634" lon="15.891895217843569"><ele>436.0</ele><time>2026-05-02T13:10:44Z</time></trkpt><trkpt lat="50.580365921371715" lon="15.891962906251814"><ele>436.0</ele><time>2026-05-02T13:10:45Z</time></trkpt><trkpt lat="50.58027923837379" lon="15.892023101701183"><ele>436.0</ele><time>2026-05-02T13:10:46Z</time></trkpt><trkpt lat="50.58018791823712" lon="15.892087631895823"><ele>436.0</ele><time>2026-05-02T13:10:47Z</time></trkpt><trkpt lat="50.580078452991145" lon="15.892162134452972"><ele>436.0</ele><time>2026-05-02T13:10:48Z</time></trkpt><trkpt lat="50.579953419188264" lon="15.892241083700686"><ele>435.5</ele><time>2026-05-02T13:10:49Z</time></trkpt><trkpt lat="50.5798373655193" lon="15.892323490043072"><ele>435.0</ele><time>2026-05-02T13:10:50Z</time></trkpt><trkpt lat="50.579729918958144" lon="15.892403855681726"><ele>434.5</ele><time>2026-05-02T13:10:51Z</time></trkpt><trkpt lat="50.579619633141306" lon="15.892474867278793"><ele>434.0</ele><time>2026-05-02T13:10:52Z</time></trkpt><trkpt lat="50.57951019975165" lon="15.892555020076264"><ele>433.75</ele><time>2026-05-02T13:10:53Z</time></trkpt><trkpt lat="50.57939281627341" lon="15.892639010887681"><ele>433.5</ele><time>2026-05-02T13:10:54Z</time></trkpt><trkpt lat="50.57928509108279" lon="15.89270263333508"><ele>433.25</ele><time>2026-05-02T13:10:55Z</time></trkpt><trkpt lat="50.57919128251362" lon="15.89276878066745"><ele>433.0</ele><time>2026-05-02T13:10:56Z</time></trkpt><trkpt lat="50.57909461543351" lon="15.892839097211143"><ele>433.0</ele><time>2026-05-02T13:10:57Z</time></trkpt><trkpt lat="50.57899014574503" lon="15.892902364824577"><ele>433.0</ele><time>2026-05-02T13:10:58Z</time></trkpt><trkpt lat="50.57888054065919" lon="15.892959123768184"><ele>433.0</ele><time>2026-05-02T13:10:59Z</time></trkpt><trkpt lat="50.57878154768895" lon="15.893042807790014"><ele>433.0</ele><time>2026-05-02T13:11:00Z</time></trkpt><trkpt lat="50.57867283355156" lon="15.893101272194208"><ele>432.0</ele><time>2026-05-02T13:11:01Z</time></trkpt><trkpt lat="50.57856523439144" lon="15.893160761274387"><ele>431.0</ele><time>2026-05-02T13:11:02Z</time></trkpt><trkpt lat="50.578422017202115" lon="15.893289472971501"><ele>430.0</ele><time>2026-05-02T13:11:03Z</time></trkpt><trkpt lat="50.57822901900124" lon="15.893405621254143"><ele>430.0</ele><time>2026-05-02T13:11:04Z</time></trkpt><trkpt lat="50.57806651599416" lon="15.893508865640637"><ele>430.0</ele><time>2026-05-02T13:11:05Z</time></trkpt><trkpt lat="50.5779280706873" lon="15.893605745510444"><ele>430.0</ele><time>2026-05-02T13:11:06Z</time></trkpt><trkpt lat="50.5778095808271" lon="15.89369248686294"><ele>430.0</ele><time>2026-05-02T13:11:07Z</time></trkpt><trkpt lat="50.57769849608558" lon="15.893771796020465"><ele>430.0</ele><time>2026-05-02T13:11:08Z</time></trkpt><trkpt lat="50.57759836606502" lon="15.893846596612981"><ele>430.0</ele><time>2026-05-02T13:11:09Z</time></trkpt><trkpt lat="50.57749831227904" lon="15.893923722851182"><ele>430.0</ele><time>2026-05-02T13:11:10Z</time></trkpt><trkpt lat="50.577396601261455" lon="15.894013535916162"><ele>430.0</ele><time>2026-05-02T13:11:11Z</time></trkpt><trkpt lat="50.577295826523084" lon="15.894109511255932"><ele>430.0</ele><time>2026-05-02T13:11:12Z</time></trkpt><trkpt lat="50.57719161196816" lon="15.89421750503862"><ele>430.0</ele><time>2026-05-02T13:11:13Z</time></trkpt><trkpt lat="50.57709441438354" lon="15.894333982730295"><ele>430.0</ele><time>2026-05-02T13:11:14Z</time></trkpt><trkpt lat="50.576989459429754" lon="15.894452161672886"><ele>429.5</ele><time>2026-05-02T13:11:15Z</time></trkpt><trkpt lat="50.576886840007205" lon="15.894570632072766"><ele>429.0</ele><time>2026-05-02T13:11:16Z</time></trkpt><trkpt lat="50.57678264356838" lon="15.894694672230676"><ele>428.5</ele><time>2026-05-02T13:11:17Z</time></trkpt><trkpt lat="50.576682033949716" lon="15.894817600450864"><ele>428.0</ele><time>2026-05-02T13:11:18Z</time></trkpt><trkpt lat="50.57658176367849" lon="15.894950131508528"><ele>428.0</ele><time>2026-05-02T13:11:19Z</time></trkpt><trkpt lat="50.57648194084267" lon="15.895083634543862"><ele>428.0</ele><time>2026-05-02T13:11:20Z</time></trkpt><trkpt lat="50.576376981861785" lon="15.895203120317818"><ele>428.0</ele><time>2026-05-02T13:11:21Z</time></trkpt><trkpt lat="50.57626977579106" lon="15.89532319204991"><ele>428.0</ele><time>2026-05-02T13:11:22Z</time></trkpt><trkpt lat="50.57616210371144" lon="15.895437798431326"><ele>427.75</ele><time>2026-05-02T13:11:23Z</time></trkpt><trkpt lat="50.576061984528764" lon="15.895549105484543"><ele>427.5</ele><time>2026-05-02T13:11:24Z</time></trkpt><trkpt lat="50.575967903048294" lon="15.895657391831099"><ele>427.25</ele><time>2026-05-02T13:11:25Z</time></trkpt><trkpt lat="50.57586512205364" lon="15.89575802552026"><ele>427.0</ele><time>2026-05-02T13:11:26Z</time></trkpt><trkpt lat="50.57576545404611" lon="15.895864299331834"><ele>427.0</ele><time>2026-05-02T13:11:27Z</time></trkpt><trkpt lat="50.57565638938081" lon="15.895963180650659"><ele>427.0</ele><time>2026-05-02T13:11:28Z</time></trkpt><trkpt lat="50.57554754407437" lon="15.896054779914467"><ele>427.0</ele><time>2026-05-02T13:11:29Z</time></trkpt><trkpt lat="50.57543820531416" lon="15.896157304927081"><ele>427.0</ele><time>2026-05-02T13:11:30Z</time></trkpt><trkpt lat="50.575307746467296" lon="15.896246307860878"><ele>427.0</ele><time>2026-05-02T13:11:31Z</time></trkpt><trkpt lat="50.57518076745125" lon="15.896359898754026"><ele>427.0</ele><time>2026-05-02T13:11:32Z</time></trkpt><trkpt lat="50.57505234557208" lon="15.896471941045375"><ele>427.0</ele><time>2026-05-02T13:11:33Z</time></trkpt><trkpt lat="50.57492072625345" lon="15.89658007979103"><ele>427.0</ele><time>2026-05-02T13:11:34Z</time></trkpt><trkpt lat="50.574766191845264" lon="15.896649799933908"><ele>427.0</ele><time>2026-05-02T13:11:35Z</time></trkpt><trkpt lat="50.5746104123778" lon="15.896740696623315"><ele>427.0</ele><time>2026-05-02T13:11:36Z</time></trkpt><trkpt lat="50.57444730249834" lon="15.896787969437513"><ele>427.0</ele><time>2026-05-02T13:11:37Z</time></trkpt><trkpt lat="50.574285961604794" lon="15.896824811513694"><ele>426.5</ele><time>2026-05-02T13:11:38Z</time></trkpt><trkpt lat="50.57413162200542" lon="15.896853881573971"><ele>426.0</ele><time>2026-05-02T13:11:39Z</time></trkpt><trkpt lat="50.57399148038997" lon="15.896879907560432"><ele>425.5</ele><time>2026-05-02T13:11:40Z</time></trkpt><trkpt lat="50.57385726622676" lon="15.896907240036194"><ele>425.0</ele><time>2026-05-02T13:11:41Z</time></trkpt><trkpt lat="50.57372644871915" lon="15.896933761309274"><ele>425.0</ele><time>2026-05-02T13:11:42Z</time></trkpt><trkpt lat="50.57359434867219" lon="15.896955009353428"><ele>425.0</ele><time>2026-05-02T13:11:43Z</time></trkpt><trkpt lat="50.57345843830043" lon="15.896977688683027"><ele>425.0</ele><time>2026-05-02T13:11:44Z</time></trkpt><trkpt lat="50.57332717468312" lon="15.89700845539771"><ele>425.0</ele><time>2026-05-02T13:11:45Z</time></trkpt><trkpt lat="50.57319294176768" lon="15.897049023900314"><ele>425.0</ele><time>2026-05-02T13:11:46Z</time></trkpt><trkpt lat="50.5730621760817" lon="15.89708967990982"><ele>425.0</ele><time>2026-05-02T13:11:47Z</time></trkpt><trkpt lat="50.57293724337162" lon="15.897129652567514"><ele>425.0</ele><time>2026-05-02T13:11:48Z</time></trkpt><trkpt lat="50.572821342696145" lon="15.897165482617144"><ele>425.0</ele><time>2026-05-02T13:11:49Z</time></trkpt><trkpt lat="50.572717295746386" lon="15.897202247415446"><ele>424.6</ele><time>2026-05-02T13:11:50Z</time></trkpt><trkpt lat="50.572617558073304" lon="15.897233989578458"><ele>424.2</ele><time>2026-05-02T13:11:51Z</time></trkpt><trkpt lat="50.572524064917566" lon="15.897265117240986"><ele>423.79999999999995</ele><time>2026-05-02T13:11:52Z</time></trkpt><trkpt lat="50.572433986221355" lon="15.897306675175937"><ele>423.4</ele><time>2026-05-02T13:11:53Z</time></trkpt><trkpt lat="50.572330486642805" lon="15.897342614591093"><ele>423.0</ele><time>2026-05-02T13:11:54Z</time></trkpt><trkpt lat="50.57220390236049" lon="15.897386352493923"><ele>423.0</ele><time>2026-05-02T13:11:55Z</time></trkpt><trkpt lat="50.57208063420026" lon="15.897437625869708"><ele>423.0</ele><time>2026-05-02T13:11:56Z</time></trkpt><trkpt lat="50.57196887351846" lon="15.897475743745035"><ele>423.0</ele><time>2026-05-02T13:11:57Z</time></trkpt><trkpt lat="50.571858873257845" lon="15.89750681919462"><ele>423.0</ele><time>2026-05-02T13:11:58Z</time></trkpt><trkpt lat="50.571761578803496" lon="15.897545541220675"><ele>423.0</ele><time>2026-05-02T13:11:58.999Z</time></trkpt><trkpt lat="50.57166547270065" lon="15.89757256874941"><ele>423.0</ele><time>2026-05-02T13:11:59.999Z</time></trkpt><trkpt lat="50.571558798949205" lon="15.89760867972937"><ele>423.0</ele><time>2026-05-02T13:12:00.999Z</time></trkpt><trkpt lat="50.57144287278289" lon="15.897654900105962"><ele>423.0</ele><time>2026-05-02T13:12:01.999Z</time></trkpt><trkpt lat="50.57130251693391" lon="15.897713796222584"><ele>422.66666666666663</ele><time>2026-05-02T13:12:02.999Z</time></trkpt><trkpt lat="50.57113640261922" lon="15.897783664394979"><ele>422.3333333333333</ele><time>2026-05-02T13:12:03.999Z</time></trkpt><trkpt lat="50.57097457990517" lon="15.897832932337876"><ele>422.0</ele><time>2026-05-02T13:12:04.999Z</time></trkpt><trkpt lat="50.570822415498554" lon="15.897879380984165"><ele>422.0</ele><time>2026-05-02T13:12:05.999Z</time></trkpt><trkpt lat="50.57068524082939" lon="15.897968323456015"><ele>422.0</ele><time>2026-05-02T13:12:06.999Z</time></trkpt><trkpt lat="50.570553648338766" lon="15.898085810895337"><ele>422.0</ele><time>2026-05-02T13:12:07.999Z</time></trkpt><trkpt lat="50.570423371201734" lon="15.898204594557637"><ele>422.0</ele><time>2026-05-02T13:12:08.999Z</time></trkpt><trkpt lat="50.570296706868916" lon="15.89828628801617"><ele>422.0</ele><time>2026-05-02T13:12:09.999Z</time></trkpt><trkpt lat="50.57019052314721" lon="15.898369002464708"><ele>422.0</ele><time>2026-05-02T13:12:10.999Z</time></trkpt><trkpt lat="50.57009840817633" lon="15.89845979696938"><ele>422.0</ele><time>2026-05-02T13:12:11.999Z</time></trkpt><trkpt lat="50.57000955836471" lon="15.898534359233494"><ele>422.0</ele><time>2026-05-02T13:12:12.999Z</time></trkpt><trkpt lat="50.56992590561452" lon="15.898603078265975"><ele>422.0</ele><time>2026-05-02T13:12:13.999Z</time></trkpt><trkpt lat="50.569851574980056" lon="15.898666479258306"><ele>422.0</ele><time>2026-05-02T13:12:14.999Z</time></trkpt><trkpt lat="50.56978195603127" lon="15.89872609545276"><ele>422.0</ele><time>2026-05-02T13:12:15.999Z</time></trkpt><trkpt lat="50.56965199661777" lon="15.89876048406611"><ele>422.0</ele><time>2026-05-02T13:12:17.999Z</time></trkpt><trkpt lat="50.56958046526486" lon="15.89878181672161"><ele>422.0</ele><time>2026-05-02T13:12:18.999Z</time></trkpt><trkpt lat="50.56953428964896" lon="15.89885546601052"><ele>422.0</ele><time>2026-05-02T13:12:19.999Z</time></trkpt><trkpt lat="50.56951660206073" lon="15.898965949568352"><ele>422.0</ele><time>2026-05-02T13:12:20.999Z</time></trkpt><trkpt lat="50.569494997040266" lon="15.899093835056377"><ele>422.0</ele><time>2026-05-02T13:12:21.999Z</time></trkpt><trkpt lat="50.56940919295252" lon="15.899188623078624"><ele>422.0</ele><time>2026-05-02T13:12:22.999Z</time></trkpt><trkpt lat="50.56933079236131" lon="15.899341654100901"><ele>422.25</ele><time>2026-05-02T13:12:23.999Z</time></trkpt><trkpt lat="50.56924405054328" lon="15.899480776703669"><ele>422.5</ele><time>2026-05-02T13:12:24.999Z</time></trkpt><trkpt lat="50.5691697987691" lon="15.899622384825772"><ele>422.75</ele><time>2026-05-02T13:12:25.999Z</time></trkpt><trkpt lat="50.56909770820518" lon="15.899761107682993"><ele>423.0</ele><time>2026-05-02T13:12:26.999Z</time></trkpt><trkpt lat="50.56902038052229" lon="15.899895951312091"><ele>423.0</ele><time>2026-05-02T13:12:27.999Z</time></trkpt><trkpt lat="50.568942581230765" lon="15.900032938844626"><ele>423.0</ele><time>2026-05-02T13:12:28.999Z</time></trkpt><trkpt lat="50.56887385489333" lon="15.900151437326583"><ele>423.0</ele><time>2026-05-02T13:12:29.999Z</time></trkpt><trkpt lat="50.56880664474567" lon="15.900277072281261"><ele>423.0</ele><time>2026-05-02T13:12:30.999Z</time></trkpt><trkpt lat="50.56872638545998" lon="15.90040543087349"><ele>423.0</ele><time>2026-05-02T13:12:31.999Z</time></trkpt><trkpt lat="50.56864691896803" lon="15.900541402459945"><ele>422.75</ele><time>2026-05-02T13:12:32.999Z</time></trkpt><trkpt lat="50.568554735572064" lon="15.900651915939227"><ele>422.5</ele><time>2026-05-02T13:12:33.999Z</time></trkpt><trkpt lat="50.56844841322813" lon="15.900730034492042"><ele>422.25</ele><time>2026-05-02T13:12:34.999Z</time></trkpt><trkpt lat="50.568349728695736" lon="15.900819201561461"><ele>422.0</ele><time>2026-05-02T13:12:35.999Z</time></trkpt><trkpt lat="50.56825692138699" lon="15.900982013312946"><ele>421.75</ele><time>2026-05-02T13:12:36.999Z</time></trkpt><trkpt lat="50.568165313769775" lon="15.901175788793031"><ele>421.5</ele><time>2026-05-02T13:12:37.999Z</time></trkpt><trkpt lat="50.56808401338535" lon="15.901336720708914"><ele>421.25</ele><time>2026-05-02T13:12:38.999Z</time></trkpt><trkpt lat="50.56800946551264" lon="15.90148381603517"><ele>421.0</ele><time>2026-05-02T13:12:39.999Z</time></trkpt><trkpt lat="50.567937341029605" lon="15.901631263952625"><ele>421.25</ele><time>2026-05-02T13:12:40.999Z</time></trkpt><trkpt lat="50.567870640445555" lon="15.901791172680735"><ele>421.5</ele><time>2026-05-02T13:12:41.999Z</time></trkpt><trkpt lat="50.56778783987017" lon="15.901950444236467"><ele>421.75</ele><time>2026-05-02T13:12:42.999Z</time></trkpt><trkpt lat="50.56770704208901" lon="15.902088143436517"><ele>422.0</ele><time>2026-05-02T13:12:43.999Z</time></trkpt><trkpt lat="50.56764052467228" lon="15.902219990691306"><ele>422.0</ele><time>2026-05-02T13:12:44.999Z</time></trkpt><trkpt lat="50.567571721030625" lon="15.90236218298727"><ele>422.0</ele><time>2026-05-02T13:12:45.999Z</time></trkpt><trkpt lat="50.56750195864086" lon="15.902506136039447"><ele>422.0</ele><time>2026-05-02T13:12:46.999Z</time></trkpt><trkpt lat="50.56742857222637" lon="15.902656178880687"><ele>422.0</ele><time>2026-05-02T13:12:47.999Z</time></trkpt><trkpt lat="50.567354559170106" lon="15.902809035570746"><ele>421.5</ele><time>2026-05-02T13:12:48.999Z</time></trkpt><trkpt lat="50.567280267850165" lon="15.902953915915662"><ele>421.0</ele><time>2026-05-02T13:12:49.999Z</time></trkpt><trkpt lat="50.567213584289895" lon="15.903086004277883"><ele>420.5</ele><time>2026-05-02T13:12:50.999Z</time></trkpt><trkpt lat="50.567148934018924" lon="15.903222704955688"><ele>420.0</ele><time>2026-05-02T13:12:51.999Z</time></trkpt><trkpt lat="50.56707289489039" lon="15.90337767371783"><ele>420.0</ele><time>2026-05-02T13:12:52.999Z</time></trkpt><trkpt lat="50.566987245969855" lon="15.90354493487142"><ele>420.0</ele><time>2026-05-02T13:12:53.999Z</time></trkpt><trkpt lat="50.56690257516786" lon="15.903709657539853"><ele>420.0</ele><time>2026-05-02T13:12:54.999Z</time></trkpt><trkpt lat="50.56682043625355" lon="15.90386300946106"><ele>420.0</ele><time>2026-05-02T13:12:55.999Z</time></trkpt><trkpt lat="50.566736651314926" lon="15.904013642889804"><ele>420.0</ele><time>2026-05-02T13:12:56.999Z</time></trkpt><trkpt lat="50.56665150532" lon="15.904165073460918"><ele>420.0</ele><time>2026-05-02T13:12:57.999Z</time></trkpt><trkpt lat="50.56656712981459" lon="15.904315725824917"><ele>420.0</ele><time>2026-05-02T13:12:58.999Z</time></trkpt><trkpt lat="50.5664825150341" lon="15.904467999849993"><ele>420.0</ele><time>2026-05-02T13:12:59.999Z</time></trkpt><trkpt lat="50.56639371394084" lon="15.904619133840388"><ele>419.75</ele><time>2026-05-02T13:13:00.999Z</time></trkpt><trkpt lat="50.56630637567345" lon="15.904771678238504"><ele>419.5</ele><time>2026-05-02T13:13:01.999Z</time></trkpt><trkpt lat="50.56621875572052" lon="15.904925943970651"><ele>419.25</ele><time>2026-05-02T13:13:02.999Z</time></trkpt><trkpt lat="50.566131250107105" lon="15.905080307333206"><ele>419.0</ele><time>2026-05-02T13:13:03.999Z</time></trkpt><trkpt lat="50.56604227670906" lon="15.905233081166669"><ele>419.0</ele><time>2026-05-02T13:13:04.999Z</time></trkpt><trkpt lat="50.56595406122941" lon="15.905390837722058"><ele>419.0</ele><time>2026-05-02T13:13:05.999Z</time></trkpt><trkpt lat="50.5658654994983" lon="15.905545704476875"><ele>419.0</ele><time>2026-05-02T13:13:06.999Z</time></trkpt><trkpt lat="50.565775375148924" lon="15.905693842435833"><ele>419.0</ele><time>2026-05-02T13:13:07.999Z</time></trkpt><trkpt lat="50.56569286242759" lon="15.905825350118754"><ele>419.0</ele><time>2026-05-02T13:13:08.999Z</time></trkpt><trkpt lat="50.565619640393436" lon="15.905947707840639"><ele>419.0</ele><time>2026-05-02T13:13:09.999Z</time></trkpt><trkpt lat="50.56554291711637" lon="15.906079771761085"><ele>419.0</ele><time>2026-05-02T13:13:10.999Z</time></trkpt><trkpt lat="50.56546396885513" lon="15.906214805260397"><ele>419.0</ele><time>2026-05-02T13:13:11.999Z</time></trkpt><trkpt lat="50.565392550469646" lon="15.90634585736421"><ele>419.0</ele><time>2026-05-02T13:13:12.999Z</time></trkpt><trkpt lat="50.56532898365129" lon="15.906457207107445"><ele>418.99999999999994</ele><time>2026-05-02T13:13:13.999Z</time></trkpt><trkpt lat="50.56527172905128" lon="15.906553837408064"><ele>419.0</ele><time>2026-05-02T13:13:14.999Z</time></trkpt><trkpt lat="50.56521963181365" lon="15.906639144278765"><ele>419.0</ele><time>2026-05-02T13:13:15.999Z</time></trkpt><trkpt lat="50.5651678708226" lon="15.90672378503787"><ele>419.0</ele><time>2026-05-02T13:13:16.999Z</time></trkpt><trkpt lat="50.56512210173207" lon="15.906795801436072"><ele>418.99999999999994</ele><time>2026-05-02T13:13:17.999Z</time></trkpt><trkpt lat="50.56504345392358" lon="15.906929309649739"><ele>419.0</ele><time>2026-05-02T13:13:19.999Z</time></trkpt><trkpt lat="50.564973784484444" lon="15.906993412676409"><ele>418.99999999999994</ele><time>2026-05-02T13:13:20.999Z</time></trkpt><trkpt lat="50.56491037580549" lon="15.907048267304695"><ele>419.0</ele><time>2026-05-02T13:13:21.999Z</time></trkpt><trkpt lat="50.56485377372926" lon="15.907103227531492"><ele>419.0</ele><time>2026-05-02T13:13:22.999Z</time></trkpt><trkpt lat="50.56481501639951" lon="15.907189918076696"><ele>419.0</ele><time>2026-05-02T13:13:23.999Z</time></trkpt><trkpt lat="50.56484491894046" lon="15.90731544922416"><ele>418.99999999999994</ele><time>2026-05-02T13:13:24.999Z</time></trkpt><trkpt lat="50.56494552286381" lon="15.907451001898412"><ele>419.0</ele><time>2026-05-02T13:13:26.999Z</time></trkpt><trkpt lat="50.565021479316115" lon="15.907487921025647"><ele>419.0</ele><time>2026-05-02T13:13:27.999Z</time></trkpt><trkpt lat="50.56510832344761" lon="15.907547290547189"><ele>419.0</ele><time>2026-05-02T13:13:28.999Z</time></trkpt><trkpt lat="50.56518403661071" lon="15.90765900121823"><ele>419.0</ele><time>2026-05-02T13:13:29.999Z</time></trkpt><trkpt lat="50.565254400565884" lon="15.907812342765318"><ele>419.0</ele><time>2026-05-02T13:13:30.999Z</time></trkpt><trkpt lat="50.56532930071126" lon="15.908002047064041"><ele>418.5</ele><time>2026-05-02T13:13:31.999Z</time></trkpt><trkpt lat="50.56538502877704" lon="15.908193480344043"><ele>418.0</ele><time>2026-05-02T13:13:32.999Z</time></trkpt><trkpt lat="50.56541339137951" lon="15.908388247750757"><ele>417.5</ele><time>2026-05-02T13:13:33.999Z</time></trkpt><trkpt lat="50.56543043292489" lon="15.90861488653609"><ele>417.0</ele><time>2026-05-02T13:13:34.999Z</time></trkpt><trkpt lat="50.56542479210439" lon="15.908856568531425"><ele>417.0</ele><time>2026-05-02T13:13:35.999Z</time></trkpt><trkpt lat="50.56538987041903" lon="15.909110026254051"><ele>417.0</ele><time>2026-05-02T13:13:36.999Z</time></trkpt><trkpt lat="50.56531909692848" lon="15.909360939542024"><ele>417.0</ele><time>2026-05-02T13:13:37.999Z</time></trkpt><trkpt lat="50.56522338511412" lon="15.909608854843595"><ele>417.0</ele><time>2026-05-02T13:13:38.999Z</time></trkpt><trkpt lat="50.56512844453494" lon="15.909815087327951"><ele>417.0</ele><time>2026-05-02T13:13:39.999Z</time></trkpt><trkpt lat="50.565047688422645" lon="15.909999456973638"><ele>417.0</ele><time>2026-05-02T13:13:40.999Z</time></trkpt><trkpt lat="50.564977307892704" lon="15.910167363447181"><ele>417.0</ele><time>2026-05-02T13:13:41.999Z</time></trkpt><trkpt lat="50.56489790788488" lon="15.910307034599962"><ele>417.0</ele><time>2026-05-02T13:13:42.999Z</time></trkpt><trkpt lat="50.56485095152176" lon="15.9104585224705"><ele>417.0</ele><time>2026-05-02T13:13:43.999Z</time></trkpt><trkpt lat="50.56479422120563" lon="15.910577464821465"><ele>417.0</ele><time>2026-05-02T13:13:44.999Z</time></trkpt><trkpt lat="50.564753235500476" lon="15.910691890057633"><ele>417.0</ele><time>2026-05-02T13:13:45.999Z</time></trkpt><trkpt lat="50.56471170324002" lon="15.91082214067397"><ele>417.0</ele><time>2026-05-02T13:13:46.999Z</time></trkpt><trkpt lat="50.56466291826315" lon="15.91097215570999"><ele>416.75</ele><time>2026-05-02T13:13:47.999Z</time></trkpt><trkpt lat="50.56459882005561" lon="15.911135361565139"><ele>416.5</ele><time>2026-05-02T13:13:48.999Z</time></trkpt><trkpt lat="50.56451345792986" lon="15.911312249606182"><ele>416.25</ele><time>2026-05-02T13:13:49.999Z</time></trkpt><trkpt lat="50.56442420862789" lon="15.911495279557158"><ele>416.0</ele><time>2026-05-02T13:13:50.999Z</time></trkpt><trkpt lat="50.56432340407224" lon="15.91169256935126"><ele>415.0</ele><time>2026-05-02T13:13:51.999Z</time></trkpt><trkpt lat="50.56419821683819" lon="15.911894587183896"><ele>414.0</ele><time>2026-05-02T13:13:52.999Z</time></trkpt><trkpt lat="50.5640588813899" lon="15.912161696612827"><ele>413.0</ele><time>2026-05-02T13:13:53.999Z</time></trkpt><trkpt lat="50.563925972380055" lon="15.91242110153416"><ele>413.25</ele><time>2026-05-02T13:13:54.999Z</time></trkpt><trkpt lat="50.56383808649733" lon="15.912632561973965"><ele>413.5</ele><time>2026-05-02T13:13:55.999Z</time></trkpt><trkpt lat="50.563768206595974" lon="15.912795053213888"><ele>413.75</ele><time>2026-05-02T13:13:56.999Z</time></trkpt><trkpt lat="50.563711966749466" lon="15.912913949842043"><ele>414.0</ele><time>2026-05-02T13:13:57.999Z</time></trkpt><trkpt lat="50.56365473168081" lon="15.913039146153926"><ele>414.0</ele><time>2026-05-02T13:13:58.999Z</time></trkpt><trkpt lat="50.563585357215054" lon="15.913190663139197"><ele>414.0</ele><time>2026-05-02T13:13:59.999Z</time></trkpt><trkpt lat="50.56350552694491" lon="15.913338737511227"><ele>414.0</ele><time>2026-05-02T13:14:00.999Z</time></trkpt><trkpt lat="50.56344570088028" lon="15.9135203344574"><ele>414.0</ele><time>2026-05-02T13:14:01.999Z</time></trkpt><trkpt lat="50.56338727790542" lon="15.913691950774364"><ele>413.75</ele><time>2026-05-02T13:14:02.999Z</time></trkpt><trkpt lat="50.56334023649916" lon="15.913887556997269"><ele>413.5</ele><time>2026-05-02T13:14:03.999Z</time></trkpt><trkpt lat="50.56330989291915" lon="15.914063717288672"><ele>413.25</ele><time>2026-05-02T13:14:04.999Z</time></trkpt><trkpt lat="50.56327620788125" lon="15.91424518728522"><ele>413.0</ele><time>2026-05-02T13:14:05.999Z</time></trkpt><trkpt lat="50.563228722987155" lon="15.914430541068944"><ele>412.75</ele><time>2026-05-02T13:14:06.999Z</time></trkpt><trkpt lat="50.56318691613901" lon="15.914625479009961"><ele>412.5</ele><time>2026-05-02T13:14:07.999Z</time></trkpt><trkpt lat="50.5631470049293" lon="15.914824877704124"><ele>412.25</ele><time>2026-05-02T13:14:08.999Z</time></trkpt><trkpt lat="50.563090919937224" lon="15.915029872286405"><ele>412.0</ele><time>2026-05-02T13:14:09.999Z</time></trkpt><trkpt lat="50.56304856909694" lon="15.91523960340263"><ele>412.0</ele><time>2026-05-02T13:14:10.999Z</time></trkpt><trkpt lat="50.56300962989934" lon="15.91543463511208"><ele>412.0</ele><time>2026-05-02T13:14:11.999Z</time></trkpt><trkpt lat="50.56297590024055" lon="15.915610019888542"><ele>412.0</ele><time>2026-05-02T13:14:12.999Z</time></trkpt><trkpt lat="50.56294295763854" lon="15.915785127844018"><ele>412.0</ele><time>2026-05-02T13:14:13.999Z</time></trkpt><trkpt lat="50.56292301806215" lon="15.91596209662484"><ele>412.25</ele><time>2026-05-02T13:14:14.999Z</time></trkpt><trkpt lat="50.56288301377806" lon="15.916142543751551"><ele>412.5</ele><time>2026-05-02T13:14:15.999Z</time></trkpt><trkpt lat="50.56284581603635" lon="15.916333296920472"><ele>412.75</ele><time>2026-05-02T13:14:16.999Z</time></trkpt><trkpt lat="50.562806993419024" lon="15.91653496674848"><ele>413.0</ele><time>2026-05-02T13:14:17.999Z</time></trkpt><trkpt lat="50.562770377992436" lon="15.916728201123838"><ele>412.59999999999997</ele><time>2026-05-02T13:14:18.999Z</time></trkpt><trkpt lat="50.56273029151643" lon="15.916904762699152"><ele>412.2</ele><time>2026-05-02T13:14:19.999Z</time></trkpt><trkpt lat="50.562691020427955" lon="15.917059095259965"><ele>411.8</ele><time>2026-05-02T13:14:20.999Z</time></trkpt><trkpt lat="50.562675827434894" lon="15.917196473326747"><ele>411.4</ele><time>2026-05-02T13:14:21.999Z</time></trkpt><trkpt lat="50.5626621119043" lon="15.91731848727063"><ele>411.0</ele><time>2026-05-02T13:14:22.999Z</time></trkpt><trkpt lat="50.562665127207055" lon="15.91748248558847"><ele>411.0</ele><time>2026-05-02T13:14:24.999Z</time></trkpt><trkpt lat="50.562645584162745" lon="15.917588013710809"><ele>411.0</ele><time>2026-05-02T13:14:27.999Z</time></trkpt><trkpt lat="50.56256113243654" lon="15.917678388852398"><ele>411.0</ele><time>2026-05-02T13:14:29.999Z</time></trkpt><trkpt lat="50.56249413234975" lon="15.917641908845704"><ele>411.0</ele><time>2026-05-02T13:14:30.999Z</time></trkpt><trkpt lat="50.56239612219836" lon="15.91760285074596"><ele>411.0</ele><time>2026-05-02T13:14:31.999Z</time></trkpt><trkpt lat="50.56227886565169" lon="15.917565866677625"><ele>411.0</ele><time>2026-05-02T13:14:32.999Z</time></trkpt><trkpt lat="50.56215341581092" lon="15.91751725528982"><ele>411.0</ele><time>2026-05-02T13:14:33.999Z</time></trkpt><trkpt lat="50.56201627604256" lon="15.917480861218039"><ele>411.0</ele><time>2026-05-02T13:14:34.999Z</time></trkpt><trkpt lat="50.56189644843914" lon="15.917402847088242"><ele>411.0</ele><time>2026-05-02T13:14:35.999Z</time></trkpt><trkpt lat="50.561765586394756" lon="15.917358117788249"><ele>415.0</ele><time>2026-05-02T13:14:36.999Z</time></trkpt><trkpt lat="50.561634402803655" lon="15.917244529094653"><ele>419.0</ele><time>2026-05-02T13:14:37.999Z</time></trkpt><trkpt lat="50.561509605910935" lon="15.91715292586713"><ele>423.0</ele><time>2026-05-02T13:14:38.999Z</time></trkpt><trkpt lat="50.56135160602665" lon="15.91703240614198"><ele>424.0</ele><time>2026-05-02T13:14:39.999Z</time></trkpt><trkpt lat="50.5611708562474" lon="15.916841741558446"><ele>425.0</ele><time>2026-05-02T13:14:40.999Z</time></trkpt><trkpt lat="50.561014408442695" lon="15.916598529768965"><ele>426.0</ele><time>2026-05-02T13:14:41.999Z</time></trkpt><trkpt lat="50.56085187344955" lon="15.916395982465966"><ele>426.0</ele><time>2026-05-02T13:14:42.999Z</time></trkpt><trkpt lat="50.56071731224264" lon="15.916125521388391"><ele>426.0</ele><time>2026-05-02T13:14:43.999Z</time></trkpt><trkpt lat="50.560619926522556" lon="15.915917362223404"><ele>426.0</ele><time>2026-05-02T13:14:44.999Z</time></trkpt><trkpt lat="50.56053395071047" lon="15.915712120205482"><ele>426.33333333333337</ele><time>2026-05-02T13:14:45.999Z</time></trkpt><trkpt lat="50.56046362377613" lon="15.915464813059362"><ele>426.6666666666667</ele><time>2026-05-02T13:14:46.999Z</time></trkpt><trkpt lat="50.56040460103044" lon="15.91519491519939"><ele>427.0</ele><time>2026-05-02T13:14:47.999Z</time></trkpt><trkpt lat="50.56032629208223" lon="15.914995690534745"><ele>429.5</ele><time>2026-05-02T13:14:48.999Z</time></trkpt><trkpt lat="50.56025558287488" lon="15.914818907383227"><ele>432.0</ele><time>2026-05-02T13:14:49.999Z</time></trkpt><trkpt lat="50.56018925235866" lon="15.914634183521754"><ele>434.5</ele><time>2026-05-02T13:14:50.999Z</time></trkpt><trkpt lat="50.56011677585287" lon="15.91445301771449"><ele>437.0</ele><time>2026-05-02T13:14:51.999Z</time></trkpt><trkpt lat="50.560043090127685" lon="15.91427488753104"><ele>436.25</ele><time>2026-05-02T13:14:52.999Z</time></trkpt><trkpt lat="50.55997688425678" lon="15.91408396098909"><ele>435.5</ele><time>2026-05-02T13:14:53.999Z</time></trkpt><trkpt lat="50.55990786811805" lon="15.913901907822357"><ele>434.75</ele><time>2026-05-02T13:14:54.999Z</time></trkpt><trkpt lat="50.55983885334518" lon="15.913714061247456"><ele>434.0</ele><time>2026-05-02T13:14:55.999Z</time></trkpt><trkpt lat="50.55976498595642" lon="15.913530673698427"><ele>434.25</ele><time>2026-05-02T13:14:56.999Z</time></trkpt><trkpt lat="50.559701297481396" lon="15.913338729841401"><ele>434.5</ele><time>2026-05-02T13:14:57.999Z</time></trkpt><trkpt lat="50.559648692410946" lon="15.913146620585598"><ele>434.75</ele><time>2026-05-02T13:14:58.999Z</time></trkpt><trkpt lat="50.55958706902921" lon="15.91295914099111"><ele>435.0</ele><time>2026-05-02T13:14:59.999Z</time></trkpt><trkpt lat="50.55954017749624" lon="15.912763626979356"><ele>435.33333333333337</ele><time>2026-05-02T13:15:00.999Z</time></trkpt><trkpt lat="50.55948887051177" lon="15.912567370648699"><ele>435.6666666666667</ele><time>2026-05-02T13:15:01.999Z</time></trkpt><trkpt lat="50.559452821706074" lon="15.912348322710722"><ele>436.0</ele><time>2026-05-02T13:15:02.999Z</time></trkpt><trkpt lat="50.55942842472741" lon="15.91206858776034"><ele>436.0</ele><time>2026-05-02T13:15:03.999Z</time></trkpt><trkpt lat="50.55941315537008" lon="15.911799141734589"><ele>436.0</ele><time>2026-05-02T13:15:04.999Z</time></trkpt><trkpt lat="50.559414045073424" lon="15.911568880484339"><ele>436.0</ele><time>2026-05-02T13:15:05.999Z</time></trkpt><trkpt lat="50.559407386018314" lon="15.911376979818273"><ele>436.0</ele><time>2026-05-02T13:15:06.999Z</time></trkpt><trkpt lat="50.5593948581286" lon="15.911187467344222"><ele>436.0</ele><time>2026-05-02T13:15:07.999Z</time></trkpt><trkpt lat="50.55940063986088" lon="15.910975098263384"><ele>436.0</ele><time>2026-05-02T13:15:08.999Z</time></trkpt><trkpt lat="50.55939035712398" lon="15.910753679087275"><ele>436.0</ele><time>2026-05-02T13:15:09.999Z</time></trkpt><trkpt lat="50.55935855861079" lon="15.910550795490945"><ele>436.0</ele><time>2026-05-02T13:15:10.999Z</time></trkpt><trkpt lat="50.55934800294648" lon="15.9103782341935"><ele>436.75</ele><time>2026-05-02T13:15:11.999Z</time></trkpt><trkpt lat="50.559317421123005" lon="15.91020356831617"><ele>437.5</ele><time>2026-05-02T13:15:12.999Z</time></trkpt><trkpt lat="50.55927139294062" lon="15.91002118438045"><ele>438.25</ele><time>2026-05-02T13:15:13.999Z</time></trkpt><trkpt lat="50.55922132694031" lon="15.909840996606023"><ele>439.0</ele><time>2026-05-02T13:15:14.999Z</time></trkpt><trkpt lat="50.55916328643379" lon="15.909655222375626"><ele>439.75</ele><time>2026-05-02T13:15:15.999Z</time></trkpt><trkpt lat="50.55909374767948" lon="15.90947458301037"><ele>440.5</ele><time>2026-05-02T13:15:16.999Z</time></trkpt><trkpt lat="50.55901738644772" lon="15.909293931284362"><ele>441.25</ele><time>2026-05-02T13:15:17.999Z</time></trkpt><trkpt lat="50.558943969368414" lon="15.909134151306125"><ele>442.0</ele><time>2026-05-02T13:15:18.999Z</time></trkpt><trkpt lat="50.55888348550866" lon="15.908993578938675"><ele>442.1666666666667</ele><time>2026-05-02T13:15:19.999Z</time></trkpt><trkpt lat="50.55883914801309" lon="15.90888284290202"><ele>442.33333333333337</ele><time>2026-05-02T13:15:20.999Z</time></trkpt><trkpt lat="50.55880124578871" lon="15.908783567264026"><ele>442.5</ele><time>2026-05-02T13:15:21.999Z</time></trkpt><trkpt lat="50.558761276164006" lon="15.908692119427661"><ele>442.66666666666663</ele><time>2026-05-02T13:15:22.999Z</time></trkpt><trkpt lat="50.55871341118698" lon="15.908591650407432"><ele>442.8333333333333</ele><time>2026-05-02T13:15:23.999Z</time></trkpt><trkpt lat="50.55866386133297" lon="15.908494069235731"><ele>443.0</ele><time>2026-05-02T13:15:24.999Z</time></trkpt><trkpt lat="50.55862140751993" lon="15.908386906273263"><ele>444.0</ele><time>2026-05-02T13:15:25.999Z</time></trkpt><trkpt lat="50.55858918086756" lon="15.908287311279052"><ele>444.99999999999994</ele><time>2026-05-02T13:15:26.999Z</time></trkpt><trkpt lat="50.558531596665475" lon="15.908129250290187"><ele>445.99999999999994</ele><time>2026-05-02T13:15:28.999Z</time></trkpt><trkpt lat="50.558531712620216" lon="15.908016457102185"><ele>447.0</ele><time>2026-05-02T13:15:29.999Z</time></trkpt><trkpt lat="50.558540592996664" lon="15.907893557991331"><ele>448.0</ele><time>2026-05-02T13:15:30.999Z</time></trkpt><trkpt lat="50.558476519997136" lon="15.907718645989704"><ele>448.0</ele><time>2026-05-02T13:15:32.999Z</time></trkpt><trkpt lat="50.55842300386782" lon="15.907630907762831"><ele>447.99999999999994</ele><time>2026-05-02T13:15:33.999Z</time></trkpt><trkpt lat="50.558384815888985" lon="15.907499527489758"><ele>447.99999999999994</ele><time>2026-05-02T13:15:34.999Z</time></trkpt><trkpt lat="50.558374743761966" lon="15.90733840776313"><ele>448.0</ele><time>2026-05-02T13:15:35.999Z</time></trkpt><trkpt lat="50.558372544335434" lon="15.907165983194012"><ele>448.0</ele><time>2026-05-02T13:15:36.999Z</time></trkpt><trkpt lat="50.55836292464802" lon="15.906985507548438"><ele>448.0</ele><time>2026-05-02T13:15:37.999Z</time></trkpt><trkpt lat="50.55835266069003" lon="15.90679880064829"><ele>448.0</ele><time>2026-05-02T13:15:38.999Z</time></trkpt><trkpt lat="50.5583439018407" lon="15.906607076733136"><ele>448.0</ele><time>2026-05-02T13:15:39.999Z</time></trkpt><trkpt lat="50.55833089474494" lon="15.906410233024708"><ele>448.0</ele><time>2026-05-02T13:15:40.999Z</time></trkpt><trkpt lat="50.55832317896036" lon="15.906207765443105"><ele>448.25</ele><time>2026-05-02T13:15:41.999Z</time></trkpt><trkpt lat="50.55831774760925" lon="15.906014962521157"><ele>448.5</ele><time>2026-05-02T13:15:42.999Z</time></trkpt><trkpt lat="50.558305600472416" lon="15.905820164472075"><ele>448.75</ele><time>2026-05-02T13:15:43.999Z</time></trkpt><trkpt lat="50.5582916817302" lon="15.905608555474664"><ele>449.0</ele><time>2026-05-02T13:15:44.999Z</time></trkpt><trkpt lat="50.5582781348372" lon="15.905391031314348"><ele>449.0</ele><time>2026-05-02T13:15:46Z</time></trkpt><trkpt lat="50.558265748930765" lon="15.90517591314037"><ele>449.0</ele><time>2026-05-02T13:15:47Z</time></trkpt><trkpt lat="50.558257026137504" lon="15.904961805479624"><ele>449.0</ele><time>2026-05-02T13:15:48Z</time></trkpt><trkpt lat="50.55825037255524" lon="15.904752371657485"><ele>449.0</ele><time>2026-05-02T13:15:49Z</time></trkpt><trkpt lat="50.558246197079725" lon="15.90457068653349"><ele>448.79999999999995</ele><time>2026-05-02T13:15:50Z</time></trkpt><trkpt lat="50.55823708629797" lon="15.904399550123504"><ele>448.59999999999997</ele><time>2026-05-02T13:15:51Z</time></trkpt><trkpt lat="50.558228786747385" lon="15.904247644576087"><ele>448.4</ele><time>2026-05-02T13:15:52Z</time></trkpt><trkpt lat="50.55822383702068" lon="15.904086079494236"><ele>448.2</ele><time>2026-05-02T13:15:53Z</time></trkpt><trkpt lat="50.55821493881048" lon="15.90390444300524"><ele>448.0</ele><time>2026-05-02T13:15:54Z</time></trkpt><trkpt lat="50.558210548529395" lon="15.90372731606733"><ele>447.83333333333337</ele><time>2026-05-02T13:15:55Z</time></trkpt><trkpt lat="50.558208063663706" lon="15.903567298539379"><ele>447.6666666666667</ele><time>2026-05-02T13:15:56Z</time></trkpt><trkpt lat="50.55819873530496" lon="15.903425422489416"><ele>447.5</ele><time>2026-05-02T13:15:57Z</time></trkpt><trkpt lat="50.55819495717792" lon="15.903288181955862"><ele>447.33333333333337</ele><time>2026-05-02T13:15:58Z</time></trkpt><trkpt lat="50.55820016856861" lon="15.903159456037297"><ele>447.1666666666667</ele><time>2026-05-02T13:15:59Z</time></trkpt><trkpt lat="50.55820713633442" lon="15.903037685754146"><ele>447.0</ele><time>2026-05-02T13:16:00Z</time></trkpt><trkpt lat="50.558211124941536" lon="15.902924305264785"><ele>446.20000000000005</ele><time>2026-05-02T13:16:01Z</time></trkpt><trkpt lat="50.55821985709076" lon="15.902775673185262"><ele>445.40000000000003</ele><time>2026-05-02T13:16:03Z</time></trkpt><trkpt lat="50.55824036184269" lon="15.902624220566503"><ele>444.59999999999997</ele><time>2026-05-02T13:16:06Z</time></trkpt><trkpt lat="50.558279524822126" lon="15.902473553425823"><ele>443.79999999999995</ele><time>2026-05-02T13:16:08Z</time></trkpt><trkpt lat="50.558282895568226" lon="15.90229447815718"><ele>443.0</ele><time>2026-05-02T13:16:10Z</time></trkpt><trkpt lat="50.55822781988746" lon="15.902186131064932"><ele>442.59999999999997</ele><time>2026-05-02T13:16:12Z</time></trkpt><trkpt lat="50.55815890965843" lon="15.902109403220196"><ele>442.19999999999993</ele><time>2026-05-02T13:16:14Z</time></trkpt><trkpt lat="50.55805937821754" lon="15.9022243150658"><ele>441.8</ele><time>2026-05-02T13:16:15Z</time></trkpt><trkpt lat="50.55799473466101" lon="15.902301240195161"><ele>441.4</ele><time>2026-05-02T13:16:16Z</time></trkpt><trkpt lat="50.55791576455395" lon="15.902359221425403"><ele>441.0</ele><time>2026-05-02T13:16:17Z</time></trkpt><trkpt lat="50.55781283066657" lon="15.902377416661356"><ele>441.0</ele><time>2026-05-02T13:16:18Z</time></trkpt><trkpt lat="50.55770183049814" lon="15.902385224790708"><ele>441.0</ele><time>2026-05-02T13:16:19Z</time></trkpt><trkpt lat="50.55760174342534" lon="15.902395018647743"><ele>441.0</ele><time>2026-05-02T13:16:20Z</time></trkpt><trkpt lat="50.55750241025292" lon="15.902399503009145"><ele>441.0</ele><time>2026-05-02T13:16:21Z</time></trkpt><trkpt lat="50.55737765487804" lon="15.90244100667627"><ele>441.0</ele><time>2026-05-02T13:16:22Z</time></trkpt><trkpt lat="50.55722043579008" lon="15.902511312255074"><ele>442.33333333333337</ele><time>2026-05-02T13:16:23Z</time></trkpt><trkpt lat="50.55701543219103" lon="15.902565456415656"><ele>443.6666666666667</ele><time>2026-05-02T13:16:24Z</time></trkpt><trkpt lat="50.55680509386757" lon="15.90266527186234"><ele>445.0</ele><time>2026-05-02T13:16:25Z</time></trkpt><trkpt lat="50.556600622695804" lon="15.902804912942141"><ele>447.6666666666667</ele><time>2026-05-02T13:16:26Z</time></trkpt><trkpt lat="50.55641077644339" lon="15.90290905017256"><ele>450.33333333333337</ele><time>2026-05-02T13:16:27Z</time></trkpt><trkpt lat="50.55624755057592" lon="15.903044298141044"><ele>453.0</ele><time>2026-05-02T13:16:28Z</time></trkpt><trkpt lat="50.556096536230896" lon="15.903173678702712"><ele>453.33333333333337</ele><time>2026-05-02T13:16:29Z</time></trkpt><trkpt lat="50.55594097001214" lon="15.903289871459041"><ele>453.6666666666667</ele><time>2026-05-02T13:16:30Z</time></trkpt><trkpt lat="50.5557942734107" lon="15.903402972573472"><ele>454.0</ele><time>2026-05-02T13:16:31Z</time></trkpt><trkpt lat="50.555659107530886" lon="15.903512616858887"><ele>455.75</ele><time>2026-05-02T13:16:32Z</time></trkpt><trkpt lat="50.555534197024485" lon="15.903610181490752"><ele>457.5</ele><time>2026-05-02T13:16:33Z</time></trkpt><trkpt lat="50.555405227382856" lon="15.903689165033096"><ele>459.25</ele><time>2026-05-02T13:16:34Z</time></trkpt><trkpt lat="50.555272658319694" lon="15.903768976942567"><ele>461.0</ele><time>2026-05-02T13:16:35Z</time></trkpt><trkpt lat="50.555146342508785" lon="15.903826362752696"><ele>461.0</ele><time>2026-05-02T13:16:36Z</time></trkpt><trkpt lat="50.555007675032954" lon="15.903888788244352"><ele>461.0</ele><time>2026-05-02T13:16:37Z</time></trkpt><trkpt lat="50.554852340123574" lon="15.903954420958277"><ele>461.0</ele><time>2026-05-02T13:16:38Z</time></trkpt><trkpt lat="50.55469550963249" lon="15.904020284865721"><ele>461.0</ele><time>2026-05-02T13:16:39Z</time></trkpt><trkpt lat="50.55455573104532" lon="15.904078759446952"><ele>461.0</ele><time>2026-05-02T13:16:40Z</time></trkpt><trkpt lat="50.55442641923652" lon="15.904136174273118"><ele>461.0</ele><time>2026-05-02T13:16:41Z</time></trkpt><trkpt lat="50.55428945386411" lon="15.904199594605688"><ele>461.0</ele><time>2026-05-02T13:16:42Z</time></trkpt><trkpt lat="50.55414987701959" lon="15.904274879853"><ele>460.75</ele><time>2026-05-02T13:16:43Z</time></trkpt><trkpt lat="50.55401884270068" lon="15.904362935214023"><ele>460.5</ele><time>2026-05-02T13:16:44Z</time></trkpt><trkpt lat="50.55389797116507" lon="15.904456703828153"><ele>460.25</ele><time>2026-05-02T13:16:45Z</time></trkpt><trkpt lat="50.55377355001445" lon="15.90454882971978"><ele>460.0</ele><time>2026-05-02T13:16:46Z</time></trkpt><trkpt lat="50.55363845951448" lon="15.90464507467837"><ele>458.5</ele><time>2026-05-02T13:16:47Z</time></trkpt><trkpt lat="50.55349992503463" lon="15.904748809902824"><ele>457.0</ele><time>2026-05-02T13:16:48Z</time></trkpt><trkpt lat="50.55337688151751" lon="15.904849973782124"><ele>455.5</ele><time>2026-05-02T13:16:49Z</time></trkpt><trkpt lat="50.55326629199947" lon="15.904943514359344"><ele>454.0</ele><time>2026-05-02T13:16:50Z</time></trkpt><trkpt lat="50.55316228290282" lon="15.90503919162825"><ele>453.0</ele><time>2026-05-02T13:16:51Z</time></trkpt><trkpt lat="50.5530555806242" lon="15.905136933273983"><ele>452.0</ele><time>2026-05-02T13:16:52Z</time></trkpt><trkpt lat="50.552943435897255" lon="15.905230813342564"><ele>451.0</ele><time>2026-05-02T13:16:53Z</time></trkpt><trkpt lat="50.552826685391516" lon="15.905330275176112"><ele>450.0</ele><time>2026-05-02T13:16:54Z</time></trkpt><trkpt lat="50.55271413684406" lon="15.90544341382334"><ele>450.0</ele><time>2026-05-02T13:16:55Z</time></trkpt><trkpt lat="50.55260082141639" lon="15.905556031230907"><ele>450.0</ele><time>2026-05-02T13:16:56Z</time></trkpt><trkpt lat="50.55248460968837" lon="15.905658605659317"><ele>450.0</ele><time>2026-05-02T13:16:57Z</time></trkpt><trkpt lat="50.55235456491408" lon="15.905763469727592"><ele>450.0</ele><time>2026-05-02T13:16:58Z</time></trkpt><trkpt lat="50.5522144261003" lon="15.905873525736622"><ele>450.66666666666663</ele><time>2026-05-02T13:16:59Z</time></trkpt><trkpt lat="50.55206571433565" lon="15.905997197540357"><ele>451.3333333333333</ele><time>2026-05-02T13:17:00Z</time></trkpt><trkpt lat="50.55191824634963" lon="15.906131386549538"><ele>452.0</ele><time>2026-05-02T13:17:01Z</time></trkpt><trkpt lat="50.55176266423932" lon="15.906278781617996"><ele>452.0</ele><time>2026-05-02T13:17:02Z</time></trkpt><trkpt lat="50.55159501751326" lon="15.90643102751938"><ele>452.0</ele><time>2026-05-02T13:17:03Z</time></trkpt><trkpt lat="50.55141054203246" lon="15.90660231097457"><ele>452.0</ele><time>2026-05-02T13:17:04Z</time></trkpt><trkpt lat="50.55120906209694" lon="15.906798423279204"><ele>453.0</ele><time>2026-05-02T13:17:05Z</time></trkpt><trkpt lat="50.55102682521285" lon="15.906994891395009"><ele>454.0</ele><time>2026-05-02T13:17:06Z</time></trkpt><trkpt lat="50.55084262755842" lon="15.907167855702117"><ele>455.0</ele><time>2026-05-02T13:17:07Z</time></trkpt><trkpt lat="50.55067153856055" lon="15.907341275541079"><ele>455.0</ele><time>2026-05-02T13:17:08Z</time></trkpt><trkpt lat="50.55051970345725" lon="15.907508543192822"><ele>455.0</ele><time>2026-05-02T13:17:09Z</time></trkpt><trkpt lat="50.550375712863676" lon="15.907639924915054"><ele>455.0</ele><time>2026-05-02T13:17:10Z</time></trkpt><trkpt lat="50.550241603512205" lon="15.907780377550141"><ele>454.0</ele><time>2026-05-02T13:17:11Z</time></trkpt><trkpt lat="50.55011077401626" lon="15.907923073755354"><ele>453.0</ele><time>2026-05-02T13:17:12Z</time></trkpt><trkpt lat="50.54997845780725" lon="15.908057524599675"><ele>452.0</ele><time>2026-05-02T13:17:13Z</time></trkpt><trkpt lat="50.549858465752735" lon="15.908184092532721"><ele>452.0</ele><time>2026-05-02T13:17:14Z</time></trkpt><trkpt lat="50.549743234031375" lon="15.9083031456909"><ele>452.0</ele><time>2026-05-02T13:17:15Z</time></trkpt><trkpt lat="50.54963348913168" lon="15.90841711815846"><ele>452.0</ele><time>2026-05-02T13:17:16Z</time></trkpt><trkpt lat="50.54952235091529" lon="15.908531536172609"><ele>452.0</ele><time>2026-05-02T13:17:17Z</time></trkpt><trkpt lat="50.549412738174965" lon="15.908645623555065"><ele>451.25</ele><time>2026-05-02T13:17:18Z</time></trkpt><trkpt lat="50.549311402918335" lon="15.908749686375918"><ele>450.5</ele><time>2026-05-02T13:17:19Z</time></trkpt><trkpt lat="50.54921006614983" lon="15.908850564705359"><ele>449.75</ele><time>2026-05-02T13:17:20Z</time></trkpt><trkpt lat="50.54911161287569" lon="15.90896137101402"><ele>449.0</ele><time>2026-05-02T13:17:21Z</time></trkpt><trkpt lat="50.54901165906967" lon="15.90906595710563"><ele>449.0</ele><time>2026-05-02T13:17:22Z</time></trkpt><trkpt lat="50.54891015645542" lon="15.909163997455698"><ele>449.0</ele><time>2026-05-02T13:17:23Z</time></trkpt><trkpt lat="50.54882003846015" lon="15.909260565098236"><ele>449.0</ele><time>2026-05-02T13:17:24Z</time></trkpt><trkpt lat="50.54872549116727" lon="15.909362280624682"><ele>449.0</ele><time>2026-05-02T13:17:25Z</time></trkpt><trkpt lat="50.54862019117382" lon="15.909471873286796"><ele>448.5</ele><time>2026-05-02T13:17:26Z</time></trkpt><trkpt lat="50.548525255492066" lon="15.909572944697336"><ele>448.0</ele><time>2026-05-02T13:17:27Z</time></trkpt><trkpt lat="50.54843326974996" lon="15.909664518953653"><ele>447.5</ele><time>2026-05-02T13:17:28Z</time></trkpt><trkpt lat="50.548338958878226" lon="15.909761071458542"><ele>447.0</ele><time>2026-05-02T13:17:29Z</time></trkpt><trkpt lat="50.548241159404256" lon="15.909859162403217"><ele>447.0</ele><time>2026-05-02T13:17:30Z</time></trkpt><trkpt lat="50.54814156634273" lon="15.90995915087448"><ele>447.0</ele><time>2026-05-02T13:17:31Z</time></trkpt><trkpt lat="50.54804178828447" lon="15.910063854429465"><ele>447.0</ele><time>2026-05-02T13:17:32Z</time></trkpt><trkpt lat="50.54794403456086" lon="15.910167528405953"><ele>447.0</ele><time>2026-05-02T13:17:33Z</time></trkpt><trkpt lat="50.54785536499497" lon="15.910258807298716"><ele>446.75</ele><time>2026-05-02T13:17:34Z</time></trkpt><trkpt lat="50.547766930411086" lon="15.910351869160264"><ele>446.5</ele><time>2026-05-02T13:17:35Z</time></trkpt><trkpt lat="50.547675013560436" lon="15.910446331932999"><ele>446.25</ele><time>2026-05-02T13:17:36Z</time></trkpt><trkpt lat="50.547568900124496" lon="15.910558181672402"><ele>446.0</ele><time>2026-05-02T13:17:37Z</time></trkpt><trkpt lat="50.54744933855676" lon="15.91068554239725"><ele>446.0</ele><time>2026-05-02T13:17:38Z</time></trkpt><trkpt lat="50.547314676821145" lon="15.910821646844909"><ele>446.0</ele><time>2026-05-02T13:17:39Z</time></trkpt><trkpt lat="50.547173378570825" lon="15.910969920559221"><ele>446.0</ele><time>2026-05-02T13:17:40Z</time></trkpt><trkpt lat="50.547033673355635" lon="15.911120540882983"><ele>446.3333333333333</ele><time>2026-05-02T13:17:41Z</time></trkpt><trkpt lat="50.54689610165605" lon="15.911256663478357"><ele>446.66666666666663</ele><time>2026-05-02T13:17:42Z</time></trkpt><trkpt lat="50.54676615709973" lon="15.911383092389379"><ele>447.0</ele><time>2026-05-02T13:17:43Z</time></trkpt><trkpt lat="50.546629230029595" lon="15.911519614963305"><ele>447.0</ele><time>2026-05-02T13:17:44Z</time></trkpt><trkpt lat="50.546485934264446" lon="15.911660936777363"><ele>447.0</ele><time>2026-05-02T13:17:45Z</time></trkpt><trkpt lat="50.546336896963105" lon="15.911797379881179"><ele>447.0</ele><time>2026-05-02T13:17:46Z</time></trkpt><trkpt lat="50.54618523662898" lon="15.911929395499879"><ele>446.66666666666663</ele><time>2026-05-02T13:17:47Z</time></trkpt><trkpt lat="50.546022169120064" lon="15.912065359478825"><ele>446.3333333333333</ele><time>2026-05-02T13:17:48Z</time></trkpt><trkpt lat="50.54584502359959" lon="15.912199471477763"><ele>446.0</ele><time>2026-05-02T13:17:49Z</time></trkpt><trkpt lat="50.54566531368937" lon="15.912327589324843"><ele>446.0</ele><time>2026-05-02T13:17:50Z</time></trkpt><trkpt lat="50.54547806607135" lon="15.912451990213475"><ele>446.0</ele><time>2026-05-02T13:17:51Z</time></trkpt><trkpt lat="50.54528321598859" lon="15.912567884043098"><ele>446.0</ele><time>2026-05-02T13:17:52Z</time></trkpt><trkpt lat="50.54509178400516" lon="15.912669864818657"><ele>447.0</ele><time>2026-05-02T13:17:53Z</time></trkpt><trkpt lat="50.5449016824679" lon="15.912757726435233"><ele>448.0</ele><time>2026-05-02T13:17:54Z</time></trkpt><trkpt lat="50.5447054912036" lon="15.912840033233955"><ele>449.0</ele><time>2026-05-02T13:17:55Z</time></trkpt><trkpt lat="50.54451215420661" lon="15.912907179851532"><ele>450.0</ele><time>2026-05-02T13:17:56Z</time></trkpt><trkpt lat="50.54431566326931" lon="15.912966206514191"><ele>451.0</ele><time>2026-05-02T13:17:57Z</time></trkpt><trkpt lat="50.54411645034159" lon="15.913011944567305"><ele>452.0</ele><time>2026-05-02T13:17:58Z</time></trkpt><trkpt lat="50.54391363154112" lon="15.913042867570793"><ele>454.0</ele><time>2026-05-02T13:17:59Z</time></trkpt><trkpt lat="50.5437081336126" lon="15.913059731588366"><ele>456.0</ele><time>2026-05-02T13:18:00Z</time></trkpt><trkpt lat="50.54350074865364" lon="15.91307101179458"><ele>458.0</ele><time>2026-05-02T13:18:01Z</time></trkpt><trkpt lat="50.54328983535531" lon="15.913081010291704"><ele>458.0</ele><time>2026-05-02T13:18:02Z</time></trkpt><trkpt lat="50.54307888071361" lon="15.913081083540908"><ele>458.0</ele><time>2026-05-02T13:18:03Z</time></trkpt><trkpt lat="50.542861667149204" lon="15.913070659294712"><ele>458.0</ele><time>2026-05-02T13:18:04Z</time></trkpt><trkpt lat="50.54264370249285" lon="15.913045713342553"><ele>460.3333333333333</ele><time>2026-05-02T13:18:05Z</time></trkpt><trkpt lat="50.542423285079536" lon="15.913011814735379"><ele>462.66666666666663</ele><time>2026-05-02T13:18:06Z</time></trkpt><trkpt lat="50.542205321611576" lon="15.912966967209895"><ele>465.0</ele><time>2026-05-02T13:18:07Z</time></trkpt><trkpt lat="50.54198295244542" lon="15.912911358638436"><ele>466.0</ele><time>2026-05-02T13:18:08Z</time></trkpt><trkpt lat="50.54176404849421" lon="15.912850696003684"><ele>467.0</ele><time>2026-05-02T13:18:09Z</time></trkpt><trkpt lat="50.541537886783686" lon="15.912783813003937"><ele>467.0</ele><time>2026-05-02T13:18:10Z</time></trkpt><trkpt lat="50.54130504169593" lon="15.912714943904719"><ele>467.0</ele><time>2026-05-02T13:18:11Z</time></trkpt><trkpt lat="50.54107555122866" lon="15.912641522270622"><ele>470.0</ele><time>2026-05-02T13:18:12Z</time></trkpt><trkpt lat="50.540819111471066" lon="15.912565587733337"><ele>473.0</ele><time>2026-05-02T13:18:13Z</time></trkpt><trkpt lat="50.54053601441968" lon="15.912503287688422"><ele>476.0</ele><time>2026-05-02T13:18:14Z</time></trkpt><trkpt lat="50.54022695781203" lon="15.912465430563303"><ele>479.0</ele><time>2026-05-02T13:18:15Z</time></trkpt><trkpt lat="50.539895773634605" lon="15.912449046945255"><ele>479.0</ele><time>2026-05-02T13:18:16Z</time></trkpt><trkpt lat="50.539550619197676" lon="15.912447694305175"><ele>479.0</ele><time>2026-05-02T13:18:17Z</time></trkpt><trkpt lat="50.53919200384255" lon="15.912455825250596"><ele>482.0</ele><time>2026-05-02T13:18:18Z</time></trkpt><trkpt lat="50.53882513711772" lon="15.912467190730233"><ele>485.0</ele><time>2026-05-02T13:18:19Z</time></trkpt><trkpt lat="50.53844647669285" lon="15.91248340957982"><ele>487.5</ele><time>2026-05-02T13:18:20Z</time></trkpt><trkpt lat="50.538061457802854" lon="15.912495142508275"><ele>490.0</ele><time>2026-05-02T13:18:21Z</time></trkpt><trkpt lat="50.53766475586521" lon="15.912509758756906"><ele>494.5</ele><time>2026-05-02T13:18:22Z</time></trkpt><trkpt lat="50.53726840272764" lon="15.912525851840485"><ele>499.0</ele><time>2026-05-02T13:18:23Z</time></trkpt><trkpt lat="50.53690259936815" lon="15.912542950621981"><ele>503.5</ele><time>2026-05-02T13:18:24Z</time></trkpt><trkpt lat="50.53653230234719" lon="15.912560018326653"><ele>508.0</ele><time>2026-05-02T13:18:25Z</time></trkpt><trkpt lat="50.53628501188061" lon="15.912562407879157"><ele>513.0</ele><time>2026-05-02T13:18:26Z</time></trkpt><trkpt lat="50.535942465503204" lon="15.912560589596056"><ele>518.0</ele><time>2026-05-02T13:18:27Z</time></trkpt><trkpt lat="50.53561964302042" lon="15.912553939134726"><ele>520.0</ele><time>2026-05-02T13:18:28Z</time></trkpt><trkpt lat="50.535296463649296" lon="15.912557803780418"><ele>522.0</ele><time>2026-05-02T13:18:29Z</time></trkpt><trkpt lat="50.53496336416227" lon="15.912570571409681"><ele>521.0</ele><time>2026-05-02T13:18:30Z</time></trkpt><trkpt lat="50.534668718153824" lon="15.912591992501465"><ele>520.0</ele><time>2026-05-02T13:18:31Z</time></trkpt><trkpt lat="50.53438237140627" lon="15.912605994092436"><ele>520.0</ele><time>2026-05-02T13:18:32Z</time></trkpt><trkpt lat="50.53408805575768" lon="15.912616831919522"><ele>520.0</ele><time>2026-05-02T13:18:33Z</time></trkpt><trkpt lat="50.533793821201826" lon="15.912629091227469"><ele>521.0</ele><time>2026-05-02T13:18:34Z</time></trkpt><trkpt lat="50.533502589477855" lon="15.912655155682081"><ele>522.0</ele><time>2026-05-02T13:18:35Z</time></trkpt><trkpt lat="50.53320825535455" lon="15.912686988323097"><ele>522.0</ele><time>2026-05-02T13:18:36Z</time></trkpt><trkpt lat="50.53293364243607" lon="15.912760909206227"><ele>522.0</ele><time>2026-05-02T13:18:37Z</time></trkpt><trkpt lat="50.53267256190458" lon="15.912856705690176"><ele>521.5</ele><time>2026-05-02T13:18:38Z</time></trkpt><trkpt lat="50.532411858473104" lon="15.912976693003412"><ele>521.0</ele><time>2026-05-02T13:18:39Z</time></trkpt><trkpt lat="50.53215591178185" lon="15.913128704626244"><ele>522.0</ele><time>2026-05-02T13:18:40Z</time></trkpt><trkpt lat="50.53190790640027" lon="15.913316639664059"><ele>523.0</ele><time>2026-05-02T13:18:41Z</time></trkpt><trkpt lat="50.53169013916837" lon="15.91351610155981"><ele>521.0</ele><time>2026-05-02T13:18:42Z</time></trkpt><trkpt lat="50.53150024376077" lon="15.913723121688236"><ele>519.0</ele><time>2026-05-02T13:18:43Z</time></trkpt><trkpt lat="50.53131856548064" lon="15.913924988288167"><ele>519.3333333333334</ele><time>2026-05-02T13:18:44Z</time></trkpt><trkpt lat="50.53113434415968" lon="15.914128971807232"><ele>519.6666666666667</ele><time>2026-05-02T13:18:45Z</time></trkpt><trkpt lat="50.53095048794589" lon="15.914323630130808"><ele>520.0</ele><time>2026-05-02T13:18:46Z</time></trkpt><trkpt lat="50.530779066139004" lon="15.914510629802493"><ele>519.3333333333334</ele><time>2026-05-02T13:18:47Z</time></trkpt><trkpt lat="50.53061378398092" lon="15.914689633480485"><ele>518.6666666666666</ele><time>2026-05-02T13:18:48Z</time></trkpt><trkpt lat="50.53045650297475" lon="15.914852209813457"><ele>518.0</ele><time>2026-05-02T13:18:49Z</time></trkpt><trkpt lat="50.53030760677903" lon="15.915007572599288"><ele>516.3333333333333</ele><time>2026-05-02T13:18:50Z</time></trkpt><trkpt lat="50.53017116377328" lon="15.915152420481808"><ele>514.6666666666666</ele><time>2026-05-02T13:18:51Z</time></trkpt><trkpt lat="50.530046503618195" lon="15.915285888544224"><ele>513.0</ele><time>2026-05-02T13:18:52Z</time></trkpt><trkpt lat="50.52992308108153" lon="15.915416939123936"><ele>513.0</ele><time>2026-05-02T13:18:53Z</time></trkpt><trkpt lat="50.52980108404979" lon="15.91554619892934"><ele>513.0</ele><time>2026-05-02T13:18:54Z</time></trkpt><trkpt lat="50.529681883658" lon="15.915675035739483"><ele>513.0</ele><time>2026-05-02T13:18:55Z</time></trkpt><trkpt lat="50.52956652973018" lon="15.915802322404415"><ele>513.0</ele><time>2026-05-02T13:18:56Z</time></trkpt><trkpt lat="50.52944582115257" lon="15.915935488407186"><ele>512.25</ele><time>2026-05-02T13:18:57Z</time></trkpt><trkpt lat="50.529319481418064" lon="15.916071096605414"><ele>511.5</ele><time>2026-05-02T13:18:58Z</time></trkpt><trkpt lat="50.52919584610945" lon="15.916203082814949"><ele>510.75</ele><time>2026-05-02T13:18:59Z</time></trkpt><trkpt lat="50.529073456336796" lon="15.916329707304191"><ele>510.0</ele><time>2026-05-02T13:19:00Z</time></trkpt><trkpt lat="50.52896662395335" lon="15.91644892527145"><ele>510.0</ele><time>2026-05-02T13:19:01Z</time></trkpt><trkpt lat="50.528869940302066" lon="15.916550370513077"><ele>510.0</ele><time>2026-05-02T13:19:02Z</time></trkpt><trkpt lat="50.52877458181073" lon="15.916655714396928"><ele>510.0</ele><time>2026-05-02T13:19:03Z</time></trkpt><trkpt lat="50.528673996234865" lon="15.916766387632704"><ele>510.0</ele><time>2026-05-02T13:19:04Z</time></trkpt><trkpt lat="50.52856736779427" lon="15.916870668798383"><ele>508.75</ele><time>2026-05-02T13:19:05Z</time></trkpt><trkpt lat="50.5284569152459" lon="15.916975843547409"><ele>507.5</ele><time>2026-05-02T13:19:06Z</time></trkpt><trkpt lat="50.52834615635033" lon="15.91708237613482"><ele>506.25</ele><time>2026-05-02T13:19:07Z</time></trkpt><trkpt lat="50.52823173743051" lon="15.917184670468874"><ele>505.0</ele><time>2026-05-02T13:19:08Z</time></trkpt><trkpt lat="50.52811347286833" lon="15.917283669551997"><ele>505.0</ele><time>2026-05-02T13:19:09Z</time></trkpt><trkpt lat="50.52799465739648" lon="15.917380650203718"><ele>505.0</ele><time>2026-05-02T13:19:10Z</time></trkpt><trkpt lat="50.52787424502848" lon="15.917470654021903"><ele>505.0</ele><time>2026-05-02T13:19:11Z</time></trkpt><trkpt lat="50.52776508623503" lon="15.917547949053825"><ele>505.0</ele><time>2026-05-02T13:19:12Z</time></trkpt><trkpt lat="50.5276596937652" lon="15.91762162660953"><ele>504.6</ele><time>2026-05-02T13:19:13Z</time></trkpt><trkpt lat="50.52756000604001" lon="15.917690717555493"><ele>504.2</ele><time>2026-05-02T13:19:14Z</time></trkpt><trkpt lat="50.527466565197834" lon="15.917751327109876"><ele>503.79999999999995</ele><time>2026-05-02T13:19:15Z</time></trkpt><trkpt lat="50.52737355657581" lon="15.917800099965078"><ele>503.4</ele><time>2026-05-02T13:19:16Z</time></trkpt><trkpt lat="50.527276709268676" lon="15.917846236358582"><ele>503.0</ele><time>2026-05-02T13:19:17Z</time></trkpt><trkpt lat="50.527166668756486" lon="15.91790893701362"><ele>502.75</ele><time>2026-05-02T13:19:18Z</time></trkpt><trkpt lat="50.527038580272404" lon="15.917973530867444"><ele>502.5</ele><time>2026-05-02T13:19:19Z</time></trkpt><trkpt lat="50.526897167876214" lon="15.918040917535377"><ele>502.25</ele><time>2026-05-02T13:19:20Z</time></trkpt><trkpt lat="50.52674752528566" lon="15.918105365064232"><ele>502.0</ele><time>2026-05-02T13:19:21Z</time></trkpt><trkpt lat="50.52658940626714" lon="15.918164593400563"><ele>502.0</ele><time>2026-05-02T13:19:22Z</time></trkpt><trkpt lat="50.52643756162895" lon="15.918226299614158"><ele>502.0</ele><time>2026-05-02T13:19:23Z</time></trkpt><trkpt lat="50.526292282007326" lon="15.91829475179062"><ele>502.0</ele><time>2026-05-02T13:19:24Z</time></trkpt><trkpt lat="50.52614730895864" lon="15.918363337366685"><ele>501.25</ele><time>2026-05-02T13:19:25Z</time></trkpt><trkpt lat="50.52599797244225" lon="15.918425854517157"><ele>500.5</ele><time>2026-05-02T13:19:26Z</time></trkpt><trkpt lat="50.52585413573341" lon="15.918488597123662"><ele>499.75</ele><time>2026-05-02T13:19:27Z</time></trkpt><trkpt lat="50.52572578504954" lon="15.918549978099785"><ele>499.0</ele><time>2026-05-02T13:19:28Z</time></trkpt><trkpt lat="50.52560628787242" lon="15.918604119989448"><ele>499.0</ele><time>2026-05-02T13:19:29Z</time></trkpt><trkpt lat="50.52548284459649" lon="15.918656308876932"><ele>499.0</ele><time>2026-05-02T13:19:30Z</time></trkpt><trkpt lat="50.52535355301908" lon="15.918704985510553"><ele>499.0</ele><time>2026-05-02T13:19:31Z</time></trkpt><trkpt lat="50.525207831944606" lon="15.918752378111924"><ele>499.0</ele><time>2026-05-02T13:19:32Z</time></trkpt><trkpt lat="50.525053610380695" lon="15.918769742872037"><ele>500.5</ele><time>2026-05-02T13:19:33Z</time></trkpt><trkpt lat="50.524920271671576" lon="15.918774280731562"><ele>502.0</ele><time>2026-05-02T13:19:34Z</time></trkpt><trkpt lat="50.52478736011901" lon="15.91877547383362"><ele>503.5</ele><time>2026-05-02T13:19:35Z</time></trkpt><trkpt lat="50.524650740353415" lon="15.918764377478732"><ele>505.0</ele><time>2026-05-02T13:19:36Z</time></trkpt><trkpt lat="50.52453372714446" lon="15.918731644097914"><ele>506.0</ele><time>2026-05-02T13:19:37Z</time></trkpt><trkpt lat="50.524431610125745" lon="15.918692737876166"><ele>507.0</ele><time>2026-05-02T13:19:38Z</time></trkpt><trkpt lat="50.5243192964263" lon="15.91865475951117"><ele>508.0</ele><time>2026-05-02T13:19:39Z</time></trkpt><trkpt lat="50.52419358378985" lon="15.918595422976878"><ele>509.0</ele><time>2026-05-02T13:19:40Z</time></trkpt><trkpt lat="50.524067539574325" lon="15.918520209654346"><ele>509.0</ele><time>2026-05-02T13:19:41Z</time></trkpt><trkpt lat="50.52393240057129" lon="15.918427376460086"><ele>509.0</ele><time>2026-05-02T13:19:42Z</time></trkpt><trkpt lat="50.5237973277302" lon="15.918325190598573"><ele>509.0</ele><time>2026-05-02T13:19:43Z</time></trkpt><trkpt lat="50.52366878914352" lon="15.91820321614225"><ele>509.0</ele><time>2026-05-02T13:19:44Z</time></trkpt><trkpt lat="50.52354073019795" lon="15.918059553725596"><ele>510.3333333333333</ele><time>2026-05-02T13:19:45Z</time></trkpt><trkpt lat="50.5234139441041" lon="15.917905799693585"><ele>511.66666666666663</ele><time>2026-05-02T13:19:46Z</time></trkpt><trkpt lat="50.52328860062124" lon="15.917739124937818"><ele>513.0</ele><time>2026-05-02T13:19:47Z</time></trkpt><trkpt lat="50.5231720387836" lon="15.917549051482649"><ele>513.6666666666666</ele><time>2026-05-02T13:19:48Z</time></trkpt><trkpt lat="50.52305850255492" lon="15.917354348229315"><ele>514.3333333333333</ele><time>2026-05-02T13:19:49Z</time></trkpt><trkpt lat="50.522937654381856" lon="15.917158529515582"><ele>515.0</ele><time>2026-05-02T13:19:50Z</time></trkpt><trkpt lat="50.52280412438972" lon="15.916955665134576"><ele>515.6666666666666</ele><time>2026-05-02T13:19:51Z</time></trkpt><trkpt lat="50.52267341865405" lon="15.91675728210245"><ele>516.3333333333334</ele><time>2026-05-02T13:19:52Z</time></trkpt><trkpt lat="50.522546734462765" lon="15.916572158322706"><ele>517.0</ele><time>2026-05-02T13:19:53Z</time></trkpt><trkpt lat="50.52241645305658" lon="15.91639731535673"><ele>518.0</ele><time>2026-05-02T13:19:54Z</time></trkpt><trkpt lat="50.522280308102296" lon="15.91622955063168"><ele>519.0</ele><time>2026-05-02T13:19:55Z</time></trkpt><trkpt lat="50.522138259997504" lon="15.916074880056255"><ele>520.0</ele><time>2026-05-02T13:19:56Z</time></trkpt><trkpt lat="50.521987217184325" lon="15.915945943747717"><ele>523.6666666666667</ele><time>2026-05-02T13:19:57Z</time></trkpt><trkpt lat="50.52183166571481" lon="15.915837007052302"><ele>527.3333333333334</ele><time>2026-05-02T13:19:58Z</time></trkpt><trkpt lat="50.52167181023775" lon="15.915746051209082"><ele>531.0</ele><time>2026-05-02T13:19:59Z</time></trkpt><trkpt lat="50.52154298079088" lon="15.915674285250638"><ele>531.0</ele><time>2026-05-02T13:20:00Z</time></trkpt><trkpt lat="50.52146335487496" lon="15.915647302972852"><ele>531.0</ele><time>2026-05-02T13:20:01Z</time></trkpt><trkpt lat="50.52138140063732" lon="15.915624210784785"><ele>531.0</ele><time>2026-05-02T13:20:03Z</time></trkpt><trkpt lat="50.52130266947423" lon="15.915608889538575"><ele>531.0</ele><time>2026-05-02T13:20:06Z</time></trkpt><trkpt lat="50.52122751161204" lon="15.915606247960143"><ele>531.0</ele><time>2026-05-02T13:20:10Z</time></trkpt><trkpt lat="50.521163265734685" lon="15.915593770320038"><ele>531.0</ele><time>2026-05-02T13:20:13Z</time></trkpt><trkpt lat="50.521086804469995" lon="15.915574726804994"><ele>531.8333333333334</ele><time>2026-05-02T13:20:26Z</time></trkpt><trkpt lat="50.520994726305084" lon="15.915575472328774"><ele>532.6666666666666</ele><time>2026-05-02T13:20:28Z</time></trkpt><trkpt lat="50.520907109494246" lon="15.915568668475482"><ele>533.5</ele><time>2026-05-02T13:20:31Z</time></trkpt><trkpt lat="50.52084366365071" lon="15.915588332268428"><ele>534.3333333333333</ele><time>2026-05-02T13:20:34Z</time></trkpt><trkpt lat="50.52077707418021" lon="15.91559367833669"><ele>535.1666666666666</ele><time>2026-05-02T13:20:37Z</time></trkpt><trkpt lat="50.52071419999483" lon="15.915600495238163"><ele>536.0</ele><time>2026-05-02T13:20:40Z</time></trkpt><trkpt lat="50.52062443871615" lon="15.9156092664503"><ele>536.0</ele><time>2026-05-02T13:20:43Z</time></trkpt><trkpt lat="50.52052083642424" lon="15.915637420626895"><ele>536.0</ele><time>2026-05-02T13:20:45Z</time></trkpt><trkpt lat="50.52041457792411" lon="15.91566292277625"><ele>536.0</ele><time>2026-05-02T13:20:46Z</time></trkpt><trkpt lat="50.52030349617461" lon="15.915680462035706"><ele>536.0</ele><time>2026-05-02T13:20:47Z</time></trkpt><trkpt lat="50.520212187478066" lon="15.915695681425653"><ele>536.0</ele><time>2026-05-02T13:20:48Z</time></trkpt><trkpt lat="50.520115900381036" lon="15.915722546567064"><ele>536.4</ele><time>2026-05-02T13:20:49Z</time></trkpt><trkpt lat="50.52001712460879" lon="15.915747931063722"><ele>536.8</ele><time>2026-05-02T13:20:50Z</time></trkpt><trkpt lat="50.519926568951256" lon="15.91576707363023"><ele>537.1999999999999</ele><time>2026-05-02T13:20:51Z</time></trkpt><trkpt lat="50.51982665638588" lon="15.915782779984408"><ele>537.6</ele><time>2026-05-02T13:20:52Z</time></trkpt><trkpt lat="50.51972489852397" lon="15.91579002561529"><ele>538.0</ele><time>2026-05-02T13:20:53Z</time></trkpt><trkpt lat="50.51961510486036" lon="15.915803284928636"><ele>538.0</ele><time>2026-05-02T13:20:54Z</time></trkpt><trkpt lat="50.519493357132994" lon="15.915814081969756"><ele>538.0</ele><time>2026-05-02T13:20:55Z</time></trkpt><trkpt lat="50.51935962659144" lon="15.915817981564203"><ele>538.0</ele><time>2026-05-02T13:20:56Z</time></trkpt><trkpt lat="50.51922167946818" lon="15.915813436444958"><ele>538.0</ele><time>2026-05-02T13:20:57Z</time></trkpt><trkpt lat="50.519073306764774" lon="15.915802367753539"><ele>538.0</ele><time>2026-05-02T13:20:58Z</time></trkpt><trkpt lat="50.518909156278106" lon="15.915782786787856"><ele>538.0</ele><time>2026-05-02T13:20:59Z</time></trkpt><trkpt lat="50.51874376114969" lon="15.915749485179441"><ele>538.0</ele><time>2026-05-02T13:21:00Z</time></trkpt><trkpt lat="50.5185955494477" lon="15.915716332100128"><ele>537.5</ele><time>2026-05-02T13:21:01Z</time></trkpt><trkpt lat="50.51844964341282" lon="15.915682495445145"><ele>537.0</ele><time>2026-05-02T13:21:02Z</time></trkpt><trkpt lat="50.51830717958519" lon="15.915652158894922"><ele>536.5</ele><time>2026-05-02T13:21:03Z</time></trkpt><trkpt lat="50.51816442963644" lon="15.915624943157047"><ele>536.0</ele><time>2026-05-02T13:21:04Z</time></trkpt><trkpt lat="50.51801021783517" lon="15.915592722565822"><ele>535.6666666666666</ele><time>2026-05-02T13:21:05Z</time></trkpt><trkpt lat="50.51785138497722" lon="15.915555959761187"><ele>535.3333333333334</ele><time>2026-05-02T13:21:06Z</time></trkpt><trkpt lat="50.51769307589379" lon="15.915522716836746"><ele>535.0</ele><time>2026-05-02T13:21:07Z</time></trkpt><trkpt lat="50.5175330592745" lon="15.915489742486313"><ele>535.0</ele><time>2026-05-02T13:21:08Z</time></trkpt><trkpt lat="50.51737179394812" lon="15.91545339042054"><ele>535.0</ele><time>2026-05-02T13:21:09Z</time></trkpt><trkpt lat="50.51720922842197" lon="15.91541151870831"><ele>535.0</ele><time>2026-05-02T13:21:10Z</time></trkpt><trkpt lat="50.51703833909447" lon="15.91537015846003"><ele>533.6666666666667</ele><time>2026-05-02T13:21:11Z</time></trkpt><trkpt lat="50.51685977368513" lon="15.915325444927898"><ele>532.3333333333334</ele><time>2026-05-02T13:21:12Z</time></trkpt><trkpt lat="50.51667113978846" lon="15.915273583224455"><ele>531.0</ele><time>2026-05-02T13:21:13Z</time></trkpt><trkpt lat="50.51645867932038" lon="15.915213381495771"><ele>531.0</ele><time>2026-05-02T13:21:14Z</time></trkpt><trkpt lat="50.516245330008175" lon="15.915143062356595"><ele>531.0</ele><time>2026-05-02T13:21:15Z</time></trkpt><trkpt lat="50.51604384102209" lon="15.915070715207879"><ele>531.0</ele><time>2026-05-02T13:21:16Z</time></trkpt><trkpt lat="50.51585598825507" lon="15.914992495065702"><ele>529.6666666666666</ele><time>2026-05-02T13:21:17Z</time></trkpt><trkpt lat="50.515678224173726" lon="15.914908640025667"><ele>528.3333333333333</ele><time>2026-05-02T13:21:18Z</time></trkpt><trkpt lat="50.51551164550888" lon="15.914823268893958"><ele>527.0</ele><time>2026-05-02T13:21:19Z</time></trkpt><trkpt lat="50.51534825577896" lon="15.914734476220785"><ele>525.3333333333333</ele><time>2026-05-02T13:21:20Z</time></trkpt><trkpt lat="50.51518494799971" lon="15.914641820775008"><ele>523.6666666666666</ele><time>2026-05-02T13:21:21Z</time></trkpt><trkpt lat="50.51502579262643" lon="15.914550058627452"><ele>522.0</ele><time>2026-05-02T13:21:22Z</time></trkpt><trkpt lat="50.51486788832746" lon="15.914455377305284"><ele>522.0</ele><time>2026-05-02T13:21:23Z</time></trkpt><trkpt lat="50.51471526587465" lon="15.914353047380859"><ele>522.0</ele><time>2026-05-02T13:21:24Z</time></trkpt><trkpt lat="50.51456305309099" lon="15.914245207451142"><ele>522.0</ele><time>2026-05-02T13:21:25Z</time></trkpt><trkpt lat="50.51442006434887" lon="15.914138194445867"><ele>521.0</ele><time>2026-05-02T13:21:26Z</time></trkpt><trkpt lat="50.51427520975778" lon="15.914031519881547"><ele>520.0</ele><time>2026-05-02T13:21:27Z</time></trkpt><trkpt lat="50.51411852334709" lon="15.913909402788367"><ele>519.0</ele><time>2026-05-02T13:21:28Z</time></trkpt><trkpt lat="50.51398166836756" lon="15.91379083536768"><ele>519.0</ele><time>2026-05-02T13:21:29Z</time></trkpt><trkpt lat="50.51384757307488" lon="15.91367677108217"><ele>519.0</ele><time>2026-05-02T13:21:30Z</time></trkpt><trkpt lat="50.51371292447233" lon="15.913563950215883"><ele>519.0</ele><time>2026-05-02T13:21:31Z</time></trkpt><trkpt lat="50.5135895700934" lon="15.913438950337948"><ele>519.0</ele><time>2026-05-02T13:21:32Z</time></trkpt><trkpt lat="50.513476496923545" lon="15.913320435992791"><ele>519.0</ele><time>2026-05-02T13:21:33Z</time></trkpt><trkpt lat="50.51336610752981" lon="15.913213883629288"><ele>519.0</ele><time>2026-05-02T13:21:34Z</time></trkpt><trkpt lat="50.51325712277409" lon="15.913110291026882"><ele>519.0</ele><time>2026-05-02T13:21:35Z</time></trkpt><trkpt lat="50.51315188096492" lon="15.91300013260244"><ele>519.0</ele><time>2026-05-02T13:21:36Z</time></trkpt><trkpt lat="50.513048128962545" lon="15.912890470295341"><ele>519.0</ele><time>2026-05-02T13:21:37Z</time></trkpt><trkpt lat="50.51294991430196" lon="15.91278475962487"><ele>519.0</ele><time>2026-05-02T13:21:38Z</time></trkpt><trkpt lat="50.512850121088654" lon="15.912675364510976"><ele>519.0</ele><time>2026-05-02T13:21:39Z</time></trkpt><trkpt lat="50.51275734607932" lon="15.912573579737868"><ele>517.75</ele><time>2026-05-02T13:21:40Z</time></trkpt><trkpt lat="50.512664031097906" lon="15.912468327724936"><ele>516.5</ele><time>2026-05-02T13:21:41Z</time></trkpt><trkpt lat="50.51256698016724" lon="15.912355582461338"><ele>515.25</ele><time>2026-05-02T13:21:42Z</time></trkpt><trkpt lat="50.51246334126977" lon="15.912249289313339"><ele>514.0</ele><time>2026-05-02T13:21:43Z</time></trkpt><trkpt lat="50.51235948189012" lon="15.912143054860678"><ele>514.0</ele><time>2026-05-02T13:21:44Z</time></trkpt><trkpt lat="50.51228087739373" lon="15.912011101239012"><ele>514.0</ele><time>2026-05-02T13:21:45Z</time></trkpt><trkpt lat="50.51218808698508" lon="15.911911214365135"><ele>514.0</ele><time>2026-05-02T13:21:46Z</time></trkpt><trkpt lat="50.51209018901497" lon="15.911819329428534"><ele>514.0</ele><time>2026-05-02T13:21:47Z</time></trkpt><trkpt lat="50.512015226953054" lon="15.911690341978494"><ele>512.75</ele><time>2026-05-02T13:21:48Z</time></trkpt><trkpt lat="50.51190878872907" lon="15.911597340019307"><ele>511.5</ele><time>2026-05-02T13:21:49Z</time></trkpt><trkpt lat="50.511797557045156" lon="15.911460721383515"><ele>510.25</ele><time>2026-05-02T13:21:50Z</time></trkpt><trkpt lat="50.51168827082617" lon="15.911300342573165"><ele>509.0</ele><time>2026-05-02T13:21:51Z</time></trkpt><trkpt lat="50.511590772701865" lon="15.911185661875146"><ele>509.0</ele><time>2026-05-02T13:21:52Z</time></trkpt><trkpt lat="50.51149490832688" lon="15.91107743053151"><ele>509.0</ele><time>2026-05-02T13:21:53Z</time></trkpt><trkpt lat="50.51140627394872" lon="15.910962741769248"><ele>509.0</ele><time>2026-05-02T13:21:54Z</time></trkpt><trkpt lat="50.51131787334126" lon="15.910848525490316"><ele>509.0</ele><time>2026-05-02T13:21:55Z</time></trkpt><trkpt lat="50.51121924895769" lon="15.91072681902526"><ele>510.0</ele><time>2026-05-02T13:21:56Z</time></trkpt><trkpt lat="50.5111151638961" lon="15.910595413320172"><ele>511.0</ele><time>2026-05-02T13:21:57Z</time></trkpt><trkpt lat="50.51100971140228" lon="15.910465767219605"><ele>512.0</ele><time>2026-05-02T13:21:58Z</time></trkpt><trkpt lat="50.510900488810755" lon="15.910329268315733"><ele>513.0</ele><time>2026-05-02T13:21:59Z</time></trkpt><trkpt lat="50.51078989961415" lon="15.910190909887648"><ele>513.25</ele><time>2026-05-02T13:22:00Z</time></trkpt><trkpt lat="50.51067825652432" lon="15.910044746737176"><ele>513.5</ele><time>2026-05-02T13:22:01Z</time></trkpt><trkpt lat="50.510570607294184" lon="15.909896583352625"><ele>513.75</ele><time>2026-05-02T13:22:02Z</time></trkpt><trkpt lat="50.51047270689299" lon="15.909743858764125"><ele>514.0</ele><time>2026-05-02T13:22:03Z</time></trkpt><trkpt lat="50.510392391686175" lon="15.90959162466782"><ele>514.0</ele><time>2026-05-02T13:22:04Z</time></trkpt><trkpt lat="50.510309794367785" lon="15.909416394959111"><ele>514.0</ele><time>2026-05-02T13:22:05Z</time></trkpt><trkpt lat="50.51022475029334" lon="15.90923753990285"><ele>514.0</ele><time>2026-05-02T13:22:06Z</time></trkpt><trkpt lat="50.51014181494993" lon="15.90904622807085"><ele>514.0</ele><time>2026-05-02T13:22:07Z</time></trkpt><trkpt lat="50.51006484560105" lon="15.908838482752968"><ele>514.6666666666667</ele><time>2026-05-02T13:22:08Z</time></trkpt><trkpt lat="50.509994166042546" lon="15.908613319704925"><ele>515.3333333333334</ele><time>2026-05-02T13:22:09Z</time></trkpt><trkpt lat="50.50993069876031" lon="15.90838660903954"><ele>516.0</ele><time>2026-05-02T13:22:10Z</time></trkpt><trkpt lat="50.50987698633312" lon="15.90814366525892"><ele>517.0</ele><time>2026-05-02T13:22:11Z</time></trkpt><trkpt lat="50.50983723265975" lon="15.907882365344632"><ele>518.0</ele><time>2026-05-02T13:22:12Z</time></trkpt><trkpt lat="50.509800059837275" lon="15.907598947940901"><ele>519.0</ele><time>2026-05-02T13:22:13Z</time></trkpt><trkpt lat="50.509773474559836" lon="15.90729681777278"><ele>519.6666666666666</ele><time>2026-05-02T13:22:14Z</time></trkpt><trkpt lat="50.50975651364685" lon="15.906986849440777"><ele>520.3333333333333</ele><time>2026-05-02T13:22:15Z</time></trkpt><trkpt lat="50.509747589607436" lon="15.90666797040141"><ele>521.0</ele><time>2026-05-02T13:22:16Z</time></trkpt><trkpt lat="50.509737978006356" lon="15.906350925399499"><ele>521.0</ele><time>2026-05-02T13:22:17Z</time></trkpt><trkpt lat="50.509730779773314" lon="15.90605884196875"><ele>521.0</ele><time>2026-05-02T13:22:18Z</time></trkpt><trkpt lat="50.50972679471894" lon="15.905781196810599"><ele>521.0</ele><time>2026-05-02T13:22:19Z</time></trkpt><trkpt lat="50.50972630759635" lon="15.905531049681501"><ele>521.6666666666666</ele><time>2026-05-02T13:22:20Z</time></trkpt><trkpt lat="50.50971905525046" lon="15.90527869784283"><ele>522.3333333333334</ele><time>2026-05-02T13:22:21Z</time></trkpt><trkpt lat="50.509712193432115" lon="15.905023295963032"><ele>523.0</ele><time>2026-05-02T13:22:22Z</time></trkpt><trkpt lat="50.509710454075275" lon="15.904760521037469"><ele>523.3333333333334</ele><time>2026-05-02T13:22:23Z</time></trkpt><trkpt lat="50.50969635586254" lon="15.904488621051998"><ele>523.6666666666666</ele><time>2026-05-02T13:22:24Z</time></trkpt><trkpt lat="50.50967429380697" lon="15.90421455028384"><ele>524.0</ele><time>2026-05-02T13:22:25Z</time></trkpt><trkpt lat="50.509636808471335" lon="15.903942335891863"><ele>523.6666666666666</ele><time>2026-05-02T13:22:26Z</time></trkpt><trkpt lat="50.50958840886767" lon="15.903677953212327"><ele>523.3333333333334</ele><time>2026-05-02T13:22:27Z</time></trkpt><trkpt lat="50.50953707741844" lon="15.903434053401666"><ele>523.0</ele><time>2026-05-02T13:22:28Z</time></trkpt><trkpt lat="50.509478535381916" lon="15.903207672173844"><ele>524.3333333333334</ele><time>2026-05-02T13:22:29Z</time></trkpt><trkpt lat="50.50941121129331" lon="15.902993136734397"><ele>525.6666666666666</ele><time>2026-05-02T13:22:30Z</time></trkpt><trkpt lat="50.50933204767938" lon="15.902778122636628"><ele>527.0</ele><time>2026-05-02T13:22:31Z</time></trkpt><trkpt lat="50.509245481410986" lon="15.902552514266503"><ele>528.3333333333333</ele><time>2026-05-02T13:22:32Z</time></trkpt><trkpt lat="50.50914680274252" lon="15.90232510893624"><ele>529.6666666666666</ele><time>2026-05-02T13:22:33Z</time></trkpt><trkpt lat="50.50902886168265" lon="15.902106075367268"><ele>531.0</ele><time>2026-05-02T13:22:34Z</time></trkpt><trkpt lat="50.50889088827942" lon="15.901897596588249"><ele>531.0</ele><time>2026-05-02T13:22:35Z</time></trkpt><trkpt lat="50.50874227499903" lon="15.901693371281738"><ele>531.0</ele><time>2026-05-02T13:22:36Z</time></trkpt><trkpt lat="50.50857949518279" lon="15.901497467224969"><ele>531.0</ele><time>2026-05-02T13:22:37Z</time></trkpt><trkpt lat="50.508408788623235" lon="15.901321224885791"><ele>531.0</ele><time>2026-05-02T13:22:38Z</time></trkpt><trkpt lat="50.50824043895095" lon="15.901171967664096"><ele>531.0</ele><time>2026-05-02T13:22:39Z</time></trkpt><trkpt lat="50.508069501583506" lon="15.901048176561101"><ele>531.0</ele><time>2026-05-02T13:22:40Z</time></trkpt><trkpt lat="50.507883353861615" lon="15.900930220807876"><ele>530.5</ele><time>2026-05-02T13:22:41Z</time></trkpt><trkpt lat="50.50765957420643" lon="15.900823886512972"><ele>530.0</ele><time>2026-05-02T13:22:42Z</time></trkpt><trkpt lat="50.507383157527244" lon="15.900719405739133"><ele>532.5</ele><time>2026-05-02T13:22:43Z</time></trkpt><trkpt lat="50.50706427041084" lon="15.900621753026027"><ele>535.0</ele><time>2026-05-02T13:22:44Z</time></trkpt><trkpt lat="50.5067372279051" lon="15.900532698988878"><ele>535.0</ele><time>2026-05-02T13:22:45Z</time></trkpt><trkpt lat="50.50640330937122" lon="15.900406539985713"><ele>535.0</ele><time>2026-05-02T13:22:46Z</time></trkpt><trkpt lat="50.50606744124476" lon="15.900296465176165"><ele>539.0</ele><time>2026-05-02T13:22:47Z</time></trkpt><trkpt lat="50.50570836696158" lon="15.90018060016499"><ele>543.0</ele><time>2026-05-02T13:22:48Z</time></trkpt><trkpt lat="50.50536097730573" lon="15.900069224848382"><ele>549.5</ele><time>2026-05-02T13:22:49Z</time></trkpt><trkpt lat="50.5050129973412" lon="15.89995624412147"><ele>556.0</ele><time>2026-05-02T13:22:50Z</time></trkpt><trkpt lat="50.50470759748871" lon="15.899855389208184"><ele>557.0</ele><time>2026-05-02T13:22:51Z</time></trkpt><trkpt lat="50.50444652609885" lon="15.899783764015194"><ele>558.0</ele><time>2026-05-02T13:22:52Z</time></trkpt><trkpt lat="50.504207063147774" lon="15.899694930043662"><ele>558.0</ele><time>2026-05-02T13:22:53Z</time></trkpt><trkpt lat="50.50397710481624" lon="15.899602003142196"><ele>558.0</ele><time>2026-05-02T13:22:54Z</time></trkpt><trkpt lat="50.50376544383687" lon="15.899501658992778"><ele>556.6666666666666</ele><time>2026-05-02T13:22:55Z</time></trkpt><trkpt lat="50.50356828704412" lon="15.899398796083885"><ele>555.3333333333333</ele><time>2026-05-02T13:22:56Z</time></trkpt><trkpt lat="50.50337068790299" lon="15.899294819659822"><ele>554.0</ele><time>2026-05-02T13:22:57Z</time></trkpt><trkpt lat="50.50317051479123" lon="15.899187637125136"><ele>552.6666666666666</ele><time>2026-05-02T13:22:58Z</time></trkpt><trkpt lat="50.50296870062799" lon="15.899075317366876"><ele>551.3333333333334</ele><time>2026-05-02T13:22:59Z</time></trkpt><trkpt lat="50.50276505671892" lon="15.898947723471395"><ele>550.0</ele><time>2026-05-02T13:23:00Z</time></trkpt><trkpt lat="50.50257753946299" lon="15.89881759322146"><ele>548.3333333333334</ele><time>2026-05-02T13:23:01Z</time></trkpt><trkpt lat="50.502408094786894" lon="15.898700319794786"><ele>546.6666666666666</ele><time>2026-05-02T13:23:02Z</time></trkpt><trkpt lat="50.502238080626576" lon="15.898576111180912"><ele>545.0</ele><time>2026-05-02T13:23:03Z</time></trkpt><trkpt lat="50.50204506629087" lon="15.89842941264197"><ele>544.0</ele><time>2026-05-02T13:23:04Z</time></trkpt><trkpt lat="50.501841928330144" lon="15.898274584222413"><ele>543.0</ele><time>2026-05-02T13:23:05Z</time></trkpt><trkpt lat="50.50165506177723" lon="15.898121545911525"><ele>542.0</ele><time>2026-05-02T13:23:06Z</time></trkpt><trkpt lat="50.501465002579295" lon="15.897958957429388"><ele>542.0</ele><time>2026-05-02T13:23:07Z</time></trkpt><trkpt lat="50.501277565796826" lon="15.897786055932931"><ele>542.0</ele><time>2026-05-02T13:23:08Z</time></trkpt><trkpt lat="50.50108259157131" lon="15.897591585855183"><ele>542.0</ele><time>2026-05-02T13:23:09Z</time></trkpt><trkpt lat="50.50085274836191" lon="15.89736721077276"><ele>539.5</ele><time>2026-05-02T13:23:10Z</time></trkpt><trkpt lat="50.500609680596675" lon="15.897076432702033"><ele>537.0</ele><time>2026-05-02T13:23:11Z</time></trkpt><trkpt lat="50.50034766743169" lon="15.89678819131124"><ele>537.5</ele><time>2026-05-02T13:23:12Z</time></trkpt><trkpt lat="50.50011785313482" lon="15.896532645039214"><ele>538.0</ele><time>2026-05-02T13:23:13Z</time></trkpt><trkpt lat="50.499887589792834" lon="15.896291793506428"><ele>538.0</ele><time>2026-05-02T13:23:14Z</time></trkpt><trkpt lat="50.499661300300026" lon="15.896035634859658"><ele>538.0</ele><time>2026-05-02T13:23:15Z</time></trkpt><trkpt lat="50.49944792945211" lon="15.895811772366368"><ele>537.0</ele><time>2026-05-02T13:23:16Z</time></trkpt><trkpt lat="50.4992396128851" lon="15.8955985497587"><ele>536.0</ele><time>2026-05-02T13:23:17Z</time></trkpt><trkpt lat="50.49903590369911" lon="15.895365732372206"><ele>536.0</ele><time>2026-05-02T13:23:18Z</time></trkpt><trkpt lat="50.49882207336082" lon="15.895142519063063"><ele>536.0</ele><time>2026-05-02T13:23:19Z</time></trkpt><trkpt lat="50.49857508664347" lon="15.895003018653371"><ele>534.0</ele><time>2026-05-02T13:23:20Z</time></trkpt><trkpt lat="50.498341789884215" lon="15.894839248547655"><ele>532.0</ele><time>2026-05-02T13:23:21Z</time></trkpt><trkpt lat="50.498094570154144" lon="15.894684343645544"><ele>531.5</ele><time>2026-05-02T13:23:22Z</time></trkpt><trkpt lat="50.49783425834631" lon="15.894538465943942"><ele>531.0</ele><time>2026-05-02T13:23:23Z</time></trkpt><trkpt lat="50.497566432570956" lon="15.894407277911066"><ele>531.0</ele><time>2026-05-02T13:23:24Z</time></trkpt><trkpt lat="50.49728179490672" lon="15.89429246041845"><ele>531.0</ele><time>2026-05-02T13:23:25Z</time></trkpt><trkpt lat="50.496970928367666" lon="15.894183048189587"><ele>527.5</ele><time>2026-05-02T13:23:26Z</time></trkpt><trkpt lat="50.49662657754864" lon="15.894070454519978"><ele>524.0</ele><time>2026-05-02T13:23:27Z</time></trkpt><trkpt lat="50.49628965641104" lon="15.89395775582915"><ele>521.0</ele><time>2026-05-02T13:23:28Z</time></trkpt><trkpt lat="50.495998769581" lon="15.893859714849382"><ele>518.0</ele><time>2026-05-02T13:23:29Z</time></trkpt><trkpt lat="50.49572514877256" lon="15.8937670747462"><ele>518.0</ele><time>2026-05-02T13:23:30Z</time></trkpt><trkpt lat="50.495460006739904" lon="15.893676741150523"><ele>518.0</ele><time>2026-05-02T13:23:31Z</time></trkpt><trkpt lat="50.49519258580472" lon="15.893587514439359"><ele>516.0</ele><time>2026-05-02T13:23:32Z</time></trkpt><trkpt lat="50.49492676569487" lon="15.893501587429355"><ele>514.0</ele><time>2026-05-02T13:23:33Z</time></trkpt><trkpt lat="50.49466685517992" lon="15.893397109526838"><ele>514.0</ele><time>2026-05-02T13:23:34Z</time></trkpt><trkpt lat="50.494419025850796" lon="15.893264895382025"><ele>514.0</ele><time>2026-05-02T13:23:35Z</time></trkpt><trkpt lat="50.49416651619092" lon="15.89308186022551"><ele>514.0</ele><time>2026-05-02T13:23:36Z</time></trkpt><trkpt lat="50.49390568845963" lon="15.892861071768708"><ele>514.0</ele><time>2026-05-02T13:23:37Z</time></trkpt><trkpt lat="50.49364616739564" lon="15.892600448000161"><ele>516.0</ele><time>2026-05-02T13:23:38Z</time></trkpt><trkpt lat="50.49339036802603" lon="15.892288151237887"><ele>518.0</ele><time>2026-05-02T13:23:39Z</time></trkpt><trkpt lat="50.49314792245039" lon="15.891938245089102"><ele>521.0</ele><time>2026-05-02T13:23:40Z</time></trkpt><trkpt lat="50.49291311766606" lon="15.891558024373008"><ele>524.0</ele><time>2026-05-02T13:23:41Z</time></trkpt><trkpt lat="50.492710865979284" lon="15.89117151164538"><ele>525.0</ele><time>2026-05-02T13:23:42Z</time></trkpt><trkpt lat="50.49252759609951" lon="15.890835255465012"><ele>526.0</ele><time>2026-05-02T13:23:43Z</time></trkpt><trkpt lat="50.49234887256542" lon="15.890523666693056"><ele>526.0</ele><time>2026-05-02T13:23:44Z</time></trkpt><trkpt lat="50.49216477536247" lon="15.89022457305649"><ele>526.0</ele><time>2026-05-02T13:23:45Z</time></trkpt><trkpt lat="50.491978087638934" lon="15.889965868773002"><ele>530.0</ele><time>2026-05-02T13:23:46Z</time></trkpt><trkpt lat="50.491781705278626" lon="15.889726199464182"><ele>534.0</ele><time>2026-05-02T13:23:47Z</time></trkpt><trkpt lat="50.49156619107293" lon="15.88951353929128"><ele>534.0</ele><time>2026-05-02T13:23:48Z</time></trkpt><trkpt lat="50.491341328661846" lon="15.889323731677592"><ele>534.0</ele><time>2026-05-02T13:23:49Z</time></trkpt><trkpt lat="50.49112249260778" lon="15.889164865220128"><ele>535.5</ele><time>2026-05-02T13:23:50Z</time></trkpt><trkpt lat="50.490897185598826" lon="15.889039871083222"><ele>537.0</ele><time>2026-05-02T13:23:51Z</time></trkpt><trkpt lat="50.49068074392806" lon="15.888939647772263"><ele>537.0</ele><time>2026-05-02T13:23:52Z</time></trkpt><trkpt lat="50.49048292164691" lon="15.88885629678291"><ele>537.0</ele><time>2026-05-02T13:23:53Z</time></trkpt><trkpt lat="50.49028776632422" lon="15.888762349701638"><ele>537.0</ele><time>2026-05-02T13:23:54Z</time></trkpt><trkpt lat="50.490091523043034" lon="15.888667126401181"><ele>536.3333333333334</ele><time>2026-05-02T13:23:55Z</time></trkpt><trkpt lat="50.48990327898506" lon="15.888556103715512"><ele>535.6666666666667</ele><time>2026-05-02T13:23:56Z</time></trkpt><trkpt lat="50.48971871185831" lon="15.888421131757195"><ele>535.0</ele><time>2026-05-02T13:23:57Z</time></trkpt><trkpt lat="50.48953928571112" lon="15.888260333535301"><ele>534.0</ele><time>2026-05-02T13:23:58Z</time></trkpt><trkpt lat="50.4893641850654" lon="15.888067301507943"><ele>533.0</ele><time>2026-05-02T13:23:59Z</time></trkpt><trkpt lat="50.48920527796477" lon="15.887862051387444"><ele>532.0</ele><time>2026-05-02T13:24:00Z</time></trkpt><trkpt lat="50.48905503717869" lon="15.88766845121181"><ele>532.3333333333334</ele><time>2026-05-02T13:24:01Z</time></trkpt><trkpt lat="50.488908333354175" lon="15.887469639860615"><ele>532.6666666666666</ele><time>2026-05-02T13:24:02Z</time></trkpt><trkpt lat="50.48877683642671" lon="15.887245752482176"><ele>533.0</ele><time>2026-05-02T13:24:03Z</time></trkpt><trkpt lat="50.48866307092394" lon="15.887013864760194"><ele>533.0</ele><time>2026-05-02T13:24:04Z</time></trkpt><trkpt lat="50.488559014803506" lon="15.886780250752206"><ele>533.0</ele><time>2026-05-02T13:24:05Z</time></trkpt><trkpt lat="50.48845333779756" lon="15.886555607074955"><ele>533.0</ele><time>2026-05-02T13:24:06Z</time></trkpt><trkpt lat="50.48834982789784" lon="15.886333591759023"><ele>533.0</ele><time>2026-05-02T13:24:07Z</time></trkpt><trkpt lat="50.488247406006124" lon="15.886118070588541"><ele>533.0</ele><time>2026-05-02T13:24:08Z</time></trkpt><trkpt lat="50.48814731082554" lon="15.88590826749921"><ele>533.0</ele><time>2026-05-02T13:24:09Z</time></trkpt><trkpt lat="50.48805324404918" lon="15.885707586049133"><ele>532.5</ele><time>2026-05-02T13:24:10Z</time></trkpt><trkpt lat="50.48796925037329" lon="15.885526109454322"><ele>532.0</ele><time>2026-05-02T13:24:11Z</time></trkpt><trkpt lat="50.48788935059105" lon="15.88535767310017"><ele>531.5</ele><time>2026-05-02T13:24:12Z</time></trkpt><trkpt lat="50.48781446028736" lon="15.885201951256246"><ele>531.0</ele><time>2026-05-02T13:24:13Z</time></trkpt><trkpt lat="50.487745861748785" lon="15.885051572739691"><ele>530.6</ele><time>2026-05-02T13:24:14Z</time></trkpt><trkpt lat="50.48768014412573" lon="15.88490811932921"><ele>530.2</ele><time>2026-05-02T13:24:15Z</time></trkpt><trkpt lat="50.487618842353584" lon="15.884775255103145"><ele>529.8</ele><time>2026-05-02T13:24:16Z</time></trkpt><trkpt lat="50.487558968556755" lon="15.88464646458902"><ele>529.4</ele><time>2026-05-02T13:24:17Z</time></trkpt><trkpt lat="50.487500366335674" lon="15.884521423690934"><ele>529.0</ele><time>2026-05-02T13:24:18Z</time></trkpt><trkpt lat="50.487441874850305" lon="15.884399078489201"><ele>529.0</ele><time>2026-05-02T13:24:19Z</time></trkpt><trkpt lat="50.48738294682169" lon="15.884273238234654"><ele>529.0</ele><time>2026-05-02T13:24:20Z</time></trkpt><trkpt lat="50.48732084631024" lon="15.884140795293293"><ele>529.0</ele><time>2026-05-02T13:24:21Z</time></trkpt><trkpt lat="50.487259883478075" lon="15.8840045695022"><ele>529.0</ele><time>2026-05-02T13:24:22Z</time></trkpt><trkpt lat="50.48719594524907" lon="15.883873167553329"><ele>529.0</ele><time>2026-05-02T13:24:23Z</time></trkpt><trkpt lat="50.48713956152435" lon="15.88375264543994"><ele>528.4</ele><time>2026-05-02T13:24:24Z</time></trkpt><trkpt lat="50.48707437833213" lon="15.883632895288661"><ele>527.8</ele><time>2026-05-02T13:24:25Z</time></trkpt><trkpt lat="50.48701573148346" lon="15.883506039629914"><ele>527.2</ele><time>2026-05-02T13:24:26Z</time></trkpt><trkpt lat="50.4869574631415" lon="15.88338065278781"><ele>526.6</ele><time>2026-05-02T13:24:27Z</time></trkpt><trkpt lat="50.48689436321863" lon="15.883255003828625"><ele>526.0</ele><time>2026-05-02T13:24:28Z</time></trkpt><trkpt lat="50.48682463508291" lon="15.883110848863065"><ele>526.0</ele><time>2026-05-02T13:24:29Z</time></trkpt><trkpt lat="50.48675804920778" lon="15.882947122680216"><ele>526.0</ele><time>2026-05-02T13:24:30Z</time></trkpt><trkpt lat="50.48668408943492" lon="15.882771432539466"><ele>526.0</ele><time>2026-05-02T13:24:31Z</time></trkpt><trkpt lat="50.48659853721811" lon="15.88259995800038"><ele>526.0</ele><time>2026-05-02T13:24:32Z</time></trkpt><trkpt lat="50.486511924731204" lon="15.882427599425467"><ele>526.25</ele><time>2026-05-02T13:24:33Z</time></trkpt><trkpt lat="50.48643968280524" lon="15.882257593718458"><ele>526.5</ele><time>2026-05-02T13:24:34Z</time></trkpt><trkpt lat="50.486374423460525" lon="15.882100476991571"><ele>526.75</ele><time>2026-05-02T13:24:35Z</time></trkpt><trkpt lat="50.486249924173855" lon="15.88188765273312"><ele>527.0</ele><time>2026-05-02T13:24:36Z</time></trkpt><trkpt lat="50.486168572183615" lon="15.881710233875936"><ele>526.25</ele><time>2026-05-02T13:24:37Z</time></trkpt><trkpt lat="50.486081630665744" lon="15.881525982416134"><ele>525.5</ele><time>2026-05-02T13:24:38Z</time></trkpt><trkpt lat="50.485997506395094" lon="15.881342070726184"><ele>524.75</ele><time>2026-05-02T13:24:39Z</time></trkpt><trkpt lat="50.485911808978294" lon="15.881156441638298"><ele>524.0</ele><time>2026-05-02T13:24:40Z</time></trkpt><trkpt lat="50.4858257802785" lon="15.880965557319263"><ele>524.0</ele><time>2026-05-02T13:24:41Z</time></trkpt><trkpt lat="50.48574164956946" lon="15.880790644119982"><ele>524.0</ele><time>2026-05-02T13:24:42Z</time></trkpt><trkpt lat="50.485663284530645" lon="15.880631489732771"><ele>524.0</ele><time>2026-05-02T13:24:43Z</time></trkpt><trkpt lat="50.485580046012345" lon="15.880462797404771"><ele>524.0</ele><time>2026-05-02T13:24:44Z</time></trkpt><trkpt lat="50.48549942665454" lon="15.880286524988907"><ele>523.25</ele><time>2026-05-02T13:24:45Z</time></trkpt><trkpt lat="50.48542082516271" lon="15.880117674427135"><ele>522.5</ele><time>2026-05-02T13:24:46Z</time></trkpt><trkpt lat="50.48534272035728" lon="15.879956346084054"><ele>521.75</ele><time>2026-05-02T13:24:47Z</time></trkpt><trkpt lat="50.48527150752603" lon="15.879808020129435"><ele>521.0</ele><time>2026-05-02T13:24:48Z</time></trkpt><trkpt lat="50.48520353642931" lon="15.87966105681498"><ele>521.0</ele><time>2026-05-02T13:24:49Z</time></trkpt><trkpt lat="50.4851315931474" lon="15.879503144446506"><ele>521.0</ele><time>2026-05-02T13:24:50Z</time></trkpt><trkpt lat="50.48505821635296" lon="15.879346431976533"><ele>521.0</ele><time>2026-05-02T13:24:51Z</time></trkpt><trkpt lat="50.484986329091" lon="15.879189814901308"><ele>521.0</ele><time>2026-05-02T13:24:52Z</time></trkpt><trkpt lat="50.48491821862062" lon="15.879037627085047"><ele>520.75</ele><time>2026-05-02T13:24:53Z</time></trkpt><trkpt lat="50.48485237108265" lon="15.878889081213508"><ele>520.5</ele><time>2026-05-02T13:24:54Z</time></trkpt><trkpt lat="50.484783306678686" lon="15.87874212601882"><ele>520.25</ele><time>2026-05-02T13:24:55Z</time></trkpt><trkpt lat="50.4847095523001" lon="15.87859460824836"><ele>520.0</ele><time>2026-05-02T13:24:56Z</time></trkpt><trkpt lat="50.48463837429602" lon="15.87843478975288"><ele>520.25</ele><time>2026-05-02T13:24:57Z</time></trkpt><trkpt lat="50.48456644558249" lon="15.87827072154667"><ele>520.5</ele><time>2026-05-02T13:24:58Z</time></trkpt><trkpt lat="50.48448618526704" lon="15.878104359827878"><ele>520.75</ele><time>2026-05-02T13:24:59Z</time></trkpt><trkpt lat="50.48440540572557" lon="15.877937235206941"><ele>521.0</ele><time>2026-05-02T13:25:00Z</time></trkpt><trkpt lat="50.48432073481453" lon="15.877767294239813"><ele>521.5</ele><time>2026-05-02T13:25:01Z</time></trkpt><trkpt lat="50.484238355350854" lon="15.877585177276186"><ele>522.0</ele><time>2026-05-02T13:25:02Z</time></trkpt><trkpt lat="50.484151782748896" lon="15.877405139980246"><ele>522.5</ele><time>2026-05-02T13:25:03Z</time></trkpt><trkpt lat="50.484060622666156" lon="15.877239733087222"><ele>523.0</ele><time>2026-05-02T13:25:04Z</time></trkpt><trkpt lat="50.48398146771606" lon="15.877075968410395"><ele>523.0</ele><time>2026-05-02T13:25:05Z</time></trkpt><trkpt lat="50.48389608458955" lon="15.876913802379622"><ele>523.0</ele><time>2026-05-02T13:25:06Z</time></trkpt><trkpt lat="50.48382018519311" lon="15.876763577908736"><ele>523.0</ele><time>2026-05-02T13:25:07Z</time></trkpt><trkpt lat="50.48374623916316" lon="15.876628733679837"><ele>523.0</ele><time>2026-05-02T13:25:08Z</time></trkpt><trkpt lat="50.48367301508222" lon="15.876496856928945"><ele>524.75</ele><time>2026-05-02T13:25:09Z</time></trkpt><trkpt lat="50.48359687835738" lon="15.876369636766237"><ele>526.5</ele><time>2026-05-02T13:25:10Z</time></trkpt><trkpt lat="50.483514013455554" lon="15.876239395279892"><ele>528.25</ele><time>2026-05-02T13:25:11Z</time></trkpt><trkpt lat="50.483424892021155" lon="15.876104744504222"><ele>530.0</ele><time>2026-05-02T13:25:12Z</time></trkpt><trkpt lat="50.483329356741535" lon="15.875970942014387"><ele>530.5</ele><time>2026-05-02T13:25:13Z</time></trkpt><trkpt lat="50.48322986504872" lon="15.8758339454862"><ele>531.0</ele><time>2026-05-02T13:25:14Z</time></trkpt><trkpt lat="50.48313202129631" lon="15.875695145572728"><ele>531.5</ele><time>2026-05-02T13:25:15Z</time></trkpt><trkpt lat="50.4830343923056" lon="15.875571101340686"><ele>532.0</ele><time>2026-05-02T13:25:16Z</time></trkpt><trkpt lat="50.48293309071377" lon="15.875446251539033"><ele>532.0</ele><time>2026-05-02T13:25:17Z</time></trkpt><trkpt lat="50.482828845062286" lon="15.875322590889667"><ele>532.0</ele><time>2026-05-02T13:25:18Z</time></trkpt><trkpt lat="50.48272577499009" lon="15.875196221705883"><ele>532.0</ele><time>2026-05-02T13:25:19Z</time></trkpt><trkpt lat="50.48261978240695" lon="15.875076822043797"><ele>532.0</ele><time>2026-05-02T13:25:20Z</time></trkpt><trkpt lat="50.48251044543835" lon="15.874959890033361"><ele>532.0</ele><time>2026-05-02T13:25:21Z</time></trkpt><trkpt lat="50.4823974267464" lon="15.874840561455835"><ele>532.0</ele><time>2026-05-02T13:25:22Z</time></trkpt><trkpt lat="50.48228831991233" lon="15.874728133648032"><ele>532.0</ele><time>2026-05-02T13:25:23Z</time></trkpt><trkpt lat="50.48218889897461" lon="15.874635591096345"><ele>532.0</ele><time>2026-05-02T13:25:24Z</time></trkpt><trkpt lat="50.48208681563559" lon="15.874542039187135"><ele>531.75</ele><time>2026-05-02T13:25:25Z</time></trkpt><trkpt lat="50.48197015583294" lon="15.874445128765512"><ele>531.5</ele><time>2026-05-02T13:25:26Z</time></trkpt><trkpt lat="50.481844478986794" lon="15.874341898856606"><ele>531.25</ele><time>2026-05-02T13:25:27Z</time></trkpt><trkpt lat="50.48171116451341" lon="15.874239329084629"><ele>531.0</ele><time>2026-05-02T13:25:28Z</time></trkpt><trkpt lat="50.48158563708685" lon="15.874145169237782"><ele>531.75</ele><time>2026-05-02T13:25:29Z</time></trkpt><trkpt lat="50.481467919183366" lon="15.87406220533285"><ele>532.5</ele><time>2026-05-02T13:25:30Z</time></trkpt><trkpt lat="50.48135073142807" lon="15.873987283655161"><ele>533.25</ele><time>2026-05-02T13:25:31Z</time></trkpt><trkpt lat="50.481229015624116" lon="15.873913441876784"><ele>534.0</ele><time>2026-05-02T13:25:32Z</time></trkpt><trkpt lat="50.481105631499155" lon="15.87383834380528"><ele>534.25</ele><time>2026-05-02T13:25:33Z</time></trkpt><trkpt lat="50.480983975278136" lon="15.873759249377754"><ele>534.5</ele><time>2026-05-02T13:25:34Z</time></trkpt><trkpt lat="50.48086963570731" lon="15.873691970691912"><ele>534.75</ele><time>2026-05-02T13:25:35Z</time></trkpt><trkpt lat="50.480755456977235" lon="15.873631250619187"><ele>535.0</ele><time>2026-05-02T13:25:36Z</time></trkpt><trkpt lat="50.48063494139745" lon="15.873572212854748"><ele>535.0</ele><time>2026-05-02T13:25:37Z</time></trkpt><trkpt lat="50.48051309497149" lon="15.873513882983303"><ele>535.0</ele><time>2026-05-02T13:25:38Z</time></trkpt><trkpt lat="50.48039174312678" lon="15.873451048637836"><ele>535.0</ele><time>2026-05-02T13:25:39Z</time></trkpt><trkpt lat="50.480263267578195" lon="15.87338973322471"><ele>535.0</ele><time>2026-05-02T13:25:40Z</time></trkpt><trkpt lat="50.48013073938944" lon="15.873336531170649"><ele>537.0</ele><time>2026-05-02T13:25:41Z</time></trkpt><trkpt lat="50.47998825156578" lon="15.873284583380922"><ele>539.0</ele><time>2026-05-02T13:25:42Z</time></trkpt><trkpt lat="50.47984707788982" lon="15.87323061521869"><ele>541.0</ele><time>2026-05-02T13:25:43Z</time></trkpt><trkpt lat="50.479721415578084" lon="15.87316944152291"><ele>543.0</ele><time>2026-05-02T13:25:44Z</time></trkpt><trkpt lat="50.479600370865896" lon="15.873111723375409"><ele>543.25</ele><time>2026-05-02T13:25:45Z</time></trkpt><trkpt lat="50.479478074253244" lon="15.873061823013245"><ele>543.5</ele><time>2026-05-02T13:25:46Z</time></trkpt><trkpt lat="50.4793546539305" lon="15.873015069913336"><ele>543.75</ele><time>2026-05-02T13:25:47Z</time></trkpt><trkpt lat="50.47923290561937" lon="15.872958980628908"><ele>544.0</ele><time>2026-05-02T13:25:48Z</time></trkpt><trkpt lat="50.47911370094767" lon="15.872903187663848"><ele>544.0</ele><time>2026-05-02T13:25:49Z</time></trkpt><trkpt lat="50.478978403655226" lon="15.872844732526444"><ele>544.0</ele><time>2026-05-02T13:25:50Z</time></trkpt><trkpt lat="50.47883875378325" lon="15.87278607770729"><ele>544.0</ele><time>2026-05-02T13:25:51Z</time></trkpt><trkpt lat="50.47871053980383" lon="15.872732072533637"><ele>544.0</ele><time>2026-05-02T13:25:52Z</time></trkpt><trkpt lat="50.47859633206857" lon="15.872683841974135"><ele>544.0</ele><time>2026-05-02T13:25:53Z</time></trkpt><trkpt lat="50.478469787865144" lon="15.872633140028661"><ele>544.0</ele><time>2026-05-02T13:25:54Z</time></trkpt><trkpt lat="50.47833599423077" lon="15.87257424894792"><ele>544.0</ele><time>2026-05-02T13:25:55Z</time></trkpt><trkpt lat="50.478208770850124" lon="15.87251700517121"><ele>544.0</ele><time>2026-05-02T13:25:56Z</time></trkpt><trkpt lat="50.47809390616389" lon="15.872472179469966"><ele>544.0</ele><time>2026-05-02T13:25:57Z</time></trkpt><trkpt lat="50.47799002101019" lon="15.872430533657038"><ele>544.0</ele><time>2026-05-02T13:25:58Z</time></trkpt><trkpt lat="50.477881528451874" lon="15.872381419282599"><ele>544.0</ele><time>2026-05-02T13:25:59Z</time></trkpt><trkpt lat="50.47776049905007" lon="15.872327846042324"><ele>544.0</ele><time>2026-05-02T13:26:00Z</time></trkpt><trkpt lat="50.47763105957432" lon="15.872267861303113"><ele>544.3333333333334</ele><time>2026-05-02T13:26:01Z</time></trkpt><trkpt lat="50.47749381997566" lon="15.872199880314806"><ele>544.6666666666666</ele><time>2026-05-02T13:26:02Z</time></trkpt><trkpt lat="50.477344812430665" lon="15.872131201963292"><ele>545.0</ele><time>2026-05-02T13:26:03Z</time></trkpt><trkpt lat="50.477192676818696" lon="15.872056633872168"><ele>544.25</ele><time>2026-05-02T13:26:04Z</time></trkpt><trkpt lat="50.477059887923915" lon="15.871978478990213"><ele>543.5</ele><time>2026-05-02T13:26:05Z</time></trkpt><trkpt lat="50.4769448209997" lon="15.871888046240004"><ele>542.75</ele><time>2026-05-02T13:26:06Z</time></trkpt><trkpt lat="50.47683671451857" lon="15.871793588494446"><ele>542.0</ele><time>2026-05-02T13:26:07Z</time></trkpt><trkpt lat="50.47674732450076" lon="15.87171021548106"><ele>542.0</ele><time>2026-05-02T13:26:08Z</time></trkpt><trkpt lat="50.47666227954367" lon="15.871635662248986"><ele>542.0</ele><time>2026-05-02T13:26:09Z</time></trkpt><trkpt lat="50.47658151452808" lon="15.871560806141924"><ele>542.0</ele><time>2026-05-02T13:26:10Z</time></trkpt><trkpt lat="50.476502964392914" lon="15.87148552405689"><ele>542.0</ele><time>2026-05-02T13:26:11Z</time></trkpt><trkpt lat="50.47641417866845" lon="15.871410647849478"><ele>542.0</ele><time>2026-05-02T13:26:12Z</time></trkpt><trkpt lat="50.476318361184966" lon="15.87132532260794"><ele>540.25</ele><time>2026-05-02T13:26:13Z</time></trkpt><trkpt lat="50.47621426019888" lon="15.87122819685613"><ele>538.5</ele><time>2026-05-02T13:26:14Z</time></trkpt><trkpt lat="50.47609308732899" lon="15.87111465444461"><ele>536.75</ele><time>2026-05-02T13:26:15Z</time></trkpt><trkpt lat="50.47594365190993" lon="15.870981760878742"><ele>535.0</ele><time>2026-05-02T13:26:16Z</time></trkpt><trkpt lat="50.47578212687983" lon="15.87083878362008"><ele>535.0</ele><time>2026-05-02T13:26:17Z</time></trkpt><trkpt lat="50.475640889185584" lon="15.870723665102336"><ele>535.0</ele><time>2026-05-02T13:26:18Z</time></trkpt><trkpt lat="50.47550273950435" lon="15.870644800936192"><ele>535.0</ele><time>2026-05-02T13:26:19Z</time></trkpt><trkpt lat="50.47536050879794" lon="15.87058982453493"><ele>537.0</ele><time>2026-05-02T13:26:20Z</time></trkpt><trkpt lat="50.475216271831734" lon="15.870540329673277"><ele>539.0</ele><time>2026-05-02T13:26:21Z</time></trkpt><trkpt lat="50.47506510517562" lon="15.870500257218442"><ele>541.0</ele><time>2026-05-02T13:26:22Z</time></trkpt><trkpt lat="50.474912480425026" lon="15.87047267843144"><ele>541.0</ele><time>2026-05-02T13:26:23Z</time></trkpt><trkpt lat="50.474772914267035" lon="15.870449179207046"><ele>541.0</ele><time>2026-05-02T13:26:24Z</time></trkpt><trkpt lat="50.474645382025024" lon="15.870420862256493"><ele>541.0</ele><time>2026-05-02T13:26:25Z</time></trkpt><trkpt lat="50.47451394106399" lon="15.87038969631628"><ele>541.0</ele><time>2026-05-02T13:26:26Z</time></trkpt><trkpt lat="50.474379721367356" lon="15.870360863995412"><ele>540.75</ele><time>2026-05-02T13:26:27Z</time></trkpt><trkpt lat="50.4742424306688" lon="15.870331956485277"><ele>540.5</ele><time>2026-05-02T13:26:28Z</time></trkpt><trkpt lat="50.474104113977106" lon="15.870303777425047"><ele>540.25</ele><time>2026-05-02T13:26:29Z</time></trkpt><trkpt lat="50.47395709330612" lon="15.870273038659652"><ele>540.0</ele><time>2026-05-02T13:26:30Z</time></trkpt><trkpt lat="50.47381914580277" lon="15.87023464196481"><ele>539.0</ele><time>2026-05-02T13:26:31Z</time></trkpt><trkpt lat="50.473697453269544" lon="15.870192445191018"><ele>538.0</ele><time>2026-05-02T13:26:32Z</time></trkpt><trkpt lat="50.47357490129995" lon="15.870135695239043"><ele>537.0</ele><time>2026-05-02T13:26:33Z</time></trkpt><trkpt lat="50.47344500008555" lon="15.870061157831952"><ele>536.0</ele><time>2026-05-02T13:26:34Z</time></trkpt><trkpt lat="50.473311202606126" lon="15.869973256076337"><ele>535.0</ele><time>2026-05-02T13:26:35Z</time></trkpt><trkpt lat="50.47317865076114" lon="15.869869356694162"><ele>534.0</ele><time>2026-05-02T13:26:36Z</time></trkpt><trkpt lat="50.4730453280898" lon="15.869748451431635"><ele>533.0</ele><time>2026-05-02T13:26:37Z</time></trkpt><trkpt lat="50.472910408735146" lon="15.869623648547194"><ele>532.3333333333333</ele><time>2026-05-02T13:26:38Z</time></trkpt><trkpt lat="50.472772246816014" lon="15.869493025668314"><ele>531.6666666666666</ele><time>2026-05-02T13:26:39Z</time></trkpt><trkpt lat="50.47263155789739" lon="15.869367399609123"><ele>531.0</ele><time>2026-05-02T13:26:40Z</time></trkpt><trkpt lat="50.47249486115457" lon="15.869237660951288"><ele>530.3333333333334</ele><time>2026-05-02T13:26:41Z</time></trkpt><trkpt lat="50.47235620940252" lon="15.869108774099285"><ele>529.6666666666667</ele><time>2026-05-02T13:26:42Z</time></trkpt><trkpt lat="50.47221127045932" lon="15.868991264781902"><ele>529.0</ele><time>2026-05-02T13:26:43Z</time></trkpt><trkpt lat="50.47205670070573" lon="15.86889047692904"><ele>529.0</ele><time>2026-05-02T13:26:44Z</time></trkpt><trkpt lat="50.471886863269205" lon="15.868795709622905"><ele>529.0</ele><time>2026-05-02T13:26:45Z</time></trkpt><trkpt lat="50.47174088078253" lon="15.868734282198298"><ele>529.0</ele><time>2026-05-02T13:26:46Z</time></trkpt><trkpt lat="50.47158640541779" lon="15.868668253238068"><ele>529.0</ele><time>2026-05-02T13:26:47Z</time></trkpt><trkpt lat="50.4714282093917" lon="15.868602178598872"><ele>529.0</ele><time>2026-05-02T13:26:48Z</time></trkpt><trkpt lat="50.47126515603752" lon="15.86855258966891"><ele>529.0</ele><time>2026-05-02T13:26:49Z</time></trkpt><trkpt lat="50.47110498227587" lon="15.868505463120911"><ele>530.25</ele><time>2026-05-02T13:26:50Z</time></trkpt><trkpt lat="50.47095620571584" lon="15.8684422425378"><ele>531.5</ele><time>2026-05-02T13:26:51Z</time></trkpt><trkpt lat="50.47080711239368" lon="15.86842301098755"><ele>532.75</ele><time>2026-05-02T13:26:52Z</time></trkpt><trkpt lat="50.4706651068918" lon="15.86837848314448"><ele>534.0</ele><time>2026-05-02T13:26:53Z</time></trkpt><trkpt lat="50.470526384231405" lon="15.868344326196159"><ele>533.25</ele><time>2026-05-02T13:26:54Z</time></trkpt><trkpt lat="50.47038550553712" lon="15.868320643335391"><ele>532.5</ele><time>2026-05-02T13:26:55Z</time></trkpt><trkpt lat="50.47024295772387" lon="15.868280869801032"><ele>531.75</ele><time>2026-05-02T13:26:56Z</time></trkpt><trkpt lat="50.470101741082274" lon="15.868236353723377"><ele>531.0</ele><time>2026-05-02T13:26:57Z</time></trkpt><trkpt lat="50.469959227950056" lon="15.86820415300256"><ele>531.0</ele><time>2026-05-02T13:26:58Z</time></trkpt><trkpt lat="50.46981870458737" lon="15.868172471013349"><ele>531.0</ele><time>2026-05-02T13:26:59Z</time></trkpt><trkpt lat="50.469687882512424" lon="15.868139400535721"><ele>531.0</ele><time>2026-05-02T13:27:00Z</time></trkpt><trkpt lat="50.469561654831246" lon="15.86810459092829"><ele>531.0</ele><time>2026-05-02T13:27:01Z</time></trkpt><trkpt lat="50.46943056690171" lon="15.868070959661209"><ele>529.5</ele><time>2026-05-02T13:27:02Z</time></trkpt><trkpt lat="50.46929427726201" lon="15.868034299105869"><ele>528.0</ele><time>2026-05-02T13:27:03Z</time></trkpt><trkpt lat="50.46915821808699" lon="15.867998461545527"><ele>526.5</ele><time>2026-05-02T13:27:04Z</time></trkpt><trkpt lat="50.46900893452038" lon="15.867962734944406"><ele>525.0</ele><time>2026-05-02T13:27:05Z</time></trkpt><trkpt lat="50.46886207247234" lon="15.867920593629554"><ele>523.6666666666666</ele><time>2026-05-02T13:27:06Z</time></trkpt><trkpt lat="50.468715620178806" lon="15.867861750129139"><ele>522.3333333333333</ele><time>2026-05-02T13:27:07Z</time></trkpt><trkpt lat="50.46857499939728" lon="15.867774193741644"><ele>521.0</ele><time>2026-05-02T13:27:08Z</time></trkpt><trkpt lat="50.468438619822955" lon="15.86765832754788"><ele>521.3333333333333</ele><time>2026-05-02T13:27:09Z</time></trkpt><trkpt lat="50.46830829546361" lon="15.86751536078944"><ele>521.6666666666666</ele><time>2026-05-02T13:27:10Z</time></trkpt><trkpt lat="50.46817751688878" lon="15.867361448999288"><ele>522.0</ele><time>2026-05-02T13:27:11Z</time></trkpt><trkpt lat="50.46804042982006" lon="15.867224123027649"><ele>519.6666666666666</ele><time>2026-05-02T13:27:12Z</time></trkpt><trkpt lat="50.46790259022957" lon="15.86708643601996"><ele>517.3333333333333</ele><time>2026-05-02T13:27:13Z</time></trkpt><trkpt lat="50.467758963249736" lon="15.86694981191917"><ele>515.0</ele><time>2026-05-02T13:27:14Z</time></trkpt><trkpt lat="50.467609042979355" lon="15.866812728968831"><ele>515.0</ele><time>2026-05-02T13:27:15Z</time></trkpt><trkpt lat="50.467454265500635" lon="15.866682958012253"><ele>515.0</ele><time>2026-05-02T13:27:16Z</time></trkpt><trkpt lat="50.46729440428008" lon="15.866558864396042"><ele>515.0</ele><time>2026-05-02T13:27:17Z</time></trkpt><trkpt lat="50.46713069891157" lon="15.866450623815332"><ele>516.0</ele><time>2026-05-02T13:27:18Z</time></trkpt><trkpt lat="50.466959670850606" lon="15.86636328708178"><ele>517.0</ele><time>2026-05-02T13:27:19Z</time></trkpt><trkpt lat="50.46678190834294" lon="15.866289246786302"><ele>518.0</ele><time>2026-05-02T13:27:20Z</time></trkpt><trkpt lat="50.46660620816417" lon="15.866208801105186"><ele>518.0</ele><time>2026-05-02T13:27:21Z</time></trkpt><trkpt lat="50.46642961839691" lon="15.866130386582505"><ele>518.0</ele><time>2026-05-02T13:27:22Z</time></trkpt><trkpt lat="50.46625505718205" lon="15.8660561968723"><ele>518.0</ele><time>2026-05-02T13:27:23Z</time></trkpt><trkpt lat="50.46608515567348" lon="15.865978312038372"><ele>517.3333333333333</ele><time>2026-05-02T13:27:24Z</time></trkpt><trkpt lat="50.46591435392772" lon="15.865896800042385"><ele>516.6666666666666</ele><time>2026-05-02T13:27:25Z</time></trkpt><trkpt lat="50.465747896822975" lon="15.865816461106437"><ele>516.0</ele><time>2026-05-02T13:27:26Z</time></trkpt><trkpt lat="50.46558336428713" lon="15.865738206549826"><ele>513.6666666666666</ele><time>2026-05-02T13:27:27Z</time></trkpt><trkpt lat="50.465421312822926" lon="15.865665750503013"><ele>511.3333333333333</ele><time>2026-05-02T13:27:28Z</time></trkpt><trkpt lat="50.46525930567346" lon="15.86559330798369"><ele>509.0</ele><time>2026-05-02T13:27:29Z</time></trkpt><trkpt lat="50.46510003136637" lon="15.865508335042485"><ele>509.0</ele><time>2026-05-02T13:27:30Z</time></trkpt><trkpt lat="50.46494125393725" lon="15.865405798112713"><ele>509.0</ele><time>2026-05-02T13:27:31Z</time></trkpt><trkpt lat="50.46478805204267" lon="15.8652951324064"><ele>509.0</ele><time>2026-05-02T13:27:32Z</time></trkpt><trkpt lat="50.46463443369411" lon="15.865173181170354"><ele>505.66666666666663</ele><time>2026-05-02T13:27:33Z</time></trkpt><trkpt lat="50.46448204188002" lon="15.865052092401852"><ele>502.33333333333337</ele><time>2026-05-02T13:27:34Z</time></trkpt><trkpt lat="50.46432743635448" lon="15.86493465001438"><ele>499.0</ele><time>2026-05-02T13:27:35Z</time></trkpt><trkpt lat="50.46417777317448" lon="15.864817675941218"><ele>499.0</ele><time>2026-05-02T13:27:36Z</time></trkpt><trkpt lat="50.464036782150316" lon="15.864706578639968"><ele>499.0</ele><time>2026-05-02T13:27:37Z</time></trkpt><trkpt lat="50.46390477039256" lon="15.864591499097816"><ele>499.0</ele><time>2026-05-02T13:27:38Z</time></trkpt><trkpt lat="50.46378312902618" lon="15.864470821213335"><ele>497.75</ele><time>2026-05-02T13:27:39Z</time></trkpt><trkpt lat="50.463673991015746" lon="15.864346676264322"><ele>496.5</ele><time>2026-05-02T13:27:40Z</time></trkpt><trkpt lat="50.46357756281266" lon="15.864217158272172"><ele>495.25</ele><time>2026-05-02T13:27:41Z</time></trkpt><trkpt lat="50.46349082816393" lon="15.864083308725123"><ele>494.0</ele><time>2026-05-02T13:27:42Z</time></trkpt><trkpt lat="50.463409837815114" lon="15.863953957330017"><ele>493.0</ele><time>2026-05-02T13:27:43Z</time></trkpt><trkpt lat="50.46328083144212" lon="15.863785057146265"><ele>492.0</ele><time>2026-05-02T13:27:44Z</time></trkpt><trkpt lat="50.4632031933758" lon="15.863658852077064"><ele>491.0</ele><time>2026-05-02T13:27:45Z</time></trkpt><trkpt lat="50.4631403506455" lon="15.86354640699922"><ele>490.0</ele><time>2026-05-02T13:27:46Z</time></trkpt><trkpt lat="50.46307403367666" lon="15.863449586112269"><ele>489.6666666666667</ele><time>2026-05-02T13:27:47Z</time></trkpt><trkpt lat="50.463010734637756" lon="15.863352807836767"><ele>489.33333333333337</ele><time>2026-05-02T13:27:48Z</time></trkpt><trkpt lat="50.46294479772685" lon="15.863263347279226"><ele>489.0</ele><time>2026-05-02T13:27:49Z</time></trkpt><trkpt lat="50.462885791783656" lon="15.863171882929816"><ele>488.66666666666663</ele><time>2026-05-02T13:27:50Z</time></trkpt><trkpt lat="50.462822751905115" lon="15.86307469047597"><ele>488.3333333333333</ele><time>2026-05-02T13:27:51Z</time></trkpt><trkpt lat="50.46275720770094" lon="15.862975311336331"><ele>488.0</ele><time>2026-05-02T13:27:52Z</time></trkpt><trkpt lat="50.462694444057256" lon="15.8628728930684"><ele>486.2</ele><time>2026-05-02T13:27:53Z</time></trkpt><trkpt lat="50.462624801689486" lon="15.862762028433274"><ele>484.4</ele><time>2026-05-02T13:27:54Z</time></trkpt><trkpt lat="50.46255341880319" lon="15.862652816014268"><ele>482.59999999999997</ele><time>2026-05-02T13:27:55Z</time></trkpt><trkpt lat="50.462480953717694" lon="15.862545274782748"><ele>480.79999999999995</ele><time>2026-05-02T13:27:56Z</time></trkpt><trkpt lat="50.46241508266814" lon="15.862437553384774"><ele>479.0</ele><time>2026-05-02T13:27:57.001Z</time></trkpt><trkpt lat="50.46235012315061" lon="15.862339537139691"><ele>478.4</ele><time>2026-05-02T13:27:58.001Z</time></trkpt><trkpt lat="50.46228455724555" lon="15.862233844022189"><ele>477.79999999999995</ele><time>2026-05-02T13:27:59.001Z</time></trkpt><trkpt lat="50.46220895902746" lon="15.862141613500766"><ele>477.20000000000005</ele><time>2026-05-02T13:28:00.001Z</time></trkpt><trkpt lat="50.462118169043116" lon="15.862049389639843"><ele>476.6</ele><time>2026-05-02T13:28:01.001Z</time></trkpt><trkpt lat="50.46201898366943" lon="15.86195337123772"><ele>476.0</ele><time>2026-05-02T13:28:02.001Z</time></trkpt><trkpt lat="50.46191338682913" lon="15.861902243246593"><ele>475.4</ele><time>2026-05-02T13:28:03.001Z</time></trkpt><trkpt lat="50.46181643178274" lon="15.861862976145238"><ele>474.8</ele><time>2026-05-02T13:28:04.001Z</time></trkpt><trkpt lat="50.46171616114485" lon="15.861830939993713"><ele>474.19999999999993</ele><time>2026-05-02T13:28:05Z</time></trkpt><trkpt lat="50.4616007231037" lon="15.861769214732394"><ele>473.59999999999997</ele><time>2026-05-02T13:28:06Z</time></trkpt><trkpt lat="50.46149928177266" lon="15.861708843174327"><ele>473.0</ele><time>2026-05-02T13:28:07Z</time></trkpt><trkpt lat="50.4614006969047" lon="15.861654081460202"><ele>472.79999999999995</ele><time>2026-05-02T13:28:08Z</time></trkpt><trkpt lat="50.46129380051806" lon="15.86160271122675"><ele>472.59999999999997</ele><time>2026-05-02T13:28:09Z</time></trkpt><trkpt lat="50.46118133992146" lon="15.86154696335462"><ele>472.40000000000003</ele><time>2026-05-02T13:28:10Z</time></trkpt><trkpt lat="50.461072784429504" lon="15.861492122294152"><ele>472.20000000000005</ele><time>2026-05-02T13:28:11Z</time></trkpt><trkpt lat="50.460973794213416" lon="15.86144176717867"><ele>472.0</ele><time>2026-05-02T13:28:12Z</time></trkpt><trkpt lat="50.460871399632744" lon="15.861389651296541"><ele>470.40000000000003</ele><time>2026-05-02T13:28:13Z</time></trkpt><trkpt lat="50.46076242456979" lon="15.861334684974027"><ele>468.80000000000007</ele><time>2026-05-02T13:28:14Z</time></trkpt><trkpt lat="50.46065779395042" lon="15.861275253804475"><ele>467.2</ele><time>2026-05-02T13:28:15Z</time></trkpt><trkpt lat="50.46055799931652" lon="15.861219998558777"><ele>465.6</ele><time>2026-05-02T13:28:16Z</time></trkpt><trkpt lat="50.46046130908914" lon="15.861169798803983"><ele>464.0</ele><time>2026-05-02T13:28:17Z</time></trkpt><trkpt lat="50.46035804739479" lon="15.861122470550278"><ele>463.2</ele><time>2026-05-02T13:28:18Z</time></trkpt><trkpt lat="50.460250884885234" lon="15.86106334414748"><ele>462.4</ele><time>2026-05-02T13:28:19Z</time></trkpt><trkpt lat="50.46014181271563" lon="15.860996717874114"><ele>461.6</ele><time>2026-05-02T13:28:20Z</time></trkpt><trkpt lat="50.46004096679999" lon="15.86093038070723"><ele>460.8</ele><time>2026-05-02T13:28:21Z</time></trkpt><trkpt lat="50.45994898051603" lon="15.860861117173942"><ele>460.0</ele><time>2026-05-02T13:28:22Z</time></trkpt><trkpt lat="50.459848898486314" lon="15.860782203334876"><ele>459.5</ele><time>2026-05-02T13:28:23Z</time></trkpt><trkpt lat="50.4597399028154" lon="15.860693737125853"><ele>459.0</ele><time>2026-05-02T13:28:24Z</time></trkpt><trkpt lat="50.45961857472591" lon="15.860603771724275"><ele>458.5</ele><time>2026-05-02T13:28:25Z</time></trkpt><trkpt lat="50.45949308862397" lon="15.860511285606838"><ele>458.0</ele><time>2026-05-02T13:28:26Z</time></trkpt><trkpt lat="50.45936376408052" lon="15.860411462665471"><ele>456.25</ele><time>2026-05-02T13:28:27Z</time></trkpt><trkpt lat="50.45923113274316" lon="15.860305171333316"><ele>454.5</ele><time>2026-05-02T13:28:28Z</time></trkpt><trkpt lat="50.45909905673213" lon="15.86020111096556"><ele>452.75</ele><time>2026-05-02T13:28:29Z</time></trkpt><trkpt lat="50.458967892232465" lon="15.860098444721881"><ele>451.0</ele><time>2026-05-02T13:28:30Z</time></trkpt><trkpt lat="50.45883763110288" lon="15.860001306604383"><ele>451.5</ele><time>2026-05-02T13:28:31Z</time></trkpt><trkpt lat="50.45871513448857" lon="15.85990864542913"><ele>452.0</ele><time>2026-05-02T13:28:32Z</time></trkpt><trkpt lat="50.45859875755041" lon="15.85980975488797"><ele>452.5</ele><time>2026-05-02T13:28:33Z</time></trkpt><trkpt lat="50.45848416135306" lon="15.859715733507029"><ele>453.0</ele><time>2026-05-02T13:28:34Z</time></trkpt><trkpt lat="50.45837655157348" lon="15.859633129912913"><ele>453.0</ele><time>2026-05-02T13:28:35Z</time></trkpt><trkpt lat="50.45827672224714" lon="15.859557497168296"><ele>452.99999999999994</ele><time>2026-05-02T13:28:36Z</time></trkpt><trkpt lat="50.45817724887783" lon="15.859484660707118"><ele>452.99999999999994</ele><time>2026-05-02T13:28:37Z</time></trkpt><trkpt lat="50.458077495372216" lon="15.859404837158403"><ele>453.0</ele><time>2026-05-02T13:28:38Z</time></trkpt><trkpt lat="50.457979173079664" lon="15.859327874879705"><ele>453.0</ele><time>2026-05-02T13:28:39Z</time></trkpt><trkpt lat="50.45788013738797" lon="15.859250125410272"><ele>453.59999999999997</ele><time>2026-05-02T13:28:40Z</time></trkpt><trkpt lat="50.457781092583964" lon="15.859173291962374"><ele>454.19999999999993</ele><time>2026-05-02T13:28:41Z</time></trkpt><trkpt lat="50.45768348936778" lon="15.859097204160852"><ele>454.8</ele><time>2026-05-02T13:28:42Z</time></trkpt><trkpt lat="50.457591002476256" lon="15.859019144554818"><ele>455.4</ele><time>2026-05-02T13:28:43Z</time></trkpt><trkpt lat="50.45750053886837" lon="15.858940712156716"><ele>456.0</ele><time>2026-05-02T13:28:44Z</time></trkpt><trkpt lat="50.45741285741176" lon="15.858868434710159"><ele>456.0</ele><time>2026-05-02T13:28:45Z</time></trkpt><trkpt lat="50.45732571775347" lon="15.85880442457206"><ele>456.0</ele><time>2026-05-02T13:28:46Z</time></trkpt><trkpt lat="50.45722952158867" lon="15.858739770552154"><ele>456.0</ele><time>2026-05-02T13:28:47Z</time></trkpt><trkpt lat="50.4571184404765" lon="15.85867955580098"><ele>456.0</ele><time>2026-05-02T13:28:48Z</time></trkpt><trkpt lat="50.457000570722826" lon="15.858624637394282"><ele>456.0</ele><time>2026-05-02T13:28:49Z</time></trkpt><trkpt lat="50.45687060204471" lon="15.858605985778855"><ele>455.0</ele><time>2026-05-02T13:28:50Z</time></trkpt><trkpt lat="50.456733334044124" lon="15.85860832833256"><ele>454.0</ele><time>2026-05-02T13:28:51Z</time></trkpt><trkpt lat="50.45660069812125" lon="15.858598059661796"><ele>453.0</ele><time>2026-05-02T13:28:52Z</time></trkpt><trkpt lat="50.45647802524" lon="15.85862617281678"><ele>452.0</ele><time>2026-05-02T13:28:53Z</time></trkpt><trkpt lat="50.45637004853317" lon="15.85866744106393"><ele>451.40000000000003</ele><time>2026-05-02T13:28:54Z</time></trkpt><trkpt lat="50.45626846893716" lon="15.858691782941245"><ele>450.80000000000007</ele><time>2026-05-02T13:28:55Z</time></trkpt><trkpt lat="50.456171120020095" lon="15.858702927531436"><ele>450.2</ele><time>2026-05-02T13:28:56Z</time></trkpt><trkpt lat="50.456074067367354" lon="15.858695727949808"><ele>449.6</ele><time>2026-05-02T13:28:57Z</time></trkpt><trkpt lat="50.455969532908156" lon="15.85868091057153"><ele>449.0</ele><time>2026-05-02T13:28:58Z</time></trkpt><trkpt lat="50.45585469529147" lon="15.858651823862758"><ele>449.0</ele><time>2026-05-02T13:28:59Z</time></trkpt><trkpt lat="50.455735529192914" lon="15.858624091545463"><ele>449.0</ele><time>2026-05-02T13:29:00Z</time></trkpt><trkpt lat="50.455609015260514" lon="15.858622787670097"><ele>449.0</ele><time>2026-05-02T13:29:01Z</time></trkpt><trkpt lat="50.45549914514257" lon="15.858629098123815"><ele>449.0</ele><time>2026-05-02T13:29:02Z</time></trkpt><trkpt lat="50.45540238987106" lon="15.858627256863397"><ele>447.75</ele><time>2026-05-02T13:29:03Z</time></trkpt><trkpt lat="50.455305052904414" lon="15.858623173879856"><ele>446.5</ele><time>2026-05-02T13:29:04Z</time></trkpt><trkpt lat="50.455198917113" lon="15.858625903229024"><ele>445.25</ele><time>2026-05-02T13:29:05Z</time></trkpt><trkpt lat="50.45508271297864" lon="15.858627708180592"><ele>444.0</ele><time>2026-05-02T13:29:06Z</time></trkpt><trkpt lat="50.454947661223855" lon="15.858626643705524"><ele>444.0</ele><time>2026-05-02T13:29:07Z</time></trkpt><trkpt lat="50.454804479551946" lon="15.858616336078438"><ele>444.0</ele><time>2026-05-02T13:29:08Z</time></trkpt><trkpt lat="50.45466918238878" lon="15.858608833289514"><ele>444.0</ele><time>2026-05-02T13:29:09Z</time></trkpt><trkpt lat="50.454535757402255" lon="15.858596094841225"><ele>444.0</ele><time>2026-05-02T13:29:10Z</time></trkpt><trkpt lat="50.45441410425438" lon="15.858582113843111"><ele>443.25</ele><time>2026-05-02T13:29:11Z</time></trkpt><trkpt lat="50.454290641527365" lon="15.858569815893523"><ele>442.5</ele><time>2026-05-02T13:29:12Z</time></trkpt><trkpt lat="50.454166758801044" lon="15.858557092628725"><ele>441.75</ele><time>2026-05-02T13:29:13Z</time></trkpt><trkpt lat="50.45404094887663" lon="15.858547378066545"><ele>441.0</ele><time>2026-05-02T13:29:14Z</time></trkpt><trkpt lat="50.45392565232393" lon="15.85853882135564"><ele>441.0</ele><time>2026-05-02T13:29:15Z</time></trkpt><trkpt lat="50.453813181264714" lon="15.858534765872124"><ele>441.0</ele><time>2026-05-02T13:29:16Z</time></trkpt><trkpt lat="50.453698931693424" lon="15.858524574827102"><ele>441.0</ele><time>2026-05-02T13:29:17Z</time></trkpt><trkpt lat="50.45358426961388" lon="15.858513751974508"><ele>441.0</ele><time>2026-05-02T13:29:18Z</time></trkpt><trkpt lat="50.453471802030926" lon="15.858506577027711"><ele>440.4</ele><time>2026-05-02T13:29:19Z</time></trkpt><trkpt lat="50.4533600637427" lon="15.858503434563463"><ele>439.8</ele><time>2026-05-02T13:29:20Z</time></trkpt><trkpt lat="50.45325012588505" lon="15.858499924164162"><ele>439.19999999999993</ele><time>2026-05-02T13:29:21Z</time></trkpt><trkpt lat="50.45314176577231" lon="15.858497671765365"><ele>438.59999999999997</ele><time>2026-05-02T13:29:22Z</time></trkpt><trkpt lat="50.45303478242962" lon="15.85849501629627"><ele>438.0</ele><time>2026-05-02T13:29:23Z</time></trkpt><trkpt lat="50.45292632962327" lon="15.858491513388172"><ele>437.79999999999995</ele><time>2026-05-02T13:29:24Z</time></trkpt><trkpt lat="50.45281842844055" lon="15.858482896929443"><ele>437.59999999999997</ele><time>2026-05-02T13:29:25Z</time></trkpt><trkpt lat="50.45271192223877" lon="15.858473344919409"><ele>437.40000000000003</ele><time>2026-05-02T13:29:26Z</time></trkpt><trkpt lat="50.45260115434479" lon="15.858469499627056"><ele>437.20000000000005</ele><time>2026-05-02T13:29:27Z</time></trkpt><trkpt lat="50.45249121500025" lon="15.858462503084573"><ele>437.0</ele><time>2026-05-02T13:29:28Z</time></trkpt><trkpt lat="50.45238081368061" lon="15.858455514931142"><ele>437.0</ele><time>2026-05-02T13:29:29Z</time></trkpt><trkpt lat="50.45227138186655" lon="15.858454469592255"><ele>437.00000000000006</ele><time>2026-05-02T13:29:30Z</time></trkpt><trkpt lat="50.45215877646228" lon="15.858450685640603"><ele>437.00000000000006</ele><time>2026-05-02T13:29:31Z</time></trkpt><trkpt lat="50.452048626320256" lon="15.858441804927212"><ele>437.0</ele><time>2026-05-02T13:29:32Z</time></trkpt><trkpt lat="50.451933020897336" lon="15.858434323334782"><ele>437.0</ele><time>2026-05-02T13:29:33Z</time></trkpt><trkpt lat="50.451820133380636" lon="15.858427094354555"><ele>435.75</ele><time>2026-05-02T13:29:34Z</time></trkpt><trkpt lat="50.45170596162915" lon="15.85841718239469"><ele>434.5</ele><time>2026-05-02T13:29:35Z</time></trkpt><trkpt lat="50.451591693183985" lon="15.858408296646155"><ele>433.25</ele><time>2026-05-02T13:29:36Z</time></trkpt><trkpt lat="50.45147644941188" lon="15.858396349279094"><ele>432.0</ele><time>2026-05-02T13:29:37Z</time></trkpt><trkpt lat="50.45135948912453" lon="15.85838850433309"><ele>431.0</ele><time>2026-05-02T13:29:38Z</time></trkpt><trkpt lat="50.45124372451953" lon="15.858374721605866"><ele>430.0</ele><time>2026-05-02T13:29:39Z</time></trkpt><trkpt lat="50.45112799357656" lon="15.858356130138297"><ele>429.0</ele><time>2026-05-02T13:29:40Z</time></trkpt><trkpt lat="50.45101172039425" lon="15.858336446459074"><ele>428.0</ele><time>2026-05-02T13:29:41Z</time></trkpt><trkpt lat="50.45089366050774" lon="15.858313158035221"><ele>428.0</ele><time>2026-05-02T13:29:42Z</time></trkpt><trkpt lat="50.450778382021426" lon="15.858277060673494"><ele>428.0</ele><time>2026-05-02T13:29:43Z</time></trkpt><trkpt lat="50.4506569764833" lon="15.858241835845217"><ele>428.0</ele><time>2026-05-02T13:29:44Z</time></trkpt><trkpt lat="50.45053595962119" lon="15.858199672581978"><ele>428.0</ele><time>2026-05-02T13:29:45Z</time></trkpt><trkpt lat="50.45041304581532" lon="15.858158099111927"><ele>425.5</ele><time>2026-05-02T13:29:46Z</time></trkpt><trkpt lat="50.450289748455305" lon="15.858105670879853"><ele>423.0</ele><time>2026-05-02T13:29:47Z</time></trkpt><trkpt lat="50.450166552444266" lon="15.858047944205302"><ele>420.5</ele><time>2026-05-02T13:29:48Z</time></trkpt><trkpt lat="50.45003002965849" lon="15.85799791642584"><ele>418.0</ele><time>2026-05-02T13:29:49Z</time></trkpt><trkpt lat="50.44983215018595" lon="15.857896959021344"><ele>413.5</ele><time>2026-05-02T13:29:50Z</time></trkpt><trkpt lat="50.44960127905833" lon="15.857782052453565"><ele>409.0</ele><time>2026-05-02T13:29:51Z</time></trkpt><trkpt lat="50.449333666054585" lon="15.857671908735595"><ele>408.5</ele><time>2026-05-02T13:29:52Z</time></trkpt><trkpt lat="50.44903194031137" lon="15.857540230190665"><ele>408.0</ele><time>2026-05-02T13:29:53Z</time></trkpt><trkpt lat="50.44876088021428" lon="15.857425545218847"><ele>405.5</ele><time>2026-05-02T13:29:54Z</time></trkpt><trkpt lat="50.448503528538424" lon="15.857309638657"><ele>403.0</ele><time>2026-05-02T13:29:55Z</time></trkpt><trkpt lat="50.44826357230855" lon="15.857201247775372"><ele>403.0</ele><time>2026-05-02T13:29:56Z</time></trkpt><trkpt lat="50.4480150475973" lon="15.85708950093989"><ele>403.0</ele><time>2026-05-02T13:29:57Z</time></trkpt><trkpt lat="50.44775946390386" lon="15.856977767146226"><ele>400.0</ele><time>2026-05-02T13:29:58Z</time></trkpt><trkpt lat="50.447498873804655" lon="15.856868485314942"><ele>397.0</ele><time>2026-05-02T13:29:59Z</time></trkpt><trkpt lat="50.44723767024619" lon="15.856754938161673"><ele>395.0</ele><time>2026-05-02T13:30:00Z</time></trkpt><trkpt lat="50.44699590134687" lon="15.856656387521555"><ele>393.0</ele><time>2026-05-02T13:30:01Z</time></trkpt><trkpt lat="50.446766004302965" lon="15.856591557771075"><ele>393.0</ele><time>2026-05-02T13:30:02Z</time></trkpt><trkpt lat="50.44654074334363" lon="15.856569204367688"><ele>393.0</ele><time>2026-05-02T13:30:03.001Z</time></trkpt><trkpt lat="50.44630082891487" lon="15.856571644374208"><ele>391.5</ele><time>2026-05-02T13:30:04.001Z</time></trkpt><trkpt lat="50.446054395707016" lon="15.856617841835186"><ele>390.0</ele><time>2026-05-02T13:30:05.001Z</time></trkpt><trkpt lat="50.445824817337076" lon="15.8566851316648"><ele>389.5</ele><time>2026-05-02T13:30:06.001Z</time></trkpt><trkpt lat="50.44559897262117" lon="15.856795966630813"><ele>389.0</ele><time>2026-05-02T13:30:07.001Z</time></trkpt><trkpt lat="50.44537118985167" lon="15.8569296420171"><ele>388.0</ele><time>2026-05-02T13:30:08.001Z</time></trkpt><trkpt lat="50.44514234174585" lon="15.857093703793037"><ele>387.0</ele><time>2026-05-02T13:30:09Z</time></trkpt><trkpt lat="50.44491024228038" lon="15.85729637575964"><ele>387.0</ele><time>2026-05-02T13:30:10Z</time></trkpt><trkpt lat="50.44468477425338" lon="15.857502503529354"><ele>387.0</ele><time>2026-05-02T13:30:11Z</time></trkpt><trkpt lat="50.44445583439906" lon="15.857701688136732"><ele>385.0</ele><time>2026-05-02T13:30:12Z</time></trkpt><trkpt lat="50.444204056551015" lon="15.85792536662038"><ele>383.0</ele><time>2026-05-02T13:30:13Z</time></trkpt><trkpt lat="50.44392419921336" lon="15.858186780483122"><ele>381.0</ele><time>2026-05-02T13:30:14Z</time></trkpt><trkpt lat="50.44362566275703" lon="15.858459454482352"><ele>379.0</ele><time>2026-05-02T13:30:15Z</time></trkpt><trkpt lat="50.44334277492128" lon="15.858708974324962"><ele>379.0</ele><time>2026-05-02T13:30:16Z</time></trkpt><trkpt lat="50.44307624045226" lon="15.85895364439209"><ele>379.0</ele><time>2026-05-02T13:30:17Z</time></trkpt><trkpt lat="50.44281707383378" lon="15.859191385069492"><ele>376.5</ele><time>2026-05-02T13:30:18Z</time></trkpt><trkpt lat="50.44257798969286" lon="15.85940538405807"><ele>374.0</ele><time>2026-05-02T13:30:19Z</time></trkpt><trkpt lat="50.44234905868238" lon="15.859602991650187"><ele>374.0</ele><time>2026-05-02T13:30:20Z</time></trkpt><trkpt lat="50.4421352532879" lon="15.859790045576775"><ele>374.0</ele><time>2026-05-02T13:30:21Z</time></trkpt><trkpt lat="50.441929645331065" lon="15.85997078278576"><ele>376.0</ele><time>2026-05-02T13:30:22Z</time></trkpt><trkpt lat="50.44172257490476" lon="15.860155717952424"><ele>378.0</ele><time>2026-05-02T13:30:23Z</time></trkpt><trkpt lat="50.441527923735784" lon="15.86033092466196"><ele>378.0</ele><time>2026-05-02T13:30:24Z</time></trkpt><trkpt lat="50.44134043778105" lon="15.860501451252091"><ele>378.0</ele><time>2026-05-02T13:30:25Z</time></trkpt><trkpt lat="50.44116126205395" lon="15.860673082557625"><ele>378.0</ele><time>2026-05-02T13:30:26Z</time></trkpt><trkpt lat="50.44098007012483" lon="15.860871045525284"><ele>377.0</ele><time>2026-05-02T13:30:27Z</time></trkpt><trkpt lat="50.440805261340856" lon="15.861092168911977"><ele>376.0</ele><time>2026-05-02T13:30:28Z</time></trkpt><trkpt lat="50.440638923842954" lon="15.861338028153597"><ele>375.0</ele><time>2026-05-02T13:30:29Z</time></trkpt><trkpt lat="50.44046145166267" lon="15.861590583142345"><ele>374.0</ele><time>2026-05-02T13:30:30Z</time></trkpt><trkpt lat="50.44028501566216" lon="15.861863352231625"><ele>373.0</ele><time>2026-05-02T13:30:31Z</time></trkpt><trkpt lat="50.44010399795986" lon="15.862148691506663"><ele>372.0</ele><time>2026-05-02T13:30:32Z</time></trkpt><trkpt lat="50.439982302815544" lon="15.86247625359113"><ele>372.5</ele><time>2026-05-02T13:30:33Z</time></trkpt><trkpt lat="50.43982730197815" lon="15.862739995400094"><ele>373.0</ele><time>2026-05-02T13:30:34Z</time></trkpt><trkpt lat="50.43966828778965" lon="15.863000225835993"><ele>373.3333333333333</ele><time>2026-05-02T13:30:35Z</time></trkpt><trkpt lat="50.4395145138191" lon="15.86323667879761"><ele>373.6666666666667</ele><time>2026-05-02T13:30:36Z</time></trkpt><trkpt lat="50.43934739366704" lon="15.863458130427027"><ele>374.0</ele><time>2026-05-02T13:30:37Z</time></trkpt><trkpt lat="50.43916774317605" lon="15.863655778124276"><ele>372.5</ele><time>2026-05-02T13:30:38Z</time></trkpt><trkpt lat="50.43897373974493" lon="15.863838470518033"><ele>371.0</ele><time>2026-05-02T13:30:39Z</time></trkpt><trkpt lat="50.43876232436844" lon="15.864013529174683"><ele>368.0</ele><time>2026-05-02T13:30:40Z</time></trkpt><trkpt lat="50.43854976471086" lon="15.864166632342293"><ele>365.0</ele><time>2026-05-02T13:30:41Z</time></trkpt><trkpt lat="50.4383361700122" lon="15.864310068657158"><ele>365.0</ele><time>2026-05-02T13:30:42Z</time></trkpt><trkpt lat="50.43812048723626" lon="15.864449332383026"><ele>365.0</ele><time>2026-05-02T13:30:43Z</time></trkpt><trkpt lat="50.43789770898846" lon="15.864597126222566"><ele>365.0</ele><time>2026-05-02T13:30:44Z</time></trkpt><trkpt lat="50.43768442136431" lon="15.864744572321499"><ele>365.0</ele><time>2026-05-02T13:30:45Z</time></trkpt><trkpt lat="50.43746079895834" lon="15.864905158170577"><ele>365.0</ele><time>2026-05-02T13:30:46Z</time></trkpt><trkpt lat="50.43719656568519" lon="15.865103658163449"><ele>365.0</ele><time>2026-05-02T13:30:47Z</time></trkpt><trkpt lat="50.43689740200905" lon="15.865314218240925"><ele>362.0</ele><time>2026-05-02T13:30:48Z</time></trkpt><trkpt lat="50.436566335357995" lon="15.865541997515171"><ele>359.0</ele><time>2026-05-02T13:30:49Z</time></trkpt><trkpt lat="50.43626205947528" lon="15.86576140894357"><ele>351.5</ele><time>2026-05-02T13:30:50Z</time></trkpt><trkpt lat="50.435985042709675" lon="15.865959174119956"><ele>344.0</ele><time>2026-05-02T13:30:51Z</time></trkpt><trkpt lat="50.43570992204061" lon="15.86615309517102"><ele>341.0</ele><time>2026-05-02T13:30:52Z</time></trkpt><trkpt lat="50.43542568668274" lon="15.866340853837386"><ele>338.0</ele><time>2026-05-02T13:30:53Z</time></trkpt><trkpt lat="50.43512531830814" lon="15.8665176029876"><ele>338.0</ele><time>2026-05-02T13:30:54Z</time></trkpt><trkpt lat="50.43479129997343" lon="15.86669764011816"><ele>338.0</ele><time>2026-05-02T13:30:55Z</time></trkpt><trkpt lat="50.43441829489249" lon="15.866885736794012"><ele>334.5</ele><time>2026-05-02T13:30:56Z</time></trkpt><trkpt lat="50.43403434916627" lon="15.867067977877"><ele>331.0</ele><time>2026-05-02T13:30:57Z</time></trkpt><trkpt lat="50.43363033859657" lon="15.867246009715364"><ele>330.5</ele><time>2026-05-02T13:30:58Z</time></trkpt><trkpt lat="50.43322023570378" lon="15.867420346905906"><ele>330.0</ele><time>2026-05-02T13:30:59Z</time></trkpt><trkpt lat="50.432835526405015" lon="15.867578415855949"><ele>328.5</ele><time>2026-05-02T13:31:00Z</time></trkpt><trkpt lat="50.43249317859452" lon="15.867713905704443"><ele>327.0</ele><time>2026-05-02T13:31:01Z</time></trkpt><trkpt lat="50.432180778972466" lon="15.867841903231172"><ele>325.5</ele><time>2026-05-02T13:31:02Z</time></trkpt><trkpt lat="50.43188771571352" lon="15.867965812605284"><ele>324.0</ele><time>2026-05-02T13:31:03Z</time></trkpt><trkpt lat="50.43162040815118" lon="15.868086089912017"><ele>324.0</ele><time>2026-05-02T13:31:04Z</time></trkpt><trkpt lat="50.43135505721157" lon="15.868224650676439"><ele>324.0</ele><time>2026-05-02T13:31:05Z</time></trkpt><trkpt lat="50.43107991629803" lon="15.868386774899621"><ele>321.5</ele><time>2026-05-02T13:31:06Z</time></trkpt><trkpt lat="50.43080225366131" lon="15.86854733626099"><ele>319.0</ele><time>2026-05-02T13:31:07Z</time></trkpt><trkpt lat="50.43051889020752" lon="15.86871915296782"><ele>319.0</ele><time>2026-05-02T13:31:08Z</time></trkpt><trkpt lat="50.4302312067231" lon="15.868905357254983"><ele>319.0</ele><time>2026-05-02T13:31:09Z</time></trkpt><trkpt lat="50.42993803119748" lon="15.869114578691699"><ele>316.5</ele><time>2026-05-02T13:31:10Z</time></trkpt><trkpt lat="50.429631246036884" lon="15.869353007596795"><ele>314.0</ele><time>2026-05-02T13:31:11Z</time></trkpt><trkpt lat="50.42932034468174" lon="15.869617410483045"><ele>314.0</ele><time>2026-05-02T13:31:12Z</time></trkpt><trkpt lat="50.429038570611944" lon="15.869876091287267"><ele>314.0</ele><time>2026-05-02T13:31:13Z</time></trkpt><trkpt lat="50.42878597333336" lon="15.870130331798917"><ele>312.5</ele><time>2026-05-02T13:31:14Z</time></trkpt><trkpt lat="50.42856054820789" lon="15.870385820738587"><ele>311.0</ele><time>2026-05-02T13:31:15Z</time></trkpt><trkpt lat="50.42834347015847" lon="15.870640554957717"><ele>311.0</ele><time>2026-05-02T13:31:16Z</time></trkpt><trkpt lat="50.42814265065161" lon="15.870893097773065"><ele>311.0</ele><time>2026-05-02T13:31:17Z</time></trkpt><trkpt lat="50.42794377209098" lon="15.871162353424134"><ele>310.33333333333337</ele><time>2026-05-02T13:31:18Z</time></trkpt><trkpt lat="50.427768349307385" lon="15.871406859468062"><ele>309.6666666666667</ele><time>2026-05-02T13:31:19Z</time></trkpt><trkpt lat="50.42762583980383" lon="15.871613814083872"><ele>309.0</ele><time>2026-05-02T13:31:20Z</time></trkpt><trkpt lat="50.42749642462051" lon="15.871813071798428"><ele>309.0</ele><time>2026-05-02T13:31:21Z</time></trkpt><trkpt lat="50.4273761564338" lon="15.872022784832355"><ele>309.0</ele><time>2026-05-02T13:31:22Z</time></trkpt><trkpt lat="50.42725728036812" lon="15.872221039207645"><ele>309.0</ele><time>2026-05-02T13:31:23Z</time></trkpt><trkpt lat="50.42713765882024" lon="15.87240205123064"><ele>306.0</ele><time>2026-05-02T13:31:24Z</time></trkpt><trkpt lat="50.42701765069314" lon="15.87259366697336"><ele>303.0</ele><time>2026-05-02T13:31:25Z</time></trkpt><trkpt lat="50.42690914420791" lon="15.872787438295891"><ele>300.0</ele><time>2026-05-02T13:31:26Z</time></trkpt><trkpt lat="50.42678841556021" lon="15.87298187839726"><ele>300.0</ele><time>2026-05-02T13:31:27Z</time></trkpt><trkpt lat="50.4266766629163" lon="15.873164294392403"><ele>300.0</ele><time>2026-05-02T13:31:28Z</time></trkpt><trkpt lat="50.42656248430357" lon="15.873343704744373"><ele>300.0</ele><time>2026-05-02T13:31:29Z</time></trkpt><trkpt lat="50.42645562962615" lon="15.873505527109161"><ele>299.75</ele><time>2026-05-02T13:31:30Z</time></trkpt><trkpt lat="50.42634893007789" lon="15.873654642526319"><ele>299.5</ele><time>2026-05-02T13:31:31Z</time></trkpt><trkpt lat="50.42625069918063" lon="15.873787515154858"><ele>299.25</ele><time>2026-05-02T13:31:32Z</time></trkpt><trkpt lat="50.4261548963413" lon="15.873912568901881"><ele>299.0</ele><time>2026-05-02T13:31:33Z</time></trkpt><trkpt lat="50.42606423861398" lon="15.874021770283283"><ele>298.5</ele><time>2026-05-02T13:31:34Z</time></trkpt><trkpt lat="50.42594198129859" lon="15.87420155874773"><ele>298.0</ele><time>2026-05-02T13:31:35Z</time></trkpt><trkpt lat="50.42584190433275" lon="15.874349854006445"><ele>297.5</ele><time>2026-05-02T13:31:36Z</time></trkpt><trkpt lat="50.425730250706444" lon="15.874454060907869"><ele>297.0</ele><time>2026-05-02T13:31:37Z</time></trkpt><trkpt lat="50.42563165346403" lon="15.874580092786141"><ele>297.0</ele><time>2026-05-02T13:31:38Z</time></trkpt><trkpt lat="50.42553220742513" lon="15.874723576594546"><ele>297.0</ele><time>2026-05-02T13:31:39Z</time></trkpt><trkpt lat="50.425426070635744" lon="15.874835096409111"><ele>297.0</ele><time>2026-05-02T13:31:40Z</time></trkpt><trkpt lat="50.42533319784213" lon="15.874946899402486"><ele>297.0</ele><time>2026-05-02T13:31:41Z</time></trkpt><trkpt lat="50.42524950816012" lon="15.875062738555034"><ele>296.2</ele><time>2026-05-02T13:31:42Z</time></trkpt><trkpt lat="50.42517064950339" lon="15.875176228156516"><ele>295.4</ele><time>2026-05-02T13:31:43Z</time></trkpt><trkpt lat="50.42509182694627" lon="15.875274721086246"><ele>294.6</ele><time>2026-05-02T13:31:44Z</time></trkpt><trkpt lat="50.42501514273862" lon="15.875373861588164"><ele>293.8</ele><time>2026-05-02T13:31:45Z</time></trkpt><trkpt lat="50.42494094995148" lon="15.875466325171077"><ele>293.0</ele><time>2026-05-02T13:31:46Z</time></trkpt><trkpt lat="50.424874556814935" lon="15.875559862087437"><ele>293.0</ele><time>2026-05-02T13:31:47Z</time></trkpt><trkpt lat="50.42481091927278" lon="15.875653019942117"><ele>293.0</ele><time>2026-05-02T13:31:48Z</time></trkpt><trkpt lat="50.42474065938931" lon="15.875747773250039"><ele>293.0</ele><time>2026-05-02T13:31:49Z</time></trkpt><trkpt lat="50.42465808240895" lon="15.875880796965795"><ele>293.0</ele><time>2026-05-02T13:31:50Z</time></trkpt><trkpt lat="50.42456164534712" lon="15.876024391592862"><ele>293.0</ele><time>2026-05-02T13:31:51Z</time></trkpt><trkpt lat="50.424479839212125" lon="15.876154617858411"><ele>292.4</ele><time>2026-05-02T13:31:52Z</time></trkpt><trkpt lat="50.424410457984855" lon="15.876279753428754"><ele>291.8</ele><time>2026-05-02T13:31:53Z</time></trkpt><trkpt lat="50.42434215202843" lon="15.876397991705305"><ele>291.2</ele><time>2026-05-02T13:31:54Z</time></trkpt><trkpt lat="50.4242796037358" lon="15.876514612892908"><ele>290.6</ele><time>2026-05-02T13:31:55Z</time></trkpt><trkpt lat="50.42422511554427" lon="15.876628094104008"><ele>290.0</ele><time>2026-05-02T13:31:56Z</time></trkpt><trkpt lat="50.42415734406178" lon="15.876724555796399"><ele>290.25</ele><time>2026-05-02T13:31:57Z</time></trkpt><trkpt lat="50.42408159911746" lon="15.876863517904582"><ele>290.5</ele><time>2026-05-02T13:31:58Z</time></trkpt><trkpt lat="50.42400947128721" lon="15.877023621531107"><ele>290.75</ele><time>2026-05-02T13:31:59Z</time></trkpt><trkpt lat="50.42393158188519" lon="15.877156558986753"><ele>291.0</ele><time>2026-05-02T13:32:00Z</time></trkpt><trkpt lat="50.42386067508471" lon="15.877283323429737"><ele>290.40000000000003</ele><time>2026-05-02T13:32:01Z</time></trkpt><trkpt lat="50.42379358184406" lon="15.877403637477748"><ele>289.8</ele><time>2026-05-02T13:32:02Z</time></trkpt><trkpt lat="50.423728554297014" lon="15.87752237858644"><ele>289.20000000000005</ele><time>2026-05-02T13:32:03Z</time></trkpt><trkpt lat="50.423659123509935" lon="15.877647444213483"><ele>288.6</ele><time>2026-05-02T13:32:04Z</time></trkpt><trkpt lat="50.423584110144176" lon="15.87779368807173"><ele>288.0</ele><time>2026-05-02T13:32:05Z</time></trkpt><trkpt lat="50.42350480455813" lon="15.877950064023805"><ele>288.0</ele><time>2026-05-02T13:32:06Z</time></trkpt><trkpt lat="50.42342172966995" lon="15.878106075867956"><ele>288.0</ele><time>2026-05-02T13:32:07Z</time></trkpt><trkpt lat="50.42333965890686" lon="15.87826773012931"><ele>288.0</ele><time>2026-05-02T13:32:08Z</time></trkpt><trkpt lat="50.42325158854291" lon="15.878430569232947"><ele>288.0</ele><time>2026-05-02T13:32:09Z</time></trkpt><trkpt lat="50.42316230758619" lon="15.878590722603027"><ele>288.4</ele><time>2026-05-02T13:32:10Z</time></trkpt><trkpt lat="50.423080697131" lon="15.878728213508435"><ele>288.8</ele><time>2026-05-02T13:32:11Z</time></trkpt><trkpt lat="50.423011721878915" lon="15.878852270587181"><ele>289.2</ele><time>2026-05-02T13:32:12Z</time></trkpt><trkpt lat="50.42294946037028" lon="15.8789678096515"><ele>289.6</ele><time>2026-05-02T13:32:13Z</time></trkpt><trkpt lat="50.422888860709506" lon="15.879074936284722"><ele>290.0</ele><time>2026-05-02T13:32:14Z</time></trkpt><trkpt lat="50.422810729168575" lon="15.879194799671646"><ele>290.25</ele><time>2026-05-02T13:32:15Z</time></trkpt><trkpt lat="50.422732749588704" lon="15.879332120942157"><ele>290.5</ele><time>2026-05-02T13:32:16Z</time></trkpt><trkpt lat="50.422637872981966" lon="15.879453349685006"><ele>290.75</ele><time>2026-05-02T13:32:17Z</time></trkpt><trkpt lat="50.4225526560313" lon="15.879577829560803"><ele>291.0</ele><time>2026-05-02T13:32:18Z</time></trkpt><trkpt lat="50.42248531125781" lon="15.879701995014553"><ele>291.0</ele><time>2026-05-02T13:32:19Z</time></trkpt><trkpt lat="50.422408203186556" lon="15.879779564475122"><ele>291.0</ele><time>2026-05-02T13:32:20Z</time></trkpt><trkpt lat="50.4223423487397" lon="15.879864243433152"><ele>291.0</ele><time>2026-05-02T13:32:21Z</time></trkpt><trkpt lat="50.42229020856141" lon="15.879953233914094"><ele>291.0</ele><time>2026-05-02T13:32:22Z</time></trkpt><trkpt lat="50.42221327619973" lon="15.880020033402833"><ele>291.0</ele><time>2026-05-02T13:32:23Z</time></trkpt><trkpt lat="50.42213280139353" lon="15.880114521953463"><ele>291.0</ele><time>2026-05-02T13:32:24Z</time></trkpt><trkpt lat="50.42205829833754" lon="15.88022944188186"><ele>291.8</ele><time>2026-05-02T13:32:25Z</time></trkpt><trkpt lat="50.421967987716585" lon="15.880326190531541"><ele>292.6</ele><time>2026-05-02T13:32:26Z</time></trkpt><trkpt lat="50.421879502745" lon="15.880423946441597"><ele>293.4</ele><time>2026-05-02T13:32:27Z</time></trkpt><trkpt lat="50.42178577724777" lon="15.880529530483894"><ele>294.2</ele><time>2026-05-02T13:32:28Z</time></trkpt><trkpt lat="50.42168857475483" lon="15.880628122460758"><ele>295.0</ele><time>2026-05-02T13:32:29Z</time></trkpt><trkpt lat="50.421586409185444" lon="15.880724813816094"><ele>295.0</ele><time>2026-05-02T13:32:30Z</time></trkpt><trkpt lat="50.42148224492624" lon="15.880823017234137"><ele>295.0</ele><time>2026-05-02T13:32:31Z</time></trkpt><trkpt lat="50.42137635155916" lon="15.88091996691134"><ele>295.0</ele><time>2026-05-02T13:32:32Z</time></trkpt><trkpt lat="50.42125921970439" lon="15.880981308477484"><ele>295.0</ele><time>2026-05-02T13:32:33Z</time></trkpt><trkpt lat="50.42115549184742" lon="15.881077484710508"><ele>295.2</ele><time>2026-05-02T13:32:34Z</time></trkpt><trkpt lat="50.42105491087059" lon="15.881131531901744"><ele>295.4</ele><time>2026-05-02T13:32:35Z</time></trkpt><trkpt lat="50.42096050411532" lon="15.881195283960784"><ele>295.6</ele><time>2026-05-02T13:32:36Z</time></trkpt><trkpt lat="50.42086291180876" lon="15.881272199578275"><ele>295.8</ele><time>2026-05-02T13:32:37Z</time></trkpt><trkpt lat="50.420755882938536" lon="15.881350460907505"><ele>296.0</ele><time>2026-05-02T13:32:38Z</time></trkpt><trkpt lat="50.42064417542826" lon="15.881426953323244"><ele>296.0</ele><time>2026-05-02T13:32:39Z</time></trkpt><trkpt lat="50.42052252446704" lon="15.881507946472334"><ele>296.0</ele><time>2026-05-02T13:32:40Z</time></trkpt><trkpt lat="50.42038455683239" lon="15.881603770567645"><ele>296.0</ele><time>2026-05-02T13:32:41Z</time></trkpt><trkpt lat="50.420238615718446" lon="15.881711274477151"><ele>296.0</ele><time>2026-05-02T13:32:42Z</time></trkpt><trkpt lat="50.42008394598184" lon="15.881823699667356"><ele>296.0</ele><time>2026-05-02T13:32:43Z</time></trkpt><trkpt lat="50.41992429581122" lon="15.881936413746029"><ele>296.0</ele><time>2026-05-02T13:32:44Z</time></trkpt><trkpt lat="50.41975681907474" lon="15.882056631583481"><ele>296.0</ele><time>2026-05-02T13:32:45Z</time></trkpt><trkpt lat="50.41959983735114" lon="15.882171366678218"><ele>296.0</ele><time>2026-05-02T13:32:46Z</time></trkpt><trkpt lat="50.419457039606826" lon="15.882276762006216"><ele>296.0</ele><time>2026-05-02T13:32:47Z</time></trkpt><trkpt lat="50.419312385169725" lon="15.882388748648058"><ele>296.0</ele><time>2026-05-02T13:32:48Z</time></trkpt><trkpt lat="50.41916271173416" lon="15.882504412186943"><ele>295.6666666666667</ele><time>2026-05-02T13:32:49Z</time></trkpt><trkpt lat="50.41901736292505" lon="15.882605477870717"><ele>295.3333333333333</ele><time>2026-05-02T13:32:50Z</time></trkpt><trkpt lat="50.418882031509966" lon="15.882691921537603"><ele>295.0</ele><time>2026-05-02T13:32:51Z</time></trkpt><trkpt lat="50.418734156658644" lon="15.882798851418862"><ele>294.66666666666663</ele><time>2026-05-02T13:32:52Z</time></trkpt><trkpt lat="50.41858482189215" lon="15.882931651118454"><ele>294.3333333333333</ele><time>2026-05-02T13:32:53Z</time></trkpt><trkpt lat="50.418452748120245" lon="15.883041981083696"><ele>294.0</ele><time>2026-05-02T13:32:54Z</time></trkpt><trkpt lat="50.418329528457626" lon="15.883133897734785"><ele>294.0</ele><time>2026-05-02T13:32:55Z</time></trkpt><trkpt lat="50.41822890179335" lon="15.883201675098286"><ele>294.0</ele><time>2026-05-02T13:32:56Z</time></trkpt><trkpt lat="50.418145100189385" lon="15.883252517369508"><ele>294.0</ele><time>2026-05-02T13:32:57Z</time></trkpt><trkpt lat="50.41806921640049" lon="15.883295016866935"><ele>294.0</ele><time>2026-05-02T13:32:58Z</time></trkpt><trkpt lat="50.41800812044097" lon="15.883329749447178"><ele>294.0</ele><time>2026-05-02T13:32:59Z</time></trkpt><trkpt lat="50.41788793547675" lon="15.883374848970975"><ele>294.0</ele><time>2026-05-02T13:33:01Z</time></trkpt><trkpt lat="50.41786756240957" lon="15.88368966595816"><ele>294.0</ele><time>2026-05-02T13:33:03Z</time></trkpt><trkpt lat="50.41786521705375" lon="15.883852856685401"><ele>294.0</ele><time>2026-05-02T13:33:04Z</time></trkpt><trkpt lat="50.41784104056025" lon="15.884051412670063"><ele>294.0</ele><time>2026-05-02T13:33:05Z</time></trkpt><trkpt lat="50.417763666860296" lon="15.884241308951829"><ele>294.0</ele><time>2026-05-02T13:33:06Z</time></trkpt><trkpt lat="50.41766152018158" lon="15.884423350277997"><ele>294.0</ele><time>2026-05-02T13:33:07Z</time></trkpt><trkpt lat="50.417549562264284" lon="15.884633561100337"><ele>294.0</ele><time>2026-05-02T13:33:08Z</time></trkpt><trkpt lat="50.417440447062354" lon="15.88487519457964"><ele>293.3333333333333</ele><time>2026-05-02T13:33:09Z</time></trkpt><trkpt lat="50.41731883511498" lon="15.885118515589157"><ele>292.66666666666663</ele><time>2026-05-02T13:33:10Z</time></trkpt><trkpt lat="50.41718971283831" lon="15.885362875810829"><ele>292.0</ele><time>2026-05-02T13:33:11Z</time></trkpt><trkpt lat="50.41707122442334" lon="15.885584906754021"><ele>291.66666666666663</ele><time>2026-05-02T13:33:12Z</time></trkpt><trkpt lat="50.41696488298807" lon="15.885792687211156"><ele>291.3333333333333</ele><time>2026-05-02T13:33:13Z</time></trkpt><trkpt lat="50.41686824168743" lon="15.88599327472337"><ele>291.0</ele><time>2026-05-02T13:33:14Z</time></trkpt><trkpt lat="50.41680471772958" lon="15.886233068449128"><ele>291.0</ele><time>2026-05-02T13:33:15Z</time></trkpt><trkpt lat="50.416776563755654" lon="15.886521640639618"><ele>291.0</ele><time>2026-05-02T13:33:16Z</time></trkpt><trkpt lat="50.416804076155195" lon="15.886858978259705"><ele>291.0</ele><time>2026-05-02T13:33:17Z</time></trkpt><trkpt lat="50.41684989923274" lon="15.887234714652294"><ele>291.0</ele><time>2026-05-02T13:33:18Z</time></trkpt><trkpt lat="50.416908393329095" lon="15.887671894260075"><ele>291.0</ele><time>2026-05-02T13:33:19Z</time></trkpt><trkpt lat="50.416956714514285" lon="15.888091335599949"><ele>290.5</ele><time>2026-05-02T13:33:20Z</time></trkpt><trkpt lat="50.41699294627572" lon="15.888484883947491"><ele>290.0</ele><time>2026-05-02T13:33:21Z</time></trkpt><trkpt lat="50.41703094329466" lon="15.888883754761078"><ele>289.5</ele><time>2026-05-02T13:33:22Z</time></trkpt><trkpt lat="50.41707433816341" lon="15.889282987200904"><ele>289.0</ele><time>2026-05-02T13:33:23Z</time></trkpt><trkpt lat="50.41711729563987" lon="15.889666249660086"><ele>289.3333333333333</ele><time>2026-05-02T13:33:24Z</time></trkpt><trkpt lat="50.41715307131969" lon="15.890018629157002"><ele>289.6666666666667</ele><time>2026-05-02T13:33:25Z</time></trkpt><trkpt lat="50.41718508217658" lon="15.8903372477479"><ele>290.0</ele><time>2026-05-02T13:33:26Z</time></trkpt><trkpt lat="50.41720936985127" lon="15.890622160351501"><ele>290.0</ele><time>2026-05-02T13:33:27Z</time></trkpt><trkpt lat="50.417183320239175" lon="15.89094560438967"><ele>290.0</ele><time>2026-05-02T13:33:28Z</time></trkpt><trkpt lat="50.41712983362593" lon="15.891329950464756"><ele>290.0</ele><time>2026-05-02T13:33:29Z</time></trkpt><trkpt lat="50.417073659826166" lon="15.891747375580145"><ele>290.0</ele><time>2026-05-02T13:33:30Z</time></trkpt><trkpt lat="50.41699625230195" lon="15.892140544203862"><ele>290.33333333333337</ele><time>2026-05-02T13:33:31Z</time></trkpt><trkpt lat="50.416936406044265" lon="15.89248622451121"><ele>290.6666666666667</ele><time>2026-05-02T13:33:32Z</time></trkpt><trkpt lat="50.41688245344622" lon="15.892801727705878"><ele>291.0</ele><time>2026-05-02T13:33:33Z</time></trkpt><trkpt lat="50.416827873475334" lon="15.89309289505702"><ele>291.0</ele><time>2026-05-02T13:33:34Z</time></trkpt><trkpt lat="50.41678052584511" lon="15.89336921297925"><ele>291.0</ele><time>2026-05-02T13:33:35Z</time></trkpt><trkpt lat="50.41673441128992" lon="15.893649809024424"><ele>291.0</ele><time>2026-05-02T13:33:36Z</time></trkpt><trkpt lat="50.41668308498109" lon="15.893932229543475"><ele>290.6666666666667</ele><time>2026-05-02T13:33:37Z</time></trkpt><trkpt lat="50.41663225411119" lon="15.89422434361541"><ele>290.33333333333337</ele><time>2026-05-02T13:33:38Z</time></trkpt><trkpt lat="50.41658112568817" lon="15.894528548612223"><ele>290.0</ele><time>2026-05-02T13:33:39Z</time></trkpt><trkpt lat="50.41653212516067" lon="15.89482529630942"><ele>289.6666666666667</ele><time>2026-05-02T13:33:40Z</time></trkpt><trkpt lat="50.41649323692195" lon="15.89509754323977"><ele>289.3333333333333</ele><time>2026-05-02T13:33:41Z</time></trkpt><trkpt lat="50.416466881441224" lon="15.895367246950153"><ele>289.0</ele><time>2026-05-02T13:33:42Z</time></trkpt><trkpt lat="50.41644875645349" lon="15.895640311578694"><ele>289.0</ele><time>2026-05-02T13:33:43Z</time></trkpt><trkpt lat="50.41643391367872" lon="15.895897817153545"><ele>289.0</ele><time>2026-05-02T13:33:44Z</time></trkpt><trkpt lat="50.416417157317476" lon="15.89613915561852"><ele>289.0</ele><time>2026-05-02T13:33:45Z</time></trkpt><trkpt lat="50.416400825046786" lon="15.896372313360784"><ele>289.0</ele><time>2026-05-02T13:33:46Z</time></trkpt><trkpt lat="50.41638517676" lon="15.896611652404555"><ele>289.0</ele><time>2026-05-02T13:33:47Z</time></trkpt><trkpt lat="50.41637100271466" lon="15.89686691920594"><ele>289.0</ele><time>2026-05-02T13:33:48Z</time></trkpt><trkpt lat="50.41635542021875" lon="15.897132786588294"><ele>289.0</ele><time>2026-05-02T13:33:49Z</time></trkpt><trkpt lat="50.41634951518199" lon="15.897403292010155"><ele>289.0</ele><time>2026-05-02T13:33:50Z</time></trkpt><trkpt lat="50.41635272624119" lon="15.897679839665352"><ele>289.0</ele><time>2026-05-02T13:33:51Z</time></trkpt><trkpt lat="50.41636195582725" lon="15.897960863011342"><ele>288.66666666666663</ele><time>2026-05-02T13:33:52Z</time></trkpt><trkpt lat="50.41637599755224" lon="15.898248095743096"><ele>288.3333333333333</ele><time>2026-05-02T13:33:53Z</time></trkpt><trkpt lat="50.4163899084172" lon="15.898547880433362"><ele>288.0</ele><time>2026-05-02T13:33:54Z</time></trkpt><trkpt lat="50.41640455515078" lon="15.898886938889527"><ele>287.6666666666667</ele><time>2026-05-02T13:33:55Z</time></trkpt><trkpt lat="50.416420196534624" lon="15.899250577260865"><ele>287.33333333333337</ele><time>2026-05-02T13:33:56Z</time></trkpt><trkpt lat="50.41643364729548" lon="15.899570422332776"><ele>287.0</ele><time>2026-05-02T13:33:57Z</time></trkpt><trkpt lat="50.41644822146565" lon="15.899857207224532"><ele>287.0</ele><time>2026-05-02T13:33:58Z</time></trkpt><trkpt lat="50.416462778700804" lon="15.90014636008049"><ele>287.0</ele><time>2026-05-02T13:33:59Z</time></trkpt><trkpt lat="50.41646980756503" lon="15.900432249961083"><ele>287.0</ele><time>2026-05-02T13:34:00Z</time></trkpt><trkpt lat="50.41647225464473" lon="15.900725685982865"><ele>287.0</ele><time>2026-05-02T13:34:01Z</time></trkpt><trkpt lat="50.416459303366686" lon="15.90103116197147"><ele>287.0</ele><time>2026-05-02T13:34:02Z</time></trkpt><trkpt lat="50.416417625363806" lon="15.901326790366584"><ele>287.0</ele><time>2026-05-02T13:34:03Z</time></trkpt><trkpt lat="50.41634961773658" lon="15.901621862687854"><ele>287.0</ele><time>2026-05-02T13:34:04Z</time></trkpt><trkpt lat="50.41625775105015" lon="15.901923116085316"><ele>287.0</ele><time>2026-05-02T13:34:05Z</time></trkpt><trkpt lat="50.41616105769459" lon="15.90221513136512"><ele>287.0</ele><time>2026-05-02T13:34:06Z</time></trkpt><trkpt lat="50.41607101442543" lon="15.9024904508047"><ele>287.33333333333337</ele><time>2026-05-02T13:34:07Z</time></trkpt><trkpt lat="50.415988613660694" lon="15.902753296231591"><ele>287.6666666666667</ele><time>2026-05-02T13:34:08Z</time></trkpt><trkpt lat="50.41591276383854" lon="15.902998315985284"><ele>288.0</ele><time>2026-05-02T13:34:09Z</time></trkpt><trkpt lat="50.41584042040378" lon="15.903232578903765"><ele>288.0</ele><time>2026-05-02T13:34:10Z</time></trkpt><trkpt lat="50.41576911207316" lon="15.903472916301844"><ele>288.0</ele><time>2026-05-02T13:34:11Z</time></trkpt><trkpt lat="50.41569695784278" lon="15.903715877842272"><ele>288.0</ele><time>2026-05-02T13:34:12Z</time></trkpt><trkpt lat="50.41562170363008" lon="15.903958188944998"><ele>288.0</ele><time>2026-05-02T13:34:13Z</time></trkpt><trkpt lat="50.415547267672046" lon="15.904199683013925"><ele>288.0</ele><time>2026-05-02T13:34:14Z</time></trkpt><trkpt lat="50.4154723949757" lon="15.904442680641921"><ele>288.0</ele><time>2026-05-02T13:34:15Z</time></trkpt><trkpt lat="50.41539647351837" lon="15.904681626560997"><ele>287.0</ele><time>2026-05-02T13:34:16Z</time></trkpt><trkpt lat="50.415324560465216" lon="15.904924474507393"><ele>286.0</ele><time>2026-05-02T13:34:17Z</time></trkpt><trkpt lat="50.4152484881229" lon="15.905167854559297"><ele>285.0</ele><time>2026-05-02T13:34:18Z</time></trkpt><trkpt lat="50.415170444036946" lon="15.905413017615105"><ele>285.0</ele><time>2026-05-02T13:34:19Z</time></trkpt><trkpt lat="50.41509308770755" lon="15.90566124439343"><ele>285.0</ele><time>2026-05-02T13:34:20Z</time></trkpt><trkpt lat="50.415021504111515" lon="15.905896435050082"><ele>285.0</ele><time>2026-05-02T13:34:21Z</time></trkpt><trkpt lat="50.41495216273954" lon="15.906124841227374"><ele>285.0</ele><time>2026-05-02T13:34:22Z</time></trkpt><trkpt lat="50.41488154447807" lon="15.906359128786539"><ele>285.0</ele><time>2026-05-02T13:34:23Z</time></trkpt><trkpt lat="50.414803411865265" lon="15.906607225740474"><ele>285.0</ele><time>2026-05-02T13:34:24Z</time></trkpt><trkpt lat="50.41472205189405" lon="15.906864458830439"><ele>284.3333333333333</ele><time>2026-05-02T13:34:25Z</time></trkpt><trkpt lat="50.41464783537403" lon="15.907105738657274"><ele>283.66666666666663</ele><time>2026-05-02T13:34:26Z</time></trkpt><trkpt lat="50.41457625769524" lon="15.907335113614714"><ele>283.0</ele><time>2026-05-02T13:34:27Z</time></trkpt><trkpt lat="50.414506851382924" lon="15.907561386163172"><ele>283.66666666666663</ele><time>2026-05-02T13:34:28Z</time></trkpt><trkpt lat="50.414439838067864" lon="15.907788515045864"><ele>284.3333333333333</ele><time>2026-05-02T13:34:29Z</time></trkpt><trkpt lat="50.41437286993754" lon="15.908010819530041"><ele>285.0</ele><time>2026-05-02T13:34:30Z</time></trkpt><trkpt lat="50.4143040798448" lon="15.908229482308368"><ele>285.3333333333333</ele><time>2026-05-02T13:34:31Z</time></trkpt><trkpt lat="50.41423474430216" lon="15.90844352686665"><ele>285.66666666666663</ele><time>2026-05-02T13:34:32Z</time></trkpt><trkpt lat="50.41416007676531" lon="15.908655063888599"><ele>286.0</ele><time>2026-05-02T13:34:33Z</time></trkpt><trkpt lat="50.41407740814707" lon="15.908858676695234"><ele>286.0</ele><time>2026-05-02T13:34:34Z</time></trkpt><trkpt lat="50.413988270704984" lon="15.909058396146813"><ele>286.0</ele><time>2026-05-02T13:34:35Z</time></trkpt><trkpt lat="50.413884973649466" lon="15.909240255165622"><ele>286.0</ele><time>2026-05-02T13:34:36Z</time></trkpt><trkpt lat="50.413777803202365" lon="15.909396717828562"><ele>286.0</ele><time>2026-05-02T13:34:37Z</time></trkpt><trkpt lat="50.41367471118159" lon="15.909543366328116"><ele>286.0</ele><time>2026-05-02T13:34:38Z</time></trkpt><trkpt lat="50.41356297274315" lon="15.909700070918271"><ele>286.0</ele><time>2026-05-02T13:34:39Z</time></trkpt><trkpt lat="50.413452172299976" lon="15.909846893235654"><ele>286.0</ele><time>2026-05-02T13:34:40Z</time></trkpt><trkpt lat="50.41334797349441" lon="15.909964984454579"><ele>285.75</ele><time>2026-05-02T13:34:41Z</time></trkpt><trkpt lat="50.41323353465237" lon="15.910087403958004"><ele>285.5</ele><time>2026-05-02T13:34:42Z</time></trkpt><trkpt lat="50.41311316572913" lon="15.910176809780973"><ele>285.25</ele><time>2026-05-02T13:34:43Z</time></trkpt><trkpt lat="50.413009991012544" lon="15.910330843994817"><ele>285.0</ele><time>2026-05-02T13:34:44Z</time></trkpt><trkpt lat="50.412914430687465" lon="15.910534875614003"><ele>285.6666666666667</ele><time>2026-05-02T13:34:45Z</time></trkpt><trkpt lat="50.412818753728146" lon="15.910755284177826"><ele>286.33333333333337</ele><time>2026-05-02T13:34:46Z</time></trkpt><trkpt lat="50.412723185663424" lon="15.91098328096432"><ele>287.0</ele><time>2026-05-02T13:34:47Z</time></trkpt><trkpt lat="50.412631780465404" lon="15.91120434261459"><ele>287.33333333333337</ele><time>2026-05-02T13:34:48Z</time></trkpt><trkpt lat="50.412547057729974" lon="15.911416241677165"><ele>287.6666666666667</ele><time>2026-05-02T13:34:49Z</time></trkpt><trkpt lat="50.4124567715892" lon="15.911617010044392"><ele>288.0</ele><time>2026-05-02T13:34:50Z</time></trkpt><trkpt lat="50.41236319620127" lon="15.911815893629107"><ele>288.3333333333333</ele><time>2026-05-02T13:34:51Z</time></trkpt><trkpt lat="50.41227241834639" lon="15.912019202548153"><ele>288.66666666666663</ele><time>2026-05-02T13:34:52Z</time></trkpt><trkpt lat="50.41218541174449" lon="15.912231331617946"><ele>289.0</ele><time>2026-05-02T13:34:53Z</time></trkpt><trkpt lat="50.4120918752737" lon="15.91245190659715"><ele>288.66666666666663</ele><time>2026-05-02T13:34:54Z</time></trkpt><trkpt lat="50.41199294043551" lon="15.912670200493274"><ele>288.3333333333333</ele><time>2026-05-02T13:34:55Z</time></trkpt><trkpt lat="50.41190112946137" lon="15.912880608222759"><ele>288.0</ele><time>2026-05-02T13:34:56Z</time></trkpt><trkpt lat="50.41182142438701" lon="15.91307225586889"><ele>288.0</ele><time>2026-05-02T13:34:57Z</time></trkpt><trkpt lat="50.41175633341486" lon="15.913286932500462"><ele>288.0</ele><time>2026-05-02T13:34:58Z</time></trkpt><trkpt lat="50.41171860721941" lon="15.913538002083305"><ele>288.0</ele><time>2026-05-02T13:34:59Z</time></trkpt><trkpt lat="50.411716296700526" lon="15.913807314743488"><ele>288.0</ele><time>2026-05-02T13:35:00Z</time></trkpt><trkpt lat="50.41170513990612" lon="15.914075585244591"><ele>288.0</ele><time>2026-05-02T13:35:01Z</time></trkpt><trkpt lat="50.411650824423134" lon="15.914343950434722"><ele>288.0</ele><time>2026-05-02T13:35:02Z</time></trkpt><trkpt lat="50.41162698344535" lon="15.914611931976836"><ele>288.0</ele><time>2026-05-02T13:35:03Z</time></trkpt><trkpt lat="50.41158495878641" lon="15.914851732611572"><ele>288.0</ele><time>2026-05-02T13:35:04Z</time></trkpt><trkpt lat="50.41155599510357" lon="15.915085471229144"><ele>288.0</ele><time>2026-05-02T13:35:05Z</time></trkpt><trkpt lat="50.41151184534696" lon="15.915304517588382"><ele>288.0</ele><time>2026-05-02T13:35:06Z</time></trkpt><trkpt lat="50.4114958885822" lon="15.915529289145931"><ele>288.0</ele><time>2026-05-02T13:35:07Z</time></trkpt><trkpt lat="50.411459135264955" lon="15.91575841989851"><ele>288.0</ele><time>2026-05-02T13:35:08Z</time></trkpt><trkpt lat="50.41142652737182" lon="15.915983797521147"><ele>288.0</ele><time>2026-05-02T13:35:09Z</time></trkpt><trkpt lat="50.41139852543328" lon="15.916196244650806"><ele>288.0</ele><time>2026-05-02T13:35:10Z</time></trkpt><trkpt lat="50.41136926197001" lon="15.916402631694462"><ele>288.0</ele><time>2026-05-02T13:35:11Z</time></trkpt><trkpt lat="50.411336461753415" lon="15.916617157567767"><ele>288.0</ele><time>2026-05-02T13:35:12Z</time></trkpt><trkpt lat="50.41130484365162" lon="15.916843233367846"><ele>288.0</ele><time>2026-05-02T13:35:13Z</time></trkpt><trkpt lat="50.41127229029301" lon="15.917067072849248"><ele>288.0</ele><time>2026-05-02T13:35:14Z</time></trkpt><trkpt lat="50.41121760495308" lon="15.917295011798501"><ele>288.0</ele><time>2026-05-02T13:35:15Z</time></trkpt><trkpt lat="50.411189163145075" lon="15.917543178696734"><ele>288.0</ele><time>2026-05-02T13:35:16Z</time></trkpt><trkpt lat="50.411126831226504" lon="15.91778016481349"><ele>288.0</ele><time>2026-05-02T13:35:17Z</time></trkpt><trkpt lat="50.41107535801463" lon="15.918029969933423"><ele>288.0</ele><time>2026-05-02T13:35:18Z</time></trkpt><trkpt lat="50.41102170826119" lon="15.918279927508662"><ele>288.0</ele><time>2026-05-02T13:35:19Z</time></trkpt><trkpt lat="50.410981296448824" lon="15.918544739610635"><ele>288.3333333333333</ele><time>2026-05-02T13:35:20Z</time></trkpt><trkpt lat="50.41091195486911" lon="15.918791629609096"><ele>288.66666666666663</ele><time>2026-05-02T13:35:21Z</time></trkpt><trkpt lat="50.410860027145944" lon="15.919034806986334"><ele>289.0</ele><time>2026-05-02T13:35:22Z</time></trkpt><trkpt lat="50.41081353601287" lon="15.919253533826334"><ele>289.3333333333333</ele><time>2026-05-02T13:35:23Z</time></trkpt><trkpt lat="50.410764104267" lon="15.919473049205758"><ele>289.6666666666667</ele><time>2026-05-02T13:35:24Z</time></trkpt><trkpt lat="50.41070791690422" lon="15.919690866189036"><ele>290.0</ele><time>2026-05-02T13:35:25Z</time></trkpt><trkpt lat="50.41064144061462" lon="15.91990457605396"><ele>290.33333333333337</ele><time>2026-05-02T13:35:26Z</time></trkpt><trkpt lat="50.41056353619256" lon="15.920123953124374"><ele>290.6666666666667</ele><time>2026-05-02T13:35:27Z</time></trkpt><trkpt lat="50.41048250082805" lon="15.920344499500084"><ele>291.0</ele><time>2026-05-02T13:35:28Z</time></trkpt><trkpt lat="50.41040489786096" lon="15.920558128430361"><ele>290.3333333333333</ele><time>2026-05-02T13:35:29Z</time></trkpt><trkpt lat="50.410334795165426" lon="15.92077018105552"><ele>289.66666666666663</ele><time>2026-05-02T13:35:30Z</time></trkpt><trkpt lat="50.410272550912055" lon="15.920990583617028"><ele>289.0</ele><time>2026-05-02T13:35:31Z</time></trkpt><trkpt lat="50.41021973155773" lon="15.921232511383032"><ele>289.0</ele><time>2026-05-02T13:35:32Z</time></trkpt><trkpt lat="50.41019387170333" lon="15.921497336639238"><ele>289.0</ele><time>2026-05-02T13:35:33Z</time></trkpt><trkpt lat="50.4101723251383" lon="15.92177452380451"><ele>289.0</ele><time>2026-05-02T13:35:34Z</time></trkpt><trkpt lat="50.4101633057333" lon="15.922062245289425"><ele>289.66666666666663</ele><time>2026-05-02T13:35:35Z</time></trkpt><trkpt lat="50.410132116867956" lon="15.922340960137806"><ele>290.3333333333333</ele><time>2026-05-02T13:35:36Z</time></trkpt><trkpt lat="50.410116165260185" lon="15.92260020965986"><ele>291.0</ele><time>2026-05-02T13:35:37Z</time></trkpt><trkpt lat="50.41009982132886" lon="15.922858998124438"><ele>291.3333333333333</ele><time>2026-05-02T13:35:38Z</time></trkpt><trkpt lat="50.410083107338366" lon="15.92312080994462"><ele>291.66666666666663</ele><time>2026-05-02T13:35:39Z</time></trkpt><trkpt lat="50.4100652543774" lon="15.923387596351473"><ele>292.0</ele><time>2026-05-02T13:35:40Z</time></trkpt><trkpt lat="50.410045319641824" lon="15.923649696326716"><ele>292.0</ele><time>2026-05-02T13:35:41Z</time></trkpt><trkpt lat="50.4100263552671" lon="15.923899038065482"><ele>292.0</ele><time>2026-05-02T13:35:42Z</time></trkpt><trkpt lat="50.410014204855855" lon="15.924132408540975"><ele>292.0</ele><time>2026-05-02T13:35:43Z</time></trkpt><trkpt lat="50.41001151237223" lon="15.924351133836858"><ele>292.0</ele><time>2026-05-02T13:35:44Z</time></trkpt><trkpt lat="50.41003043852299" lon="15.924584142305081"><ele>292.0</ele><time>2026-05-02T13:35:45Z</time></trkpt><trkpt lat="50.41004320284676" lon="15.924819319300793"><ele>292.0</ele><time>2026-05-02T13:35:46Z</time></trkpt><trkpt lat="50.41004323000661" lon="15.925050523348883"><ele>292.0</ele><time>2026-05-02T13:35:47Z</time></trkpt><trkpt lat="50.41005687012931" lon="15.92527472054314"><ele>292.0</ele><time>2026-05-02T13:35:48Z</time></trkpt><trkpt lat="50.410070322833796" lon="15.925502201658446"><ele>292.66666666666663</ele><time>2026-05-02T13:35:49Z</time></trkpt><trkpt lat="50.41008949399461" lon="15.925731031395465"><ele>293.3333333333333</ele><time>2026-05-02T13:35:50Z</time></trkpt><trkpt lat="50.41013408105317" lon="15.925960456738002"><ele>294.0</ele><time>2026-05-02T13:35:51Z</time></trkpt><trkpt lat="50.410177939118526" lon="15.92619202703249"><ele>294.25</ele><time>2026-05-02T13:35:52Z</time></trkpt><trkpt lat="50.410230371010975" lon="15.926420829316005"><ele>294.5</ele><time>2026-05-02T13:35:53Z</time></trkpt><trkpt lat="50.410288573528135" lon="15.92662997182098"><ele>294.75</ele><time>2026-05-02T13:35:54Z</time></trkpt><trkpt lat="50.41035099788881" lon="15.926830881248545"><ele>295.0</ele><time>2026-05-02T13:35:55Z</time></trkpt><trkpt lat="50.410410621739715" lon="15.92702762010017"><ele>295.0</ele><time>2026-05-02T13:35:56Z</time></trkpt><trkpt lat="50.410468507800516" lon="15.92722708302346"><ele>295.0</ele><time>2026-05-02T13:35:57Z</time></trkpt><trkpt lat="50.410519108932135" lon="15.9274075789484"><ele>295.0</ele><time>2026-05-02T13:35:58Z</time></trkpt><trkpt lat="50.41056867829822" lon="15.9275840404138"><ele>295.0</ele><time>2026-05-02T13:35:59Z</time></trkpt><trkpt lat="50.410631566721044" lon="15.927785156834789"><ele>295.3333333333333</ele><time>2026-05-02T13:36:00Z</time></trkpt><trkpt lat="50.410690766848596" lon="15.928009914931643"><ele>295.6666666666667</ele><time>2026-05-02T13:36:01Z</time></trkpt><trkpt lat="50.41069970935701" lon="15.928268639448397"><ele>296.0</ele><time>2026-05-02T13:36:02Z</time></trkpt><trkpt lat="50.41070243298109" lon="15.928527314692841"><ele>295.33333333333337</ele><time>2026-05-02T13:36:03Z</time></trkpt><trkpt lat="50.41072235976208" lon="15.928790187737816"><ele>294.6666666666667</ele><time>2026-05-02T13:36:04Z</time></trkpt><trkpt lat="50.41071843379128" lon="15.929022883902439"><ele>294.0</ele><time>2026-05-02T13:36:05Z</time></trkpt><trkpt lat="50.41072450684219" lon="15.92925338855557"><ele>294.0</ele><time>2026-05-02T13:36:06Z</time></trkpt><trkpt lat="50.41070830973795" lon="15.929497854226918"><ele>294.0</ele><time>2026-05-02T13:36:07Z</time></trkpt><trkpt lat="50.41069540792409" lon="15.929741735945722"><ele>294.0</ele><time>2026-05-02T13:36:08Z</time></trkpt><trkpt lat="50.410644599863836" lon="15.929980895833303"><ele>294.6666666666667</ele><time>2026-05-02T13:36:09Z</time></trkpt><trkpt lat="50.41055807980806" lon="15.930196218880647"><ele>295.33333333333337</ele><time>2026-05-02T13:36:10Z</time></trkpt><trkpt lat="50.41044284637308" lon="15.930377143078058"><ele>296.0</ele><time>2026-05-02T13:36:11Z</time></trkpt><trkpt lat="50.41029999021213" lon="15.930533541502495"><ele>296.0</ele><time>2026-05-02T13:36:12Z</time></trkpt><trkpt lat="50.41018607076909" lon="15.9307019891203"><ele>296.0</ele><time>2026-05-02T13:36:13Z</time></trkpt><trkpt lat="50.41010154855661" lon="15.930907493485256"><ele>296.0</ele><time>2026-05-02T13:36:14Z</time></trkpt><trkpt lat="50.4100597092501" lon="15.931192666272853"><ele>296.0</ele><time>2026-05-02T13:36:15Z</time></trkpt><trkpt lat="50.410021200084635" lon="15.931523893562268"><ele>296.0</ele><time>2026-05-02T13:36:16Z</time></trkpt><trkpt lat="50.40997185007214" lon="15.931907253058693"><ele>296.33333333333337</ele><time>2026-05-02T13:36:17Z</time></trkpt><trkpt lat="50.40991428782116" lon="15.932289070796733"><ele>296.6666666666667</ele><time>2026-05-02T13:36:18Z</time></trkpt><trkpt lat="50.409875119891694" lon="15.93258068025845"><ele>297.0</ele><time>2026-05-02T13:36:19Z</time></trkpt><trkpt lat="50.4098171777874" lon="15.93283753807332"><ele>297.0</ele><time>2026-05-02T13:36:20Z</time></trkpt><trkpt lat="50.409765128409134" lon="15.933099906982042"><ele>297.0</ele><time>2026-05-02T13:36:21Z</time></trkpt><trkpt lat="50.40973613455227" lon="15.933346047811327"><ele>297.0</ele><time>2026-05-02T13:36:22Z</time></trkpt><trkpt lat="50.409693807599815" lon="15.933581818048076"><ele>298.6666666666667</ele><time>2026-05-02T13:36:23Z</time></trkpt><trkpt lat="50.40965827369965" lon="15.933836022103122"><ele>300.33333333333337</ele><time>2026-05-02T13:36:24Z</time></trkpt><trkpt lat="50.40962048783156" lon="15.934106499351772"><ele>302.0</ele><time>2026-05-02T13:36:25Z</time></trkpt><trkpt lat="50.409579878631035" lon="15.93439572712201"><ele>303.0</ele><time>2026-05-02T13:36:26Z</time></trkpt><trkpt lat="50.40954848783486" lon="15.934707257870942"><ele>304.0</ele><time>2026-05-02T13:36:27Z</time></trkpt><trkpt lat="50.40951152840105" lon="15.935019660824915"><ele>305.0</ele><time>2026-05-02T13:36:28Z</time></trkpt><trkpt lat="50.40947184322044" lon="15.935311970086916"><ele>305.6666666666667</ele><time>2026-05-02T13:36:29Z</time></trkpt><trkpt lat="50.40942768586224" lon="15.93561020379009"><ele>306.3333333333333</ele><time>2026-05-02T13:36:30Z</time></trkpt><trkpt lat="50.40938008767608" lon="15.935925092138024"><ele>307.0</ele><time>2026-05-02T13:36:31Z</time></trkpt><trkpt lat="50.40932889024769" lon="15.93624458873847"><ele>307.3333333333333</ele><time>2026-05-02T13:36:32Z</time></trkpt><trkpt lat="50.40928422366997" lon="15.936531485957897"><ele>307.6666666666667</ele><time>2026-05-02T13:36:33Z</time></trkpt><trkpt lat="50.40924719692772" lon="15.93681956352494"><ele>308.0</ele><time>2026-05-02T13:36:34Z</time></trkpt><trkpt lat="50.40922288035988" lon="15.937128677305868"><ele>309.6666666666667</ele><time>2026-05-02T13:36:35Z</time></trkpt><trkpt lat="50.409214116761525" lon="15.937459089022251"><ele>311.3333333333333</ele><time>2026-05-02T13:36:36Z</time></trkpt><trkpt lat="50.40921372183132" lon="15.937793241597884"><ele>313.0</ele><time>2026-05-02T13:36:37Z</time></trkpt><trkpt lat="50.40919138060187" lon="15.93812905672947"><ele>312.5</ele><time>2026-05-02T13:36:38Z</time></trkpt><trkpt lat="50.409184372209054" lon="15.938474589632857"><ele>312.0</ele><time>2026-05-02T13:36:39Z</time></trkpt><trkpt lat="50.40919164944886" lon="15.93884598789822"><ele>312.0</ele><time>2026-05-02T13:36:40Z</time></trkpt><trkpt lat="50.40917973016854" lon="15.939186356745571"><ele>312.0</ele><time>2026-05-02T13:36:41Z</time></trkpt><trkpt lat="50.40917168485758" lon="15.939484833292642"><ele>312.0</ele><time>2026-05-02T13:36:42Z</time></trkpt><trkpt lat="50.409190584278434" lon="15.9397566318416"><ele>313.0</ele><time>2026-05-02T13:36:43Z</time></trkpt><trkpt lat="50.40920743736234" lon="15.940017464209093"><ele>314.0</ele><time>2026-05-02T13:36:44Z</time></trkpt><trkpt lat="50.409222601630496" lon="15.940288762169"><ele>315.0</ele><time>2026-05-02T13:36:45Z</time></trkpt><trkpt lat="50.409255401111466" lon="15.940573006989974"><ele>316.6666666666667</ele><time>2026-05-02T13:36:46Z</time></trkpt><trkpt lat="50.40926288969957" lon="15.940872346232789"><ele>318.33333333333337</ele><time>2026-05-02T13:36:47Z</time></trkpt><trkpt lat="50.409272267609374" lon="15.941245192039833"><ele>320.0</ele><time>2026-05-02T13:36:48Z</time></trkpt><trkpt lat="50.40926848821145" lon="15.941626911658647"><ele>321.0</ele><time>2026-05-02T13:36:49Z</time></trkpt><trkpt lat="50.40924480871585" lon="15.942054995170853"><ele>322.0</ele><time>2026-05-02T13:36:49.999Z</time></trkpt><trkpt lat="50.40924182798151" lon="15.942449586656291"><ele>322.5</ele><time>2026-05-02T13:36:50.999Z</time></trkpt><trkpt lat="50.40921664844303" lon="15.942809199836736"><ele>323.0</ele><time>2026-05-02T13:36:51.999Z</time></trkpt><trkpt lat="50.409236132817874" lon="15.943164067075305"><ele>323.0</ele><time>2026-05-02T13:36:52.999Z</time></trkpt><trkpt lat="50.409253181896986" lon="15.943481007860079"><ele>323.0</ele><time>2026-05-02T13:36:53.999Z</time></trkpt><trkpt lat="50.40926017669917" lon="15.943692540278738"><ele>323.0</ele><time>2026-05-02T13:36:54.999Z</time></trkpt><trkpt lat="50.40925759138884" lon="15.94388687985054"><ele>323.0</ele><time>2026-05-02T13:36:55.999Z</time></trkpt><trkpt lat="50.4092767414887" lon="15.944080580621458"><ele>323.0</ele><time>2026-05-02T13:36:56.999Z</time></trkpt><trkpt lat="50.40931936685065" lon="15.944256247767688"><ele>323.0</ele><time>2026-05-02T13:36:57.999Z</time></trkpt><trkpt lat="50.409379530282834" lon="15.944436492099166"><ele>323.0</ele><time>2026-05-02T13:36:58.999Z</time></trkpt><trkpt lat="50.40947167434699" lon="15.944586350089565"><ele>322.6666666666667</ele><time>2026-05-02T13:36:59.999Z</time></trkpt><trkpt lat="50.40959556372345" lon="15.944686201296175"><ele>322.3333333333333</ele><time>2026-05-02T13:37:00.999Z</time></trkpt><trkpt lat="50.40974369462335" lon="15.94472236183143"><ele>322.0</ele><time>2026-05-02T13:37:01.999Z</time></trkpt><trkpt lat="50.40991337657329" lon="15.9446853654729"><ele>321.0</ele><time>2026-05-02T13:37:02.999Z</time></trkpt><trkpt lat="50.410109608378384" lon="15.944598441007189"><ele>320.0</ele><time>2026-05-02T13:37:03.999Z</time></trkpt><trkpt lat="50.410323596327665" lon="15.94449896495602"><ele>319.0</ele><time>2026-05-02T13:37:04.999Z</time></trkpt><trkpt lat="50.41054186591476" lon="15.944405275848434"><ele>319.0</ele><time>2026-05-02T13:37:05.999Z</time></trkpt><trkpt lat="50.410737338915055" lon="15.944322978077027"><ele>319.0</ele><time>2026-05-02T13:37:06.999Z</time></trkpt><trkpt lat="50.41090885628047" lon="15.944286614515267"><ele>319.0</ele><time>2026-05-02T13:37:07.999Z</time></trkpt><trkpt lat="50.41105696767414" lon="15.944275724995492"><ele>319.0</ele><time>2026-05-02T13:37:08.999Z</time></trkpt><trkpt lat="50.41120485765652" lon="15.944305283269173"><ele>319.0</ele><time>2026-05-02T13:37:09.999Z</time></trkpt><trkpt lat="50.41138517287263" lon="15.94439722769241"><ele>319.0</ele><time>2026-05-02T13:37:10.999Z</time></trkpt><trkpt lat="50.411609132868755" lon="15.944540593647524"><ele>320.5</ele><time>2026-05-02T13:37:11.999Z</time></trkpt><trkpt lat="50.41184509989601" lon="15.94474318248349"><ele>322.0</ele><time>2026-05-02T13:37:12.999Z</time></trkpt><trkpt lat="50.412072612447965" lon="15.94493666855164"><ele>323.66666666666663</ele><time>2026-05-02T13:37:13.999Z</time></trkpt><trkpt lat="50.4122719935048" lon="15.945090510859414"><ele>325.3333333333333</ele><time>2026-05-02T13:37:14.999Z</time></trkpt><trkpt lat="50.41244498235309" lon="15.945235203766746"><ele>327.0</ele><time>2026-05-02T13:37:15.999Z</time></trkpt><trkpt lat="50.41260295863184" lon="15.945379876413593"><ele>327.0</ele><time>2026-05-02T13:37:16.999Z</time></trkpt><trkpt lat="50.412754245670016" lon="15.945561779881952"><ele>327.0</ele><time>2026-05-02T13:37:17.999Z</time></trkpt><trkpt lat="50.41290524577027" lon="15.945799709095095"><ele>327.0</ele><time>2026-05-02T13:37:18.999Z</time></trkpt><trkpt lat="50.413036676422756" lon="15.94603360116842"><ele>328.6666666666667</ele><time>2026-05-02T13:37:19.999Z</time></trkpt><trkpt lat="50.41315577757179" lon="15.94625713012527"><ele>330.33333333333337</ele><time>2026-05-02T13:37:20.999Z</time></trkpt><trkpt lat="50.41326674072858" lon="15.946515864049047"><ele>332.0</ele><time>2026-05-02T13:37:21.999Z</time></trkpt><trkpt lat="50.41338113664356" lon="15.946819767878017"><ele>332.5</ele><time>2026-05-02T13:37:22.999Z</time></trkpt><trkpt lat="50.41350115096185" lon="15.947167432173561"><ele>333.0</ele><time>2026-05-02T13:37:23.999Z</time></trkpt><trkpt lat="50.413615896722874" lon="15.94751751714035"><ele>334.0</ele><time>2026-05-02T13:37:24.999Z</time></trkpt><trkpt lat="50.413727635752906" lon="15.947826856384005"><ele>335.0</ele><time>2026-05-02T13:37:25.999Z</time></trkpt><trkpt lat="50.413838316821966" lon="15.948132788690325"><ele>335.5</ele><time>2026-05-02T13:37:26.999Z</time></trkpt><trkpt lat="50.41395109870743" lon="15.948449456728117"><ele>336.0</ele><time>2026-05-02T13:37:27.999Z</time></trkpt><trkpt lat="50.414067179138385" lon="15.948771035316819"><ele>336.0</ele><time>2026-05-02T13:37:28.999Z</time></trkpt><trkpt lat="50.414183976751275" lon="15.949092199562298"><ele>336.0</ele><time>2026-05-02T13:37:29.999Z</time></trkpt><trkpt lat="50.414283892599954" lon="15.949382101493564"><ele>336.0</ele><time>2026-05-02T13:37:30.999Z</time></trkpt><trkpt lat="50.414370003332685" lon="15.94965149000416"><ele>336.0</ele><time>2026-05-02T13:37:31.999Z</time></trkpt><trkpt lat="50.41444576525208" lon="15.949892754196664"><ele>336.0</ele><time>2026-05-02T13:37:32.999Z</time></trkpt><trkpt lat="50.414514414519054" lon="15.950116212378251"><ele>336.0</ele><time>2026-05-02T13:37:33.999Z</time></trkpt><trkpt lat="50.41457439122539" lon="15.950320715872033"><ele>336.25</ele><time>2026-05-02T13:37:34.999Z</time></trkpt><trkpt lat="50.41463101098614" lon="15.95050341553311"><ele>336.5</ele><time>2026-05-02T13:37:35.999Z</time></trkpt><trkpt lat="50.414682987173705" lon="15.950667238120987"><ele>336.75</ele><time>2026-05-02T13:37:36.999Z</time></trkpt><trkpt lat="50.41472781806431" lon="15.950822470529358"><ele>337.0</ele><time>2026-05-02T13:37:37.999Z</time></trkpt><trkpt lat="50.41477112320358" lon="15.950980717812753"><ele>337.5</ele><time>2026-05-02T13:37:38.999Z</time></trkpt><trkpt lat="50.414840293495345" lon="15.95117333243621"><ele>338.0</ele><time>2026-05-02T13:37:39.999Z</time></trkpt><trkpt lat="50.414882568172466" lon="15.951357822037483"><ele>338.5</ele><time>2026-05-02T13:37:40.999Z</time></trkpt><trkpt lat="50.41494850926576" lon="15.951525268794338"><ele>339.0</ele><time>2026-05-02T13:37:41.999Z</time></trkpt><trkpt lat="50.41500741561469" lon="15.951711929036414"><ele>339.3333333333333</ele><time>2026-05-02T13:37:42.999Z</time></trkpt><trkpt lat="50.41510226040981" lon="15.951864630637479"><ele>339.66666666666663</ele><time>2026-05-02T13:37:43.999Z</time></trkpt><trkpt lat="50.41521696515598" lon="15.951981191802988"><ele>340.0</ele><time>2026-05-02T13:37:44.999Z</time></trkpt><trkpt lat="50.415392322544996" lon="15.95210199442568"><ele>340.0</ele><time>2026-05-02T13:37:45.999Z</time></trkpt><trkpt lat="50.41554330008098" lon="15.952180292342959"><ele>340.0</ele><time>2026-05-02T13:37:46.999Z</time></trkpt><trkpt lat="50.41564659252051" lon="15.952331475590459"><ele>340.0</ele><time>2026-05-02T13:37:47.999Z</time></trkpt><trkpt lat="50.41572455450308" lon="15.952471984286037"><ele>340.0</ele><time>2026-05-02T13:37:48.999Z</time></trkpt><trkpt lat="50.41578356040049" lon="15.952654896373074"><ele>340.0</ele><time>2026-05-02T13:37:49.999Z</time></trkpt><trkpt lat="50.415851990685304" lon="15.952921353292846"><ele>340.0</ele><time>2026-05-02T13:37:50.999Z</time></trkpt><trkpt lat="50.41590922346898" lon="15.953175049526541"><ele>340.0</ele><time>2026-05-02T13:37:51.999Z</time></trkpt><trkpt lat="50.41595955787684" lon="15.953404758298749"><ele>339.75</ele><time>2026-05-02T13:37:52.999Z</time></trkpt><trkpt lat="50.41601934297982" lon="15.953609926263836"><ele>339.5</ele><time>2026-05-02T13:37:53.999Z</time></trkpt><trkpt lat="50.41606434169231" lon="15.953829247193518"><ele>339.25</ele><time>2026-05-02T13:37:54.999Z</time></trkpt><trkpt lat="50.41611982457068" lon="15.954047496871828"><ele>339.0</ele><time>2026-05-02T13:37:55.999Z</time></trkpt><trkpt lat="50.41615474231369" lon="15.954267054157977"><ele>339.6666666666667</ele><time>2026-05-02T13:37:56.999Z</time></trkpt><trkpt lat="50.41621672948206" lon="15.954470727748031"><ele>340.33333333333337</ele><time>2026-05-02T13:37:57.999Z</time></trkpt><trkpt lat="50.416280396581605" lon="15.95468243070357"><ele>341.0</ele><time>2026-05-02T13:37:58.999Z</time></trkpt><trkpt lat="50.416393589623056" lon="15.954876194267598"><ele>341.33333333333337</ele><time>2026-05-02T13:37:59.999Z</time></trkpt><trkpt lat="50.41653764973843" lon="15.955020816674772"><ele>341.6666666666667</ele><time>2026-05-02T13:38:00.999Z</time></trkpt><trkpt lat="50.41667401555091" lon="15.955143944984702"><ele>342.0</ele><time>2026-05-02T13:38:01.999Z</time></trkpt><trkpt lat="50.41678890173793" lon="15.955253616622976"><ele>342.6666666666667</ele><time>2026-05-02T13:38:02.999Z</time></trkpt><trkpt lat="50.41689565646936" lon="15.955391394980234"><ele>343.33333333333337</ele><time>2026-05-02T13:38:03.999Z</time></trkpt><trkpt lat="50.41697661653719" lon="15.955593639845175"><ele>344.0</ele><time>2026-05-02T13:38:04.999Z</time></trkpt><trkpt lat="50.41702625282408" lon="15.95584210231546"><ele>344.0</ele><time>2026-05-02T13:38:05.999Z</time></trkpt><trkpt lat="50.41704592717111" lon="15.956096706111648"><ele>344.0</ele><time>2026-05-02T13:38:06.999Z</time></trkpt><trkpt lat="50.41706589341803" lon="15.956357497569254"><ele>344.0</ele><time>2026-05-02T13:38:07.999Z</time></trkpt><trkpt lat="50.41706039316562" lon="15.956637083383464"><ele>344.33333333333337</ele><time>2026-05-02T13:38:08.999Z</time></trkpt><trkpt lat="50.41706596092985" lon="15.956919355210692"><ele>344.6666666666667</ele><time>2026-05-02T13:38:09.999Z</time></trkpt><trkpt lat="50.41708672150117" lon="15.95720493294223"><ele>345.0</ele><time>2026-05-02T13:38:10.999Z</time></trkpt><trkpt lat="50.41708214042544" lon="15.957459046066784"><ele>345.3333333333333</ele><time>2026-05-02T13:38:11.999Z</time></trkpt><trkpt lat="50.417085098058" lon="15.957699864176236"><ele>345.66666666666663</ele><time>2026-05-02T13:38:12.999Z</time></trkpt><trkpt lat="50.41708948839346" lon="15.957956554190668"><ele>346.0</ele><time>2026-05-02T13:38:13.999Z</time></trkpt><trkpt lat="50.4170943185684" lon="15.9582126356194"><ele>346.25</ele><time>2026-05-02T13:38:14.999Z</time></trkpt><trkpt lat="50.41709758269898" lon="15.958449190153086"><ele>346.5</ele><time>2026-05-02T13:38:15.999Z</time></trkpt><trkpt lat="50.4171018833435" lon="15.958678316294005"><ele>346.75</ele><time>2026-05-02T13:38:16.999Z</time></trkpt><trkpt lat="50.417115287031635" lon="15.958906672392427"><ele>347.0</ele><time>2026-05-02T13:38:17.999Z</time></trkpt><trkpt lat="50.41714140842189" lon="15.959143195331112"><ele>348.0</ele><time>2026-05-02T13:38:18.999Z</time></trkpt><trkpt lat="50.41716046886135" lon="15.959376632750203"><ele>349.0</ele><time>2026-05-02T13:38:19.999Z</time></trkpt><trkpt lat="50.417183251582976" lon="15.959612445125575"><ele>350.0</ele><time>2026-05-02T13:38:20.999Z</time></trkpt><trkpt lat="50.417208429719665" lon="15.959866321092901"><ele>349.6666666666667</ele><time>2026-05-02T13:38:21.999Z</time></trkpt><trkpt lat="50.4172263489483" lon="15.960164640312582"><ele>349.3333333333333</ele><time>2026-05-02T13:38:22.999Z</time></trkpt><trkpt lat="50.41723442069081" lon="15.96047907208866"><ele>349.0</ele><time>2026-05-02T13:38:23.999Z</time></trkpt><trkpt lat="50.41721195872881" lon="15.960834949688342"><ele>348.5</ele><time>2026-05-02T13:38:24.999Z</time></trkpt><trkpt lat="50.41721754018018" lon="15.961222567240268"><ele>348.0</ele><time>2026-05-02T13:38:25.999Z</time></trkpt><trkpt lat="50.417201596707315" lon="15.961643125864938"><ele>347.0</ele><time>2026-05-02T13:38:26.999Z</time></trkpt><trkpt lat="50.417187427037994" lon="15.962122563914084"><ele>346.0</ele><time>2026-05-02T13:38:27.999Z</time></trkpt><trkpt lat="50.41717343246694" lon="15.962628457270672"><ele>345.5</ele><time>2026-05-02T13:38:28.999Z</time></trkpt><trkpt lat="50.4171521145365" lon="15.96318309089737"><ele>345.0</ele><time>2026-05-02T13:38:29.999Z</time></trkpt><trkpt lat="50.41712987532796" lon="15.963705290152912"><ele>344.0</ele><time>2026-05-02T13:38:30.999Z</time></trkpt><trkpt lat="50.41710853133396" lon="15.96417563184862"><ele>343.0</ele><time>2026-05-02T13:38:31.999Z</time></trkpt><trkpt lat="50.41709252495425" lon="15.964605036698062"><ele>342.0</ele><time>2026-05-02T13:38:32.999Z</time></trkpt><trkpt lat="50.417077212878915" lon="15.96500293539841"><ele>341.0</ele><time>2026-05-02T13:38:33.999Z</time></trkpt><trkpt lat="50.417062397453044" lon="15.965385458432714"><ele>340.5</ele><time>2026-05-02T13:38:34.999Z</time></trkpt><trkpt lat="50.41704327586844" lon="15.965762506148243"><ele>340.0</ele><time>2026-05-02T13:38:35.999Z</time></trkpt><trkpt lat="50.41701504227707" lon="15.966128839026343"><ele>341.0</ele><time>2026-05-02T13:38:36.999Z</time></trkpt><trkpt lat="50.416952210850646" lon="15.966473558861091"><ele>342.0</ele><time>2026-05-02T13:38:37.999Z</time></trkpt><trkpt lat="50.41691238001211" lon="15.966830964846949"><ele>342.3333333333333</ele><time>2026-05-02T13:38:38.999Z</time></trkpt><trkpt lat="50.416857033249464" lon="15.967145713747835"><ele>342.66666666666663</ele><time>2026-05-02T13:38:39.999Z</time></trkpt><trkpt lat="50.41681919409762" lon="15.967399746763872"><ele>343.0</ele><time>2026-05-02T13:38:40.999Z</time></trkpt><trkpt lat="50.4167825381706" lon="15.967626003243527"><ele>343.0</ele><time>2026-05-02T13:38:41.999Z</time></trkpt><trkpt lat="50.41669013379651" lon="15.96786633254925"><ele>343.0</ele><time>2026-05-02T13:38:42.999Z</time></trkpt><trkpt lat="50.41657176002291" lon="15.968129085759196"><ele>343.0</ele><time>2026-05-02T13:38:43.999Z</time></trkpt><trkpt lat="50.41644423724449" lon="15.968433637365022"><ele>341.5</ele><time>2026-05-02T13:38:44.999Z</time></trkpt><trkpt lat="50.41628801150382" lon="15.968736890372124"><ele>340.0</ele><time>2026-05-02T13:38:45.999Z</time></trkpt><trkpt lat="50.41613157789005" lon="15.969051548983016"><ele>340.0</ele><time>2026-05-02T13:38:46.999Z</time></trkpt><trkpt lat="50.41598781178032" lon="15.96934603025537"><ele>340.0</ele><time>2026-05-02T13:38:47.999Z</time></trkpt><trkpt lat="50.41585927382654" lon="15.969617066126014"><ele>340.0</ele><time>2026-05-02T13:38:48.999Z</time></trkpt><trkpt lat="50.41573687865464" lon="15.969874235026815"><ele>340.0</ele><time>2026-05-02T13:38:49.999Z</time></trkpt><trkpt lat="50.415618760253466" lon="15.970114813768983"><ele>340.0</ele><time>2026-05-02T13:38:50.999Z</time></trkpt><trkpt lat="50.41550355795734" lon="15.970342296303613"><ele>338.25</ele><time>2026-05-02T13:38:51.999Z</time></trkpt><trkpt lat="50.41540469452589" lon="15.970532527837712"><ele>336.5</ele><time>2026-05-02T13:38:52.999Z</time></trkpt><trkpt lat="50.415312067927985" lon="15.970706704999188"><ele>334.75</ele><time>2026-05-02T13:38:53.999Z</time></trkpt><trkpt lat="50.415223904756616" lon="15.970873954561181"><ele>333.0</ele><time>2026-05-02T13:38:54.999Z</time></trkpt><trkpt lat="50.41513672456146" lon="15.971039161516964"><ele>333.0</ele><time>2026-05-02T13:38:55.999Z</time></trkpt><trkpt lat="50.415043250776826" lon="15.971222541955338"><ele>333.0</ele><time>2026-05-02T13:38:56.999Z</time></trkpt><trkpt lat="50.41495470913219" lon="15.971399092153751"><ele>333.0</ele><time>2026-05-02T13:38:57.999Z</time></trkpt><trkpt lat="50.414864351516414" lon="15.971576451744264"><ele>333.0</ele><time>2026-05-02T13:38:58.999Z</time></trkpt><trkpt lat="50.41478190454627" lon="15.971752986067603"><ele>333.0</ele><time>2026-05-02T13:38:59.999Z</time></trkpt><trkpt lat="50.41471002790543" lon="15.971946509054245"><ele>333.0</ele><time>2026-05-02T13:39:00.999Z</time></trkpt><trkpt lat="50.41465215555845" lon="15.972153400420048"><ele>333.0</ele><time>2026-05-02T13:39:01.999Z</time></trkpt><trkpt lat="50.41460525171838" lon="15.972363183958993"><ele>333.0</ele><time>2026-05-02T13:39:02.999Z</time></trkpt><trkpt lat="50.414562569248496" lon="15.972568333165727"><ele>331.75</ele><time>2026-05-02T13:39:03.999Z</time></trkpt><trkpt lat="50.41451696221497" lon="15.97277736953369"><ele>330.5</ele><time>2026-05-02T13:39:04.999Z</time></trkpt><trkpt lat="50.41447491756154" lon="15.972997117412087"><ele>329.25</ele><time>2026-05-02T13:39:05.999Z</time></trkpt><trkpt lat="50.41444359658634" lon="15.973216586460897"><ele>328.0</ele><time>2026-05-02T13:39:06.999Z</time></trkpt><trkpt lat="50.41442159988809" lon="15.973435223913102"><ele>326.75</ele><time>2026-05-02T13:39:07.999Z</time></trkpt><trkpt lat="50.414403161414484" lon="15.97363142918095"><ele>325.5</ele><time>2026-05-02T13:39:08.999Z</time></trkpt><trkpt lat="50.41438416760334" lon="15.973821312741562"><ele>324.25</ele><time>2026-05-02T13:39:09.999Z</time></trkpt><trkpt lat="50.41436687527398" lon="15.973995173891643"><ele>323.0</ele><time>2026-05-02T13:39:10.999Z</time></trkpt><trkpt lat="50.414353001159164" lon="15.974171206471302"><ele>321.25</ele><time>2026-05-02T13:39:11.999Z</time></trkpt><trkpt lat="50.41435496648502" lon="15.974339452271854"><ele>319.5</ele><time>2026-05-02T13:39:12.999Z</time></trkpt><trkpt lat="50.41438072086285" lon="15.974500651900287"><ele>317.75</ele><time>2026-05-02T13:39:13.999Z</time></trkpt><trkpt lat="50.41442511443816" lon="15.974662635431962"><ele>316.0</ele><time>2026-05-02T13:39:14.999Z</time></trkpt><trkpt lat="50.4144714062613" lon="15.974844586365041"><ele>316.0</ele><time>2026-05-02T13:39:15.999Z</time></trkpt><trkpt lat="50.41451948198597" lon="15.975030029859626"><ele>316.0</ele><time>2026-05-02T13:39:16.999Z</time></trkpt><trkpt lat="50.41457113774112" lon="15.975210677962576"><ele>316.0</ele><time>2026-05-02T13:39:17.999Z</time></trkpt><trkpt lat="50.41461623494142" lon="15.975393956811185"><ele>316.0</ele><time>2026-05-02T13:39:18.999Z</time></trkpt><trkpt lat="50.41465519889371" lon="15.975578643202915"><ele>316.0</ele><time>2026-05-02T13:39:19.999Z</time></trkpt><trkpt lat="50.41468842942749" lon="15.975757037303186"><ele>316.0</ele><time>2026-05-02T13:39:20.999Z</time></trkpt><trkpt lat="50.41472649383345" lon="15.975921010472897"><ele>316.0</ele><time>2026-05-02T13:39:21.999Z</time></trkpt><trkpt lat="50.41478822439602" lon="15.976058575457545"><ele>316.0</ele><time>2026-05-02T13:39:22.999Z</time></trkpt><trkpt lat="50.41485438317003" lon="15.976188771722592"><ele>316.0</ele><time>2026-05-02T13:39:23.999Z</time></trkpt><trkpt lat="50.414917682918045" lon="15.976318757784394"><ele>316.0</ele><time>2026-05-02T13:39:24.999Z</time></trkpt><trkpt lat="50.41497793661809" lon="15.9764544916586"><ele>316.0</ele><time>2026-05-02T13:39:25.999Z</time></trkpt><trkpt lat="50.41503660486668" lon="15.976613473022667"><ele>316.0</ele><time>2026-05-02T13:39:26.999Z</time></trkpt><trkpt lat="50.41507961212975" lon="15.976795239640872"><ele>316.0</ele><time>2026-05-02T13:39:27.999Z</time></trkpt><trkpt lat="50.41511438778299" lon="15.97700272016878"><ele>316.25</ele><time>2026-05-02T13:39:28.999Z</time></trkpt><trkpt lat="50.41514489532682" lon="15.977194921167822"><ele>316.5</ele><time>2026-05-02T13:39:29.999Z</time></trkpt><trkpt lat="50.415174800554176" lon="15.977378931898393"><ele>316.75</ele><time>2026-05-02T13:39:30.999Z</time></trkpt><trkpt lat="50.415193298397156" lon="15.977566154942481"><ele>317.0</ele><time>2026-05-02T13:39:31.999Z</time></trkpt><trkpt lat="50.41518583821756" lon="15.97775472871686"><ele>316.4</ele><time>2026-05-02T13:39:32.999Z</time></trkpt><trkpt lat="50.41515537954601" lon="15.977942330418589"><ele>315.79999999999995</ele><time>2026-05-02T13:39:33.999Z</time></trkpt><trkpt lat="50.41511004819369" lon="15.97810772408563"><ele>315.2</ele><time>2026-05-02T13:39:34.999Z</time></trkpt><trkpt lat="50.41505808048141" lon="15.978244360993871"><ele>314.59999999999997</ele><time>2026-05-02T13:39:35.999Z</time></trkpt><trkpt lat="50.41499623317019" lon="15.978348163045142"><ele>314.0</ele><time>2026-05-02T13:39:36.999Z</time></trkpt><trkpt lat="50.41491425862622" lon="15.978439034824005"><ele>314.0</ele><time>2026-05-02T13:39:37.999Z</time></trkpt><trkpt lat="50.414804908525106" lon="15.978533133418393"><ele>314.0</ele><time>2026-05-02T13:39:38.999Z</time></trkpt><trkpt lat="50.414704656173384" lon="15.978622465742706"><ele>314.0</ele><time>2026-05-02T13:39:39.999Z</time></trkpt><trkpt lat="50.41461145237519" lon="15.978691188570727"><ele>314.0</ele><time>2026-05-02T13:39:40.999Z</time></trkpt><trkpt lat="50.41451628178324" lon="15.978750547574588"><ele>314.0</ele><time>2026-05-02T13:39:41.999Z</time></trkpt><trkpt lat="50.414418338305495" lon="15.978804807317232"><ele>313.2</ele><time>2026-05-02T13:39:42.999Z</time></trkpt><trkpt lat="50.41432402200672" lon="15.978861721748114"><ele>312.4</ele><time>2026-05-02T13:39:43.999Z</time></trkpt><trkpt lat="50.414231860386636" lon="15.978929240010995"><ele>311.6</ele><time>2026-05-02T13:39:44.999Z</time></trkpt><trkpt lat="50.41414691575447" lon="15.97900806967222"><ele>310.8</ele><time>2026-05-02T13:39:45.999Z</time></trkpt><trkpt lat="50.41407706760944" lon="15.979103181582213"><ele>310.0</ele><time>2026-05-02T13:39:46.999Z</time></trkpt><trkpt lat="50.41400756465849" lon="15.979234155018004"><ele>312.0</ele><time>2026-05-02T13:39:47.999Z</time></trkpt><trkpt lat="50.41395310895125" lon="15.979409268092734"><ele>314.0</ele><time>2026-05-02T13:39:48.999Z</time></trkpt><trkpt lat="50.4139356899069" lon="15.979604942832982"><ele>316.0</ele><time>2026-05-02T13:39:49.999Z</time></trkpt><trkpt lat="50.41395368750095" lon="15.979795499827201"><ele>318.0</ele><time>2026-05-02T13:39:50.999Z</time></trkpt><trkpt lat="50.413983872829306" lon="15.979995855883416"><ele>319.6666666666667</ele><time>2026-05-02T13:39:51.999Z</time></trkpt><trkpt lat="50.41404329291723" lon="15.980197701726878"><ele>321.33333333333337</ele><time>2026-05-02T13:39:52.999Z</time></trkpt><trkpt lat="50.41409754577722" lon="15.980444387708847"><ele>323.0</ele><time>2026-05-02T13:39:53.999Z</time></trkpt><trkpt lat="50.41413473156205" lon="15.980679488630608"><ele>323.5</ele><time>2026-05-02T13:39:54.999Z</time></trkpt><trkpt lat="50.414169612224335" lon="15.980871620568113"><ele>324.0</ele><time>2026-05-02T13:39:55.999Z</time></trkpt><trkpt lat="50.41421083986574" lon="15.981054052871908"><ele>324.5</ele><time>2026-05-02T13:39:56.999Z</time></trkpt><trkpt lat="50.41425410558623" lon="15.981239123680353"><ele>325.0</ele><time>2026-05-02T13:39:57.999Z</time></trkpt><trkpt lat="50.41428808681598" lon="15.981429022736924"><ele>325.0</ele><time>2026-05-02T13:39:58.999Z</time></trkpt><trkpt lat="50.41432146451772" lon="15.981619300204455"><ele>325.0</ele><time>2026-05-02T13:39:59.999Z</time></trkpt><trkpt lat="50.41436502061562" lon="15.981804070164952"><ele>325.0</ele><time>2026-05-02T13:40:00.999Z</time></trkpt><trkpt lat="50.4143857671952" lon="15.98199410484373"><ele>325.0</ele><time>2026-05-02T13:40:01.999Z</time></trkpt><trkpt lat="50.41443539035169" lon="15.982168448480884"><ele>326.0</ele><time>2026-05-02T13:40:02.999Z</time></trkpt><trkpt lat="50.414463964602135" lon="15.982350118254146"><ele>327.0</ele><time>2026-05-02T13:40:03.999Z</time></trkpt><trkpt lat="50.41449811917614" lon="15.98252876599427"><ele>328.0</ele><time>2026-05-02T13:40:04.999Z</time></trkpt><trkpt lat="50.41454079495622" lon="15.982706711606209"><ele>329.0</ele><time>2026-05-02T13:40:05.999Z</time></trkpt><trkpt lat="50.41457852707263" lon="15.98289469833803"><ele>329.25</ele><time>2026-05-02T13:40:06.999Z</time></trkpt><trkpt lat="50.41461254639217" lon="15.983076916823618"><ele>329.5</ele><time>2026-05-02T13:40:07.999Z</time></trkpt><trkpt lat="50.41464677952003" lon="15.983261533859983"><ele>329.75</ele><time>2026-05-02T13:40:08.999Z</time></trkpt><trkpt lat="50.41468458680523" lon="15.983446262857303"><ele>330.0</ele><time>2026-05-02T13:40:09.999Z</time></trkpt><trkpt lat="50.414711886472475" lon="15.983610600736101"><ele>330.0</ele><time>2026-05-02T13:40:10.999Z</time></trkpt><trkpt lat="50.414703326801266" lon="15.983782776465928"><ele>330.0</ele><time>2026-05-02T13:40:11.999Z</time></trkpt><trkpt lat="50.4146917015238" lon="15.983990081357392"><ele>330.0</ele><time>2026-05-02T13:40:12.999Z</time></trkpt><trkpt lat="50.41462121061004" lon="15.984235904864926"><ele>330.0</ele><time>2026-05-02T13:40:13.999Z</time></trkpt><trkpt lat="50.41450910669298" lon="15.984450094311418"><ele>330.75</ele><time>2026-05-02T13:40:14.999Z</time></trkpt><trkpt lat="50.414411564187745" lon="15.984673472353501"><ele>331.5</ele><time>2026-05-02T13:40:15.999Z</time></trkpt><trkpt lat="50.414298435091744" lon="15.984812440133005"><ele>332.25</ele><time>2026-05-02T13:40:16.999Z</time></trkpt><trkpt lat="50.41419000759957" lon="15.98491345489477"><ele>333.0</ele><time>2026-05-02T13:40:17.999Z</time></trkpt><trkpt lat="50.41405332395729" lon="15.984927519921381"><ele>333.0</ele><time>2026-05-02T13:40:18.999Z</time></trkpt><trkpt lat="50.41388457153367" lon="15.984849258324664"><ele>333.0</ele><time>2026-05-02T13:40:19.999Z</time></trkpt><trkpt lat="50.413677645916906" lon="15.984751510615583"><ele>333.0</ele><time>2026-05-02T13:40:20.999Z</time></trkpt><trkpt lat="50.413439275824615" lon="15.984628848756353"><ele>333.0</ele><time>2026-05-02T13:40:21.999Z</time></trkpt><trkpt lat="50.41323212571308" lon="15.984506943286869"><ele>333.0</ele><time>2026-05-02T13:40:22.999Z</time></trkpt><trkpt lat="50.41304949113878" lon="15.98436275442709"><ele>333.0</ele><time>2026-05-02T13:40:23.999Z</time></trkpt><trkpt lat="50.41287667101541" lon="15.984229779450098"><ele>332.6666666666667</ele><time>2026-05-02T13:40:24.999Z</time></trkpt><trkpt lat="50.41274760151613" lon="15.984087333339717"><ele>332.33333333333337</ele><time>2026-05-02T13:40:25.999Z</time></trkpt><trkpt lat="50.412621062679726" lon="15.983968338471819"><ele>332.0</ele><time>2026-05-02T13:40:26.999Z</time></trkpt><trkpt lat="50.41249512350987" lon="15.983856458209948"><ele>332.0</ele><time>2026-05-02T13:40:27.999Z</time></trkpt><trkpt lat="50.41237819537131" lon="15.983749400124065"><ele>332.0</ele><time>2026-05-02T13:40:28.999Z</time></trkpt><trkpt lat="50.41226065490845" lon="15.983645753461735"><ele>332.0</ele><time>2026-05-02T13:40:29.999Z</time></trkpt><trkpt lat="50.4121414333034" lon="15.983567309965002"><ele>332.0</ele><time>2026-05-02T13:40:30.999Z</time></trkpt><trkpt lat="50.4120112641815" lon="15.983563471351776"><ele>333.0</ele><time>2026-05-02T13:40:31.999Z</time></trkpt><trkpt lat="50.41190178446393" lon="15.983659014350014"><ele>334.0</ele><time>2026-05-02T13:40:32.999Z</time></trkpt><trkpt lat="50.41182017785347" lon="15.983835480934788"><ele>335.0</ele><time>2026-05-02T13:40:33.999Z</time></trkpt><trkpt lat="50.41176433670405" lon="15.984084087912697"><ele>336.0</ele><time>2026-05-02T13:40:34.999Z</time></trkpt><trkpt lat="50.41170189417459" lon="15.98440589686158"><ele>336.0</ele><time>2026-05-02T13:40:35.999Z</time></trkpt><trkpt lat="50.41163218270592" lon="15.984788716729822"><ele>336.0</ele><time>2026-05-02T13:40:36.999Z</time></trkpt><trkpt lat="50.411546009079956" lon="15.985177398639953"><ele>336.3333333333333</ele><time>2026-05-02T13:40:37.999Z</time></trkpt><trkpt lat="50.41146261801909" lon="15.985500085135554"><ele>336.66666666666663</ele><time>2026-05-02T13:40:38.999Z</time></trkpt><trkpt lat="50.411370010080944" lon="15.98580437599136"><ele>337.0</ele><time>2026-05-02T13:40:39.999Z</time></trkpt><trkpt lat="50.41123833791055" lon="15.98612839573343"><ele>339.5</ele><time>2026-05-02T13:40:40.999Z</time></trkpt><trkpt lat="50.411134030348194" lon="15.98646120751548"><ele>342.0</ele><time>2026-05-02T13:40:41.999Z</time></trkpt><trkpt lat="50.411018374801515" lon="15.98676360144688"><ele>342.3333333333333</ele><time>2026-05-02T13:40:42.999Z</time></trkpt><trkpt lat="50.41091288507281" lon="15.987064043207337"><ele>342.66666666666663</ele><time>2026-05-02T13:40:43.999Z</time></trkpt><trkpt lat="50.41081313169453" lon="15.987371084064591"><ele>343.0</ele><time>2026-05-02T13:40:44.999Z</time></trkpt><trkpt lat="50.41070437795018" lon="15.987688253096694"><ele>343.3333333333333</ele><time>2026-05-02T13:40:45.999Z</time></trkpt><trkpt lat="50.41060445038287" lon="15.98797317072531"><ele>343.6666666666667</ele><time>2026-05-02T13:40:46.999Z</time></trkpt><trkpt lat="50.410508088374364" lon="15.988282861882276"><ele>344.0</ele><time>2026-05-02T13:40:47.999Z</time></trkpt><trkpt lat="50.41042499931221" lon="15.988612374424479"><ele>341.5</ele><time>2026-05-02T13:40:48.999Z</time></trkpt><trkpt lat="50.41034933214069" lon="15.988964830825399"><ele>339.0</ele><time>2026-05-02T13:40:49.999Z</time></trkpt><trkpt lat="50.4102778236337" lon="15.989331782704078"><ele>339.0</ele><time>2026-05-02T13:40:50.999Z</time></trkpt><trkpt lat="50.410206787927486" lon="15.989693172254528"><ele>339.0</ele><time>2026-05-02T13:40:51.999Z</time></trkpt><trkpt lat="50.410129821380295" lon="15.99003152665143"><ele>339.6666666666667</ele><time>2026-05-02T13:40:52.999Z</time></trkpt><trkpt lat="50.41003866681142" lon="15.990338932778974"><ele>340.33333333333337</ele><time>2026-05-02T13:40:53.999Z</time></trkpt><trkpt lat="50.40990474376556" lon="15.99062741423066"><ele>341.0</ele><time>2026-05-02T13:40:54.999Z</time></trkpt><trkpt lat="50.409762478502685" lon="15.990905821935858"><ele>340.33333333333337</ele><time>2026-05-02T13:40:55.999Z</time></trkpt><trkpt lat="50.40962029298173" lon="15.991154851913858"><ele>339.6666666666667</ele><time>2026-05-02T13:40:56.999Z</time></trkpt><trkpt lat="50.40948592015481" lon="15.991370250869075"><ele>339.0</ele><time>2026-05-02T13:40:57.999Z</time></trkpt><trkpt lat="50.40937077165495" lon="15.991585496679589"><ele>340.0</ele><time>2026-05-02T13:40:58.999Z</time></trkpt><trkpt lat="50.40925136065518" lon="15.991758444810873"><ele>341.0</ele><time>2026-05-02T13:40:59.999Z</time></trkpt><trkpt lat="50.40913945518765" lon="15.991920955297513"><ele>342.0</ele><time>2026-05-02T13:41:00.999Z</time></trkpt><trkpt lat="50.4090344984186" lon="15.992070252612141"><ele>342.0</ele><time>2026-05-02T13:41:01.999Z</time></trkpt><trkpt lat="50.40893568009313" lon="15.992206128064222"><ele>342.0</ele><time>2026-05-02T13:41:02.999Z</time></trkpt><trkpt lat="50.40882897747076" lon="15.992335450710415"><ele>342.0</ele><time>2026-05-02T13:41:03.999Z</time></trkpt><trkpt lat="50.40872726675857" lon="15.99246829979806"><ele>342.0</ele><time>2026-05-02T13:41:04.999Z</time></trkpt><trkpt lat="50.40862727563933" lon="15.992576807569575"><ele>342.0</ele><time>2026-05-02T13:41:05.999Z</time></trkpt><trkpt lat="50.4085411909404" lon="15.992717401615623"><ele>342.0</ele><time>2026-05-02T13:41:06.999Z</time></trkpt><trkpt lat="50.40843806660405" lon="15.99284968537316"><ele>342.0</ele><time>2026-05-02T13:41:07.999Z</time></trkpt><trkpt lat="50.408334111237174" lon="15.993002294653504"><ele>342.0</ele><time>2026-05-02T13:41:08.999Z</time></trkpt><trkpt lat="50.40822450086748" lon="15.993164019495989"><ele>342.0</ele><time>2026-05-02T13:41:09.999Z</time></trkpt><trkpt lat="50.4081074260177" lon="15.993330633366213"><ele>342.0</ele><time>2026-05-02T13:41:10.999Z</time></trkpt><trkpt lat="50.407993952857524" lon="15.993491751878615"><ele>342.0</ele><time>2026-05-02T13:41:11.999Z</time></trkpt><trkpt lat="50.40787797799085" lon="15.993660411415258"><ele>341.0</ele><time>2026-05-02T13:41:12.999Z</time></trkpt><trkpt lat="50.40777453439517" lon="15.993852015662387"><ele>340.0</ele><time>2026-05-02T13:41:13.999Z</time></trkpt><trkpt lat="50.407685784258305" lon="15.994077724368037"><ele>339.0</ele><time>2026-05-02T13:41:14.999Z</time></trkpt><trkpt lat="50.407620485786104" lon="15.994320743173715"><ele>339.0</ele><time>2026-05-02T13:41:15.999Z</time></trkpt><trkpt lat="50.40757133372312" lon="15.994541448412864"><ele>339.0</ele><time>2026-05-02T13:41:16.999Z</time></trkpt><trkpt lat="50.40753149489396" lon="15.99475384474658"><ele>339.0</ele><time>2026-05-02T13:41:17.999Z</time></trkpt><trkpt lat="50.40748932167755" lon="15.99497668663965"><ele>339.0</ele><time>2026-05-02T13:41:18.999Z</time></trkpt><trkpt lat="50.40743762776266" lon="15.995202102798343"><ele>339.0</ele><time>2026-05-02T13:41:19.999Z</time></trkpt><trkpt lat="50.40737758949989" lon="15.995424788768748"><ele>339.0</ele><time>2026-05-02T13:41:20.999Z</time></trkpt><trkpt lat="50.40728339464323" lon="15.99563524531869"><ele>339.0</ele><time>2026-05-02T13:41:21.999Z</time></trkpt><trkpt lat="50.40717422840888" lon="15.995861812384154"><ele>338.6666666666667</ele><time>2026-05-02T13:41:22.999Z</time></trkpt><trkpt lat="50.40703023112353" lon="15.996075309708255"><ele>338.33333333333337</ele><time>2026-05-02T13:41:23.999Z</time></trkpt><trkpt lat="50.40684879082211" lon="15.99626937817732"><ele>338.0</ele><time>2026-05-02T13:41:24.999Z</time></trkpt><trkpt lat="50.406648754698" lon="15.99648297053811"><ele>338.0</ele><time>2026-05-02T13:41:25.999Z</time></trkpt><trkpt lat="50.406416454023194" lon="15.996678249975838"><ele>338.0</ele><time>2026-05-02T13:41:26.999Z</time></trkpt><trkpt lat="50.40616006806149" lon="15.99690869347355"><ele>338.0</ele><time>2026-05-02T13:41:27.999Z</time></trkpt><trkpt lat="50.40592219927137" lon="15.997132622647769"><ele>338.0</ele><time>2026-05-02T13:41:28.999Z</time></trkpt><trkpt lat="50.405724148586415" lon="15.997321219076907"><ele>338.0</ele><time>2026-05-02T13:41:29.999Z</time></trkpt><trkpt lat="50.405578588842005" lon="15.99745264778052"><ele>338.0</ele><time>2026-05-02T13:41:30.999Z</time></trkpt><trkpt lat="50.4054224390602" lon="15.997543285365477"><ele>338.0</ele><time>2026-05-02T13:41:31.999Z</time></trkpt><trkpt lat="50.40525226792144" lon="15.997635055640531"><ele>337.0</ele><time>2026-05-02T13:41:32.999Z</time></trkpt><trkpt lat="50.40504804254168" lon="15.997662404390383"><ele>336.0</ele><time>2026-05-02T13:41:33.999Z</time></trkpt><trkpt lat="50.40482624845616" lon="15.997648006154739"><ele>335.0</ele><time>2026-05-02T13:41:34.999Z</time></trkpt><trkpt lat="50.40458916101821" lon="15.997617072146788"><ele>335.0</ele><time>2026-05-02T13:41:35.999Z</time></trkpt><trkpt lat="50.40439988073694" lon="15.997596647427683"><ele>335.0</ele><time>2026-05-02T13:41:36.999Z</time></trkpt><trkpt lat="50.40422784986432" lon="15.997614176568021"><ele>335.0</ele><time>2026-05-02T13:41:37.999Z</time></trkpt><trkpt lat="50.40404434644259" lon="15.997680048832143"><ele>335.0</ele><time>2026-05-02T13:41:38.999Z</time></trkpt><trkpt lat="50.40386346751781" lon="15.997781003340595"><ele>335.0</ele><time>2026-05-02T13:41:39.999Z</time></trkpt><trkpt lat="50.40368262768837" lon="15.997892867873066"><ele>335.0</ele><time>2026-05-02T13:41:40.999Z</time></trkpt><trkpt lat="50.40349877985622" lon="15.998002421378716"><ele>334.33333333333337</ele><time>2026-05-02T13:41:41.999Z</time></trkpt><trkpt lat="50.40330751030806" lon="15.998117651381495"><ele>333.6666666666667</ele><time>2026-05-02T13:41:42.999Z</time></trkpt><trkpt lat="50.40311698041759" lon="15.998232461202734"><ele>333.0</ele><time>2026-05-02T13:41:43.999Z</time></trkpt><trkpt lat="50.40293485879312" lon="15.99833997892856"><ele>331.0</ele><time>2026-05-02T13:41:44.999Z</time></trkpt><trkpt lat="50.402756378619216" lon="15.998441748940827"><ele>329.0</ele><time>2026-05-02T13:41:45.999Z</time></trkpt><trkpt lat="50.402572845739826" lon="15.998546353094506"><ele>327.0</ele><time>2026-05-02T13:41:46.999Z</time></trkpt><trkpt lat="50.40238290179886" lon="15.998662285035993"><ele>327.0</ele><time>2026-05-02T13:41:47.999Z</time></trkpt><trkpt lat="50.402201939618784" lon="15.998785149468347"><ele>327.0</ele><time>2026-05-02T13:41:48.999Z</time></trkpt><trkpt lat="50.40202446772564" lon="15.998923225334988"><ele>327.0</ele><time>2026-05-02T13:41:49.999Z</time></trkpt><trkpt lat="50.40185083274386" lon="15.99907486856407"><ele>324.6666666666667</ele><time>2026-05-02T13:41:50.999Z</time></trkpt><trkpt lat="50.40168169413478" lon="15.999220681979217"><ele>322.33333333333337</ele><time>2026-05-02T13:41:51.999Z</time></trkpt><trkpt lat="50.40152779392662" lon="15.999350714671326"><ele>320.0</ele><time>2026-05-02T13:41:52.999Z</time></trkpt><trkpt lat="50.40137562430575" lon="15.99947364182028"><ele>321.0</ele><time>2026-05-02T13:41:53.999Z</time></trkpt><trkpt lat="50.401224588494124" lon="15.999590048208015"><ele>322.0</ele><time>2026-05-02T13:41:54.999Z</time></trkpt><trkpt lat="50.40107237506915" lon="15.999713626787088"><ele>323.0</ele><time>2026-05-02T13:41:55.999Z</time></trkpt><trkpt lat="50.40091164065091" lon="15.999849501817783"><ele>323.0</ele><time>2026-05-02T13:41:56.999Z</time></trkpt><trkpt lat="50.40074862965604" lon="15.999984759162446"><ele>323.0</ele><time>2026-05-02T13:41:57.999Z</time></trkpt><trkpt lat="50.40057476205895" lon="16.000125684494428"><ele>323.0</ele><time>2026-05-02T13:41:58.999Z</time></trkpt><trkpt lat="50.400396004806765" lon="16.000270208962704"><ele>324.33333333333337</ele><time>2026-05-02T13:41:59.999Z</time></trkpt><trkpt lat="50.40021720470066" lon="16.000412503721538"><ele>325.6666666666667</ele><time>2026-05-02T13:42:00.999Z</time></trkpt><trkpt lat="50.40005165635705" lon="16.000547057882603"><ele>327.0</ele><time>2026-05-02T13:42:01.999Z</time></trkpt><trkpt lat="50.39989876278716" lon="16.00067631424295"><ele>327.0</ele><time>2026-05-02T13:42:02.999Z</time></trkpt><trkpt lat="50.39973732957953" lon="16.000817785429025"><ele>327.0</ele><time>2026-05-02T13:42:03.999Z</time></trkpt><trkpt lat="50.39957144616577" lon="16.000958419918618"><ele>327.0</ele><time>2026-05-02T13:42:04.999Z</time></trkpt><trkpt lat="50.39940257335409" lon="16.001092990608157"><ele>325.0</ele><time>2026-05-02T13:42:05.999Z</time></trkpt><trkpt lat="50.39923658880709" lon="16.001225896611597"><ele>323.0</ele><time>2026-05-02T13:42:06.999Z</time></trkpt><trkpt lat="50.39906746639361" lon="16.001365445881884"><ele>321.0</ele><time>2026-05-02T13:42:07.999Z</time></trkpt><trkpt lat="50.398889673833274" lon="16.001511536868808"><ele>317.6666666666667</ele><time>2026-05-02T13:42:08.999Z</time></trkpt><trkpt lat="50.39870728150201" lon="16.001652018835774"><ele>314.33333333333337</ele><time>2026-05-02T13:42:09.999Z</time></trkpt><trkpt lat="50.39853138811248" lon="16.001795984571206"><ele>311.0</ele><time>2026-05-02T13:42:10.999Z</time></trkpt><trkpt lat="50.398353676889734" lon="16.001942547830474"><ele>310.33333333333337</ele><time>2026-05-02T13:42:11.999Z</time></trkpt><trkpt lat="50.39816348329507" lon="16.002100472188367"><ele>309.6666666666667</ele><time>2026-05-02T13:42:12.999Z</time></trkpt><trkpt lat="50.397994752578484" lon="16.00225009943346"><ele>309.0</ele><time>2026-05-02T13:42:13.999Z</time></trkpt><trkpt lat="50.397823982955" lon="16.002389703504342"><ele>306.6666666666667</ele><time>2026-05-02T13:42:14.999Z</time></trkpt><trkpt lat="50.397658866132204" lon="16.002518170358755"><ele>304.33333333333337</ele><time>2026-05-02T13:42:15.999Z</time></trkpt><trkpt lat="50.397511592503996" lon="16.00262771224455"><ele>302.0</ele><time>2026-05-02T13:42:16.999Z</time></trkpt><trkpt lat="50.397373204613054" lon="16.002740162704423"><ele>302.0</ele><time>2026-05-02T13:42:17.999Z</time></trkpt><trkpt lat="50.3972200646507" lon="16.00288682391404"><ele>302.0</ele><time>2026-05-02T13:42:18.999Z</time></trkpt><trkpt lat="50.39708537178106" lon="16.00299595226237"><ele>302.0</ele><time>2026-05-02T13:42:19.999Z</time></trkpt><trkpt lat="50.39696615669252" lon="16.003094500730327"><ele>301.5</ele><time>2026-05-02T13:42:20.999Z</time></trkpt><trkpt lat="50.3968484015677" lon="16.003190750535822"><ele>301.0</ele><time>2026-05-02T13:42:21.999Z</time></trkpt><trkpt lat="50.39673369240797" lon="16.003279933722155"><ele>300.5</ele><time>2026-05-02T13:42:22.999Z</time></trkpt><trkpt lat="50.39661397956484" lon="16.003378494890175"><ele>300.0</ele><time>2026-05-02T13:42:23.999Z</time></trkpt><trkpt lat="50.396489728742694" lon="16.003484243726266"><ele>300.0</ele><time>2026-05-02T13:42:24.999Z</time></trkpt><trkpt lat="50.39635199975139" lon="16.003593055751953"><ele>300.0</ele><time>2026-05-02T13:42:25.999Z</time></trkpt><trkpt lat="50.39621510038486" lon="16.003700895940522"><ele>300.0</ele><time>2026-05-02T13:42:26.999Z</time></trkpt><trkpt lat="50.39607364071819" lon="16.003814712639976"><ele>299.0</ele><time>2026-05-02T13:42:27.999Z</time></trkpt><trkpt lat="50.39592898692227" lon="16.00392614166257"><ele>298.0</ele><time>2026-05-02T13:42:28.999Z</time></trkpt><trkpt lat="50.39577032828415" lon="16.004028187705423"><ele>297.0</ele><time>2026-05-02T13:42:29.999Z</time></trkpt><trkpt lat="50.39561684944944" lon="16.00410592748316"><ele>295.6666666666667</ele><time>2026-05-02T13:42:30.999Z</time></trkpt><trkpt lat="50.395452844384245" lon="16.00420196217765"><ele>294.33333333333337</ele><time>2026-05-02T13:42:31.999Z</time></trkpt><trkpt lat="50.39530063089728" lon="16.004337956108294"><ele>293.0</ele><time>2026-05-02T13:42:32.999Z</time></trkpt><trkpt lat="50.3951771751418" lon="16.004494233527048"><ele>293.0</ele><time>2026-05-02T13:42:33.999Z</time></trkpt><trkpt lat="50.39507737920917" lon="16.004645142682296"><ele>293.0</ele><time>2026-05-02T13:42:34.999Z</time></trkpt><trkpt lat="50.394991680010854" lon="16.004780367454064"><ele>293.0</ele><time>2026-05-02T13:42:35.999Z</time></trkpt><trkpt lat="50.39489807971725" lon="16.00488256291462"><ele>293.0</ele><time>2026-05-02T13:42:36.999Z</time></trkpt><trkpt lat="50.39477608449927" lon="16.004951423371292"><ele>291.6666666666667</ele><time>2026-05-02T13:42:38Z</time></trkpt><trkpt lat="50.39462491020866" lon="16.00495385054239"><ele>290.3333333333333</ele><time>2026-05-02T13:42:39Z</time></trkpt><trkpt lat="50.394453940757515" lon="16.004902686393514"><ele>289.0</ele><time>2026-05-02T13:42:40Z</time></trkpt><trkpt lat="50.39424774606503" lon="16.00478858822622"><ele>289.0</ele><time>2026-05-02T13:42:41Z</time></trkpt><trkpt lat="50.394077927899836" lon="16.004672865995218"><ele>289.0</ele><time>2026-05-02T13:42:42Z</time></trkpt><trkpt lat="50.39394661623808" lon="16.004585374947613"><ele>289.0</ele><time>2026-05-02T13:42:43Z</time></trkpt><trkpt lat="50.393833252259114" lon="16.004510335465312"><ele>287.25</ele><time>2026-05-02T13:42:44Z</time></trkpt><trkpt lat="50.39371718216819" lon="16.00443873094703"><ele>285.5</ele><time>2026-05-02T13:42:45Z</time></trkpt><trkpt lat="50.39362097436668" lon="16.004316592840325"><ele>283.75</ele><time>2026-05-02T13:42:46Z</time></trkpt><trkpt lat="50.39351480021171" lon="16.0042824877612"><ele>282.0</ele><time>2026-05-02T13:42:47Z</time></trkpt><trkpt lat="50.393409897418124" lon="16.004444516965293"><ele>282.0</ele><time>2026-05-02T13:42:48Z</time></trkpt><trkpt lat="50.393338127644185" lon="16.00454310444276"><ele>282.0</ele><time>2026-05-02T13:42:49Z</time></trkpt><trkpt lat="50.39329686179293" lon="16.004687839580836"><ele>282.0</ele><time>2026-05-02T13:42:50Z</time></trkpt><trkpt lat="50.39329660504523" lon="16.004861863915067"><ele>282.0</ele><time>2026-05-02T13:42:51Z</time></trkpt><trkpt lat="50.3933391608416" lon="16.00502758183893"><ele>282.0</ele><time>2026-05-02T13:42:52Z</time></trkpt><trkpt lat="50.393429009821766" lon="16.005152969794494"><ele>281.5</ele><time>2026-05-02T13:42:53Z</time></trkpt><trkpt lat="50.393549284993455" lon="16.005245509001313"><ele>281.0</ele><time>2026-05-02T13:42:54Z</time></trkpt><trkpt lat="50.39369807411404" lon="16.005331558568734"><ele>280.5</ele><time>2026-05-02T13:42:55Z</time></trkpt><trkpt lat="50.393810025837574" lon="16.005449938788328"><ele>280.0</ele><time>2026-05-02T13:42:56Z</time></trkpt><trkpt lat="50.393902885116674" lon="16.005549349381663"><ele>280.4</ele><time>2026-05-02T13:42:57Z</time></trkpt><trkpt lat="50.393957031577884" lon="16.005669561489142"><ele>280.8</ele><time>2026-05-02T13:42:58Z</time></trkpt><trkpt lat="50.393974345177135" lon="16.00579698001873"><ele>281.2</ele><time>2026-05-02T13:42:59Z</time></trkpt><trkpt lat="50.39396701437808" lon="16.005944177966114"><ele>281.6</ele><time>2026-05-02T13:43:00Z</time></trkpt><trkpt lat="50.39387296160162" lon="16.00604155174651"><ele>282.0</ele><time>2026-05-02T13:43:01Z</time></trkpt><trkpt lat="50.393769632840566" lon="16.006102544873897"><ele>280.75</ele><time>2026-05-02T13:43:02Z</time></trkpt><trkpt lat="50.393629507749964" lon="16.006072789524964"><ele>279.5</ele><time>2026-05-02T13:43:03Z</time></trkpt><trkpt lat="50.393481941846694" lon="16.006028361740714"><ele>278.25</ele><time>2026-05-02T13:43:04Z</time></trkpt><trkpt lat="50.39332785227522" lon="16.00601353168548"><ele>277.0</ele><time>2026-05-02T13:43:05Z</time></trkpt><trkpt lat="50.39321167968626" lon="16.006001189919846"><ele>277.0</ele><time>2026-05-02T13:43:06Z</time></trkpt><trkpt lat="50.39310543655454" lon="16.006007138947474"><ele>277.0</ele><time>2026-05-02T13:43:07Z</time></trkpt><trkpt lat="50.393008924759464" lon="16.006028501528967"><ele>277.0</ele><time>2026-05-02T13:43:08Z</time></trkpt><trkpt lat="50.39292878810408" lon="16.006053296063445"><ele>277.0</ele><time>2026-05-02T13:43:09Z</time></trkpt><trkpt lat="50.39286346621118" lon="16.006071285775725"><ele>277.0</ele><time>2026-05-02T13:43:10Z</time></trkpt><trkpt lat="50.39278335517758" lon="16.00610784026141"><ele>277.0</ele><time>2026-05-02T13:43:13Z</time></trkpt><trkpt lat="50.39273437417691" lon="16.006174730921675"><ele>276.0</ele><time>2026-05-02T13:43:14Z</time></trkpt><trkpt lat="50.39272145877671" lon="16.00629145816634"><ele>275.0</ele><time>2026-05-02T13:43:15Z</time></trkpt><trkpt lat="50.39272001264071" lon="16.006437970021974"><ele>274.0</ele><time>2026-05-02T13:43:16Z</time></trkpt><trkpt lat="50.39271629139382" lon="16.00660739748222"><ele>273.0</ele><time>2026-05-02T13:43:17Z</time></trkpt><trkpt lat="50.39271005949215" lon="16.00681483986281"><ele>272.0</ele><time>2026-05-02T13:43:18Z</time></trkpt><trkpt lat="50.392691351142275" lon="16.007058199416157"><ele>272.0</ele><time>2026-05-02T13:43:19Z</time></trkpt><trkpt lat="50.39269726532698" lon="16.007236046182452"><ele>272.0</ele><time>2026-05-02T13:43:20Z</time></trkpt><trkpt lat="50.39268832560114" lon="16.007491955940672"><ele>272.0</ele><time>2026-05-02T13:43:21Z</time></trkpt><trkpt lat="50.39265963864257" lon="16.00776192875308"><ele>272.33333333333337</ele><time>2026-05-02T13:43:22Z</time></trkpt><trkpt lat="50.392663230096574" lon="16.008027888925497"><ele>272.6666666666667</ele><time>2026-05-02T13:43:23Z</time></trkpt><trkpt lat="50.3926355519828" lon="16.00829381935009"><ele>273.0</ele><time>2026-05-02T13:43:24Z</time></trkpt><trkpt lat="50.392635926387946" lon="16.008574095083485"><ele>273.0</ele><time>2026-05-02T13:43:25Z</time></trkpt><trkpt lat="50.392626498338316" lon="16.00885728738008"><ele>273.0</ele><time>2026-05-02T13:43:26Z</time></trkpt><trkpt lat="50.39260486341153" lon="16.00913635419509"><ele>273.0</ele><time>2026-05-02T13:43:27Z</time></trkpt><trkpt lat="50.3926265189015" lon="16.009388515061094"><ele>273.0</ele><time>2026-05-02T13:43:28Z</time></trkpt><trkpt lat="50.39264055959463" lon="16.009609451927908"><ele>273.0</ele><time>2026-05-02T13:43:29Z</time></trkpt><trkpt lat="50.392662884590735" lon="16.009810430253037"><ele>273.0</ele><time>2026-05-02T13:43:30Z</time></trkpt><trkpt lat="50.392702714090106" lon="16.009987210361015"><ele>273.0</ele><time>2026-05-02T13:43:31Z</time></trkpt><trkpt lat="50.39274776649242" lon="16.01018829286642"><ele>272.3333333333333</ele><time>2026-05-02T13:43:32Z</time></trkpt><trkpt lat="50.39279926443025" lon="16.010407615950125"><ele>271.66666666666663</ele><time>2026-05-02T13:43:33Z</time></trkpt><trkpt lat="50.39285622214887" lon="16.010626673391105"><ele>271.0</ele><time>2026-05-02T13:43:34Z</time></trkpt><trkpt lat="50.39291182564391" lon="16.010854829224087"><ele>271.3333333333333</ele><time>2026-05-02T13:43:35Z</time></trkpt><trkpt lat="50.39297044169735" lon="16.011087994311996"><ele>271.6666666666667</ele><time>2026-05-02T13:43:36Z</time></trkpt><trkpt lat="50.39303034648937" lon="16.011329041099103"><ele>272.0</ele><time>2026-05-02T13:43:37Z</time></trkpt><trkpt lat="50.39308848982451" lon="16.011573391457325"><ele>271.6666666666667</ele><time>2026-05-02T13:43:38Z</time></trkpt><trkpt lat="50.39313969016155" lon="16.01182740931115"><ele>271.3333333333333</ele><time>2026-05-02T13:43:39Z</time></trkpt><trkpt lat="50.39319626232125" lon="16.012083743933236"><ele>271.0</ele><time>2026-05-02T13:43:40Z</time></trkpt><trkpt lat="50.39326311771854" lon="16.012327797198576"><ele>270.75</ele><time>2026-05-02T13:43:41Z</time></trkpt><trkpt lat="50.39332119826715" lon="16.012544742436393"><ele>270.5</ele><time>2026-05-02T13:43:42Z</time></trkpt><trkpt lat="50.393378365788905" lon="16.012727889712934"><ele>270.25</ele><time>2026-05-02T13:43:43Z</time></trkpt><trkpt lat="50.39342743913079" lon="16.012919499379095"><ele>270.0</ele><time>2026-05-02T13:43:44Z</time></trkpt><trkpt lat="50.39346975498503" lon="16.013122351041197"><ele>270.0</ele><time>2026-05-02T13:43:45Z</time></trkpt><trkpt lat="50.39351791184891" lon="16.013331085793496"><ele>270.0</ele><time>2026-05-02T13:43:46Z</time></trkpt><trkpt lat="50.393580000898865" lon="16.013547577058365"><ele>270.0</ele><time>2026-05-02T13:43:47Z</time></trkpt><trkpt lat="50.39363863668345" lon="16.013768949361346"><ele>270.0</ele><time>2026-05-02T13:43:48Z</time></trkpt><trkpt lat="50.39370373539201" lon="16.01399035410764"><ele>269.75</ele><time>2026-05-02T13:43:49Z</time></trkpt><trkpt lat="50.39377937751095" lon="16.01420851241982"><ele>269.5</ele><time>2026-05-02T13:43:50Z</time></trkpt><trkpt lat="50.39385324932461" lon="16.01440707429717"><ele>269.25</ele><time>2026-05-02T13:43:51Z</time></trkpt><trkpt lat="50.39392081844465" lon="16.01459009970675"><ele>269.0</ele><time>2026-05-02T13:43:52Z</time></trkpt><trkpt lat="50.3939979807707" lon="16.014770492011976"><ele>270.33333333333337</ele><time>2026-05-02T13:43:53Z</time></trkpt><trkpt lat="50.394069950226196" lon="16.01498786412006"><ele>271.6666666666667</ele><time>2026-05-02T13:43:54Z</time></trkpt><trkpt lat="50.3941528456047" lon="16.015200043467924"><ele>273.0</ele><time>2026-05-02T13:43:55Z</time></trkpt><trkpt lat="50.394239067197454" lon="16.015394057793124"><ele>273.0</ele><time>2026-05-02T13:43:56Z</time></trkpt><trkpt lat="50.39430136540033" lon="16.015601707109944"><ele>273.0</ele><time>2026-05-02T13:43:57Z</time></trkpt><trkpt lat="50.39436816867324" lon="16.01581800626191"><ele>273.0</ele><time>2026-05-02T13:43:58Z</time></trkpt><trkpt lat="50.39442034978405" lon="16.016045473101073"><ele>272.0</ele><time>2026-05-02T13:43:59Z</time></trkpt><trkpt lat="50.394472409547475" lon="16.016275225511123"><ele>271.0</ele><time>2026-05-02T13:44:00Z</time></trkpt><trkpt lat="50.39453120524424" lon="16.01649665630575"><ele>270.0</ele><time>2026-05-02T13:44:01Z</time></trkpt><trkpt lat="50.39456819668227" lon="16.016717700568105"><ele>269.5</ele><time>2026-05-02T13:44:02Z</time></trkpt><trkpt lat="50.39461988790689" lon="16.016928438736766"><ele>269.0</ele><time>2026-05-02T13:44:03Z</time></trkpt><trkpt lat="50.39467638120139" lon="16.017139131939036"><ele>268.5</ele><time>2026-05-02T13:44:04Z</time></trkpt><trkpt lat="50.39472021082375" lon="16.017362336227013"><ele>268.0</ele><time>2026-05-02T13:44:05Z</time></trkpt><trkpt lat="50.3947584766484" lon="16.017590082511262"><ele>269.66666666666663</ele><time>2026-05-02T13:44:06Z</time></trkpt><trkpt lat="50.394806752070814" lon="16.01781686522991"><ele>271.3333333333333</ele><time>2026-05-02T13:44:07Z</time></trkpt><trkpt lat="50.39486924775282" lon="16.01803933717116"><ele>273.0</ele><time>2026-05-02T13:44:08Z</time></trkpt><trkpt lat="50.39491904298593" lon="16.018263645865932"><ele>273.3333333333333</ele><time>2026-05-02T13:44:09Z</time></trkpt><trkpt lat="50.39497792728846" lon="16.018485903275643"><ele>273.66666666666663</ele><time>2026-05-02T13:44:10Z</time></trkpt><trkpt lat="50.39503181648299" lon="16.01870687720219"><ele>274.0</ele><time>2026-05-02T13:44:11Z</time></trkpt><trkpt lat="50.39509587507569" lon="16.018920982462287"><ele>274.0</ele><time>2026-05-02T13:44:12Z</time></trkpt><trkpt lat="50.39516718458577" lon="16.01913736848732"><ele>274.0</ele><time>2026-05-02T13:44:13Z</time></trkpt><trkpt lat="50.3952338982131" lon="16.01933555722781"><ele>274.0</ele><time>2026-05-02T13:44:14Z</time></trkpt><trkpt lat="50.39529123494235" lon="16.01952127635673"><ele>274.0</ele><time>2026-05-02T13:44:15Z</time></trkpt><trkpt lat="50.39535741084952" lon="16.019702491653103"><ele>274.5</ele><time>2026-05-02T13:44:16Z</time></trkpt><trkpt lat="50.395426749483825" lon="16.019886897848984"><ele>275.0</ele><time>2026-05-02T13:44:17Z</time></trkpt><trkpt lat="50.395492494518216" lon="16.020070519862568"><ele>275.5</ele><time>2026-05-02T13:44:18Z</time></trkpt><trkpt lat="50.39555867543244" lon="16.020255084038173"><ele>276.0</ele><time>2026-05-02T13:44:19Z</time></trkpt><trkpt lat="50.395629468742726" lon="16.02043886767883"><ele>277.5</ele><time>2026-05-02T13:44:20Z</time></trkpt><trkpt lat="50.39569840748446" lon="16.020631926719762"><ele>279.0</ele><time>2026-05-02T13:44:21Z</time></trkpt><trkpt lat="50.395774411284" lon="16.020827884369044"><ele>280.5</ele><time>2026-05-02T13:44:22Z</time></trkpt><trkpt lat="50.39584942743373" lon="16.021015432872872"><ele>282.0</ele><time>2026-05-02T13:44:23Z</time></trkpt><trkpt lat="50.395928563063" lon="16.02121641169066"><ele>282.3333333333333</ele><time>2026-05-02T13:44:24Z</time></trkpt><trkpt lat="50.39600819165962" lon="16.02142636194299"><ele>282.66666666666663</ele><time>2026-05-02T13:44:25Z</time></trkpt><trkpt lat="50.39608244668594" lon="16.021647980163813"><ele>283.0</ele><time>2026-05-02T13:44:26Z</time></trkpt><trkpt lat="50.39614885399258" lon="16.021869552103784"><ele>283.0</ele><time>2026-05-02T13:44:27Z</time></trkpt><trkpt lat="50.396203481641905" lon="16.02206781483319"><ele>283.0</ele><time>2026-05-02T13:44:28Z</time></trkpt><trkpt lat="50.39625842081245" lon="16.022255051469255"><ele>283.0</ele><time>2026-05-02T13:44:29Z</time></trkpt><trkpt lat="50.39631760705165" lon="16.02243778963546"><ele>283.0</ele><time>2026-05-02T13:44:30Z</time></trkpt><trkpt lat="50.39637286257238" lon="16.0226199829195"><ele>283.5</ele><time>2026-05-02T13:44:31Z</time></trkpt><trkpt lat="50.396421026527996" lon="16.022799926583854"><ele>284.0</ele><time>2026-05-02T13:44:32Z</time></trkpt><trkpt lat="50.39645609636769" lon="16.022993034222118"><ele>284.5</ele><time>2026-05-02T13:44:33Z</time></trkpt><trkpt lat="50.39652631383194" lon="16.023166938654267"><ele>285.0</ele><time>2026-05-02T13:44:34Z</time></trkpt><trkpt lat="50.39658546969707" lon="16.023356056345737"><ele>285.0</ele><time>2026-05-02T13:44:35Z</time></trkpt><trkpt lat="50.39664847176785" lon="16.023548409038163"><ele>285.0</ele><time>2026-05-02T13:44:36Z</time></trkpt><trkpt lat="50.39671835734759" lon="16.02373509728312"><ele>285.0</ele><time>2026-05-02T13:44:37Z</time></trkpt><trkpt lat="50.39677256498432" lon="16.023936634287164"><ele>285.0</ele><time>2026-05-02T13:44:38Z</time></trkpt><trkpt lat="50.39683882075904" lon="16.024124113178544"><ele>284.0</ele><time>2026-05-02T13:44:39Z</time></trkpt><trkpt lat="50.39691614037085" lon="16.02430145302564"><ele>283.0</ele><time>2026-05-02T13:44:40Z</time></trkpt><trkpt lat="50.396971356453214" lon="16.024492378012592"><ele>282.0</ele><time>2026-05-02T13:44:41Z</time></trkpt><trkpt lat="50.397033299795325" lon="16.024677216310778"><ele>281.0</ele><time>2026-05-02T13:44:42Z</time></trkpt><trkpt lat="50.397104064430955" lon="16.02485843348446"><ele>281.25</ele><time>2026-05-02T13:44:43Z</time></trkpt><trkpt lat="50.397178711210636" lon="16.02504708102572"><ele>281.5</ele><time>2026-05-02T13:44:44Z</time></trkpt><trkpt lat="50.3972499669573" lon="16.025236459394648"><ele>281.75</ele><time>2026-05-02T13:44:45Z</time></trkpt><trkpt lat="50.397313745354374" lon="16.025433410959984"><ele>282.0</ele><time>2026-05-02T13:44:46Z</time></trkpt><trkpt lat="50.39736292922533" lon="16.02562788297175"><ele>281.25</ele><time>2026-05-02T13:44:47Z</time></trkpt><trkpt lat="50.397406798424726" lon="16.025828861424838"><ele>280.5</ele><time>2026-05-02T13:44:48Z</time></trkpt><trkpt lat="50.397442110522405" lon="16.02604270565864"><ele>279.75</ele><time>2026-05-02T13:44:49Z</time></trkpt><trkpt lat="50.39746481228805" lon="16.026278646542526"><ele>279.0</ele><time>2026-05-02T13:44:50Z</time></trkpt><trkpt lat="50.397481667702536" lon="16.026510357971976"><ele>278.75</ele><time>2026-05-02T13:44:51Z</time></trkpt><trkpt lat="50.39750286127375" lon="16.026729361414084"><ele>278.5</ele><time>2026-05-02T13:44:52Z</time></trkpt><trkpt lat="50.39749803078539" lon="16.026928026560917"><ele>278.25</ele><time>2026-05-02T13:44:53Z</time></trkpt><trkpt lat="50.3974699681147" lon="16.02712062832761"><ele>278.0</ele><time>2026-05-02T13:44:54Z</time></trkpt><trkpt lat="50.39746422818357" lon="16.027336191692914"><ele>277.75</ele><time>2026-05-02T13:44:55Z</time></trkpt><trkpt lat="50.39744043154853" lon="16.02755913783107"><ele>277.5</ele><time>2026-05-02T13:44:56Z</time></trkpt><trkpt lat="50.39740743736097" lon="16.027778124954985"><ele>277.25</ele><time>2026-05-02T13:44:57Z</time></trkpt><trkpt lat="50.39736860043376" lon="16.027991102860746"><ele>277.0</ele><time>2026-05-02T13:44:58Z</time></trkpt><trkpt lat="50.39734095980051" lon="16.02818881508854"><ele>277.0</ele><time>2026-05-02T13:44:59Z</time></trkpt><trkpt lat="50.39730335175809" lon="16.028381800969854"><ele>277.0</ele><time>2026-05-02T13:45:00Z</time></trkpt><trkpt lat="50.39727608559119" lon="16.028581750044715"><ele>277.0</ele><time>2026-05-02T13:45:01Z</time></trkpt><trkpt lat="50.39724400862493" lon="16.0287729343568"><ele>277.0</ele><time>2026-05-02T13:45:02Z</time></trkpt><trkpt lat="50.39722147323596" lon="16.02897665489633"><ele>277.5</ele><time>2026-05-02T13:45:03Z</time></trkpt><trkpt lat="50.39721580999083" lon="16.029170774841855"><ele>278.0</ele><time>2026-05-02T13:45:04Z</time></trkpt><trkpt lat="50.39720008860609" lon="16.029342621875866"><ele>278.5</ele><time>2026-05-02T13:45:05Z</time></trkpt><trkpt lat="50.39719835279768" lon="16.029541150817277"><ele>279.0</ele><time>2026-05-02T13:45:06Z</time></trkpt><trkpt lat="50.39718495612997" lon="16.02978466797347"><ele>279.25</ele><time>2026-05-02T13:45:07Z</time></trkpt><trkpt lat="50.397179363310656" lon="16.03001279963696"><ele>279.5</ele><time>2026-05-02T13:45:08Z</time></trkpt><trkpt lat="50.39718709774768" lon="16.03021616417132"><ele>279.75</ele><time>2026-05-02T13:45:09Z</time></trkpt><trkpt lat="50.397187890689416" lon="16.030391213537794"><ele>280.0</ele><time>2026-05-02T13:45:10Z</time></trkpt><trkpt lat="50.39718977729152" lon="16.030545533108"><ele>280.0</ele><time>2026-05-02T13:45:11Z</time></trkpt><trkpt lat="50.397190526655415" lon="16.030697642105466"><ele>280.0</ele><time>2026-05-02T13:45:12Z</time></trkpt><trkpt lat="50.39718988166635" lon="16.030874021750858"><ele>280.0</ele><time>2026-05-02T13:45:13Z</time></trkpt><trkpt lat="50.39718828265141" lon="16.03104993223538"><ele>280.0</ele><time>2026-05-02T13:45:14Z</time></trkpt><trkpt lat="50.39718835025821" lon="16.031221926907406"><ele>280.0</ele><time>2026-05-02T13:45:15Z</time></trkpt><trkpt lat="50.39718395562411" lon="16.031387484674894"><ele>280.0</ele><time>2026-05-02T13:45:16Z</time></trkpt><trkpt lat="50.39717859222507" lon="16.031556744148173"><ele>280.0</ele><time>2026-05-02T13:45:17Z</time></trkpt><trkpt lat="50.397181317432164" lon="16.031729215455737"><ele>280.0</ele><time>2026-05-02T13:45:18Z</time></trkpt><trkpt lat="50.397189963350634" lon="16.031903340428357"><ele>280.0</ele><time>2026-05-02T13:45:19Z</time></trkpt><trkpt lat="50.397184139375916" lon="16.032078725689693"><ele>280.0</ele><time>2026-05-02T13:45:20Z</time></trkpt><trkpt lat="50.39718301407687" lon="16.032257640537743"><ele>280.0</ele><time>2026-05-02T13:45:21Z</time></trkpt><trkpt lat="50.39718288286752" lon="16.03243852423729"><ele>280.0</ele><time>2026-05-02T13:45:22Z</time></trkpt><trkpt lat="50.39716623922436" lon="16.032623231812423"><ele>280.0</ele><time>2026-05-02T13:45:23Z</time></trkpt><trkpt lat="50.39716054137852" lon="16.032801984533908"><ele>280.0</ele><time>2026-05-02T13:45:24Z</time></trkpt><trkpt lat="50.397151232430545" lon="16.032979995965754"><ele>280.0</ele><time>2026-05-02T13:45:25Z</time></trkpt><trkpt lat="50.39711949671798" lon="16.033155347162143"><ele>280.0</ele><time>2026-05-02T13:45:26Z</time></trkpt><trkpt lat="50.39707519362852" lon="16.033336263747792"><ele>280.0</ele><time>2026-05-02T13:45:27Z</time></trkpt><trkpt lat="50.39701679506826" lon="16.03352764533036"><ele>280.0</ele><time>2026-05-02T13:45:28Z</time></trkpt><trkpt lat="50.39694730781345" lon="16.03371028906201"><ele>280.0</ele><time>2026-05-02T13:45:29Z</time></trkpt><trkpt lat="50.39688217081107" lon="16.03387169094104"><ele>280.0</ele><time>2026-05-02T13:45:30Z</time></trkpt><trkpt lat="50.39682404887854" lon="16.034017097651212"><ele>280.0</ele><time>2026-05-02T13:45:31Z</time></trkpt><trkpt lat="50.396772450408875" lon="16.034143439318573"><ele>280.0</ele><time>2026-05-02T13:45:32Z</time></trkpt><trkpt lat="50.39672104083946" lon="16.034261960228005"><ele>280.0</ele><time>2026-05-02T13:45:33Z</time></trkpt><trkpt lat="50.39666969247148" lon="16.03438088894808"><ele>280.2</ele><time>2026-05-02T13:45:34Z</time></trkpt><trkpt lat="50.39661429964123" lon="16.034503925420456"><ele>280.4</ele><time>2026-05-02T13:45:35Z</time></trkpt><trkpt lat="50.39655753873751" lon="16.034629457269208"><ele>280.6</ele><time>2026-05-02T13:45:36Z</time></trkpt><trkpt lat="50.39649897810208" lon="16.03476108744786"><ele>280.8</ele><time>2026-05-02T13:45:37Z</time></trkpt><trkpt lat="50.39643964145904" lon="16.03490961758057"><ele>281.0</ele><time>2026-05-02T13:45:38Z</time></trkpt><trkpt lat="50.39637880836027" lon="16.035069193244134"><ele>281.0</ele><time>2026-05-02T13:45:39Z</time></trkpt><trkpt lat="50.39631514715856" lon="16.035224890165136"><ele>281.0</ele><time>2026-05-02T13:45:40Z</time></trkpt><trkpt lat="50.396252416828204" lon="16.035367452934548"><ele>281.0</ele><time>2026-05-02T13:45:41Z</time></trkpt><trkpt lat="50.396192330215975" lon="16.03549352918627"><ele>281.0</ele><time>2026-05-02T13:45:42Z</time></trkpt><trkpt lat="50.39612157367173" lon="16.035618852366483"><ele>281.0</ele><time>2026-05-02T13:45:43Z</time></trkpt><trkpt lat="50.396031616517426" lon="16.035726792585386"><ele>281.40000000000003</ele><time>2026-05-02T13:45:44Z</time></trkpt><trkpt lat="50.395921876376946" lon="16.035804100745537"><ele>281.8</ele><time>2026-05-02T13:45:45Z</time></trkpt><trkpt lat="50.39581644590447" lon="16.035876638077745"><ele>282.20000000000005</ele><time>2026-05-02T13:45:46Z</time></trkpt><trkpt lat="50.39571990879795" lon="16.035966908195434"><ele>282.6</ele><time>2026-05-02T13:45:47Z</time></trkpt><trkpt lat="50.3956352741322" lon="16.036046500378617"><ele>283.0</ele><time>2026-05-02T13:45:48Z</time></trkpt><trkpt lat="50.395550140889945" lon="16.036118385199934"><ele>282.0</ele><time>2026-05-02T13:45:49Z</time></trkpt><trkpt lat="50.395463123945554" lon="16.036192685429494"><ele>281.0</ele><time>2026-05-02T13:45:50Z</time></trkpt><trkpt lat="50.395374011917625" lon="16.036296891367073"><ele>280.0</ele><time>2026-05-02T13:45:51Z</time></trkpt><trkpt lat="50.39528811686246" lon="16.036427213048945"><ele>279.0</ele><time>2026-05-02T13:45:52Z</time></trkpt><trkpt lat="50.39520916360103" lon="16.036570135185265"><ele>278.8</ele><time>2026-05-02T13:45:53Z</time></trkpt><trkpt lat="50.39513851585951" lon="16.036717487794036"><ele>278.59999999999997</ele><time>2026-05-02T13:45:54Z</time></trkpt><trkpt lat="50.395099585612314" lon="16.036866828787936"><ele>278.4</ele><time>2026-05-02T13:45:55Z</time></trkpt><trkpt lat="50.3950861395102" lon="16.037028206131488"><ele>278.2</ele><time>2026-05-02T13:45:56Z</time></trkpt><trkpt lat="50.39509212848339" lon="16.03720447928111"><ele>278.0</ele><time>2026-05-02T13:45:57Z</time></trkpt><trkpt lat="50.39512229361222" lon="16.037376153206477"><ele>277.8</ele><time>2026-05-02T13:45:58Z</time></trkpt><trkpt lat="50.39515970420162" lon="16.037527137784565"><ele>277.6</ele><time>2026-05-02T13:45:59Z</time></trkpt><trkpt lat="50.395183171472574" lon="16.037673637612485"><ele>277.4</ele><time>2026-05-02T13:46:00Z</time></trkpt><trkpt lat="50.39519890287069" lon="16.037810045450666"><ele>277.2</ele><time>2026-05-02T13:46:01Z</time></trkpt><trkpt lat="50.395234734353735" lon="16.03793535361745"><ele>277.0</ele><time>2026-05-02T13:46:02Z</time></trkpt><trkpt lat="50.395259370806706" lon="16.03806902987533"><ele>277.0</ele><time>2026-05-02T13:46:03Z</time></trkpt><trkpt lat="50.39527803444351" lon="16.038206099593957"><ele>277.0</ele><time>2026-05-02T13:46:04Z</time></trkpt><trkpt lat="50.39531734654866" lon="16.038330237934854"><ele>277.0</ele><time>2026-05-02T13:46:05Z</time></trkpt><trkpt lat="50.39532852653007" lon="16.038476162727513"><ele>277.0</ele><time>2026-05-02T13:46:06Z</time></trkpt><trkpt lat="50.39535545565975" lon="16.038640871524894"><ele>277.0</ele><time>2026-05-02T13:46:07Z</time></trkpt><trkpt lat="50.39537993596038" lon="16.038832233953574"><ele>277.0</ele><time>2026-05-02T13:46:08Z</time></trkpt><trkpt lat="50.3953779975507" lon="16.038992796570625"><ele>277.0</ele><time>2026-05-02T13:46:09Z</time></trkpt><trkpt lat="50.395353543015084" lon="16.03915385111813"><ele>277.0</ele><time>2026-05-02T13:46:10Z</time></trkpt><trkpt lat="50.39530586173959" lon="16.03933269675358"><ele>277.0</ele><time>2026-05-02T13:46:11Z</time></trkpt><trkpt lat="50.39523043218816" lon="16.039507511869807"><ele>277.0</ele><time>2026-05-02T13:46:12Z</time></trkpt><trkpt lat="50.39515202975763" lon="16.03967360346402"><ele>277.0</ele><time>2026-05-02T13:46:13Z</time></trkpt><trkpt lat="50.395102768710025" lon="16.039819022607745"><ele>277.0</ele><time>2026-05-02T13:46:14Z</time></trkpt><trkpt lat="50.395064466489885" lon="16.03996140647464"><ele>277.0</ele><time>2026-05-02T13:46:15Z</time></trkpt><trkpt lat="50.395016709758394" lon="16.040101856986723"><ele>277.0</ele><time>2026-05-02T13:46:16Z</time></trkpt><trkpt lat="50.39496897160731" lon="16.040254336169937"><ele>277.25</ele><time>2026-05-02T13:46:17Z</time></trkpt><trkpt lat="50.394922784921334" lon="16.040412052751034"><ele>277.5</ele><time>2026-05-02T13:46:18Z</time></trkpt><trkpt lat="50.394875296602734" lon="16.040570805557728"><ele>277.75</ele><time>2026-05-02T13:46:19Z</time></trkpt><trkpt lat="50.39482645218656" lon="16.04073239861179"><ele>278.0</ele><time>2026-05-02T13:46:20Z</time></trkpt><trkpt lat="50.394767508142984" lon="16.04089594695274"><ele>278.2</ele><time>2026-05-02T13:46:21Z</time></trkpt><trkpt lat="50.394708048489534" lon="16.041059664212433"><ele>278.4</ele><time>2026-05-02T13:46:22Z</time></trkpt><trkpt lat="50.394653178803416" lon="16.041199594127953"><ele>278.59999999999997</ele><time>2026-05-02T13:46:23Z</time></trkpt><trkpt lat="50.39460533728786" lon="16.041332668546037"><ele>278.8</ele><time>2026-05-02T13:46:24Z</time></trkpt><trkpt lat="50.394582741582525" lon="16.041496201235326"><ele>279.0</ele><time>2026-05-02T13:46:25Z</time></trkpt><trkpt lat="50.39456324801491" lon="16.041666543029365"><ele>279.4</ele><time>2026-05-02T13:46:26Z</time></trkpt><trkpt lat="50.39455750459536" lon="16.041839099472515"><ele>279.79999999999995</ele><time>2026-05-02T13:46:27Z</time></trkpt><trkpt lat="50.3945575955511" lon="16.042016623473828"><ele>280.20000000000005</ele><time>2026-05-02T13:46:28Z</time></trkpt><trkpt lat="50.39456657472748" lon="16.042192937174015"><ele>280.6</ele><time>2026-05-02T13:46:29Z</time></trkpt><trkpt lat="50.39459143033948" lon="16.042363309194904"><ele>281.0</ele><time>2026-05-02T13:46:30Z</time></trkpt><trkpt lat="50.39462326590615" lon="16.042528708344445"><ele>281.5</ele><time>2026-05-02T13:46:31Z</time></trkpt><trkpt lat="50.39465141853662" lon="16.042672611129912"><ele>282.0</ele><time>2026-05-02T13:46:32Z</time></trkpt><trkpt lat="50.394670139557135" lon="16.042794861459512"><ele>282.5</ele><time>2026-05-02T13:46:33Z</time></trkpt><trkpt lat="50.394694918044266" lon="16.042908230189962"><ele>283.0</ele><time>2026-05-02T13:46:34Z</time></trkpt><trkpt lat="50.394729648142174" lon="16.043032475853085"><ele>283.5</ele><time>2026-05-02T13:46:35Z</time></trkpt><trkpt lat="50.39475980231978" lon="16.043162136415692"><ele>284.0</ele><time>2026-05-02T13:46:36Z</time></trkpt><trkpt lat="50.394789300409606" lon="16.043298365035124"><ele>286.5</ele><time>2026-05-02T13:46:37Z</time></trkpt><trkpt lat="50.394831723711235" lon="16.043444585334147"><ele>289.0</ele><time>2026-05-02T13:46:38Z</time></trkpt><trkpt lat="50.39488712525524" lon="16.04364110954239"><ele>291.5</ele><time>2026-05-02T13:46:39Z</time></trkpt><trkpt lat="50.39492406440673" lon="16.043817440715994"><ele>294.0</ele><time>2026-05-02T13:46:40Z</time></trkpt><trkpt lat="50.39496970359081" lon="16.044002737103646"><ele>294.0</ele><time>2026-05-02T13:46:41Z</time></trkpt><trkpt lat="50.39500415807821" lon="16.044140598482205"><ele>294.0</ele><time>2026-05-02T13:46:42Z</time></trkpt><trkpt lat="50.39502841259409" lon="16.044237491249266"><ele>294.0</ele><time>2026-05-02T13:46:43Z</time></trkpt><trkpt lat="50.395018193015325" lon="16.044389755971153"><ele>294.0</ele><time>2026-05-02T13:46:45Z</time></trkpt><trkpt lat="50.394905574210355" lon="16.044458388554357"><ele>294.0</ele><time>2026-05-02T13:46:47Z</time></trkpt><trkpt lat="50.39481645927305" lon="16.044413423065592"><ele>294.0</ele><time>2026-05-02T13:46:48Z</time></trkpt><trkpt lat="50.39473390357248" lon="16.044444913411628"><ele>294.0</ele><time>2026-05-02T13:46:49Z</time></trkpt><trkpt lat="50.39464641641243" lon="16.044454966041467"><ele>294.0</ele><time>2026-05-02T13:46:50Z</time></trkpt><trkpt lat="50.39457510519998" lon="16.0444587436924"><ele>294.0</ele><time>2026-05-02T13:46:51Z</time></trkpt><trkpt lat="50.39449272880477" lon="16.044478670580816"><ele>294.0</ele><time>2026-05-02T13:46:52Z</time></trkpt><trkpt lat="50.39440380104753" lon="16.044504746238353"><ele>294.0</ele><time>2026-05-02T13:46:53Z</time></trkpt><trkpt lat="50.39432553530029" lon="16.04453064529995"><ele>293.57142857142856</ele><time>2026-05-02T13:46:54Z</time></trkpt><trkpt lat="50.39425175478112" lon="16.04452507534111"><ele>293.1428571428571</ele><time>2026-05-02T13:46:55Z</time></trkpt><trkpt lat="50.39418278892618" lon="16.04454690547232"><ele>292.7142857142857</ele><time>2026-05-02T13:46:56Z</time></trkpt><trkpt lat="50.39411176159579" lon="16.044569388127453"><ele>292.2857142857143</ele><time>2026-05-02T13:46:57Z</time></trkpt><trkpt lat="50.39403651090299" lon="16.04459320763914"><ele>291.85714285714283</ele><time>2026-05-02T13:46:58Z</time></trkpt><trkpt lat="50.393963850296004" lon="16.044627143464872"><ele>291.42857142857144</ele><time>2026-05-02T13:46:59Z</time></trkpt><trkpt lat="50.39389389831414" lon="16.044641126269482"><ele>291.0</ele><time>2026-05-02T13:47:00Z</time></trkpt><trkpt lat="50.39382659951879" lon="16.04466465592427"><ele>290.40000000000003</ele><time>2026-05-02T13:47:01Z</time></trkpt><trkpt lat="50.39375739297372" lon="16.044662160410443"><ele>289.8</ele><time>2026-05-02T13:47:02Z</time></trkpt><trkpt lat="50.39368818560324" lon="16.0445856083858"><ele>289.20000000000005</ele><time>2026-05-02T13:47:03Z</time></trkpt><trkpt lat="50.39362200231053" lon="16.04446052853034"><ele>288.6</ele><time>2026-05-02T13:47:04Z</time></trkpt><trkpt lat="50.39351433783522" lon="16.04431452160378"><ele>288.0</ele><time>2026-05-02T13:47:05Z</time></trkpt><trkpt lat="50.39341942730712" lon="16.044159248417635"><ele>286.25</ele><time>2026-05-02T13:47:06Z</time></trkpt><trkpt lat="50.39333453794008" lon="16.044035266708203"><ele>284.5</ele><time>2026-05-02T13:47:07Z</time></trkpt><trkpt lat="50.39324610208533" lon="16.043914704110694"><ele>282.75</ele><time>2026-05-02T13:47:08Z</time></trkpt><trkpt lat="50.39315270869214" lon="16.04381221224013"><ele>281.0</ele><time>2026-05-02T13:47:09Z</time></trkpt><trkpt lat="50.39304820960798" lon="16.043754310119716"><ele>280.5</ele><time>2026-05-02T13:47:10Z</time></trkpt><trkpt lat="50.39293713675355" lon="16.043722172553373"><ele>280.0</ele><time>2026-05-02T13:47:11Z</time></trkpt><trkpt lat="50.39281454243768" lon="16.04371676040587"><ele>279.5</ele><time>2026-05-02T13:47:12Z</time></trkpt><trkpt lat="50.39268434081265" lon="16.043720652031446"><ele>279.0</ele><time>2026-05-02T13:47:13Z</time></trkpt><trkpt lat="50.39256939312372" lon="16.043709664085373"><ele>279.0</ele><time>2026-05-02T13:47:14Z</time></trkpt><trkpt lat="50.39245974207737" lon="16.043687795928708"><ele>279.0</ele><time>2026-05-02T13:47:15Z</time></trkpt><trkpt lat="50.39234566726581" lon="16.04364846254109"><ele>279.0</ele><time>2026-05-02T13:47:16Z</time></trkpt><trkpt lat="50.392230185329126" lon="16.043577413051654"><ele>279.0</ele><time>2026-05-02T13:47:17Z</time></trkpt><trkpt lat="50.392140306589944" lon="16.043454177172983"><ele>279.59999999999997</ele><time>2026-05-02T13:47:18Z</time></trkpt><trkpt lat="50.39205174733577" lon="16.043380716049217"><ele>280.2</ele><time>2026-05-02T13:47:19Z</time></trkpt><trkpt lat="50.391964599375285" lon="16.04329307741176"><ele>280.79999999999995</ele><time>2026-05-02T13:47:20Z</time></trkpt><trkpt lat="50.391873265900834" lon="16.043223252203585"><ele>281.4</ele><time>2026-05-02T13:47:21Z</time></trkpt><trkpt lat="50.39176686434322" lon="16.04317192225682"><ele>282.0</ele><time>2026-05-02T13:47:22Z</time></trkpt><trkpt lat="50.39164183603475" lon="16.043121214732366"><ele>280.0</ele><time>2026-05-02T13:47:23Z</time></trkpt><trkpt lat="50.39149634352217" lon="16.04306356385822"><ele>278.0</ele><time>2026-05-02T13:47:24Z</time></trkpt><trkpt lat="50.39134786364801" lon="16.04301412974901"><ele>276.0</ele><time>2026-05-02T13:47:25Z</time></trkpt><trkpt lat="50.39119785998106" lon="16.04295743793005"><ele>276.0</ele><time>2026-05-02T13:47:26Z</time></trkpt><trkpt lat="50.391048594443724" lon="16.04290024854306"><ele>276.0</ele><time>2026-05-02T13:47:27Z</time></trkpt><trkpt lat="50.390892447654274" lon="16.042844064005962"><ele>276.0</ele><time>2026-05-02T13:47:28Z</time></trkpt><trkpt lat="50.39073572197665" lon="16.042781165752693"><ele>276.0</ele><time>2026-05-02T13:47:29Z</time></trkpt><trkpt lat="50.3905737664226" lon="16.042722180888383"><ele>276.0</ele><time>2026-05-02T13:47:30Z</time></trkpt><trkpt lat="50.39040507540298" lon="16.042676401816742"><ele>276.0</ele><time>2026-05-02T13:47:31Z</time></trkpt><trkpt lat="50.390243605264764" lon="16.042633433446106"><ele>276.6666666666667</ele><time>2026-05-02T13:47:32Z</time></trkpt><trkpt lat="50.390092511209176" lon="16.04262617970262"><ele>277.33333333333337</ele><time>2026-05-02T13:47:33Z</time></trkpt><trkpt lat="50.389944703031155" lon="16.04260046721773"><ele>278.0</ele><time>2026-05-02T13:47:34Z</time></trkpt><trkpt lat="50.38979599122494" lon="16.042567449645134"><ele>278.0</ele><time>2026-05-02T13:47:35Z</time></trkpt><trkpt lat="50.389634548183835" lon="16.04257025080853"><ele>278.0</ele><time>2026-05-02T13:47:36Z</time></trkpt><trkpt lat="50.38947242487289" lon="16.042565264866"><ele>278.0</ele><time>2026-05-02T13:47:37Z</time></trkpt><trkpt lat="50.38932166347208" lon="16.042600458857176"><ele>278.0</ele><time>2026-05-02T13:47:38Z</time></trkpt><trkpt lat="50.389178501521215" lon="16.04264358667165"><ele>278.0</ele><time>2026-05-02T13:47:39Z</time></trkpt><trkpt lat="50.389027782740875" lon="16.042698987201035"><ele>278.0</ele><time>2026-05-02T13:47:40Z</time></trkpt><trkpt lat="50.38887685068852" lon="16.04276502316565"><ele>277.25</ele><time>2026-05-02T13:47:41Z</time></trkpt><trkpt lat="50.38872407145453" lon="16.042825384635954"><ele>276.5</ele><time>2026-05-02T13:47:42Z</time></trkpt><trkpt lat="50.38858281960444" lon="16.04287350577126"><ele>275.75</ele><time>2026-05-02T13:47:43Z</time></trkpt><trkpt lat="50.38846205666948" lon="16.042924237206943"><ele>275.0</ele><time>2026-05-02T13:47:44Z</time></trkpt><trkpt lat="50.38835411042576" lon="16.04296520173266"><ele>275.0</ele><time>2026-05-02T13:47:45Z</time></trkpt><trkpt lat="50.388258862015455" lon="16.043000085133922"><ele>275.0</ele><time>2026-05-02T13:47:46Z</time></trkpt><trkpt lat="50.3881748921635" lon="16.043025804513846"><ele>275.0</ele><time>2026-05-02T13:47:47Z</time></trkpt><trkpt lat="50.388105501410614" lon="16.043040771849622"><ele>275.0</ele><time>2026-05-02T13:47:48Z</time></trkpt><trkpt lat="50.38800427509367" lon="16.04306446813152"><ele>275.0</ele><time>2026-05-02T13:47:50Z</time></trkpt><trkpt lat="50.38794570834578" lon="16.043131498539225"><ele>275.0</ele><time>2026-05-02T13:47:51Z</time></trkpt><trkpt lat="50.38787183452694" lon="16.04320922108946"><ele>276.0</ele><time>2026-05-02T13:47:52Z</time></trkpt><trkpt lat="50.38777996815859" lon="16.043263360706224"><ele>277.0</ele><time>2026-05-02T13:47:53Z</time></trkpt><trkpt lat="50.3876553218179" lon="16.043305085292282"><ele>278.0</ele><time>2026-05-02T13:47:54Z</time></trkpt><trkpt lat="50.38749999890615" lon="16.043301206469472"><ele>279.0</ele><time>2026-05-02T13:47:55Z</time></trkpt><trkpt lat="50.38732331651081" lon="16.043334274614885"><ele>282.0</ele><time>2026-05-02T13:47:56Z</time></trkpt><trkpt lat="50.38712703042395" lon="16.04336607052637"><ele>285.0</ele><time>2026-05-02T13:47:57Z</time></trkpt><trkpt lat="50.386916680685374" lon="16.043438098645098"><ele>288.0</ele><time>2026-05-02T13:47:58Z</time></trkpt><trkpt lat="50.386672166652716" lon="16.043539785588834"><ele>288.0</ele><time>2026-05-02T13:47:59Z</time></trkpt><trkpt lat="50.386407866089534" lon="16.043651595410612"><ele>288.0</ele><time>2026-05-02T13:48:00Z</time></trkpt><trkpt lat="50.38618860514879" lon="16.043727011307283"><ele>290.3333333333333</ele><time>2026-05-02T13:48:01Z</time></trkpt><trkpt lat="50.38599911906656" lon="16.043797918807094"><ele>292.66666666666663</ele><time>2026-05-02T13:48:02Z</time></trkpt><trkpt lat="50.385824439179586" lon="16.043865422618115"><ele>295.0</ele><time>2026-05-02T13:48:03Z</time></trkpt><trkpt lat="50.385670029119616" lon="16.04391732471229"><ele>295.0</ele><time>2026-05-02T13:48:04Z</time></trkpt><trkpt lat="50.38551425648951" lon="16.043968490680108"><ele>295.0</ele><time>2026-05-02T13:48:05Z</time></trkpt><trkpt lat="50.38538356331079" lon="16.044022462022518"><ele>295.0</ele><time>2026-05-02T13:48:06Z</time></trkpt><trkpt lat="50.385271762722056" lon="16.044065209623575"><ele>295.0</ele><time>2026-05-02T13:48:07Z</time></trkpt><trkpt lat="50.385151249530644" lon="16.04410258879605"><ele>295.0</ele><time>2026-05-02T13:48:08Z</time></trkpt><trkpt lat="50.38503771263032" lon="16.0441211723093"><ele>295.0</ele><time>2026-05-02T13:48:09Z</time></trkpt><trkpt lat="50.384922191276274" lon="16.04413797557554"><ele>295.0</ele><time>2026-05-02T13:48:10Z</time></trkpt><trkpt lat="50.384796074387665" lon="16.044116879439596"><ele>295.0</ele><time>2026-05-02T13:48:11Z</time></trkpt><trkpt lat="50.38467717132224" lon="16.044072622506814"><ele>295.0</ele><time>2026-05-02T13:48:12Z</time></trkpt><trkpt lat="50.384574353332994" lon="16.04404326913602"><ele>295.0</ele><time>2026-05-02T13:48:13Z</time></trkpt><trkpt lat="50.384492245904354" lon="16.04403879929797"><ele>295.0</ele><time>2026-05-02T13:48:14Z</time></trkpt><trkpt lat="50.38438426328423" lon="16.044075560055735"><ele>295.0</ele><time>2026-05-02T13:48:16Z</time></trkpt><trkpt lat="50.38430444136209" lon="16.04410847757221"><ele>295.0</ele><time>2026-05-02T13:48:29Z</time></trkpt><trkpt lat="50.38424012193458" lon="16.04412179709289"><ele>295.0</ele><time>2026-05-02T13:48:30Z</time></trkpt><trkpt lat="50.384156697866096" lon="16.044172345036067"><ele>294.66666666666663</ele><time>2026-05-02T13:48:31Z</time></trkpt><trkpt lat="50.38408811952465" lon="16.044261225871264"><ele>294.3333333333333</ele><time>2026-05-02T13:48:32Z</time></trkpt><trkpt lat="50.384010640575625" lon="16.044363354068885"><ele>294.0</ele><time>2026-05-02T13:48:33Z</time></trkpt><trkpt lat="50.3839322551002" lon="16.04443138514611"><ele>293.6666666666667</ele><time>2026-05-02T13:48:34Z</time></trkpt><trkpt lat="50.38386868390957" lon="16.044470364858068"><ele>293.33333333333337</ele><time>2026-05-02T13:48:35Z</time></trkpt><trkpt lat="50.38380356959513" lon="16.0445108060403"><ele>293.0</ele><time>2026-05-02T13:48:36Z</time></trkpt><trkpt lat="50.38372544171698" lon="16.04456941921177"><ele>293.0</ele><time>2026-05-02T13:48:37Z</time></trkpt><trkpt lat="50.38363565947272" lon="16.044628941674997"><ele>293.0</ele><time>2026-05-02T13:48:38Z</time></trkpt><trkpt lat="50.383538819636485" lon="16.044679470540622"><ele>293.0</ele><time>2026-05-02T13:48:39Z</time></trkpt><trkpt lat="50.383436845452664" lon="16.04472041839611"><ele>293.0</ele><time>2026-05-02T13:48:40Z</time></trkpt><trkpt lat="50.3833255290042" lon="16.044762239788373"><ele>293.0</ele><time>2026-05-02T13:48:41Z</time></trkpt><trkpt lat="50.383195312925956" lon="16.044814572059803"><ele>293.0</ele><time>2026-05-02T13:48:42Z</time></trkpt><trkpt lat="50.383050811295064" lon="16.044880826900194"><ele>293.0</ele><time>2026-05-02T13:48:43Z</time></trkpt><trkpt lat="50.38291542285937" lon="16.044934736811456"><ele>293.0</ele><time>2026-05-02T13:48:44Z</time></trkpt><trkpt lat="50.3827805199907" lon="16.044998394340453"><ele>293.0</ele><time>2026-05-02T13:48:45Z</time></trkpt><trkpt lat="50.38263761059044" lon="16.045074242115643"><ele>292.0</ele><time>2026-05-02T13:48:46Z</time></trkpt><trkpt lat="50.38249138834753" lon="16.045145852878665"><ele>291.0</ele><time>2026-05-02T13:48:47Z</time></trkpt><trkpt lat="50.38234003534624" lon="16.04522334444981"><ele>290.0</ele><time>2026-05-02T13:48:48Z</time></trkpt><trkpt lat="50.382186862260326" lon="16.045304251257413"><ele>290.6666666666667</ele><time>2026-05-02T13:48:49Z</time></trkpt><trkpt lat="50.38202840359949" lon="16.045386545493784"><ele>291.3333333333333</ele><time>2026-05-02T13:48:50Z</time></trkpt><trkpt lat="50.38187465778396" lon="16.045464923248343"><ele>292.0</ele><time>2026-05-02T13:48:51Z</time></trkpt><trkpt lat="50.38173097104579" lon="16.045535088460003"><ele>292.0</ele><time>2026-05-02T13:48:52Z</time></trkpt><trkpt lat="50.38158352295117" lon="16.04561147192977"><ele>292.0</ele><time>2026-05-02T13:48:53Z</time></trkpt><trkpt lat="50.381427610267" lon="16.045693498005477"><ele>292.0</ele><time>2026-05-02T13:48:54Z</time></trkpt><trkpt lat="50.38126755821734" lon="16.045776557121247"><ele>291.0</ele><time>2026-05-02T13:48:55Z</time></trkpt><trkpt lat="50.38110528751937" lon="16.045858226346063"><ele>290.0</ele><time>2026-05-02T13:48:56Z</time></trkpt><trkpt lat="50.380942405402294" lon="16.045941487690566"><ele>289.0</ele><time>2026-05-02T13:48:57Z</time></trkpt><trkpt lat="50.380788315884296" lon="16.046019263213534"><ele>289.0</ele><time>2026-05-02T13:48:58Z</time></trkpt><trkpt lat="50.38063943354476" lon="16.04609234966472"><ele>289.0</ele><time>2026-05-02T13:48:59Z</time></trkpt><trkpt lat="50.380487053274344" lon="16.046151417321873"><ele>289.0</ele><time>2026-05-02T13:49:00Z</time></trkpt><trkpt lat="50.3803251510102" lon="16.046203225504712"><ele>289.66666666666663</ele><time>2026-05-02T13:49:01Z</time></trkpt><trkpt lat="50.38015692747401" lon="16.046239621495044"><ele>290.3333333333333</ele><time>2026-05-02T13:49:02Z</time></trkpt><trkpt lat="50.379985334499814" lon="16.046255666889138"><ele>291.0</ele><time>2026-05-02T13:49:03Z</time></trkpt><trkpt lat="50.379819534209034" lon="16.046258216542448"><ele>290.0</ele><time>2026-05-02T13:49:04Z</time></trkpt><trkpt lat="50.37966205008039" lon="16.04624813944434"><ele>289.0</ele><time>2026-05-02T13:49:05Z</time></trkpt><trkpt lat="50.379499069053225" lon="16.04622398219832"><ele>288.0</ele><time>2026-05-02T13:49:06Z</time></trkpt><trkpt lat="50.37932800897185" lon="16.046179048668396"><ele>288.0</ele><time>2026-05-02T13:49:07Z</time></trkpt><trkpt lat="50.3791516765503" lon="16.046107040547312"><ele>288.0</ele><time>2026-05-02T13:49:08Z</time></trkpt><trkpt lat="50.37897025032511" lon="16.046010696693187"><ele>288.0</ele><time>2026-05-02T13:49:09Z</time></trkpt><trkpt lat="50.378790583368875" lon="16.04589552126803"><ele>291.3333333333333</ele><time>2026-05-02T13:49:10Z</time></trkpt><trkpt lat="50.378616759155754" lon="16.045780214293295"><ele>294.66666666666663</ele><time>2026-05-02T13:49:11Z</time></trkpt><trkpt lat="50.378449408649324" lon="16.04567656854267"><ele>298.0</ele><time>2026-05-02T13:49:12Z</time></trkpt><trkpt lat="50.37828766394079" lon="16.045571132024158"><ele>298.0</ele><time>2026-05-02T13:49:13Z</time></trkpt><trkpt lat="50.378126574836934" lon="16.045474258367953"><ele>298.0</ele><time>2026-05-02T13:49:14Z</time></trkpt><trkpt lat="50.37797023419828" lon="16.045376266570326"><ele>298.0</ele><time>2026-05-02T13:49:15Z</time></trkpt><trkpt lat="50.377817207798614" lon="16.045274753283962"><ele>297.3333333333333</ele><time>2026-05-02T13:49:16Z</time></trkpt><trkpt lat="50.377666759323276" lon="16.04517552226862"><ele>296.6666666666667</ele><time>2026-05-02T13:49:17Z</time></trkpt><trkpt lat="50.37752202612639" lon="16.045079306161036"><ele>296.0</ele><time>2026-05-02T13:49:18Z</time></trkpt><trkpt lat="50.37736911101226" lon="16.044981675696725"><ele>297.0</ele><time>2026-05-02T13:49:19Z</time></trkpt><trkpt lat="50.37720605547008" lon="16.044891927602794"><ele>298.0</ele><time>2026-05-02T13:49:20Z</time></trkpt><trkpt lat="50.37705793241317" lon="16.044790451093185"><ele>299.0</ele><time>2026-05-02T13:49:21Z</time></trkpt><trkpt lat="50.37691304002918" lon="16.04469963034656"><ele>299.0</ele><time>2026-05-02T13:49:22Z</time></trkpt><trkpt lat="50.37674932704521" lon="16.044595578025625"><ele>299.0</ele><time>2026-05-02T13:49:23Z</time></trkpt><trkpt lat="50.37654708764091" lon="16.044464143229593"><ele>299.0</ele><time>2026-05-02T13:49:24Z</time></trkpt><trkpt lat="50.37633336617999" lon="16.04433129727769"><ele>299.0</ele><time>2026-05-02T13:49:25Z</time></trkpt><trkpt lat="50.37614576771148" lon="16.044226071640498"><ele>299.0</ele><time>2026-05-02T13:49:26Z</time></trkpt><trkpt lat="50.37596445777259" lon="16.04415519045825"><ele>299.0</ele><time>2026-05-02T13:49:27Z</time></trkpt><trkpt lat="50.375773025233066" lon="16.044101954067575"><ele>299.0</ele><time>2026-05-02T13:49:28Z</time></trkpt><trkpt lat="50.37556848231343" lon="16.04406480584945"><ele>299.0</ele><time>2026-05-02T13:49:29Z</time></trkpt><trkpt lat="50.37535953356832" lon="16.044049606672097"><ele>299.0</ele><time>2026-05-02T13:49:30Z</time></trkpt><trkpt lat="50.37516111958037" lon="16.04405936578175"><ele>296.33333333333337</ele><time>2026-05-02T13:49:31Z</time></trkpt><trkpt lat="50.37497551394501" lon="16.0440913293901"><ele>293.6666666666667</ele><time>2026-05-02T13:49:32Z</time></trkpt><trkpt lat="50.37479324186519" lon="16.04414241231711"><ele>291.0</ele><time>2026-05-02T13:49:33Z</time></trkpt><trkpt lat="50.3746131372622" lon="16.04421459737446"><ele>290.6666666666667</ele><time>2026-05-02T13:49:34Z</time></trkpt><trkpt lat="50.374433314494894" lon="16.04430499701347"><ele>290.33333333333337</ele><time>2026-05-02T13:49:35Z</time></trkpt><trkpt lat="50.374259278967536" lon="16.044406551660003"><ele>290.0</ele><time>2026-05-02T13:49:36Z</time></trkpt><trkpt lat="50.374081625133485" lon="16.044514549192552"><ele>290.0</ele><time>2026-05-02T13:49:37Z</time></trkpt><trkpt lat="50.37389520390262" lon="16.044627872370047"><ele>290.0</ele><time>2026-05-02T13:49:38Z</time></trkpt><trkpt lat="50.3737039299304" lon="16.044746119643772"><ele>290.0</ele><time>2026-05-02T13:49:39Z</time></trkpt><trkpt lat="50.37351151359735" lon="16.044862907125765"><ele>290.6666666666667</ele><time>2026-05-02T13:49:40Z</time></trkpt><trkpt lat="50.373318700510005" lon="16.044975356897762"><ele>291.3333333333333</ele><time>2026-05-02T13:49:41Z</time></trkpt><trkpt lat="50.37312634431115" lon="16.045094640402898"><ele>292.0</ele><time>2026-05-02T13:49:42Z</time></trkpt><trkpt lat="50.372936486193296" lon="16.04521385400891"><ele>293.0</ele><time>2026-05-02T13:49:43Z</time></trkpt><trkpt lat="50.37275605629195" lon="16.04532312997548"><ele>294.0</ele><time>2026-05-02T13:49:44Z</time></trkpt><trkpt lat="50.3725766583033" lon="16.04543552275648"><ele>295.0</ele><time>2026-05-02T13:49:45Z</time></trkpt><trkpt lat="50.37239634568521" lon="16.04554647372741"><ele>295.0</ele><time>2026-05-02T13:49:46Z</time></trkpt><trkpt lat="50.37222139364506" lon="16.04565250598225"><ele>295.0</ele><time>2026-05-02T13:49:47Z</time></trkpt><trkpt lat="50.37204585115102" lon="16.04575931936158"><ele>295.0</ele><time>2026-05-02T13:49:48Z</time></trkpt><trkpt lat="50.37184680140286" lon="16.045884431520744"><ele>293.0</ele><time>2026-05-02T13:49:49Z</time></trkpt><trkpt lat="50.37165839870495" lon="16.045995867911135"><ele>291.0</ele><time>2026-05-02T13:49:50Z</time></trkpt><trkpt lat="50.37148825794017" lon="16.046098030986403"><ele>289.0</ele><time>2026-05-02T13:49:51Z</time></trkpt><trkpt lat="50.37133045442829" lon="16.046192644054546"><ele>289.0</ele><time>2026-05-02T13:49:52Z</time></trkpt><trkpt lat="50.37117608029468" lon="16.04628814273835"><ele>289.0</ele><time>2026-05-02T13:49:53Z</time></trkpt><trkpt lat="50.371026051169466" lon="16.046382547032398"><ele>289.0</ele><time>2026-05-02T13:49:54Z</time></trkpt><trkpt lat="50.3708835588874" lon="16.04647258503162"><ele>289.0</ele><time>2026-05-02T13:49:55Z</time></trkpt><trkpt lat="50.37073335517311" lon="16.04656726976386"><ele>289.0</ele><time>2026-05-02T13:49:56Z</time></trkpt><trkpt lat="50.37057310419344" lon="16.04664076478285"><ele>289.0</ele><time>2026-05-02T13:49:57Z</time></trkpt><trkpt lat="50.37039047454428" lon="16.046752327342652"><ele>289.3333333333333</ele><time>2026-05-02T13:49:58Z</time></trkpt><trkpt lat="50.37023492111577" lon="16.04684748767079"><ele>289.6666666666667</ele><time>2026-05-02T13:49:59Z</time></trkpt><trkpt lat="50.370076939488555" lon="16.04694407455376"><ele>290.0</ele><time>2026-05-02T13:50:00Z</time></trkpt><trkpt lat="50.369889795859436" lon="16.047058112549713"><ele>289.0</ele><time>2026-05-02T13:50:01Z</time></trkpt><trkpt lat="50.36966075102179" lon="16.04719765900036"><ele>288.0</ele><time>2026-05-02T13:50:02Z</time></trkpt><trkpt lat="50.36939273035923" lon="16.04735875165823"><ele>287.0</ele><time>2026-05-02T13:50:03Z</time></trkpt><trkpt lat="50.36913008634084" lon="16.047541856665113"><ele>286.0</ele><time>2026-05-02T13:50:04Z</time></trkpt><trkpt lat="50.36889931791658" lon="16.047680523662265"><ele>285.5</ele><time>2026-05-02T13:50:05Z</time></trkpt><trkpt lat="50.3686834309115" lon="16.047828896548463"><ele>285.0</ele><time>2026-05-02T13:50:06Z</time></trkpt><trkpt lat="50.36846373495823" lon="16.047963064733036"><ele>285.0</ele><time>2026-05-02T13:50:07Z</time></trkpt><trkpt lat="50.36826718290869" lon="16.048153309929543"><ele>285.0</ele><time>2026-05-02T13:50:08Z</time></trkpt><trkpt lat="50.36808607953531" lon="16.0483197938147"><ele>285.0</ele><time>2026-05-02T13:50:09Z</time></trkpt><trkpt lat="50.36791745358815" lon="16.04849628726814"><ele>285.3333333333333</ele><time>2026-05-02T13:50:10Z</time></trkpt><trkpt lat="50.36775677880949" lon="16.04869072129187"><ele>285.66666666666663</ele><time>2026-05-02T13:50:11Z</time></trkpt><trkpt lat="50.367592145156586" lon="16.048899113421147"><ele>286.0</ele><time>2026-05-02T13:50:12Z</time></trkpt><trkpt lat="50.367453173474885" lon="16.049097772114486"><ele>286.3333333333333</ele><time>2026-05-02T13:50:13Z</time></trkpt><trkpt lat="50.36732478445948" lon="16.049291196911092"><ele>286.6666666666667</ele><time>2026-05-02T13:50:14Z</time></trkpt><trkpt lat="50.36720868108055" lon="16.049476214101812"><ele>287.0</ele><time>2026-05-02T13:50:15Z</time></trkpt><trkpt lat="50.36710473901892" lon="16.04966222138753"><ele>287.33333333333337</ele><time>2026-05-02T13:50:16Z</time></trkpt><trkpt lat="50.367005932499744" lon="16.04984765882003"><ele>287.6666666666667</ele><time>2026-05-02T13:50:17Z</time></trkpt><trkpt lat="50.366905770222594" lon="16.05004946250305"><ele>288.0</ele><time>2026-05-02T13:50:18Z</time></trkpt><trkpt lat="50.366808779005396" lon="16.050268171514784"><ele>288.0</ele><time>2026-05-02T13:50:19Z</time></trkpt><trkpt lat="50.36671515153289" lon="16.0505009259396"><ele>288.0</ele><time>2026-05-02T13:50:20Z</time></trkpt><trkpt lat="50.366627131342064" lon="16.0507440712023"><ele>288.0</ele><time>2026-05-02T13:50:21Z</time></trkpt><trkpt lat="50.36653258219966" lon="16.050962530912173"><ele>287.3333333333333</ele><time>2026-05-02T13:50:22Z</time></trkpt><trkpt lat="50.36647019810037" lon="16.051214241244402"><ele>286.66666666666663</ele><time>2026-05-02T13:50:23Z</time></trkpt><trkpt lat="50.36639691028054" lon="16.051480970935575"><ele>286.0</ele><time>2026-05-02T13:50:24Z</time></trkpt><trkpt lat="50.36630149544157" lon="16.051760791421305"><ele>285.66666666666663</ele><time>2026-05-02T13:50:25Z</time></trkpt><trkpt lat="50.366223126466515" lon="16.052055055240345"><ele>285.3333333333333</ele><time>2026-05-02T13:50:26Z</time></trkpt><trkpt lat="50.366147609847175" lon="16.052335940366838"><ele>285.0</ele><time>2026-05-02T13:50:27Z</time></trkpt><trkpt lat="50.36608583995782" lon="16.052624313779745"><ele>284.6666666666667</ele><time>2026-05-02T13:50:28Z</time></trkpt><trkpt lat="50.36601209826843" lon="16.0528999910364"><ele>284.33333333333337</ele><time>2026-05-02T13:50:29Z</time></trkpt><trkpt lat="50.365944103723905" lon="16.053152450796667"><ele>284.0</ele><time>2026-05-02T13:50:30Z</time></trkpt><trkpt lat="50.36587648625851" lon="16.053396058377572"><ele>284.0</ele><time>2026-05-02T13:50:31Z</time></trkpt><trkpt lat="50.36581085620413" lon="16.05364307244598"><ele>284.0</ele><time>2026-05-02T13:50:32Z</time></trkpt><trkpt lat="50.36572595591106" lon="16.05389478044746"><ele>284.0</ele><time>2026-05-02T13:50:33Z</time></trkpt><trkpt lat="50.365652616977556" lon="16.05417045713695"><ele>284.5</ele><time>2026-05-02T13:50:34Z</time></trkpt><trkpt lat="50.365573978878736" lon="16.054468718791355"><ele>285.0</ele><time>2026-05-02T13:50:35Z</time></trkpt><trkpt lat="50.36547661472527" lon="16.054835095426863"><ele>284.5</ele><time>2026-05-02T13:50:36Z</time></trkpt><trkpt lat="50.36536886803769" lon="16.055241611681875"><ele>284.0</ele><time>2026-05-02T13:50:37Z</time></trkpt><trkpt lat="50.3652491040577" lon="16.055693872964742"><ele>284.0</ele><time>2026-05-02T13:50:38Z</time></trkpt><trkpt lat="50.36512696674989" lon="16.056150529587573"><ele>284.0</ele><time>2026-05-02T13:50:39Z</time></trkpt><trkpt lat="50.36500531773047" lon="16.056579684947252"><ele>283.5</ele><time>2026-05-02T13:50:40Z</time></trkpt><trkpt lat="50.364883490906415" lon="16.057023686824248"><ele>283.0</ele><time>2026-05-02T13:50:41Z</time></trkpt><trkpt lat="50.36478119071741" lon="16.057408964599666"><ele>284.0</ele><time>2026-05-02T13:50:42Z</time></trkpt><trkpt lat="50.36468809790697" lon="16.05775768199522"><ele>285.0</ele><time>2026-05-02T13:50:43Z</time></trkpt><trkpt lat="50.364597813007144" lon="16.05809660109305"><ele>285.0</ele><time>2026-05-02T13:50:44Z</time></trkpt><trkpt lat="50.3645189249511" lon="16.058454339962932"><ele>285.0</ele><time>2026-05-02T13:50:45Z</time></trkpt><trkpt lat="50.36444472541045" lon="16.058718436124735"><ele>285.0</ele><time>2026-05-02T13:50:46Z</time></trkpt><trkpt lat="50.36438018589065" lon="16.05896332218361"><ele>285.0</ele><time>2026-05-02T13:50:47Z</time></trkpt><trkpt lat="50.36431374117179" lon="16.059185621966375"><ele>285.0</ele><time>2026-05-02T13:50:48Z</time></trkpt><trkpt lat="50.36426091220849" lon="16.0593835925253"><ele>285.0</ele><time>2026-05-02T13:50:49Z</time></trkpt><trkpt lat="50.36421171972775" lon="16.059577940129962"><ele>285.0</ele><time>2026-05-02T13:50:50Z</time></trkpt><trkpt lat="50.36415861017826" lon="16.059771315316997"><ele>285.25</ele><time>2026-05-02T13:50:51Z</time></trkpt><trkpt lat="50.36409718535118" lon="16.059985739925224"><ele>285.5</ele><time>2026-05-02T13:50:52Z</time></trkpt><trkpt lat="50.364033159880044" lon="16.060212277276232"><ele>285.75</ele><time>2026-05-02T13:50:53Z</time></trkpt><trkpt lat="50.36395939628704" lon="16.060384077443"><ele>286.0</ele><time>2026-05-02T13:50:54Z</time></trkpt><trkpt lat="50.36391578955659" lon="16.06057027898335"><ele>285.5</ele><time>2026-05-02T13:50:55Z</time></trkpt><trkpt lat="50.36383592402231" lon="16.060722625713716"><ele>285.0</ele><time>2026-05-02T13:50:56Z</time></trkpt><trkpt lat="50.36376028310381" lon="16.060894242952227"><ele>284.5</ele><time>2026-05-02T13:50:57Z</time></trkpt><trkpt lat="50.36367539724626" lon="16.061054809256618"><ele>284.0</ele><time>2026-05-02T13:50:58Z</time></trkpt><trkpt lat="50.36357978758129" lon="16.061201891152916"><ele>284.0</ele><time>2026-05-02T13:50:59Z</time></trkpt><trkpt lat="50.363486259970166" lon="16.061361750624055"><ele>284.0</ele><time>2026-05-02T13:51:00Z</time></trkpt><trkpt lat="50.36335625337816" lon="16.061455786974864"><ele>284.0</ele><time>2026-05-02T13:51:01Z</time></trkpt><trkpt lat="50.363229513174346" lon="16.061553951409294"><ele>284.0</ele><time>2026-05-02T13:51:02Z</time></trkpt><trkpt lat="50.36311095181848" lon="16.061664822049075"><ele>282.6666666666667</ele><time>2026-05-02T13:51:03Z</time></trkpt><trkpt lat="50.36298103207196" lon="16.061741923660485"><ele>281.3333333333333</ele><time>2026-05-02T13:51:04Z</time></trkpt><trkpt lat="50.362831416128074" lon="16.06180276885442"><ele>280.0</ele><time>2026-05-02T13:51:05Z</time></trkpt><trkpt lat="50.36267321808478" lon="16.061847677621166"><ele>280.0</ele><time>2026-05-02T13:51:06Z</time></trkpt><trkpt lat="50.3624953694279" lon="16.0618490913358"><ele>280.0</ele><time>2026-05-02T13:51:07Z</time></trkpt><trkpt lat="50.36232069128798" lon="16.061848587986116"><ele>280.0</ele><time>2026-05-02T13:51:08Z</time></trkpt><trkpt lat="50.362147672329996" lon="16.06185766491868"><ele>278.0</ele><time>2026-05-02T13:51:09Z</time></trkpt><trkpt lat="50.36197660714908" lon="16.061872081050947"><ele>276.0</ele><time>2026-05-02T13:51:10Z</time></trkpt><trkpt lat="50.3618063793046" lon="16.06188687258703"><ele>274.0</ele><time>2026-05-02T13:51:11Z</time></trkpt><trkpt lat="50.36164566313604" lon="16.061903171596924"><ele>274.0</ele><time>2026-05-02T13:51:12Z</time></trkpt><trkpt lat="50.361500148869816" lon="16.06191867484484"><ele>274.0</ele><time>2026-05-02T13:51:13Z</time></trkpt><trkpt lat="50.36135876482752" lon="16.061930743708096"><ele>274.0</ele><time>2026-05-02T13:51:14Z</time></trkpt><trkpt lat="50.36121651942733" lon="16.06194591890498"><ele>274.0</ele><time>2026-05-02T13:51:15Z</time></trkpt><trkpt lat="50.36106762557954" lon="16.061958403745386"><ele>274.66666666666663</ele><time>2026-05-02T13:51:16Z</time></trkpt><trkpt lat="50.36091634620411" lon="16.061969885176236"><ele>275.3333333333333</ele><time>2026-05-02T13:51:17Z</time></trkpt><trkpt lat="50.36076652901603" lon="16.06198279391025"><ele>276.0</ele><time>2026-05-02T13:51:18Z</time></trkpt><trkpt lat="50.360610877098665" lon="16.06200062660076"><ele>276.6666666666667</ele><time>2026-05-02T13:51:19Z</time></trkpt><trkpt lat="50.36045289778522" lon="16.062014506382546"><ele>277.33333333333337</ele><time>2026-05-02T13:51:20Z</time></trkpt><trkpt lat="50.36027915959816" lon="16.06203110865607"><ele>278.0</ele><time>2026-05-02T13:51:21Z</time></trkpt><trkpt lat="50.36007992817194" lon="16.062053676026398"><ele>278.0</ele><time>2026-05-02T13:51:22Z</time></trkpt><trkpt lat="50.35987188969185" lon="16.062066500278167"><ele>278.0</ele><time>2026-05-02T13:51:23Z</time></trkpt><trkpt lat="50.35966121723428" lon="16.062087691922162"><ele>278.0</ele><time>2026-05-02T13:51:24Z</time></trkpt><trkpt lat="50.35946925754956" lon="16.062141361902267"><ele>279.0</ele><time>2026-05-02T13:51:25Z</time></trkpt><trkpt lat="50.35929407231162" lon="16.06220308062995"><ele>280.0</ele><time>2026-05-02T13:51:26Z</time></trkpt><trkpt lat="50.3591233289297" lon="16.062280750959534"><ele>281.0</ele><time>2026-05-02T13:51:27Z</time></trkpt><trkpt lat="50.358955613834084" lon="16.06237053351199"><ele>282.33333333333337</ele><time>2026-05-02T13:51:28Z</time></trkpt><trkpt lat="50.358791330593135" lon="16.06247262891645"><ele>283.6666666666667</ele><time>2026-05-02T13:51:29Z</time></trkpt><trkpt lat="50.358635022387816" lon="16.062589444241702"><ele>285.0</ele><time>2026-05-02T13:51:30Z</time></trkpt><trkpt lat="50.35848826896436" lon="16.062729041444275"><ele>285.0</ele><time>2026-05-02T13:51:31Z</time></trkpt><trkpt lat="50.35835881024896" lon="16.062865287500255"><ele>285.0</ele><time>2026-05-02T13:51:32Z</time></trkpt><trkpt lat="50.35824440280183" lon="16.062995173386586"><ele>285.0</ele><time>2026-05-02T13:51:33Z</time></trkpt><trkpt lat="50.358126843959475" lon="16.06315624382682"><ele>284.6666666666667</ele><time>2026-05-02T13:51:34Z</time></trkpt><trkpt lat="50.35801420104859" lon="16.063345281824642"><ele>284.33333333333337</ele><time>2026-05-02T13:51:35Z</time></trkpt><trkpt lat="50.35788760349087" lon="16.063563088352147"><ele>284.0</ele><time>2026-05-02T13:51:36Z</time></trkpt><trkpt lat="50.35776947742796" lon="16.063792818848825"><ele>284.0</ele><time>2026-05-02T13:51:37Z</time></trkpt><trkpt lat="50.35766332904805" lon="16.064043198658386"><ele>284.0</ele><time>2026-05-02T13:51:38Z</time></trkpt><trkpt lat="50.357566155484854" lon="16.064312285402085"><ele>284.0</ele><time>2026-05-02T13:51:39Z</time></trkpt><trkpt lat="50.35747947154038" lon="16.06458966734596"><ele>284.33333333333337</ele><time>2026-05-02T13:51:40Z</time></trkpt><trkpt lat="50.357407685815595" lon="16.064876765236097"><ele>284.6666666666667</ele><time>2026-05-02T13:51:41Z</time></trkpt><trkpt lat="50.357357779119596" lon="16.06517412798535"><ele>285.0</ele><time>2026-05-02T13:51:42Z</time></trkpt><trkpt lat="50.3573128592307" lon="16.065508801852562"><ele>285.0</ele><time>2026-05-02T13:51:43Z</time></trkpt><trkpt lat="50.35727394752959" lon="16.06591567164575"><ele>285.0</ele><time>2026-05-02T13:51:44Z</time></trkpt><trkpt lat="50.357232762752545" lon="16.06636802947926"><ele>285.0</ele><time>2026-05-02T13:51:45Z</time></trkpt><trkpt lat="50.357180752859826" lon="16.06684815613534"><ele>285.0</ele><time>2026-05-02T13:51:46Z</time></trkpt><trkpt lat="50.3571300525974" lon="16.067272352469086"><ele>285.5</ele><time>2026-05-02T13:51:47Z</time></trkpt><trkpt lat="50.35709113989601" lon="16.06765387174394"><ele>286.0</ele><time>2026-05-02T13:51:48Z</time></trkpt><trkpt lat="50.35705681470849" lon="16.068019963748227"><ele>286.3333333333333</ele><time>2026-05-02T13:51:49Z</time></trkpt><trkpt lat="50.35702847754612" lon="16.06836948813773"><ele>286.6666666666667</ele><time>2026-05-02T13:51:50Z</time></trkpt><trkpt lat="50.3570006780425" lon="16.06870566895521"><ele>287.0</ele><time>2026-05-02T13:51:51Z</time></trkpt><trkpt lat="50.35697172402866" lon="16.069062677631628"><ele>287.5</ele><time>2026-05-02T13:51:52Z</time></trkpt><trkpt lat="50.356933714692765" lon="16.069467811058885"><ele>288.0</ele><time>2026-05-02T13:51:53Z</time></trkpt><trkpt lat="50.35689185205342" lon="16.06992315360553"><ele>288.0</ele><time>2026-05-02T13:51:54Z</time></trkpt><trkpt lat="50.35685393602024" lon="16.07039407444509"><ele>288.0</ele><time>2026-05-02T13:51:55Z</time></trkpt><trkpt lat="50.356807058879724" lon="16.07088422027276"><ele>288.0</ele><time>2026-05-02T13:51:56Z</time></trkpt><trkpt lat="50.35674885407703" lon="16.07135990729215"><ele>288.0</ele><time>2026-05-02T13:51:57Z</time></trkpt><trkpt lat="50.356695124825464" lon="16.071803100778958"><ele>288.0</ele><time>2026-05-02T13:51:58Z</time></trkpt><trkpt lat="50.356651346021444" lon="16.07224845700962"><ele>288.0</ele><time>2026-05-02T13:51:59Z</time></trkpt><trkpt lat="50.35660782764871" lon="16.07270097689272"><ele>288.5</ele><time>2026-05-02T13:52:00Z</time></trkpt><trkpt lat="50.35656100125573" lon="16.073156447815673"><ele>289.0</ele><time>2026-05-02T13:52:01Z</time></trkpt><trkpt lat="50.35651496381889" lon="16.073608168661206"><ele>289.0</ele><time>2026-05-02T13:52:02Z</time></trkpt><trkpt lat="50.35647017101515" lon="16.07406280388445"><ele>289.0</ele><time>2026-05-02T13:52:03Z</time></trkpt><trkpt lat="50.35642719667659" lon="16.074514176733004"><ele>289.0</ele><time>2026-05-02T13:52:04Z</time></trkpt><trkpt lat="50.356385339911284" lon="16.07494973319541"><ele>289.0</ele><time>2026-05-02T13:52:05Z</time></trkpt><trkpt lat="50.35634011359539" lon="16.07537435538765"><ele>289.5</ele><time>2026-05-02T13:52:06Z</time></trkpt><trkpt lat="50.3562970007333" lon="16.0758021441106"><ele>290.0</ele><time>2026-05-02T13:52:07Z</time></trkpt><trkpt lat="50.356253920610236" lon="16.076242916884322"><ele>290.0</ele><time>2026-05-02T13:52:08Z</time></trkpt><trkpt lat="50.35621285669027" lon="16.076688502119424"><ele>290.0</ele><time>2026-05-02T13:52:09Z</time></trkpt><trkpt lat="50.35616843857861" lon="16.077153150421886"><ele>290.5</ele><time>2026-05-02T13:52:10Z</time></trkpt><trkpt lat="50.356124429165554" lon="16.077616139089624"><ele>291.0</ele><time>2026-05-02T13:52:11Z</time></trkpt><trkpt lat="50.35608185398667" lon="16.078076739932044"><ele>291.0</ele><time>2026-05-02T13:52:12Z</time></trkpt><trkpt lat="50.35603838860422" lon="16.078511536485728"><ele>291.0</ele><time>2026-05-02T13:52:13Z</time></trkpt><trkpt lat="50.35599776797964" lon="16.07891517129767"><ele>290.5</ele><time>2026-05-02T13:52:14Z</time></trkpt><trkpt lat="50.355958419949815" lon="16.079295221611403"><ele>290.0</ele><time>2026-05-02T13:52:15Z</time></trkpt><trkpt lat="50.35592297846725" lon="16.079651476343994"><ele>290.0</ele><time>2026-05-02T13:52:16Z</time></trkpt><trkpt lat="50.35588887063594" lon="16.08000549436762"><ele>290.0</ele><time>2026-05-02T13:52:17Z</time></trkpt><trkpt lat="50.35585606788081" lon="16.080359236467068"><ele>290.0</ele><time>2026-05-02T13:52:18Z</time></trkpt><trkpt lat="50.35582221547272" lon="16.080719588974404"><ele>290.0</ele><time>2026-05-02T13:52:19Z</time></trkpt><trkpt lat="50.355787022704796" lon="16.0810949423165"><ele>290.0</ele><time>2026-05-02T13:52:20Z</time></trkpt><trkpt lat="50.355750634543526" lon="16.081473013246935"><ele>290.0</ele><time>2026-05-02T13:52:21Z</time></trkpt><trkpt lat="50.35571177128785" lon="16.08185962973761"><ele>290.5</ele><time>2026-05-02T13:52:22Z</time></trkpt><trkpt lat="50.355673651545" lon="16.082249819858003"><ele>291.0</ele><time>2026-05-02T13:52:23Z</time></trkpt><trkpt lat="50.35563443928813" lon="16.082643468696894"><ele>291.5</ele><time>2026-05-02T13:52:24Z</time></trkpt><trkpt lat="50.35559592223083" lon="16.083041149554198"><ele>292.0</ele><time>2026-05-02T13:52:25Z</time></trkpt><trkpt lat="50.35555821019075" lon="16.083441695861687"><ele>292.0</ele><time>2026-05-02T13:52:26Z</time></trkpt><trkpt lat="50.35552467992753" lon="16.083844461765658"><ele>292.0</ele><time>2026-05-02T13:52:27Z</time></trkpt><trkpt lat="50.355498534402145" lon="16.084230678429705"><ele>292.3333333333333</ele><time>2026-05-02T13:52:28Z</time></trkpt><trkpt lat="50.355478213556246" lon="16.084578609844684"><ele>292.6666666666667</ele><time>2026-05-02T13:52:29Z</time></trkpt><trkpt lat="50.355463332213255" lon="16.084906158623404"><ele>293.0</ele><time>2026-05-02T13:52:30Z</time></trkpt><trkpt lat="50.355451874065906" lon="16.085234700656816"><ele>293.0</ele><time>2026-05-02T13:52:31Z</time></trkpt><trkpt lat="50.355438261494754" lon="16.08557441699532"><ele>293.0</ele><time>2026-05-02T13:52:32Z</time></trkpt><trkpt lat="50.35542627801522" lon="16.085924209956993"><ele>293.0</ele><time>2026-05-02T13:52:33Z</time></trkpt><trkpt lat="50.3554232654565" lon="16.08628126500952"><ele>293.0</ele><time>2026-05-02T13:52:34Z</time></trkpt><trkpt lat="50.35540274915964" lon="16.086631151590936"><ele>293.0</ele><time>2026-05-02T13:52:35Z</time></trkpt><trkpt lat="50.35539564973022" lon="16.0869908100807"><ele>293.0</ele><time>2026-05-02T13:52:36Z</time></trkpt><trkpt lat="50.35539558862232" lon="16.087368284695092"><ele>293.0</ele><time>2026-05-02T13:52:37Z</time></trkpt><trkpt lat="50.355400080434116" lon="16.08774135578849"><ele>293.0</ele><time>2026-05-02T13:52:38Z</time></trkpt><trkpt lat="50.355417465697045" lon="16.088119454647885"><ele>293.0</ele><time>2026-05-02T13:52:39Z</time></trkpt><trkpt lat="50.35542640581832" lon="16.088503019966808"><ele>293.0</ele><time>2026-05-02T13:52:40Z</time></trkpt><trkpt lat="50.35543962005069" lon="16.088862745654442"><ele>293.0</ele><time>2026-05-02T13:52:41Z</time></trkpt><trkpt lat="50.355454944875596" lon="16.08919324081304"><ele>293.0</ele><time>2026-05-02T13:52:42Z</time></trkpt><trkpt lat="50.35547070448148" lon="16.089501428546402"><ele>293.0</ele><time>2026-05-02T13:52:43Z</time></trkpt><trkpt lat="50.35548708700299" lon="16.089799333924198"><ele>293.0</ele><time>2026-05-02T13:52:44Z</time></trkpt><trkpt lat="50.35550518503593" lon="16.09009178345383"><ele>293.0</ele><time>2026-05-02T13:52:45Z</time></trkpt><trkpt lat="50.35552677346071" lon="16.0903502350082"><ele>293.25</ele><time>2026-05-02T13:52:46Z</time></trkpt><trkpt lat="50.35554578981543" lon="16.090564280751128"><ele>293.5</ele><time>2026-05-02T13:52:47Z</time></trkpt><trkpt lat="50.3555649007392" lon="16.090760943775766"><ele>293.75</ele><time>2026-05-02T13:52:48Z</time></trkpt><trkpt lat="50.35558357219762" lon="16.09093118095247"><ele>294.0</ele><time>2026-05-02T13:52:49Z</time></trkpt><trkpt lat="50.355597488775" lon="16.091073940007956"><ele>294.0</ele><time>2026-05-02T13:52:50Z</time></trkpt><trkpt lat="50.35560762764503" lon="16.091193832835444"><ele>294.0</ele><time>2026-05-02T13:52:51Z</time></trkpt><trkpt lat="50.355604528587925" lon="16.091383964170433"><ele>294.0</ele><time>2026-05-02T13:52:53Z</time></trkpt><trkpt lat="50.35559510423013" lon="16.09150069111622"><ele>294.0</ele><time>2026-05-02T13:52:54Z</time></trkpt><trkpt lat="50.35559749351421" lon="16.091646166497167"><ele>294.0</ele><time>2026-05-02T13:52:55Z</time></trkpt><trkpt lat="50.35563002587445" lon="16.091822476592142"><ele>294.0</ele><time>2026-05-02T13:52:56Z</time></trkpt><trkpt lat="50.355675230347906" lon="16.092020732813975"><ele>294.0</ele><time>2026-05-02T13:52:57Z</time></trkpt><trkpt lat="50.35571946862494" lon="16.09229315373031"><ele>294.0</ele><time>2026-05-02T13:52:58Z</time></trkpt><trkpt lat="50.35575684460766" lon="16.092619405355457"><ele>294.0</ele><time>2026-05-02T13:52:59Z</time></trkpt><trkpt lat="50.35579645323577" lon="16.092970350181652"><ele>294.0</ele><time>2026-05-02T13:53:00Z</time></trkpt><trkpt lat="50.355841317275214" lon="16.093353396971917"><ele>294.5</ele><time>2026-05-02T13:53:01Z</time></trkpt><trkpt lat="50.35588237029401" lon="16.093766909579482"><ele>295.0</ele><time>2026-05-02T13:53:02Z</time></trkpt><trkpt lat="50.35594771643093" lon="16.09420023652263"><ele>295.0</ele><time>2026-05-02T13:53:03Z</time></trkpt><trkpt lat="50.35600069077651" lon="16.094670363239715"><ele>295.0</ele><time>2026-05-02T13:53:04Z</time></trkpt><trkpt lat="50.35606019540154" lon="16.095173220520365"><ele>295.0</ele><time>2026-05-02T13:53:05Z</time></trkpt><trkpt lat="50.356122008654374" lon="16.0956906766286"><ele>295.0</ele><time>2026-05-02T13:53:06Z</time></trkpt><trkpt lat="50.35618350442491" lon="16.09618680572016"><ele>296.0</ele><time>2026-05-02T13:53:07Z</time></trkpt><trkpt lat="50.35624564977983" lon="16.096660218334154"><ele>297.0</ele><time>2026-05-02T13:53:08Z</time></trkpt><trkpt lat="50.35630558837956" lon="16.09713574020157"><ele>296.5</ele><time>2026-05-02T13:53:09Z</time></trkpt><trkpt lat="50.35636398297665" lon="16.097602947610493"><ele>296.0</ele><time>2026-05-02T13:53:10Z</time></trkpt><trkpt lat="50.35641566178817" lon="16.098057103211218"><ele>296.0</ele><time>2026-05-02T13:53:11Z</time></trkpt><trkpt lat="50.356464989989945" lon="16.098479646674665"><ele>296.0</ele><time>2026-05-02T13:53:12Z</time></trkpt><trkpt lat="50.356514601137405" lon="16.098879677902847"><ele>296.5</ele><time>2026-05-02T13:53:13Z</time></trkpt><trkpt lat="50.35656267872287" lon="16.099268947184086"><ele>297.0</ele><time>2026-05-02T13:53:14Z</time></trkpt><trkpt lat="50.35660805169662" lon="16.09964737077502"><ele>297.0</ele><time>2026-05-02T13:53:15Z</time></trkpt><trkpt lat="50.35665495735706" lon="16.100010233095038"><ele>297.0</ele><time>2026-05-02T13:53:16Z</time></trkpt><trkpt lat="50.35670266371431" lon="16.10034121730026"><ele>297.0</ele><time>2026-05-02T13:53:17Z</time></trkpt><trkpt lat="50.35674533467147" lon="16.100660044243313"><ele>297.0</ele><time>2026-05-02T13:53:18Z</time></trkpt><trkpt lat="50.35679141571424" lon="16.100998665049897"><ele>297.0</ele><time>2026-05-02T13:53:19Z</time></trkpt><trkpt lat="50.35684663485493" lon="16.101359789928892"><ele>297.0</ele><time>2026-05-02T13:53:20Z</time></trkpt><trkpt lat="50.356900717657815" lon="16.101732723541133"><ele>297.0</ele><time>2026-05-02T13:53:21Z</time></trkpt><trkpt lat="50.35694755747009" lon="16.102082266095398"><ele>296.5</ele><time>2026-05-02T13:53:22Z</time></trkpt><trkpt lat="50.35699690017679" lon="16.10244220349968"><ele>296.0</ele><time>2026-05-02T13:53:23Z</time></trkpt><trkpt lat="50.3570496192268" lon="16.10281119866987"><ele>296.0</ele><time>2026-05-02T13:53:24Z</time></trkpt><trkpt lat="50.357101231644045" lon="16.103169766392806"><ele>296.0</ele><time>2026-05-02T13:53:25Z</time></trkpt><trkpt lat="50.357146272564464" lon="16.10351623471934"><ele>296.0</ele><time>2026-05-02T13:53:26Z</time></trkpt><trkpt lat="50.35718602205089" lon="16.103843425517386"><ele>296.0</ele><time>2026-05-02T13:53:27Z</time></trkpt><trkpt lat="50.35722316333009" lon="16.104149170235534"><ele>296.0</ele><time>2026-05-02T13:53:28Z</time></trkpt><trkpt lat="50.35726034645612" lon="16.104464640134967"><ele>296.0</ele><time>2026-05-02T13:53:29Z</time></trkpt><trkpt lat="50.35729537398327" lon="16.10478163362544"><ele>296.0</ele><time>2026-05-02T13:53:30Z</time></trkpt><trkpt lat="50.357324997171794" lon="16.10509429530636"><ele>296.0</ele><time>2026-05-02T13:53:31Z</time></trkpt><trkpt lat="50.35734966307227" lon="16.105406846819097"><ele>296.0</ele><time>2026-05-02T13:53:32Z</time></trkpt><trkpt lat="50.35737110650586" lon="16.105718413226786"><ele>296.0</ele><time>2026-05-02T13:53:33Z</time></trkpt><trkpt lat="50.357395986431776" lon="16.106025430826854"><ele>296.0</ele><time>2026-05-02T13:53:34Z</time></trkpt><trkpt lat="50.35741410035529" lon="16.106331569494436"><ele>296.33333333333337</ele><time>2026-05-02T13:53:35Z</time></trkpt><trkpt lat="50.35741032724612" lon="16.1066388808472"><ele>296.6666666666667</ele><time>2026-05-02T13:53:36Z</time></trkpt><trkpt lat="50.357387762397934" lon="16.10693827500712"><ele>297.0</ele><time>2026-05-02T13:53:37Z</time></trkpt><trkpt lat="50.357343386418" lon="16.107246470353246"><ele>297.0</ele><time>2026-05-02T13:53:38Z</time></trkpt><trkpt lat="50.35728413606968" lon="16.107561510914024"><ele>297.0</ele><time>2026-05-02T13:53:39Z</time></trkpt><trkpt lat="50.35720903254344" lon="16.107925317851212"><ele>297.0</ele><time>2026-05-02T13:53:40Z</time></trkpt><trkpt lat="50.35712043747781" lon="16.108332041608342"><ele>297.0</ele><time>2026-05-02T13:53:41Z</time></trkpt><trkpt lat="50.35700843764551" lon="16.10877072378355"><ele>297.5</ele><time>2026-05-02T13:53:42Z</time></trkpt><trkpt lat="50.35688014635766" lon="16.109243185940237"><ele>298.0</ele><time>2026-05-02T13:53:43Z</time></trkpt><trkpt lat="50.356757903006525" lon="16.10975272464307"><ele>298.0</ele><time>2026-05-02T13:53:44Z</time></trkpt><trkpt lat="50.35663235365005" lon="16.11029019675593"><ele>298.0</ele><time>2026-05-02T13:53:45Z</time></trkpt><trkpt lat="50.356504139194406" lon="16.110857317585165"><ele>298.0</ele><time>2026-05-02T13:53:46Z</time></trkpt><trkpt lat="50.3563821836377" lon="16.11143975788608"><ele>298.0</ele><time>2026-05-02T13:53:47Z</time></trkpt><trkpt lat="50.35627595200622" lon="16.11196858021857"><ele>298.0</ele><time>2026-05-02T13:53:48Z</time></trkpt><trkpt lat="50.35617259609065" lon="16.112487564167523"><ele>298.0</ele><time>2026-05-02T13:53:49Z</time></trkpt><trkpt lat="50.35606783597506" lon="16.112999760516608"><ele>297.5</ele><time>2026-05-02T13:53:50Z</time></trkpt><trkpt lat="50.35596862815483" lon="16.113486069827157"><ele>297.0</ele><time>2026-05-02T13:53:51Z</time></trkpt><trkpt lat="50.355879131612575" lon="16.11393583083947"><ele>297.0</ele><time>2026-05-02T13:53:52Z</time></trkpt><trkpt lat="50.35579284963022" lon="16.11435700735602"><ele>297.0</ele><time>2026-05-02T13:53:53Z</time></trkpt><trkpt lat="50.355708590758695" lon="16.114744763851885"><ele>297.5</ele><time>2026-05-02T13:53:54Z</time></trkpt><trkpt lat="50.35562682138241" lon="16.115103833074222"><ele>298.0</ele><time>2026-05-02T13:53:55Z</time></trkpt><trkpt lat="50.35554782164539" lon="16.115442503073357"><ele>299.0</ele><time>2026-05-02T13:53:56Z</time></trkpt><trkpt lat="50.35547205769565" lon="16.11575464694859"><ele>300.0</ele><time>2026-05-02T13:53:57Z</time></trkpt><trkpt lat="50.35540323786513" lon="16.116053682301622"><ele>301.0</ele><time>2026-05-02T13:53:58Z</time></trkpt><trkpt lat="50.35533453446226" lon="16.116355734643466"><ele>301.3333333333333</ele><time>2026-05-02T13:53:59Z</time></trkpt><trkpt lat="50.35526538618001" lon="16.116670849379595"><ele>301.6666666666667</ele><time>2026-05-02T13:54:00Z</time></trkpt><trkpt lat="50.35518521769963" lon="16.117004402692547"><ele>302.0</ele><time>2026-05-02T13:54:01Z</time></trkpt><trkpt lat="50.355147800386725" lon="16.11737327550215"><ele>303.0</ele><time>2026-05-02T13:54:02Z</time></trkpt><trkpt lat="50.355105385563306" lon="16.117753049749957"><ele>304.0</ele><time>2026-05-02T13:54:03Z</time></trkpt><trkpt lat="50.35507298785748" lon="16.118129011029538"><ele>304.66666666666663</ele><time>2026-05-02T13:54:04Z</time></trkpt><trkpt lat="50.35502688214219" lon="16.118471997591982"><ele>305.3333333333333</ele><time>2026-05-02T13:54:05Z</time></trkpt><trkpt lat="50.354998008768895" lon="16.11880112948397"><ele>306.0</ele><time>2026-05-02T13:54:06Z</time></trkpt><trkpt lat="50.354987796169986" lon="16.119113179327563"><ele>306.0</ele><time>2026-05-02T13:54:07Z</time></trkpt><trkpt lat="50.354954782752316" lon="16.11940087903653"><ele>306.0</ele><time>2026-05-02T13:54:08Z</time></trkpt><trkpt lat="50.354913146877195" lon="16.119665589309584"><ele>306.0</ele><time>2026-05-02T13:54:09Z</time></trkpt><trkpt lat="50.35486688860335" lon="16.11990731545266"><ele>306.0</ele><time>2026-05-02T13:54:10Z</time></trkpt><trkpt lat="50.35482184660388" lon="16.12014061113318"><ele>306.0</ele><time>2026-05-02T13:54:11Z</time></trkpt><trkpt lat="50.35478950896023" lon="16.120287687647405"><ele>306.0</ele><time>2026-05-02T13:54:12Z</time></trkpt><trkpt lat="50.3547557154099" lon="16.120453038156306"><ele>306.0</ele><time>2026-05-02T13:54:13Z</time></trkpt><trkpt lat="50.35472248621589" lon="16.120619058591593"><ele>305.0</ele><time>2026-05-02T13:54:14Z</time></trkpt><trkpt lat="50.354690195073346" lon="16.120767755412384"><ele>304.0</ele><time>2026-05-02T13:54:15Z</time></trkpt><trkpt lat="50.354659989201295" lon="16.12091253548392"><ele>303.0</ele><time>2026-05-02T13:54:16Z</time></trkpt><trkpt lat="50.35463008847204" lon="16.121052532065338"><ele>302.0</ele><time>2026-05-02T13:54:17Z</time></trkpt><trkpt lat="50.35459739574896" lon="16.121201535398345"><ele>301.0</ele><time>2026-05-02T13:54:18Z</time></trkpt><trkpt lat="50.35456181375993" lon="16.121353680004823"><ele>301.0</ele><time>2026-05-02T13:54:19Z</time></trkpt><trkpt lat="50.354503165561425" lon="16.121535852792583"><ele>301.0</ele><time>2026-05-02T13:54:20Z</time></trkpt><trkpt lat="50.35442431473475" lon="16.12174479503858"><ele>301.0</ele><time>2026-05-02T13:54:21Z</time></trkpt><trkpt lat="50.354344938073204" lon="16.12196731598001"><ele>301.0</ele><time>2026-05-02T13:54:22Z</time></trkpt><trkpt lat="50.35428119216839" lon="16.122156034963734"><ele>301.40000000000003</ele><time>2026-05-02T13:54:23Z</time></trkpt><trkpt lat="50.354227485678486" lon="16.122323945594577"><ele>301.8</ele><time>2026-05-02T13:54:24Z</time></trkpt><trkpt lat="50.35418156523114" lon="16.12247203816149"><ele>302.20000000000005</ele><time>2026-05-02T13:54:25Z</time></trkpt><trkpt lat="50.35413774522878" lon="16.122607606548517"><ele>302.6</ele><time>2026-05-02T13:54:26Z</time></trkpt><trkpt lat="50.35409457574163" lon="16.12273968491753"><ele>303.0</ele><time>2026-05-02T13:54:27Z</time></trkpt><trkpt lat="50.35404960187873" lon="16.122879036977494"><ele>303.0</ele><time>2026-05-02T13:54:28Z</time></trkpt><trkpt lat="50.35400406257567" lon="16.123028053230072"><ele>303.0</ele><time>2026-05-02T13:54:29Z</time></trkpt><trkpt lat="50.35396287910973" lon="16.123178987945266"><ele>303.0</ele><time>2026-05-02T13:54:30Z</time></trkpt><trkpt lat="50.35392818565455" lon="16.12331479138399"><ele>303.0</ele><time>2026-05-02T13:54:31Z</time></trkpt><trkpt lat="50.3538892759388" lon="16.12345709535412"><ele>303.0</ele><time>2026-05-02T13:54:32Z</time></trkpt><trkpt lat="50.35385251286381" lon="16.123616841240224"><ele>303.0</ele><time>2026-05-02T13:54:33Z</time></trkpt><trkpt lat="50.353812864404894" lon="16.123785881746176"><ele>303.0</ele><time>2026-05-02T13:54:34Z</time></trkpt><trkpt lat="50.35378065993625" lon="16.123960145642506"><ele>303.0</ele><time>2026-05-02T13:54:35Z</time></trkpt><trkpt lat="50.353744255966184" lon="16.124144788195775"><ele>303.0</ele><time>2026-05-02T13:54:36Z</time></trkpt><trkpt lat="50.35370905223665" lon="16.12432668995775"><ele>302.75</ele><time>2026-05-02T13:54:37Z</time></trkpt><trkpt lat="50.35367056265807" lon="16.124509973951007"><ele>302.5</ele><time>2026-05-02T13:54:38Z</time></trkpt><trkpt lat="50.35363226516874" lon="16.12469417003619"><ele>302.25</ele><time>2026-05-02T13:54:39Z</time></trkpt><trkpt lat="50.353579171884206" lon="16.124862228775008"><ele>302.0</ele><time>2026-05-02T13:54:40Z</time></trkpt><trkpt lat="50.35354166704987" lon="16.12503282665736"><ele>302.0</ele><time>2026-05-02T13:54:41Z</time></trkpt><trkpt lat="50.35350776100303" lon="16.125187054767114"><ele>302.0</ele><time>2026-05-02T13:54:42Z</time></trkpt><trkpt lat="50.35347584646457" lon="16.125332959119902"><ele>302.0</ele><time>2026-05-02T13:54:43Z</time></trkpt><trkpt lat="50.35344561111565" lon="16.125472437322962"><ele>302.0</ele><time>2026-05-02T13:54:44Z</time></trkpt><trkpt lat="50.353432101024374" lon="16.125613088201973"><ele>302.0</ele><time>2026-05-02T13:54:45Z</time></trkpt><trkpt lat="50.35339821353294" lon="16.12575088423374"><ele>302.25</ele><time>2026-05-02T13:54:46Z</time></trkpt><trkpt lat="50.35336394220064" lon="16.125899700121316"><ele>302.5</ele><time>2026-05-02T13:54:47Z</time></trkpt><trkpt lat="50.35333062411625" lon="16.12605721655508"><ele>302.75</ele><time>2026-05-02T13:54:48Z</time></trkpt><trkpt lat="50.353293696116566" lon="16.126222913071818"><ele>303.0</ele><time>2026-05-02T13:54:49Z</time></trkpt><trkpt lat="50.35325229739679" lon="16.126417380138875"><ele>303.0</ele><time>2026-05-02T13:54:50Z</time></trkpt><trkpt lat="50.35320162571374" lon="16.126653301890748"><ele>303.0</ele><time>2026-05-02T13:54:51Z</time></trkpt><trkpt lat="50.35315074105997" lon="16.126910614417707"><ele>303.0</ele><time>2026-05-02T13:54:52Z</time></trkpt><trkpt lat="50.353101101559275" lon="16.12715175041296"><ele>303.0</ele><time>2026-05-02T13:54:53Z</time></trkpt><trkpt lat="50.35305578196786" lon="16.127359865531922"><ele>303.0</ele><time>2026-05-02T13:54:54Z</time></trkpt><trkpt lat="50.35300944997013" lon="16.12753936881045"><ele>303.0</ele><time>2026-05-02T13:54:55Z</time></trkpt><trkpt lat="50.3529746682041" lon="16.127701160159756"><ele>303.0</ele><time>2026-05-02T13:54:56Z</time></trkpt><trkpt lat="50.35294461532408" lon="16.127852687117166"><ele>302.25</ele><time>2026-05-02T13:54:57Z</time></trkpt><trkpt lat="50.352913972286984" lon="16.12799250209261"><ele>301.5</ele><time>2026-05-02T13:54:58Z</time></trkpt><trkpt lat="50.35288236011381" lon="16.12813931811507"><ele>300.75</ele><time>2026-05-02T13:54:59Z</time></trkpt><trkpt lat="50.35282510485204" lon="16.128304059800115"><ele>300.0</ele><time>2026-05-02T13:55:00Z</time></trkpt><trkpt lat="50.35277471092252" lon="16.128503223693205"><ele>300.0</ele><time>2026-05-02T13:55:01Z</time></trkpt><trkpt lat="50.35272907039855" lon="16.128736877987667"><ele>300.0</ele><time>2026-05-02T13:55:02Z</time></trkpt><trkpt lat="50.352643145034236" lon="16.128958267693356"><ele>300.0</ele><time>2026-05-02T13:55:03Z</time></trkpt><trkpt lat="50.352581358332394" lon="16.12919732244525"><ele>300.75</ele><time>2026-05-02T13:55:04Z</time></trkpt><trkpt lat="50.352506656353896" lon="16.129404360386"><ele>301.5</ele><time>2026-05-02T13:55:05Z</time></trkpt><trkpt lat="50.352440806971146" lon="16.129595117778884"><ele>302.25</ele><time>2026-05-02T13:55:06Z</time></trkpt><trkpt lat="50.352373739457406" lon="16.12976220700433"><ele>303.0</ele><time>2026-05-02T13:55:07Z</time></trkpt><trkpt lat="50.35234292132182" lon="16.129961603084826"><ele>303.25</ele><time>2026-05-02T13:55:08Z</time></trkpt><trkpt lat="50.35231865330408" lon="16.13017283346778"><ele>303.5</ele><time>2026-05-02T13:55:09Z</time></trkpt><trkpt lat="50.3522976263381" lon="16.130380737768707"><ele>303.75</ele><time>2026-05-02T13:55:10Z</time></trkpt><trkpt lat="50.35226744102884" lon="16.130602916645643"><ele>304.0</ele><time>2026-05-02T13:55:11Z</time></trkpt><trkpt lat="50.35224542891277" lon="16.130816409057775"><ele>304.0</ele><time>2026-05-02T13:55:12Z</time></trkpt><trkpt lat="50.35222541841743" lon="16.131000239809566"><ele>304.0</ele><time>2026-05-02T13:55:13Z</time></trkpt><trkpt lat="50.35221001277723" lon="16.13118341731409"><ele>304.0</ele><time>2026-05-02T13:55:14Z</time></trkpt><trkpt lat="50.35219656616585" lon="16.131372723920474"><ele>304.0</ele><time>2026-05-02T13:55:15Z</time></trkpt><trkpt lat="50.352179269555684" lon="16.13156708425061"><ele>301.5</ele><time>2026-05-02T13:55:16Z</time></trkpt><trkpt lat="50.352160014768344" lon="16.13176762486076"><ele>299.0</ele><time>2026-05-02T13:55:17Z</time></trkpt><trkpt lat="50.35214026247804" lon="16.13197549993349"><ele>296.5</ele><time>2026-05-02T13:55:18Z</time></trkpt><trkpt lat="50.35212045467749" lon="16.13217743422434"><ele>294.0</ele><time>2026-05-02T13:55:19Z</time></trkpt><trkpt lat="50.35209964077258" lon="16.132358615268828"><ele>294.25</ele><time>2026-05-02T13:55:20Z</time></trkpt><trkpt lat="50.35207195659177" lon="16.132550854661677"><ele>294.5</ele><time>2026-05-02T13:55:21Z</time></trkpt><trkpt lat="50.35207264579782" lon="16.13275952472384"><ele>294.75</ele><time>2026-05-02T13:55:22Z</time></trkpt><trkpt lat="50.352068143028035" lon="16.132951560407776"><ele>295.0</ele><time>2026-05-02T13:55:23Z</time></trkpt><trkpt lat="50.352067165199095" lon="16.133130509998622"><ele>294.6</ele><time>2026-05-02T13:55:24Z</time></trkpt><trkpt lat="50.3520733560658" lon="16.133300848709812"><ele>294.2</ele><time>2026-05-02T13:55:25Z</time></trkpt><trkpt lat="50.352084536429864" lon="16.133471410021258"><ele>293.8</ele><time>2026-05-02T13:55:26Z</time></trkpt><trkpt lat="50.35210008945325" lon="16.133627049560808"><ele>293.4</ele><time>2026-05-02T13:55:27Z</time></trkpt><trkpt lat="50.352106954417515" lon="16.133766007979894"><ele>293.0</ele><time>2026-05-02T13:55:28Z</time></trkpt><trkpt lat="50.352117249365335" lon="16.13390582182677"><ele>293.0</ele><time>2026-05-02T13:55:29Z</time></trkpt><trkpt lat="50.35212450697467" lon="16.134035125315688"><ele>293.0</ele><time>2026-05-02T13:55:30Z</time></trkpt><trkpt lat="50.35214158323296" lon="16.134168890854856"><ele>293.0</ele><time>2026-05-02T13:55:31Z</time></trkpt><trkpt lat="50.35215508904741" lon="16.134309150175408"><ele>293.0</ele><time>2026-05-02T13:55:32Z</time></trkpt><trkpt lat="50.35216977443506" lon="16.134451097192986"><ele>293.0</ele><time>2026-05-02T13:55:33Z</time></trkpt><trkpt lat="50.3521762860883" lon="16.134576362172"><ele>293.0</ele><time>2026-05-02T13:55:34Z</time></trkpt><trkpt lat="50.35218230940312" lon="16.134687616975587"><ele>293.0</ele><time>2026-05-02T13:55:35Z</time></trkpt><trkpt lat="50.35219646597551" lon="16.13480981780096"><ele>293.0</ele><time>2026-05-02T13:55:36Z</time></trkpt><trkpt lat="50.35221272278881" lon="16.13493363085617"><ele>293.0</ele><time>2026-05-02T13:55:37Z</time></trkpt><trkpt lat="50.35221143547849" lon="16.13505782971139"><ele>293.0</ele><time>2026-05-02T13:55:38Z</time></trkpt><trkpt lat="50.35222383978075" lon="16.135192785013327"><ele>293.0</ele><time>2026-05-02T13:55:39Z</time></trkpt><trkpt lat="50.35223712390729" lon="16.13533788991073"><ele>293.0</ele><time>2026-05-02T13:55:40Z</time></trkpt><trkpt lat="50.35225314410677" lon="16.13549816330583"><ele>294.0</ele><time>2026-05-02T13:55:41Z</time></trkpt><trkpt lat="50.352284104923264" lon="16.135686632480812"><ele>295.0</ele><time>2026-05-02T13:55:42Z</time></trkpt><trkpt lat="50.352278228741824" lon="16.135883861610328"><ele>296.0</ele><time>2026-05-02T13:55:43Z</time></trkpt><trkpt lat="50.35227918955323" lon="16.13607431357507"><ele>297.0</ele><time>2026-05-02T13:55:44Z</time></trkpt><trkpt lat="50.35227749227811" lon="16.136272857971058"><ele>297.5</ele><time>2026-05-02T13:55:45Z</time></trkpt><trkpt lat="50.35228619817653" lon="16.136485567598566"><ele>298.0</ele><time>2026-05-02T13:55:46Z</time></trkpt><trkpt lat="50.35227376753065" lon="16.136705846836367"><ele>298.5</ele><time>2026-05-02T13:55:47Z</time></trkpt><trkpt lat="50.352273265111926" lon="16.136932770163323"><ele>299.0</ele><time>2026-05-02T13:55:48Z</time></trkpt><trkpt lat="50.352272531411614" lon="16.137163876737393"><ele>299.6666666666667</ele><time>2026-05-02T13:55:49Z</time></trkpt><trkpt lat="50.35227129129106" lon="16.1373989896435"><ele>300.3333333333333</ele><time>2026-05-02T13:55:50Z</time></trkpt><trkpt lat="50.35226919698782" lon="16.13764180889008"><ele>301.0</ele><time>2026-05-02T13:55:51Z</time></trkpt><trkpt lat="50.35227413711526" lon="16.13788272917325"><ele>301.0</ele><time>2026-05-02T13:55:52Z</time></trkpt><trkpt lat="50.352294382956806" lon="16.138131805277833"><ele>301.0</ele><time>2026-05-02T13:55:53Z</time></trkpt><trkpt lat="50.35231109424956" lon="16.1383915492781"><ele>301.0</ele><time>2026-05-02T13:55:54Z</time></trkpt><trkpt lat="50.3523066536266" lon="16.138670087097374"><ele>301.3333333333333</ele><time>2026-05-02T13:55:55Z</time></trkpt><trkpt lat="50.352259234328166" lon="16.138941828259806"><ele>301.6666666666667</ele><time>2026-05-02T13:55:56Z</time></trkpt><trkpt lat="50.352233667388504" lon="16.139243402410607"><ele>302.0</ele><time>2026-05-02T13:55:57Z</time></trkpt><trkpt lat="50.35219468808477" lon="16.139530995233162"><ele>302.0</ele><time>2026-05-02T13:55:58Z</time></trkpt><trkpt lat="50.35216539185608" lon="16.13977687525403"><ele>302.0</ele><time>2026-05-02T13:55:59Z</time></trkpt><trkpt lat="50.352139708332885" lon="16.139991650725683"><ele>302.0</ele><time>2026-05-02T13:56:00Z</time></trkpt><trkpt lat="50.352116867168455" lon="16.140197929558774"><ele>302.0</ele><time>2026-05-02T13:56:01Z</time></trkpt><trkpt lat="50.352083544771205" lon="16.140400163939045"><ele>303.25</ele><time>2026-05-02T13:56:02Z</time></trkpt><trkpt lat="50.35206446522253" lon="16.140605701045903"><ele>304.5</ele><time>2026-05-02T13:56:03Z</time></trkpt><trkpt lat="50.35203149801806" lon="16.140830000187943"><ele>305.75</ele><time>2026-05-02T13:56:04Z</time></trkpt><trkpt lat="50.35200460417523" lon="16.141077204655"><ele>307.0</ele><time>2026-05-02T13:56:05Z</time></trkpt><trkpt lat="50.351960329444196" lon="16.141366388908157"><ele>305.3333333333333</ele><time>2026-05-02T13:56:06Z</time></trkpt><trkpt lat="50.35192596291322" lon="16.141638336731674"><ele>303.6666666666667</ele><time>2026-05-02T13:56:07Z</time></trkpt><trkpt lat="50.35191021915878" lon="16.14189464660566"><ele>302.0</ele><time>2026-05-02T13:56:08Z</time></trkpt><trkpt lat="50.35192578035436" lon="16.142168355628698"><ele>300.0</ele><time>2026-05-02T13:56:09Z</time></trkpt><trkpt lat="50.35197221193125" lon="16.142446260648853"><ele>298.0</ele><time>2026-05-02T13:56:10Z</time></trkpt><trkpt lat="50.35199814780635" lon="16.142704848811565"><ele>296.0</ele><time>2026-05-02T13:56:11Z</time></trkpt><trkpt lat="50.35203782368426" lon="16.142931046738845"><ele>296.0</ele><time>2026-05-02T13:56:12Z</time></trkpt><trkpt lat="50.352058737322785" lon="16.143142895218038"><ele>296.0</ele><time>2026-05-02T13:56:13Z</time></trkpt><trkpt lat="50.35208671301916" lon="16.143363215199972"><ele>296.0</ele><time>2026-05-02T13:56:14Z</time></trkpt><trkpt lat="50.35211055171785" lon="16.14358615686297"><ele>296.0</ele><time>2026-05-02T13:56:15Z</time></trkpt><trkpt lat="50.35213355483805" lon="16.143809103553806"><ele>296.0</ele><time>2026-05-02T13:56:16Z</time></trkpt><trkpt lat="50.35216445714008" lon="16.14403407006582"><ele>296.0</ele><time>2026-05-02T13:56:17Z</time></trkpt><trkpt lat="50.352178111413785" lon="16.144257004255355"><ele>296.0</ele><time>2026-05-02T13:56:18Z</time></trkpt><trkpt lat="50.352215347409924" lon="16.14443497905156"><ele>296.0</ele><time>2026-05-02T13:56:19Z</time></trkpt><trkpt lat="50.352237714335175" lon="16.14461671094275"><ele>297.25</ele><time>2026-05-02T13:56:20Z</time></trkpt><trkpt lat="50.352253508641866" lon="16.14480423312629"><ele>298.5</ele><time>2026-05-02T13:56:21Z</time></trkpt><trkpt lat="50.35220054210205" lon="16.144979377383894"><ele>299.75</ele><time>2026-05-02T13:56:22Z</time></trkpt><trkpt lat="50.35217019230113" lon="16.145187173072692"><ele>301.0</ele><time>2026-05-02T13:56:23Z</time></trkpt><trkpt lat="50.35214317960041" lon="16.14542675756477"><ele>301.0</ele><time>2026-05-02T13:56:24Z</time></trkpt><trkpt lat="50.35210649613384" lon="16.14562737191529"><ele>301.0</ele><time>2026-05-02T13:56:25Z</time></trkpt><trkpt lat="50.35208722963392" lon="16.14581896739639"><ele>301.0</ele><time>2026-05-02T13:56:26Z</time></trkpt><trkpt lat="50.352063640360115" lon="16.146021131232523"><ele>301.0</ele><time>2026-05-02T13:56:27Z</time></trkpt><trkpt lat="50.35203572358931" lon="16.146226356445723"><ele>303.0</ele><time>2026-05-02T13:56:28Z</time></trkpt><trkpt lat="50.3520036941762" lon="16.146425507414992"><ele>305.0</ele><time>2026-05-02T13:56:29Z</time></trkpt><trkpt lat="50.351975069705986" lon="16.14661830673613"><ele>307.0</ele><time>2026-05-02T13:56:30Z</time></trkpt><trkpt lat="50.35194905252742" lon="16.14680570554097"><ele>309.0</ele><time>2026-05-02T13:56:31Z</time></trkpt><trkpt lat="50.35192163358529" lon="16.146977156481213"><ele>310.5</ele><time>2026-05-02T13:56:32Z</time></trkpt><trkpt lat="50.35189119535709" lon="16.147148397671998"><ele>312.0</ele><time>2026-05-02T13:56:33Z</time></trkpt><trkpt lat="50.35186523297271" lon="16.147326200306825"><ele>313.5</ele><time>2026-05-02T13:56:34Z</time></trkpt><trkpt lat="50.35184099854153" lon="16.14750356448166"><ele>315.0</ele><time>2026-05-02T13:56:35Z</time></trkpt><trkpt lat="50.35181488254996" lon="16.147689351552458"><ele>316.0</ele><time>2026-05-02T13:56:36Z</time></trkpt><trkpt lat="50.3517846700042" lon="16.147877896378585"><ele>317.0</ele><time>2026-05-02T13:56:37Z</time></trkpt><trkpt lat="50.35175605157065" lon="16.148073344396018"><ele>318.0</ele><time>2026-05-02T13:56:38Z</time></trkpt><trkpt lat="50.35173252901403" lon="16.148272782491304"><ele>319.0</ele><time>2026-05-02T13:56:39Z</time></trkpt><trkpt lat="50.351701694077306" lon="16.14847274794719"><ele>321.0</ele><time>2026-05-02T13:56:40Z</time></trkpt><trkpt lat="50.35166633237149" lon="16.148672077474625"><ele>323.0</ele><time>2026-05-02T13:56:41Z</time></trkpt><trkpt lat="50.35158971166432" lon="16.148843582345055"><ele>325.0</ele><time>2026-05-02T13:56:42Z</time></trkpt><trkpt lat="50.351525839252055" lon="16.14902801937593"><ele>327.0</ele><time>2026-05-02T13:56:43Z</time></trkpt><trkpt lat="50.3514706542661" lon="16.14921972863124"><ele>328.5</ele><time>2026-05-02T13:56:44Z</time></trkpt><trkpt lat="50.35140662654936" lon="16.149402748201542"><ele>330.0</ele><time>2026-05-02T13:56:45Z</time></trkpt><trkpt lat="50.35135009763182" lon="16.149563705837238"><ele>331.5</ele><time>2026-05-02T13:56:46Z</time></trkpt><trkpt lat="50.35129716622456" lon="16.149704831668313"><ele>333.0</ele><time>2026-05-02T13:56:47Z</time></trkpt><trkpt lat="50.35124226277804" lon="16.14985257992353"><ele>334.0</ele><time>2026-05-02T13:56:48Z</time></trkpt><trkpt lat="50.351181626733435" lon="16.149974680163364"><ele>335.0</ele><time>2026-05-02T13:56:49Z</time></trkpt><trkpt lat="50.35111154393554" lon="16.15008234360348"><ele>336.0</ele><time>2026-05-02T13:56:50Z</time></trkpt><trkpt lat="50.35103451179372" lon="16.150178314150875"><ele>337.0</ele><time>2026-05-02T13:56:51Z</time></trkpt><trkpt lat="50.35095295821766" lon="16.150255423910735"><ele>338.0</ele><time>2026-05-02T13:56:52Z</time></trkpt><trkpt lat="50.350890069319156" lon="16.15032846744067"><ele>338.0</ele><time>2026-05-02T13:56:53Z</time></trkpt><trkpt lat="50.350858644380885" lon="16.150421263769683"><ele>338.0</ele><time>2026-05-02T13:56:54Z</time></trkpt><trkpt lat="50.350831292740054" lon="16.150525679653185"><ele>338.0</ele><time>2026-05-02T13:56:56Z</time></trkpt><trkpt lat="50.35077580929648" lon="16.150586146162826"><ele>338.0</ele><time>2026-05-02T13:57:02Z</time></trkpt><trkpt lat="50.35069826595612" lon="16.15061909250454"><ele>338.0</ele><time>2026-05-02T13:57:03Z</time></trkpt><trkpt lat="50.35059400097756" lon="16.150613680159783"><ele>338.0</ele><time>2026-05-02T13:57:04Z</time></trkpt><trkpt lat="50.350476189292486" lon="16.1505990959401"><ele>336.79999999999995</ele><time>2026-05-02T13:57:05Z</time></trkpt><trkpt lat="50.35038039730032" lon="16.150608470634293"><ele>335.6</ele><time>2026-05-02T13:57:06Z</time></trkpt><trkpt lat="50.35027866046131" lon="16.15061453659229"><ele>334.4</ele><time>2026-05-02T13:57:07Z</time></trkpt><trkpt lat="50.35019111951529" lon="16.150612291921508"><ele>333.20000000000005</ele><time>2026-05-02T13:57:08Z</time></trkpt><trkpt lat="50.350108463230015" lon="16.150616495765032"><ele>332.0</ele><time>2026-05-02T13:57:09Z</time></trkpt><trkpt lat="50.35001844098935" lon="16.150599927739073"><ele>332.0</ele><time>2026-05-02T13:57:10Z</time></trkpt><trkpt lat="50.34992327473448" lon="16.150602415227354"><ele>332.0</ele><time>2026-05-02T13:57:11Z</time></trkpt><trkpt lat="50.34982184094538" lon="16.150612629774045"><ele>332.0</ele><time>2026-05-02T13:57:12Z</time></trkpt><trkpt lat="50.34971523966483" lon="16.150610421481165"><ele>332.0</ele><time>2026-05-02T13:57:13Z</time></trkpt><trkpt lat="50.34960262960242" lon="16.150611895729277"><ele>332.0</ele><time>2026-05-02T13:57:14Z</time></trkpt><trkpt lat="50.34949504391443" lon="16.15060556097978"><ele>331.83333333333337</ele><time>2026-05-02T13:57:15Z</time></trkpt><trkpt lat="50.34939705681083" lon="16.150606330793593"><ele>331.6666666666667</ele><time>2026-05-02T13:57:16Z</time></trkpt><trkpt lat="50.34931690938804" lon="16.150608481182406"><ele>331.5</ele><time>2026-05-02T13:57:17Z</time></trkpt><trkpt lat="50.34924250293996" lon="16.15060459734133"><ele>331.3333333333333</ele><time>2026-05-02T13:57:18Z</time></trkpt><trkpt lat="50.34917238110579" lon="16.15060150291222"><ele>331.16666666666663</ele><time>2026-05-02T13:57:19Z</time></trkpt><trkpt lat="50.34910298074604" lon="16.15060029404782"><ele>331.0</ele><time>2026-05-02T13:57:20Z</time></trkpt><trkpt lat="50.3490144305682" lon="16.150595754177395"><ele>331.0</ele><time>2026-05-02T13:57:21Z</time></trkpt><trkpt lat="50.34890483109597" lon="16.15058716847623"><ele>331.0</ele><time>2026-05-02T13:57:22Z</time></trkpt><trkpt lat="50.34877722481703" lon="16.150586458790475"><ele>331.0</ele><time>2026-05-02T13:57:23Z</time></trkpt><trkpt lat="50.348636027847625" lon="16.150581562165705"><ele>331.0</ele><time>2026-05-02T13:57:24Z</time></trkpt><trkpt lat="50.34848045187011" lon="16.15057467876818"><ele>331.0</ele><time>2026-05-02T13:57:25Z</time></trkpt><trkpt lat="50.34831930598013" lon="16.150564886748928"><ele>331.0</ele><time>2026-05-02T13:57:26Z</time></trkpt><trkpt lat="50.34814659106484" lon="16.150548539347433"><ele>331.0</ele><time>2026-05-02T13:57:27Z</time></trkpt><trkpt lat="50.347996943327765" lon="16.150520429613927"><ele>330.5</ele><time>2026-05-02T13:57:28Z</time></trkpt><trkpt lat="50.34786590151557" lon="16.150494597040726"><ele>330.0</ele><time>2026-05-02T13:57:29Z</time></trkpt><trkpt lat="50.34774237412195" lon="16.150482944425782"><ele>329.5</ele><time>2026-05-02T13:57:30Z</time></trkpt><trkpt lat="50.34762443424616" lon="16.15046957941543"><ele>329.0</ele><time>2026-05-02T13:57:31Z</time></trkpt><trkpt lat="50.347498739126905" lon="16.15044026395275"><ele>329.0</ele><time>2026-05-02T13:57:32Z</time></trkpt><trkpt lat="50.34737277380655" lon="16.150419200279234"><ele>329.0</ele><time>2026-05-02T13:57:33Z</time></trkpt><trkpt lat="50.34725614463166" lon="16.15040150003006"><ele>329.0</ele><time>2026-05-02T13:57:34Z</time></trkpt><trkpt lat="50.34712673136458" lon="16.15038012593997"><ele>329.0</ele><time>2026-05-02T13:57:35Z</time></trkpt><trkpt lat="50.34698626251811" lon="16.15034973468713"><ele>328.25</ele><time>2026-05-02T13:57:36Z</time></trkpt><trkpt lat="50.34684038168212" lon="16.150321836033328"><ele>327.5</ele><time>2026-05-02T13:57:37Z</time></trkpt><trkpt lat="50.346692977508916" lon="16.150297024117524"><ele>326.75</ele><time>2026-05-02T13:57:38Z</time></trkpt><trkpt lat="50.346552331090734" lon="16.15027287137645"><ele>326.0</ele><time>2026-05-02T13:57:39Z</time></trkpt><trkpt lat="50.346435241074744" lon="16.150242993751867"><ele>326.0</ele><time>2026-05-02T13:57:40Z</time></trkpt><trkpt lat="50.34633871269774" lon="16.150224036598697"><ele>326.0</ele><time>2026-05-02T13:57:41Z</time></trkpt><trkpt lat="50.3462649209118" lon="16.150214679137452"><ele>326.0</ele><time>2026-05-02T13:57:42Z</time></trkpt><trkpt lat="50.34620106369187" lon="16.150212268804502"><ele>326.0</ele><time>2026-05-02T13:57:43Z</time></trkpt><trkpt lat="50.34609059767631" lon="16.15020380259318"><ele>326.0</ele><time>2026-05-02T13:57:45Z</time></trkpt><trkpt lat="50.346016547227215" lon="16.15021256798063"><ele>326.0</ele><time>2026-05-02T13:57:47Z</time></trkpt><trkpt lat="50.34594420757816" lon="16.150221931476917"><ele>326.0</ele><time>2026-05-02T13:57:50Z</time></trkpt><trkpt lat="50.34586771861792" lon="16.150221432496043"><ele>326.0</ele><time>2026-05-02T13:58:24Z</time></trkpt><trkpt lat="50.34579962894976" lon="16.15024388992413"><ele>326.0</ele><time>2026-05-02T13:58:28Z</time></trkpt><trkpt lat="50.345695977299826" lon="16.150263245390825"><ele>326.0</ele><time>2026-05-02T13:58:30Z</time></trkpt><trkpt lat="50.34562930851234" lon="16.15028924007517"><ele>326.0</ele><time>2026-05-02T13:58:31Z</time></trkpt><trkpt lat="50.34552482604886" lon="16.150316613478573"><ele>326.0</ele><time>2026-05-02T13:58:33Z</time></trkpt><trkpt lat="50.34545289143057" lon="16.150370546979307"><ele>326.1666666666667</ele><time>2026-05-02T13:58:35Z</time></trkpt><trkpt lat="50.34539100537877" lon="16.150459002920837"><ele>326.33333333333337</ele><time>2026-05-02T13:58:37Z</time></trkpt><trkpt lat="50.34534366809277" lon="16.150575646504986"><ele>326.5</ele><time>2026-05-02T13:58:39Z</time></trkpt><trkpt lat="50.345314564765665" lon="16.15069236044537"><ele>326.6666666666667</ele><time>2026-05-02T13:58:41Z</time></trkpt><trkpt lat="50.34528423820443" lon="16.150828667775958"><ele>326.8333333333333</ele><time>2026-05-02T13:58:44Z</time></trkpt><trkpt lat="50.34525778400244" lon="16.150940642489537"><ele>327.0</ele><time>2026-05-02T13:58:46Z</time></trkpt><trkpt lat="50.34522219361519" lon="16.151079043789306"><ele>327.3333333333333</ele><time>2026-05-02T13:58:48Z</time></trkpt><trkpt lat="50.345169756509904" lon="16.151206013184535"><ele>327.6666666666667</ele><time>2026-05-02T13:58:50Z</time></trkpt><trkpt lat="50.34509688660921" lon="16.151286678689576"><ele>328.0</ele><time>2026-05-02T13:58:52Z</time></trkpt><trkpt lat="50.34503630844572" lon="16.151371738053125"><ele>328.33333333333337</ele><time>2026-05-02T13:58:54Z</time></trkpt><trkpt lat="50.34495346124623" lon="16.151407208833316"><ele>328.6666666666667</ele><time>2026-05-02T13:58:56Z</time></trkpt><trkpt lat="50.34487045287527" lon="16.15146753267462"><ele>329.0</ele><time>2026-05-02T13:58:58Z</time></trkpt><trkpt lat="50.344766995316306" lon="16.151527279814648"><ele>329.83333333333337</ele><time>2026-05-02T13:59:00Z</time></trkpt><trkpt lat="50.34465167273857" lon="16.15155094778169"><ele>330.6666666666667</ele><time>2026-05-02T13:59:02Z</time></trkpt><trkpt lat="50.34455953170321" lon="16.15156979526222"><ele>331.5</ele><time>2026-05-02T13:59:04Z</time></trkpt><trkpt lat="50.344476706951845" lon="16.151563502418004"><ele>332.3333333333333</ele><time>2026-05-02T13:59:06Z</time></trkpt><trkpt lat="50.34440494262856" lon="16.151560208890142"><ele>333.16666666666663</ele><time>2026-05-02T13:59:08Z</time></trkpt><trkpt lat="50.34433818572463" lon="16.151569083255616"><ele>334.0</ele><time>2026-05-02T13:59:10Z</time></trkpt><trkpt lat="50.3442643527471" lon="16.15156920721684"><ele>334.0</ele><time>2026-05-02T13:59:14Z</time></trkpt><trkpt lat="50.34419395034071" lon="16.151583721136586"><ele>334.0</ele><time>2026-05-02T13:59:16Z</time></trkpt><trkpt lat="50.34416149105759" lon="16.15173061153412"><ele>334.0</ele><time>2026-05-02T13:59:17Z</time></trkpt><trkpt lat="50.34410457949395" lon="16.151803529251566"><ele>334.0</ele><time>2026-05-02T13:59:19Z</time></trkpt><trkpt lat="50.34406095294599" lon="16.15190196230176"><ele>334.0</ele><time>2026-05-02T13:59:21Z</time></trkpt><trkpt lat="50.343998413848375" lon="16.151957607866354"><ele>334.0</ele><time>2026-05-02T13:59:34Z</time></trkpt><trkpt lat="50.34394431519082" lon="16.15202439448134"><ele>334.0</ele><time>2026-05-02T13:59:50Z</time></trkpt><trkpt lat="50.34403387465599" lon="16.152130898746023"><ele>334.0</ele><time>2026-05-02T14:01:34.999Z</time></trkpt><trkpt lat="50.34410543240929" lon="16.15213483375868"><ele>334.0</ele><time>2026-05-02T14:01:42Z</time></trkpt><trkpt lat="50.34416919853325" lon="16.152175704265915"><ele>334.0</ele><time>2026-05-02T14:01:50Z</time></trkpt><trkpt lat="50.34404960593332" lon="16.15169695077409"><ele>334.0</ele><time>2026-05-02T14:04:04.364Z</time></trkpt><trkpt lat="50.34406804914215" lon="16.151871274180987"><ele>334.0</ele><time>2026-05-02T14:05:58.921Z</time></trkpt><trkpt lat="50.344096642548045" lon="16.151708863833253"><ele>334.0</ele><time>2026-05-02T14:13:15.012Z</time></trkpt><trkpt lat="50.34407198458171" lon="16.151800809033112"><ele>334.0</ele><time>2026-05-02T14:14:34.013Z</time></trkpt><trkpt lat="50.34406528503893" lon="16.15190113992772"><ele>334.0</ele><time>2026-05-02T14:14:37.012Z</time></trkpt><trkpt lat="50.344194192340304" lon="16.151979309881355"><ele>334.0</ele><time>2026-05-02T14:15:56.012Z</time></trkpt><trkpt lat="50.34408515585192" lon="16.151815448392448"><ele>334.0</ele><time>2026-05-02T14:16:26.975Z</time></trkpt><trkpt lat="50.344204166838956" lon="16.152095771839086"><ele>334.0</ele><time>2026-05-02T14:16:58.011Z</time></trkpt><trkpt lat="50.34417281639057" lon="16.15197487989351"><ele>334.0</ele><time>2026-05-02T14:17:36.011Z</time></trkpt><trkpt lat="50.34414353765023" lon="16.151868692017356"><ele>334.0</ele><time>2026-05-02T14:18:14.011Z</time></trkpt><trkpt lat="50.344121188710226" lon="16.15177253575422"><ele>334.0</ele><time>2026-05-02T14:18:21.013Z</time></trkpt><trkpt lat="50.3440745326013" lon="16.151695565314117"><ele>334.0</ele><time>2026-05-02T14:18:36.013Z</time></trkpt><trkpt lat="50.34403150401907" lon="16.15162152270588"><ele>334.0</ele><time>2026-05-02T14:18:56Z</time></trkpt><trkpt lat="50.34255627427786" lon="16.14783898856645"><ele>326.66666666666663</ele><time>2026-05-02T14:19:06Z</time></trkpt><trkpt lat="50.342441789641605" lon="16.147566732481106"><ele>319.3333333333333</ele><time>2026-05-02T14:19:07Z</time></trkpt><trkpt lat="50.34231601964642" lon="16.1472673830998"><ele>312.0</ele><time>2026-05-02T14:19:08Z</time></trkpt><trkpt lat="50.342280044050554" lon="16.147175160571383"><ele>312.0</ele><time>2026-05-02T14:19:09Z</time></trkpt><trkpt lat="50.342151650403466" lon="16.14685359857234"><ele>312.0</ele><time>2026-05-02T14:19:10Z</time></trkpt><trkpt lat="50.34202214749131" lon="16.14653016196168"><ele>312.0</ele><time>2026-05-02T14:19:11Z</time></trkpt><trkpt lat="50.34189264457914" lon="16.14620672623283"><ele>312.0</ele><time>2026-05-02T14:19:12Z</time></trkpt><trkpt lat="50.34180927553569" lon="16.14593018871044"><ele>312.0</ele><time>2026-05-02T14:19:13Z</time></trkpt><trkpt lat="50.34169448610607" lon="16.145611237385467"><ele>310.3333333333333</ele><time>2026-05-02T14:19:14Z</time></trkpt><trkpt lat="50.34158970201063" lon="16.14532191055121"><ele>308.66666666666663</ele><time>2026-05-02T14:19:15Z</time></trkpt><trkpt lat="50.34148788105868" lon="16.14505652311476"><ele>307.0</ele><time>2026-05-02T14:19:16Z</time></trkpt><trkpt lat="50.34138683265384" lon="16.14477847873719"><ele>305.3333333333333</ele><time>2026-05-02T14:19:17Z</time></trkpt><trkpt lat="50.34130672739445" lon="16.144564048174903"><ele>303.6666666666667</ele><time>2026-05-02T14:19:18Z</time></trkpt><trkpt lat="50.3411986179376" lon="16.144262579731578"><ele>302.0</ele><time>2026-05-02T14:19:19Z</time></trkpt><trkpt lat="50.34107231521753" lon="16.143910324213834"><ele>308.5</ele><time>2026-05-02T14:19:20Z</time></trkpt><trkpt lat="50.34096625182419" lon="16.14360850955252"><ele>315.0</ele><time>2026-05-02T14:19:21Z</time></trkpt><trkpt lat="50.340847757918795" lon="16.143262716829376"><ele>319.5</ele><time>2026-05-02T14:19:22Z</time></trkpt><trkpt lat="50.34071273671875" lon="16.142876341356136"><ele>324.0</ele><time>2026-05-02T14:19:23Z</time></trkpt><trkpt lat="50.340577838821595" lon="16.142491374597245"><ele>328.5</ele><time>2026-05-02T14:19:24Z</time></trkpt><trkpt lat="50.34044294092443" lon="16.14210640893164"><ele>333.0</ele><time>2026-05-02T14:19:25Z</time></trkpt><trkpt lat="50.340308043027264" lon="16.141721444359312"><ele>333.0</ele><time>2026-05-02T14:19:26Z</time></trkpt><trkpt lat="50.34050782583232" lon="16.142280636355846"><ele>333.0</ele><time>2026-05-02T14:19:39.154Z</time></trkpt><trkpt lat="50.340601889870584" lon="16.14241118917402"><ele>334.0</ele><time>2026-05-02T14:19:43.088Z</time></trkpt><trkpt lat="50.34403716501243" lon="16.151760885471834"><ele>310.0</ele><time>2026-05-02T14:19:53.517Z</time></trkpt><trkpt lat="50.34344436914088" lon="16.15022364923905"><ele>310.0</ele><time>2026-05-02T14:20:04Z</time></trkpt><trkpt lat="50.34339795073908" lon="16.150107724310253"><ele>310.0</ele><time>2026-05-02T14:20:05Z</time></trkpt><trkpt lat="50.34335864968414" lon="16.15000173632846"><ele>310.0</ele><time>2026-05-02T14:20:06Z</time></trkpt><trkpt lat="50.343268956985355" lon="16.149795433871276"><ele>310.0</ele><time>2026-05-02T14:20:07Z</time></trkpt><trkpt lat="50.34315966029695" lon="16.149531568322875"><ele>307.66666666666663</ele><time>2026-05-02T14:20:08Z</time></trkpt><trkpt lat="50.34307634377153" lon="16.14932566773675"><ele>305.3333333333333</ele><time>2026-05-02T14:20:09Z</time></trkpt><trkpt lat="50.342965075140704" lon="16.149038299606364"><ele>303.0</ele><time>2026-05-02T14:20:10Z</time></trkpt><trkpt lat="50.342793175960495" lon="16.14859171220688"><ele>305.5</ele><time>2026-05-02T14:20:11Z</time></trkpt><trkpt lat="50.342620484281746" lon="16.14813385911431"><ele>308.0</ele><time>2026-05-02T14:20:12Z</time></trkpt><trkpt lat="50.34245414971272" lon="16.147685891946978"><ele>310.0</ele><time>2026-05-02T14:20:13.001Z</time></trkpt><trkpt lat="50.34229737118705" lon="16.147238215466867"><ele>312.0</ele><time>2026-05-02T14:20:14Z</time></trkpt><trkpt lat="50.34218330171425" lon="16.146902002525994"><ele>312.0</ele><time>2026-05-02T14:20:15Z</time></trkpt><trkpt lat="50.342029646943764" lon="16.14645090549967"><ele>312.0</ele><time>2026-05-02T14:20:16Z</time></trkpt><trkpt lat="50.34184726894772" lon="16.145930319676097"><ele>310.3333333333333</ele><time>2026-05-02T14:20:17Z</time></trkpt><trkpt lat="50.34173165390963" lon="16.145635037718257"><ele>308.66666666666663</ele><time>2026-05-02T14:20:18Z</time></trkpt><trkpt lat="50.34161597979283" lon="16.14533514875307"><ele>307.0</ele><time>2026-05-02T14:20:19Z</time></trkpt><trkpt lat="50.34147192526867" lon="16.144975737788744"><ele>304.5</ele><time>2026-05-02T14:20:20Z</time></trkpt><trkpt lat="50.34143345410794" lon="16.144875971936877"><ele>302.0</ele><time>2026-05-02T14:20:21Z</time></trkpt><trkpt lat="50.34123612100057" lon="16.14432496505928"><ele>315.0</ele><time>2026-05-02T14:20:22Z</time></trkpt><trkpt lat="50.34100726624291" lon="16.14369894744264"><ele>324.0</ele><time>2026-05-02T14:20:23Z</time></trkpt><trkpt lat="50.34077862127575" lon="16.143075218483546"><ele>324.0</ele><time>2026-05-02T14:20:24Z</time></trkpt><trkpt lat="50.34054997630859" lon="16.142451492526877"><ele>333.0</ele><time>2026-05-02T14:20:25Z</time></trkpt><trkpt lat="50.34032133134142" lon="16.141827769572597"><ele>324.0</ele><time>2026-05-02T14:20:26Z</time></trkpt><trkpt lat="50.34066968277123" lon="16.14271694330277"><ele>328.0</ele><time>2026-05-02T14:20:35.543Z</time></trkpt><trkpt lat="50.3440168954586" lon="16.15006611229698"><ele>303.0</ele><time>2026-05-02T14:20:46.001Z</time></trkpt><trkpt lat="50.343731392534366" lon="16.149365361728293"><ele>295.0</ele><time>2026-05-02T14:20:47.001Z</time></trkpt><trkpt lat="50.34347739868656" lon="16.148627465318153"><ele>295.0</ele><time>2026-05-02T14:20:48.001Z</time></trkpt><trkpt lat="50.34321517191722" lon="16.147865303501188"><ele>312.0</ele><time>2026-05-02T14:20:49.001Z</time></trkpt><trkpt lat="50.34297434876583" lon="16.1471381692371"><ele>313.0</ele><time>2026-05-02T14:20:50.001Z</time></trkpt><trkpt lat="50.34275638077636" lon="16.14642352634812"><ele>313.0</ele><time>2026-05-02T14:20:51Z</time></trkpt><trkpt lat="50.34252937952988" lon="16.145713755179248"><ele>313.0</ele><time>2026-05-02T14:20:51.999Z</time></trkpt><trkpt lat="50.34230789263357" lon="16.145009023004295"><ele>300.0</ele><time>2026-05-02T14:20:52.999Z</time></trkpt><trkpt lat="50.3421083937877" lon="16.144300721779864"><ele>296.0</ele><time>2026-05-02T14:20:53.999Z</time></trkpt><trkpt lat="50.34191057935799" lon="16.143605549108308"><ele>301.0</ele><time>2026-05-02T14:20:54.999Z</time></trkpt><trkpt lat="50.341756474878906" lon="16.14291289693232"><ele>310.0</ele><time>2026-05-02T14:20:55.999Z</time></trkpt><trkpt lat="50.341594790929726" lon="16.142216272496967"><ele>319.0</ele><time>2026-05-02T14:20:56.999Z</time></trkpt><trkpt lat="50.34141550955825" lon="16.14152648513962"><ele>330.0</ele><time>2026-05-02T14:20:57.999Z</time></trkpt><trkpt lat="50.34123686086564" lon="16.140828562887247"><ele>336.0</ele><time>2026-05-02T14:20:59Z</time></trkpt><trkpt lat="50.34102848862209" lon="16.140124838075433"><ele>339.0</ele><time>2026-05-02T14:21:00Z</time></trkpt><trkpt lat="50.34082467593802" lon="16.13942182127792"><ele>337.0</ele><time>2026-05-02T14:21:01Z</time></trkpt><trkpt lat="50.34062318199441" lon="16.13872203455756"><ele>335.0</ele><time>2026-05-02T14:21:02Z</time></trkpt><trkpt lat="50.340416788983084" lon="16.138023364030094"><ele>337.0</ele><time>2026-05-02T14:21:03Z</time></trkpt><trkpt lat="50.340219328944485" lon="16.13732578446093"><ele>337.0</ele><time>2026-05-02T14:21:04Z</time></trkpt><trkpt lat="50.3400278139374" lon="16.13662802997489"><ele>336.0</ele><time>2026-05-02T14:21:05Z</time></trkpt><trkpt lat="50.339830911807674" lon="16.135935162830496"><ele>336.0</ele><time>2026-05-02T14:21:06Z</time></trkpt><trkpt lat="50.33964977906604" lon="16.135243488335615"><ele>336.0</ele><time>2026-05-02T14:21:07Z</time></trkpt><trkpt lat="50.339598123715646" lon="16.135356837128235"><ele>336.0</ele><time>2026-05-02T14:21:10Z</time></trkpt><trkpt lat="50.34406578873179" lon="16.15138653705055"><ele>335.6</ele><time>2026-05-02T14:22:01.993Z</time></trkpt><trkpt lat="50.344123643437925" lon="16.151610547792178"><ele>335.20000000000005</ele><time>2026-05-02T14:22:04.87Z</time></trkpt><trkpt lat="50.344087918975795" lon="16.15175220681348"><ele>334.79999999999995</ele><time>2026-05-02T14:22:06.135Z</time></trkpt><trkpt lat="50.344128566865926" lon="16.151845552257903"><ele>334.4</ele><time>2026-05-02T14:24:59.001Z</time></trkpt><trkpt lat="50.344234229905645" lon="16.151919052982144"><ele>334.0</ele><time>2026-05-02T14:25:01Z</time></trkpt><trkpt lat="50.344324268149926" lon="16.152212930701552"><ele>334.0</ele><time>2026-05-02T14:25:03Z</time></trkpt><trkpt lat="50.344188339847086" lon="16.152035761893263"><ele>334.0</ele><time>2026-05-02T14:25:04Z</time></trkpt><trkpt lat="50.34419607646445" lon="16.15219906679272"><ele>334.0</ele><time>2026-05-02T14:25:05.998Z</time></trkpt><trkpt lat="50.344212815477825" lon="16.152318895532375"><ele>334.0</ele><time>2026-05-02T14:25:06.998Z</time></trkpt><trkpt lat="50.34426477750636" lon="16.152502601889463"><ele>334.0</ele><time>2026-05-02T14:25:07.998Z</time></trkpt><trkpt lat="50.34430614817123" lon="16.152652859532132"><ele>334.0</ele><time>2026-05-02T14:25:08.998Z</time></trkpt><trkpt lat="50.3443387417331" lon="16.152789386666818"><ele>334.0</ele><time>2026-05-02T14:25:09.998Z</time></trkpt><trkpt lat="50.34438086529059" lon="16.153006234747867"><ele>334.0</ele><time>2026-05-02T14:25:11.998Z</time></trkpt><trkpt lat="50.34439456851823" lon="16.153135586106785"><ele>334.0</ele><time>2026-05-02T14:25:12.998Z</time></trkpt><trkpt lat="50.34439443180157" lon="16.153268242605662"><ele>330.59999999999997</ele><time>2026-05-02T14:25:14.998Z</time></trkpt><trkpt lat="50.34441223273511" lon="16.153412401450314"><ele>327.2</ele><time>2026-05-02T14:25:15.998Z</time></trkpt><trkpt lat="50.34442804284012" lon="16.153554341582478"><ele>323.79999999999995</ele><time>2026-05-02T14:25:16.998Z</time></trkpt><trkpt lat="50.344442031502766" lon="16.153691055549945"><ele>320.4</ele><time>2026-05-02T14:25:17.998Z</time></trkpt><trkpt lat="50.344496638479356" lon="16.15387459647243"><ele>317.0</ele><time>2026-05-02T14:25:19.998Z</time></trkpt><trkpt lat="50.34452752156809" lon="16.153974176899474"><ele>325.5</ele><time>2026-05-02T14:25:20.998Z</time></trkpt><trkpt lat="50.34457350803401" lon="16.15412245714289"><ele>334.0</ele><time>2026-05-02T14:25:22.998Z</time></trkpt><trkpt lat="50.344125444048125" lon="16.151828484654246"><ele>334.0</ele><time>2026-05-02T14:25:24.999Z</time></trkpt><trkpt lat="50.34407752641252" lon="16.151450535601715"><ele>334.0</ele><time>2026-05-02T14:25:27.999Z</time></trkpt><trkpt lat="50.34411683216197" lon="16.15161803741109"><ele>334.0</ele><time>2026-05-02T14:25:28.999Z</time></trkpt><trkpt lat="50.344110015452095" lon="16.151749561114627"><ele>334.0</ele><time>2026-05-02T14:25:36.999Z</time></trkpt><trkpt lat="50.344078259203606" lon="16.15165427741712"><ele>334.0</ele><time>2026-05-02T14:29:16.013Z</time></trkpt><trkpt lat="50.3440112510761" lon="16.15164396700997"><ele>334.0</ele><time>2026-05-02T14:31:59.013Z</time></trkpt><trkpt lat="50.34401942775904" lon="16.1517753284996"><ele>334.0</ele><time>2026-05-02T14:35:47Z</time></trkpt><trkpt lat="50.344089782085916" lon="16.151807791963257"><ele>334.0</ele><time>2026-05-02T14:38:00.017Z</time></trkpt><trkpt lat="50.344133514086515" lon="16.151883139958926"><ele>334.0</ele><time>2026-05-02T14:38:03.017Z</time></trkpt><trkpt lat="50.34417851963806" lon="16.15196068221758"><ele>334.0</ele><time>2026-05-02T14:38:11.018Z</time></trkpt><trkpt lat="50.344221064976225" lon="16.152033997991634"><ele>334.0</ele><time>2026-05-02T14:38:32.018Z</time></trkpt><trkpt lat="50.34418629529417" lon="16.151951306492794"><ele>334.0</ele><time>2026-05-02T14:39:03.018Z</time></trkpt><trkpt lat="50.34416672765401" lon="16.15184108795823"><ele>334.0</ele><time>2026-05-02T14:39:39.017Z</time></trkpt><trkpt lat="50.344079608090034" lon="16.151779344356083"><ele>334.0</ele><time>2026-05-02T14:42:21.007Z</time></trkpt><trkpt lat="50.34533353806637" lon="16.155267370227293"><ele>321.5</ele><time>2026-05-02T14:42:30.005Z</time></trkpt><trkpt lat="50.345448711017355" lon="16.155610722184782"><ele>309.0</ele><time>2026-05-02T14:42:31.005Z</time></trkpt><trkpt lat="50.34556593852329" lon="16.155975289703587"><ele>308.0</ele><time>2026-05-02T14:42:32.004Z</time></trkpt><trkpt lat="50.34580225877698" lon="16.15667676117991"><ele>308.0</ele><time>2026-05-02T14:42:33.004Z</time></trkpt><trkpt lat="50.34595699779471" lon="16.157142430294723"><ele>308.0</ele><time>2026-05-02T14:42:34.004Z</time></trkpt><trkpt lat="50.34618895583705" lon="16.157826982793946"><ele>308.5</ele><time>2026-05-02T14:42:35.004Z</time></trkpt><trkpt lat="50.346353188904175" lon="16.158309543800225"><ele>309.0</ele><time>2026-05-02T14:42:36.003Z</time></trkpt><trkpt lat="50.346532687617014" lon="16.15885022029907"><ele>323.0</ele><time>2026-05-02T14:42:37.003Z</time></trkpt><trkpt lat="50.34671224381835" lon="16.159383978628426"><ele>337.0</ele><time>2026-05-02T14:42:38.003Z</time></trkpt><trkpt lat="50.34687569075035" lon="16.15986073509166"><ele>337.0</ele><time>2026-05-02T14:42:39.003Z</time></trkpt><trkpt lat="50.346987164169" lon="16.160204503781447"><ele>337.0</ele><time>2026-05-02T14:42:40.003Z</time></trkpt><trkpt lat="50.34716379318202" lon="16.16071136365589"><ele>349.0</ele><time>2026-05-02T14:42:41.003Z</time></trkpt><trkpt lat="50.34735289887874" lon="16.161241528604386"><ele>361.0</ele><time>2026-05-02T14:42:42.003Z</time></trkpt><trkpt lat="50.34759520057859" lon="16.16193411966428"><ele>358.0</ele><time>2026-05-02T14:42:43.002Z</time></trkpt><trkpt lat="50.34778637310323" lon="16.162448498421817"><ele>355.0</ele><time>2026-05-02T14:42:44.002Z</time></trkpt><trkpt lat="50.348030189709654" lon="16.16313806061074"><ele>359.5</ele><time>2026-05-02T14:42:45.002Z</time></trkpt><trkpt lat="50.34820337076782" lon="16.163599981728222"><ele>364.0</ele><time>2026-05-02T14:42:46.002Z</time></trkpt><trkpt lat="50.348352133525374" lon="16.163994991866733"><ele>365.5</ele><time>2026-05-02T14:42:47.002Z</time></trkpt><trkpt lat="50.34847632447388" lon="16.164329794269026"><ele>367.0</ele><time>2026-05-02T14:42:48.002Z</time></trkpt><trkpt lat="50.348595871973906" lon="16.164649520916583"><ele>368.3333333333333</ele><time>2026-05-02T14:42:49.002Z</time></trkpt><trkpt lat="50.34872836242331" lon="16.16500945806629"><ele>369.6666666666667</ele><time>2026-05-02T14:42:50.002Z</time></trkpt><trkpt lat="50.34878663168447" lon="16.16516880565251"><ele>371.0</ele><time>2026-05-02T14:42:51.002Z</time></trkpt><trkpt lat="50.344071889091715" lon="16.151841884434965"><ele>299.0</ele><time>2026-05-02T14:43:16.023Z</time></trkpt><trkpt lat="50.344378825307466" lon="16.154503710493255"><ele>334.0</ele><time>2026-05-02T14:44:02.995Z</time></trkpt><trkpt lat="50.34438305303778" lon="16.152550344671596"><ele>334.0</ele><time>2026-05-02T14:44:18Z</time></trkpt><trkpt lat="50.344128045684364" lon="16.151852514459364"><ele>334.0</ele><time>2026-05-02T14:44:19Z</time></trkpt><trkpt lat="50.344170768799934" lon="16.15196152903107"><ele>334.0</ele><time>2026-05-02T14:45:36Z</time></trkpt><trkpt lat="50.344134352705844" lon="16.1518464971041"><ele>334.0</ele><time>2026-05-02T14:46:00Z</time></trkpt><trkpt lat="50.34411029033866" lon="16.151740265309087"><ele>334.0</ele><time>2026-05-02T14:46:04Z</time></trkpt><trkpt lat="50.344084786446444" lon="16.151627325245332"><ele>334.0</ele><time>2026-05-02T14:46:07Z</time></trkpt><trkpt lat="50.34404425899296" lon="16.151515097431567"><ele>334.0</ele><time>2026-05-02T14:46:09Z</time></trkpt><trkpt lat="50.34402468646544" lon="16.151381740472157"><ele>334.0</ele><time>2026-05-02T14:46:11Z</time></trkpt><trkpt lat="50.3440263389986" lon="16.151238443951154"><ele>334.0</ele><time>2026-05-02T14:46:14Z</time></trkpt><trkpt lat="50.34405574076574" lon="16.151336543593825"><ele>334.0</ele><time>2026-05-02T14:46:16Z</time></trkpt><trkpt lat="50.34398319922531" lon="16.151273641261177"><ele>334.0</ele><time>2026-05-02T14:46:19Z</time></trkpt><trkpt lat="50.344010424590756" lon="16.151435790769735"><ele>334.0</ele><time>2026-05-02T14:46:20Z</time></trkpt><trkpt lat="50.344024142285164" lon="16.151547345752228"><ele>334.0</ele><time>2026-05-02T14:46:23Z</time></trkpt><trkpt lat="50.34404215896329" lon="16.15168713841269"><ele>334.0</ele><time>2026-05-02T14:46:25Z</time></trkpt><trkpt lat="50.344057550014156" lon="16.151810323009897"><ele>334.0</ele><time>2026-05-02T14:46:27Z</time></trkpt><trkpt lat="50.344058116026694" lon="16.151924654654017"><ele>334.0</ele><time>2026-05-02T14:46:30Z</time></trkpt><trkpt lat="50.34399658924612" lon="16.15198227181493"><ele>334.0</ele><time>2026-05-02T14:46:38Z</time></trkpt><trkpt lat="50.343923903913996" lon="16.151991880030206"><ele>334.0</ele><time>2026-05-02T14:46:44Z</time></trkpt><trkpt lat="50.343867017056404" lon="16.151910573021894"><ele>334.0</ele><time>2026-05-02T14:50:03Z</time></trkpt><trkpt lat="50.34386715507885" lon="16.151806804425664"><ele>334.0</ele><time>2026-05-02T14:50:06Z</time></trkpt><trkpt lat="50.34380995367427" lon="16.15172241901407"><ele>332.6</ele><time>2026-05-02T14:50:21Z</time></trkpt><trkpt lat="50.34367420264169" lon="16.15175369955416"><ele>331.2</ele><time>2026-05-02T14:50:23Z</time></trkpt><trkpt lat="50.34359867185822" lon="16.15179586289253"><ele>329.8</ele><time>2026-05-02T14:50:24Z</time></trkpt><trkpt lat="50.343499193665636" lon="16.1518499665641"><ele>328.40000000000003</ele><time>2026-05-02T14:50:26Z</time></trkpt><trkpt lat="50.34342276148859" lon="16.151896920843583"><ele>327.0</ele><time>2026-05-02T14:50:28Z</time></trkpt><trkpt lat="50.34334352843921" lon="16.151950445713737"><ele>327.0</ele><time>2026-05-02T14:50:30Z</time></trkpt><trkpt lat="50.34326201571819" lon="16.152014797678515"><ele>327.0</ele><time>2026-05-02T14:50:32Z</time></trkpt><trkpt lat="50.343171435579855" lon="16.152085211400962"><ele>327.0</ele><time>2026-05-02T14:50:34Z</time></trkpt><trkpt lat="50.34308205778147" lon="16.152134834169587"><ele>327.0</ele><time>2026-05-02T14:50:36Z</time></trkpt><trkpt lat="50.342994631236465" lon="16.15220234335712"><ele>327.0</ele><time>2026-05-02T14:50:38Z</time></trkpt><trkpt lat="50.34290184440154" lon="16.152283307314505"><ele>322.6</ele><time>2026-05-02T14:50:40Z</time></trkpt><trkpt lat="50.34281245776105" lon="16.152400930588684"><ele>318.20000000000005</ele><time>2026-05-02T14:50:42Z</time></trkpt><trkpt lat="50.34273466924497" lon="16.152532513784408"><ele>313.8</ele><time>2026-05-02T14:50:44Z</time></trkpt><trkpt lat="50.34269037343921" lon="16.1527245340738"><ele>309.4</ele><time>2026-05-02T14:50:45.999Z</time></trkpt><trkpt lat="50.34267815115427" lon="16.152827224641527"><ele>305.0</ele><time>2026-05-02T14:50:46.999Z</time></trkpt><trkpt lat="50.34269036555334" lon="16.152959510572387"><ele>305.0</ele><time>2026-05-02T14:50:47.999Z</time></trkpt><trkpt lat="50.34270609514254" lon="16.153065252767778"><ele>305.0</ele><time>2026-05-02T14:50:48.999Z</time></trkpt><trkpt lat="50.34272977438235" lon="16.153164489425915"><ele>305.0</ele><time>2026-05-02T14:50:49.999Z</time></trkpt><trkpt lat="50.34276532626503" lon="16.153263412392203"><ele>305.0</ele><time>2026-05-02T14:50:50.999Z</time></trkpt><trkpt lat="50.342827162754425" lon="16.15342673550874"><ele>305.0</ele><time>2026-05-02T14:50:52.999Z</time></trkpt><trkpt lat="50.342872764142164" lon="16.153605620323084"><ele>305.5</ele><time>2026-05-02T14:50:54.999Z</time></trkpt><trkpt lat="50.34285329195985" lon="16.153715126737634"><ele>306.0</ele><time>2026-05-02T14:50:55.999Z</time></trkpt><trkpt lat="50.34278937578954" lon="16.1538243411936"><ele>306.5</ele><time>2026-05-02T14:50:56.999Z</time></trkpt><trkpt lat="50.34272638462716" lon="16.15395127002587"><ele>307.0</ele><time>2026-05-02T14:50:57.999Z</time></trkpt><trkpt lat="50.34266650485828" lon="16.15406087929722"><ele>307.5</ele><time>2026-05-02T14:50:58.999Z</time></trkpt><trkpt lat="50.34262031943913" lon="16.154168549290613"><ele>308.0</ele><time>2026-05-02T14:50:59.999Z</time></trkpt><trkpt lat="50.34256213033491" lon="16.154258083611026"><ele>308.1666666666667</ele><time>2026-05-02T14:51:00.999Z</time></trkpt><trkpt lat="50.342504584772385" lon="16.154348815061386"><ele>308.33333333333337</ele><time>2026-05-02T14:51:01.999Z</time></trkpt><trkpt lat="50.34244296903522" lon="16.154436282896143"><ele>308.5</ele><time>2026-05-02T14:51:02.999Z</time></trkpt><trkpt lat="50.342380921846335" lon="16.154529468033267"><ele>308.6666666666667</ele><time>2026-05-02T14:51:03.999Z</time></trkpt><trkpt lat="50.342312584128805" lon="16.154624930513624"><ele>308.8333333333333</ele><time>2026-05-02T14:51:04.999Z</time></trkpt><trkpt lat="50.342245600077725" lon="16.154715741928033"><ele>309.0</ele><time>2026-05-02T14:51:05.999Z</time></trkpt><trkpt lat="50.34217538959881" lon="16.154802274799394"><ele>307.8333333333333</ele><time>2026-05-02T14:51:06.999Z</time></trkpt><trkpt lat="50.342103428850095" lon="16.15488397942477"><ele>306.6666666666667</ele><time>2026-05-02T14:51:07.999Z</time></trkpt><trkpt lat="50.34203967732063" lon="16.154957453876076"><ele>305.5</ele><time>2026-05-02T14:51:08.999Z</time></trkpt><trkpt lat="50.341972346454256" lon="16.155041934857238"><ele>304.33333333333337</ele><time>2026-05-02T14:51:09.999Z</time></trkpt><trkpt lat="50.34190173538831" lon="16.15511798867379"><ele>303.1666666666667</ele><time>2026-05-02T14:51:10.999Z</time></trkpt><trkpt lat="50.341837608221816" lon="16.15520909189067"><ele>302.0</ele><time>2026-05-02T14:51:11.999Z</time></trkpt><trkpt lat="50.3417741561827" lon="16.155307262044303"><ele>302.0</ele><time>2026-05-02T14:51:12.999Z</time></trkpt><trkpt lat="50.34170987522381" lon="16.15540671438037"><ele>302.0</ele><time>2026-05-02T14:51:13.999Z</time></trkpt><trkpt lat="50.34164498758942" lon="16.15550717906825"><ele>302.0</ele><time>2026-05-02T14:51:14.999Z</time></trkpt><trkpt lat="50.34156924148413" lon="16.15562471946445"><ele>302.0</ele><time>2026-05-02T14:51:15.999Z</time></trkpt><trkpt lat="50.34149927111396" lon="16.15575473849071"><ele>302.0</ele><time>2026-05-02T14:51:16.999Z</time></trkpt><trkpt lat="50.34141661125735" lon="16.155839311170165"><ele>300.0</ele><time>2026-05-02T14:51:17.999Z</time></trkpt><trkpt lat="50.34130812625396" lon="16.15597235431257"><ele>298.0</ele><time>2026-05-02T14:51:18.999Z</time></trkpt><trkpt lat="50.341218081622564" lon="16.156069424237415"><ele>296.0</ele><time>2026-05-02T14:51:19.999Z</time></trkpt><trkpt lat="50.34112356150005" lon="16.156167906278878"><ele>294.0</ele><time>2026-05-02T14:51:20.999Z</time></trkpt><trkpt lat="50.341022756346185" lon="16.156259558785287"><ele>294.0</ele><time>2026-05-02T14:51:21.999Z</time></trkpt><trkpt lat="50.34092073754623" lon="16.156345219949614"><ele>294.0</ele><time>2026-05-02T14:51:22.999Z</time></trkpt><trkpt lat="50.34082391744111" lon="16.156443638627263"><ele>294.0</ele><time>2026-05-02T14:51:23.999Z</time></trkpt><trkpt lat="50.340725477921595" lon="16.156540970944466"><ele>294.0</ele><time>2026-05-02T14:51:24.999Z</time></trkpt><trkpt lat="50.340623977426475" lon="16.15663386612237"><ele>298.25</ele><time>2026-05-02T14:51:25.999Z</time></trkpt><trkpt lat="50.34052068243934" lon="16.156730499965487"><ele>302.5</ele><time>2026-05-02T14:51:26.999Z</time></trkpt><trkpt lat="50.340423924933404" lon="16.156824869218884"><ele>306.75</ele><time>2026-05-02T14:51:27.999Z</time></trkpt><trkpt lat="50.340320004072765" lon="16.156938534484155"><ele>311.0</ele><time>2026-05-02T14:51:28.999Z</time></trkpt><trkpt lat="50.34021573889434" lon="16.157081388882002"><ele>311.0</ele><time>2026-05-02T14:51:29.999Z</time></trkpt><trkpt lat="50.34011169139093" lon="16.15726788319766"><ele>311.0</ele><time>2026-05-02T14:51:30.999Z</time></trkpt><trkpt lat="50.34002506275382" lon="16.157461397157068"><ele>311.0</ele><time>2026-05-02T14:51:31.999Z</time></trkpt><trkpt lat="50.33994165341404" lon="16.15765231696761"><ele>310.33333333333337</ele><time>2026-05-02T14:51:32.999Z</time></trkpt><trkpt lat="50.33984583485577" lon="16.15785030347196"><ele>309.6666666666667</ele><time>2026-05-02T14:51:33.999Z</time></trkpt><trkpt lat="50.33976115839376" lon="16.158053373461478"><ele>309.0</ele><time>2026-05-02T14:51:34.999Z</time></trkpt><trkpt lat="50.339668219900574" lon="16.15825921850368"><ele>316.3333333333333</ele><time>2026-05-02T14:51:35.999Z</time></trkpt><trkpt lat="50.33956717843573" lon="16.15846010199287"><ele>323.66666666666663</ele><time>2026-05-02T14:51:36.999Z</time></trkpt><trkpt lat="50.33946946699427" lon="16.158669081119466"><ele>331.0</ele><time>2026-05-02T14:51:37.999Z</time></trkpt><trkpt lat="50.33936822006344" lon="16.158886608522224"><ele>328.0</ele><time>2026-05-02T14:51:38.999Z</time></trkpt><trkpt lat="50.33924913370351" lon="16.159163755970308"><ele>325.0</ele><time>2026-05-02T14:51:39.999Z</time></trkpt><trkpt lat="50.339093250336575" lon="16.15948252060893"><ele>325.0</ele><time>2026-05-02T14:51:40.999Z</time></trkpt><trkpt lat="50.33896184319378" lon="16.15974957943691"><ele>325.0</ele><time>2026-05-02T14:51:41.999Z</time></trkpt><trkpt lat="50.33885828219646" lon="16.159983761975028"><ele>325.0</ele><time>2026-05-02T14:51:42.999Z</time></trkpt><trkpt lat="50.33879154533561" lon="16.160249380055635"><ele>331.3333333333333</ele><time>2026-05-02T14:51:43.999Z</time></trkpt><trkpt lat="50.33873717101755" lon="16.160556647789615"><ele>337.6666666666667</ele><time>2026-05-02T14:51:44.999Z</time></trkpt><trkpt lat="50.3386894819249" lon="16.160894297458224"><ele>344.0</ele><time>2026-05-02T14:51:45.999Z</time></trkpt><trkpt lat="50.33859265663518" lon="16.161215723445352"><ele>344.0</ele><time>2026-05-02T14:51:46.999Z</time></trkpt><trkpt lat="50.33849730405796" lon="16.161522479031376"><ele>344.0</ele><time>2026-05-02T14:51:47.999Z</time></trkpt><trkpt lat="50.33843003199784" lon="16.16181160936829"><ele>344.0</ele><time>2026-05-02T14:51:48.999Z</time></trkpt><trkpt lat="50.33837131084899" lon="16.162125391575294"><ele>344.75</ele><time>2026-05-02T14:51:49.999Z</time></trkpt><trkpt lat="50.338362289706424" lon="16.162375655758595"><ele>345.5</ele><time>2026-05-02T14:51:50.999Z</time></trkpt><trkpt lat="50.33832614581871" lon="16.16260116889913"><ele>346.25</ele><time>2026-05-02T14:51:51.999Z</time></trkpt><trkpt lat="50.33829825086806" lon="16.16278754683357"><ele>347.0</ele><time>2026-05-02T14:51:52.999Z</time></trkpt><trkpt lat="50.3382646539674" lon="16.162954429076894"><ele>347.0</ele><time>2026-05-02T14:51:53.999Z</time></trkpt><trkpt lat="50.33820886248262" lon="16.163148170652434"><ele>347.0</ele><time>2026-05-02T14:51:54.999Z</time></trkpt><trkpt lat="50.338118004835465" lon="16.163341152074995"><ele>347.0</ele><time>2026-05-02T14:51:55.999Z</time></trkpt><trkpt lat="50.33802365998889" lon="16.163531712588487"><ele>347.0</ele><time>2026-05-02T14:51:56.999Z</time></trkpt><trkpt lat="50.33795355102588" lon="16.163715710621943"><ele>348.75</ele><time>2026-05-02T14:51:57.999Z</time></trkpt><trkpt lat="50.337897044252585" lon="16.163896942375143"><ele>350.5</ele><time>2026-05-02T14:51:58.999Z</time></trkpt><trkpt lat="50.33784545574166" lon="16.16407701292178"><ele>352.25</ele><time>2026-05-02T14:51:59.999Z</time></trkpt><trkpt lat="50.337803095424036" lon="16.164248406875494"><ele>354.0</ele><time>2026-05-02T14:52:00.999Z</time></trkpt><trkpt lat="50.33776868601064" lon="16.16441955680943"><ele>354.6</ele><time>2026-05-02T14:52:01.999Z</time></trkpt><trkpt lat="50.3377287726772" lon="16.164577475920506"><ele>355.2</ele><time>2026-05-02T14:52:02.999Z</time></trkpt><trkpt lat="50.33767205824693" lon="16.16471607204705"><ele>355.8</ele><time>2026-05-02T14:52:03.999Z</time></trkpt><trkpt lat="50.33759055186996" lon="16.164802537936367"><ele>356.40000000000003</ele><time>2026-05-02T14:52:04.999Z</time></trkpt><trkpt lat="50.33748342053095" lon="16.164819387143197"><ele>357.0</ele><time>2026-05-02T14:52:05.999Z</time></trkpt><trkpt lat="50.33738232794254" lon="16.164793339940598"><ele>357.0</ele><time>2026-05-02T14:52:06.999Z</time></trkpt><trkpt lat="50.33728554100173" lon="16.164688109803613"><ele>357.0</ele><time>2026-05-02T14:52:07.999Z</time></trkpt><trkpt lat="50.33720188109741" lon="16.164553088398907"><ele>357.0</ele><time>2026-05-02T14:52:08.999Z</time></trkpt><trkpt lat="50.337173973634215" lon="16.16432225028402"><ele>357.0</ele><time>2026-05-02T14:52:09.999Z</time></trkpt><trkpt lat="50.33711969683694" lon="16.16410860116956"><ele>354.6666666666667</ele><time>2026-05-02T14:52:10.999Z</time></trkpt><trkpt lat="50.3370760082706" lon="16.163896532946872"><ele>352.33333333333337</ele><time>2026-05-02T14:52:11.999Z</time></trkpt><trkpt lat="50.33702326234745" lon="16.163680278141566"><ele>350.0</ele><time>2026-05-02T14:52:12.999Z</time></trkpt><trkpt lat="50.33695356495306" lon="16.16343948134223"><ele>349.0</ele><time>2026-05-02T14:52:13.999Z</time></trkpt><trkpt lat="50.33688225781136" lon="16.16317450974371"><ele>348.0</ele><time>2026-05-02T14:52:14.999Z</time></trkpt><trkpt lat="50.33681147848509" lon="16.162891433643193"><ele>347.0</ele><time>2026-05-02T14:52:15.999Z</time></trkpt><trkpt lat="50.33674339369764" lon="16.1625959330484"><ele>346.0</ele><time>2026-05-02T14:52:16.999Z</time></trkpt><trkpt lat="50.33667199140622" lon="16.162296813626007"><ele>345.0</ele><time>2026-05-02T14:52:17.999Z</time></trkpt><trkpt lat="50.33659393838668" lon="16.162005835615144"><ele>344.0</ele><time>2026-05-02T14:52:18.999Z</time></trkpt><trkpt lat="50.336518010941916" lon="16.161729413363318"><ele>343.6666666666667</ele><time>2026-05-02T14:52:19.999Z</time></trkpt><trkpt lat="50.33645023449975" lon="16.1614691607168"><ele>343.3333333333333</ele><time>2026-05-02T14:52:20.999Z</time></trkpt><trkpt lat="50.336380535014705" lon="16.161229035463094"><ele>343.0</ele><time>2026-05-02T14:52:21.999Z</time></trkpt><trkpt lat="50.33629795902479" lon="16.161013554231022"><ele>343.25</ele><time>2026-05-02T14:52:22.999Z</time></trkpt><trkpt lat="50.33620499321512" lon="16.160832069876626"><ele>343.5</ele><time>2026-05-02T14:52:23.999Z</time></trkpt><trkpt lat="50.336102705783674" lon="16.160690298711003"><ele>343.75</ele><time>2026-05-02T14:52:24.999Z</time></trkpt><trkpt lat="50.3359855797876" lon="16.160558520676457"><ele>344.0</ele><time>2026-05-02T14:52:25.999Z</time></trkpt><trkpt lat="50.335869372619" lon="16.16043637691518"><ele>344.0</ele><time>2026-05-02T14:52:26.999Z</time></trkpt><trkpt lat="50.335758464777825" lon="16.160318142930976"><ele>344.0</ele><time>2026-05-02T14:52:27.999Z</time></trkpt><trkpt lat="50.33564661358422" lon="16.160189932138376"><ele>344.0</ele><time>2026-05-02T14:52:28.999Z</time></trkpt><trkpt lat="50.33553357999919" lon="16.160062856508542"><ele>344.0</ele><time>2026-05-02T14:52:29.999Z</time></trkpt><trkpt lat="50.335426751870976" lon="16.1599374539316"><ele>342.5</ele><time>2026-05-02T14:52:30.999Z</time></trkpt><trkpt lat="50.3353251639019" lon="16.159780484771506"><ele>341.0</ele><time>2026-05-02T14:52:31.999Z</time></trkpt><trkpt lat="50.33521948542552" lon="16.15961976820735"><ele>339.5</ele><time>2026-05-02T14:52:32.999Z</time></trkpt><trkpt lat="50.33512673956353" lon="16.15945580904082"><ele>338.0</ele><time>2026-05-02T14:52:33.999Z</time></trkpt><trkpt lat="50.335039783797775" lon="16.159287901562884"><ele>338.0</ele><time>2026-05-02T14:52:34.999Z</time></trkpt><trkpt lat="50.334962755146805" lon="16.159117951808934"><ele>338.0</ele><time>2026-05-02T14:52:35.999Z</time></trkpt><trkpt lat="50.33488605511056" lon="16.158948385502228"><ele>338.0</ele><time>2026-05-02T14:52:36.999Z</time></trkpt><trkpt lat="50.334814459890794" lon="16.158778614588147"><ele>338.0</ele><time>2026-05-02T14:52:37.999Z</time></trkpt><trkpt lat="50.334758296786276" lon="16.158607933966024"><ele>337.75</ele><time>2026-05-02T14:52:38.999Z</time></trkpt><trkpt lat="50.334732563988176" lon="16.158403426768768"><ele>337.5</ele><time>2026-05-02T14:52:39.999Z</time></trkpt><trkpt lat="50.33473153134751" lon="16.15818539426051"><ele>337.25</ele><time>2026-05-02T14:52:40.999Z</time></trkpt><trkpt lat="50.3347318773012" lon="16.15797815842975"><ele>337.0</ele><time>2026-05-02T14:52:41.999Z</time></trkpt><trkpt lat="50.334724373227296" lon="16.157766898028175"><ele>331.0</ele><time>2026-05-02T14:52:42.999Z</time></trkpt><trkpt lat="50.33469019291839" lon="16.157519858563195"><ele>325.0</ele><time>2026-05-02T14:52:43.999Z</time></trkpt><trkpt lat="50.33464139111414" lon="16.15725962103257"><ele>319.0</ele><time>2026-05-02T14:52:44.999Z</time></trkpt><trkpt lat="50.33456201687491" lon="16.156999367639564"><ele>318.5</ele><time>2026-05-02T14:52:45.999Z</time></trkpt><trkpt lat="50.33447972207616" lon="16.15671420277337"><ele>318.0</ele><time>2026-05-02T14:52:46.999Z</time></trkpt><trkpt lat="50.334360222061804" lon="16.15636869605655"><ele>319.0</ele><time>2026-05-02T14:52:47.999Z</time></trkpt><trkpt lat="50.33422232831101" lon="16.15597133894922"><ele>320.0</ele><time>2026-05-02T14:52:48.999Z</time></trkpt><trkpt lat="50.33410611983713" lon="16.15563496479118"><ele>322.33333333333337</ele><time>2026-05-02T14:52:49.999Z</time></trkpt><trkpt lat="50.33400839827581" lon="16.15535707077596"><ele>324.6666666666667</ele><time>2026-05-02T14:52:50.999Z</time></trkpt><trkpt lat="50.33387667547617" lon="16.155138071496346"><ele>327.0</ele><time>2026-05-02T14:52:51.999Z</time></trkpt><trkpt lat="50.33371295462933" lon="16.154973302353095"><ele>330.6666666666667</ele><time>2026-05-02T14:52:52.999Z</time></trkpt><trkpt lat="50.33352287057075" lon="16.15484322441949"><ele>334.33333333333337</ele><time>2026-05-02T14:52:53.999Z</time></trkpt><trkpt lat="50.333298377871486" lon="16.154710240734754"><ele>338.0</ele><time>2026-05-02T14:52:54.999Z</time></trkpt><trkpt lat="50.333092213507456" lon="16.154510736304243"><ele>339.33333333333337</ele><time>2026-05-02T14:52:55.999Z</time></trkpt><trkpt lat="50.33291194263269" lon="16.154351422361195"><ele>340.6666666666667</ele><time>2026-05-02T14:52:56.999Z</time></trkpt><trkpt lat="50.33275544239537" lon="16.154173752436392"><ele>342.0</ele><time>2026-05-02T14:52:57.999Z</time></trkpt><trkpt lat="50.33260151123866" lon="16.153991586465533"><ele>343.6666666666667</ele><time>2026-05-02T14:52:58.999Z</time></trkpt><trkpt lat="50.33246960115562" lon="16.15384376503019"><ele>345.33333333333337</ele><time>2026-05-02T14:52:59.999Z</time></trkpt><trkpt lat="50.33231741112166" lon="16.153746349058075"><ele>347.0</ele><time>2026-05-02T14:53:00.999Z</time></trkpt><trkpt lat="50.33212702051491" lon="16.15370233391089"><ele>348.0</ele><time>2026-05-02T14:53:01.999Z</time></trkpt><trkpt lat="50.331927641219735" lon="16.1537058602038"><ele>349.0</ele><time>2026-05-02T14:53:02.999Z</time></trkpt><trkpt lat="50.33175051493358" lon="16.153653637646674"><ele>350.0</ele><time>2026-05-02T14:53:03.999Z</time></trkpt><trkpt lat="50.33159197603885" lon="16.153600299879812"><ele>350.0</ele><time>2026-05-02T14:53:04.999Z</time></trkpt><trkpt lat="50.33145135807988" lon="16.153483149781735"><ele>350.0</ele><time>2026-05-02T14:53:05.999Z</time></trkpt><trkpt lat="50.33130090367545" lon="16.15335684347702"><ele>350.0</ele><time>2026-05-02T14:53:06.999Z</time></trkpt><trkpt lat="50.33115121773169" lon="16.153202677516415"><ele>349.0</ele><time>2026-05-02T14:53:07.999Z</time></trkpt><trkpt lat="50.331014662322346" lon="16.153053116064026"><ele>348.0</ele><time>2026-05-02T14:53:08.999Z</time></trkpt><trkpt lat="50.33087948952532" lon="16.15288927823696"><ele>347.0</ele><time>2026-05-02T14:53:09.999Z</time></trkpt><trkpt lat="50.33074761408539" lon="16.152717257002152"><ele>347.0</ele><time>2026-05-02T14:53:10.999Z</time></trkpt><trkpt lat="50.33061882517626" lon="16.152549242228808"><ele>347.0</ele><time>2026-05-02T14:53:12Z</time></trkpt><trkpt lat="50.33049928279341" lon="16.152392481849034"><ele>347.0</ele><time>2026-05-02T14:53:13Z</time></trkpt><trkpt lat="50.33038204505208" lon="16.152244458841196"><ele>345.0</ele><time>2026-05-02T14:53:14Z</time></trkpt><trkpt lat="50.33026530972396" lon="16.152094856677422"><ele>343.0</ele><time>2026-05-02T14:53:15Z</time></trkpt><trkpt lat="50.33014430471554" lon="16.151936841784043"><ele>341.0</ele><time>2026-05-02T14:53:16Z</time></trkpt><trkpt lat="50.330019110342825" lon="16.15178031901042"><ele>341.0</ele><time>2026-05-02T14:53:17Z</time></trkpt><trkpt lat="50.32990110993462" lon="16.151631137784165"><ele>341.0</ele><time>2026-05-02T14:53:18Z</time></trkpt><trkpt lat="50.32978485440772" lon="16.15148104803193"><ele>341.0</ele><time>2026-05-02T14:53:19Z</time></trkpt><trkpt lat="50.32966478633534" lon="16.151323410548468"><ele>339.33333333333337</ele><time>2026-05-02T14:53:20Z</time></trkpt><trkpt lat="50.32954160547846" lon="16.151166188224604"><ele>337.6666666666667</ele><time>2026-05-02T14:53:21Z</time></trkpt><trkpt lat="50.329416061322625" lon="16.151013463194808"><ele>336.0</ele><time>2026-05-02T14:53:22Z</time></trkpt><trkpt lat="50.32929831251606" lon="16.150858444346635"><ele>336.0</ele><time>2026-05-02T14:53:23Z</time></trkpt><trkpt lat="50.329187197638824" lon="16.150712760338"><ele>336.0</ele><time>2026-05-02T14:53:24Z</time></trkpt><trkpt lat="50.32907692031145" lon="16.150583030840217"><ele>336.0</ele><time>2026-05-02T14:53:25Z</time></trkpt><trkpt lat="50.328979346225076" lon="16.150468599874785"><ele>336.0</ele><time>2026-05-02T14:53:26Z</time></trkpt><trkpt lat="50.32888583765396" lon="16.15035677133733"><ele>335.4</ele><time>2026-05-02T14:53:27Z</time></trkpt><trkpt lat="50.32879595448537" lon="16.150253073457744"><ele>334.8</ele><time>2026-05-02T14:53:28Z</time></trkpt><trkpt lat="50.328712439882466" lon="16.15015151401463"><ele>334.2</ele><time>2026-05-02T14:53:29Z</time></trkpt><trkpt lat="50.32863489008716" lon="16.150057606245138"><ele>333.59999999999997</ele><time>2026-05-02T14:53:30Z</time></trkpt><trkpt lat="50.32856177946252" lon="16.149967010519138"><ele>333.0</ele><time>2026-05-02T14:53:31Z</time></trkpt><trkpt lat="50.32848839514111" lon="16.149895742057"><ele>334.0</ele><time>2026-05-02T14:53:32Z</time></trkpt><trkpt lat="50.32841521567667" lon="16.14983263493357"><ele>335.0</ele><time>2026-05-02T14:53:33Z</time></trkpt><trkpt lat="50.32834011139599" lon="16.149777685447052"><ele>336.0</ele><time>2026-05-02T14:53:34Z</time></trkpt><trkpt lat="50.328270374401" lon="16.149748980726887"><ele>337.0</ele><time>2026-05-02T14:53:35Z</time></trkpt><trkpt lat="50.32816851794132" lon="16.149713281443436"><ele>338.0</ele><time>2026-05-02T14:53:37Z</time></trkpt><trkpt lat="50.32803186699466" lon="16.149897467594837"><ele>338.25</ele><time>2026-05-02T14:53:39Z</time></trkpt><trkpt lat="50.327954277551335" lon="16.150045627389197"><ele>338.5</ele><time>2026-05-02T14:53:40Z</time></trkpt><trkpt lat="50.32786197352226" lon="16.15022878778309"><ele>338.75</ele><time>2026-05-02T14:53:41Z</time></trkpt><trkpt lat="50.32774239229037" lon="16.150412450209238"><ele>339.0</ele><time>2026-05-02T14:53:42Z</time></trkpt><trkpt lat="50.327618088497275" lon="16.15062139519092"><ele>335.6666666666667</ele><time>2026-05-02T14:53:43Z</time></trkpt><trkpt lat="50.327482924697854" lon="16.150824690066443"><ele>332.33333333333337</ele><time>2026-05-02T14:53:44Z</time></trkpt><trkpt lat="50.327348499342094" lon="16.151010370673653"><ele>329.0</ele><time>2026-05-02T14:53:45Z</time></trkpt><trkpt lat="50.327212876316764" lon="16.15118848834745"><ele>328.33333333333337</ele><time>2026-05-02T14:53:46Z</time></trkpt><trkpt lat="50.327071706552466" lon="16.151362604252707"><ele>327.6666666666667</ele><time>2026-05-02T14:53:47Z</time></trkpt><trkpt lat="50.32692087014214" lon="16.151534943060536"><ele>327.0</ele><time>2026-05-02T14:53:48Z</time></trkpt><trkpt lat="50.32676626995898" lon="16.151703775715173"><ele>324.6666666666667</ele><time>2026-05-02T14:53:49Z</time></trkpt><trkpt lat="50.32660750586352" lon="16.151854061080957"><ele>322.33333333333337</ele><time>2026-05-02T14:53:50Z</time></trkpt><trkpt lat="50.32645677529252" lon="16.151988257034873"><ele>320.0</ele><time>2026-05-02T14:53:51Z</time></trkpt><trkpt lat="50.32629834766456" lon="16.152122084427134"><ele>318.6666666666667</ele><time>2026-05-02T14:53:52Z</time></trkpt><trkpt lat="50.32613383330141" lon="16.152237629104874"><ele>317.3333333333333</ele><time>2026-05-02T14:53:53Z</time></trkpt><trkpt lat="50.32596056244141" lon="16.152337155658973"><ele>316.0</ele><time>2026-05-02T14:53:54Z</time></trkpt><trkpt lat="50.325783821342995" lon="16.1524257823203"><ele>315.0</ele><time>2026-05-02T14:53:55Z</time></trkpt><trkpt lat="50.32559771636527" lon="16.15250049985898"><ele>314.0</ele><time>2026-05-02T14:53:56Z</time></trkpt><trkpt lat="50.325403428453036" lon="16.152565735585537"><ele>313.0</ele><time>2026-05-02T14:53:57Z</time></trkpt><trkpt lat="50.325199779788996" lon="16.152615833748193"><ele>313.0</ele><time>2026-05-02T14:53:58Z</time></trkpt><trkpt lat="50.32498363914349" lon="16.152645980850863"><ele>313.0</ele><time>2026-05-02T14:53:59Z</time></trkpt><trkpt lat="50.32476258895749" lon="16.152649969350744"><ele>313.0</ele><time>2026-05-02T14:54:00Z</time></trkpt><trkpt lat="50.32453593623815" lon="16.152637477599804"><ele>313.66666666666663</ele><time>2026-05-02T14:54:01Z</time></trkpt><trkpt lat="50.32433006177228" lon="16.152592164685323"><ele>314.3333333333333</ele><time>2026-05-02T14:54:02Z</time></trkpt><trkpt lat="50.3241384845566" lon="16.152539649832242"><ele>315.0</ele><time>2026-05-02T14:54:03Z</time></trkpt><trkpt lat="50.323956309243954" lon="16.152466211214094"><ele>315.0</ele><time>2026-05-02T14:54:04Z</time></trkpt><trkpt lat="50.323775970107285" lon="16.152377523861595"><ele>315.0</ele><time>2026-05-02T14:54:05Z</time></trkpt><trkpt lat="50.323595146121775" lon="16.152273100285676"><ele>315.0</ele><time>2026-05-02T14:54:06Z</time></trkpt><trkpt lat="50.32340907365063" lon="16.152152676205816"><ele>315.0</ele><time>2026-05-02T14:54:07Z</time></trkpt><trkpt lat="50.3232204751234" lon="16.15201884468218"><ele>315.0</ele><time>2026-05-02T14:54:08Z</time></trkpt><trkpt lat="50.32303277319751" lon="16.151871000889404"><ele>315.0</ele><time>2026-05-02T14:54:09Z</time></trkpt><trkpt lat="50.322869916057094" lon="16.151704527136513"><ele>312.3333333333333</ele><time>2026-05-02T14:54:10Z</time></trkpt><trkpt lat="50.32270927283664" lon="16.151510837353403"><ele>309.66666666666663</ele><time>2026-05-02T14:54:11Z</time></trkpt><trkpt lat="50.32255385415172" lon="16.151303616531475"><ele>307.0</ele><time>2026-05-02T14:54:12Z</time></trkpt><trkpt lat="50.32241201387572" lon="16.15109165332373"><ele>307.0</ele><time>2026-05-02T14:54:13Z</time></trkpt><trkpt lat="50.322276829347395" lon="16.150877211981637"><ele>307.0</ele><time>2026-05-02T14:54:14Z</time></trkpt><trkpt lat="50.322145128967804" lon="16.15066468738322"><ele>307.0</ele><time>2026-05-02T14:54:15Z</time></trkpt><trkpt lat="50.32201387328558" lon="16.150448363359477"><ele>306.0</ele><time>2026-05-02T14:54:16Z</time></trkpt><trkpt lat="50.321862960161745" lon="16.150185572046812"><ele>305.0</ele><time>2026-05-02T14:54:17Z</time></trkpt><trkpt lat="50.32170319455489" lon="16.14986211008717"><ele>304.5</ele><time>2026-05-02T14:54:18Z</time></trkpt><trkpt lat="50.321559354600964" lon="16.149522242445812"><ele>304.0</ele><time>2026-05-02T14:54:19Z</time></trkpt><trkpt lat="50.32144095642118" lon="16.14921497528292"><ele>303.3333333333333</ele><time>2026-05-02T14:54:20Z</time></trkpt><trkpt lat="50.321326883721" lon="16.148926133536005"><ele>302.6666666666667</ele><time>2026-05-02T14:54:21Z</time></trkpt><trkpt lat="50.32121852823883" lon="16.148665893678963"><ele>302.0</ele><time>2026-05-02T14:54:22Z</time></trkpt><trkpt lat="50.321119608206665" lon="16.148423784220235"><ele>301.33333333333337</ele><time>2026-05-02T14:54:23Z</time></trkpt><trkpt lat="50.32103037160433" lon="16.148202940320317"><ele>300.6666666666667</ele><time>2026-05-02T14:54:24Z</time></trkpt><trkpt lat="50.32094664764259" lon="16.14800074271334"><ele>300.0</ele><time>2026-05-02T14:54:25Z</time></trkpt><trkpt lat="50.32086372888183" lon="16.147811428765834"><ele>300.0</ele><time>2026-05-02T14:54:26Z</time></trkpt><trkpt lat="50.32075884048905" lon="16.14762568772819"><ele>300.0</ele><time>2026-05-02T14:54:27Z</time></trkpt><trkpt lat="50.32061692157875" lon="16.147438714428752"><ele>300.0</ele><time>2026-05-02T14:54:28Z</time></trkpt><trkpt lat="50.32045325523654" lon="16.147287098341497"><ele>301.0</ele><time>2026-05-02T14:54:29Z</time></trkpt><trkpt lat="50.320267263925594" lon="16.147190058921815"><ele>302.0</ele><time>2026-05-02T14:54:30Z</time></trkpt><trkpt lat="50.32006535242361" lon="16.147152073962495"><ele>303.0</ele><time>2026-05-02T14:54:31Z</time></trkpt><trkpt lat="50.319847647450416" lon="16.14717881018554"><ele>304.0</ele><time>2026-05-02T14:54:32Z</time></trkpt><trkpt lat="50.31961733599368" lon="16.147289478486307"><ele>305.0</ele><time>2026-05-02T14:54:33Z</time></trkpt><trkpt lat="50.31937006142004" lon="16.147463932692048"><ele>305.0</ele><time>2026-05-02T14:54:34Z</time></trkpt><trkpt lat="50.31910747150005" lon="16.147634330578413"><ele>305.0</ele><time>2026-05-02T14:54:35Z</time></trkpt><trkpt lat="50.31882421736468" lon="16.147828872870576"><ele>304.5</ele><time>2026-05-02T14:54:36Z</time></trkpt><trkpt lat="50.31850861863789" lon="16.148047453272817"><ele>304.0</ele><time>2026-05-02T14:54:37Z</time></trkpt><trkpt lat="50.318174239915734" lon="16.148282872226797"><ele>305.5</ele><time>2026-05-02T14:54:38Z</time></trkpt><trkpt lat="50.31782247334095" lon="16.148547584847176"><ele>307.0</ele><time>2026-05-02T14:54:39Z</time></trkpt><trkpt lat="50.317471364654416" lon="16.1488283637708"><ele>307.0</ele><time>2026-05-02T14:54:40Z</time></trkpt><trkpt lat="50.31716305889192" lon="16.14908582623342"><ele>307.0</ele><time>2026-05-02T14:54:41Z</time></trkpt><trkpt lat="50.31687416147875" lon="16.149333055797207"><ele>307.0</ele><time>2026-05-02T14:54:42Z</time></trkpt><trkpt lat="50.316608099116955" lon="16.14956696233479"><ele>307.0</ele><time>2026-05-02T14:54:43Z</time></trkpt><trkpt lat="50.31635784432227" lon="16.149795951848517"><ele>311.0</ele><time>2026-05-02T14:54:44Z</time></trkpt><trkpt lat="50.31612222542885" lon="16.150028801527746"><ele>315.0</ele><time>2026-05-02T14:54:45Z</time></trkpt><trkpt lat="50.31590617609438" lon="16.150275894049177"><ele>315.0</ele><time>2026-05-02T14:54:46Z</time></trkpt><trkpt lat="50.315711299402416" lon="16.150572365651637"><ele>315.0</ele><time>2026-05-02T14:54:47Z</time></trkpt><trkpt lat="50.31553629747032" lon="16.150939803860403"><ele>315.0</ele><time>2026-05-02T14:54:48Z</time></trkpt><trkpt lat="50.31536631543439" lon="16.151361680107264"><ele>315.0</ele><time>2026-05-02T14:54:49Z</time></trkpt><trkpt lat="50.31519692470445" lon="16.15178507273674"><ele>315.0</ele><time>2026-05-02T14:54:50Z</time></trkpt><trkpt lat="50.31501683116133" lon="16.152212332049736"><ele>315.0</ele><time>2026-05-02T14:54:51Z</time></trkpt><trkpt lat="50.314829342209144" lon="16.1526262318312"><ele>316.5</ele><time>2026-05-02T14:54:52Z</time></trkpt><trkpt lat="50.31464846879097" lon="16.153007576411014"><ele>318.0</ele><time>2026-05-02T14:54:53Z</time></trkpt><trkpt lat="50.31447933679615" lon="16.15335282629937"><ele>318.0</ele><time>2026-05-02T14:54:54Z</time></trkpt><trkpt lat="50.31430909417452" lon="16.15367925198299"><ele>318.0</ele><time>2026-05-02T14:54:55Z</time></trkpt><trkpt lat="50.31413581568151" lon="16.154006708645305"><ele>318.0</ele><time>2026-05-02T14:54:56Z</time></trkpt><trkpt lat="50.31396107793322" lon="16.15432846542123"><ele>318.0</ele><time>2026-05-02T14:54:57Z</time></trkpt><trkpt lat="50.31378724139788" lon="16.15463356680705"><ele>319.5</ele><time>2026-05-02T14:54:58Z</time></trkpt><trkpt lat="50.313609485468774" lon="16.1549207978525"><ele>321.0</ele><time>2026-05-02T14:54:59Z</time></trkpt><trkpt lat="50.31341086027535" lon="16.155184866607904"><ele>321.0</ele><time>2026-05-02T14:55:00Z</time></trkpt><trkpt lat="50.31315752375721" lon="16.155388637163306"><ele>321.0</ele><time>2026-05-02T14:55:01Z</time></trkpt><trkpt lat="50.31288695256106" lon="16.15557437027044"><ele>321.0</ele><time>2026-05-02T14:55:02Z</time></trkpt><trkpt lat="50.31259043690469" lon="16.155756065471834"><ele>321.0</ele><time>2026-05-02T14:55:03Z</time></trkpt><trkpt lat="50.31228286953265" lon="16.155945967087913"><ele>321.0</ele><time>2026-05-02T14:55:04Z</time></trkpt><trkpt lat="50.31196667945716" lon="16.156141520775794"><ele>321.0</ele><time>2026-05-02T14:55:05Z</time></trkpt><trkpt lat="50.311666814959324" lon="16.15633834357586"><ele>321.5</ele><time>2026-05-02T14:55:06Z</time></trkpt><trkpt lat="50.31139063492992" lon="16.15653014640542"><ele>322.0</ele><time>2026-05-02T14:55:07Z</time></trkpt><trkpt lat="50.31111693183721" lon="16.156726623833688"><ele>322.0</ele><time>2026-05-02T14:55:08Z</time></trkpt><trkpt lat="50.310848780248385" lon="16.156921611404847"><ele>322.0</ele><time>2026-05-02T14:55:09Z</time></trkpt><trkpt lat="50.31059802099267" lon="16.15711620970674"><ele>321.5</ele><time>2026-05-02T14:55:10Z</time></trkpt><trkpt lat="50.31034442132428" lon="16.15733930947638"><ele>321.0</ele><time>2026-05-02T14:55:11Z</time></trkpt><trkpt lat="50.310091022309045" lon="16.157571966888717"><ele>321.0</ele><time>2026-05-02T14:55:12Z</time></trkpt><trkpt lat="50.309834160370876" lon="16.1578037901534"><ele>321.0</ele><time>2026-05-02T14:55:13Z</time></trkpt><trkpt lat="50.30957547078832" lon="16.1580371700073"><ele>320.0</ele><time>2026-05-02T14:55:14Z</time></trkpt><trkpt lat="50.30932610832683" lon="16.158267865315732"><ele>319.0</ele><time>2026-05-02T14:55:15Z</time></trkpt><trkpt lat="50.30909274859984" lon="16.15848703736617"><ele>319.5</ele><time>2026-05-02T14:55:16Z</time></trkpt><trkpt lat="50.30885760769712" lon="16.158706058276334"><ele>320.0</ele><time>2026-05-02T14:55:17Z</time></trkpt><trkpt lat="50.308620022439975" lon="16.158924411709055"><ele>320.5</ele><time>2026-05-02T14:55:18Z</time></trkpt><trkpt lat="50.30838270880653" lon="16.15913713991414"><ele>321.0</ele><time>2026-05-02T14:55:19Z</time></trkpt><trkpt lat="50.30813231057305" lon="16.159350691654907"><ele>320.5</ele><time>2026-05-02T14:55:20Z</time></trkpt><trkpt lat="50.30787282141868" lon="16.159553486624688"><ele>320.0</ele><time>2026-05-02T14:55:21Z</time></trkpt><trkpt lat="50.30760750049351" lon="16.159746091227966"><ele>320.5</ele><time>2026-05-02T14:55:22Z</time></trkpt><trkpt lat="50.30734781395995" lon="16.159923967503317"><ele>321.0</ele><time>2026-05-02T14:55:23Z</time></trkpt><trkpt lat="50.30708711727853" lon="16.160093905733238"><ele>321.5</ele><time>2026-05-02T14:55:24Z</time></trkpt><trkpt lat="50.30682363773815" lon="16.160250508567735"><ele>322.0</ele><time>2026-05-02T14:55:25Z</time></trkpt><trkpt lat="50.306559997137995" lon="16.160392390896387"><ele>320.5</ele><time>2026-05-02T14:55:26Z</time></trkpt><trkpt lat="50.30629378793591" lon="16.160520083424867"><ele>319.0</ele><time>2026-05-02T14:55:27Z</time></trkpt><trkpt lat="50.30602803741828" lon="16.160635431434876"><ele>319.0</ele><time>2026-05-02T14:55:28Z</time></trkpt><trkpt lat="50.305763420413896" lon="16.16074305005879"><ele>319.0</ele><time>2026-05-02T14:55:29Z</time></trkpt><trkpt lat="50.30549587696535" lon="16.160840953365845"><ele>319.0</ele><time>2026-05-02T14:55:30Z</time></trkpt><trkpt lat="50.30524127477441" lon="16.160925792540173"><ele>319.0</ele><time>2026-05-02T14:55:31Z</time></trkpt><trkpt lat="50.3050086622713" lon="16.161005153845217"><ele>319.0</ele><time>2026-05-02T14:55:32Z</time></trkpt><trkpt lat="50.30478875846287" lon="16.16108246151222"><ele>319.0</ele><time>2026-05-02T14:55:33Z</time></trkpt><trkpt lat="50.304581528685304" lon="16.161151070641314"><ele>319.0</ele><time>2026-05-02T14:55:34Z</time></trkpt><trkpt lat="50.30438389850506" lon="16.161220246893404"><ele>318.66666666666663</ele><time>2026-05-02T14:55:35Z</time></trkpt><trkpt lat="50.30419778694059" lon="16.161282162721573"><ele>318.3333333333333</ele><time>2026-05-02T14:55:36Z</time></trkpt><trkpt lat="50.3040116898403" lon="16.161344903234813"><ele>318.0</ele><time>2026-05-02T14:55:37Z</time></trkpt><trkpt lat="50.30382360712976" lon="16.16140451556459"><ele>318.0</ele><time>2026-05-02T14:55:38Z</time></trkpt><trkpt lat="50.30363348085982" lon="16.16145414157034"><ele>318.0</ele><time>2026-05-02T14:55:39Z</time></trkpt><trkpt lat="50.30344224732549" lon="16.161495794039897"><ele>318.0</ele><time>2026-05-02T14:55:40Z</time></trkpt><trkpt lat="50.30324032403071" lon="16.161531270506995"><ele>318.0</ele><time>2026-05-02T14:55:41Z</time></trkpt><trkpt lat="50.30303224546861" lon="16.161561728086717"><ele>318.0</ele><time>2026-05-02T14:55:42Z</time></trkpt><trkpt lat="50.302826780082505" lon="16.161590452789884"><ele>318.0</ele><time>2026-05-02T14:55:43Z</time></trkpt><trkpt lat="50.30263273975604" lon="16.161621122651617"><ele>318.0</ele><time>2026-05-02T14:55:44Z</time></trkpt><trkpt lat="50.30243711464942" lon="16.16166159445152"><ele>318.0</ele><time>2026-05-02T14:55:45Z</time></trkpt><trkpt lat="50.3022327366036" lon="16.161705846622386"><ele>318.0</ele><time>2026-05-02T14:55:46Z</time></trkpt><trkpt lat="50.302004185337566" lon="16.16175737237411"><ele>317.5</ele><time>2026-05-02T14:55:47Z</time></trkpt><trkpt lat="50.301768781872795" lon="16.16182057211153"><ele>317.0</ele><time>2026-05-02T14:55:48Z</time></trkpt><trkpt lat="50.30153421816837" lon="16.161901826482154"><ele>316.5</ele><time>2026-05-02T14:55:49Z</time></trkpt><trkpt lat="50.301314101332046" lon="16.16199403051612"><ele>316.0</ele><time>2026-05-02T14:55:50Z</time></trkpt><trkpt lat="50.301084054246544" lon="16.16209981174052"><ele>316.0</ele><time>2026-05-02T14:55:51Z</time></trkpt><trkpt lat="50.3008533703465" lon="16.16221856314472"><ele>316.0</ele><time>2026-05-02T14:55:52Z</time></trkpt><trkpt lat="50.30062229049219" lon="16.162351534236496"><ele>310.5</ele><time>2026-05-02T14:55:53Z</time></trkpt><trkpt lat="50.3003972724032" lon="16.162494219368185"><ele>305.0</ele><time>2026-05-02T14:55:54Z</time></trkpt><trkpt lat="50.30017119783738" lon="16.162647262387807"><ele>305.0</ele><time>2026-05-02T14:55:55Z</time></trkpt><trkpt lat="50.299950771972256" lon="16.16280500758495"><ele>305.0</ele><time>2026-05-02T14:55:56Z</time></trkpt><trkpt lat="50.29974423601666" lon="16.16296576466943"><ele>305.6666666666667</ele><time>2026-05-02T14:55:57Z</time></trkpt><trkpt lat="50.299550828362136" lon="16.163122949381087"><ele>306.3333333333333</ele><time>2026-05-02T14:55:58Z</time></trkpt><trkpt lat="50.29937153902005" lon="16.16327986708582"><ele>307.0</ele><time>2026-05-02T14:55:59Z</time></trkpt><trkpt lat="50.29920298082768" lon="16.163431519117726"><ele>307.0</ele><time>2026-05-02T14:56:00Z</time></trkpt><trkpt lat="50.2990529151374" lon="16.163588395271542"><ele>307.0</ele><time>2026-05-02T14:56:01Z</time></trkpt><trkpt lat="50.29891063356814" lon="16.16374949292528"><ele>307.0</ele><time>2026-05-02T14:56:02Z</time></trkpt><trkpt lat="50.298765856410874" lon="16.163913317850287"><ele>307.0</ele><time>2026-05-02T14:56:03Z</time></trkpt><trkpt lat="50.298618876472545" lon="16.1640776146764"><ele>307.0</ele><time>2026-05-02T14:56:04Z</time></trkpt><trkpt lat="50.29847866443901" lon="16.164248881364838"><ele>307.0</ele><time>2026-05-02T14:56:05Z</time></trkpt><trkpt lat="50.29834013890174" lon="16.16443634295743"><ele>307.0</ele><time>2026-05-02T14:56:06Z</time></trkpt><trkpt lat="50.29820415425134" lon="16.1646418555144"><ele>307.0</ele><time>2026-05-02T14:56:07Z</time></trkpt><trkpt lat="50.29804908760592" lon="16.164855338414014"><ele>307.0</ele><time>2026-05-02T14:56:08Z</time></trkpt><trkpt lat="50.2978419933147" lon="16.165111024748715"><ele>306.3333333333333</ele><time>2026-05-02T14:56:09Z</time></trkpt><trkpt lat="50.29765942912565" lon="16.165339704317486"><ele>305.6666666666667</ele><time>2026-05-02T14:56:10Z</time></trkpt><trkpt lat="50.297502323823835" lon="16.16556344325711"><ele>305.0</ele><time>2026-05-02T14:56:11Z</time></trkpt><trkpt lat="50.297353244594305" lon="16.16577611726958"><ele>305.0</ele><time>2026-05-02T14:56:12Z</time></trkpt><trkpt lat="50.297189824936474" lon="16.165983780662803"><ele>305.0</ele><time>2026-05-02T14:56:13Z</time></trkpt><trkpt lat="50.29702079058496" lon="16.166189400527305"><ele>305.0</ele><time>2026-05-02T14:56:14Z</time></trkpt><trkpt lat="50.29684446790019" lon="16.166401321583308"><ele>305.6666666666667</ele><time>2026-05-02T14:56:15Z</time></trkpt><trkpt lat="50.2966631465056" lon="16.16660860513467"><ele>306.3333333333333</ele><time>2026-05-02T14:56:16Z</time></trkpt><trkpt lat="50.29648169124373" lon="16.166808180729227"><ele>307.0</ele><time>2026-05-02T14:56:17Z</time></trkpt><trkpt lat="50.29632161322721" lon="16.166977431744485"><ele>307.0</ele><time>2026-05-02T14:56:18Z</time></trkpt><trkpt lat="50.29617373751859" lon="16.167131465585893"><ele>307.0</ele><time>2026-05-02T14:56:19Z</time></trkpt><trkpt lat="50.29604101467156" lon="16.16727021190627"><ele>307.0</ele><time>2026-05-02T14:56:20Z</time></trkpt><trkpt lat="50.29591723079564" lon="16.167397197435267"><ele>307.2</ele><time>2026-05-02T14:56:21Z</time></trkpt><trkpt lat="50.29580253950878" lon="16.167510855661682"><ele>307.4</ele><time>2026-05-02T14:56:22Z</time></trkpt><trkpt lat="50.295696446932865" lon="16.16761521848674"><ele>307.6</ele><time>2026-05-02T14:56:23Z</time></trkpt><trkpt lat="50.29560932731588" lon="16.167681813147738"><ele>307.8</ele><time>2026-05-02T14:56:24Z</time></trkpt><trkpt lat="50.2955384603452" lon="16.167744715012756"><ele>308.0</ele><time>2026-05-02T14:56:25Z</time></trkpt><trkpt lat="50.29547032996933" lon="16.16776854895017"><ele>308.0</ele><time>2026-05-02T14:56:26Z</time></trkpt><trkpt lat="50.29535457349301" lon="16.16775705644639"><ele>308.0</ele><time>2026-05-02T14:56:28Z</time></trkpt><trkpt lat="50.29528287913198" lon="16.167741092183437"><ele>308.0</ele><time>2026-05-02T14:56:29Z</time></trkpt><trkpt lat="50.29521873187831" lon="16.167761512834655"><ele>308.0</ele><time>2026-05-02T14:56:30Z</time></trkpt><trkpt lat="50.2951126894409" lon="16.16795390558136"><ele>308.0</ele><time>2026-05-02T14:56:32Z</time></trkpt><trkpt lat="50.29502410138382" lon="16.168058975410617"><ele>308.0</ele><time>2026-05-02T14:56:33Z</time></trkpt><trkpt lat="50.294904307599936" lon="16.168138318286587"><ele>308.0</ele><time>2026-05-02T14:56:34Z</time></trkpt><trkpt lat="50.29475950559951" lon="16.168217545614898"><ele>308.0</ele><time>2026-05-02T14:56:35Z</time></trkpt><trkpt lat="50.29460770012892" lon="16.168308870709655"><ele>308.0</ele><time>2026-05-02T14:56:36Z</time></trkpt><trkpt lat="50.29443438647138" lon="16.16842023642607"><ele>308.0</ele><time>2026-05-02T14:56:37Z</time></trkpt><trkpt lat="50.294232157691965" lon="16.168543809136548"><ele>308.0</ele><time>2026-05-02T14:56:38Z</time></trkpt><trkpt lat="50.294005867926494" lon="16.16867581363191"><ele>307.0</ele><time>2026-05-02T14:56:39Z</time></trkpt><trkpt lat="50.29374426494349" lon="16.168808767325828"><ele>306.0</ele><time>2026-05-02T14:56:40Z</time></trkpt><trkpt lat="50.2934663890868" lon="16.168932303835355"><ele>306.5</ele><time>2026-05-02T14:56:41Z</time></trkpt><trkpt lat="50.29319012168678" lon="16.169041556772363"><ele>307.0</ele><time>2026-05-02T14:56:42Z</time></trkpt><trkpt lat="50.29292763175975" lon="16.169133711777615"><ele>306.0</ele><time>2026-05-02T14:56:43Z</time></trkpt><trkpt lat="50.292671655419646" lon="16.16921137615334"><ele>305.0</ele><time>2026-05-02T14:56:44Z</time></trkpt><trkpt lat="50.292414591071314" lon="16.169276484356317"><ele>304.0</ele><time>2026-05-02T14:56:45Z</time></trkpt><trkpt lat="50.29216625571054" lon="16.169331501385912"><ele>303.0</ele><time>2026-05-02T14:56:46Z</time></trkpt><trkpt lat="50.291913103319565" lon="16.169378632444317"><ele>303.0</ele><time>2026-05-02T14:56:47Z</time></trkpt><trkpt lat="50.29165490396641" lon="16.169410210182694"><ele>303.0</ele><time>2026-05-02T14:56:48Z</time></trkpt><trkpt lat="50.29138265590878" lon="16.169433821415264"><ele>303.0</ele><time>2026-05-02T14:56:49Z</time></trkpt><trkpt lat="50.29109556070756" lon="16.16945287175117"><ele>303.0</ele><time>2026-05-02T14:56:50Z</time></trkpt><trkpt lat="50.29083835955916" lon="16.16947121227261"><ele>301.0</ele><time>2026-05-02T14:56:51Z</time></trkpt><trkpt lat="50.29058311107878" lon="16.16949291293225"><ele>299.0</ele><time>2026-05-02T14:56:52Z</time></trkpt><trkpt lat="50.290329519686544" lon="16.16951813380392"><ele>299.0</ele><time>2026-05-02T14:56:53Z</time></trkpt><trkpt lat="50.29007163492613" lon="16.169548642621148"><ele>299.0</ele><time>2026-05-02T14:56:54Z</time></trkpt><trkpt lat="50.28982203905076" lon="16.16958138894925"><ele>298.0</ele><time>2026-05-02T14:56:55Z</time></trkpt><trkpt lat="50.289591443900854" lon="16.169620060985448"><ele>297.0</ele><time>2026-05-02T14:56:56Z</time></trkpt><trkpt lat="50.28937800953413" lon="16.169667322148083"><ele>296.0</ele><time>2026-05-02T14:56:57Z</time></trkpt><trkpt lat="50.2891681774662" lon="16.16971762346646"><ele>296.0</ele><time>2026-05-02T14:56:58Z</time></trkpt><trkpt lat="50.28895422757396" lon="16.169787396798515"><ele>296.0</ele><time>2026-05-02T14:56:59Z</time></trkpt><trkpt lat="50.28874249505455" lon="16.169875299422777"><ele>296.0</ele><time>2026-05-02T14:57:00Z</time></trkpt><trkpt lat="50.28852745357811" lon="16.169983664932186"><ele>296.0</ele><time>2026-05-02T14:57:01Z</time></trkpt><trkpt lat="50.28830451269226" lon="16.170107760188497"><ele>296.0</ele><time>2026-05-02T14:57:02Z</time></trkpt><trkpt lat="50.288068807911635" lon="16.170228842285926"><ele>295.5</ele><time>2026-05-02T14:57:03Z</time></trkpt><trkpt lat="50.28782739607783" lon="16.1703566846807"><ele>295.0</ele><time>2026-05-02T14:57:04Z</time></trkpt><trkpt lat="50.287570183334786" lon="16.170512807561657"><ele>295.5</ele><time>2026-05-02T14:57:05Z</time></trkpt><trkpt lat="50.28729911762067" lon="16.1707173906928"><ele>296.0</ele><time>2026-05-02T14:57:06Z</time></trkpt><trkpt lat="50.28701806410176" lon="16.170951103799727"><ele>296.0</ele><time>2026-05-02T14:57:07Z</time></trkpt><trkpt lat="50.28672482861188" lon="16.171214202374685"><ele>296.0</ele><time>2026-05-02T14:57:08Z</time></trkpt><trkpt lat="50.28643235994198" lon="16.171501681484695"><ele>295.5</ele><time>2026-05-02T14:57:09Z</time></trkpt><trkpt lat="50.28614916960378" lon="16.17180782940768"><ele>295.0</ele><time>2026-05-02T14:57:10Z</time></trkpt><trkpt lat="50.28588347480703" lon="16.172119252798506"><ele>295.5</ele><time>2026-05-02T14:57:11Z</time></trkpt><trkpt lat="50.285634964324295" lon="16.17243339980892"><ele>296.0</ele><time>2026-05-02T14:57:12Z</time></trkpt><trkpt lat="50.28539239543251" lon="16.172758534494978"><ele>296.5</ele><time>2026-05-02T14:57:13Z</time></trkpt><trkpt lat="50.28516467984065" lon="16.17310638648723"><ele>297.0</ele><time>2026-05-02T14:57:14Z</time></trkpt><trkpt lat="50.28494735237131" lon="16.173492972271315"><ele>297.0</ele><time>2026-05-02T14:57:15Z</time></trkpt><trkpt lat="50.2847302610119" lon="16.173923625233584"><ele>297.0</ele><time>2026-05-02T14:57:16Z</time></trkpt><trkpt lat="50.28450243288199" lon="16.174385663745348"><ele>297.0</ele><time>2026-05-02T14:57:17Z</time></trkpt><trkpt lat="50.28425459915659" lon="16.174894017355477"><ele>297.0</ele><time>2026-05-02T14:57:18Z</time></trkpt><trkpt lat="50.28400381289813" lon="16.175417771256512"><ele>298.0</ele><time>2026-05-02T14:57:19Z</time></trkpt><trkpt lat="50.28373639864674" lon="16.175957685611667"><ele>299.0</ele><time>2026-05-02T14:57:20Z</time></trkpt><trkpt lat="50.283459867862334" lon="16.176483849382546"><ele>299.5</ele><time>2026-05-02T14:57:21Z</time></trkpt><trkpt lat="50.28319815071603" lon="16.17695323221957"><ele>300.0</ele><time>2026-05-02T14:57:22Z</time></trkpt><trkpt lat="50.28294200621031" lon="16.17742368270709"><ele>300.5</ele><time>2026-05-02T14:57:23Z</time></trkpt><trkpt lat="50.28269766619594" lon="16.177894392736516"><ele>301.0</ele><time>2026-05-02T14:57:24Z</time></trkpt><trkpt lat="50.282471314427674" lon="16.178340031583776"><ele>302.5</ele><time>2026-05-02T14:57:25Z</time></trkpt><trkpt lat="50.28225484279146" lon="16.178766907799673"><ele>304.0</ele><time>2026-05-02T14:57:26Z</time></trkpt><trkpt lat="50.28203376517292" lon="16.17919648531033"><ele>305.0</ele><time>2026-05-02T14:57:27Z</time></trkpt><trkpt lat="50.28181808309807" lon="16.17962276549237"><ele>306.0</ele><time>2026-05-02T14:57:28Z</time></trkpt><trkpt lat="50.28160533578755" lon="16.18003279418866"><ele>306.0</ele><time>2026-05-02T14:57:29Z</time></trkpt><trkpt lat="50.28137987182309" lon="16.18045566880898"><ele>306.0</ele><time>2026-05-02T14:57:30Z</time></trkpt><trkpt lat="50.28114392440584" lon="16.180902535821403"><ele>306.0</ele><time>2026-05-02T14:57:31Z</time></trkpt><trkpt lat="50.280918276803206" lon="16.181354168759146"><ele>306.0</ele><time>2026-05-02T14:57:32Z</time></trkpt><trkpt lat="50.280698763898386" lon="16.181780317396665"><ele>306.0</ele><time>2026-05-02T14:57:33Z</time></trkpt><trkpt lat="50.280480778245504" lon="16.18219698520202"><ele>306.0</ele><time>2026-05-02T14:57:34Z</time></trkpt><trkpt lat="50.28024380181248" lon="16.182641901295618"><ele>306.0</ele><time>2026-05-02T14:57:35Z</time></trkpt><trkpt lat="50.27999755269906" lon="16.183111091817334"><ele>306.0</ele><time>2026-05-02T14:57:36Z</time></trkpt><trkpt lat="50.279750207440415" lon="16.183587816281346"><ele>306.5</ele><time>2026-05-02T14:57:37Z</time></trkpt><trkpt lat="50.27951410581811" lon="16.184027804428883"><ele>307.0</ele><time>2026-05-02T14:57:38Z</time></trkpt><trkpt lat="50.27931775879218" lon="16.184423089829238"><ele>307.0</ele><time>2026-05-02T14:57:39Z</time></trkpt><trkpt lat="50.27911492851239" lon="16.184821436923322"><ele>307.0</ele><time>2026-05-02T14:57:40Z</time></trkpt><trkpt lat="50.27890727563682" lon="16.185224773227908"><ele>309.0</ele><time>2026-05-02T14:57:41Z</time></trkpt><trkpt lat="50.27869580134449" lon="16.185630863945462"><ele>311.0</ele><time>2026-05-02T14:57:42Z</time></trkpt><trkpt lat="50.278487396372114" lon="16.186035707020114"><ele>312.0</ele><time>2026-05-02T14:57:43Z</time></trkpt><trkpt lat="50.278271754583514" lon="16.186452261981895"><ele>313.0</ele><time>2026-05-02T14:57:44Z</time></trkpt><trkpt lat="50.2780491827982" lon="16.186882875135176"><ele>315.5</ele><time>2026-05-02T14:57:45Z</time></trkpt><trkpt lat="50.27782351021234" lon="16.18731053439699"><ele>318.0</ele><time>2026-05-02T14:57:46Z</time></trkpt><trkpt lat="50.277609076634015" lon="16.18772716121024"><ele>318.5</ele><time>2026-05-02T14:57:47Z</time></trkpt><trkpt lat="50.27739503022219" lon="16.188138896782114"><ele>319.0</ele><time>2026-05-02T14:57:48Z</time></trkpt><trkpt lat="50.27717987645994" lon="16.188553940336774"><ele>321.5</ele><time>2026-05-02T14:57:49Z</time></trkpt><trkpt lat="50.27696364336974" lon="16.18898193105317"><ele>324.0</ele><time>2026-05-02T14:57:50Z</time></trkpt><trkpt lat="50.276759184785924" lon="16.18938389485766"><ele>324.0</ele><time>2026-05-02T14:57:51Z</time></trkpt><trkpt lat="50.27656852919527" lon="16.189748866349497"><ele>324.0</ele><time>2026-05-02T14:57:52Z</time></trkpt><trkpt lat="50.276387078766575" lon="16.190097439904285"><ele>323.5</ele><time>2026-05-02T14:57:53Z</time></trkpt><trkpt lat="50.276217814434006" lon="16.19042699927872"><ele>323.0</ele><time>2026-05-02T14:57:54Z</time></trkpt><trkpt lat="50.27604673827757" lon="16.190754585080906"><ele>324.5</ele><time>2026-05-02T14:57:55Z</time></trkpt><trkpt lat="50.27586568582384" lon="16.19107891497888"><ele>326.0</ele><time>2026-05-02T14:57:56Z</time></trkpt><trkpt lat="50.275685121651215" lon="16.191374161060317"><ele>327.5</ele><time>2026-05-02T14:57:57Z</time></trkpt><trkpt lat="50.275482989975735" lon="16.19161880204988"><ele>329.0</ele><time>2026-05-02T14:57:58Z</time></trkpt><trkpt lat="50.27526633113727" lon="16.19186915420666"><ele>329.0</ele><time>2026-05-02T14:57:59Z</time></trkpt><trkpt lat="50.27502784262388" lon="16.192076461496598"><ele>329.0</ele><time>2026-05-02T14:58:00Z</time></trkpt><trkpt lat="50.274773462291485" lon="16.19228722258825"><ele>330.5</ele><time>2026-05-02T14:58:01Z</time></trkpt><trkpt lat="50.274499343006774" lon="16.192505644438626"><ele>332.0</ele><time>2026-05-02T14:58:02Z</time></trkpt><trkpt lat="50.27425972826272" lon="16.192711897815514"><ele>332.0</ele><time>2026-05-02T14:58:03Z</time></trkpt><trkpt lat="50.27404989088619" lon="16.1928900251507"><ele>332.0</ele><time>2026-05-02T14:58:04Z</time></trkpt><trkpt lat="50.27384769375171" lon="16.19301787467663"><ele>331.0</ele><time>2026-05-02T14:58:05Z</time></trkpt><trkpt lat="50.273667221426805" lon="16.19316360711926"><ele>330.0</ele><time>2026-05-02T14:58:06Z</time></trkpt><trkpt lat="50.273500983780906" lon="16.193297195040625"><ele>329.0</ele><time>2026-05-02T14:58:07Z</time></trkpt><trkpt lat="50.27335445274336" lon="16.193413214526135"><ele>330.0</ele><time>2026-05-02T14:58:08Z</time></trkpt><trkpt lat="50.273222754284774" lon="16.193513609337252"><ele>331.0</ele><time>2026-05-02T14:58:09Z</time></trkpt><trkpt lat="50.273106570351956" lon="16.19360293970903"><ele>332.0</ele><time>2026-05-02T14:58:10Z</time></trkpt><trkpt lat="50.27300376751383" lon="16.193708459039193"><ele>333.0</ele><time>2026-05-02T14:58:11Z</time></trkpt><trkpt lat="50.272884625617884" lon="16.193770554635734"><ele>333.0</ele><time>2026-05-02T14:58:12Z</time></trkpt><trkpt lat="50.27278514026335" lon="16.193860162806278"><ele>333.0</ele><time>2026-05-02T14:58:13Z</time></trkpt><trkpt lat="50.27268034308243" lon="16.19393995782707"><ele>333.0</ele><time>2026-05-02T14:58:14Z</time></trkpt><trkpt lat="50.27257053002652" lon="16.194014737442508"><ele>333.0</ele><time>2026-05-02T14:58:15Z</time></trkpt><trkpt lat="50.27245666015263" lon="16.194084517668013"><ele>333.0</ele><time>2026-05-02T14:58:16Z</time></trkpt><trkpt lat="50.27233720988082" lon="16.194143673660253"><ele>333.0</ele><time>2026-05-02T14:58:17Z</time></trkpt><trkpt lat="50.272213380228926" lon="16.194191331678415"><ele>333.0</ele><time>2026-05-02T14:58:18Z</time></trkpt><trkpt lat="50.27206736725473" lon="16.1942093994266"><ele>333.0</ele><time>2026-05-02T14:58:19Z</time></trkpt><trkpt lat="50.271925648191726" lon="16.194265630625203"><ele>331.5</ele><time>2026-05-02T14:58:20Z</time></trkpt><trkpt lat="50.27178827855695" lon="16.19429481492123"><ele>330.0</ele><time>2026-05-02T14:58:21Z</time></trkpt><trkpt lat="50.27165437424315" lon="16.194332501802684"><ele>328.5</ele><time>2026-05-02T14:58:22Z</time></trkpt><trkpt lat="50.27151284295009" lon="16.19433184259813"><ele>327.0</ele><time>2026-05-02T14:58:23Z</time></trkpt><trkpt lat="50.27138045192507" lon="16.194377963350007"><ele>323.3333333333333</ele><time>2026-05-02T14:58:24Z</time></trkpt><trkpt lat="50.27124682190263" lon="16.19439695426922"><ele>319.66666666666663</ele><time>2026-05-02T14:58:25Z</time></trkpt><trkpt lat="50.2711014728562" lon="16.194428347705376"><ele>316.0</ele><time>2026-05-02T14:58:26Z</time></trkpt><trkpt lat="50.27090808022554" lon="16.19444847361133"><ele>316.0</ele><time>2026-05-02T14:58:27Z</time></trkpt><trkpt lat="50.27068063749196" lon="16.194519910187076"><ele>316.0</ele><time>2026-05-02T14:58:28Z</time></trkpt><trkpt lat="50.27047480811065" lon="16.19455005196872"><ele>316.0</ele><time>2026-05-02T14:58:29Z</time></trkpt><trkpt lat="50.2702916645305" lon="16.19463001561438"><ele>313.3333333333333</ele><time>2026-05-02T14:58:30Z</time></trkpt><trkpt lat="50.2701221105004" lon="16.194712514568806"><ele>310.6666666666667</ele><time>2026-05-02T14:58:31Z</time></trkpt><trkpt lat="50.26996375183109" lon="16.194788618975597"><ele>308.0</ele><time>2026-05-02T14:58:32Z</time></trkpt><trkpt lat="50.26982736462641" lon="16.194860179098093"><ele>308.5</ele><time>2026-05-02T14:58:33Z</time></trkpt><trkpt lat="50.26971006034758" lon="16.194922583581363"><ele>309.0</ele><time>2026-05-02T14:58:34Z</time></trkpt><trkpt lat="50.26957890867511" lon="16.194984698476933"><ele>309.5</ele><time>2026-05-02T14:58:35Z</time></trkpt><trkpt lat="50.26944255508191" lon="16.195053311876567"><ele>310.0</ele><time>2026-05-02T14:58:36Z</time></trkpt><trkpt lat="50.26930181473504" lon="16.195132083928236"><ele>310.0</ele><time>2026-05-02T14:58:37Z</time></trkpt><trkpt lat="50.26917069506223" lon="16.195190944488683"><ele>310.0</ele><time>2026-05-02T14:58:38Z</time></trkpt><trkpt lat="50.26902785376904" lon="16.195257525023067"><ele>310.0</ele><time>2026-05-02T14:58:39Z</time></trkpt><trkpt lat="50.268887595895215" lon="16.19532759483002"><ele>310.0</ele><time>2026-05-02T14:58:40Z</time></trkpt><trkpt lat="50.26874741657054" lon="16.19540326026186"><ele>311.25</ele><time>2026-05-02T14:58:41Z</time></trkpt><trkpt lat="50.26861103673361" lon="16.19547415272234"><ele>312.5</ele><time>2026-05-02T14:58:42Z</time></trkpt><trkpt lat="50.26847689223898" lon="16.19554476716016"><ele>313.75</ele><time>2026-05-02T14:58:43Z</time></trkpt><trkpt lat="50.26834708425693" lon="16.195605401298316"><ele>315.0</ele><time>2026-05-02T14:58:44Z</time></trkpt><trkpt lat="50.26821975432453" lon="16.19566460013615"><ele>316.75</ele><time>2026-05-02T14:58:45Z</time></trkpt><trkpt lat="50.268093165880884" lon="16.195724390045058"><ele>318.5</ele><time>2026-05-02T14:58:46Z</time></trkpt><trkpt lat="50.267968112727985" lon="16.195782242804864"><ele>320.25</ele><time>2026-05-02T14:58:47Z</time></trkpt><trkpt lat="50.26784600370183" lon="16.19584026227314"><ele>322.0</ele><time>2026-05-02T14:58:48Z</time></trkpt><trkpt lat="50.267721917719285" lon="16.195900775835096"><ele>322.0</ele><time>2026-05-02T14:58:49Z</time></trkpt><trkpt lat="50.26757686962903" lon="16.195976416838995"><ele>322.0</ele><time>2026-05-02T14:58:50Z</time></trkpt><trkpt lat="50.26738412373876" lon="16.196073817901762"><ele>322.0</ele><time>2026-05-02T14:58:51Z</time></trkpt><trkpt lat="50.26715720512508" lon="16.196175462847066"><ele>324.3333333333333</ele><time>2026-05-02T14:58:52Z</time></trkpt><trkpt lat="50.26708803251426" lon="16.196206420569006"><ele>326.6666666666667</ele><time>2026-05-02T14:58:53Z</time></trkpt><trkpt lat="50.26688914914893" lon="16.196306288990552"><ele>329.0</ele><time>2026-05-02T14:58:54Z</time></trkpt><trkpt lat="50.266683347219335" lon="16.19640641412146"><ele>328.6666666666667</ele><time>2026-05-02T14:58:55Z</time></trkpt><trkpt lat="50.26648623622973" lon="16.196505964405553"><ele>328.3333333333333</ele><time>2026-05-02T14:58:56Z</time></trkpt><trkpt lat="50.266284082204706" lon="16.196597180623574"><ele>328.0</ele><time>2026-05-02T14:58:57Z</time></trkpt><trkpt lat="50.26609672435009" lon="16.19668610091171"><ele>328.0</ele><time>2026-05-02T14:58:58Z</time></trkpt><trkpt lat="50.26593057676786" lon="16.19676830770988"><ele>328.0</ele><time>2026-05-02T14:58:59Z</time></trkpt><trkpt lat="50.265766929116204" lon="16.196848496129782"><ele>328.0</ele><time>2026-05-02T14:59:00Z</time></trkpt><trkpt lat="50.26560292276472" lon="16.196929869738014"><ele>328.0</ele><time>2026-05-02T14:59:01Z</time></trkpt><trkpt lat="50.26544136692044" lon="16.19701329901202"><ele>328.0</ele><time>2026-05-02T14:59:02Z</time></trkpt><trkpt lat="50.265277418167535" lon="16.197090317876242"><ele>328.0</ele><time>2026-05-02T14:59:03Z</time></trkpt><trkpt lat="50.265114830727946" lon="16.19716158718648"><ele>328.0</ele><time>2026-05-02T14:59:04Z</time></trkpt><trkpt lat="50.26495332384848" lon="16.19724144567704"><ele>328.0</ele><time>2026-05-02T14:59:05Z</time></trkpt><trkpt lat="50.26479288527903" lon="16.19732268394582"><ele>328.0</ele><time>2026-05-02T14:59:06Z</time></trkpt><trkpt lat="50.26463230702059" lon="16.197405650133508"><ele>328.0</ele><time>2026-05-02T14:59:07Z</time></trkpt><trkpt lat="50.26447116524545" lon="16.197487544519525"><ele>328.0</ele><time>2026-05-02T14:59:08Z</time></trkpt><trkpt lat="50.26429475313117" lon="16.19757765542481"><ele>328.0</ele><time>2026-05-02T14:59:09Z</time></trkpt><trkpt lat="50.26409676358072" lon="16.197697078825712"><ele>331.0</ele><time>2026-05-02T14:59:10Z</time></trkpt><trkpt lat="50.26389078044824" lon="16.19785176755401"><ele>334.0</ele><time>2026-05-02T14:59:11Z</time></trkpt><trkpt lat="50.26367674793816" lon="16.19803340748723"><ele>332.5</ele><time>2026-05-02T14:59:12Z</time></trkpt><trkpt lat="50.26345861281765" lon="16.19825761008869"><ele>331.0</ele><time>2026-05-02T14:59:13Z</time></trkpt><trkpt lat="50.263251692775825" lon="16.198528345744396"><ele>331.5</ele><time>2026-05-02T14:59:14Z</time></trkpt><trkpt lat="50.263053219387174" lon="16.198844084239095"><ele>332.0</ele><time>2026-05-02T14:59:15Z</time></trkpt><trkpt lat="50.26288323308252" lon="16.19923018667365"><ele>330.5</ele><time>2026-05-02T14:59:16Z</time></trkpt><trkpt lat="50.26272254088805" lon="16.199631986275378"><ele>329.0</ele><time>2026-05-02T14:59:17Z</time></trkpt><trkpt lat="50.26257545943737" lon="16.200062983679224"><ele>328.5</ele><time>2026-05-02T14:59:18Z</time></trkpt><trkpt lat="50.26243498445837" lon="16.200518343882155"><ele>328.0</ele><time>2026-05-02T14:59:19Z</time></trkpt><trkpt lat="50.26227812450188" lon="16.200955241163538"><ele>327.5</ele><time>2026-05-02T14:59:20Z</time></trkpt><trkpt lat="50.26215736505398" lon="16.201318618858156"><ele>327.0</ele><time>2026-05-02T14:59:21Z</time></trkpt><trkpt lat="50.262059912680435" lon="16.201655036153408"><ele>327.0</ele><time>2026-05-02T14:59:22Z</time></trkpt><trkpt lat="50.26195112056421" lon="16.201972347172287"><ele>327.0</ele><time>2026-05-02T14:59:23Z</time></trkpt><trkpt lat="50.2618413071619" lon="16.202298252428264"><ele>327.6666666666667</ele><time>2026-05-02T14:59:24Z</time></trkpt><trkpt lat="50.26173620313879" lon="16.202610180030398"><ele>328.33333333333337</ele><time>2026-05-02T14:59:25Z</time></trkpt><trkpt lat="50.261638765943054" lon="16.20291107425485"><ele>329.0</ele><time>2026-05-02T14:59:26Z</time></trkpt><trkpt lat="50.26153836941982" lon="16.203225671259442"><ele>327.0</ele><time>2026-05-02T14:59:27Z</time></trkpt><trkpt lat="50.261436251272514" lon="16.20354697794249"><ele>325.0</ele><time>2026-05-02T14:59:28Z</time></trkpt><trkpt lat="50.261311441089816" lon="16.20386673532188"><ele>325.5</ele><time>2026-05-02T14:59:29Z</time></trkpt><trkpt lat="50.261199012529495" lon="16.20420085848245"><ele>326.0</ele><time>2026-05-02T14:59:30Z</time></trkpt><trkpt lat="50.261084130760956" lon="16.204543008353347"><ele>326.0</ele><time>2026-05-02T14:59:31Z</time></trkpt><trkpt lat="50.2609734584672" lon="16.204872956317388"><ele>326.0</ele><time>2026-05-02T14:59:32Z</time></trkpt><trkpt lat="50.260860649242325" lon="16.205211157182294"><ele>326.0</ele><time>2026-05-02T14:59:33Z</time></trkpt><trkpt lat="50.26074315700811" lon="16.205563397665127"><ele>326.0</ele><time>2026-05-02T14:59:34Z</time></trkpt><trkpt lat="50.26061556365624" lon="16.205944461573065"><ele>323.5</ele><time>2026-05-02T14:59:35Z</time></trkpt><trkpt lat="50.26047337509269" lon="16.206367753044077"><ele>321.0</ele><time>2026-05-02T14:59:36Z</time></trkpt><trkpt lat="50.26033803955011" lon="16.206816410233284"><ele>321.0</ele><time>2026-05-02T14:59:37Z</time></trkpt><trkpt lat="50.260175109522066" lon="16.20725732172311"><ele>321.0</ele><time>2026-05-02T14:59:38Z</time></trkpt><trkpt lat="50.26003432996919" lon="16.207681074419625"><ele>321.0</ele><time>2026-05-02T14:59:39Z</time></trkpt><trkpt lat="50.25991019148957" lon="16.20805447253477"><ele>321.0</ele><time>2026-05-02T14:59:40Z</time></trkpt><trkpt lat="50.25979646646386" lon="16.208391860410007"><ele>319.6666666666667</ele><time>2026-05-02T14:59:41Z</time></trkpt><trkpt lat="50.25969306989719" lon="16.208698244903804"><ele>318.33333333333337</ele><time>2026-05-02T14:59:42Z</time></trkpt><trkpt lat="50.259608405699794" lon="16.20898787460306"><ele>317.0</ele><time>2026-05-02T14:59:43Z</time></trkpt><trkpt lat="50.25952168075428" lon="16.209243602165166"><ele>317.0</ele><time>2026-05-02T14:59:44Z</time></trkpt><trkpt lat="50.259444799311474" lon="16.209485214655338"><ele>317.0</ele><time>2026-05-02T14:59:45Z</time></trkpt><trkpt lat="50.25937973672853" lon="16.209686541138893"><ele>317.0</ele><time>2026-05-02T14:59:46Z</time></trkpt><trkpt lat="50.25931803314829" lon="16.20986671807686"><ele>317.0</ele><time>2026-05-02T14:59:47Z</time></trkpt><trkpt lat="50.25925873266083" lon="16.210039509780742"><ele>317.75</ele><time>2026-05-02T14:59:48Z</time></trkpt><trkpt lat="50.259193853312134" lon="16.21023734198935"><ele>318.5</ele><time>2026-05-02T14:59:49Z</time></trkpt><trkpt lat="50.25912685327332" lon="16.21044038970481"><ele>319.25</ele><time>2026-05-02T14:59:50Z</time></trkpt><trkpt lat="50.25906519511202" lon="16.210620965551144"><ele>320.0</ele><time>2026-05-02T14:59:51Z</time></trkpt><trkpt lat="50.259004422012836" lon="16.21080574148019"><ele>320.0</ele><time>2026-05-02T14:59:52Z</time></trkpt><trkpt lat="50.25893845682751" lon="16.210995627359512"><ele>320.0</ele><time>2026-05-02T14:59:53Z</time></trkpt><trkpt lat="50.2588549249914" lon="16.211182387686616"><ele>320.0</ele><time>2026-05-02T14:59:54Z</time></trkpt><trkpt lat="50.258787661476234" lon="16.211374672899865"><ele>320.0</ele><time>2026-05-02T14:59:55Z</time></trkpt><trkpt lat="50.258723616308735" lon="16.21154775508827"><ele>320.0</ele><time>2026-05-02T14:59:56Z</time></trkpt><trkpt lat="50.2586512861409" lon="16.211712170543805"><ele>320.0</ele><time>2026-05-02T14:59:57Z</time></trkpt><trkpt lat="50.25858236793964" lon="16.21189803887725"><ele>320.0</ele><time>2026-05-02T14:59:58Z</time></trkpt><trkpt lat="50.25849048106387" lon="16.212068625229126"><ele>320.0</ele><time>2026-05-02T14:59:59Z</time></trkpt><trkpt lat="50.25839227626411" lon="16.21223609458233"><ele>320.5</ele><time>2026-05-02T15:00:00Z</time></trkpt><trkpt lat="50.258292454282895" lon="16.212393048759377"><ele>321.0</ele><time>2026-05-02T15:00:01Z</time></trkpt><trkpt lat="50.258185878984875" lon="16.21254698451118"><ele>321.5</ele><time>2026-05-02T15:00:02Z</time></trkpt><trkpt lat="50.25807720609585" lon="16.212697908545113"><ele>322.0</ele><time>2026-05-02T15:00:03Z</time></trkpt><trkpt lat="50.25796462202103" lon="16.21284480713713"><ele>322.3333333333333</ele><time>2026-05-02T15:00:04Z</time></trkpt><trkpt lat="50.25785744061117" lon="16.213003653611494"><ele>322.6666666666667</ele><time>2026-05-02T15:00:05Z</time></trkpt><trkpt lat="50.257738251632084" lon="16.21318370702887"><ele>323.0</ele><time>2026-05-02T15:00:06Z</time></trkpt><trkpt lat="50.257601856562424" lon="16.213366249659458"><ele>323.33333333333337</ele><time>2026-05-02T15:00:07Z</time></trkpt><trkpt lat="50.257471680388406" lon="16.213560161347225"><ele>323.6666666666667</ele><time>2026-05-02T15:00:08Z</time></trkpt><trkpt lat="50.2573582485116" lon="16.213721022675852"><ele>324.0</ele><time>2026-05-02T15:00:09Z</time></trkpt><trkpt lat="50.25725101103236" lon="16.213862731783976"><ele>325.3333333333333</ele><time>2026-05-02T15:00:10Z</time></trkpt><trkpt lat="50.25713873171903" lon="16.214004523752426"><ele>326.66666666666663</ele><time>2026-05-02T15:00:11Z</time></trkpt><trkpt lat="50.257008645055606" lon="16.214141835305643"><ele>328.0</ele><time>2026-05-02T15:00:12Z</time></trkpt><trkpt lat="50.256866683983425" lon="16.21426487911342"><ele>328.0</ele><time>2026-05-02T15:00:13Z</time></trkpt><trkpt lat="50.25672097613084" lon="16.21438390512517"><ele>328.0</ele><time>2026-05-02T15:00:14Z</time></trkpt><trkpt lat="50.25656686525717" lon="16.21449614153582"><ele>328.0</ele><time>2026-05-02T15:00:15Z</time></trkpt><trkpt lat="50.2564091479122" lon="16.214598742171386"><ele>327.66666666666663</ele><time>2026-05-02T15:00:16Z</time></trkpt><trkpt lat="50.25625365713066" lon="16.214687336233794"><ele>327.3333333333333</ele><time>2026-05-02T15:00:17Z</time></trkpt><trkpt lat="50.25610169806772" lon="16.214783541987256"><ele>327.0</ele><time>2026-05-02T15:00:18Z</time></trkpt><trkpt lat="50.25593412301885" lon="16.214883952151595"><ele>327.6666666666667</ele><time>2026-05-02T15:00:19Z</time></trkpt><trkpt lat="50.25576004258408" lon="16.214986258569052"><ele>328.33333333333337</ele><time>2026-05-02T15:00:20Z</time></trkpt><trkpt lat="50.25557252471443" lon="16.215099433460257"><ele>329.0</ele><time>2026-05-02T15:00:21Z</time></trkpt><trkpt lat="50.25538132606521" lon="16.215222140207604"><ele>329.0</ele><time>2026-05-02T15:00:22Z</time></trkpt><trkpt lat="50.25517086333141" lon="16.21535082295632"><ele>329.0</ele><time>2026-05-02T15:00:23Z</time></trkpt><trkpt lat="50.2549251795073" lon="16.215510164851832"><ele>329.5</ele><time>2026-05-02T15:00:24Z</time></trkpt><trkpt lat="50.254641656331735" lon="16.215696113374644"><ele>330.0</ele><time>2026-05-02T15:00:25Z</time></trkpt><trkpt lat="50.25432510290783" lon="16.215886707419216"><ele>330.0</ele><time>2026-05-02T15:00:26Z</time></trkpt><trkpt lat="50.253965777686616" lon="16.21608984479131"><ele>330.0</ele><time>2026-05-02T15:00:27Z</time></trkpt><trkpt lat="50.25358805528549" lon="16.2163046719846"><ele>330.0</ele><time>2026-05-02T15:00:28Z</time></trkpt><trkpt lat="50.25319934829555" lon="16.216529624340666"><ele>330.0</ele><time>2026-05-02T15:00:29Z</time></trkpt><trkpt lat="50.25279370813358" lon="16.21677669123889"><ele>330.0</ele><time>2026-05-02T15:00:30Z</time></trkpt><trkpt lat="50.2524318376389" lon="16.21700752085826"><ele>330.0</ele><time>2026-05-02T15:00:31Z</time></trkpt><trkpt lat="50.25210085585659" lon="16.21721857161395"><ele>330.0</ele><time>2026-05-02T15:00:32Z</time></trkpt><trkpt lat="50.251780574300085" lon="16.217415544223993"><ele>330.0</ele><time>2026-05-02T15:00:33Z</time></trkpt><trkpt lat="50.25146563794266" lon="16.217610018290852"><ele>328.0</ele><time>2026-05-02T15:00:34Z</time></trkpt><trkpt lat="50.25116038017989" lon="16.217797100734657"><ele>326.0</ele><time>2026-05-02T15:00:35Z</time></trkpt><trkpt lat="50.25086523363189" lon="16.217983168967294"><ele>325.5</ele><time>2026-05-02T15:00:36Z</time></trkpt><trkpt lat="50.250574346813636" lon="16.218162104403927"><ele>325.0</ele><time>2026-05-02T15:00:37Z</time></trkpt><trkpt lat="50.25027066874655" lon="16.218347483528504"><ele>325.0</ele><time>2026-05-02T15:00:38Z</time></trkpt><trkpt lat="50.249942484804535" lon="16.21856115327395"><ele>325.0</ele><time>2026-05-02T15:00:39Z</time></trkpt><trkpt lat="50.24959596127678" lon="16.2187827193415"><ele>325.0</ele><time>2026-05-02T15:00:40Z</time></trkpt><trkpt lat="50.24923032472107" lon="16.218988304273562"><ele>325.0</ele><time>2026-05-02T15:00:41Z</time></trkpt><trkpt lat="50.24885076040419" lon="16.21919340992467"><ele>324.5</ele><time>2026-05-02T15:00:42Z</time></trkpt><trkpt lat="50.248455601304045" lon="16.219423505487352"><ele>324.0</ele><time>2026-05-02T15:00:43Z</time></trkpt><trkpt lat="50.248057986722685" lon="16.219668286365682"><ele>324.0</ele><time>2026-05-02T15:00:44Z</time></trkpt><trkpt lat="50.247666387232904" lon="16.21991346030113"><ele>324.0</ele><time>2026-05-02T15:00:45Z</time></trkpt><trkpt lat="50.247292855366894" lon="16.220145656370065"><ele>324.0</ele><time>2026-05-02T15:00:46Z</time></trkpt><trkpt lat="50.246940819714" lon="16.220362316481893"><ele>324.0</ele><time>2026-05-02T15:00:47Z</time></trkpt><trkpt lat="50.24660612915632" lon="16.220566063791257"><ele>327.0</ele><time>2026-05-02T15:00:48Z</time></trkpt><trkpt lat="50.246292804207705" lon="16.22075777826591"><ele>330.0</ele><time>2026-05-02T15:00:49Z</time></trkpt><trkpt lat="50.245990087111736" lon="16.220940689306996"><ele>330.0</ele><time>2026-05-02T15:00:50Z</time></trkpt><trkpt lat="50.245712071084306" lon="16.221107955858553"><ele>330.0</ele><time>2026-05-02T15:00:51Z</time></trkpt><trkpt lat="50.24545422621564" lon="16.22126313676052"><ele>328.5</ele><time>2026-05-02T15:00:52Z</time></trkpt><trkpt lat="50.24520789825209" lon="16.221411810837434"><ele>327.0</ele><time>2026-05-02T15:00:53Z</time></trkpt><trkpt lat="50.244979110545" lon="16.22155493804079"><ele>329.0</ele><time>2026-05-02T15:00:54Z</time></trkpt><trkpt lat="50.24475477625181" lon="16.221709201057735"><ele>331.0</ele><time>2026-05-02T15:00:55Z</time></trkpt><trkpt lat="50.24452023201011" lon="16.221888523168992"><ele>331.0</ele><time>2026-05-02T15:00:56Z</time></trkpt><trkpt lat="50.24425549984188" lon="16.222091488704745"><ele>331.0</ele><time>2026-05-02T15:00:57Z</time></trkpt><trkpt lat="50.24397853182736" lon="16.222296189226267"><ele>333.0</ele><time>2026-05-02T15:00:58Z</time></trkpt><trkpt lat="50.24372728692879" lon="16.222477893611398"><ele>335.0</ele><time>2026-05-02T15:00:59Z</time></trkpt><trkpt lat="50.243458176110714" lon="16.22268030319545"><ele>335.0</ele><time>2026-05-02T15:01:00Z</time></trkpt><trkpt lat="50.24315071510465" lon="16.222896558398475"><ele>335.0</ele><time>2026-05-02T15:01:01Z</time></trkpt><trkpt lat="50.242826146560866" lon="16.223119095997777"><ele>335.5</ele><time>2026-05-02T15:01:02Z</time></trkpt><trkpt lat="50.24250529685649" lon="16.223349764749738"><ele>336.0</ele><time>2026-05-02T15:01:03Z</time></trkpt><trkpt lat="50.242227231332436" lon="16.223554842889126"><ele>333.0</ele><time>2026-05-02T15:01:04Z</time></trkpt><trkpt lat="50.24197455535033" lon="16.22373975020095"><ele>330.0</ele><time>2026-05-02T15:01:05Z</time></trkpt><trkpt lat="50.24173632290878" lon="16.22391929790874"><ele>333.5</ele><time>2026-05-02T15:01:06Z</time></trkpt><trkpt lat="50.241495639948454" lon="16.224100760858654"><ele>337.0</ele><time>2026-05-02T15:01:07Z</time></trkpt><trkpt lat="50.24126407865108" lon="16.224282424199593"><ele>337.0</ele><time>2026-05-02T15:01:08Z</time></trkpt><trkpt lat="50.24099971682162" lon="16.224450449863262"><ele>337.0</ele><time>2026-05-02T15:01:09Z</time></trkpt><trkpt lat="50.2407347353519" lon="16.224644107732125"><ele>339.5</ele><time>2026-05-02T15:01:10Z</time></trkpt><trkpt lat="50.24050575713477" lon="16.224814758074544"><ele>342.0</ele><time>2026-05-02T15:01:11Z</time></trkpt><trkpt lat="50.24029009006232" lon="16.22493655256656"><ele>342.0</ele><time>2026-05-02T15:01:12Z</time></trkpt><trkpt lat="50.240090169100185" lon="16.22504510922732"><ele>342.0</ele><time>2026-05-02T15:01:13Z</time></trkpt><trkpt lat="50.239901810552524" lon="16.225143683677725"><ele>342.0</ele><time>2026-05-02T15:01:14Z</time></trkpt><trkpt lat="50.23972578988787" lon="16.22523735822131"><ele>340.6666666666667</ele><time>2026-05-02T15:01:15Z</time></trkpt><trkpt lat="50.23956153625407" lon="16.225323382382054"><ele>339.33333333333337</ele><time>2026-05-02T15:01:16Z</time></trkpt><trkpt lat="50.239409394434325" lon="16.22540059656585"><ele>338.0</ele><time>2026-05-02T15:01:17Z</time></trkpt><trkpt lat="50.239268422033376" lon="16.225469329596173"><ele>338.0</ele><time>2026-05-02T15:01:18Z</time></trkpt><trkpt lat="50.23913537472885" lon="16.2255360443362"><ele>338.0</ele><time>2026-05-02T15:01:19Z</time></trkpt><trkpt lat="50.23900603315579" lon="16.225605100363154"><ele>338.0</ele><time>2026-05-02T15:01:20Z</time></trkpt><trkpt lat="50.23888138310343" lon="16.225669253853653"><ele>338.0</ele><time>2026-05-02T15:01:21Z</time></trkpt><trkpt lat="50.23875111699579" lon="16.225735362671593"><ele>338.75</ele><time>2026-05-02T15:01:22Z</time></trkpt><trkpt lat="50.23862251097032" lon="16.225794124296353"><ele>339.5</ele><time>2026-05-02T15:01:23Z</time></trkpt><trkpt lat="50.2384983498373" lon="16.225863818014986"><ele>340.25</ele><time>2026-05-02T15:01:24Z</time></trkpt><trkpt lat="50.23836612478474" lon="16.22597073696901"><ele>341.0</ele><time>2026-05-02T15:01:25Z</time></trkpt><trkpt lat="50.23824929027511" lon="16.226139970478023"><ele>341.0</ele><time>2026-05-02T15:01:26Z</time></trkpt><trkpt lat="50.23814528393709" lon="16.22634094483927"><ele>341.0</ele><time>2026-05-02T15:01:27Z</time></trkpt><trkpt lat="50.238042068492724" lon="16.226540737563663"><ele>341.0</ele><time>2026-05-02T15:01:28Z</time></trkpt><trkpt lat="50.23794891653484" lon="16.226723799926052"><ele>340.75</ele><time>2026-05-02T15:01:29Z</time></trkpt><trkpt lat="50.23786081906763" lon="16.2268838935518"><ele>340.5</ele><time>2026-05-02T15:01:30Z</time></trkpt><trkpt lat="50.23778645549565" lon="16.227031465569272"><ele>340.25</ele><time>2026-05-02T15:01:31Z</time></trkpt><trkpt lat="50.237702424244716" lon="16.22718483702478"><ele>340.0</ele><time>2026-05-02T15:01:32Z</time></trkpt><trkpt lat="50.237607524509734" lon="16.227329380869566"><ele>339.75</ele><time>2026-05-02T15:01:33Z</time></trkpt><trkpt lat="50.237512322032394" lon="16.227452827915087"><ele>339.5</ele><time>2026-05-02T15:01:34Z</time></trkpt><trkpt lat="50.237417574724944" lon="16.227574245588563"><ele>339.25</ele><time>2026-05-02T15:01:35Z</time></trkpt><trkpt lat="50.237322819360756" lon="16.22766442289304"><ele>339.0</ele><time>2026-05-02T15:01:36Z</time></trkpt><trkpt lat="50.23722085207314" lon="16.22774925761796"><ele>339.0</ele><time>2026-05-02T15:01:37Z</time></trkpt><trkpt lat="50.23712197159893" lon="16.22782606975021"><ele>339.0</ele><time>2026-05-02T15:01:38Z</time></trkpt><trkpt lat="50.237032128611624" lon="16.227893605872733"><ele>339.0</ele><time>2026-05-02T15:01:39Z</time></trkpt><trkpt lat="50.23694537182162" lon="16.227943715656185"><ele>339.0</ele><time>2026-05-02T15:01:40Z</time></trkpt><trkpt lat="50.23687454734924" lon="16.227981271459594"><ele>339.0</ele><time>2026-05-02T15:01:41Z</time></trkpt><trkpt lat="50.23675463723362" lon="16.22805768268973"><ele>339.0</ele><time>2026-05-02T15:01:43Z</time></trkpt><trkpt lat="50.23669305659032" lon="16.228096960748704"><ele>339.0</ele><time>2026-05-02T15:01:44Z</time></trkpt><trkpt lat="50.23661720494734" lon="16.228142629437354"><ele>339.0</ele><time>2026-05-02T15:01:45Z</time></trkpt><trkpt lat="50.236526037446126" lon="16.228192819232078"><ele>339.0</ele><time>2026-05-02T15:01:46Z</time></trkpt><trkpt lat="50.23641601385482" lon="16.22824599683008"><ele>339.0</ele><time>2026-05-02T15:01:47Z</time></trkpt><trkpt lat="50.23628756111621" lon="16.22832039973695"><ele>338.6666666666667</ele><time>2026-05-02T15:01:48Z</time></trkpt><trkpt lat="50.23614023247972" lon="16.228408365030752"><ele>338.33333333333337</ele><time>2026-05-02T15:01:49Z</time></trkpt><trkpt lat="50.23598122781946" lon="16.22850914062747"><ele>338.0</ele><time>2026-05-02T15:01:50Z</time></trkpt><trkpt lat="50.23580826888518" lon="16.2286064161671"><ele>336.6666666666667</ele><time>2026-05-02T15:01:51Z</time></trkpt><trkpt lat="50.2356230670672" lon="16.228708930074703"><ele>335.3333333333333</ele><time>2026-05-02T15:01:52Z</time></trkpt><trkpt lat="50.2354297181855" lon="16.22882146051507"><ele>334.0</ele><time>2026-05-02T15:01:53Z</time></trkpt><trkpt lat="50.235225863350166" lon="16.228937589159372"><ele>333.3333333333333</ele><time>2026-05-02T15:01:54Z</time></trkpt><trkpt lat="50.23501749182635" lon="16.229065566860935"><ele>332.6666666666667</ele><time>2026-05-02T15:01:55Z</time></trkpt><trkpt lat="50.23481455309001" lon="16.229189328622688"><ele>332.0</ele><time>2026-05-02T15:01:56Z</time></trkpt><trkpt lat="50.234627648469335" lon="16.22929694680498"><ele>332.0</ele><time>2026-05-02T15:01:57Z</time></trkpt><trkpt lat="50.23445071547341" lon="16.22940072587932"><ele>332.0</ele><time>2026-05-02T15:01:58Z</time></trkpt><trkpt lat="50.234257513658044" lon="16.229509804547888"><ele>332.0</ele><time>2026-05-02T15:01:59Z</time></trkpt><trkpt lat="50.23405622753686" lon="16.22962599392432"><ele>330.0</ele><time>2026-05-02T15:02:00Z</time></trkpt><trkpt lat="50.23384347685099" lon="16.229754530971643"><ele>328.0</ele><time>2026-05-02T15:02:01Z</time></trkpt><trkpt lat="50.23362547313138" lon="16.22988275938807"><ele>328.0</ele><time>2026-05-02T15:02:02Z</time></trkpt><trkpt lat="50.23340176105877" lon="16.230017422047695"><ele>328.0</ele><time>2026-05-02T15:02:03Z</time></trkpt><trkpt lat="50.23317632064807" lon="16.230154530165308"><ele>326.0</ele><time>2026-05-02T15:02:04Z</time></trkpt><trkpt lat="50.23295096920823" lon="16.23028477934364"><ele>324.0</ele><time>2026-05-02T15:02:05Z</time></trkpt><trkpt lat="50.23271859751236" lon="16.230401903436075"><ele>324.0</ele><time>2026-05-02T15:02:06Z</time></trkpt><trkpt lat="50.232477641946055" lon="16.230488433392704"><ele>324.0</ele><time>2026-05-02T15:02:07Z</time></trkpt><trkpt lat="50.23222088721671" lon="16.230496070956317"><ele>323.0</ele><time>2026-05-02T15:02:08Z</time></trkpt><trkpt lat="50.23194951974227" lon="16.230473630829277"><ele>322.0</ele><time>2026-05-02T15:02:09Z</time></trkpt><trkpt lat="50.23166309868325" lon="16.23046783664914"><ele>320.5</ele><time>2026-05-02T15:02:10Z</time></trkpt><trkpt lat="50.2313720549192" lon="16.230420947347653"><ele>319.0</ele><time>2026-05-02T15:02:11Z</time></trkpt><trkpt lat="50.231071393333984" lon="16.23038803160835"><ele>319.0</ele><time>2026-05-02T15:02:12Z</time></trkpt><trkpt lat="50.230786100492246" lon="16.23036578005516"><ele>319.0</ele><time>2026-05-02T15:02:13Z</time></trkpt><trkpt lat="50.23052564221294" lon="16.230341698895344"><ele>319.0</ele><time>2026-05-02T15:02:14Z</time></trkpt><trkpt lat="50.23029213253554" lon="16.230321906450218"><ele>319.0</ele><time>2026-05-02T15:02:15Z</time></trkpt><trkpt lat="50.230069697775335" lon="16.230300344839637"><ele>319.0</ele><time>2026-05-02T15:02:16Z</time></trkpt><trkpt lat="50.229871530509264" lon="16.23028255273028"><ele>319.0</ele><time>2026-05-02T15:02:17Z</time></trkpt><trkpt lat="50.229694310834255" lon="16.2302689132672"><ele>319.0</ele><time>2026-05-02T15:02:18Z</time></trkpt><trkpt lat="50.22954589235498" lon="16.230262809222587"><ele>319.25</ele><time>2026-05-02T15:02:19Z</time></trkpt><trkpt lat="50.229404978339424" lon="16.230262024309795"><ele>319.5</ele><time>2026-05-02T15:02:20Z</time></trkpt><trkpt lat="50.22927758477994" lon="16.23024972863925"><ele>319.75</ele><time>2026-05-02T15:02:21Z</time></trkpt><trkpt lat="50.229153268173754" lon="16.230230912719033"><ele>320.0</ele><time>2026-05-02T15:02:22Z</time></trkpt><trkpt lat="50.229031143157336" lon="16.23021781882287"><ele>319.75</ele><time>2026-05-02T15:02:23Z</time></trkpt><trkpt lat="50.22890801611367" lon="16.230205539796753"><ele>319.5</ele><time>2026-05-02T15:02:24Z</time></trkpt><trkpt lat="50.22878775919143" lon="16.230188259789603"><ele>319.25</ele><time>2026-05-02T15:02:25Z</time></trkpt><trkpt lat="50.228662456522116" lon="16.230176696014077"><ele>319.0</ele><time>2026-05-02T15:02:26Z</time></trkpt><trkpt lat="50.22853525838982" lon="16.230169247254427"><ele>319.0</ele><time>2026-05-02T15:02:27Z</time></trkpt><trkpt lat="50.22840641071452" lon="16.23012988894802"><ele>319.0</ele><time>2026-05-02T15:02:28Z</time></trkpt><trkpt lat="50.22828071126232" lon="16.23009817687164"><ele>319.0</ele><time>2026-05-02T15:02:29Z</time></trkpt><trkpt lat="50.228166511896276" lon="16.230098470565416"><ele>319.0</ele><time>2026-05-02T15:02:30Z</time></trkpt><trkpt lat="50.22806212554713" lon="16.230116608629395"><ele>319.4</ele><time>2026-05-02T15:02:31Z</time></trkpt><trkpt lat="50.22796623424371" lon="16.230119604482216"><ele>319.79999999999995</ele><time>2026-05-02T15:02:32Z</time></trkpt><trkpt lat="50.22786691951337" lon="16.2300990909885"><ele>320.20000000000005</ele><time>2026-05-02T15:02:33Z</time></trkpt><trkpt lat="50.22776177130394" lon="16.230086208711146"><ele>320.6</ele><time>2026-05-02T15:02:34Z</time></trkpt><trkpt lat="50.227652833471254" lon="16.23006866492889"><ele>321.0</ele><time>2026-05-02T15:02:35Z</time></trkpt><trkpt lat="50.22754245173404" lon="16.230035273906978"><ele>321.0</ele><time>2026-05-02T15:02:36Z</time></trkpt><trkpt lat="50.227431971600815" lon="16.22999679282588"><ele>321.0</ele><time>2026-05-02T15:02:37Z</time></trkpt><trkpt lat="50.227322177600556" lon="16.229952150946033"><ele>321.0</ele><time>2026-05-02T15:02:38Z</time></trkpt><trkpt lat="50.2272159356" lon="16.229902061068"><ele>321.0</ele><time>2026-05-02T15:02:39Z</time></trkpt><trkpt lat="50.22711096387315" lon="16.229850323149876"><ele>321.0</ele><time>2026-05-02T15:02:40Z</time></trkpt><trkpt lat="50.22700608746101" lon="16.22980313691848"><ele>321.6</ele><time>2026-05-02T15:02:41Z</time></trkpt><trkpt lat="50.22690048424428" lon="16.229761947415238"><ele>322.20000000000005</ele><time>2026-05-02T15:02:42Z</time></trkpt><trkpt lat="50.226793140975964" lon="16.229722942773005"><ele>322.79999999999995</ele><time>2026-05-02T15:02:43Z</time></trkpt><trkpt lat="50.22668648173493" lon="16.22968829533723"><ele>323.4</ele><time>2026-05-02T15:02:44Z</time></trkpt><trkpt lat="50.226578216126846" lon="16.22966218558228"><ele>324.0</ele><time>2026-05-02T15:02:45Z</time></trkpt><trkpt lat="50.22646744931779" lon="16.229646750077023"><ele>325.75</ele><time>2026-05-02T15:02:46Z</time></trkpt><trkpt lat="50.22635148924082" lon="16.229647909141367"><ele>327.5</ele><time>2026-05-02T15:02:47Z</time></trkpt><trkpt lat="50.2262336523399" lon="16.22966026443328"><ele>329.25</ele><time>2026-05-02T15:02:48Z</time></trkpt><trkpt lat="50.226114401363844" lon="16.229686037211813"><ele>331.0</ele><time>2026-05-02T15:02:49Z</time></trkpt><trkpt lat="50.22598941926688" lon="16.229722036299236"><ele>331.0</ele><time>2026-05-02T15:02:50Z</time></trkpt><trkpt lat="50.22586042127002" lon="16.229762341813544"><ele>331.0</ele><time>2026-05-02T15:02:51Z</time></trkpt><trkpt lat="50.22573638606756" lon="16.229814132375168"><ele>331.0</ele><time>2026-05-02T15:02:52Z</time></trkpt><trkpt lat="50.225601147290256" lon="16.229841750581883"><ele>331.0</ele><time>2026-05-02T15:02:53Z</time></trkpt><trkpt lat="50.22547153176427" lon="16.229910835894493"><ele>330.5</ele><time>2026-05-02T15:02:54Z</time></trkpt><trkpt lat="50.22533710086708" lon="16.22995085220991"><ele>330.0</ele><time>2026-05-02T15:02:55Z</time></trkpt><trkpt lat="50.22519334408038" lon="16.230000129874032"><ele>329.5</ele><time>2026-05-02T15:02:56Z</time></trkpt><trkpt lat="50.225051256242374" lon="16.23004682559285"><ele>329.0</ele><time>2026-05-02T15:02:57Z</time></trkpt><trkpt lat="50.224923304186895" lon="16.230090725924388"><ele>329.0</ele><time>2026-05-02T15:02:58Z</time></trkpt><trkpt lat="50.22480046132396" lon="16.230130127819972"><ele>329.0</ele><time>2026-05-02T15:02:59Z</time></trkpt><trkpt lat="50.224662404778954" lon="16.23017401956704"><ele>329.0</ele><time>2026-05-02T15:03:00Z</time></trkpt><trkpt lat="50.22451905711489" lon="16.23021937809733"><ele>329.0</ele><time>2026-05-02T15:03:01Z</time></trkpt><trkpt lat="50.22437448180546" lon="16.230267083085764"><ele>329.0</ele><time>2026-05-02T15:03:02Z</time></trkpt><trkpt lat="50.22422975095022" lon="16.230315165846914"><ele>329.0</ele><time>2026-05-02T15:03:03Z</time></trkpt><trkpt lat="50.22409008777348" lon="16.230354165263783"><ele>329.0</ele><time>2026-05-02T15:03:04Z</time></trkpt><trkpt lat="50.223961056368495" lon="16.230394154103603"><ele>329.0</ele><time>2026-05-02T15:03:05Z</time></trkpt><trkpt lat="50.22383620522728" lon="16.230437075128947"><ele>329.25</ele><time>2026-05-02T15:03:06Z</time></trkpt><trkpt lat="50.22370407681478" lon="16.230476953326356"><ele>329.5</ele><time>2026-05-02T15:03:07Z</time></trkpt><trkpt lat="50.22357376223615" lon="16.23051536769902"><ele>329.75</ele><time>2026-05-02T15:03:08Z</time></trkpt><trkpt lat="50.223444792902704" lon="16.23055393652541"><ele>330.0</ele><time>2026-05-02T15:03:09Z</time></trkpt><trkpt lat="50.223319667152126" lon="16.23059267339811"><ele>330.0</ele><time>2026-05-02T15:03:10Z</time></trkpt><trkpt lat="50.223201715319064" lon="16.23062660620554"><ele>330.0</ele><time>2026-05-02T15:03:11Z</time></trkpt><trkpt lat="50.22308743234242" lon="16.23066260923335"><ele>330.0</ele><time>2026-05-02T15:03:12Z</time></trkpt><trkpt lat="50.22297244302284" lon="16.23069982154102"><ele>330.0</ele><time>2026-05-02T15:03:13Z</time></trkpt><trkpt lat="50.22285942460982" lon="16.230739497110964"><ele>330.25</ele><time>2026-05-02T15:03:14Z</time></trkpt><trkpt lat="50.22274223344865" lon="16.2307713343058"><ele>330.5</ele><time>2026-05-02T15:03:15Z</time></trkpt><trkpt lat="50.22262225238005" lon="16.230801848751128"><ele>330.75</ele><time>2026-05-02T15:03:16Z</time></trkpt><trkpt lat="50.22250017635935" lon="16.230832934756478"><ele>331.0</ele><time>2026-05-02T15:03:17Z</time></trkpt><trkpt lat="50.22237552164717" lon="16.230869079493537"><ele>330.5</ele><time>2026-05-02T15:03:18Z</time></trkpt><trkpt lat="50.222248206848086" lon="16.230908730970608"><ele>330.0</ele><time>2026-05-02T15:03:19Z</time></trkpt><trkpt lat="50.22211723898207" lon="16.230948417957517"><ele>329.5</ele><time>2026-05-02T15:03:20Z</time></trkpt><trkpt lat="50.22198397637337" lon="16.23098608262868"><ele>329.0</ele><time>2026-05-02T15:03:21Z</time></trkpt><trkpt lat="50.22185019737202" lon="16.231024323695724"><ele>329.0</ele><time>2026-05-02T15:03:22Z</time></trkpt><trkpt lat="50.22171232620265" lon="16.23106662595531"><ele>329.0</ele><time>2026-05-02T15:03:23Z</time></trkpt><trkpt lat="50.22157403876556" lon="16.23111208562737"><ele>329.0</ele><time>2026-05-02T15:03:24Z</time></trkpt><trkpt lat="50.22145232124167" lon="16.231143806381144"><ele>329.0</ele><time>2026-05-02T15:03:25Z</time></trkpt><trkpt lat="50.22134008059544" lon="16.231179064881136"><ele>328.75</ele><time>2026-05-02T15:03:26Z</time></trkpt><trkpt lat="50.2212208306307" lon="16.23121674061184"><ele>328.5</ele><time>2026-05-02T15:03:27Z</time></trkpt><trkpt lat="50.2210975719922" lon="16.231256963526548"><ele>328.25</ele><time>2026-05-02T15:03:28Z</time></trkpt><trkpt lat="50.22097823966342" lon="16.231294082682545"><ele>328.0</ele><time>2026-05-02T15:03:29Z</time></trkpt><trkpt lat="50.22085769040326" lon="16.23132791585721"><ele>328.0</ele><time>2026-05-02T15:03:30Z</time></trkpt><trkpt lat="50.22073391846274" lon="16.231355909528606"><ele>328.0</ele><time>2026-05-02T15:03:31Z</time></trkpt><trkpt lat="50.22061254998897" lon="16.23138640868784"><ele>328.0</ele><time>2026-05-02T15:03:32Z</time></trkpt><trkpt lat="50.22048884888947" lon="16.231425820240624"><ele>328.0</ele><time>2026-05-02T15:03:33Z</time></trkpt><trkpt lat="50.220362917671316" lon="16.23146524068505"><ele>327.25</ele><time>2026-05-02T15:03:34Z</time></trkpt><trkpt lat="50.22023598790705" lon="16.231502058263008"><ele>326.5</ele><time>2026-05-02T15:03:35Z</time></trkpt><trkpt lat="50.22010716528443" lon="16.23153888428909"><ele>325.75</ele><time>2026-05-02T15:03:36Z</time></trkpt><trkpt lat="50.21997789401572" lon="16.23158078986897"><ele>325.0</ele><time>2026-05-02T15:03:37Z</time></trkpt><trkpt lat="50.21984979258873" lon="16.23162136562628"><ele>325.0</ele><time>2026-05-02T15:03:38Z</time></trkpt><trkpt lat="50.219721227389265" lon="16.231645157454583"><ele>325.0</ele><time>2026-05-02T15:03:39Z</time></trkpt><trkpt lat="50.219592901187546" lon="16.23168223902013"><ele>325.0</ele><time>2026-05-02T15:03:40Z</time></trkpt><trkpt lat="50.21946261407584" lon="16.231732654562926"><ele>325.0</ele><time>2026-05-02T15:03:41Z</time></trkpt><trkpt lat="50.219336829432244" lon="16.231763437450407"><ele>325.0</ele><time>2026-05-02T15:03:42Z</time></trkpt><trkpt lat="50.21919418967082" lon="16.231794397417502"><ele>325.0</ele><time>2026-05-02T15:03:43Z</time></trkpt><trkpt lat="50.21901505455269" lon="16.23185054140866"><ele>325.0</ele><time>2026-05-02T15:03:44Z</time></trkpt><trkpt lat="50.218775861215065" lon="16.231933489045236"><ele>324.5</ele><time>2026-05-02T15:03:45Z</time></trkpt><trkpt lat="50.218513407296875" lon="16.23201211858443"><ele>324.0</ele><time>2026-05-02T15:03:46Z</time></trkpt><trkpt lat="50.21824092939455" lon="16.232078951332312"><ele>323.5</ele><time>2026-05-02T15:03:47Z</time></trkpt><trkpt lat="50.2179481876248" lon="16.232153411421667"><ele>323.0</ele><time>2026-05-02T15:03:48Z</time></trkpt><trkpt lat="50.21763278426697" lon="16.23224697461701"><ele>323.0</ele><time>2026-05-02T15:03:49Z</time></trkpt><trkpt lat="50.217292919526024" lon="16.23234756836943"><ele>323.0</ele><time>2026-05-02T15:03:50Z</time></trkpt><trkpt lat="50.216934051773016" lon="16.232456809830975"><ele>323.0</ele><time>2026-05-02T15:03:51Z</time></trkpt><trkpt lat="50.21657143532655" lon="16.232564895479772"><ele>323.0</ele><time>2026-05-02T15:03:52Z</time></trkpt><trkpt lat="50.216244713319" lon="16.232662204783015"><ele>322.0</ele><time>2026-05-02T15:03:53Z</time></trkpt><trkpt lat="50.21591114528536" lon="16.232765572514417"><ele>321.0</ele><time>2026-05-02T15:03:54Z</time></trkpt><trkpt lat="50.215563262434685" lon="16.232861791390715"><ele>321.0</ele><time>2026-05-02T15:03:55Z</time></trkpt><trkpt lat="50.215206362682075" lon="16.232955638280867"><ele>321.0</ele><time>2026-05-02T15:03:56Z</time></trkpt><trkpt lat="50.21485938818961" lon="16.233050166320595"><ele>321.5</ele><time>2026-05-02T15:03:57Z</time></trkpt><trkpt lat="50.21455856654947" lon="16.23314104681989"><ele>322.0</ele><time>2026-05-02T15:03:58Z</time></trkpt><trkpt lat="50.21427866571084" lon="16.23322523732744"><ele>322.0</ele><time>2026-05-02T15:03:59Z</time></trkpt><trkpt lat="50.21402728887517" lon="16.233300295918674"><ele>322.0</ele><time>2026-05-02T15:04:00Z</time></trkpt><trkpt lat="50.213785818061595" lon="16.233370714518223"><ele>321.5</ele><time>2026-05-02T15:04:01Z</time></trkpt><trkpt lat="50.21356196816504" lon="16.233439955832967"><ele>321.0</ele><time>2026-05-02T15:04:02Z</time></trkpt><trkpt lat="50.21334141171373" lon="16.233511709948292"><ele>321.0</ele><time>2026-05-02T15:04:03Z</time></trkpt><trkpt lat="50.213113904828624" lon="16.23355453963847"><ele>321.0</ele><time>2026-05-02T15:04:04Z</time></trkpt><trkpt lat="50.21288998984782" lon="16.233619456795324"><ele>321.0</ele><time>2026-05-02T15:04:05Z</time></trkpt><trkpt lat="50.212686812393194" lon="16.233677926737645"><ele>321.0</ele><time>2026-05-02T15:04:06Z</time></trkpt><trkpt lat="50.21249815285571" lon="16.23373222979271"><ele>321.0</ele><time>2026-05-02T15:04:07Z</time></trkpt><trkpt lat="50.21232024517819" lon="16.233782435452945"><ele>321.0</ele><time>2026-05-02T15:04:08Z</time></trkpt><trkpt lat="50.21215279287458" lon="16.2338300370797"><ele>321.0</ele><time>2026-05-02T15:04:09Z</time></trkpt><trkpt lat="50.211994639627406" lon="16.233875836618253"><ele>321.0</ele><time>2026-05-02T15:04:10Z</time></trkpt><trkpt lat="50.21183861510001" lon="16.233921409815807"><ele>321.0</ele><time>2026-05-02T15:04:11Z</time></trkpt><trkpt lat="50.21167667030746" lon="16.233968669481925"><ele>321.0</ele><time>2026-05-02T15:04:12Z</time></trkpt><trkpt lat="50.21151396085281" lon="16.23401613152312"><ele>321.0</ele><time>2026-05-02T15:04:13Z</time></trkpt><trkpt lat="50.21135107575201" lon="16.234063644783735"><ele>322.0</ele><time>2026-05-02T15:04:14Z</time></trkpt><trkpt lat="50.21119900395189" lon="16.234108003837473"><ele>323.0</ele><time>2026-05-02T15:04:15Z</time></trkpt><trkpt lat="50.21105958555813" lon="16.234148671910663"><ele>324.0</ele><time>2026-05-02T15:04:16Z</time></trkpt><trkpt lat="50.210924888465264" lon="16.234187962808548"><ele>325.0</ele><time>2026-05-02T15:04:17Z</time></trkpt><trkpt lat="50.21077080860612" lon="16.234232629553567"><ele>325.0</ele><time>2026-05-02T15:04:18Z</time></trkpt><trkpt lat="50.21059680682113" lon="16.23428289105149"><ele>325.0</ele><time>2026-05-02T15:04:19Z</time></trkpt><trkpt lat="50.210516765180714" lon="16.23430617107335"><ele>325.0</ele><time>2026-05-02T15:04:20Z</time></trkpt><trkpt lat="50.210371999177895" lon="16.23434827613665"><ele>325.0</ele><time>2026-05-02T15:04:21Z</time></trkpt><trkpt lat="50.2102211490017" lon="16.23439215075802"><ele>325.0</ele><time>2026-05-02T15:04:22Z</time></trkpt><trkpt lat="50.21006864612034" lon="16.234437843375087"><ele>325.0</ele><time>2026-05-02T15:04:23Z</time></trkpt><trkpt lat="50.209925397808966" lon="16.23448079785326"><ele>325.0</ele><time>2026-05-02T15:04:24Z</time></trkpt><trkpt lat="50.20979527965622" lon="16.234519831112056"><ele>325.0</ele><time>2026-05-02T15:04:25Z</time></trkpt><trkpt lat="50.20967043663062" lon="16.23458317572407"><ele>325.25</ele><time>2026-05-02T15:04:26Z</time></trkpt><trkpt lat="50.20953240376495" lon="16.23459411018023"><ele>325.5</ele><time>2026-05-02T15:04:27Z</time></trkpt><trkpt lat="50.209391733895814" lon="16.23462559632254"><ele>325.75</ele><time>2026-05-02T15:04:28Z</time></trkpt><trkpt lat="50.20924033065846" lon="16.23468854154977"><ele>326.0</ele><time>2026-05-02T15:04:29Z</time></trkpt><trkpt lat="50.20909844591744" lon="16.234716843544756"><ele>326.5</ele><time>2026-05-02T15:04:30Z</time></trkpt><trkpt lat="50.208977234834634" lon="16.234773762144094"><ele>327.0</ele><time>2026-05-02T15:04:31Z</time></trkpt><trkpt lat="50.20885652382987" lon="16.234798835349945"><ele>327.5</ele><time>2026-05-02T15:04:32Z</time></trkpt><trkpt lat="50.208732656529115" lon="16.234835213063132"><ele>328.0</ele><time>2026-05-02T15:04:33Z</time></trkpt><trkpt lat="50.20860707956452" lon="16.23487362972064"><ele>328.5</ele><time>2026-05-02T15:04:34Z</time></trkpt><trkpt lat="50.208474150509204" lon="16.234913078806898"><ele>329.0</ele><time>2026-05-02T15:04:35Z</time></trkpt><trkpt lat="50.208341480004194" lon="16.23495200235773"><ele>329.5</ele><time>2026-05-02T15:04:36Z</time></trkpt><trkpt lat="50.20821343341694" lon="16.23498874998546"><ele>330.0</ele><time>2026-05-02T15:04:37Z</time></trkpt><trkpt lat="50.20809135441815" lon="16.235022922487232"><ele>330.4</ele><time>2026-05-02T15:04:38Z</time></trkpt><trkpt lat="50.20799208439422" lon="16.235049433285525"><ele>330.8</ele><time>2026-05-02T15:04:39Z</time></trkpt><trkpt lat="50.207907239634444" lon="16.23507940254366"><ele>331.20000000000005</ele><time>2026-05-02T15:04:40Z</time></trkpt><trkpt lat="50.20781725421416" lon="16.23510055508849"><ele>331.6</ele><time>2026-05-02T15:04:41Z</time></trkpt><trkpt lat="50.20771945407209" lon="16.23511176903201"><ele>332.0</ele><time>2026-05-02T15:04:42Z</time></trkpt><trkpt lat="50.20762194708328" lon="16.235148407974947"><ele>332.0</ele><time>2026-05-02T15:04:43Z</time></trkpt><trkpt lat="50.207522085300326" lon="16.235191405534366"><ele>332.0</ele><time>2026-05-02T15:04:44Z</time></trkpt><trkpt lat="50.20741766475147" lon="16.23520908443888"><ele>332.0</ele><time>2026-05-02T15:04:45Z</time></trkpt><trkpt lat="50.20730729639413" lon="16.23522941629204"><ele>332.0</ele><time>2026-05-02T15:04:46Z</time></trkpt><trkpt lat="50.207198623809205" lon="16.235264883234326"><ele>332.0</ele><time>2026-05-02T15:04:47Z</time></trkpt><trkpt lat="50.207090802180204" lon="16.235310729023983"><ele>332.75</ele><time>2026-05-02T15:04:48Z</time></trkpt><trkpt lat="50.20698090948495" lon="16.23534788653628"><ele>333.5</ele><time>2026-05-02T15:04:49Z</time></trkpt><trkpt lat="50.20686290553904" lon="16.235376922523603"><ele>334.25</ele><time>2026-05-02T15:04:50Z</time></trkpt><trkpt lat="50.2067529163383" lon="16.23540275060769"><ele>335.0</ele><time>2026-05-02T15:04:51Z</time></trkpt><trkpt lat="50.20663792818157" lon="16.2354429699598"><ele>335.0</ele><time>2026-05-02T15:04:52Z</time></trkpt><trkpt lat="50.20652968828368" lon="16.235494033518858"><ele>335.0</ele><time>2026-05-02T15:04:53Z</time></trkpt><trkpt lat="50.206433171911456" lon="16.23554076800688"><ele>335.0</ele><time>2026-05-02T15:04:54Z</time></trkpt><trkpt lat="50.20634031509717" lon="16.235583696555516"><ele>335.0</ele><time>2026-05-02T15:04:55Z</time></trkpt><trkpt lat="50.20625314813856" lon="16.235633425401495"><ele>335.0</ele><time>2026-05-02T15:04:56Z</time></trkpt><trkpt lat="50.20616408380368" lon="16.23565681860418"><ele>335.6</ele><time>2026-05-02T15:04:57Z</time></trkpt><trkpt lat="50.20607738355702" lon="16.235722830798522"><ele>336.2</ele><time>2026-05-02T15:04:58Z</time></trkpt><trkpt lat="50.20598310443682" lon="16.23576162914131"><ele>336.79999999999995</ele><time>2026-05-02T15:04:59Z</time></trkpt><trkpt lat="50.20588818305027" lon="16.235803665868502"><ele>337.4</ele><time>2026-05-02T15:05:00Z</time></trkpt><trkpt lat="50.20579012145272" lon="16.23584982933217"><ele>338.0</ele><time>2026-05-02T15:05:01Z</time></trkpt><trkpt lat="50.20569467927344" lon="16.235908787912386"><ele>338.0</ele><time>2026-05-02T15:05:02Z</time></trkpt><trkpt lat="50.20559610852051" lon="16.235962948794107"><ele>338.0</ele><time>2026-05-02T15:05:03Z</time></trkpt><trkpt lat="50.20550053815018" lon="16.236010684065516"><ele>338.0</ele><time>2026-05-02T15:05:04Z</time></trkpt><trkpt lat="50.20541273324194" lon="16.236052062388964"><ele>338.0</ele><time>2026-05-02T15:05:05Z</time></trkpt><trkpt lat="50.20532488194113" lon="16.236093419447688"><ele>338.0</ele><time>2026-05-02T15:05:06Z</time></trkpt><trkpt lat="50.20523336672314" lon="16.23613835881345"><ele>338.0</ele><time>2026-05-02T15:05:07Z</time></trkpt><trkpt lat="50.20513729436434" lon="16.23619131334893"><ele>338.0</ele><time>2026-05-02T15:05:08Z</time></trkpt><trkpt lat="50.20504634314893" lon="16.23624370689563"><ele>338.0</ele><time>2026-05-02T15:05:09Z</time></trkpt><trkpt lat="50.204962436480635" lon="16.23629953382371"><ele>338.0</ele><time>2026-05-02T15:05:10Z</time></trkpt><trkpt lat="50.20487757973099" lon="16.236351288460966"><ele>338.0</ele><time>2026-05-02T15:05:11Z</time></trkpt><trkpt lat="50.204792450298754" lon="16.236401952867425"><ele>337.59999999999997</ele><time>2026-05-02T15:05:12Z</time></trkpt><trkpt lat="50.20470346533678" lon="16.236467022306368"><ele>337.2</ele><time>2026-05-02T15:05:13Z</time></trkpt><trkpt lat="50.204616151212754" lon="16.236549546721847"><ele>336.8</ele><time>2026-05-02T15:05:14Z</time></trkpt><trkpt lat="50.20451971072581" lon="16.236636388035684"><ele>336.4</ele><time>2026-05-02T15:05:15Z</time></trkpt><trkpt lat="50.20443522699537" lon="16.236708555543483"><ele>336.0</ele><time>2026-05-02T15:05:16Z</time></trkpt><trkpt lat="50.204351636252746" lon="16.236772666229943"><ele>335.8</ele><time>2026-05-02T15:05:17Z</time></trkpt><trkpt lat="50.204275845569214" lon="16.23684929734581"><ele>335.6</ele><time>2026-05-02T15:05:18Z</time></trkpt><trkpt lat="50.20420726439916" lon="16.236938159765966"><ele>335.4</ele><time>2026-05-02T15:05:19Z</time></trkpt><trkpt lat="50.20412625812703" lon="16.237010951410802"><ele>335.2</ele><time>2026-05-02T15:05:20Z</time></trkpt><trkpt lat="50.204047464534455" lon="16.23708248289197"><ele>335.0</ele><time>2026-05-02T15:05:21Z</time></trkpt><trkpt lat="50.20397790356634" lon="16.237182100501137"><ele>334.6666666666667</ele><time>2026-05-02T15:05:22Z</time></trkpt><trkpt lat="50.2039038677674" lon="16.23725936845008"><ele>334.33333333333337</ele><time>2026-05-02T15:05:23Z</time></trkpt><trkpt lat="50.203834335560586" lon="16.23733380832158"><ele>334.0</ele><time>2026-05-02T15:05:24Z</time></trkpt><trkpt lat="50.20376665322336" lon="16.237397575188233"><ele>333.6666666666667</ele><time>2026-05-02T15:05:25Z</time></trkpt><trkpt lat="50.20370313193046" lon="16.237475228568744"><ele>333.3333333333333</ele><time>2026-05-02T15:05:26Z</time></trkpt><trkpt lat="50.203639235527575" lon="16.23756015279303"><ele>333.0</ele><time>2026-05-02T15:05:27Z</time></trkpt><trkpt lat="50.203577834623864" lon="16.237615663679517"><ele>333.0</ele><time>2026-05-02T15:05:28Z</time></trkpt><trkpt lat="50.20352017056381" lon="16.237684851480147"><ele>333.0</ele><time>2026-05-02T15:05:29Z</time></trkpt><trkpt lat="50.20345391959338" lon="16.23775682008455"><ele>333.0</ele><time>2026-05-02T15:05:30Z</time></trkpt><trkpt lat="50.20337788423845" lon="16.237824145566705"><ele>333.0</ele><time>2026-05-02T15:05:31Z</time></trkpt><trkpt lat="50.203292386992565" lon="16.23791451337537"><ele>333.0</ele><time>2026-05-02T15:05:32Z</time></trkpt><trkpt lat="50.20317007744576" lon="16.238051181479666"><ele>332.0</ele><time>2026-05-02T15:05:33Z</time></trkpt><trkpt lat="50.20303252493733" lon="16.238186989118304"><ele>331.0</ele><time>2026-05-02T15:05:34Z</time></trkpt><trkpt lat="50.202926105952784" lon="16.23827883376181"><ele>330.0</ele><time>2026-05-02T15:05:35Z</time></trkpt><trkpt lat="50.20283086449321" lon="16.2383687845155"><ele>329.0</ele><time>2026-05-02T15:05:36Z</time></trkpt><trkpt lat="50.202742709251915" lon="16.238461308318684"><ele>329.0</ele><time>2026-05-02T15:05:37Z</time></trkpt><trkpt lat="50.202659689001116" lon="16.238543533200577"><ele>329.0</ele><time>2026-05-02T15:05:38Z</time></trkpt><trkpt lat="50.20257278919185" lon="16.23862761449362"><ele>329.0</ele><time>2026-05-02T15:05:39Z</time></trkpt><trkpt lat="50.20248046503415" lon="16.23872288243998"><ele>329.0</ele><time>2026-05-02T15:05:40Z</time></trkpt><trkpt lat="50.20237864048233" lon="16.238810287426986"><ele>329.0</ele><time>2026-05-02T15:05:41Z</time></trkpt><trkpt lat="50.20228040232301" lon="16.238906861018307"><ele>329.25</ele><time>2026-05-02T15:05:42Z</time></trkpt><trkpt lat="50.202172197802504" lon="16.239016712593543"><ele>329.5</ele><time>2026-05-02T15:05:43Z</time></trkpt><trkpt lat="50.202059308782786" lon="16.23911088661433"><ele>329.75</ele><time>2026-05-02T15:05:44Z</time></trkpt><trkpt lat="50.201942412636875" lon="16.239207052491924"><ele>330.0</ele><time>2026-05-02T15:05:45Z</time></trkpt><trkpt lat="50.201814530594994" lon="16.23929975847646"><ele>330.0</ele><time>2026-05-02T15:05:46Z</time></trkpt><trkpt lat="50.2016819573219" lon="16.2393623075931"><ele>330.0</ele><time>2026-05-02T15:05:47Z</time></trkpt><trkpt lat="50.201548106099004" lon="16.239432335114067"><ele>330.0</ele><time>2026-05-02T15:05:48Z</time></trkpt><trkpt lat="50.20140455730458" lon="16.239519817896866"><ele>330.0</ele><time>2026-05-02T15:05:49Z</time></trkpt><trkpt lat="50.20125614683201" lon="16.239618642712546"><ele>331.0</ele><time>2026-05-02T15:05:50Z</time></trkpt><trkpt lat="50.20112869540517" lon="16.23975618513852"><ele>332.0</ele><time>2026-05-02T15:05:51Z</time></trkpt><trkpt lat="50.20101601152071" lon="16.239929725027107"><ele>333.0</ele><time>2026-05-02T15:05:52Z</time></trkpt><trkpt lat="50.20091668420229" lon="16.240149248148693"><ele>334.0</ele><time>2026-05-02T15:05:53Z</time></trkpt><trkpt lat="50.20083862889558" lon="16.24036888677005"><ele>335.0</ele><time>2026-05-02T15:05:54Z</time></trkpt><trkpt lat="50.200775994116" lon="16.24054691041967"><ele>336.0</ele><time>2026-05-02T15:05:55Z</time></trkpt><trkpt lat="50.2006865093182" lon="16.240682091253685"><ele>337.0</ele><time>2026-05-02T15:05:56Z</time></trkpt><trkpt lat="50.20060964631665" lon="16.240851570466834"><ele>338.0</ele><time>2026-05-02T15:05:57Z</time></trkpt><trkpt lat="50.20051212343634" lon="16.24099807240563"><ele>339.0</ele><time>2026-05-02T15:05:58Z</time></trkpt><trkpt lat="50.20041447264235" lon="16.241138195137456"><ele>340.0</ele><time>2026-05-02T15:05:59Z</time></trkpt><trkpt lat="50.20031085671933" lon="16.241254845246328"><ele>341.0</ele><time>2026-05-02T15:06:00Z</time></trkpt><trkpt lat="50.20021497351302" lon="16.241375310446895"><ele>341.25</ele><time>2026-05-02T15:06:01Z</time></trkpt><trkpt lat="50.200129737318036" lon="16.241511330738756"><ele>341.5</ele><time>2026-05-02T15:06:02Z</time></trkpt><trkpt lat="50.200031457108246" lon="16.241622596285655"><ele>341.75</ele><time>2026-05-02T15:06:03Z</time></trkpt><trkpt lat="50.19992932363367" lon="16.241743266355584"><ele>342.0</ele><time>2026-05-02T15:06:04Z</time></trkpt><trkpt lat="50.19981830296125" lon="16.24185332474068"><ele>342.5</ele><time>2026-05-02T15:06:05Z</time></trkpt><trkpt lat="50.19971844050607" lon="16.242003638667715"><ele>343.0</ele><time>2026-05-02T15:06:06Z</time></trkpt><trkpt lat="50.199608647425066" lon="16.242132139952293"><ele>343.5</ele><time>2026-05-02T15:06:07Z</time></trkpt><trkpt lat="50.19949482753576" lon="16.24226312827391"><ele>344.0</ele><time>2026-05-02T15:06:08Z</time></trkpt><trkpt lat="50.199379692511435" lon="16.24239509352244"><ele>344.25</ele><time>2026-05-02T15:06:09Z</time></trkpt><trkpt lat="50.19926683294357" lon="16.242530244878083"><ele>344.5</ele><time>2026-05-02T15:06:10Z</time></trkpt><trkpt lat="50.199149875762636" lon="16.242671783200944"><ele>344.75</ele><time>2026-05-02T15:06:11Z</time></trkpt><trkpt lat="50.19902999736645" lon="16.242819660040098"><ele>345.0</ele><time>2026-05-02T15:06:12Z</time></trkpt><trkpt lat="50.19891271928136" lon="16.242964637303313"><ele>345.5</ele><time>2026-05-02T15:06:13Z</time></trkpt><trkpt lat="50.19880995784544" lon="16.24309102341599"><ele>346.0</ele><time>2026-05-02T15:06:14Z</time></trkpt><trkpt lat="50.19872051864525" lon="16.243209129061"><ele>346.5</ele><time>2026-05-02T15:06:15Z</time></trkpt><trkpt lat="50.198636192072556" lon="16.243338326879968"><ele>347.0</ele><time>2026-05-02T15:06:16Z</time></trkpt><trkpt lat="50.19855498245245" lon="16.243478355926584"><ele>347.0</ele><time>2026-05-02T15:06:17Z</time></trkpt><trkpt lat="50.19847651749916" lon="16.243614913437536"><ele>347.0</ele><time>2026-05-02T15:06:18Z</time></trkpt><trkpt lat="50.198394530355664" lon="16.243747186971156"><ele>347.0</ele><time>2026-05-02T15:06:19Z</time></trkpt><trkpt lat="50.19830382388909" lon="16.243882881129494"><ele>347.0</ele><time>2026-05-02T15:06:20Z</time></trkpt><trkpt lat="50.19820005649359" lon="16.2440407947686"><ele>346.5</ele><time>2026-05-02T15:06:21Z</time></trkpt><trkpt lat="50.1980997347495" lon="16.244200312534307"><ele>346.0</ele><time>2026-05-02T15:06:22Z</time></trkpt><trkpt lat="50.19801283077628" lon="16.24434193079454"><ele>345.5</ele><time>2026-05-02T15:06:23Z</time></trkpt><trkpt lat="50.197927815910184" lon="16.24447696351354"><ele>345.0</ele><time>2026-05-02T15:06:24Z</time></trkpt><trkpt lat="50.19784773470091" lon="16.24461628521906"><ele>345.0</ele><time>2026-05-02T15:06:25Z</time></trkpt><trkpt lat="50.197769266384896" lon="16.244740964766592"><ele>345.0</ele><time>2026-05-02T15:06:26Z</time></trkpt><trkpt lat="50.19768890393778" lon="16.244845580670255"><ele>345.0</ele><time>2026-05-02T15:06:27Z</time></trkpt><trkpt lat="50.19762603258861" lon="16.24497604273305"><ele>345.0</ele><time>2026-05-02T15:06:28Z</time></trkpt><trkpt lat="50.197542538484285" lon="16.245091487920213"><ele>345.0</ele><time>2026-05-02T15:06:29Z</time></trkpt><trkpt lat="50.19745625148011" lon="16.245222078757852"><ele>344.25</ele><time>2026-05-02T15:06:30Z</time></trkpt><trkpt lat="50.19737470820496" lon="16.245370919323573"><ele>343.5</ele><time>2026-05-02T15:06:31Z</time></trkpt><trkpt lat="50.19727159713322" lon="16.245507132111808"><ele>342.75</ele><time>2026-05-02T15:06:32Z</time></trkpt><trkpt lat="50.197173971410486" lon="16.24564924310408"><ele>342.0</ele><time>2026-05-02T15:06:33Z</time></trkpt><trkpt lat="50.1970578065197" lon="16.24580521961182"><ele>340.0</ele><time>2026-05-02T15:06:34Z</time></trkpt><trkpt lat="50.19691800484128" lon="16.245954437770227"><ele>338.0</ele><time>2026-05-02T15:06:35Z</time></trkpt><trkpt lat="50.19678192154596" lon="16.246067968652696"><ele>336.0</ele><time>2026-05-02T15:06:36Z</time></trkpt><trkpt lat="50.19665777396388" lon="16.246163975742366"><ele>336.0</ele><time>2026-05-02T15:06:37Z</time></trkpt><trkpt lat="50.19654278532378" lon="16.246251651763558"><ele>336.0</ele><time>2026-05-02T15:06:38Z</time></trkpt><trkpt lat="50.19642922938506" lon="16.246336290891126"><ele>336.0</ele><time>2026-05-02T15:06:39Z</time></trkpt><trkpt lat="50.19632112036672" lon="16.246421603803235"><ele>336.0</ele><time>2026-05-02T15:06:40Z</time></trkpt><trkpt lat="50.19621643582689" lon="16.24651221883877"><ele>335.0</ele><time>2026-05-02T15:06:41Z</time></trkpt><trkpt lat="50.19611352889866" lon="16.24660048579943"><ele>334.0</ele><time>2026-05-02T15:06:42Z</time></trkpt><trkpt lat="50.19601271994294" lon="16.246682324291953"><ele>333.0</ele><time>2026-05-02T15:06:43Z</time></trkpt><trkpt lat="50.19591311348353" lon="16.246750958620137"><ele>332.0</ele><time>2026-05-02T15:06:44Z</time></trkpt><trkpt lat="50.19581906561397" lon="16.246820430238458"><ele>331.0</ele><time>2026-05-02T15:06:45Z</time></trkpt><trkpt lat="50.19573640751106" lon="16.246893223415356"><ele>330.66666666666663</ele><time>2026-05-02T15:06:46Z</time></trkpt><trkpt lat="50.195663456673664" lon="16.24694956381932"><ele>330.3333333333333</ele><time>2026-05-02T15:06:47Z</time></trkpt><trkpt lat="50.19558963489119" lon="16.24699252740226"><ele>330.0</ele><time>2026-05-02T15:06:48Z</time></trkpt><trkpt lat="50.19550704696469" lon="16.24700769850625"><ele>329.6666666666667</ele><time>2026-05-02T15:06:49Z</time></trkpt><trkpt lat="50.19541107332992" lon="16.246994512705907"><ele>329.33333333333337</ele><time>2026-05-02T15:06:50Z</time></trkpt><trkpt lat="50.19533552681475" lon="16.24703246203138"><ele>329.0</ele><time>2026-05-02T15:06:51Z</time></trkpt><trkpt lat="50.19527486737739" lon="16.247131704769522"><ele>329.0</ele><time>2026-05-02T15:06:52Z</time></trkpt><trkpt lat="50.19522270886229" lon="16.2472882770751"><ele>329.0</ele><time>2026-05-02T15:06:53Z</time></trkpt><trkpt lat="50.195125509167966" lon="16.247428112299662"><ele>329.0</ele><time>2026-05-02T15:06:54Z</time></trkpt><trkpt lat="50.19499132905989" lon="16.24755797893605"><ele>329.0</ele><time>2026-05-02T15:06:55Z</time></trkpt><trkpt lat="50.19483798815947" lon="16.24769238389394"><ele>329.6666666666667</ele><time>2026-05-02T15:06:56Z</time></trkpt><trkpt lat="50.19469098803111" lon="16.247814640809473"><ele>330.3333333333333</ele><time>2026-05-02T15:06:57Z</time></trkpt><trkpt lat="50.19455554459701" lon="16.24793040878929"><ele>331.0</ele><time>2026-05-02T15:06:58Z</time></trkpt><trkpt lat="50.19442531949805" lon="16.24804763125497"><ele>331.66666666666663</ele><time>2026-05-02T15:06:59Z</time></trkpt><trkpt lat="50.19428300066788" lon="16.248168823543867"><ele>332.3333333333333</ele><time>2026-05-02T15:07:00Z</time></trkpt><trkpt lat="50.194138268982" lon="16.248287304757767"><ele>333.0</ele><time>2026-05-02T15:07:01Z</time></trkpt><trkpt lat="50.193992321779255" lon="16.248407859042704"><ele>333.0</ele><time>2026-05-02T15:07:02Z</time></trkpt><trkpt lat="50.193840411980624" lon="16.248552456679388"><ele>333.0</ele><time>2026-05-02T15:07:03Z</time></trkpt><trkpt lat="50.19366936539547" lon="16.2486715187346"><ele>333.0</ele><time>2026-05-02T15:07:04Z</time></trkpt><trkpt lat="50.19347215239944" lon="16.248838714272132"><ele>333.5</ele><time>2026-05-02T15:07:05Z</time></trkpt><trkpt lat="50.193257276423125" lon="16.2490218756981"><ele>334.0</ele><time>2026-05-02T15:07:06Z</time></trkpt><trkpt lat="50.193037315217495" lon="16.249207453181477"><ele>334.0</ele><time>2026-05-02T15:07:07Z</time></trkpt><trkpt lat="50.192804528446175" lon="16.249405757751184"><ele>334.0</ele><time>2026-05-02T15:07:08Z</time></trkpt><trkpt lat="50.19258793198949" lon="16.24959045927939"><ele>334.0</ele><time>2026-05-02T15:07:09Z</time></trkpt><trkpt lat="50.192388968379944" lon="16.249759047928684"><ele>334.0</ele><time>2026-05-02T15:07:10Z</time></trkpt><trkpt lat="50.19215247674278" lon="16.249958670177012"><ele>334.0</ele><time>2026-05-02T15:07:11Z</time></trkpt><trkpt lat="50.19192996231035" lon="16.250147218425518"><ele>334.0</ele><time>2026-05-02T15:07:12Z</time></trkpt><trkpt lat="50.19173405225439" lon="16.250313223282557"><ele>334.0</ele><time>2026-05-02T15:07:13Z</time></trkpt><trkpt lat="50.19156506769428" lon="16.250467387670312"><ele>334.0</ele><time>2026-05-02T15:07:14Z</time></trkpt><trkpt lat="50.1914022971514" lon="16.250590816690508"><ele>334.0</ele><time>2026-05-02T15:07:15Z</time></trkpt><trkpt lat="50.19126509238115" lon="16.250706976953705"><ele>334.25</ele><time>2026-05-02T15:07:16Z</time></trkpt><trkpt lat="50.19114526443986" lon="16.250815482692154"><ele>334.5</ele><time>2026-05-02T15:07:17Z</time></trkpt><trkpt lat="50.191026646074036" lon="16.250919814609695"><ele>334.75</ele><time>2026-05-02T15:07:18Z</time></trkpt><trkpt lat="50.19091763787225" lon="16.25101231889836"><ele>335.0</ele><time>2026-05-02T15:07:19Z</time></trkpt><trkpt lat="50.190816741754226" lon="16.251090616119598"><ele>335.0</ele><time>2026-05-02T15:07:20Z</time></trkpt><trkpt lat="50.190720473457475" lon="16.25118470556629"><ele>335.0</ele><time>2026-05-02T15:07:21Z</time></trkpt><trkpt lat="50.19061967116083" lon="16.251265830215644"><ele>335.0</ele><time>2026-05-02T15:07:22Z</time></trkpt><trkpt lat="50.1905217121022" lon="16.251345517822802"><ele>335.0</ele><time>2026-05-02T15:07:23Z</time></trkpt><trkpt lat="50.19042521072743" lon="16.25142535565649"><ele>335.0</ele><time>2026-05-02T15:07:24Z</time></trkpt><trkpt lat="50.190329983959124" lon="16.251506390542442"><ele>335.0</ele><time>2026-05-02T15:07:25Z</time></trkpt><trkpt lat="50.190241315679344" lon="16.251580291439495"><ele>335.0</ele><time>2026-05-02T15:07:26Z</time></trkpt><trkpt lat="50.19015246298971" lon="16.251657298004293"><ele>335.0</ele><time>2026-05-02T15:07:27Z</time></trkpt><trkpt lat="50.19006253886113" lon="16.25173855790949"><ele>335.0</ele><time>2026-05-02T15:07:28Z</time></trkpt><trkpt lat="50.18997625372886" lon="16.2518185584146"><ele>335.0</ele><time>2026-05-02T15:07:29Z</time></trkpt><trkpt lat="50.1898884004952" lon="16.25187865568822"><ele>334.99999999999994</ele><time>2026-05-02T15:07:30Z</time></trkpt><trkpt lat="50.189808739803766" lon="16.25191474426848"><ele>335.0</ele><time>2026-05-02T15:07:31Z</time></trkpt><trkpt lat="50.18973793306677" lon="16.251928683782594"><ele>335.0</ele><time>2026-05-02T15:07:32Z</time></trkpt><trkpt lat="50.18966777952444" lon="16.2519406947282"><ele>335.0</ele><time>2026-05-02T15:07:33Z</time></trkpt><trkpt lat="50.189605155722056" lon="16.251908016402822"><ele>335.0</ele><time>2026-05-02T15:07:34Z</time></trkpt><trkpt lat="50.189544485273146" lon="16.25187290092299"><ele>334.99999999999994</ele><time>2026-05-02T15:07:35Z</time></trkpt><trkpt lat="50.189475085658486" lon="16.251895063263948"><ele>335.0</ele><time>2026-05-02T15:07:36Z</time></trkpt><trkpt lat="50.18941049327544" lon="16.25197781147122"><ele>335.0</ele><time>2026-05-02T15:07:37Z</time></trkpt><trkpt lat="50.18937016781619" lon="16.252098764041936"><ele>335.0</ele><time>2026-05-02T15:07:38Z</time></trkpt><trkpt lat="50.18933275668073" lon="16.252217559092934"><ele>335.0</ele><time>2026-05-02T15:07:39Z</time></trkpt><trkpt lat="50.18928578571853" lon="16.252337969414913"><ele>335.0</ele><time>2026-05-02T15:07:40Z</time></trkpt><trkpt lat="50.18921180606275" lon="16.252447892930647"><ele>335.0</ele><time>2026-05-02T15:07:41Z</time></trkpt><trkpt lat="50.18911443935585" lon="16.2525438862921"><ele>335.33333333333337</ele><time>2026-05-02T15:07:42Z</time></trkpt><trkpt lat="50.189002194275275" lon="16.25263906353791"><ele>335.6666666666667</ele><time>2026-05-02T15:07:43Z</time></trkpt><trkpt lat="50.18886043134145" lon="16.252763869590122"><ele>336.0</ele><time>2026-05-02T15:07:44Z</time></trkpt><trkpt lat="50.188690482314875" lon="16.2528896625188"><ele>336.0</ele><time>2026-05-02T15:07:45Z</time></trkpt><trkpt lat="50.18851735402777" lon="16.25303220538716"><ele>336.0</ele><time>2026-05-02T15:07:46Z</time></trkpt><trkpt lat="50.188336901653564" lon="16.253181001282"><ele>336.0</ele><time>2026-05-02T15:07:47Z</time></trkpt><trkpt lat="50.18815613668084" lon="16.25333422102871"><ele>336.3333333333333</ele><time>2026-05-02T15:07:48Z</time></trkpt><trkpt lat="50.18796663920177" lon="16.25349417338732"><ele>336.66666666666663</ele><time>2026-05-02T15:07:49Z</time></trkpt><trkpt lat="50.187771574863774" lon="16.253665283093678"><ele>337.0</ele><time>2026-05-02T15:07:50Z</time></trkpt><trkpt lat="50.18757016059087" lon="16.2538353083786"><ele>337.5</ele><time>2026-05-02T15:07:51Z</time></trkpt><trkpt lat="50.18734527188822" lon="16.25401920165335"><ele>338.0</ele><time>2026-05-02T15:07:52Z</time></trkpt><trkpt lat="50.18707801046594" lon="16.254247668498675"><ele>336.5</ele><time>2026-05-02T15:07:53Z</time></trkpt><trkpt lat="50.18678817841358" lon="16.25449315300563"><ele>335.0</ele><time>2026-05-02T15:07:54Z</time></trkpt><trkpt lat="50.18647284799326" lon="16.254759043207955"><ele>336.0</ele><time>2026-05-02T15:07:55Z</time></trkpt><trkpt lat="50.18617120075964" lon="16.255012351393653"><ele>337.0</ele><time>2026-05-02T15:07:56Z</time></trkpt><trkpt lat="50.1859179843146" lon="16.2552426060061"><ele>337.0</ele><time>2026-05-02T15:07:57Z</time></trkpt><trkpt lat="50.18568583996217" lon="16.255442581448545"><ele>337.0</ele><time>2026-05-02T15:07:58Z</time></trkpt><trkpt lat="50.18547182216924" lon="16.255628326222443"><ele>337.0</ele><time>2026-05-02T15:07:59Z</time></trkpt><trkpt lat="50.185243387146585" lon="16.255797421025882"><ele>337.0</ele><time>2026-05-02T15:08:00Z</time></trkpt><trkpt lat="50.18502106571206" lon="16.256008921401037"><ele>334.5</ele><time>2026-05-02T15:08:01Z</time></trkpt><trkpt lat="50.18478493143928" lon="16.2562026054442"><ele>332.0</ele><time>2026-05-02T15:08:02Z</time></trkpt><trkpt lat="50.18454787807223" lon="16.25639774005124"><ele>333.5</ele><time>2026-05-02T15:08:03Z</time></trkpt><trkpt lat="50.184306517281506" lon="16.256585084049767"><ele>335.0</ele><time>2026-05-02T15:08:04Z</time></trkpt><trkpt lat="50.18409590554693" lon="16.256760847636265"><ele>334.33333333333337</ele><time>2026-05-02T15:08:05Z</time></trkpt><trkpt lat="50.18390649083068" lon="16.25693360474238"><ele>333.6666666666667</ele><time>2026-05-02T15:08:06Z</time></trkpt><trkpt lat="50.183727991676136" lon="16.25708957472619"><ele>333.0</ele><time>2026-05-02T15:08:07Z</time></trkpt><trkpt lat="50.18355473373692" lon="16.257232073305072"><ele>332.6666666666667</ele><time>2026-05-02T15:08:08Z</time></trkpt><trkpt lat="50.183397813612714" lon="16.25736794673712"><ele>332.33333333333337</ele><time>2026-05-02T15:08:09Z</time></trkpt><trkpt lat="50.18326358298945" lon="16.25748855401376"><ele>332.0</ele><time>2026-05-02T15:08:10Z</time></trkpt><trkpt lat="50.18314690725026" lon="16.25759245562885"><ele>332.0</ele><time>2026-05-02T15:08:11Z</time></trkpt><trkpt lat="50.18305419340071" lon="16.257676681354"><ele>332.0</ele><time>2026-05-02T15:08:12Z</time></trkpt><trkpt lat="50.18295399788481" lon="16.25775802540566"><ele>332.0</ele><time>2026-05-02T15:08:13Z</time></trkpt><trkpt lat="50.18285574554548" lon="16.257825212478295"><ele>332.0</ele><time>2026-05-02T15:08:14Z</time></trkpt><trkpt lat="50.18275725646128" lon="16.257907852790193"><ele>332.0</ele><time>2026-05-02T15:08:15Z</time></trkpt><trkpt lat="50.182651948281254" lon="16.257995684613455"><ele>332.0</ele><time>2026-05-02T15:08:16Z</time></trkpt><trkpt lat="50.182551110968205" lon="16.258082567739784"><ele>332.0</ele><time>2026-05-02T15:08:17Z</time></trkpt><trkpt lat="50.18243568735876" lon="16.258176707928705"><ele>332.0</ele><time>2026-05-02T15:08:18Z</time></trkpt><trkpt lat="50.18232612414871" lon="16.258275528639032"><ele>332.0</ele><time>2026-05-02T15:08:19Z</time></trkpt><trkpt lat="50.18221425549317" lon="16.258353707943932"><ele>333.25</ele><time>2026-05-02T15:08:20Z</time></trkpt><trkpt lat="50.182113914691506" lon="16.25845204380474"><ele>334.5</ele><time>2026-05-02T15:08:21Z</time></trkpt><trkpt lat="50.181994414939325" lon="16.258546684656714"><ele>335.75</ele><time>2026-05-02T15:08:22Z</time></trkpt><trkpt lat="50.18187986947212" lon="16.258645851665804"><ele>337.0</ele><time>2026-05-02T15:08:23Z</time></trkpt><trkpt lat="50.181759149381406" lon="16.25875378234099"><ele>337.0</ele><time>2026-05-02T15:08:24Z</time></trkpt><trkpt lat="50.18162862991233" lon="16.258839355785426"><ele>337.0</ele><time>2026-05-02T15:08:25Z</time></trkpt><trkpt lat="50.18150509730321" lon="16.25896459602163"><ele>337.0</ele><time>2026-05-02T15:08:26Z</time></trkpt><trkpt lat="50.18137629919279" lon="16.259069168188415"><ele>337.0</ele><time>2026-05-02T15:08:27Z</time></trkpt><trkpt lat="50.181242856181946" lon="16.259178865384172"><ele>337.0</ele><time>2026-05-02T15:08:28Z</time></trkpt><trkpt lat="50.18110771216057" lon="16.259294562870238"><ele>337.0</ele><time>2026-05-02T15:08:29Z</time></trkpt><trkpt lat="50.18097246561243" lon="16.25940845797013"><ele>337.0</ele><time>2026-05-02T15:08:30Z</time></trkpt><trkpt lat="50.18083352188492" lon="16.25952626975038"><ele>337.0</ele><time>2026-05-02T15:08:31Z</time></trkpt><trkpt lat="50.18069184350575" lon="16.259639807283754"><ele>337.0</ele><time>2026-05-02T15:08:32Z</time></trkpt><trkpt lat="50.180546410705205" lon="16.259766257738075"><ele>337.0</ele><time>2026-05-02T15:08:33Z</time></trkpt><trkpt lat="50.18040038037391" lon="16.259887693424776"><ele>337.3333333333333</ele><time>2026-05-02T15:08:34Z</time></trkpt><trkpt lat="50.1802453984078" lon="16.260019306611788"><ele>337.6666666666667</ele><time>2026-05-02T15:08:35Z</time></trkpt><trkpt lat="50.18009042766708" lon="16.260147180395318"><ele>338.0</ele><time>2026-05-02T15:08:36Z</time></trkpt><trkpt lat="50.17993331526585" lon="16.26028796444675"><ele>338.0</ele><time>2026-05-02T15:08:37Z</time></trkpt><trkpt lat="50.1797567723662" lon="16.26045794134201"><ele>338.0</ele><time>2026-05-02T15:08:38Z</time></trkpt><trkpt lat="50.17954270855812" lon="16.260663818245593"><ele>338.0</ele><time>2026-05-02T15:08:39Z</time></trkpt><trkpt lat="50.179297865742015" lon="16.260898177228945"><ele>338.0</ele><time>2026-05-02T15:08:40Z</time></trkpt><trkpt lat="50.179069390825426" lon="16.261130671709765"><ele>335.0</ele><time>2026-05-02T15:08:41Z</time></trkpt><trkpt lat="50.17884870006381" lon="16.26135747772363"><ele>332.0</ele><time>2026-05-02T15:08:42Z</time></trkpt><trkpt lat="50.17862546070294" lon="16.26159500244198"><ele>332.0</ele><time>2026-05-02T15:08:43Z</time></trkpt><trkpt lat="50.17841509899149" lon="16.261818341693278"><ele>332.0</ele><time>2026-05-02T15:08:44Z</time></trkpt><trkpt lat="50.17820304602139" lon="16.262022024070003"><ele>331.5</ele><time>2026-05-02T15:08:45Z</time></trkpt><trkpt lat="50.17799027203222" lon="16.262229616042724"><ele>331.0</ele><time>2026-05-02T15:08:46Z</time></trkpt><trkpt lat="50.17778111601971" lon="16.262433272270403"><ele>331.0</ele><time>2026-05-02T15:08:47Z</time></trkpt><trkpt lat="50.17757585834698" lon="16.262634540092815"><ele>331.0</ele><time>2026-05-02T15:08:48Z</time></trkpt><trkpt lat="50.17737707807485" lon="16.262845849297726"><ele>331.0</ele><time>2026-05-02T15:08:49Z</time></trkpt><trkpt lat="50.177177078349125" lon="16.263053320737644"><ele>331.0</ele><time>2026-05-02T15:08:50Z</time></trkpt><trkpt lat="50.17698111245026" lon="16.26324397404874"><ele>331.0</ele><time>2026-05-02T15:08:51Z</time></trkpt><trkpt lat="50.1768019880175" lon="16.263419688115405"><ele>331.0</ele><time>2026-05-02T15:08:52Z</time></trkpt><trkpt lat="50.176622410723986" lon="16.26360166051927"><ele>331.0</ele><time>2026-05-02T15:08:53Z</time></trkpt><trkpt lat="50.17643731934644" lon="16.26379377063758"><ele>332.0</ele><time>2026-05-02T15:08:54Z</time></trkpt><trkpt lat="50.17623080212726" lon="16.263981178933115"><ele>333.0</ele><time>2026-05-02T15:08:55Z</time></trkpt><trkpt lat="50.17600909645739" lon="16.264204393742524"><ele>333.0</ele><time>2026-05-02T15:08:56Z</time></trkpt><trkpt lat="50.17575850592943" lon="16.264456715011548"><ele>333.0</ele><time>2026-05-02T15:08:57Z</time></trkpt><trkpt lat="50.175481797839595" lon="16.264735334525014"><ele>337.0</ele><time>2026-05-02T15:08:58Z</time></trkpt><trkpt lat="50.17520808546636" lon="16.265010780948618"><ele>341.0</ele><time>2026-05-02T15:08:59Z</time></trkpt><trkpt lat="50.174976348158935" lon="16.265248244586253"><ele>343.0</ele><time>2026-05-02T15:09:00Z</time></trkpt><trkpt lat="50.17476449606468" lon="16.265454365221892"><ele>345.0</ele><time>2026-05-02T15:09:01Z</time></trkpt><trkpt lat="50.174570752042214" lon="16.265653640748457"><ele>345.5</ele><time>2026-05-02T15:09:02Z</time></trkpt><trkpt lat="50.17438144068845" lon="16.265850128348372"><ele>346.0</ele><time>2026-05-02T15:09:03Z</time></trkpt><trkpt lat="50.17419384327652" lon="16.26603900802564"><ele>346.0</ele><time>2026-05-02T15:09:04Z</time></trkpt><trkpt lat="50.17400410331461" lon="16.266220076721613"><ele>346.0</ele><time>2026-05-02T15:09:05Z</time></trkpt><trkpt lat="50.17382188592654" lon="16.26638567872502"><ele>346.0</ele><time>2026-05-02T15:09:06Z</time></trkpt><trkpt lat="50.173645958987144" lon="16.266530008796543"><ele>344.0</ele><time>2026-05-02T15:09:07Z</time></trkpt><trkpt lat="50.173463545700784" lon="16.266624582999253"><ele>342.0</ele><time>2026-05-02T15:09:08Z</time></trkpt><trkpt lat="50.17329686231288" lon="16.266751603466712"><ele>340.0</ele><time>2026-05-02T15:09:09Z</time></trkpt><trkpt lat="50.173132479527645" lon="16.266844742650786"><ele>339.0</ele><time>2026-05-02T15:09:10Z</time></trkpt><trkpt lat="50.172973977411445" lon="16.26694469987773"><ele>338.0</ele><time>2026-05-02T15:09:11Z</time></trkpt><trkpt lat="50.17281260918254" lon="16.26705038838553"><ele>337.0</ele><time>2026-05-02T15:09:12Z</time></trkpt><trkpt lat="50.172647156555584" lon="16.267152522549498"><ele>337.0</ele><time>2026-05-02T15:09:13Z</time></trkpt><trkpt lat="50.17248102611481" lon="16.26724908250599"><ele>337.0</ele><time>2026-05-02T15:09:14Z</time></trkpt><trkpt lat="50.17231644130049" lon="16.26734893804089"><ele>337.0</ele><time>2026-05-02T15:09:15Z</time></trkpt><trkpt lat="50.17215208650048" lon="16.26745694433016"><ele>335.3333333333333</ele><time>2026-05-02T15:09:16Z</time></trkpt><trkpt lat="50.1719924582847" lon="16.267560332882752"><ele>333.6666666666667</ele><time>2026-05-02T15:09:17Z</time></trkpt><trkpt lat="50.171846550107716" lon="16.26765368761759"><ele>332.0</ele><time>2026-05-02T15:09:18Z</time></trkpt><trkpt lat="50.1717152153574" lon="16.267733258882025"><ele>332.0</ele><time>2026-05-02T15:09:19Z</time></trkpt><trkpt lat="50.17159232922271" lon="16.2678109035928"><ele>332.0</ele><time>2026-05-02T15:09:20Z</time></trkpt><trkpt lat="50.17147953115102" lon="16.267884527648352"><ele>332.0</ele><time>2026-05-02T15:09:21Z</time></trkpt><trkpt lat="50.171370605568384" lon="16.267956470569008"><ele>332.0</ele><time>2026-05-02T15:09:22Z</time></trkpt><trkpt lat="50.1712623048857" lon="16.268021547640725"><ele>332.0</ele><time>2026-05-02T15:09:23Z</time></trkpt><trkpt lat="50.171151975976805" lon="16.268086193101336"><ele>332.0</ele><time>2026-05-02T15:09:24Z</time></trkpt><trkpt lat="50.17103129819821" lon="16.268168999316135"><ele>332.0</ele><time>2026-05-02T15:09:25Z</time></trkpt><trkpt lat="50.17090829298716" lon="16.268252827930905"><ele>332.0</ele><time>2026-05-02T15:09:26Z</time></trkpt><trkpt lat="50.17077831976601" lon="16.268335503199907"><ele>331.75</ele><time>2026-05-02T15:09:27Z</time></trkpt><trkpt lat="50.170642177842765" lon="16.268420451878615"><ele>331.5</ele><time>2026-05-02T15:09:28Z</time></trkpt><trkpt lat="50.17051003442909" lon="16.268506525034187"><ele>331.25</ele><time>2026-05-02T15:09:29Z</time></trkpt><trkpt lat="50.17037809411858" lon="16.268588736292266"><ele>331.0</ele><time>2026-05-02T15:09:30Z</time></trkpt><trkpt lat="50.17025250135702" lon="16.268670292391878"><ele>331.0</ele><time>2026-05-02T15:09:31Z</time></trkpt><trkpt lat="50.17013341811108" lon="16.268743998611217"><ele>331.0</ele><time>2026-05-02T15:09:31.999Z</time></trkpt><trkpt lat="50.170016305866525" lon="16.268812764803876"><ele>331.0</ele><time>2026-05-02T15:09:32.999Z</time></trkpt><trkpt lat="50.1699000268193" lon="16.26888082144964"><ele>331.0</ele><time>2026-05-02T15:09:33.999Z</time></trkpt><trkpt lat="50.16978780625554" lon="16.268947148172327"><ele>330.75</ele><time>2026-05-02T15:09:34.999Z</time></trkpt><trkpt lat="50.16967534003154" lon="16.26901908534067"><ele>330.5</ele><time>2026-05-02T15:09:35.999Z</time></trkpt><trkpt lat="50.16956474233157" lon="16.269091365437877"><ele>330.25</ele><time>2026-05-02T15:09:36.999Z</time></trkpt><trkpt lat="50.16945276252744" lon="16.269158811558626"><ele>330.0</ele><time>2026-05-02T15:09:37.999Z</time></trkpt><trkpt lat="50.16933920285372" lon="16.269227379411046"><ele>330.0</ele><time>2026-05-02T15:09:38.999Z</time></trkpt><trkpt lat="50.16922711943511" lon="16.269298904792187"><ele>330.0</ele><time>2026-05-02T15:09:39.999Z</time></trkpt><trkpt lat="50.16912202669168" lon="16.26936274651448"><ele>330.0</ele><time>2026-05-02T15:09:40.999Z</time></trkpt><trkpt lat="50.169023908184364" lon="16.269424591334626"><ele>330.0</ele><time>2026-05-02T15:09:41.999Z</time></trkpt><trkpt lat="50.168919488493245" lon="16.26949435863072"><ele>329.75</ele><time>2026-05-02T15:09:42.999Z</time></trkpt><trkpt lat="50.16881347356708" lon="16.269563836046597"><ele>329.5</ele><time>2026-05-02T15:09:43.999Z</time></trkpt><trkpt lat="50.16870471557785" lon="16.26963451261014"><ele>329.25</ele><time>2026-05-02T15:09:44.999Z</time></trkpt><trkpt lat="50.16859472166443" lon="16.269702171479175"><ele>329.0</ele><time>2026-05-02T15:09:45.999Z</time></trkpt><trkpt lat="50.1684848773918" lon="16.269773284226318"><ele>329.0</ele><time>2026-05-02T15:09:46.999Z</time></trkpt><trkpt lat="50.16837379040668" lon="16.26984473901787"><ele>329.0</ele><time>2026-05-02T15:09:47.999Z</time></trkpt><trkpt lat="50.16826680015737" lon="16.2698987861111"><ele>329.0</ele><time>2026-05-02T15:09:48.999Z</time></trkpt><trkpt lat="50.16817187335663" lon="16.269965117617645"><ele>329.0</ele><time>2026-05-02T15:09:49.999Z</time></trkpt><trkpt lat="50.168074702681594" lon="16.270029438531147"><ele>329.0</ele><time>2026-05-02T15:09:50.999Z</time></trkpt><trkpt lat="50.167975528074486" lon="16.270097317361373"><ele>328.5</ele><time>2026-05-02T15:09:51.999Z</time></trkpt><trkpt lat="50.167844896041274" lon="16.27017609527617"><ele>328.0</ele><time>2026-05-02T15:09:52.999Z</time></trkpt><trkpt lat="50.1677144186029" lon="16.270261226746335"><ele>327.5</ele><time>2026-05-02T15:09:53.999Z</time></trkpt><trkpt lat="50.16757891203265" lon="16.2703480555845"><ele>327.0</ele><time>2026-05-02T15:09:54.999Z</time></trkpt><trkpt lat="50.167457600156474" lon="16.2704251871642"><ele>327.0</ele><time>2026-05-02T15:09:55.999Z</time></trkpt><trkpt lat="50.16735437394087" lon="16.2704948688056"><ele>327.0</ele><time>2026-05-02T15:09:56.999Z</time></trkpt><trkpt lat="50.16725049981393" lon="16.270552434823756"><ele>327.0</ele><time>2026-05-02T15:09:57.999Z</time></trkpt><trkpt lat="50.16714755433041" lon="16.27059094676211"><ele>327.0</ele><time>2026-05-02T15:09:58.999Z</time></trkpt><trkpt lat="50.16704553850557" lon="16.270639419449157"><ele>327.0</ele><time>2026-05-02T15:09:59.999Z</time></trkpt><trkpt lat="50.16693556693175" lon="16.270712687765485"><ele>326.5</ele><time>2026-05-02T15:10:00.999Z</time></trkpt><trkpt lat="50.16682043067385" lon="16.270789051938195"><ele>326.0</ele><time>2026-05-02T15:10:01.999Z</time></trkpt><trkpt lat="50.16669488709816" lon="16.270851812408488"><ele>325.5</ele><time>2026-05-02T15:10:02.999Z</time></trkpt><trkpt lat="50.16657066881226" lon="16.270908996137617"><ele>325.0</ele><time>2026-05-02T15:10:03.999Z</time></trkpt><trkpt lat="50.166453372743604" lon="16.270966181541475"><ele>324.0</ele><time>2026-05-02T15:10:04.999Z</time></trkpt><trkpt lat="50.16634209319193" lon="16.271021711063486"><ele>323.0</ele><time>2026-05-02T15:10:05.999Z</time></trkpt><trkpt lat="50.16622427542617" lon="16.271089421606113"><ele>322.0</ele><time>2026-05-02T15:10:06.999Z</time></trkpt><trkpt lat="50.16610318646623" lon="16.271170623245187"><ele>321.0</ele><time>2026-05-02T15:10:07.999Z</time></trkpt><trkpt lat="50.16597265655642" lon="16.271238555839755"><ele>321.0</ele><time>2026-05-02T15:10:08.999Z</time></trkpt><trkpt lat="50.16582926655766" lon="16.271292650955417"><ele>321.0</ele><time>2026-05-02T15:10:09.999Z</time></trkpt><trkpt lat="50.1656813304063" lon="16.271329181722056"><ele>321.0</ele><time>2026-05-02T15:10:10.999Z</time></trkpt><trkpt lat="50.16552744423497" lon="16.27135818123689"><ele>319.6666666666667</ele><time>2026-05-02T15:10:11.999Z</time></trkpt><trkpt lat="50.1653745828118" lon="16.27136965400174"><ele>318.33333333333337</ele><time>2026-05-02T15:10:12.999Z</time></trkpt><trkpt lat="50.1652188259966" lon="16.271358721918297"><ele>317.0</ele><time>2026-05-02T15:10:13.999Z</time></trkpt><trkpt lat="50.165063937275065" lon="16.27133089632726"><ele>317.0</ele><time>2026-05-02T15:10:14.999Z</time></trkpt><trkpt lat="50.164911705053164" lon="16.2712889366778"><ele>317.0</ele><time>2026-05-02T15:10:15.999Z</time></trkpt><trkpt lat="50.164765146527905" lon="16.271235230293538"><ele>317.0</ele><time>2026-05-02T15:10:16.999Z</time></trkpt><trkpt lat="50.164628813545484" lon="16.271186587146843"><ele>317.0</ele><time>2026-05-02T15:10:17.999Z</time></trkpt><trkpt lat="50.16449921942135" lon="16.271146220919302"><ele>317.0</ele><time>2026-05-02T15:10:18.999Z</time></trkpt><trkpt lat="50.16437368221508" lon="16.271102537935697"><ele>317.0</ele><time>2026-05-02T15:10:19.999Z</time></trkpt><trkpt lat="50.16425118327153" lon="16.27106508195703"><ele>317.0</ele><time>2026-05-02T15:10:20.999Z</time></trkpt><trkpt lat="50.16413300121157" lon="16.27103620867001"><ele>317.0</ele><time>2026-05-02T15:10:21.999Z</time></trkpt><trkpt lat="50.16402603651208" lon="16.271011128875504"><ele>316.2</ele><time>2026-05-02T15:10:22.999Z</time></trkpt><trkpt lat="50.16392872563447" lon="16.270992192908817"><ele>315.4</ele><time>2026-05-02T15:10:23.999Z</time></trkpt><trkpt lat="50.16382645995923" lon="16.270979596260826"><ele>314.6</ele><time>2026-05-02T15:10:24.999Z</time></trkpt><trkpt lat="50.163713730611015" lon="16.27097450596475"><ele>313.8</ele><time>2026-05-02T15:10:25.999Z</time></trkpt><trkpt lat="50.16359471105982" lon="16.27098061800549"><ele>313.0</ele><time>2026-05-02T15:10:26.999Z</time></trkpt><trkpt lat="50.163467269997014" lon="16.27100843225214"><ele>313.0</ele><time>2026-05-02T15:10:27.999Z</time></trkpt><trkpt lat="50.16334024370661" lon="16.271045635684835"><ele>313.0</ele><time>2026-05-02T15:10:28.999Z</time></trkpt><trkpt lat="50.163227802672736" lon="16.271068875867293"><ele>313.0</ele><time>2026-05-02T15:10:29.999Z</time></trkpt><trkpt lat="50.16312036075916" lon="16.27107607781577"><ele>313.0</ele><time>2026-05-02T15:10:30.999Z</time></trkpt><trkpt lat="50.16301334027605" lon="16.27109792151148"><ele>312.6</ele><time>2026-05-02T15:10:31.999Z</time></trkpt><trkpt lat="50.16290550742465" lon="16.271138825452937"><ele>312.20000000000005</ele><time>2026-05-02T15:10:32.999Z</time></trkpt><trkpt lat="50.16279786604405" lon="16.271162194511565"><ele>311.8</ele><time>2026-05-02T15:10:33.999Z</time></trkpt><trkpt lat="50.16270060106558" lon="16.271179599531408"><ele>311.40000000000003</ele><time>2026-05-02T15:10:34.999Z</time></trkpt><trkpt lat="50.16260116614313" lon="16.27119741835456"><ele>311.0</ele><time>2026-05-02T15:10:35.999Z</time></trkpt><trkpt lat="50.162486600342795" lon="16.271213122438507"><ele>311.0</ele><time>2026-05-02T15:10:36.999Z</time></trkpt><trkpt lat="50.16236774014143" lon="16.27125142278148"><ele>311.0</ele><time>2026-05-02T15:10:37.999Z</time></trkpt><trkpt lat="50.16224207991849" lon="16.27128088971649"><ele>311.0</ele><time>2026-05-02T15:10:38.999Z</time></trkpt><trkpt lat="50.162120926514554" lon="16.27132444777453"><ele>311.0</ele><time>2026-05-02T15:10:39.999Z</time></trkpt><trkpt lat="50.161989675665176" lon="16.27134996202989"><ele>311.0</ele><time>2026-05-02T15:10:40.999Z</time></trkpt><trkpt lat="50.16186441394148" lon="16.271419437030815"><ele>311.0</ele><time>2026-05-02T15:10:41.999Z</time></trkpt><trkpt lat="50.16172503845769" lon="16.271447630418386"><ele>311.0</ele><time>2026-05-02T15:10:42.999Z</time></trkpt><trkpt lat="50.16160920628199" lon="16.271492978376912"><ele>311.0</ele><time>2026-05-02T15:10:43.999Z</time></trkpt><trkpt lat="50.1615007198874" lon="16.271565437405815"><ele>311.0</ele><time>2026-05-02T15:10:44.999Z</time></trkpt><trkpt lat="50.161399617878146" lon="16.271585118617832"><ele>311.0</ele><time>2026-05-02T15:10:45.999Z</time></trkpt><trkpt lat="50.16126933422414" lon="16.27164087351677"><ele>311.0</ele><time>2026-05-02T15:10:46.999Z</time></trkpt><trkpt lat="50.161159966895994" lon="16.271712926102634"><ele>311.0</ele><time>2026-05-02T15:10:47.999Z</time></trkpt><trkpt lat="50.16104314620758" lon="16.2717422239247"><ele>311.0</ele><time>2026-05-02T15:10:48.999Z</time></trkpt><trkpt lat="50.16092985627595" lon="16.271828245690454"><ele>311.0</ele><time>2026-05-02T15:10:49.999Z</time></trkpt><trkpt lat="50.160813858837" lon="16.271870326056412"><ele>311.0</ele><time>2026-05-02T15:10:50.999Z</time></trkpt><trkpt lat="50.16069383306216" lon="16.27194145282394"><ele>311.0</ele><time>2026-05-02T15:10:51.999Z</time></trkpt><trkpt lat="50.16057667556682" lon="16.272022224011064"><ele>310.5</ele><time>2026-05-02T15:10:52.999Z</time></trkpt><trkpt lat="50.1604567769408" lon="16.272082202703672"><ele>310.0</ele><time>2026-05-02T15:10:53.999Z</time></trkpt><trkpt lat="50.16033950407171" lon="16.272184529165965"><ele>309.5</ele><time>2026-05-02T15:10:54.999Z</time></trkpt><trkpt lat="50.16021685974876" lon="16.272256659295476"><ele>309.0</ele><time>2026-05-02T15:10:55.999Z</time></trkpt><trkpt lat="50.160058392499" lon="16.272402559100765"><ele>309.0</ele><time>2026-05-02T15:10:56.999Z</time></trkpt><trkpt lat="50.15992695042756" lon="16.272560280304543"><ele>309.0</ele><time>2026-05-02T15:10:57.999Z</time></trkpt><trkpt lat="50.15983344282397" lon="16.272683500441662"><ele>309.0</ele><time>2026-05-02T15:10:58.999Z</time></trkpt><trkpt lat="50.159750329176056" lon="16.272806790195695"><ele>309.0</ele><time>2026-05-02T15:10:59.999Z</time></trkpt><trkpt lat="50.15967497373593" lon="16.27293137864345"><ele>309.0</ele><time>2026-05-02T15:11:00.999Z</time></trkpt><trkpt lat="50.1595971893011" lon="16.273062171608636"><ele>309.0</ele><time>2026-05-02T15:11:01.999Z</time></trkpt><trkpt lat="50.159524557863115" lon="16.273196872603485"><ele>309.0</ele><time>2026-05-02T15:11:02.999Z</time></trkpt><trkpt lat="50.159455393854564" lon="16.273343167908255"><ele>309.0</ele><time>2026-05-02T15:11:03.999Z</time></trkpt><trkpt lat="50.15939489409446" lon="16.273484693208765"><ele>309.0</ele><time>2026-05-02T15:11:04.999Z</time></trkpt><trkpt lat="50.15932977650636" lon="16.273628199222745"><ele>309.0</ele><time>2026-05-02T15:11:05.999Z</time></trkpt><trkpt lat="50.15926769016211" lon="16.27377577026017"><ele>309.0</ele><time>2026-05-02T15:11:06.999Z</time></trkpt><trkpt lat="50.159210009904314" lon="16.27392850537333"><ele>309.0</ele><time>2026-05-02T15:11:07.999Z</time></trkpt><trkpt lat="50.15915422387569" lon="16.2740737846"><ele>309.0</ele><time>2026-05-02T15:11:08.999Z</time></trkpt><trkpt lat="50.15909204547921" lon="16.274214599777512"><ele>309.2</ele><time>2026-05-02T15:11:09.999Z</time></trkpt><trkpt lat="50.1590289959832" lon="16.274353095989323"><ele>309.4</ele><time>2026-05-02T15:11:10.999Z</time></trkpt><trkpt lat="50.15897314130539" lon="16.274487875326546"><ele>309.6</ele><time>2026-05-02T15:11:11.999Z</time></trkpt><trkpt lat="50.15891280286071" lon="16.27461631993272"><ele>309.8</ele><time>2026-05-02T15:11:12.999Z</time></trkpt><trkpt lat="50.1588442686265" lon="16.27474005824505"><ele>310.0</ele><time>2026-05-02T15:11:13.999Z</time></trkpt><trkpt lat="50.15877661832361" lon="16.274859715768294"><ele>310.0</ele><time>2026-05-02T15:11:14.999Z</time></trkpt><trkpt lat="50.15870404000477" lon="16.274972392422143"><ele>310.0</ele><time>2026-05-02T15:11:15.999Z</time></trkpt><trkpt lat="50.15861599037591" lon="16.275079216215968"><ele>310.0</ele><time>2026-05-02T15:11:16.999Z</time></trkpt><trkpt lat="50.15851529941672" lon="16.27519738280642"><ele>310.0</ele><time>2026-05-02T15:11:17.999Z</time></trkpt><trkpt lat="50.158410199029206" lon="16.275323808085286"><ele>310.0</ele><time>2026-05-02T15:11:18.999Z</time></trkpt><trkpt lat="50.15830289110079" lon="16.27543138234941"><ele>310.0</ele><time>2026-05-02T15:11:19.999Z</time></trkpt><trkpt lat="50.15819801877712" lon="16.27552414133386"><ele>310.0</ele><time>2026-05-02T15:11:20.999Z</time></trkpt><trkpt lat="50.15809410585179" lon="16.27562118268704"><ele>310.0</ele><time>2026-05-02T15:11:21.999Z</time></trkpt><trkpt lat="50.157998068645945" lon="16.275696819184397"><ele>309.6</ele><time>2026-05-02T15:11:22.999Z</time></trkpt><trkpt lat="50.15791086652152" lon="16.275781001858263"><ele>309.2</ele><time>2026-05-02T15:11:23.999Z</time></trkpt><trkpt lat="50.15783156936788" lon="16.275889132960316"><ele>308.8</ele><time>2026-05-02T15:11:24.999Z</time></trkpt><trkpt lat="50.15774159628555" lon="16.275978156427996"><ele>308.4</ele><time>2026-05-02T15:11:25.999Z</time></trkpt><trkpt lat="50.157640454466915" lon="16.276051020926996"><ele>308.0</ele><time>2026-05-02T15:11:26.999Z</time></trkpt><trkpt lat="50.15755026502829" lon="16.276168100848963"><ele>308.0</ele><time>2026-05-02T15:11:27.999Z</time></trkpt><trkpt lat="50.157448908679925" lon="16.276265488275907"><ele>308.0</ele><time>2026-05-02T15:11:28.999Z</time></trkpt><trkpt lat="50.15735077623515" lon="16.276358170078936"><ele>308.0</ele><time>2026-05-02T15:11:29.999Z</time></trkpt><trkpt lat="50.15725508415995" lon="16.27644697406476"><ele>308.0</ele><time>2026-05-02T15:11:30.999Z</time></trkpt><trkpt lat="50.157174021582016" lon="16.276524734908993"><ele>308.0</ele><time>2026-05-02T15:11:31.999Z</time></trkpt><trkpt lat="50.15711404501088" lon="16.2765800239122"><ele>308.2</ele><time>2026-05-02T15:11:32.999Z</time></trkpt><trkpt lat="50.15700608393228" lon="16.27664203085795"><ele>308.4</ele><time>2026-05-02T15:11:34.999Z</time></trkpt><trkpt lat="50.15691112546731" lon="16.276626572236804"><ele>308.59999999999997</ele><time>2026-05-02T15:11:36.999Z</time></trkpt><trkpt lat="50.156825193697564" lon="16.276575557398086"><ele>308.8</ele><time>2026-05-02T15:11:38.999Z</time></trkpt><trkpt lat="50.156736892945595" lon="16.27663018717084"><ele>309.0</ele><time>2026-05-02T15:11:40.999Z</time></trkpt><trkpt lat="50.156688737570235" lon="16.2767643627563"><ele>309.00000000000006</ele><time>2026-05-02T15:11:42.999Z</time></trkpt><trkpt lat="50.156697122242264" lon="16.27692134855486"><ele>309.0</ele><time>2026-05-02T15:11:45Z</time></trkpt><trkpt lat="50.156676676782695" lon="16.277014701919995"><ele>309.0</ele><time>2026-05-02T15:11:46Z</time></trkpt><trkpt lat="50.15664031036026" lon="16.277098395109544"><ele>309.0</ele><time>2026-05-02T15:11:47Z</time></trkpt><trkpt lat="50.15658783635126" lon="16.277169834217446"><ele>309.0</ele><time>2026-05-02T15:11:48Z</time></trkpt><trkpt lat="50.15653050797381" lon="16.27722954973893"><ele>309.00000000000006</ele><time>2026-05-02T15:11:49Z</time></trkpt><trkpt lat="50.156462106592386" lon="16.277295921150955"><ele>309.0</ele><time>2026-05-02T15:11:50Z</time></trkpt><trkpt lat="50.156393433546675" lon="16.27737498534275"><ele>308.75</ele><time>2026-05-02T15:11:51Z</time></trkpt><trkpt lat="50.156323143796314" lon="16.277466629688757"><ele>308.5</ele><time>2026-05-02T15:11:52Z</time></trkpt><trkpt lat="50.15623429868585" lon="16.277572598794904"><ele>308.25</ele><time>2026-05-02T15:11:53Z</time></trkpt><trkpt lat="50.15613915909809" lon="16.27768318620251"><ele>308.0</ele><time>2026-05-02T15:11:54Z</time></trkpt><trkpt lat="50.15603391936457" lon="16.277801957132322"><ele>308.0</ele><time>2026-05-02T15:11:55Z</time></trkpt><trkpt lat="50.15592808837775" lon="16.277925571487444"><ele>308.0</ele><time>2026-05-02T15:11:56Z</time></trkpt><trkpt lat="50.15582385835256" lon="16.27804969843964"><ele>308.0</ele><time>2026-05-02T15:11:57Z</time></trkpt><trkpt lat="50.15572706929876" lon="16.27816264512178"><ele>308.0</ele><time>2026-05-02T15:11:58Z</time></trkpt><trkpt lat="50.15563196392364" lon="16.27827347118317"><ele>307.6</ele><time>2026-05-02T15:11:59Z</time></trkpt><trkpt lat="50.15554932071228" lon="16.278379262368514"><ele>307.20000000000005</ele><time>2026-05-02T15:12:00Z</time></trkpt><trkpt lat="50.15545615402111" lon="16.2784884941442"><ele>306.8</ele><time>2026-05-02T15:12:01Z</time></trkpt><trkpt lat="50.15536234151937" lon="16.278598681862157"><ele>306.40000000000003</ele><time>2026-05-02T15:12:02Z</time></trkpt><trkpt lat="50.15527844070887" lon="16.278704678562384"><ele>306.0</ele><time>2026-05-02T15:12:03Z</time></trkpt><trkpt lat="50.15519526025922" lon="16.27880189407053"><ele>306.0</ele><time>2026-05-02T15:12:04Z</time></trkpt><trkpt lat="50.15511325147491" lon="16.278878193099953"><ele>306.0</ele><time>2026-05-02T15:12:05Z</time></trkpt><trkpt lat="50.155037578710804" lon="16.278950309107685"><ele>306.0</ele><time>2026-05-02T15:12:06Z</time></trkpt><trkpt lat="50.15495919100956" lon="16.279029461814787"><ele>306.0</ele><time>2026-05-02T15:12:07Z</time></trkpt><trkpt lat="50.15487269634692" lon="16.279106904602443"><ele>306.0</ele><time>2026-05-02T15:12:08Z</time></trkpt><trkpt lat="50.1547891021569" lon="16.279189236119688"><ele>306.0</ele><time>2026-05-02T15:12:09Z</time></trkpt><trkpt lat="50.15470831447943" lon="16.279260696740266"><ele>306.0</ele><time>2026-05-02T15:12:10Z</time></trkpt><trkpt lat="50.154641218960215" lon="16.279313828362486"><ele>306.0</ele><time>2026-05-02T15:12:11Z</time></trkpt><trkpt lat="50.15458065171377" lon="16.279367143162897"><ele>306.0</ele><time>2026-05-02T15:12:12Z</time></trkpt><trkpt lat="50.15448364303799" lon="16.279448282665452"><ele>306.0</ele><time>2026-05-02T15:12:14Z</time></trkpt><trkpt lat="50.15442540289454" lon="16.279488584068147"><ele>306.0</ele><time>2026-05-02T15:12:16Z</time></trkpt><trkpt lat="50.15434865148611" lon="16.279521259947987"><ele>306.0</ele><time>2026-05-02T15:12:19Z</time></trkpt><trkpt lat="50.15423312681681" lon="16.279567794060515"><ele>306.0</ele><time>2026-05-02T15:12:21Z</time></trkpt><trkpt lat="50.15420405227293" lon="16.279724204725397"><ele>306.0</ele><time>2026-05-02T15:12:23Z</time></trkpt><trkpt lat="50.15429954720216" lon="16.27986293471833"><ele>306.0</ele><time>2026-05-02T15:12:25Z</time></trkpt><trkpt lat="50.15439311093427" lon="16.279909941214008"><ele>306.25</ele><time>2026-05-02T15:12:26Z</time></trkpt><trkpt lat="50.15449919051951" lon="16.279988008259878"><ele>306.5</ele><time>2026-05-02T15:12:27Z</time></trkpt><trkpt lat="50.15461316723324" lon="16.28012594437652"><ele>306.75</ele><time>2026-05-02T15:12:28Z</time></trkpt><trkpt lat="50.154754120179376" lon="16.28031870410456"><ele>307.0</ele><time>2026-05-02T15:12:29Z</time></trkpt><trkpt lat="50.15491819008384" lon="16.280542771375213"><ele>307.5</ele><time>2026-05-02T15:12:30Z</time></trkpt><trkpt lat="50.155103538013336" lon="16.280794192559455"><ele>308.0</ele><time>2026-05-02T15:12:31Z</time></trkpt><trkpt lat="50.155310627228765" lon="16.281070158738657"><ele>308.0</ele><time>2026-05-02T15:12:32Z</time></trkpt><trkpt lat="50.155539951349" lon="16.2813739726388"><ele>308.0</ele><time>2026-05-02T15:12:33Z</time></trkpt><trkpt lat="50.15579491159167" lon="16.28171191051429"><ele>310.0</ele><time>2026-05-02T15:12:34Z</time></trkpt><trkpt lat="50.15606366103942" lon="16.28207223545555"><ele>312.0</ele><time>2026-05-02T15:12:35Z</time></trkpt><trkpt lat="50.15634864654277" lon="16.28245217067582"><ele>313.5</ele><time>2026-05-02T15:12:36Z</time></trkpt><trkpt lat="50.15662538438192" lon="16.28281469648107"><ele>315.0</ele><time>2026-05-02T15:12:37Z</time></trkpt><trkpt lat="50.156862676782495" lon="16.283132302218284"><ele>316.0</ele><time>2026-05-02T15:12:38Z</time></trkpt><trkpt lat="50.15706249503963" lon="16.283399836584856"><ele>317.0</ele><time>2026-05-02T15:12:39Z</time></trkpt><trkpt lat="50.157236556742816" lon="16.283628925162848"><ele>318.33333333333337</ele><time>2026-05-02T15:12:40Z</time></trkpt><trkpt lat="50.15739529786369" lon="16.28384038210892"><ele>319.6666666666667</ele><time>2026-05-02T15:12:41Z</time></trkpt><trkpt lat="50.15754266509885" lon="16.284035199141623"><ele>321.0</ele><time>2026-05-02T15:12:42Z</time></trkpt><trkpt lat="50.15767985032447" lon="16.28421192066943"><ele>321.4</ele><time>2026-05-02T15:12:43Z</time></trkpt><trkpt lat="50.15779943705009" lon="16.284367478445354"><ele>321.8</ele><time>2026-05-02T15:12:44Z</time></trkpt><trkpt lat="50.15788728219959" lon="16.2844958456486"><ele>322.2</ele><time>2026-05-02T15:12:45Z</time></trkpt><trkpt lat="50.15795288739006" lon="16.28458970900302"><ele>322.59999999999997</ele><time>2026-05-02T15:12:46Z</time></trkpt><trkpt lat="50.158001334939506" lon="16.2846605286132"><ele>323.0</ele><time>2026-05-02T15:12:47Z</time></trkpt><trkpt lat="50.158136340489136" lon="16.284509382036074"><ele>323.0</ele><time>2026-05-02T15:12:49Z</time></trkpt><trkpt lat="50.15819293212534" lon="16.284377953980776"><ele>323.0</ele><time>2026-05-02T15:12:50Z</time></trkpt><trkpt lat="50.15826884469806" lon="16.284225661449728"><ele>323.0</ele><time>2026-05-02T15:12:51Z</time></trkpt><trkpt lat="50.15833343564839" lon="16.284105193341162"><ele>323.0</ele><time>2026-05-02T15:12:52Z</time></trkpt><trkpt lat="50.15831321379332" lon="16.283924306142595"><ele>323.0</ele><time>2026-05-02T15:12:54Z</time></trkpt><trkpt lat="50.15826645118181" lon="16.283845115149926"><ele>323.0</ele><time>2026-05-02T15:12:55Z</time></trkpt><trkpt lat="50.15820791193153" lon="16.283773900792816"><ele>323.0</ele><time>2026-05-02T15:12:56Z</time></trkpt><trkpt lat="50.158173996442976" lon="16.28366218048359"><ele>323.0</ele><time>2026-05-02T15:12:58Z</time></trkpt><trkpt lat="50.15803482614157" lon="16.28384677901378"><ele>323.0</ele><time>2026-05-02T15:13:00Z</time></trkpt><trkpt lat="50.15797768357719" lon="16.28391318682099"><ele>323.0</ele><time>2026-05-02T15:13:01Z</time></trkpt><trkpt lat="50.157916761704215" lon="16.284018918198605"><ele>322.6666666666667</ele><time>2026-05-02T15:13:03Z</time></trkpt><trkpt lat="50.15784012289294" lon="16.28391422277078"><ele>322.33333333333337</ele><time>2026-05-02T15:13:05Z</time></trkpt><trkpt lat="50.15783339907472" lon="16.283798617832822"><ele>322.0</ele><time>2026-05-02T15:13:08Z</time></trkpt><trkpt lat="50.157895360505535" lon="16.283778337512665"><ele>321.6666666666667</ele><time>2026-05-02T15:14:24Z</time></trkpt><trkpt lat="50.15793734105678" lon="16.283688246951808"><ele>321.3333333333333</ele><time>2026-05-02T15:14:30Z</time></trkpt><trkpt lat="50.157981573009806" lon="16.28360373757399"><ele>321.0</ele><time>2026-05-02T15:14:35Z</time></trkpt><trkpt lat="50.15792720051706" lon="16.28353475253498"><ele>321.0</ele><time>2026-05-02T15:14:44Z</time></trkpt><trkpt lat="50.157861022679384" lon="16.283526347398823"><ele>321.0</ele><time>2026-05-02T15:14:47Z</time></trkpt><trkpt lat="50.1577909976188" lon="16.28347867706816"><ele>321.0</ele><time>2026-05-02T15:14:51.067Z</time></trkpt><trkpt lat="50.157945870610725" lon="16.28352814451364"><ele>321.0</ele><time>2026-05-02T15:14:56.618Z</time></trkpt><trkpt lat="50.15800493568948" lon="16.28362916668711"><ele>321.0</ele><time>2026-05-02T15:19:08Z</time></trkpt><trkpt lat="50.15795320366169" lon="16.283737272841883"><ele>320.99999999999994</ele><time>2026-05-02T15:19:14Z</time></trkpt><trkpt lat="50.15789328517445" lon="16.283786653677183"><ele>321.0</ele><time>2026-05-02T15:19:21Z</time></trkpt><trkpt lat="50.15784050942081" lon="16.283849476294854"><ele>321.0</ele><time>2026-05-02T15:19:25Z</time></trkpt><trkpt lat="50.157902367581364" lon="16.283914317384653"><ele>321.0</ele><time>2026-05-02T15:21:21Z</time></trkpt><trkpt lat="50.157985785714864" lon="16.283927050835754"><ele>321.0</ele><time>2026-05-02T15:21:23Z</time></trkpt><trkpt lat="50.15802842095806" lon="16.283848902275466"><ele>320.99999999999994</ele><time>2026-05-02T15:21:24Z</time></trkpt><trkpt lat="50.158066278960746" lon="16.283756675134974"><ele>321.0</ele><time>2026-05-02T15:21:25Z</time></trkpt><trkpt lat="50.15816542914898" lon="16.283727769784733"><ele>321.3333333333333</ele><time>2026-05-02T15:21:27Z</time></trkpt><trkpt lat="50.158248651423925" lon="16.283868338705577"><ele>321.6666666666667</ele><time>2026-05-02T15:21:29Z</time></trkpt><trkpt lat="50.158288484128356" lon="16.28395793196102"><ele>322.0</ele><time>2026-05-02T15:21:30Z</time></trkpt><trkpt lat="50.15831754607821" lon="16.284061879281605"><ele>322.33333333333337</ele><time>2026-05-02T15:21:32Z</time></trkpt><trkpt lat="50.15826973517609" lon="16.28414518416541"><ele>322.6666666666667</ele><time>2026-05-02T15:21:33Z</time></trkpt><trkpt lat="50.15823187619181" lon="16.284228850034477"><ele>323.0</ele><time>2026-05-02T15:21:34Z</time></trkpt><trkpt lat="50.158181663588266" lon="16.284312745303804"><ele>323.0</ele><time>2026-05-02T15:21:35Z</time></trkpt><trkpt lat="50.15813910639252" lon="16.284386433786402"><ele>323.0</ele><time>2026-05-02T15:21:36Z</time></trkpt><trkpt lat="50.15809185222657" lon="16.284474265289433"><ele>323.0</ele><time>2026-05-02T15:21:38Z</time></trkpt><trkpt lat="50.158049889188604" lon="16.28456363548742"><ele>323.0</ele><time>2026-05-02T15:21:50Z</time></trkpt><trkpt lat="50.15810253035252" lon="16.284782202168717"><ele>323.0</ele><time>2026-05-02T15:21:53Z</time></trkpt><trkpt lat="50.15817638030638" lon="16.284888782850114"><ele>325.0</ele><time>2026-05-02T15:21:54Z</time></trkpt><trkpt lat="50.15827569914128" lon="16.285017023570344"><ele>327.0</ele><time>2026-05-02T15:21:55Z</time></trkpt><trkpt lat="50.158391196649745" lon="16.28516642578991"><ele>329.0</ele><time>2026-05-02T15:21:56Z</time></trkpt><trkpt lat="50.15852217117841" lon="16.28534196495524"><ele>329.0</ele><time>2026-05-02T15:21:57Z</time></trkpt><trkpt lat="50.1586809065045" lon="16.285550379965667"><ele>329.0</ele><time>2026-05-02T15:21:58Z</time></trkpt><trkpt lat="50.15886420247328" lon="16.285792011164347"><ele>329.0</ele><time>2026-05-02T15:21:59Z</time></trkpt><trkpt lat="50.159075125184025" lon="16.286071496289964"><ele>332.0</ele><time>2026-05-02T15:22:00Z</time></trkpt><trkpt lat="50.159312996899445" lon="16.286388952805083"><ele>335.0</ele><time>2026-05-02T15:22:01Z</time></trkpt><trkpt lat="50.15958018466298" lon="16.286742475025484"><ele>335.5</ele><time>2026-05-02T15:22:02Z</time></trkpt><trkpt lat="50.1598307924774" lon="16.28707609083213"><ele>336.0</ele><time>2026-05-02T15:22:03Z</time></trkpt><trkpt lat="50.160033305864964" lon="16.28734393671381"><ele>340.0</ele><time>2026-05-02T15:22:04Z</time></trkpt><trkpt lat="50.16023176915167" lon="16.287609216335245"><ele>344.0</ele><time>2026-05-02T15:22:05Z</time></trkpt><trkpt lat="50.16042448064787" lon="16.28786471067577"><ele>345.0</ele><time>2026-05-02T15:22:06Z</time></trkpt><trkpt lat="50.16061144305074" lon="16.288113639332476"><ele>346.0</ele><time>2026-05-02T15:22:07Z</time></trkpt><trkpt lat="50.16078579627255" lon="16.288349188540426"><ele>348.0</ele><time>2026-05-02T15:22:08Z</time></trkpt><trkpt lat="50.160950511683225" lon="16.28857444907236"><ele>350.0</ele><time>2026-05-02T15:22:09Z</time></trkpt><trkpt lat="50.16112672315147" lon="16.288817762837002"><ele>349.0</ele><time>2026-05-02T15:22:10Z</time></trkpt><trkpt lat="50.1613081714045" lon="16.2890632200039"><ele>348.0</ele><time>2026-05-02T15:22:11Z</time></trkpt><trkpt lat="50.16151940036456" lon="16.289331603720417"><ele>348.0</ele><time>2026-05-02T15:22:12Z</time></trkpt><trkpt lat="50.16171694041504" lon="16.289584188932388"><ele>348.0</ele><time>2026-05-02T15:22:13Z</time></trkpt><trkpt lat="50.1618928002042" lon="16.28981548149379"><ele>348.6666666666667</ele><time>2026-05-02T15:22:14Z</time></trkpt><trkpt lat="50.16204538222968" lon="16.290043855126672"><ele>349.33333333333337</ele><time>2026-05-02T15:22:15Z</time></trkpt><trkpt lat="50.16218111504837" lon="16.290226381070706"><ele>350.0</ele><time>2026-05-02T15:22:16Z</time></trkpt><trkpt lat="50.16229454302447" lon="16.290379034523166"><ele>350.33333333333337</ele><time>2026-05-02T15:22:17Z</time></trkpt><trkpt lat="50.162416422796824" lon="16.290543062705414"><ele>350.6666666666667</ele><time>2026-05-02T15:22:18Z</time></trkpt><trkpt lat="50.16253862864663" lon="16.290707529703646"><ele>351.0</ele><time>2026-05-02T15:22:19Z</time></trkpt><trkpt lat="50.16267658533654" lon="16.29085864160198"><ele>351.0</ele><time>2026-05-02T15:22:20Z</time></trkpt><trkpt lat="50.16278937107149" lon="16.291063272435096"><ele>351.0</ele><time>2026-05-02T15:22:21Z</time></trkpt><trkpt lat="50.16291840786782" lon="16.29125799580857"><ele>351.0</ele><time>2026-05-02T15:22:22Z</time></trkpt><trkpt lat="50.16304546173627" lon="16.291465884757354"><ele>351.3333333333333</ele><time>2026-05-02T15:22:23Z</time></trkpt><trkpt lat="50.163174022310166" lon="16.29168476894441"><ele>351.66666666666663</ele><time>2026-05-02T15:22:24Z</time></trkpt><trkpt lat="50.163302652117494" lon="16.291911248608795"><ele>352.0</ele><time>2026-05-02T15:22:25Z</time></trkpt><trkpt lat="50.163424996868045" lon="16.292139840594633"><ele>353.0</ele><time>2026-05-02T15:22:26Z</time></trkpt><trkpt lat="50.16353911861562" lon="16.29236935972933"><ele>354.0</ele><time>2026-05-02T15:22:27Z</time></trkpt><trkpt lat="50.16365045652825" lon="16.29260260834243"><ele>355.0</ele><time>2026-05-02T15:22:28Z</time></trkpt><trkpt lat="50.163759445303796" lon="16.292840982885135"><ele>355.0</ele><time>2026-05-02T15:22:29Z</time></trkpt><trkpt lat="50.16386507705018" lon="16.293087220817025"><ele>355.0</ele><time>2026-05-02T15:22:30Z</time></trkpt><trkpt lat="50.163968812288424" lon="16.293344454139802"><ele>355.0</ele><time>2026-05-02T15:22:31Z</time></trkpt><trkpt lat="50.16407994656822" lon="16.29359302230864"><ele>356.0</ele><time>2026-05-02T15:22:32Z</time></trkpt><trkpt lat="50.164171492981076" lon="16.29385015158811"><ele>357.0</ele><time>2026-05-02T15:22:33Z</time></trkpt><trkpt lat="50.16425980341813" lon="16.294108524127797"><ele>358.0</ele><time>2026-05-02T15:22:34Z</time></trkpt><trkpt lat="50.1643464441296" lon="16.294368368344767"><ele>358.3333333333333</ele><time>2026-05-02T15:22:35Z</time></trkpt><trkpt lat="50.16443009915488" lon="16.294644042566446"><ele>358.6666666666667</ele><time>2026-05-02T15:22:36Z</time></trkpt><trkpt lat="50.16450821901495" lon="16.294929330366546"><ele>359.0</ele><time>2026-05-02T15:22:37Z</time></trkpt><trkpt lat="50.16457948733763" lon="16.295220628808956"><ele>359.6666666666667</ele><time>2026-05-02T15:22:38Z</time></trkpt><trkpt lat="50.16464719683243" lon="16.295512095262445"><ele>360.3333333333333</ele><time>2026-05-02T15:22:39Z</time></trkpt><trkpt lat="50.16471369529712" lon="16.295800101829013"><ele>361.0</ele><time>2026-05-02T15:22:40Z</time></trkpt><trkpt lat="50.164754363351484" lon="16.29610178155863"><ele>361.3333333333333</ele><time>2026-05-02T15:22:41Z</time></trkpt><trkpt lat="50.16481890648466" lon="16.296392136002453"><ele>361.6666666666667</ele><time>2026-05-02T15:22:42Z</time></trkpt><trkpt lat="50.16485039395899" lon="16.296696686331785"><ele>362.0</ele><time>2026-05-02T15:22:43Z</time></trkpt><trkpt lat="50.16490547015176" lon="16.29699309940482"><ele>364.33333333333337</ele><time>2026-05-02T15:22:44Z</time></trkpt><trkpt lat="50.16493812210696" lon="16.297275165117956"><ele>366.6666666666667</ele><time>2026-05-02T15:22:45Z</time></trkpt><trkpt lat="50.164970465575124" lon="16.297562348747554"><ele>369.0</ele><time>2026-05-02T15:22:46Z</time></trkpt><trkpt lat="50.16499802046727" lon="16.297849845992186"><ele>370.0</ele><time>2026-05-02T15:22:47Z</time></trkpt><trkpt lat="50.16502553469913" lon="16.29814809371995"><ele>371.0</ele><time>2026-05-02T15:22:48Z</time></trkpt><trkpt lat="50.16504669500729" lon="16.298456405142915"><ele>372.0</ele><time>2026-05-02T15:22:49Z</time></trkpt><trkpt lat="50.165063160895976" lon="16.298770625603378"><ele>373.0</ele><time>2026-05-02T15:22:50Z</time></trkpt><trkpt lat="50.16507350489781" lon="16.299082957442625"><ele>374.0</ele><time>2026-05-02T15:22:51Z</time></trkpt><trkpt lat="50.16507984815165" lon="16.299387103943463"><ele>375.0</ele><time>2026-05-02T15:22:52Z</time></trkpt><trkpt lat="50.16508592375191" lon="16.299686360795654"><ele>376.0</ele><time>2026-05-02T15:22:53Z</time></trkpt><trkpt lat="50.16508618802737" lon="16.299989973502754"><ele>377.0</ele><time>2026-05-02T15:22:54Z</time></trkpt><trkpt lat="50.16508037808162" lon="16.300295422368187"><ele>378.0</ele><time>2026-05-02T15:22:55Z</time></trkpt><trkpt lat="50.16507174139757" lon="16.300599307525502"><ele>378.6666666666667</ele><time>2026-05-02T15:22:56Z</time></trkpt><trkpt lat="50.1650651928368" lon="16.300877812610118"><ele>379.33333333333337</ele><time>2026-05-02T15:22:57Z</time></trkpt><trkpt lat="50.165056118443296" lon="16.301176298655168"><ele>380.0</ele><time>2026-05-02T15:22:58Z</time></trkpt><trkpt lat="50.165029138823805" lon="16.301518302572017"><ele>381.0</ele><time>2026-05-02T15:22:59Z</time></trkpt><trkpt lat="50.16501625022325" lon="16.301916211761"><ele>382.0</ele><time>2026-05-02T15:23:00Z</time></trkpt><trkpt lat="50.16500072782034" lon="16.30235959353392"><ele>382.5</ele><time>2026-05-02T15:23:01Z</time></trkpt><trkpt lat="50.16498651745476" lon="16.302838873520738"><ele>383.0</ele><time>2026-05-02T15:23:02Z</time></trkpt><trkpt lat="50.16497840198504" lon="16.303349670162742"><ele>383.5</ele><time>2026-05-02T15:23:03Z</time></trkpt><trkpt lat="50.16495703509716" lon="16.30388532001503"><ele>384.0</ele><time>2026-05-02T15:23:04Z</time></trkpt><trkpt lat="50.1649395395657" lon="16.304440747774695"><ele>386.5</ele><time>2026-05-02T15:23:05Z</time></trkpt><trkpt lat="50.16492389483073" lon="16.304946012889"><ele>389.0</ele><time>2026-05-02T15:23:06Z</time></trkpt><trkpt lat="50.164909363256676" lon="16.305430110573642"><ele>390.5</ele><time>2026-05-02T15:23:07Z</time></trkpt><trkpt lat="50.164894539400876" lon="16.30591244893358"><ele>392.0</ele><time>2026-05-02T15:23:08Z</time></trkpt><trkpt lat="50.16487892772408" lon="16.306399916914646"><ele>392.5</ele><time>2026-05-02T15:23:09Z</time></trkpt><trkpt lat="50.164861256420494" lon="16.30689860223622"><ele>393.0</ele><time>2026-05-02T15:23:10Z</time></trkpt><trkpt lat="50.16484388756437" lon="16.307436070280605"><ele>394.5</ele><time>2026-05-02T15:23:11Z</time></trkpt><trkpt lat="50.16482758027632" lon="16.308002673664785"><ele>396.0</ele><time>2026-05-02T15:23:12Z</time></trkpt><trkpt lat="50.16481263004185" lon="16.308528184216065"><ele>398.0</ele><time>2026-05-02T15:23:13Z</time></trkpt><trkpt lat="50.1648015037336" lon="16.309006589008053"><ele>400.0</ele><time>2026-05-02T15:23:14Z</time></trkpt><trkpt lat="50.16479105608085" lon="16.309494946700692"><ele>401.5</ele><time>2026-05-02T15:23:15Z</time></trkpt><trkpt lat="50.16478426063833" lon="16.310006690647125"><ele>403.0</ele><time>2026-05-02T15:23:16Z</time></trkpt><trkpt lat="50.164771649032815" lon="16.31053056298789"><ele>406.5</ele><time>2026-05-02T15:23:17Z</time></trkpt><trkpt lat="50.16475839145583" lon="16.311030374287803"><ele>410.0</ele><time>2026-05-02T15:23:18Z</time></trkpt><trkpt lat="50.16474960119232" lon="16.31147489629473"><ele>413.5</ele><time>2026-05-02T15:23:19Z</time></trkpt><trkpt lat="50.16474472528758" lon="16.31190712227373"><ele>417.0</ele><time>2026-05-02T15:23:20Z</time></trkpt><trkpt lat="50.164737281883575" lon="16.3123375077034"><ele>417.0</ele><time>2026-05-02T15:23:21Z</time></trkpt><trkpt lat="50.1647302967827" lon="16.31273118476503"><ele>417.0</ele><time>2026-05-02T15:23:22Z</time></trkpt><trkpt lat="50.16471838430612" lon="16.31309405252025"><ele>416.0</ele><time>2026-05-02T15:23:23Z</time></trkpt><trkpt lat="50.16469898113144" lon="16.313447214055003"><ele>415.0</ele><time>2026-05-02T15:23:24Z</time></trkpt><trkpt lat="50.16466822278205" lon="16.313804145208582"><ele>414.5</ele><time>2026-05-02T15:23:25Z</time></trkpt><trkpt lat="50.16462358908921" lon="16.314165886057776"><ele>414.0</ele><time>2026-05-02T15:23:26Z</time></trkpt><trkpt lat="50.16457342102272" lon="16.314507924634132"><ele>415.0</ele><time>2026-05-02T15:23:27Z</time></trkpt><trkpt lat="50.16451842760108" lon="16.314853724191757"><ele>416.0</ele><time>2026-05-02T15:23:28Z</time></trkpt><trkpt lat="50.16446252643501" lon="16.3152033347684"><ele>416.0</ele><time>2026-05-02T15:23:29Z</time></trkpt><trkpt lat="50.164404327464986" lon="16.315549799450167"><ele>416.0</ele><time>2026-05-02T15:23:30Z</time></trkpt><trkpt lat="50.16434339108983" lon="16.315894687801848"><ele>417.0</ele><time>2026-05-02T15:23:31Z</time></trkpt><trkpt lat="50.164283679081066" lon="16.31623055937224"><ele>418.0</ele><time>2026-05-02T15:23:32Z</time></trkpt><trkpt lat="50.16423061356302" lon="16.316548828263418"><ele>419.0</ele><time>2026-05-02T15:23:33Z</time></trkpt><trkpt lat="50.16417748871143" lon="16.316863081405188"><ele>419.66666666666663</ele><time>2026-05-02T15:23:34Z</time></trkpt><trkpt lat="50.16411842493662" lon="16.317195811831265"><ele>420.33333333333337</ele><time>2026-05-02T15:23:35Z</time></trkpt><trkpt lat="50.16405977175127" lon="16.31752715735624"><ele>421.0</ele><time>2026-05-02T15:23:36Z</time></trkpt><trkpt lat="50.16400091690228" lon="16.317864323870886"><ele>422.6666666666667</ele><time>2026-05-02T15:23:37Z</time></trkpt><trkpt lat="50.16394186581062" lon="16.318204190452597"><ele>424.33333333333337</ele><time>2026-05-02T15:23:38Z</time></trkpt><trkpt lat="50.16388709561018" lon="16.318521153189483"><ele>426.0</ele><time>2026-05-02T15:23:39Z</time></trkpt><trkpt lat="50.163835565127364" lon="16.318813541488705"><ele>427.0</ele><time>2026-05-02T15:23:40Z</time></trkpt><trkpt lat="50.16378679418804" lon="16.319083276282335"><ele>428.0</ele><time>2026-05-02T15:23:41Z</time></trkpt><trkpt lat="50.16374944214751" lon="16.319301105606602"><ele>429.0</ele><time>2026-05-02T15:23:42Z</time></trkpt><trkpt lat="50.16372640391712" lon="16.31949423504254"><ele>429.0</ele><time>2026-05-02T15:23:43Z</time></trkpt><trkpt lat="50.1637544198052" lon="16.319656960114255"><ele>429.0</ele><time>2026-05-02T15:23:44Z</time></trkpt><trkpt lat="50.16383313753082" lon="16.31979837386302"><ele>429.0</ele><time>2026-05-02T15:23:45Z</time></trkpt><trkpt lat="50.16394865178732" lon="16.319952368624403"><ele>429.0</ele><time>2026-05-02T15:23:46Z</time></trkpt><trkpt lat="50.16407215815797" lon="16.32014451257272"><ele>431.66666666666663</ele><time>2026-05-02T15:23:47Z</time></trkpt><trkpt lat="50.16418171841825" lon="16.320383285217222"><ele>434.3333333333333</ele><time>2026-05-02T15:23:48Z</time></trkpt><trkpt lat="50.16427573629629" lon="16.320649402190575"><ele>437.0</ele><time>2026-05-02T15:23:49Z</time></trkpt><trkpt lat="50.164369059822455" lon="16.3209744981281"><ele>441.0</ele><time>2026-05-02T15:23:50Z</time></trkpt><trkpt lat="50.164465778573636" lon="16.321323132241396"><ele>445.0</ele><time>2026-05-02T15:23:51Z</time></trkpt><trkpt lat="50.164552248170324" lon="16.321615805140535"><ele>448.0</ele><time>2026-05-02T15:23:52Z</time></trkpt><trkpt lat="50.16459460097868" lon="16.321881520848947"><ele>451.0</ele><time>2026-05-02T15:23:53Z</time></trkpt><trkpt lat="50.16458560229064" lon="16.322151778502402"><ele>454.0</ele><time>2026-05-02T15:23:54Z</time></trkpt><trkpt lat="50.1645468590334" lon="16.32244108107352"><ele>457.0</ele><time>2026-05-02T15:23:55Z</time></trkpt><trkpt lat="50.16448403853061" lon="16.32275657206521"><ele>460.0</ele><time>2026-05-02T15:23:56Z</time></trkpt><trkpt lat="50.164407656651456" lon="16.323218751489215"><ele>461.5</ele><time>2026-05-02T15:23:57Z</time></trkpt><trkpt lat="50.16430924044056" lon="16.32365702926175"><ele>463.0</ele><time>2026-05-02T15:23:58Z</time></trkpt><trkpt lat="50.164204305892525" lon="16.324150903570555"><ele>463.0</ele><time>2026-05-02T15:23:59Z</time></trkpt><trkpt lat="50.164089438906736" lon="16.324649347807565"><ele>463.0</ele><time>2026-05-02T15:24:00Z</time></trkpt><trkpt lat="50.16400805455985" lon="16.325065510775413"><ele>462.5</ele><time>2026-05-02T15:24:01Z</time></trkpt><trkpt lat="50.1639244465392" lon="16.325502850371187"><ele>462.0</ele><time>2026-05-02T15:24:02Z</time></trkpt><trkpt lat="50.16384166342187" lon="16.325907337650893"><ele>462.0</ele><time>2026-05-02T15:24:03Z</time></trkpt><trkpt lat="50.16376768372857" lon="16.326261336002393"><ele>462.0</ele><time>2026-05-02T15:24:04Z</time></trkpt><trkpt lat="50.16370600756808" lon="16.326587751706004"><ele>462.0</ele><time>2026-05-02T15:24:05Z</time></trkpt><trkpt lat="50.16365469937834" lon="16.326933835563402"><ele>462.0</ele><time>2026-05-02T15:24:06Z</time></trkpt><trkpt lat="50.16365252323062" lon="16.32733554852998"><ele>461.0</ele><time>2026-05-02T15:24:07Z</time></trkpt><trkpt lat="50.16365340097834" lon="16.327804901927728"><ele>460.0</ele><time>2026-05-02T15:24:08Z</time></trkpt><trkpt lat="50.1636645885088" lon="16.328306227525438"><ele>458.0</ele><time>2026-05-02T15:24:09Z</time></trkpt><trkpt lat="50.163656914683344" lon="16.328730102168837"><ele>456.0</ele><time>2026-05-02T15:24:10Z</time></trkpt><trkpt lat="50.163657750915604" lon="16.329112951644486"><ele>454.33333333333337</ele><time>2026-05-02T15:24:11Z</time></trkpt><trkpt lat="50.16365670098302" lon="16.329432159406945"><ele>452.6666666666667</ele><time>2026-05-02T15:24:12Z</time></trkpt><trkpt lat="50.16365219141826" lon="16.329718148577207"><ele>451.0</ele><time>2026-05-02T15:24:13Z</time></trkpt><trkpt lat="50.16365502826152" lon="16.32994727528063"><ele>450.6666666666667</ele><time>2026-05-02T15:24:14Z</time></trkpt><trkpt lat="50.163693463448254" lon="16.330156340257876"><ele>450.33333333333337</ele><time>2026-05-02T15:24:15Z</time></trkpt><trkpt lat="50.16376492307375" lon="16.330367814909295"><ele>450.0</ele><time>2026-05-02T15:24:16Z</time></trkpt><trkpt lat="50.16386832879961" lon="16.330575433535135"><ele>450.0</ele><time>2026-05-02T15:24:17Z</time></trkpt><trkpt lat="50.16400200581108" lon="16.330813598924085"><ele>450.0</ele><time>2026-05-02T15:24:18Z</time></trkpt><trkpt lat="50.164154449597895" lon="16.331173660774432"><ele>451.5</ele><time>2026-05-02T15:24:19Z</time></trkpt><trkpt lat="50.16430113631674" lon="16.331561844683584"><ele>453.0</ele><time>2026-05-02T15:24:20Z</time></trkpt><trkpt lat="50.16444692314958" lon="16.33190947186428"><ele>453.0</ele><time>2026-05-02T15:24:21Z</time></trkpt><trkpt lat="50.16457520666907" lon="16.332207779519123"><ele>453.0</ele><time>2026-05-02T15:24:22Z</time></trkpt><trkpt lat="50.16467693585219" lon="16.332473901987765"><ele>453.0</ele><time>2026-05-02T15:24:23Z</time></trkpt><trkpt lat="50.1647663478839" lon="16.332729318320677"><ele>453.0</ele><time>2026-05-02T15:24:24Z</time></trkpt><trkpt lat="50.16484039207766" lon="16.332996327363144"><ele>453.0</ele><time>2026-05-02T15:24:25Z</time></trkpt><trkpt lat="50.164908698257555" lon="16.333302420861084"><ele>453.0</ele><time>2026-05-02T15:24:26Z</time></trkpt><trkpt lat="50.164978959641026" lon="16.333657907755434"><ele>452.0</ele><time>2026-05-02T15:24:27Z</time></trkpt><trkpt lat="50.16505771798418" lon="16.33405103047708"><ele>451.0</ele><time>2026-05-02T15:24:28Z</time></trkpt><trkpt lat="50.1651356009796" lon="16.334474639697056"><ele>450.5</ele><time>2026-05-02T15:24:29Z</time></trkpt><trkpt lat="50.16521642386216" lon="16.3348567762157"><ele>450.0</ele><time>2026-05-02T15:24:30Z</time></trkpt><trkpt lat="50.16528816019189" lon="16.335200020219204"><ele>450.0</ele><time>2026-05-02T15:24:31Z</time></trkpt><trkpt lat="50.165352726766194" lon="16.335505849280697"><ele>450.0</ele><time>2026-05-02T15:24:32Z</time></trkpt><trkpt lat="50.165403088208436" lon="16.33576598414534"><ele>450.0</ele><time>2026-05-02T15:24:33Z</time></trkpt><trkpt lat="50.16541488421044" lon="16.335987974351806"><ele>449.33333333333337</ele><time>2026-05-02T15:24:34Z</time></trkpt><trkpt lat="50.165359185429644" lon="16.33620446834937"><ele>448.6666666666667</ele><time>2026-05-02T15:24:35Z</time></trkpt><trkpt lat="50.16527632619826" lon="16.3364350616545"><ele>448.0</ele><time>2026-05-02T15:24:36Z</time></trkpt><trkpt lat="50.16513535597759" lon="16.33664662005774"><ele>448.5</ele><time>2026-05-02T15:24:37Z</time></trkpt><trkpt lat="50.16494082408672" lon="16.3368695876545"><ele>449.0</ele><time>2026-05-02T15:24:38Z</time></trkpt><trkpt lat="50.164774692788036" lon="16.337113341752843"><ele>447.3333333333333</ele><time>2026-05-02T15:24:39Z</time></trkpt><trkpt lat="50.164612091052014" lon="16.337338714952608"><ele>445.66666666666663</ele><time>2026-05-02T15:24:40Z</time></trkpt><trkpt lat="50.16447873369967" lon="16.337586085191834"><ele>444.0</ele><time>2026-05-02T15:24:41Z</time></trkpt><trkpt lat="50.164364110573686" lon="16.337824605232793"><ele>444.0</ele><time>2026-05-02T15:24:42Z</time></trkpt><trkpt lat="50.164266642318275" lon="16.338048884046323"><ele>444.0</ele><time>2026-05-02T15:24:43Z</time></trkpt><trkpt lat="50.16421561421095" lon="16.338284712751772"><ele>444.0</ele><time>2026-05-02T15:24:44Z</time></trkpt><trkpt lat="50.16421872049935" lon="16.33854053919692"><ele>442.66666666666663</ele><time>2026-05-02T15:24:45Z</time></trkpt><trkpt lat="50.164289776564665" lon="16.33880110629917"><ele>441.3333333333333</ele><time>2026-05-02T15:24:46Z</time></trkpt><trkpt lat="50.16441419437828" lon="16.339093764355635"><ele>440.0</ele><time>2026-05-02T15:24:47Z</time></trkpt><trkpt lat="50.164545366664484" lon="16.339440296421905"><ele>441.66666666666663</ele><time>2026-05-02T15:24:48Z</time></trkpt><trkpt lat="50.164660955919224" lon="16.339750915533372"><ele>443.33333333333337</ele><time>2026-05-02T15:24:49Z</time></trkpt><trkpt lat="50.16475426930357" lon="16.34004199082319"><ele>445.0</ele><time>2026-05-02T15:24:50Z</time></trkpt><trkpt lat="50.164823628981864" lon="16.34034899114753"><ele>443.6666666666667</ele><time>2026-05-02T15:24:51Z</time></trkpt><trkpt lat="50.16486969244435" lon="16.340662410910273"><ele>442.33333333333337</ele><time>2026-05-02T15:24:52Z</time></trkpt><trkpt lat="50.16489141659667" lon="16.340941795915423"><ele>441.0</ele><time>2026-05-02T15:24:53Z</time></trkpt><trkpt lat="50.16486916838834" lon="16.341205195533817"><ele>441.0</ele><time>2026-05-02T15:24:54Z</time></trkpt><trkpt lat="50.16486230640739" lon="16.341471361591324"><ele>441.0</ele><time>2026-05-02T15:24:55Z</time></trkpt><trkpt lat="50.164905755619074" lon="16.34172611306769"><ele>441.0</ele><time>2026-05-02T15:24:56Z</time></trkpt><trkpt lat="50.16500514907888" lon="16.34200327855934"><ele>441.0</ele><time>2026-05-02T15:24:57Z</time></trkpt><trkpt lat="50.16514322563458" lon="16.34229049671359"><ele>441.0</ele><time>2026-05-02T15:24:58Z</time></trkpt><trkpt lat="50.16529981116179" lon="16.342628403430574"><ele>441.0</ele><time>2026-05-02T15:24:59Z</time></trkpt><trkpt lat="50.16546980230025" lon="16.343006625053924"><ele>441.0</ele><time>2026-05-02T15:25:00Z</time></trkpt><trkpt lat="50.16564935991335" lon="16.34340515882641"><ele>435.5</ele><time>2026-05-02T15:25:01Z</time></trkpt><trkpt lat="50.1658092135227" lon="16.343759035008297"><ele>430.0</ele><time>2026-05-02T15:25:02Z</time></trkpt><trkpt lat="50.165954037952254" lon="16.34408187620315"><ele>430.0</ele><time>2026-05-02T15:25:03Z</time></trkpt><trkpt lat="50.16606897935349" lon="16.344396559148475"><ele>430.0</ele><time>2026-05-02T15:25:04Z</time></trkpt><trkpt lat="50.16618094919861" lon="16.344715961582253"><ele>431.33333333333337</ele><time>2026-05-02T15:25:05Z</time></trkpt><trkpt lat="50.16631477859703" lon="16.34500454119586"><ele>432.66666666666663</ele><time>2026-05-02T15:25:06Z</time></trkpt><trkpt lat="50.16645923749527" lon="16.345246685446238"><ele>434.0</ele><time>2026-05-02T15:25:07Z</time></trkpt><trkpt lat="50.16665580305304" lon="16.345451272857055"><ele>430.66666666666663</ele><time>2026-05-02T15:25:08Z</time></trkpt><trkpt lat="50.16685313037919" lon="16.345658383334257"><ele>427.33333333333337</ele><time>2026-05-02T15:25:09Z</time></trkpt><trkpt lat="50.16703892882216" lon="16.345791626128715"><ele>424.0</ele><time>2026-05-02T15:25:10Z</time></trkpt><trkpt lat="50.16725659461672" lon="16.34586440717229"><ele>419.0</ele><time>2026-05-02T15:25:11Z</time></trkpt><trkpt lat="50.16753088225914" lon="16.34594294294567"><ele>414.0</ele><time>2026-05-02T15:25:12Z</time></trkpt><trkpt lat="50.167856564175246" lon="16.346082756441607"><ele>411.0</ele><time>2026-05-02T15:25:13Z</time></trkpt><trkpt lat="50.16820386435045" lon="16.346168975704465"><ele>408.0</ele><time>2026-05-02T15:25:14Z</time></trkpt><trkpt lat="50.16852097885211" lon="16.346267561877863"><ele>408.0</ele><time>2026-05-02T15:25:15Z</time></trkpt><trkpt lat="50.168781862114926" lon="16.34634519623025"><ele>408.0</ele><time>2026-05-02T15:25:16Z</time></trkpt><trkpt lat="50.16900411944979" lon="16.34640852613052"><ele>407.33333333333337</ele><time>2026-05-02T15:25:17Z</time></trkpt><trkpt lat="50.169200623150694" lon="16.346488079363994"><ele>406.6666666666667</ele><time>2026-05-02T15:25:18Z</time></trkpt><trkpt lat="50.16937414016124" lon="16.346556121787447"><ele>406.0</ele><time>2026-05-02T15:25:19Z</time></trkpt><trkpt lat="50.1695071557376" lon="16.346680813600326"><ele>406.0</ele><time>2026-05-02T15:25:20Z</time></trkpt><trkpt lat="50.16964095137559" lon="16.346880641773442"><ele>406.0</ele><time>2026-05-02T15:25:21Z</time></trkpt><trkpt lat="50.16978202976916" lon="16.347156504455903"><ele>406.0</ele><time>2026-05-02T15:25:22Z</time></trkpt><trkpt lat="50.16992881087938" lon="16.34746778519364"><ele>404.6666666666667</ele><time>2026-05-02T15:25:23Z</time></trkpt><trkpt lat="50.17005325416526" lon="16.347751866461845"><ele>403.33333333333337</ele><time>2026-05-02T15:25:24Z</time></trkpt><trkpt lat="50.170132578898574" lon="16.34798082357964"><ele>402.0</ele><time>2026-05-02T15:25:25Z</time></trkpt><trkpt lat="50.17020494416782" lon="16.34823462392504"><ele>400.66666666666663</ele><time>2026-05-02T15:25:26Z</time></trkpt><trkpt lat="50.17028022546273" lon="16.34848387836064"><ele>399.3333333333333</ele><time>2026-05-02T15:25:27Z</time></trkpt><trkpt lat="50.17036651108801" lon="16.34867880644705"><ele>398.0</ele><time>2026-05-02T15:25:28Z</time></trkpt><trkpt lat="50.170447530043035" lon="16.348842496289688"><ele>397.75</ele><time>2026-05-02T15:25:29Z</time></trkpt><trkpt lat="50.17055679716497" lon="16.34897803225088"><ele>397.5</ele><time>2026-05-02T15:25:30.001Z</time></trkpt><trkpt lat="50.17069173318454" lon="16.349089444002505"><ele>397.25</ele><time>2026-05-02T15:25:31.001Z</time></trkpt><trkpt lat="50.17082005280279" lon="16.349189148790717"><ele>397.0</ele><time>2026-05-02T15:25:32.001Z</time></trkpt><trkpt lat="50.1709145783516" lon="16.349260130298212"><ele>396.40000000000003</ele><time>2026-05-02T15:25:33.001Z</time></trkpt><trkpt lat="50.17097823630626" lon="16.34935735076623"><ele>395.8</ele><time>2026-05-02T15:25:34.001Z</time></trkpt><trkpt lat="50.17103351651922" lon="16.349421452694685"><ele>395.2</ele><time>2026-05-02T15:25:35.001Z</time></trkpt><trkpt lat="50.17108618903384" lon="16.3494825307388"><ele>394.6</ele><time>2026-05-02T15:25:39Z</time></trkpt><trkpt lat="50.171251622645904" lon="16.349271261660213"><ele>394.0</ele><time>2026-05-02T15:25:41Z</time></trkpt><trkpt lat="50.17132453300448" lon="16.349133760716988"><ele>394.0</ele><time>2026-05-02T15:25:42Z</time></trkpt><trkpt lat="50.171402899934364" lon="16.34897935650771"><ele>394.0</ele><time>2026-05-02T15:25:43Z</time></trkpt><trkpt lat="50.171499490184985" lon="16.34880988531387"><ele>394.0</ele><time>2026-05-02T15:25:44Z</time></trkpt><trkpt lat="50.17158892877255" lon="16.348656934777594"><ele>394.0</ele><time>2026-05-02T15:25:45Z</time></trkpt><trkpt lat="50.17165693664861" lon="16.34853729188968"><ele>393.83333333333337</ele><time>2026-05-02T15:25:46Z</time></trkpt><trkpt lat="50.171708777254466" lon="16.348453141464642"><ele>393.6666666666667</ele><time>2026-05-02T15:25:47Z</time></trkpt><trkpt lat="50.17179844757791" lon="16.34853906013158"><ele>393.5</ele><time>2026-05-02T15:25:49Z</time></trkpt><trkpt lat="50.17185994599744" lon="16.348606528755873"><ele>393.33333333333337</ele><time>2026-05-02T15:25:50Z</time></trkpt><trkpt lat="50.17192516446501" lon="16.348700188737602"><ele>393.1666666666667</ele><time>2026-05-02T15:25:51Z</time></trkpt><trkpt lat="50.171971386256125" lon="16.348793959512076"><ele>393.0</ele><time>2026-05-02T15:25:52Z</time></trkpt><trkpt lat="50.172006701338454" lon="16.348883465962572"><ele>393.0</ele><time>2026-05-02T15:25:53Z</time></trkpt><trkpt lat="50.172025032213554" lon="16.34898150112358"><ele>393.0</ele><time>2026-05-02T15:25:54Z</time></trkpt><trkpt lat="50.17195120046629" lon="16.349092908990702"><ele>393.0</ele><time>2026-05-02T15:25:55Z</time></trkpt><trkpt lat="50.17192543865641" lon="16.34924274956825"><ele>393.0</ele><time>2026-05-02T15:25:56Z</time></trkpt><trkpt lat="50.17193341352024" lon="16.34942126217147"><ele>393.0</ele><time>2026-05-02T15:25:57Z</time></trkpt><trkpt lat="50.17195030361598" lon="16.349604013915897"><ele>394.0</ele><time>2026-05-02T15:25:58Z</time></trkpt><trkpt lat="50.17196482344728" lon="16.349770549730046"><ele>395.0</ele><time>2026-05-02T15:25:59Z</time></trkpt><trkpt lat="50.17198276685967" lon="16.349900315965026"><ele>396.0</ele><time>2026-05-02T15:26:00Z</time></trkpt><trkpt lat="50.17207226648292" lon="16.350063645148737"><ele>397.0</ele><time>2026-05-02T15:26:01Z</time></trkpt><trkpt lat="50.172150942423855" lon="16.35024204539175"><ele>397.0</ele><time>2026-05-02T15:26:02Z</time></trkpt><trkpt lat="50.17223885296099" lon="16.35044106195408"><ele>397.0</ele><time>2026-05-02T15:26:03Z</time></trkpt><trkpt lat="50.17233963479889" lon="16.35063522028184"><ele>397.0</ele><time>2026-05-02T15:26:04Z</time></trkpt><trkpt lat="50.172424338201616" lon="16.35082596702316"><ele>397.75</ele><time>2026-05-02T15:26:05Z</time></trkpt><trkpt lat="50.17247477542238" lon="16.351006499241738"><ele>398.5</ele><time>2026-05-02T15:26:06Z</time></trkpt><trkpt lat="50.172532568422156" lon="16.3511848088584"><ele>399.25</ele><time>2026-05-02T15:26:07Z</time></trkpt><trkpt lat="50.17257091188916" lon="16.351387722722453"><ele>400.0</ele><time>2026-05-02T15:26:08Z</time></trkpt><trkpt lat="50.17260239918631" lon="16.35162061241271"><ele>400.33333333333337</ele><time>2026-05-02T15:26:09Z</time></trkpt><trkpt lat="50.1726476128155" lon="16.35187640020572"><ele>400.66666666666663</ele><time>2026-05-02T15:26:10Z</time></trkpt><trkpt lat="50.17268199719537" lon="16.35214175474866"><ele>401.0</ele><time>2026-05-02T15:26:11Z</time></trkpt><trkpt lat="50.1726993760504" lon="16.35238426071211"><ele>401.20000000000005</ele><time>2026-05-02T15:26:12Z</time></trkpt><trkpt lat="50.1727248364996" lon="16.352584786541183"><ele>401.40000000000003</ele><time>2026-05-02T15:26:13Z</time></trkpt><trkpt lat="50.172747921833114" lon="16.352766602828893"><ele>401.6</ele><time>2026-05-02T15:26:14Z</time></trkpt><trkpt lat="50.1727686139191" lon="16.352927672374463"><ele>401.8</ele><time>2026-05-02T15:26:15Z</time></trkpt><trkpt lat="50.17278699787908" lon="16.353071177502787"><ele>402.0</ele><time>2026-05-02T15:26:16Z</time></trkpt><trkpt lat="50.1728000176094" lon="16.35317370168313"><ele>402.0</ele><time>2026-05-02T15:26:17Z</time></trkpt><trkpt lat="50.172797638792005" lon="16.353288523957634"><ele>402.0</ele><time>2026-05-02T15:26:20Z</time></trkpt></trkseg></trk></gpx>